<?xml version="1.0" encoding="UTF-8" standalone="no" ?>
<gpx xmlns="http://www.topografix.com/GPX/1/1" xmlns:xsi="http://www.w3.org/2001/XMLSchema-instance" xsi:schemaLocation="http://www.topografix.com/GPX/1/1 http://www.topografix.com/GPX/1/1/gpx.xsd" version="1.1" creator="VisuGPX - https://www.visugpx.com">
  <metadata>
    <name>Coublevitaine</name>
    <desc><![CDATA[sortie club ida a coublevie]]></desc>
  </metadata>
  <trk>
    <name><![CDATA[Coublevitaine_1]]></name>
    <trkseg>
      <trkpt lat="45.35433" lon="5.61279">
        <ele>373.7</ele>
        <time>2016-05-21T04:54:45Z</time>
      </trkpt>
      <trkpt lat="45.35433" lon="5.6123">
        <ele>367.4</ele>
        <time>2016-05-21T04:58:44Z</time>
      </trkpt>
      <trkpt lat="45.35429" lon="5.61225">
        <ele>367.3</ele>
        <time>2016-05-21T04:58:51Z</time>
      </trkpt>
      <trkpt lat="45.35423" lon="5.61225">
        <ele>367.5</ele>
        <time>2016-05-21T04:58:58Z</time>
      </trkpt>
      <trkpt lat="45.35417" lon="5.61219">
        <ele>366.9</ele>
        <time>2016-05-21T04:59:08Z</time>
      </trkpt>
      <trkpt lat="45.35417" lon="5.61218">
        <ele>366.4</ele>
        <time>2016-05-21T04:59:15Z</time>
      </trkpt>
      <trkpt lat="45.35414" lon="5.61207">
        <ele>367.4</ele>
        <time>2016-05-21T04:59:27Z</time>
      </trkpt>
      <trkpt lat="45.3541" lon="5.61194">
        <ele>367.5</ele>
        <time>2016-05-21T04:59:29Z</time>
      </trkpt>
      <trkpt lat="45.35407" lon="5.61184">
        <ele>368.1</ele>
        <time>2016-05-21T04:59:31Z</time>
      </trkpt>
      <trkpt lat="45.35405" lon="5.61173">
        <ele>368.3</ele>
        <time>2016-05-21T04:59:33Z</time>
      </trkpt>
      <trkpt lat="45.35402" lon="5.61163">
        <ele>370.3</ele>
        <time>2016-05-21T04:59:35Z</time>
      </trkpt>
      <trkpt lat="45.35399" lon="5.61152">
        <ele>370.3</ele>
        <time>2016-05-21T04:59:37Z</time>
      </trkpt>
      <trkpt lat="45.35396" lon="5.61141">
        <ele>369</ele>
        <time>2016-05-21T04:59:39Z</time>
      </trkpt>
      <trkpt lat="45.35391" lon="5.61131">
        <ele>368</ele>
        <time>2016-05-21T04:59:41Z</time>
      </trkpt>
      <trkpt lat="45.35384" lon="5.61123">
        <ele>368.6</ele>
        <time>2016-05-21T04:59:43Z</time>
      </trkpt>
      <trkpt lat="45.35374" lon="5.61129">
        <ele>368</ele>
        <time>2016-05-21T04:59:46Z</time>
      </trkpt>
      <trkpt lat="45.35366" lon="5.6114">
        <ele>366.5</ele>
        <time>2016-05-21T04:59:48Z</time>
      </trkpt>
      <trkpt lat="45.35359" lon="5.6115">
        <ele>366.3</ele>
        <time>2016-05-21T04:59:50Z</time>
      </trkpt>
      <trkpt lat="45.35352" lon="5.61159">
        <ele>365.7</ele>
        <time>2016-05-21T04:59:52Z</time>
      </trkpt>
      <trkpt lat="45.35347" lon="5.61168">
        <ele>365.7</ele>
        <time>2016-05-21T04:59:54Z</time>
      </trkpt>
      <trkpt lat="45.35344" lon="5.61177">
        <ele>365.6</ele>
        <time>2016-05-21T04:59:56Z</time>
      </trkpt>
      <trkpt lat="45.35341" lon="5.61191">
        <ele>365.2</ele>
        <time>2016-05-21T04:59:59Z</time>
      </trkpt>
      <trkpt lat="45.3534" lon="5.61201">
        <ele>364.6</ele>
        <time>2016-05-21T05:00:02Z</time>
      </trkpt>
      <trkpt lat="45.35345" lon="5.61211">
        <ele>363.7</ele>
        <time>2016-05-21T05:00:06Z</time>
      </trkpt>
      <trkpt lat="45.3535" lon="5.61219">
        <ele>363.1</ele>
        <time>2016-05-21T05:00:09Z</time>
      </trkpt>
      <trkpt lat="45.35356" lon="5.61228">
        <ele>362.9</ele>
        <time>2016-05-21T05:00:12Z</time>
      </trkpt>
      <trkpt lat="45.35362" lon="5.61238">
        <ele>362.8</ele>
        <time>2016-05-21T05:00:15Z</time>
      </trkpt>
      <trkpt lat="45.35367" lon="5.61247">
        <ele>363.1</ele>
        <time>2016-05-21T05:00:18Z</time>
      </trkpt>
      <trkpt lat="45.35373" lon="5.61258">
        <ele>363.4</ele>
        <time>2016-05-21T05:00:22Z</time>
      </trkpt>
      <trkpt lat="45.35378" lon="5.61267">
        <ele>363.3</ele>
        <time>2016-05-21T05:00:24Z</time>
      </trkpt>
      <trkpt lat="45.35384" lon="5.61278">
        <ele>363.3</ele>
        <time>2016-05-21T05:00:27Z</time>
      </trkpt>
      <trkpt lat="45.35389" lon="5.61286">
        <ele>363.3</ele>
        <time>2016-05-21T05:00:30Z</time>
      </trkpt>
      <trkpt lat="45.35394" lon="5.61295">
        <ele>363.6</ele>
        <time>2016-05-21T05:00:34Z</time>
      </trkpt>
      <trkpt lat="45.35398" lon="5.61298">
        <ele>364</ele>
        <time>2016-05-21T05:00:41Z</time>
      </trkpt>
      <trkpt lat="45.35402" lon="5.61309">
        <ele>366.6</ele>
        <time>2016-05-21T05:01:09Z</time>
      </trkpt>
      <trkpt lat="45.35405" lon="5.61312">
        <ele>366.6</ele>
        <time>2016-05-21T05:01:16Z</time>
      </trkpt>
      <trkpt lat="45.35406" lon="5.61315">
        <ele>367.1</ele>
        <time>2016-05-21T05:01:26Z</time>
      </trkpt>
      <trkpt lat="45.35408" lon="5.61322">
        <ele>368.1</ele>
        <time>2016-05-21T05:01:34Z</time>
      </trkpt>
      <trkpt lat="45.35411" lon="5.61325">
        <ele>368.6</ele>
        <time>2016-05-21T05:01:41Z</time>
      </trkpt>
      <trkpt lat="45.35411" lon="5.61325">
        <ele>367.6</ele>
        <time>2016-05-21T05:04:04Z</time>
      </trkpt>
      <trkpt lat="45.35408" lon="5.61325">
        <ele>367.7</ele>
        <time>2016-05-21T05:04:13Z</time>
      </trkpt>
      <trkpt lat="45.35409" lon="5.6132">
        <ele>368.5</ele>
        <time>2016-05-21T05:05:31Z</time>
      </trkpt>
      <trkpt lat="45.35411" lon="5.61323">
        <ele>371.9</ele>
        <time>2016-05-21T05:05:56Z</time>
      </trkpt>
      <trkpt lat="45.35407" lon="5.61331">
        <ele>370.3</ele>
        <time>2016-05-21T05:07:46Z</time>
      </trkpt>
      <trkpt lat="45.35412" lon="5.61332">
        <ele>368.6</ele>
        <time>2016-05-21T05:07:24Z</time>
      </trkpt>
      <trkpt lat="45.35411" lon="5.61334">
        <ele>367.8</ele>
        <time>2016-05-21T05:09:17Z</time>
      </trkpt>
      <trkpt lat="45.35414" lon="5.61323">
        <ele>368.8</ele>
        <time>2016-05-21T05:12:44Z</time>
      </trkpt>
      <trkpt lat="45.35413" lon="5.61304">
        <ele>369.9</ele>
        <time>2016-05-21T05:13:25Z</time>
      </trkpt>
      <trkpt lat="45.3541" lon="5.61299">
        <ele>369.9</ele>
        <time>2016-05-21T05:13:32Z</time>
      </trkpt>
      <trkpt lat="45.35406" lon="5.61302">
        <ele>369</ele>
        <time>2016-05-21T05:13:42Z</time>
      </trkpt>
      <trkpt lat="45.35403" lon="5.61302">
        <ele>369</ele>
        <time>2016-05-21T05:13:49Z</time>
      </trkpt>
      <trkpt lat="45.35398" lon="5.61299">
        <ele>370</ele>
        <time>2016-05-21T05:14:08Z</time>
      </trkpt>
      <trkpt lat="45.35395" lon="5.61284">
        <ele>369.8</ele>
        <time>2016-05-21T05:14:38Z</time>
      </trkpt>
      <trkpt lat="45.35391" lon="5.61276">
        <ele>370</ele>
        <time>2016-05-21T05:14:45Z</time>
      </trkpt>
      <trkpt lat="45.35387" lon="5.61267">
        <ele>369.8</ele>
        <time>2016-05-21T05:14:51Z</time>
      </trkpt>
      <trkpt lat="45.35381" lon="5.61259">
        <ele>369.6</ele>
        <time>2016-05-21T05:14:56Z</time>
      </trkpt>
      <trkpt lat="45.35374" lon="5.6125">
        <ele>369.6</ele>
        <time>2016-05-21T05:15:03Z</time>
      </trkpt>
      <trkpt lat="45.35369" lon="5.6124">
        <ele>369.3</ele>
        <time>2016-05-21T05:15:08Z</time>
      </trkpt>
      <trkpt lat="45.35363" lon="5.61229">
        <ele>369.1</ele>
        <time>2016-05-21T05:15:12Z</time>
      </trkpt>
      <trkpt lat="45.35356" lon="5.61221">
        <ele>368.9</ele>
        <time>2016-05-21T05:15:16Z</time>
      </trkpt>
      <trkpt lat="45.35351" lon="5.61213">
        <ele>368.8</ele>
        <time>2016-05-21T05:15:20Z</time>
      </trkpt>
      <trkpt lat="45.35347" lon="5.61205">
        <ele>368.7</ele>
        <time>2016-05-21T05:15:25Z</time>
      </trkpt>
      <trkpt lat="45.35347" lon="5.61189">
        <ele>368.1</ele>
        <time>2016-05-21T05:15:36Z</time>
      </trkpt>
      <trkpt lat="45.35351" lon="5.61178">
        <ele>368.1</ele>
        <time>2016-05-21T05:15:40Z</time>
      </trkpt>
      <trkpt lat="45.35354" lon="5.61168">
        <ele>368.1</ele>
        <time>2016-05-21T05:15:44Z</time>
      </trkpt>
      <trkpt lat="45.35359" lon="5.61159">
        <ele>368.1</ele>
        <time>2016-05-21T05:15:48Z</time>
      </trkpt>
      <trkpt lat="45.35364" lon="5.6115">
        <ele>368.2</ele>
        <time>2016-05-21T05:15:51Z</time>
      </trkpt>
      <trkpt lat="45.3537" lon="5.6114">
        <ele>368.3</ele>
        <time>2016-05-21T05:15:55Z</time>
      </trkpt>
      <trkpt lat="45.35378" lon="5.61137">
        <ele>368.1</ele>
        <time>2016-05-21T05:15:59Z</time>
      </trkpt>
      <trkpt lat="45.35386" lon="5.61145">
        <ele>367.9</ele>
        <time>2016-05-21T05:16:02Z</time>
      </trkpt>
      <trkpt lat="45.35391" lon="5.61154">
        <ele>367.6</ele>
        <time>2016-05-21T05:16:05Z</time>
      </trkpt>
      <trkpt lat="45.35395" lon="5.61166">
        <ele>367.3</ele>
        <time>2016-05-21T05:16:08Z</time>
      </trkpt>
      <trkpt lat="45.354" lon="5.6118">
        <ele>367.1</ele>
        <time>2016-05-21T05:16:11Z</time>
      </trkpt>
      <trkpt lat="45.35404" lon="5.61189">
        <ele>366.9</ele>
        <time>2016-05-21T05:16:13Z</time>
      </trkpt>
      <trkpt lat="45.35409" lon="5.612">
        <ele>366.7</ele>
        <time>2016-05-21T05:16:16Z</time>
      </trkpt>
      <trkpt lat="45.35414" lon="5.61211">
        <ele>366.5</ele>
        <time>2016-05-21T05:16:19Z</time>
      </trkpt>
      <trkpt lat="45.35418" lon="5.61223">
        <ele>366.5</ele>
        <time>2016-05-21T05:16:22Z</time>
      </trkpt>
      <trkpt lat="45.35422" lon="5.61234">
        <ele>366.6</ele>
        <time>2016-05-21T05:16:25Z</time>
      </trkpt>
      <trkpt lat="45.35427" lon="5.61245">
        <ele>366.8</ele>
        <time>2016-05-21T05:16:28Z</time>
      </trkpt>
      <trkpt lat="45.35431" lon="5.61258">
        <ele>366.9</ele>
        <time>2016-05-21T05:16:31Z</time>
      </trkpt>
      <trkpt lat="45.35439" lon="5.61267">
        <ele>366.9</ele>
        <time>2016-05-21T05:16:34Z</time>
      </trkpt>
      <trkpt lat="45.35446" lon="5.61277">
        <ele>366.9</ele>
        <time>2016-05-21T05:16:37Z</time>
      </trkpt>
      <trkpt lat="45.35455" lon="5.61285">
        <ele>366.8</ele>
        <time>2016-05-21T05:16:40Z</time>
      </trkpt>
      <trkpt lat="45.35463" lon="5.61292">
        <ele>366.7</ele>
        <time>2016-05-21T05:16:43Z</time>
      </trkpt>
      <trkpt lat="45.35471" lon="5.61302">
        <ele>366.4</ele>
        <time>2016-05-21T05:16:46Z</time>
      </trkpt>
      <trkpt lat="45.35478" lon="5.61312">
        <ele>366.2</ele>
        <time>2016-05-21T05:16:49Z</time>
      </trkpt>
      <trkpt lat="45.35482" lon="5.61321">
        <ele>365.9</ele>
        <time>2016-05-21T05:16:52Z</time>
      </trkpt>
      <trkpt lat="45.35486" lon="5.6133">
        <ele>365.7</ele>
        <time>2016-05-21T05:16:56Z</time>
      </trkpt>
      <trkpt lat="45.35489" lon="5.6134">
        <ele>365.5</ele>
        <time>2016-05-21T05:17:00Z</time>
      </trkpt>
      <trkpt lat="45.35487" lon="5.61352">
        <ele>365.4</ele>
        <time>2016-05-21T05:17:04Z</time>
      </trkpt>
      <trkpt lat="45.35484" lon="5.61363">
        <ele>365.3</ele>
        <time>2016-05-21T05:17:08Z</time>
      </trkpt>
      <trkpt lat="45.35483" lon="5.61374">
        <ele>365.2</ele>
        <time>2016-05-21T05:17:12Z</time>
      </trkpt>
      <trkpt lat="45.35481" lon="5.61385">
        <ele>365.3</ele>
        <time>2016-05-21T05:17:15Z</time>
      </trkpt>
      <trkpt lat="45.35479" lon="5.61397">
        <ele>365.4</ele>
        <time>2016-05-21T05:17:18Z</time>
      </trkpt>
      <trkpt lat="45.35476" lon="5.61409">
        <ele>365.6</ele>
        <time>2016-05-21T05:17:22Z</time>
      </trkpt>
      <trkpt lat="45.35475" lon="5.61422">
        <ele>365.6</ele>
        <time>2016-05-21T05:17:25Z</time>
      </trkpt>
      <trkpt lat="45.35472" lon="5.61435">
        <ele>365.7</ele>
        <time>2016-05-21T05:17:28Z</time>
      </trkpt>
      <trkpt lat="45.3547" lon="5.61447">
        <ele>365.9</ele>
        <time>2016-05-21T05:17:31Z</time>
      </trkpt>
      <trkpt lat="45.35468" lon="5.6146">
        <ele>366.2</ele>
        <time>2016-05-21T05:17:34Z</time>
      </trkpt>
      <trkpt lat="45.35465" lon="5.61471">
        <ele>366.5</ele>
        <time>2016-05-21T05:17:37Z</time>
      </trkpt>
      <trkpt lat="45.35463" lon="5.61482">
        <ele>366.9</ele>
        <time>2016-05-21T05:17:40Z</time>
      </trkpt>
      <trkpt lat="45.35461" lon="5.61493">
        <ele>367.5</ele>
        <time>2016-05-21T05:17:43Z</time>
      </trkpt>
      <trkpt lat="45.3546" lon="5.61506">
        <ele>368</ele>
        <time>2016-05-21T05:17:46Z</time>
      </trkpt>
      <trkpt lat="45.35462" lon="5.61519">
        <ele>368.4</ele>
        <time>2016-05-21T05:17:49Z</time>
      </trkpt>
      <trkpt lat="45.35468" lon="5.61528">
        <ele>368.8</ele>
        <time>2016-05-21T05:17:52Z</time>
      </trkpt>
      <trkpt lat="45.35475" lon="5.61533">
        <ele>369.3</ele>
        <time>2016-05-21T05:17:55Z</time>
      </trkpt>
      <trkpt lat="45.35485" lon="5.61531">
        <ele>369.9</ele>
        <time>2016-05-21T05:17:58Z</time>
      </trkpt>
      <trkpt lat="45.35495" lon="5.61526">
        <ele>370.4</ele>
        <time>2016-05-21T05:18:01Z</time>
      </trkpt>
      <trkpt lat="45.35504" lon="5.61522">
        <ele>370.9</ele>
        <time>2016-05-21T05:18:04Z</time>
      </trkpt>
      <trkpt lat="45.35513" lon="5.61521">
        <ele>371.5</ele>
        <time>2016-05-21T05:18:07Z</time>
      </trkpt>
      <trkpt lat="45.35521" lon="5.6152">
        <ele>372</ele>
        <time>2016-05-21T05:18:10Z</time>
      </trkpt>
      <trkpt lat="45.3553" lon="5.61521">
        <ele>372.6</ele>
        <time>2016-05-21T05:18:13Z</time>
      </trkpt>
      <trkpt lat="45.35537" lon="5.61524">
        <ele>373.2</ele>
        <time>2016-05-21T05:18:16Z</time>
      </trkpt>
      <trkpt lat="45.35546" lon="5.61525">
        <ele>373.7</ele>
        <time>2016-05-21T05:18:19Z</time>
      </trkpt>
      <trkpt lat="45.35556" lon="5.61528">
        <ele>374.2</ele>
        <time>2016-05-21T05:18:22Z</time>
      </trkpt>
      <trkpt lat="45.35563" lon="5.61532">
        <ele>374.7</ele>
        <time>2016-05-21T05:18:25Z</time>
      </trkpt>
      <trkpt lat="45.35571" lon="5.61537">
        <ele>375.3</ele>
        <time>2016-05-21T05:18:28Z</time>
      </trkpt>
      <trkpt lat="45.35577" lon="5.61546">
        <ele>375.9</ele>
        <time>2016-05-21T05:18:31Z</time>
      </trkpt>
      <trkpt lat="45.35584" lon="5.61554">
        <ele>376.4</ele>
        <time>2016-05-21T05:18:34Z</time>
      </trkpt>
      <trkpt lat="45.35591" lon="5.61562">
        <ele>376.8</ele>
        <time>2016-05-21T05:18:37Z</time>
      </trkpt>
      <trkpt lat="45.35596" lon="5.61569">
        <ele>377.3</ele>
        <time>2016-05-21T05:18:40Z</time>
      </trkpt>
      <trkpt lat="45.35601" lon="5.61577">
        <ele>377.8</ele>
        <time>2016-05-21T05:18:43Z</time>
      </trkpt>
      <trkpt lat="45.35604" lon="5.61587">
        <ele>378.5</ele>
        <time>2016-05-21T05:18:46Z</time>
      </trkpt>
      <trkpt lat="45.35604" lon="5.616">
        <ele>379.4</ele>
        <time>2016-05-21T05:18:50Z</time>
      </trkpt>
      <trkpt lat="45.35604" lon="5.6161">
        <ele>380.1</ele>
        <time>2016-05-21T05:18:53Z</time>
      </trkpt>
      <trkpt lat="45.35602" lon="5.61621">
        <ele>380.8</ele>
        <time>2016-05-21T05:18:56Z</time>
      </trkpt>
      <trkpt lat="45.35598" lon="5.6163">
        <ele>381.5</ele>
        <time>2016-05-21T05:18:59Z</time>
      </trkpt>
      <trkpt lat="45.35591" lon="5.61638">
        <ele>382</ele>
        <time>2016-05-21T05:19:02Z</time>
      </trkpt>
      <trkpt lat="45.35584" lon="5.61643">
        <ele>382.6</ele>
        <time>2016-05-21T05:19:05Z</time>
      </trkpt>
      <trkpt lat="45.35576" lon="5.61648">
        <ele>383.1</ele>
        <time>2016-05-21T05:19:08Z</time>
      </trkpt>
      <trkpt lat="45.35567" lon="5.61652">
        <ele>383.6</ele>
        <time>2016-05-21T05:19:11Z</time>
      </trkpt>
      <trkpt lat="45.35559" lon="5.61659">
        <ele>384</ele>
        <time>2016-05-21T05:19:14Z</time>
      </trkpt>
      <trkpt lat="45.35554" lon="5.6167">
        <ele>384.5</ele>
        <time>2016-05-21T05:19:17Z</time>
      </trkpt>
      <trkpt lat="45.35551" lon="5.6168">
        <ele>385</ele>
        <time>2016-05-21T05:19:20Z</time>
      </trkpt>
      <trkpt lat="45.35551" lon="5.61691">
        <ele>385.6</ele>
        <time>2016-05-21T05:19:23Z</time>
      </trkpt>
      <trkpt lat="45.35554" lon="5.61704">
        <ele>386.2</ele>
        <time>2016-05-21T05:19:26Z</time>
      </trkpt>
      <trkpt lat="45.35558" lon="5.61715">
        <ele>386.9</ele>
        <time>2016-05-21T05:19:29Z</time>
      </trkpt>
      <trkpt lat="45.35562" lon="5.61725">
        <ele>387.2</ele>
        <time>2016-05-21T05:19:31Z</time>
      </trkpt>
      <trkpt lat="45.35565" lon="5.61735">
        <ele>387.5</ele>
        <time>2016-05-21T05:19:33Z</time>
      </trkpt>
      <trkpt lat="45.35569" lon="5.61746">
        <ele>389.2</ele>
        <time>2016-05-21T05:19:35Z</time>
      </trkpt>
      <trkpt lat="45.3557" lon="5.61756">
        <ele>390.5</ele>
        <time>2016-05-21T05:19:37Z</time>
      </trkpt>
      <trkpt lat="45.35572" lon="5.61767">
        <ele>391.1</ele>
        <time>2016-05-21T05:19:39Z</time>
      </trkpt>
      <trkpt lat="45.35574" lon="5.6178">
        <ele>391.7</ele>
        <time>2016-05-21T05:19:41Z</time>
      </trkpt>
      <trkpt lat="45.35576" lon="5.61792">
        <ele>392.2</ele>
        <time>2016-05-21T05:19:43Z</time>
      </trkpt>
      <trkpt lat="45.35578" lon="5.61804">
        <ele>392.6</ele>
        <time>2016-05-21T05:19:45Z</time>
      </trkpt>
      <trkpt lat="45.35579" lon="5.61816">
        <ele>393.1</ele>
        <time>2016-05-21T05:19:47Z</time>
      </trkpt>
      <trkpt lat="45.3558" lon="5.61829">
        <ele>393.2</ele>
        <time>2016-05-21T05:19:49Z</time>
      </trkpt>
      <trkpt lat="45.35581" lon="5.61841">
        <ele>392.5</ele>
        <time>2016-05-21T05:19:51Z</time>
      </trkpt>
      <trkpt lat="45.35581" lon="5.61852">
        <ele>391.9</ele>
        <time>2016-05-21T05:19:53Z</time>
      </trkpt>
      <trkpt lat="45.35581" lon="5.61863">
        <ele>391.8</ele>
        <time>2016-05-21T05:19:55Z</time>
      </trkpt>
      <trkpt lat="45.3558" lon="5.61875">
        <ele>391.5</ele>
        <time>2016-05-21T05:19:57Z</time>
      </trkpt>
      <trkpt lat="45.3558" lon="5.61886">
        <ele>391.9</ele>
        <time>2016-05-21T05:19:59Z</time>
      </trkpt>
      <trkpt lat="45.3558" lon="5.61898">
        <ele>392.8</ele>
        <time>2016-05-21T05:20:01Z</time>
      </trkpt>
      <trkpt lat="45.3558" lon="5.61909">
        <ele>393.6</ele>
        <time>2016-05-21T05:20:03Z</time>
      </trkpt>
      <trkpt lat="45.3558" lon="5.61921">
        <ele>394.3</ele>
        <time>2016-05-21T05:20:05Z</time>
      </trkpt>
      <trkpt lat="45.35579" lon="5.61931">
        <ele>395.5</ele>
        <time>2016-05-21T05:20:07Z</time>
      </trkpt>
      <trkpt lat="45.35579" lon="5.61943">
        <ele>396.2</ele>
        <time>2016-05-21T05:20:09Z</time>
      </trkpt>
      <trkpt lat="45.35578" lon="5.61954">
        <ele>397.2</ele>
        <time>2016-05-21T05:20:11Z</time>
      </trkpt>
      <trkpt lat="45.35579" lon="5.61965">
        <ele>398</ele>
        <time>2016-05-21T05:20:13Z</time>
      </trkpt>
      <trkpt lat="45.35579" lon="5.61977">
        <ele>398.7</ele>
        <time>2016-05-21T05:20:15Z</time>
      </trkpt>
      <trkpt lat="45.35579" lon="5.6199">
        <ele>399</ele>
        <time>2016-05-21T05:20:17Z</time>
      </trkpt>
      <trkpt lat="45.35581" lon="5.62002">
        <ele>398.9</ele>
        <time>2016-05-21T05:20:19Z</time>
      </trkpt>
      <trkpt lat="45.35582" lon="5.62014">
        <ele>398.8</ele>
        <time>2016-05-21T05:20:21Z</time>
      </trkpt>
      <trkpt lat="45.35584" lon="5.62025">
        <ele>398.3</ele>
        <time>2016-05-21T05:20:23Z</time>
      </trkpt>
      <trkpt lat="45.35586" lon="5.62036">
        <ele>398.5</ele>
        <time>2016-05-21T05:20:25Z</time>
      </trkpt>
      <trkpt lat="45.35587" lon="5.62046">
        <ele>398.2</ele>
        <time>2016-05-21T05:20:27Z</time>
      </trkpt>
      <trkpt lat="45.3559" lon="5.62058">
        <ele>398.7</ele>
        <time>2016-05-21T05:20:29Z</time>
      </trkpt>
      <trkpt lat="45.35593" lon="5.62069">
        <ele>399.1</ele>
        <time>2016-05-21T05:20:31Z</time>
      </trkpt>
      <trkpt lat="45.35596" lon="5.6208">
        <ele>399.1</ele>
        <time>2016-05-21T05:20:33Z</time>
      </trkpt>
      <trkpt lat="45.35599" lon="5.6209">
        <ele>399.1</ele>
        <time>2016-05-21T05:20:35Z</time>
      </trkpt>
      <trkpt lat="45.35604" lon="5.62102">
        <ele>399.8</ele>
        <time>2016-05-21T05:20:38Z</time>
      </trkpt>
      <trkpt lat="45.3561" lon="5.62115">
        <ele>400.7</ele>
        <time>2016-05-21T05:20:41Z</time>
      </trkpt>
      <trkpt lat="45.35615" lon="5.62123">
        <ele>401.7</ele>
        <time>2016-05-21T05:20:43Z</time>
      </trkpt>
      <trkpt lat="45.3562" lon="5.62131">
        <ele>402.1</ele>
        <time>2016-05-21T05:20:45Z</time>
      </trkpt>
      <trkpt lat="45.35625" lon="5.62138">
        <ele>402.1</ele>
        <time>2016-05-21T05:20:47Z</time>
      </trkpt>
      <trkpt lat="45.35631" lon="5.62144">
        <ele>402.4</ele>
        <time>2016-05-21T05:20:49Z</time>
      </trkpt>
      <trkpt lat="45.35639" lon="5.62154">
        <ele>402.8</ele>
        <time>2016-05-21T05:20:52Z</time>
      </trkpt>
      <trkpt lat="45.35645" lon="5.6216">
        <ele>402.8</ele>
        <time>2016-05-21T05:20:54Z</time>
      </trkpt>
      <trkpt lat="45.35654" lon="5.62167">
        <ele>402.9</ele>
        <time>2016-05-21T05:20:57Z</time>
      </trkpt>
      <trkpt lat="45.35661" lon="5.62172">
        <ele>403.4</ele>
        <time>2016-05-21T05:20:59Z</time>
      </trkpt>
      <trkpt lat="45.35671" lon="5.62176">
        <ele>404.1</ele>
        <time>2016-05-21T05:21:02Z</time>
      </trkpt>
      <trkpt lat="45.35681" lon="5.62179">
        <ele>404.6</ele>
        <time>2016-05-21T05:21:05Z</time>
      </trkpt>
      <trkpt lat="45.35688" lon="5.62179">
        <ele>404.7</ele>
        <time>2016-05-21T05:21:07Z</time>
      </trkpt>
      <trkpt lat="45.35696" lon="5.62179">
        <ele>405.3</ele>
        <time>2016-05-21T05:21:09Z</time>
      </trkpt>
      <trkpt lat="45.35704" lon="5.6218">
        <ele>405.9</ele>
        <time>2016-05-21T05:21:11Z</time>
      </trkpt>
      <trkpt lat="45.35711" lon="5.62181">
        <ele>406</ele>
        <time>2016-05-21T05:21:13Z</time>
      </trkpt>
      <trkpt lat="45.35718" lon="5.62181">
        <ele>406.7</ele>
        <time>2016-05-21T05:21:15Z</time>
      </trkpt>
      <trkpt lat="45.35726" lon="5.62182">
        <ele>406.8</ele>
        <time>2016-05-21T05:21:17Z</time>
      </trkpt>
      <trkpt lat="45.35733" lon="5.62183">
        <ele>407.6</ele>
        <time>2016-05-21T05:21:19Z</time>
      </trkpt>
      <trkpt lat="45.35741" lon="5.62185">
        <ele>407.7</ele>
        <time>2016-05-21T05:21:21Z</time>
      </trkpt>
      <trkpt lat="45.35748" lon="5.62188">
        <ele>408.5</ele>
        <time>2016-05-21T05:21:23Z</time>
      </trkpt>
      <trkpt lat="45.35755" lon="5.62193">
        <ele>409.3</ele>
        <time>2016-05-21T05:21:25Z</time>
      </trkpt>
      <trkpt lat="45.35763" lon="5.62197">
        <ele>410.3</ele>
        <time>2016-05-21T05:21:27Z</time>
      </trkpt>
      <trkpt lat="45.35772" lon="5.62204">
        <ele>411.9</ele>
        <time>2016-05-21T05:21:30Z</time>
      </trkpt>
      <trkpt lat="45.35778" lon="5.62209">
        <ele>412.7</ele>
        <time>2016-05-21T05:21:32Z</time>
      </trkpt>
      <trkpt lat="45.35785" lon="5.62215">
        <ele>412.9</ele>
        <time>2016-05-21T05:21:34Z</time>
      </trkpt>
      <trkpt lat="45.35793" lon="5.62223">
        <ele>413</ele>
        <time>2016-05-21T05:21:37Z</time>
      </trkpt>
      <trkpt lat="45.35802" lon="5.62231">
        <ele>413.2</ele>
        <time>2016-05-21T05:21:40Z</time>
      </trkpt>
      <trkpt lat="45.35809" lon="5.62236">
        <ele>414</ele>
        <time>2016-05-21T05:21:42Z</time>
      </trkpt>
      <trkpt lat="45.35815" lon="5.62241">
        <ele>414.5</ele>
        <time>2016-05-21T05:21:44Z</time>
      </trkpt>
      <trkpt lat="45.35822" lon="5.62247">
        <ele>414.6</ele>
        <time>2016-05-21T05:21:46Z</time>
      </trkpt>
      <trkpt lat="45.35829" lon="5.62252">
        <ele>414.6</ele>
        <time>2016-05-21T05:21:48Z</time>
      </trkpt>
      <trkpt lat="45.35838" lon="5.6226">
        <ele>414.7</ele>
        <time>2016-05-21T05:21:51Z</time>
      </trkpt>
      <trkpt lat="45.35847" lon="5.62267">
        <ele>414.8</ele>
        <time>2016-05-21T05:21:54Z</time>
      </trkpt>
      <trkpt lat="45.35854" lon="5.62273">
        <ele>415</ele>
        <time>2016-05-21T05:21:56Z</time>
      </trkpt>
      <trkpt lat="45.35861" lon="5.62278">
        <ele>415.2</ele>
        <time>2016-05-21T05:21:59Z</time>
      </trkpt>
      <trkpt lat="45.35871" lon="5.62282">
        <ele>415.4</ele>
        <time>2016-05-21T05:22:02Z</time>
      </trkpt>
      <trkpt lat="45.35882" lon="5.62285">
        <ele>415.7</ele>
        <time>2016-05-21T05:22:05Z</time>
      </trkpt>
      <trkpt lat="45.35889" lon="5.62287">
        <ele>415.9</ele>
        <time>2016-05-21T05:22:07Z</time>
      </trkpt>
      <trkpt lat="45.35899" lon="5.62288">
        <ele>416.2</ele>
        <time>2016-05-21T05:22:10Z</time>
      </trkpt>
      <trkpt lat="45.35909" lon="5.62289">
        <ele>416.5</ele>
        <time>2016-05-21T05:22:13Z</time>
      </trkpt>
      <trkpt lat="45.35919" lon="5.62289">
        <ele>416.8</ele>
        <time>2016-05-21T05:22:16Z</time>
      </trkpt>
      <trkpt lat="45.35929" lon="5.62289">
        <ele>417.2</ele>
        <time>2016-05-21T05:22:19Z</time>
      </trkpt>
      <trkpt lat="45.35939" lon="5.62289">
        <ele>417.5</ele>
        <time>2016-05-21T05:22:22Z</time>
      </trkpt>
      <trkpt lat="45.35949" lon="5.62287">
        <ele>417.9</ele>
        <time>2016-05-21T05:22:25Z</time>
      </trkpt>
      <trkpt lat="45.35959" lon="5.62285">
        <ele>418.3</ele>
        <time>2016-05-21T05:22:28Z</time>
      </trkpt>
      <trkpt lat="45.35969" lon="5.62281">
        <ele>418.7</ele>
        <time>2016-05-21T05:22:31Z</time>
      </trkpt>
      <trkpt lat="45.35978" lon="5.62276">
        <ele>419.1</ele>
        <time>2016-05-21T05:22:34Z</time>
      </trkpt>
      <trkpt lat="45.35987" lon="5.62273">
        <ele>419.5</ele>
        <time>2016-05-21T05:22:37Z</time>
      </trkpt>
      <trkpt lat="45.35998" lon="5.62269">
        <ele>420</ele>
        <time>2016-05-21T05:22:40Z</time>
      </trkpt>
      <trkpt lat="45.36005" lon="5.62266">
        <ele>420.2</ele>
        <time>2016-05-21T05:22:42Z</time>
      </trkpt>
      <trkpt lat="45.36015" lon="5.62262">
        <ele>420.6</ele>
        <time>2016-05-21T05:22:45Z</time>
      </trkpt>
      <trkpt lat="45.36025" lon="5.62257">
        <ele>420.9</ele>
        <time>2016-05-21T05:22:48Z</time>
      </trkpt>
      <trkpt lat="45.36034" lon="5.62252">
        <ele>421.4</ele>
        <time>2016-05-21T05:22:51Z</time>
      </trkpt>
      <trkpt lat="45.36042" lon="5.62248">
        <ele>421.7</ele>
        <time>2016-05-21T05:22:54Z</time>
      </trkpt>
      <trkpt lat="45.36049" lon="5.62245">
        <ele>422.2</ele>
        <time>2016-05-21T05:22:57Z</time>
      </trkpt>
      <trkpt lat="45.36058" lon="5.62241">
        <ele>422.7</ele>
        <time>2016-05-21T05:23:00Z</time>
      </trkpt>
      <trkpt lat="45.36066" lon="5.62237">
        <ele>423.1</ele>
        <time>2016-05-21T05:23:02Z</time>
      </trkpt>
      <trkpt lat="45.36076" lon="5.62232">
        <ele>423.7</ele>
        <time>2016-05-21T05:23:05Z</time>
      </trkpt>
      <trkpt lat="45.36085" lon="5.62226">
        <ele>424.2</ele>
        <time>2016-05-21T05:23:08Z</time>
      </trkpt>
      <trkpt lat="45.36092" lon="5.62223">
        <ele>424.6</ele>
        <time>2016-05-21T05:23:10Z</time>
      </trkpt>
      <trkpt lat="45.36101" lon="5.62218">
        <ele>425</ele>
        <time>2016-05-21T05:23:13Z</time>
      </trkpt>
      <trkpt lat="45.36112" lon="5.62214">
        <ele>425.4</ele>
        <time>2016-05-21T05:23:16Z</time>
      </trkpt>
      <trkpt lat="45.36119" lon="5.62211">
        <ele>425.7</ele>
        <time>2016-05-21T05:23:18Z</time>
      </trkpt>
      <trkpt lat="45.3613" lon="5.62208">
        <ele>426.3</ele>
        <time>2016-05-21T05:23:21Z</time>
      </trkpt>
      <trkpt lat="45.36139" lon="5.62203">
        <ele>427</ele>
        <time>2016-05-21T05:23:24Z</time>
      </trkpt>
      <trkpt lat="45.36146" lon="5.622">
        <ele>427.3</ele>
        <time>2016-05-21T05:23:26Z</time>
      </trkpt>
      <trkpt lat="45.36154" lon="5.62196">
        <ele>427.6</ele>
        <time>2016-05-21T05:23:28Z</time>
      </trkpt>
      <trkpt lat="45.36161" lon="5.62194">
        <ele>427.9</ele>
        <time>2016-05-21T05:23:30Z</time>
      </trkpt>
      <trkpt lat="45.36171" lon="5.6219">
        <ele>430.6</ele>
        <time>2016-05-21T05:23:33Z</time>
      </trkpt>
      <trkpt lat="45.36178" lon="5.62187">
        <ele>432.6</ele>
        <time>2016-05-21T05:23:35Z</time>
      </trkpt>
      <trkpt lat="45.36188" lon="5.62185">
        <ele>432.9</ele>
        <time>2016-05-21T05:23:38Z</time>
      </trkpt>
      <trkpt lat="45.36198" lon="5.62186">
        <ele>433.1</ele>
        <time>2016-05-21T05:23:41Z</time>
      </trkpt>
      <trkpt lat="45.36208" lon="5.62187">
        <ele>433.2</ele>
        <time>2016-05-21T05:23:44Z</time>
      </trkpt>
      <trkpt lat="45.36217" lon="5.62187">
        <ele>433.2</ele>
        <time>2016-05-21T05:23:47Z</time>
      </trkpt>
      <trkpt lat="45.36224" lon="5.62186">
        <ele>433.3</ele>
        <time>2016-05-21T05:23:49Z</time>
      </trkpt>
      <trkpt lat="45.36233" lon="5.62183">
        <ele>433.4</ele>
        <time>2016-05-21T05:23:52Z</time>
      </trkpt>
      <trkpt lat="45.36242" lon="5.62179">
        <ele>433.7</ele>
        <time>2016-05-21T05:23:55Z</time>
      </trkpt>
      <trkpt lat="45.36252" lon="5.62174">
        <ele>434.5</ele>
        <time>2016-05-21T05:23:58Z</time>
      </trkpt>
      <trkpt lat="45.36259" lon="5.62171">
        <ele>434.7</ele>
        <time>2016-05-21T05:24:00Z</time>
      </trkpt>
      <trkpt lat="45.36268" lon="5.62168">
        <ele>436.4</ele>
        <time>2016-05-21T05:24:02Z</time>
      </trkpt>
      <trkpt lat="45.36276" lon="5.62166">
        <ele>437.5</ele>
        <time>2016-05-21T05:24:04Z</time>
      </trkpt>
      <trkpt lat="45.36283" lon="5.62165">
        <ele>438.6</ele>
        <time>2016-05-21T05:24:06Z</time>
      </trkpt>
      <trkpt lat="45.36291" lon="5.62165">
        <ele>440.1</ele>
        <time>2016-05-21T05:24:08Z</time>
      </trkpt>
      <trkpt lat="45.36298" lon="5.62164">
        <ele>440.7</ele>
        <time>2016-05-21T05:24:10Z</time>
      </trkpt>
      <trkpt lat="45.36307" lon="5.62163">
        <ele>440.8</ele>
        <time>2016-05-21T05:24:12Z</time>
      </trkpt>
      <trkpt lat="45.36315" lon="5.62163">
        <ele>440.8</ele>
        <time>2016-05-21T05:24:14Z</time>
      </trkpt>
      <trkpt lat="45.36325" lon="5.62163">
        <ele>441</ele>
        <time>2016-05-21T05:24:17Z</time>
      </trkpt>
      <trkpt lat="45.36335" lon="5.62163">
        <ele>441.2</ele>
        <time>2016-05-21T05:24:20Z</time>
      </trkpt>
      <trkpt lat="45.36344" lon="5.62161">
        <ele>441.6</ele>
        <time>2016-05-21T05:24:23Z</time>
      </trkpt>
      <trkpt lat="45.36354" lon="5.6216">
        <ele>441.9</ele>
        <time>2016-05-21T05:24:26Z</time>
      </trkpt>
      <trkpt lat="45.36362" lon="5.62156">
        <ele>442.1</ele>
        <time>2016-05-21T05:24:28Z</time>
      </trkpt>
      <trkpt lat="45.3637" lon="5.62153">
        <ele>442.4</ele>
        <time>2016-05-21T05:24:31Z</time>
      </trkpt>
      <trkpt lat="45.36379" lon="5.62148">
        <ele>442.8</ele>
        <time>2016-05-21T05:24:34Z</time>
      </trkpt>
      <trkpt lat="45.36387" lon="5.62142">
        <ele>443.2</ele>
        <time>2016-05-21T05:24:37Z</time>
      </trkpt>
      <trkpt lat="45.36396" lon="5.62135">
        <ele>444.9</ele>
        <time>2016-05-21T05:24:40Z</time>
      </trkpt>
      <trkpt lat="45.36403" lon="5.6213">
        <ele>445.2</ele>
        <time>2016-05-21T05:24:42Z</time>
      </trkpt>
      <trkpt lat="45.36412" lon="5.62125">
        <ele>445.5</ele>
        <time>2016-05-21T05:24:45Z</time>
      </trkpt>
      <trkpt lat="45.3642" lon="5.62123">
        <ele>445.8</ele>
        <time>2016-05-21T05:24:47Z</time>
      </trkpt>
      <trkpt lat="45.36428" lon="5.62121">
        <ele>446.2</ele>
        <time>2016-05-21T05:24:49Z</time>
      </trkpt>
      <trkpt lat="45.36436" lon="5.62119">
        <ele>448.1</ele>
        <time>2016-05-21T05:24:51Z</time>
      </trkpt>
      <trkpt lat="45.36443" lon="5.62118">
        <ele>449.4</ele>
        <time>2016-05-21T05:24:53Z</time>
      </trkpt>
      <trkpt lat="45.3645" lon="5.62117">
        <ele>451.1</ele>
        <time>2016-05-21T05:24:55Z</time>
      </trkpt>
      <trkpt lat="45.36458" lon="5.62116">
        <ele>451.6</ele>
        <time>2016-05-21T05:24:57Z</time>
      </trkpt>
      <trkpt lat="45.36467" lon="5.62115">
        <ele>451.7</ele>
        <time>2016-05-21T05:25:00Z</time>
      </trkpt>
      <trkpt lat="45.36478" lon="5.62113">
        <ele>451.7</ele>
        <time>2016-05-21T05:25:03Z</time>
      </trkpt>
      <trkpt lat="45.36486" lon="5.62112">
        <ele>451.8</ele>
        <time>2016-05-21T05:25:05Z</time>
      </trkpt>
      <trkpt lat="45.36497" lon="5.62114">
        <ele>451.8</ele>
        <time>2016-05-21T05:25:08Z</time>
      </trkpt>
      <trkpt lat="45.36507" lon="5.62119">
        <ele>452</ele>
        <time>2016-05-21T05:25:11Z</time>
      </trkpt>
      <trkpt lat="45.36514" lon="5.62124">
        <ele>452.2</ele>
        <time>2016-05-21T05:25:14Z</time>
      </trkpt>
      <trkpt lat="45.36522" lon="5.62132">
        <ele>452.4</ele>
        <time>2016-05-21T05:25:17Z</time>
      </trkpt>
      <trkpt lat="45.36527" lon="5.62142">
        <ele>452.6</ele>
        <time>2016-05-21T05:25:19Z</time>
      </trkpt>
      <trkpt lat="45.36533" lon="5.62151">
        <ele>452.2</ele>
        <time>2016-05-21T05:25:21Z</time>
      </trkpt>
      <trkpt lat="45.36541" lon="5.62161">
        <ele>452.8</ele>
        <time>2016-05-21T05:25:23Z</time>
      </trkpt>
      <trkpt lat="45.3655" lon="5.62171">
        <ele>453.2</ele>
        <time>2016-05-21T05:25:25Z</time>
      </trkpt>
      <trkpt lat="45.36559" lon="5.62181">
        <ele>453</ele>
        <time>2016-05-21T05:25:27Z</time>
      </trkpt>
      <trkpt lat="45.36568" lon="5.6219">
        <ele>453.4</ele>
        <time>2016-05-21T05:25:29Z</time>
      </trkpt>
      <trkpt lat="45.36576" lon="5.622">
        <ele>454</ele>
        <time>2016-05-21T05:25:31Z</time>
      </trkpt>
      <trkpt lat="45.36585" lon="5.6221">
        <ele>454</ele>
        <time>2016-05-21T05:25:33Z</time>
      </trkpt>
      <trkpt lat="45.36593" lon="5.62222">
        <ele>454.6</ele>
        <time>2016-05-21T05:25:35Z</time>
      </trkpt>
      <trkpt lat="45.36602" lon="5.62234">
        <ele>455.3</ele>
        <time>2016-05-21T05:25:37Z</time>
      </trkpt>
      <trkpt lat="45.3661" lon="5.62248">
        <ele>455.5</ele>
        <time>2016-05-21T05:25:39Z</time>
      </trkpt>
      <trkpt lat="45.36618" lon="5.62264">
        <ele>454.8</ele>
        <time>2016-05-21T05:25:41Z</time>
      </trkpt>
      <trkpt lat="45.36624" lon="5.62279">
        <ele>454.6</ele>
        <time>2016-05-21T05:25:43Z</time>
      </trkpt>
      <trkpt lat="45.3663" lon="5.62296">
        <ele>454.6</ele>
        <time>2016-05-21T05:25:45Z</time>
      </trkpt>
      <trkpt lat="45.36633" lon="5.62306">
        <ele>454.9</ele>
        <time>2016-05-21T05:25:46Z</time>
      </trkpt>
      <trkpt lat="45.36638" lon="5.62323">
        <ele>454.1</ele>
        <time>2016-05-21T05:25:48Z</time>
      </trkpt>
      <trkpt lat="45.36641" lon="5.62333">
        <ele>454.4</ele>
        <time>2016-05-21T05:25:49Z</time>
      </trkpt>
      <trkpt lat="45.36644" lon="5.62343">
        <ele>454.2</ele>
        <time>2016-05-21T05:25:50Z</time>
      </trkpt>
      <trkpt lat="45.36647" lon="5.62353">
        <ele>454.2</ele>
        <time>2016-05-21T05:25:51Z</time>
      </trkpt>
      <trkpt lat="45.36652" lon="5.62371">
        <ele>453.4</ele>
        <time>2016-05-21T05:25:53Z</time>
      </trkpt>
      <trkpt lat="45.36656" lon="5.62381">
        <ele>453.2</ele>
        <time>2016-05-21T05:25:54Z</time>
      </trkpt>
      <trkpt lat="45.36659" lon="5.62392">
        <ele>452.4</ele>
        <time>2016-05-21T05:25:55Z</time>
      </trkpt>
      <trkpt lat="45.36662" lon="5.62402">
        <ele>451.5</ele>
        <time>2016-05-21T05:25:56Z</time>
      </trkpt>
      <trkpt lat="45.36664" lon="5.62412">
        <ele>450.9</ele>
        <time>2016-05-21T05:25:57Z</time>
      </trkpt>
      <trkpt lat="45.36667" lon="5.62422">
        <ele>450.6</ele>
        <time>2016-05-21T05:25:58Z</time>
      </trkpt>
      <trkpt lat="45.3667" lon="5.62433">
        <ele>450.1</ele>
        <time>2016-05-21T05:25:59Z</time>
      </trkpt>
      <trkpt lat="45.36672" lon="5.62445">
        <ele>449.6</ele>
        <time>2016-05-21T05:26:00Z</time>
      </trkpt>
      <trkpt lat="45.36674" lon="5.62455">
        <ele>449.2</ele>
        <time>2016-05-21T05:26:01Z</time>
      </trkpt>
      <trkpt lat="45.36676" lon="5.62465">
        <ele>448.9</ele>
        <time>2016-05-21T05:26:02Z</time>
      </trkpt>
      <trkpt lat="45.36677" lon="5.62476">
        <ele>448.6</ele>
        <time>2016-05-21T05:26:03Z</time>
      </trkpt>
      <trkpt lat="45.36678" lon="5.62486">
        <ele>448.3</ele>
        <time>2016-05-21T05:26:04Z</time>
      </trkpt>
      <trkpt lat="45.3668" lon="5.62496">
        <ele>447.8</ele>
        <time>2016-05-21T05:26:05Z</time>
      </trkpt>
      <trkpt lat="45.36681" lon="5.62506">
        <ele>447.7</ele>
        <time>2016-05-21T05:26:06Z</time>
      </trkpt>
      <trkpt lat="45.36681" lon="5.62517">
        <ele>447.6</ele>
        <time>2016-05-21T05:26:07Z</time>
      </trkpt>
      <trkpt lat="45.36683" lon="5.62528">
        <ele>447.3</ele>
        <time>2016-05-21T05:26:08Z</time>
      </trkpt>
      <trkpt lat="45.36684" lon="5.62538">
        <ele>447</ele>
        <time>2016-05-21T05:26:09Z</time>
      </trkpt>
      <trkpt lat="45.36685" lon="5.6255">
        <ele>447.2</ele>
        <time>2016-05-21T05:26:10Z</time>
      </trkpt>
      <trkpt lat="45.36686" lon="5.62561">
        <ele>447.5</ele>
        <time>2016-05-21T05:26:11Z</time>
      </trkpt>
      <trkpt lat="45.36687" lon="5.62573">
        <ele>447.3</ele>
        <time>2016-05-21T05:26:12Z</time>
      </trkpt>
      <trkpt lat="45.36688" lon="5.62587">
        <ele>446.9</ele>
        <time>2016-05-21T05:26:13Z</time>
      </trkpt>
      <trkpt lat="45.36689" lon="5.62599">
        <ele>446.3</ele>
        <time>2016-05-21T05:26:14Z</time>
      </trkpt>
      <trkpt lat="45.3669" lon="5.62612">
        <ele>446.1</ele>
        <time>2016-05-21T05:26:15Z</time>
      </trkpt>
      <trkpt lat="45.36691" lon="5.62625">
        <ele>446</ele>
        <time>2016-05-21T05:26:16Z</time>
      </trkpt>
      <trkpt lat="45.36691" lon="5.62638">
        <ele>445.5</ele>
        <time>2016-05-21T05:26:17Z</time>
      </trkpt>
      <trkpt lat="45.36692" lon="5.62651">
        <ele>445.4</ele>
        <time>2016-05-21T05:26:18Z</time>
      </trkpt>
      <trkpt lat="45.36693" lon="5.62662">
        <ele>445.5</ele>
        <time>2016-05-21T05:26:19Z</time>
      </trkpt>
      <trkpt lat="45.36694" lon="5.62675">
        <ele>445.4</ele>
        <time>2016-05-21T05:26:20Z</time>
      </trkpt>
      <trkpt lat="45.36695" lon="5.62687">
        <ele>445.3</ele>
        <time>2016-05-21T05:26:21Z</time>
      </trkpt>
      <trkpt lat="45.36695" lon="5.627">
        <ele>445.2</ele>
        <time>2016-05-21T05:26:22Z</time>
      </trkpt>
      <trkpt lat="45.36697" lon="5.62712">
        <ele>445.2</ele>
        <time>2016-05-21T05:26:23Z</time>
      </trkpt>
      <trkpt lat="45.36698" lon="5.62724">
        <ele>445.3</ele>
        <time>2016-05-21T05:26:24Z</time>
      </trkpt>
      <trkpt lat="45.36699" lon="5.62735">
        <ele>445.3</ele>
        <time>2016-05-21T05:26:25Z</time>
      </trkpt>
      <trkpt lat="45.36699" lon="5.62747">
        <ele>445.5</ele>
        <time>2016-05-21T05:26:26Z</time>
      </trkpt>
      <trkpt lat="45.36701" lon="5.62759">
        <ele>445.6</ele>
        <time>2016-05-21T05:26:27Z</time>
      </trkpt>
      <trkpt lat="45.36702" lon="5.62771">
        <ele>445.7</ele>
        <time>2016-05-21T05:26:28Z</time>
      </trkpt>
      <trkpt lat="45.36702" lon="5.62783">
        <ele>445.8</ele>
        <time>2016-05-21T05:26:29Z</time>
      </trkpt>
      <trkpt lat="45.36704" lon="5.62794">
        <ele>445.9</ele>
        <time>2016-05-21T05:26:30Z</time>
      </trkpt>
      <trkpt lat="45.36705" lon="5.62805">
        <ele>446</ele>
        <time>2016-05-21T05:26:31Z</time>
      </trkpt>
      <trkpt lat="45.36705" lon="5.62817">
        <ele>446.1</ele>
        <time>2016-05-21T05:26:32Z</time>
      </trkpt>
      <trkpt lat="45.36706" lon="5.62829">
        <ele>446.1</ele>
        <time>2016-05-21T05:26:33Z</time>
      </trkpt>
      <trkpt lat="45.36707" lon="5.6284">
        <ele>446.2</ele>
        <time>2016-05-21T05:26:34Z</time>
      </trkpt>
      <trkpt lat="45.36708" lon="5.62851">
        <ele>446.4</ele>
        <time>2016-05-21T05:26:35Z</time>
      </trkpt>
      <trkpt lat="45.36709" lon="5.62862">
        <ele>446.5</ele>
        <time>2016-05-21T05:26:36Z</time>
      </trkpt>
      <trkpt lat="45.3671" lon="5.62872">
        <ele>446.7</ele>
        <time>2016-05-21T05:26:37Z</time>
      </trkpt>
      <trkpt lat="45.36711" lon="5.62891">
        <ele>447.1</ele>
        <time>2016-05-21T05:26:39Z</time>
      </trkpt>
      <trkpt lat="45.36712" lon="5.62907">
        <ele>447.7</ele>
        <time>2016-05-21T05:26:41Z</time>
      </trkpt>
      <trkpt lat="45.36714" lon="5.62922">
        <ele>448.3</ele>
        <time>2016-05-21T05:26:43Z</time>
      </trkpt>
      <trkpt lat="45.36715" lon="5.62937">
        <ele>448.9</ele>
        <time>2016-05-21T05:26:45Z</time>
      </trkpt>
      <trkpt lat="45.36716" lon="5.62953">
        <ele>449.3</ele>
        <time>2016-05-21T05:26:47Z</time>
      </trkpt>
      <trkpt lat="45.36717" lon="5.62969">
        <ele>449.5</ele>
        <time>2016-05-21T05:26:49Z</time>
      </trkpt>
      <trkpt lat="45.36718" lon="5.62982">
        <ele>449.5</ele>
        <time>2016-05-21T05:26:51Z</time>
      </trkpt>
      <trkpt lat="45.36718" lon="5.62994">
        <ele>449.5</ele>
        <time>2016-05-21T05:26:54Z</time>
      </trkpt>
      <trkpt lat="45.3672" lon="5.62982">
        <ele>449.5</ele>
        <time>2016-05-21T05:27:00Z</time>
      </trkpt>
      <trkpt lat="45.36715" lon="5.62974">
        <ele>449.3</ele>
        <time>2016-05-21T05:27:02Z</time>
      </trkpt>
      <trkpt lat="45.36709" lon="5.62979">
        <ele>449.9</ele>
        <time>2016-05-21T05:27:05Z</time>
      </trkpt>
      <trkpt lat="45.36704" lon="5.62989">
        <ele>450</ele>
        <time>2016-05-21T05:27:08Z</time>
      </trkpt>
      <trkpt lat="45.36699" lon="5.63001">
        <ele>450.3</ele>
        <time>2016-05-21T05:27:11Z</time>
      </trkpt>
      <trkpt lat="45.36694" lon="5.6301">
        <ele>451.9</ele>
        <time>2016-05-21T05:27:13Z</time>
      </trkpt>
      <trkpt lat="45.36688" lon="5.6302">
        <ele>453.3</ele>
        <time>2016-05-21T05:27:15Z</time>
      </trkpt>
      <trkpt lat="45.36683" lon="5.63029">
        <ele>454.3</ele>
        <time>2016-05-21T05:27:17Z</time>
      </trkpt>
      <trkpt lat="45.36677" lon="5.63038">
        <ele>454.3</ele>
        <time>2016-05-21T05:27:19Z</time>
      </trkpt>
      <trkpt lat="45.36671" lon="5.63049">
        <ele>454.9</ele>
        <time>2016-05-21T05:27:22Z</time>
      </trkpt>
      <trkpt lat="45.36664" lon="5.63061">
        <ele>455</ele>
        <time>2016-05-21T05:27:25Z</time>
      </trkpt>
      <trkpt lat="45.36659" lon="5.63071">
        <ele>455.4</ele>
        <time>2016-05-21T05:27:27Z</time>
      </trkpt>
      <trkpt lat="45.36655" lon="5.63082">
        <ele>455.2</ele>
        <time>2016-05-21T05:27:29Z</time>
      </trkpt>
      <trkpt lat="45.3665" lon="5.63094">
        <ele>454.7</ele>
        <time>2016-05-21T05:27:31Z</time>
      </trkpt>
      <trkpt lat="45.36645" lon="5.63106">
        <ele>454</ele>
        <time>2016-05-21T05:27:33Z</time>
      </trkpt>
      <trkpt lat="45.36639" lon="5.63118">
        <ele>453.3</ele>
        <time>2016-05-21T05:27:35Z</time>
      </trkpt>
      <trkpt lat="45.36634" lon="5.63131">
        <ele>452.5</ele>
        <time>2016-05-21T05:27:37Z</time>
      </trkpt>
      <trkpt lat="45.36629" lon="5.63142">
        <ele>452</ele>
        <time>2016-05-21T05:27:39Z</time>
      </trkpt>
      <trkpt lat="45.36623" lon="5.63155">
        <ele>452.1</ele>
        <time>2016-05-21T05:27:41Z</time>
      </trkpt>
      <trkpt lat="45.36618" lon="5.6317">
        <ele>452.6</ele>
        <time>2016-05-21T05:27:43Z</time>
      </trkpt>
      <trkpt lat="45.36613" lon="5.63184">
        <ele>453.1</ele>
        <time>2016-05-21T05:27:45Z</time>
      </trkpt>
      <trkpt lat="45.36609" lon="5.63199">
        <ele>453.6</ele>
        <time>2016-05-21T05:27:47Z</time>
      </trkpt>
      <trkpt lat="45.36604" lon="5.63214">
        <ele>454.1</ele>
        <time>2016-05-21T05:27:49Z</time>
      </trkpt>
      <trkpt lat="45.36599" lon="5.63229">
        <ele>454.3</ele>
        <time>2016-05-21T05:27:51Z</time>
      </trkpt>
      <trkpt lat="45.36594" lon="5.63244">
        <ele>454</ele>
        <time>2016-05-21T05:27:53Z</time>
      </trkpt>
      <trkpt lat="45.36588" lon="5.63258">
        <ele>454.1</ele>
        <time>2016-05-21T05:27:55Z</time>
      </trkpt>
      <trkpt lat="45.36581" lon="5.63272">
        <ele>454.7</ele>
        <time>2016-05-21T05:27:57Z</time>
      </trkpt>
      <trkpt lat="45.36576" lon="5.63286">
        <ele>455.4</ele>
        <time>2016-05-21T05:27:59Z</time>
      </trkpt>
      <trkpt lat="45.36571" lon="5.63301">
        <ele>455.5</ele>
        <time>2016-05-21T05:28:01Z</time>
      </trkpt>
      <trkpt lat="45.36568" lon="5.63319">
        <ele>454.6</ele>
        <time>2016-05-21T05:28:03Z</time>
      </trkpt>
      <trkpt lat="45.36567" lon="5.63336">
        <ele>453.3</ele>
        <time>2016-05-21T05:28:05Z</time>
      </trkpt>
      <trkpt lat="45.36565" lon="5.63349">
        <ele>452.3</ele>
        <time>2016-05-21T05:28:07Z</time>
      </trkpt>
      <trkpt lat="45.36563" lon="5.63361">
        <ele>452.2</ele>
        <time>2016-05-21T05:28:10Z</time>
      </trkpt>
      <trkpt lat="45.36563" lon="5.63372">
        <ele>452.1</ele>
        <time>2016-05-21T05:28:14Z</time>
      </trkpt>
      <trkpt lat="45.36572" lon="5.63373">
        <ele>452.4</ele>
        <time>2016-05-21T05:28:20Z</time>
      </trkpt>
      <trkpt lat="45.3658" lon="5.6337">
        <ele>452.9</ele>
        <time>2016-05-21T05:28:24Z</time>
      </trkpt>
      <trkpt lat="45.36588" lon="5.63371">
        <ele>453.4</ele>
        <time>2016-05-21T05:28:29Z</time>
      </trkpt>
      <trkpt lat="45.36596" lon="5.63373">
        <ele>453.9</ele>
        <time>2016-05-21T05:28:33Z</time>
      </trkpt>
      <trkpt lat="45.36606" lon="5.63374">
        <ele>454.2</ele>
        <time>2016-05-21T05:28:37Z</time>
      </trkpt>
      <trkpt lat="45.36614" lon="5.63374">
        <ele>454</ele>
        <time>2016-05-21T05:28:41Z</time>
      </trkpt>
      <trkpt lat="45.36622" lon="5.63374">
        <ele>453.9</ele>
        <time>2016-05-21T05:28:44Z</time>
      </trkpt>
      <trkpt lat="45.36631" lon="5.63373">
        <ele>454.1</ele>
        <time>2016-05-21T05:28:47Z</time>
      </trkpt>
      <trkpt lat="45.3664" lon="5.63372">
        <ele>454.3</ele>
        <time>2016-05-21T05:28:50Z</time>
      </trkpt>
      <trkpt lat="45.36648" lon="5.63369">
        <ele>454.8</ele>
        <time>2016-05-21T05:28:54Z</time>
      </trkpt>
      <trkpt lat="45.36657" lon="5.63365">
        <ele>455.2</ele>
        <time>2016-05-21T05:28:57Z</time>
      </trkpt>
      <trkpt lat="45.36665" lon="5.63364">
        <ele>457.3</ele>
        <time>2016-05-21T05:28:59Z</time>
      </trkpt>
      <trkpt lat="45.36676" lon="5.63362">
        <ele>458.7</ele>
        <time>2016-05-21T05:29:01Z</time>
      </trkpt>
      <trkpt lat="45.36686" lon="5.63359">
        <ele>459.7</ele>
        <time>2016-05-21T05:29:03Z</time>
      </trkpt>
      <trkpt lat="45.36695" lon="5.63358">
        <ele>460</ele>
        <time>2016-05-21T05:29:05Z</time>
      </trkpt>
      <trkpt lat="45.36704" lon="5.63357">
        <ele>459.4</ele>
        <time>2016-05-21T05:29:07Z</time>
      </trkpt>
      <trkpt lat="45.36712" lon="5.63356">
        <ele>458.8</ele>
        <time>2016-05-21T05:29:09Z</time>
      </trkpt>
      <trkpt lat="45.3672" lon="5.63355">
        <ele>458.7</ele>
        <time>2016-05-21T05:29:11Z</time>
      </trkpt>
      <trkpt lat="45.3673" lon="5.63354">
        <ele>458.7</ele>
        <time>2016-05-21T05:29:14Z</time>
      </trkpt>
      <trkpt lat="45.36739" lon="5.63353">
        <ele>458.8</ele>
        <time>2016-05-21T05:29:17Z</time>
      </trkpt>
      <trkpt lat="45.36747" lon="5.63352">
        <ele>458.9</ele>
        <time>2016-05-21T05:29:21Z</time>
      </trkpt>
      <trkpt lat="45.36754" lon="5.63351">
        <ele>459.2</ele>
        <time>2016-05-21T05:29:25Z</time>
      </trkpt>
      <trkpt lat="45.36746" lon="5.63353">
        <ele>459.1</ele>
        <time>2016-05-21T05:31:00Z</time>
      </trkpt>
      <trkpt lat="45.36738" lon="5.63353">
        <ele>459.5</ele>
        <time>2016-05-21T05:31:02Z</time>
      </trkpt>
      <trkpt lat="45.36728" lon="5.63354">
        <ele>459.4</ele>
        <time>2016-05-21T05:31:04Z</time>
      </trkpt>
      <trkpt lat="45.36717" lon="5.63355">
        <ele>458.4</ele>
        <time>2016-05-21T05:31:06Z</time>
      </trkpt>
      <trkpt lat="45.36706" lon="5.63356">
        <ele>458.1</ele>
        <time>2016-05-21T05:31:08Z</time>
      </trkpt>
      <trkpt lat="45.36695" lon="5.63357">
        <ele>458.5</ele>
        <time>2016-05-21T05:31:10Z</time>
      </trkpt>
      <trkpt lat="45.36684" lon="5.63358">
        <ele>458.7</ele>
        <time>2016-05-21T05:31:12Z</time>
      </trkpt>
      <trkpt lat="45.36674" lon="5.63359">
        <ele>458.4</ele>
        <time>2016-05-21T05:31:14Z</time>
      </trkpt>
      <trkpt lat="45.36663" lon="5.63361">
        <ele>457.8</ele>
        <time>2016-05-21T05:31:16Z</time>
      </trkpt>
      <trkpt lat="45.36653" lon="5.63362">
        <ele>457.6</ele>
        <time>2016-05-21T05:31:18Z</time>
      </trkpt>
      <trkpt lat="45.36643" lon="5.63363">
        <ele>457.5</ele>
        <time>2016-05-21T05:31:20Z</time>
      </trkpt>
      <trkpt lat="45.36633" lon="5.63364">
        <ele>456.7</ele>
        <time>2016-05-21T05:31:22Z</time>
      </trkpt>
      <trkpt lat="45.36623" lon="5.63366">
        <ele>455.4</ele>
        <time>2016-05-21T05:31:24Z</time>
      </trkpt>
      <trkpt lat="45.36614" lon="5.63367">
        <ele>455.1</ele>
        <time>2016-05-21T05:31:26Z</time>
      </trkpt>
      <trkpt lat="45.36604" lon="5.63368">
        <ele>455.5</ele>
        <time>2016-05-21T05:31:28Z</time>
      </trkpt>
      <trkpt lat="45.36594" lon="5.63369">
        <ele>456.6</ele>
        <time>2016-05-21T05:31:30Z</time>
      </trkpt>
      <trkpt lat="45.36585" lon="5.6337">
        <ele>457.6</ele>
        <time>2016-05-21T05:31:32Z</time>
      </trkpt>
      <trkpt lat="45.36576" lon="5.63371">
        <ele>457.8</ele>
        <time>2016-05-21T05:31:35Z</time>
      </trkpt>
      <trkpt lat="45.36567" lon="5.63372">
        <ele>457.9</ele>
        <time>2016-05-21T05:31:39Z</time>
      </trkpt>
      <trkpt lat="45.36562" lon="5.63372">
        <ele>457.7</ele>
        <time>2016-05-21T05:31:46Z</time>
      </trkpt>
      <trkpt lat="45.36554" lon="5.6337">
        <ele>457.4</ele>
        <time>2016-05-21T05:31:52Z</time>
      </trkpt>
      <trkpt lat="45.36546" lon="5.63365">
        <ele>457.3</ele>
        <time>2016-05-21T05:31:56Z</time>
      </trkpt>
      <trkpt lat="45.36535" lon="5.63362">
        <ele>457.5</ele>
        <time>2016-05-21T05:31:59Z</time>
      </trkpt>
      <trkpt lat="45.36526" lon="5.63361">
        <ele>457</ele>
        <time>2016-05-21T05:32:01Z</time>
      </trkpt>
      <trkpt lat="45.36517" lon="5.6336">
        <ele>456.5</ele>
        <time>2016-05-21T05:32:03Z</time>
      </trkpt>
      <trkpt lat="45.36507" lon="5.63359">
        <ele>455.1</ele>
        <time>2016-05-21T05:32:05Z</time>
      </trkpt>
      <trkpt lat="45.36497" lon="5.6336">
        <ele>453.4</ele>
        <time>2016-05-21T05:32:07Z</time>
      </trkpt>
      <trkpt lat="45.36487" lon="5.63361">
        <ele>451.3</ele>
        <time>2016-05-21T05:32:09Z</time>
      </trkpt>
      <trkpt lat="45.36477" lon="5.63362">
        <ele>450.5</ele>
        <time>2016-05-21T05:32:11Z</time>
      </trkpt>
      <trkpt lat="45.36467" lon="5.63362">
        <ele>451.6</ele>
        <time>2016-05-21T05:32:13Z</time>
      </trkpt>
      <trkpt lat="45.36459" lon="5.63363">
        <ele>453.8</ele>
        <time>2016-05-21T05:32:15Z</time>
      </trkpt>
      <trkpt lat="45.36447" lon="5.63362">
        <ele>455.5</ele>
        <time>2016-05-21T05:32:17Z</time>
      </trkpt>
      <trkpt lat="45.36436" lon="5.63363">
        <ele>457</ele>
        <time>2016-05-21T05:32:19Z</time>
      </trkpt>
      <trkpt lat="45.36424" lon="5.63364">
        <ele>457.7</ele>
        <time>2016-05-21T05:32:21Z</time>
      </trkpt>
      <trkpt lat="45.36413" lon="5.63366">
        <ele>458.2</ele>
        <time>2016-05-21T05:32:23Z</time>
      </trkpt>
      <trkpt lat="45.36403" lon="5.63367">
        <ele>458.5</ele>
        <time>2016-05-21T05:32:25Z</time>
      </trkpt>
      <trkpt lat="45.36391" lon="5.63369">
        <ele>459</ele>
        <time>2016-05-21T05:32:27Z</time>
      </trkpt>
      <trkpt lat="45.36381" lon="5.63375">
        <ele>459</ele>
        <time>2016-05-21T05:32:29Z</time>
      </trkpt>
      <trkpt lat="45.36374" lon="5.63386">
        <ele>458.5</ele>
        <time>2016-05-21T05:32:31Z</time>
      </trkpt>
      <trkpt lat="45.36371" lon="5.63401">
        <ele>458.1</ele>
        <time>2016-05-21T05:32:33Z</time>
      </trkpt>
      <trkpt lat="45.36373" lon="5.63416">
        <ele>457.3</ele>
        <time>2016-05-21T05:32:35Z</time>
      </trkpt>
      <trkpt lat="45.36377" lon="5.6343">
        <ele>456.6</ele>
        <time>2016-05-21T05:32:37Z</time>
      </trkpt>
      <trkpt lat="45.36381" lon="5.63444">
        <ele>455.7</ele>
        <time>2016-05-21T05:32:39Z</time>
      </trkpt>
      <trkpt lat="45.36385" lon="5.63459">
        <ele>455.2</ele>
        <time>2016-05-21T05:32:41Z</time>
      </trkpt>
      <trkpt lat="45.36389" lon="5.63475">
        <ele>454.8</ele>
        <time>2016-05-21T05:32:43Z</time>
      </trkpt>
      <trkpt lat="45.36392" lon="5.63492">
        <ele>454.7</ele>
        <time>2016-05-21T05:32:45Z</time>
      </trkpt>
      <trkpt lat="45.36394" lon="5.63512">
        <ele>453.9</ele>
        <time>2016-05-21T05:32:47Z</time>
      </trkpt>
      <trkpt lat="45.36395" lon="5.63522">
        <ele>453.6</ele>
        <time>2016-05-21T05:32:48Z</time>
      </trkpt>
      <trkpt lat="45.36398" lon="5.63542">
        <ele>453.2</ele>
        <time>2016-05-21T05:32:50Z</time>
      </trkpt>
      <trkpt lat="45.364" lon="5.6356">
        <ele>453.1</ele>
        <time>2016-05-21T05:32:52Z</time>
      </trkpt>
      <trkpt lat="45.36403" lon="5.63576">
        <ele>452.9</ele>
        <time>2016-05-21T05:32:54Z</time>
      </trkpt>
      <trkpt lat="45.36407" lon="5.63591">
        <ele>452.7</ele>
        <time>2016-05-21T05:32:56Z</time>
      </trkpt>
      <trkpt lat="45.36411" lon="5.63604">
        <ele>453</ele>
        <time>2016-05-21T05:32:58Z</time>
      </trkpt>
      <trkpt lat="45.36418" lon="5.63619">
        <ele>452.2</ele>
        <time>2016-05-21T05:33:00Z</time>
      </trkpt>
      <trkpt lat="45.36426" lon="5.63634">
        <ele>451.1</ele>
        <time>2016-05-21T05:33:02Z</time>
      </trkpt>
      <trkpt lat="45.36433" lon="5.63648">
        <ele>450.8</ele>
        <time>2016-05-21T05:33:04Z</time>
      </trkpt>
      <trkpt lat="45.3644" lon="5.63661">
        <ele>450.8</ele>
        <time>2016-05-21T05:33:06Z</time>
      </trkpt>
      <trkpt lat="45.36447" lon="5.63672">
        <ele>451.1</ele>
        <time>2016-05-21T05:33:08Z</time>
      </trkpt>
      <trkpt lat="45.36453" lon="5.63683">
        <ele>451.8</ele>
        <time>2016-05-21T05:33:10Z</time>
      </trkpt>
      <trkpt lat="45.3646" lon="5.63695">
        <ele>452.2</ele>
        <time>2016-05-21T05:33:12Z</time>
      </trkpt>
      <trkpt lat="45.36467" lon="5.63709">
        <ele>451.7</ele>
        <time>2016-05-21T05:33:14Z</time>
      </trkpt>
      <trkpt lat="45.36472" lon="5.63722">
        <ele>451.9</ele>
        <time>2016-05-21T05:33:16Z</time>
      </trkpt>
      <trkpt lat="45.36477" lon="5.63737">
        <ele>452.8</ele>
        <time>2016-05-21T05:33:18Z</time>
      </trkpt>
      <trkpt lat="45.36482" lon="5.63754">
        <ele>453</ele>
        <time>2016-05-21T05:33:20Z</time>
      </trkpt>
      <trkpt lat="45.36489" lon="5.63771">
        <ele>452.8</ele>
        <time>2016-05-21T05:33:22Z</time>
      </trkpt>
      <trkpt lat="45.36495" lon="5.63786">
        <ele>453.1</ele>
        <time>2016-05-21T05:33:24Z</time>
      </trkpt>
      <trkpt lat="45.36502" lon="5.63799">
        <ele>453.7</ele>
        <time>2016-05-21T05:33:26Z</time>
      </trkpt>
      <trkpt lat="45.36509" lon="5.63813">
        <ele>454.5</ele>
        <time>2016-05-21T05:33:28Z</time>
      </trkpt>
      <trkpt lat="45.36517" lon="5.63826">
        <ele>455.1</ele>
        <time>2016-05-21T05:33:30Z</time>
      </trkpt>
      <trkpt lat="45.36525" lon="5.6384">
        <ele>456.2</ele>
        <time>2016-05-21T05:33:32Z</time>
      </trkpt>
      <trkpt lat="45.36534" lon="5.63854">
        <ele>456.2</ele>
        <time>2016-05-21T05:33:34Z</time>
      </trkpt>
      <trkpt lat="45.36542" lon="5.63869">
        <ele>456.2</ele>
        <time>2016-05-21T05:33:36Z</time>
      </trkpt>
      <trkpt lat="45.36549" lon="5.63885">
        <ele>455.9</ele>
        <time>2016-05-21T05:33:38Z</time>
      </trkpt>
      <trkpt lat="45.36555" lon="5.63899">
        <ele>455.9</ele>
        <time>2016-05-21T05:33:40Z</time>
      </trkpt>
      <trkpt lat="45.3656" lon="5.63913">
        <ele>456.2</ele>
        <time>2016-05-21T05:33:42Z</time>
      </trkpt>
      <trkpt lat="45.36566" lon="5.63927">
        <ele>456.7</ele>
        <time>2016-05-21T05:33:44Z</time>
      </trkpt>
      <trkpt lat="45.36569" lon="5.6394">
        <ele>456.9</ele>
        <time>2016-05-21T05:33:46Z</time>
      </trkpt>
      <trkpt lat="45.36572" lon="5.63952">
        <ele>457.6</ele>
        <time>2016-05-21T05:33:48Z</time>
      </trkpt>
      <trkpt lat="45.36576" lon="5.63966">
        <ele>458.8</ele>
        <time>2016-05-21T05:33:50Z</time>
      </trkpt>
      <trkpt lat="45.36579" lon="5.63978">
        <ele>459.5</ele>
        <time>2016-05-21T05:33:52Z</time>
      </trkpt>
      <trkpt lat="45.36583" lon="5.63991">
        <ele>458.3</ele>
        <time>2016-05-21T05:33:54Z</time>
      </trkpt>
      <trkpt lat="45.36586" lon="5.64001">
        <ele>458.7</ele>
        <time>2016-05-21T05:33:56Z</time>
      </trkpt>
      <trkpt lat="45.36591" lon="5.64012">
        <ele>458.6</ele>
        <time>2016-05-21T05:33:58Z</time>
      </trkpt>
      <trkpt lat="45.36596" lon="5.64025">
        <ele>458.9</ele>
        <time>2016-05-21T05:34:01Z</time>
      </trkpt>
      <trkpt lat="45.366" lon="5.64035">
        <ele>459</ele>
        <time>2016-05-21T05:34:03Z</time>
      </trkpt>
      <trkpt lat="45.36603" lon="5.64044">
        <ele>459.3</ele>
        <time>2016-05-21T05:34:05Z</time>
      </trkpt>
      <trkpt lat="45.36608" lon="5.64054">
        <ele>459.5</ele>
        <time>2016-05-21T05:34:07Z</time>
      </trkpt>
      <trkpt lat="45.36611" lon="5.64067">
        <ele>460.8</ele>
        <time>2016-05-21T05:34:09Z</time>
      </trkpt>
      <trkpt lat="45.36612" lon="5.64079">
        <ele>461.5</ele>
        <time>2016-05-21T05:34:11Z</time>
      </trkpt>
      <trkpt lat="45.36615" lon="5.6409">
        <ele>461.6</ele>
        <time>2016-05-21T05:34:13Z</time>
      </trkpt>
      <trkpt lat="45.36617" lon="5.64101">
        <ele>462</ele>
        <time>2016-05-21T05:34:15Z</time>
      </trkpt>
      <trkpt lat="45.36617" lon="5.64114">
        <ele>461.9</ele>
        <time>2016-05-21T05:34:17Z</time>
      </trkpt>
      <trkpt lat="45.36617" lon="5.64128">
        <ele>461.3</ele>
        <time>2016-05-21T05:34:19Z</time>
      </trkpt>
      <trkpt lat="45.36617" lon="5.64139">
        <ele>461.4</ele>
        <time>2016-05-21T05:34:21Z</time>
      </trkpt>
      <trkpt lat="45.36619" lon="5.64155">
        <ele>462.2</ele>
        <time>2016-05-21T05:34:24Z</time>
      </trkpt>
      <trkpt lat="45.36621" lon="5.64171">
        <ele>462.7</ele>
        <time>2016-05-21T05:34:26Z</time>
      </trkpt>
      <trkpt lat="45.36622" lon="5.64183">
        <ele>462.1</ele>
        <time>2016-05-21T05:34:28Z</time>
      </trkpt>
      <trkpt lat="45.36627" lon="5.64196">
        <ele>462.3</ele>
        <time>2016-05-21T05:34:30Z</time>
      </trkpt>
      <trkpt lat="45.36631" lon="5.64215">
        <ele>462.7</ele>
        <time>2016-05-21T05:34:32Z</time>
      </trkpt>
      <trkpt lat="45.36634" lon="5.6423">
        <ele>462.4</ele>
        <time>2016-05-21T05:34:34Z</time>
      </trkpt>
      <trkpt lat="45.36636" lon="5.64246">
        <ele>462.8</ele>
        <time>2016-05-21T05:34:36Z</time>
      </trkpt>
      <trkpt lat="45.3664" lon="5.64262">
        <ele>463.8</ele>
        <time>2016-05-21T05:34:38Z</time>
      </trkpt>
      <trkpt lat="45.36645" lon="5.64278">
        <ele>466.6</ele>
        <time>2016-05-21T05:34:40Z</time>
      </trkpt>
      <trkpt lat="45.3665" lon="5.64293">
        <ele>468.4</ele>
        <time>2016-05-21T05:34:42Z</time>
      </trkpt>
      <trkpt lat="45.36657" lon="5.64306">
        <ele>469.3</ele>
        <time>2016-05-21T05:34:44Z</time>
      </trkpt>
      <trkpt lat="45.36664" lon="5.6432">
        <ele>470.3</ele>
        <time>2016-05-21T05:34:46Z</time>
      </trkpt>
      <trkpt lat="45.36673" lon="5.64333">
        <ele>471.6</ele>
        <time>2016-05-21T05:34:48Z</time>
      </trkpt>
      <trkpt lat="45.36683" lon="5.64344">
        <ele>472.6</ele>
        <time>2016-05-21T05:34:50Z</time>
      </trkpt>
      <trkpt lat="45.36692" lon="5.64354">
        <ele>473</ele>
        <time>2016-05-21T05:34:52Z</time>
      </trkpt>
      <trkpt lat="45.36701" lon="5.64363">
        <ele>472.7</ele>
        <time>2016-05-21T05:34:54Z</time>
      </trkpt>
      <trkpt lat="45.36712" lon="5.64372">
        <ele>471.8</ele>
        <time>2016-05-21T05:34:56Z</time>
      </trkpt>
      <trkpt lat="45.36722" lon="5.64381">
        <ele>472.4</ele>
        <time>2016-05-21T05:34:58Z</time>
      </trkpt>
      <trkpt lat="45.36731" lon="5.64392">
        <ele>473.1</ele>
        <time>2016-05-21T05:35:00Z</time>
      </trkpt>
      <trkpt lat="45.3674" lon="5.64404">
        <ele>472.8</ele>
        <time>2016-05-21T05:35:02Z</time>
      </trkpt>
      <trkpt lat="45.36747" lon="5.64418">
        <ele>471.5</ele>
        <time>2016-05-21T05:35:04Z</time>
      </trkpt>
      <trkpt lat="45.36753" lon="5.64433">
        <ele>471</ele>
        <time>2016-05-21T05:35:06Z</time>
      </trkpt>
      <trkpt lat="45.36759" lon="5.64447">
        <ele>470.5</ele>
        <time>2016-05-21T05:35:08Z</time>
      </trkpt>
      <trkpt lat="45.36766" lon="5.64464">
        <ele>468.9</ele>
        <time>2016-05-21T05:35:10Z</time>
      </trkpt>
      <trkpt lat="45.36773" lon="5.64481">
        <ele>467</ele>
        <time>2016-05-21T05:35:12Z</time>
      </trkpt>
      <trkpt lat="45.3678" lon="5.64497">
        <ele>465.5</ele>
        <time>2016-05-21T05:35:14Z</time>
      </trkpt>
      <trkpt lat="45.36788" lon="5.64511">
        <ele>464.7</ele>
        <time>2016-05-21T05:35:16Z</time>
      </trkpt>
      <trkpt lat="45.36799" lon="5.64521">
        <ele>463.9</ele>
        <time>2016-05-21T05:35:18Z</time>
      </trkpt>
      <trkpt lat="45.36809" lon="5.6453">
        <ele>463.7</ele>
        <time>2016-05-21T05:35:20Z</time>
      </trkpt>
      <trkpt lat="45.36819" lon="5.64539">
        <ele>463.1</ele>
        <time>2016-05-21T05:35:22Z</time>
      </trkpt>
      <trkpt lat="45.36828" lon="5.64546">
        <ele>463</ele>
        <time>2016-05-21T05:35:24Z</time>
      </trkpt>
      <trkpt lat="45.36838" lon="5.64554">
        <ele>463.3</ele>
        <time>2016-05-21T05:35:26Z</time>
      </trkpt>
      <trkpt lat="45.36849" lon="5.64561">
        <ele>464.3</ele>
        <time>2016-05-21T05:35:28Z</time>
      </trkpt>
      <trkpt lat="45.36858" lon="5.64568">
        <ele>465</ele>
        <time>2016-05-21T05:35:30Z</time>
      </trkpt>
      <trkpt lat="45.36867" lon="5.64575">
        <ele>465.7</ele>
        <time>2016-05-21T05:35:32Z</time>
      </trkpt>
      <trkpt lat="45.36876" lon="5.64581">
        <ele>467</ele>
        <time>2016-05-21T05:35:34Z</time>
      </trkpt>
      <trkpt lat="45.36885" lon="5.64587">
        <ele>468.8</ele>
        <time>2016-05-21T05:35:36Z</time>
      </trkpt>
      <trkpt lat="45.36892" lon="5.64595">
        <ele>470.5</ele>
        <time>2016-05-21T05:35:38Z</time>
      </trkpt>
      <trkpt lat="45.36903" lon="5.64607">
        <ele>471.1</ele>
        <time>2016-05-21T05:35:40Z</time>
      </trkpt>
      <trkpt lat="45.36914" lon="5.64619">
        <ele>471.4</ele>
        <time>2016-05-21T05:35:42Z</time>
      </trkpt>
      <trkpt lat="45.36924" lon="5.64631">
        <ele>471.6</ele>
        <time>2016-05-21T05:35:44Z</time>
      </trkpt>
      <trkpt lat="45.36933" lon="5.64641">
        <ele>471.8</ele>
        <time>2016-05-21T05:35:46Z</time>
      </trkpt>
      <trkpt lat="45.36943" lon="5.64652">
        <ele>471.4</ele>
        <time>2016-05-21T05:35:48Z</time>
      </trkpt>
      <trkpt lat="45.36952" lon="5.6466">
        <ele>471.3</ele>
        <time>2016-05-21T05:35:50Z</time>
      </trkpt>
      <trkpt lat="45.3696" lon="5.64669">
        <ele>471.3</ele>
        <time>2016-05-21T05:35:52Z</time>
      </trkpt>
      <trkpt lat="45.36969" lon="5.64676">
        <ele>472</ele>
        <time>2016-05-21T05:35:54Z</time>
      </trkpt>
      <trkpt lat="45.36979" lon="5.64682">
        <ele>472.3</ele>
        <time>2016-05-21T05:35:56Z</time>
      </trkpt>
      <trkpt lat="45.36989" lon="5.64687">
        <ele>472.7</ele>
        <time>2016-05-21T05:35:58Z</time>
      </trkpt>
      <trkpt lat="45.36998" lon="5.64692">
        <ele>472.9</ele>
        <time>2016-05-21T05:36:00Z</time>
      </trkpt>
      <trkpt lat="45.37007" lon="5.64698">
        <ele>473.2</ele>
        <time>2016-05-21T05:36:02Z</time>
      </trkpt>
      <trkpt lat="45.37015" lon="5.64704">
        <ele>473.9</ele>
        <time>2016-05-21T05:36:04Z</time>
      </trkpt>
      <trkpt lat="45.37023" lon="5.64711">
        <ele>474.2</ele>
        <time>2016-05-21T05:36:06Z</time>
      </trkpt>
      <trkpt lat="45.37031" lon="5.6472">
        <ele>474.4</ele>
        <time>2016-05-21T05:36:08Z</time>
      </trkpt>
      <trkpt lat="45.37037" lon="5.6473">
        <ele>474.8</ele>
        <time>2016-05-21T05:36:10Z</time>
      </trkpt>
      <trkpt lat="45.37043" lon="5.64739">
        <ele>475.1</ele>
        <time>2016-05-21T05:36:12Z</time>
      </trkpt>
      <trkpt lat="45.37049" lon="5.64747">
        <ele>474.8</ele>
        <time>2016-05-21T05:36:14Z</time>
      </trkpt>
      <trkpt lat="45.37056" lon="5.64755">
        <ele>474.8</ele>
        <time>2016-05-21T05:36:16Z</time>
      </trkpt>
      <trkpt lat="45.37063" lon="5.64761">
        <ele>475.1</ele>
        <time>2016-05-21T05:36:18Z</time>
      </trkpt>
      <trkpt lat="45.3707" lon="5.64767">
        <ele>475.2</ele>
        <time>2016-05-21T05:36:20Z</time>
      </trkpt>
      <trkpt lat="45.37075" lon="5.64773">
        <ele>475.4</ele>
        <time>2016-05-21T05:36:22Z</time>
      </trkpt>
      <trkpt lat="45.37084" lon="5.64782">
        <ele>475.5</ele>
        <time>2016-05-21T05:36:25Z</time>
      </trkpt>
      <trkpt lat="45.37091" lon="5.6479">
        <ele>475.4</ele>
        <time>2016-05-21T05:36:27Z</time>
      </trkpt>
      <trkpt lat="45.37099" lon="5.64799">
        <ele>476.1</ele>
        <time>2016-05-21T05:36:29Z</time>
      </trkpt>
      <trkpt lat="45.37107" lon="5.64807">
        <ele>476.9</ele>
        <time>2016-05-21T05:36:31Z</time>
      </trkpt>
      <trkpt lat="45.37113" lon="5.64816">
        <ele>477.8</ele>
        <time>2016-05-21T05:36:33Z</time>
      </trkpt>
      <trkpt lat="45.37119" lon="5.64824">
        <ele>478.6</ele>
        <time>2016-05-21T05:36:35Z</time>
      </trkpt>
      <trkpt lat="45.37125" lon="5.64832">
        <ele>478.9</ele>
        <time>2016-05-21T05:36:37Z</time>
      </trkpt>
      <trkpt lat="45.3713" lon="5.64841">
        <ele>479.7</ele>
        <time>2016-05-21T05:36:39Z</time>
      </trkpt>
      <trkpt lat="45.37134" lon="5.64849">
        <ele>481.8</ele>
        <time>2016-05-21T05:36:41Z</time>
      </trkpt>
      <trkpt lat="45.3714" lon="5.64858">
        <ele>482.8</ele>
        <time>2016-05-21T05:36:43Z</time>
      </trkpt>
      <trkpt lat="45.37147" lon="5.64869">
        <ele>482.4</ele>
        <time>2016-05-21T05:36:45Z</time>
      </trkpt>
      <trkpt lat="45.37153" lon="5.64881">
        <ele>481.8</ele>
        <time>2016-05-21T05:36:47Z</time>
      </trkpt>
      <trkpt lat="45.37158" lon="5.64891">
        <ele>483.1</ele>
        <time>2016-05-21T05:36:49Z</time>
      </trkpt>
      <trkpt lat="45.37163" lon="5.64901">
        <ele>483.7</ele>
        <time>2016-05-21T05:36:51Z</time>
      </trkpt>
      <trkpt lat="45.37168" lon="5.64911">
        <ele>484.1</ele>
        <time>2016-05-21T05:36:53Z</time>
      </trkpt>
      <trkpt lat="45.37174" lon="5.64922">
        <ele>483.9</ele>
        <time>2016-05-21T05:36:55Z</time>
      </trkpt>
      <trkpt lat="45.3718" lon="5.64933">
        <ele>483.3</ele>
        <time>2016-05-21T05:36:57Z</time>
      </trkpt>
      <trkpt lat="45.37185" lon="5.64944">
        <ele>481.9</ele>
        <time>2016-05-21T05:36:59Z</time>
      </trkpt>
      <trkpt lat="45.3719" lon="5.64955">
        <ele>481.6</ele>
        <time>2016-05-21T05:37:01Z</time>
      </trkpt>
      <trkpt lat="45.37194" lon="5.64966">
        <ele>481.6</ele>
        <time>2016-05-21T05:37:03Z</time>
      </trkpt>
      <trkpt lat="45.37198" lon="5.64977">
        <ele>482.1</ele>
        <time>2016-05-21T05:37:05Z</time>
      </trkpt>
      <trkpt lat="45.37201" lon="5.64988">
        <ele>483</ele>
        <time>2016-05-21T05:37:07Z</time>
      </trkpt>
      <trkpt lat="45.37205" lon="5.65">
        <ele>483.8</ele>
        <time>2016-05-21T05:37:09Z</time>
      </trkpt>
      <trkpt lat="45.3721" lon="5.65013">
        <ele>484</ele>
        <time>2016-05-21T05:37:11Z</time>
      </trkpt>
      <trkpt lat="45.37215" lon="5.65026">
        <ele>483.9</ele>
        <time>2016-05-21T05:37:13Z</time>
      </trkpt>
      <trkpt lat="45.37222" lon="5.65038">
        <ele>482.7</ele>
        <time>2016-05-21T05:37:15Z</time>
      </trkpt>
      <trkpt lat="45.37229" lon="5.65048">
        <ele>481.4</ele>
        <time>2016-05-21T05:37:17Z</time>
      </trkpt>
      <trkpt lat="45.37236" lon="5.65057">
        <ele>480.9</ele>
        <time>2016-05-21T05:37:19Z</time>
      </trkpt>
      <trkpt lat="45.37244" lon="5.65068">
        <ele>481.5</ele>
        <time>2016-05-21T05:37:21Z</time>
      </trkpt>
      <trkpt lat="45.37248" lon="5.65081">
        <ele>482</ele>
        <time>2016-05-21T05:37:23Z</time>
      </trkpt>
      <trkpt lat="45.37254" lon="5.65095">
        <ele>482</ele>
        <time>2016-05-21T05:37:25Z</time>
      </trkpt>
      <trkpt lat="45.37258" lon="5.6511">
        <ele>482</ele>
        <time>2016-05-21T05:37:27Z</time>
      </trkpt>
      <trkpt lat="45.37262" lon="5.65124">
        <ele>482.3</ele>
        <time>2016-05-21T05:37:29Z</time>
      </trkpt>
      <trkpt lat="45.37266" lon="5.65141">
        <ele>481.9</ele>
        <time>2016-05-21T05:37:31Z</time>
      </trkpt>
      <trkpt lat="45.3727" lon="5.65158">
        <ele>481.8</ele>
        <time>2016-05-21T05:37:33Z</time>
      </trkpt>
      <trkpt lat="45.37273" lon="5.65174">
        <ele>483.1</ele>
        <time>2016-05-21T05:37:35Z</time>
      </trkpt>
      <trkpt lat="45.37276" lon="5.65189">
        <ele>484.6</ele>
        <time>2016-05-21T05:37:37Z</time>
      </trkpt>
      <trkpt lat="45.37279" lon="5.65205">
        <ele>485</ele>
        <time>2016-05-21T05:37:39Z</time>
      </trkpt>
      <trkpt lat="45.37282" lon="5.65221">
        <ele>484.8</ele>
        <time>2016-05-21T05:37:41Z</time>
      </trkpt>
      <trkpt lat="45.37286" lon="5.65236">
        <ele>484.4</ele>
        <time>2016-05-21T05:37:43Z</time>
      </trkpt>
      <trkpt lat="45.37291" lon="5.6525">
        <ele>484</ele>
        <time>2016-05-21T05:37:45Z</time>
      </trkpt>
      <trkpt lat="45.37295" lon="5.65266">
        <ele>484</ele>
        <time>2016-05-21T05:37:47Z</time>
      </trkpt>
      <trkpt lat="45.373" lon="5.65282">
        <ele>483.6</ele>
        <time>2016-05-21T05:37:49Z</time>
      </trkpt>
      <trkpt lat="45.37305" lon="5.65297">
        <ele>482.2</ele>
        <time>2016-05-21T05:37:51Z</time>
      </trkpt>
      <trkpt lat="45.3731" lon="5.6531">
        <ele>481.4</ele>
        <time>2016-05-21T05:37:53Z</time>
      </trkpt>
      <trkpt lat="45.37315" lon="5.65325">
        <ele>481.2</ele>
        <time>2016-05-21T05:37:55Z</time>
      </trkpt>
      <trkpt lat="45.37317" lon="5.65337">
        <ele>481.2</ele>
        <time>2016-05-21T05:37:57Z</time>
      </trkpt>
      <trkpt lat="45.37321" lon="5.65352">
        <ele>482</ele>
        <time>2016-05-21T05:37:59Z</time>
      </trkpt>
      <trkpt lat="45.37321" lon="5.65367">
        <ele>482.4</ele>
        <time>2016-05-21T05:38:01Z</time>
      </trkpt>
      <trkpt lat="45.37324" lon="5.65382">
        <ele>482.7</ele>
        <time>2016-05-21T05:38:03Z</time>
      </trkpt>
      <trkpt lat="45.37327" lon="5.65401">
        <ele>482.9</ele>
        <time>2016-05-21T05:38:05Z</time>
      </trkpt>
      <trkpt lat="45.37329" lon="5.65411">
        <ele>482.5</ele>
        <time>2016-05-21T05:38:06Z</time>
      </trkpt>
      <trkpt lat="45.37331" lon="5.65424">
        <ele>482.2</ele>
        <time>2016-05-21T05:38:07Z</time>
      </trkpt>
      <trkpt lat="45.37333" lon="5.65436">
        <ele>482.1</ele>
        <time>2016-05-21T05:38:08Z</time>
      </trkpt>
      <trkpt lat="45.37335" lon="5.65448">
        <ele>481.2</ele>
        <time>2016-05-21T05:38:09Z</time>
      </trkpt>
      <trkpt lat="45.37338" lon="5.65462">
        <ele>480.5</ele>
        <time>2016-05-21T05:38:10Z</time>
      </trkpt>
      <trkpt lat="45.3734" lon="5.65475">
        <ele>480</ele>
        <time>2016-05-21T05:38:11Z</time>
      </trkpt>
      <trkpt lat="45.37342" lon="5.65489">
        <ele>479.6</ele>
        <time>2016-05-21T05:38:12Z</time>
      </trkpt>
      <trkpt lat="45.37344" lon="5.65504">
        <ele>479.5</ele>
        <time>2016-05-21T05:38:13Z</time>
      </trkpt>
      <trkpt lat="45.37346" lon="5.65519">
        <ele>478.7</ele>
        <time>2016-05-21T05:38:14Z</time>
      </trkpt>
      <trkpt lat="45.37348" lon="5.65536">
        <ele>477.4</ele>
        <time>2016-05-21T05:38:15Z</time>
      </trkpt>
      <trkpt lat="45.37351" lon="5.65553">
        <ele>476</ele>
        <time>2016-05-21T05:38:16Z</time>
      </trkpt>
      <trkpt lat="45.37354" lon="5.65569">
        <ele>474.9</ele>
        <time>2016-05-21T05:38:17Z</time>
      </trkpt>
      <trkpt lat="45.37358" lon="5.65586">
        <ele>473.5</ele>
        <time>2016-05-21T05:38:18Z</time>
      </trkpt>
      <trkpt lat="45.37362" lon="5.65603">
        <ele>472.8</ele>
        <time>2016-05-21T05:38:19Z</time>
      </trkpt>
      <trkpt lat="45.37366" lon="5.65619">
        <ele>472.4</ele>
        <time>2016-05-21T05:38:20Z</time>
      </trkpt>
      <trkpt lat="45.3737" lon="5.65635">
        <ele>471.8</ele>
        <time>2016-05-21T05:38:21Z</time>
      </trkpt>
      <trkpt lat="45.37374" lon="5.65651">
        <ele>471.5</ele>
        <time>2016-05-21T05:38:22Z</time>
      </trkpt>
      <trkpt lat="45.37377" lon="5.65665">
        <ele>470.7</ele>
        <time>2016-05-21T05:38:23Z</time>
      </trkpt>
      <trkpt lat="45.37381" lon="5.65678">
        <ele>469.7</ele>
        <time>2016-05-21T05:38:24Z</time>
      </trkpt>
      <trkpt lat="45.37384" lon="5.65691">
        <ele>469.2</ele>
        <time>2016-05-21T05:38:25Z</time>
      </trkpt>
      <trkpt lat="45.37388" lon="5.657">
        <ele>467.9</ele>
        <time>2016-05-21T05:38:26Z</time>
      </trkpt>
      <trkpt lat="45.37395" lon="5.65712">
        <ele>466.2</ele>
        <time>2016-05-21T05:38:28Z</time>
      </trkpt>
      <trkpt lat="45.37403" lon="5.65715">
        <ele>464.9</ele>
        <time>2016-05-21T05:38:30Z</time>
      </trkpt>
      <trkpt lat="45.37412" lon="5.65711">
        <ele>464.7</ele>
        <time>2016-05-21T05:38:34Z</time>
      </trkpt>
      <trkpt lat="45.37419" lon="5.65708">
        <ele>464.3</ele>
        <time>2016-05-21T05:38:36Z</time>
      </trkpt>
      <trkpt lat="45.37427" lon="5.65706">
        <ele>464.4</ele>
        <time>2016-05-21T05:38:38Z</time>
      </trkpt>
      <trkpt lat="45.37435" lon="5.65706">
        <ele>465.4</ele>
        <time>2016-05-21T05:38:40Z</time>
      </trkpt>
      <trkpt lat="45.37444" lon="5.65705">
        <ele>466.9</ele>
        <time>2016-05-21T05:38:43Z</time>
      </trkpt>
      <trkpt lat="45.37455" lon="5.65703">
        <ele>467.3</ele>
        <time>2016-05-21T05:38:46Z</time>
      </trkpt>
      <trkpt lat="45.37465" lon="5.65702">
        <ele>467.7</ele>
        <time>2016-05-21T05:38:49Z</time>
      </trkpt>
      <trkpt lat="45.37473" lon="5.65699">
        <ele>468</ele>
        <time>2016-05-21T05:38:51Z</time>
      </trkpt>
      <trkpt lat="45.3748" lon="5.65697">
        <ele>468.3</ele>
        <time>2016-05-21T05:38:53Z</time>
      </trkpt>
      <trkpt lat="45.37487" lon="5.65693">
        <ele>470.6</ele>
        <time>2016-05-21T05:38:55Z</time>
      </trkpt>
      <trkpt lat="45.37495" lon="5.65686">
        <ele>471</ele>
        <time>2016-05-21T05:38:57Z</time>
      </trkpt>
      <trkpt lat="45.37504" lon="5.65678">
        <ele>471.5</ele>
        <time>2016-05-21T05:38:59Z</time>
      </trkpt>
      <trkpt lat="45.37511" lon="5.65671">
        <ele>474.5</ele>
        <time>2016-05-21T05:39:01Z</time>
      </trkpt>
      <trkpt lat="45.37517" lon="5.65663">
        <ele>476.8</ele>
        <time>2016-05-21T05:39:03Z</time>
      </trkpt>
      <trkpt lat="45.37523" lon="5.65656">
        <ele>477.2</ele>
        <time>2016-05-21T05:39:05Z</time>
      </trkpt>
      <trkpt lat="45.37532" lon="5.65648">
        <ele>479.5</ele>
        <time>2016-05-21T05:39:08Z</time>
      </trkpt>
      <trkpt lat="45.3754" lon="5.65639">
        <ele>481.4</ele>
        <time>2016-05-21T05:39:11Z</time>
      </trkpt>
      <trkpt lat="45.3755" lon="5.65631">
        <ele>481.8</ele>
        <time>2016-05-21T05:39:14Z</time>
      </trkpt>
      <trkpt lat="45.37556" lon="5.65626">
        <ele>482</ele>
        <time>2016-05-21T05:39:16Z</time>
      </trkpt>
      <trkpt lat="45.37566" lon="5.65617">
        <ele>484.2</ele>
        <time>2016-05-21T05:39:19Z</time>
      </trkpt>
      <trkpt lat="45.37573" lon="5.65612">
        <ele>485</ele>
        <time>2016-05-21T05:39:21Z</time>
      </trkpt>
      <trkpt lat="45.37582" lon="5.65605">
        <ele>485.3</ele>
        <time>2016-05-21T05:39:24Z</time>
      </trkpt>
      <trkpt lat="45.37591" lon="5.65598">
        <ele>485.7</ele>
        <time>2016-05-21T05:39:27Z</time>
      </trkpt>
      <trkpt lat="45.37597" lon="5.65592">
        <ele>485.8</ele>
        <time>2016-05-21T05:39:29Z</time>
      </trkpt>
      <trkpt lat="45.37607" lon="5.65583">
        <ele>487</ele>
        <time>2016-05-21T05:39:32Z</time>
      </trkpt>
      <trkpt lat="45.37612" lon="5.65577">
        <ele>487.2</ele>
        <time>2016-05-21T05:39:34Z</time>
      </trkpt>
      <trkpt lat="45.37619" lon="5.6557">
        <ele>488</ele>
        <time>2016-05-21T05:39:36Z</time>
      </trkpt>
      <trkpt lat="45.37626" lon="5.65564">
        <ele>488.6</ele>
        <time>2016-05-21T05:39:38Z</time>
      </trkpt>
      <trkpt lat="45.37633" lon="5.65557">
        <ele>489.1</ele>
        <time>2016-05-21T05:39:40Z</time>
      </trkpt>
      <trkpt lat="45.3764" lon="5.6555">
        <ele>489.7</ele>
        <time>2016-05-21T05:39:42Z</time>
      </trkpt>
      <trkpt lat="45.37646" lon="5.65544">
        <ele>489.8</ele>
        <time>2016-05-21T05:39:44Z</time>
      </trkpt>
      <trkpt lat="45.37652" lon="5.65535">
        <ele>490.6</ele>
        <time>2016-05-21T05:39:46Z</time>
      </trkpt>
      <trkpt lat="45.37658" lon="5.65527">
        <ele>491.2</ele>
        <time>2016-05-21T05:39:48Z</time>
      </trkpt>
      <trkpt lat="45.37663" lon="5.6552">
        <ele>491.4</ele>
        <time>2016-05-21T05:39:50Z</time>
      </trkpt>
      <trkpt lat="45.3767" lon="5.6551">
        <ele>491.4</ele>
        <time>2016-05-21T05:39:52Z</time>
      </trkpt>
      <trkpt lat="45.37676" lon="5.65501">
        <ele>491.5</ele>
        <time>2016-05-21T05:39:54Z</time>
      </trkpt>
      <trkpt lat="45.37681" lon="5.65493">
        <ele>492.1</ele>
        <time>2016-05-21T05:39:56Z</time>
      </trkpt>
      <trkpt lat="45.37686" lon="5.65485">
        <ele>493.1</ele>
        <time>2016-05-21T05:39:58Z</time>
      </trkpt>
      <trkpt lat="45.37691" lon="5.65477">
        <ele>493.5</ele>
        <time>2016-05-21T05:40:00Z</time>
      </trkpt>
      <trkpt lat="45.37697" lon="5.65468">
        <ele>493.7</ele>
        <time>2016-05-21T05:40:02Z</time>
      </trkpt>
      <trkpt lat="45.37702" lon="5.65461">
        <ele>494</ele>
        <time>2016-05-21T05:40:04Z</time>
      </trkpt>
      <trkpt lat="45.37707" lon="5.65453">
        <ele>494.7</ele>
        <time>2016-05-21T05:40:06Z</time>
      </trkpt>
      <trkpt lat="45.37713" lon="5.65444">
        <ele>494.9</ele>
        <time>2016-05-21T05:40:08Z</time>
      </trkpt>
      <trkpt lat="45.37718" lon="5.65436">
        <ele>495.2</ele>
        <time>2016-05-21T05:40:10Z</time>
      </trkpt>
      <trkpt lat="45.37723" lon="5.65428">
        <ele>495.3</ele>
        <time>2016-05-21T05:40:12Z</time>
      </trkpt>
      <trkpt lat="45.3773" lon="5.65417">
        <ele>495.4</ele>
        <time>2016-05-21T05:40:15Z</time>
      </trkpt>
      <trkpt lat="45.37736" lon="5.65404">
        <ele>496.7</ele>
        <time>2016-05-21T05:40:18Z</time>
      </trkpt>
      <trkpt lat="45.37739" lon="5.65393">
        <ele>498</ele>
        <time>2016-05-21T05:40:20Z</time>
      </trkpt>
      <trkpt lat="45.37743" lon="5.65383">
        <ele>498.6</ele>
        <time>2016-05-21T05:40:22Z</time>
      </trkpt>
      <trkpt lat="45.37748" lon="5.65373">
        <ele>498.6</ele>
        <time>2016-05-21T05:40:25Z</time>
      </trkpt>
      <trkpt lat="45.37751" lon="5.65357">
        <ele>499.5</ele>
        <time>2016-05-21T05:40:28Z</time>
      </trkpt>
      <trkpt lat="45.37753" lon="5.65347">
        <ele>502.1</ele>
        <time>2016-05-21T05:40:30Z</time>
      </trkpt>
      <trkpt lat="45.37754" lon="5.65335">
        <ele>503.2</ele>
        <time>2016-05-21T05:40:32Z</time>
      </trkpt>
      <trkpt lat="45.37755" lon="5.65321">
        <ele>504</ele>
        <time>2016-05-21T05:40:35Z</time>
      </trkpt>
      <trkpt lat="45.37756" lon="5.65306">
        <ele>504.3</ele>
        <time>2016-05-21T05:40:38Z</time>
      </trkpt>
      <trkpt lat="45.37756" lon="5.65294">
        <ele>504.4</ele>
        <time>2016-05-21T05:40:40Z</time>
      </trkpt>
      <trkpt lat="45.37758" lon="5.65281">
        <ele>505.1</ele>
        <time>2016-05-21T05:40:42Z</time>
      </trkpt>
      <trkpt lat="45.37759" lon="5.65268">
        <ele>505.5</ele>
        <time>2016-05-21T05:40:44Z</time>
      </trkpt>
      <trkpt lat="45.37761" lon="5.65256">
        <ele>505.6</ele>
        <time>2016-05-21T05:40:47Z</time>
      </trkpt>
      <trkpt lat="45.37763" lon="5.65245">
        <ele>505.8</ele>
        <time>2016-05-21T05:40:51Z</time>
      </trkpt>
      <trkpt lat="45.37765" lon="5.65241">
        <ele>506.1</ele>
        <time>2016-05-21T05:40:58Z</time>
      </trkpt>
      <trkpt lat="45.3777" lon="5.65232">
        <ele>506.4</ele>
        <time>2016-05-21T05:41:02Z</time>
      </trkpt>
      <trkpt lat="45.37771" lon="5.65219">
        <ele>506.5</ele>
        <time>2016-05-21T05:41:05Z</time>
      </trkpt>
      <trkpt lat="45.37773" lon="5.65207">
        <ele>506.6</ele>
        <time>2016-05-21T05:41:09Z</time>
      </trkpt>
      <trkpt lat="45.37775" lon="5.65196">
        <ele>506.8</ele>
        <time>2016-05-21T05:41:13Z</time>
      </trkpt>
      <trkpt lat="45.37777" lon="5.65186">
        <ele>507</ele>
        <time>2016-05-21T05:41:18Z</time>
      </trkpt>
      <trkpt lat="45.37778" lon="5.6518">
        <ele>507.4</ele>
        <time>2016-05-21T05:41:25Z</time>
      </trkpt>
      <trkpt lat="45.3777" lon="5.65183">
        <ele>507.3</ele>
        <time>2016-05-21T05:41:39Z</time>
      </trkpt>
      <trkpt lat="45.37767" lon="5.65197">
        <ele>507</ele>
        <time>2016-05-21T05:41:42Z</time>
      </trkpt>
      <trkpt lat="45.37767" lon="5.65208">
        <ele>506.8</ele>
        <time>2016-05-21T05:41:44Z</time>
      </trkpt>
      <trkpt lat="45.37767" lon="5.65221">
        <ele>506.6</ele>
        <time>2016-05-21T05:41:47Z</time>
      </trkpt>
      <trkpt lat="45.37768" lon="5.65233">
        <ele>506.5</ele>
        <time>2016-05-21T05:41:50Z</time>
      </trkpt>
      <trkpt lat="45.37769" lon="5.65249">
        <ele>506.4</ele>
        <time>2016-05-21T05:41:53Z</time>
      </trkpt>
      <trkpt lat="45.37769" lon="5.65259">
        <ele>506.1</ele>
        <time>2016-05-21T05:41:55Z</time>
      </trkpt>
      <trkpt lat="45.3777" lon="5.6527">
        <ele>506.1</ele>
        <time>2016-05-21T05:41:57Z</time>
      </trkpt>
      <trkpt lat="45.3777" lon="5.65283">
        <ele>505.8</ele>
        <time>2016-05-21T05:41:59Z</time>
      </trkpt>
      <trkpt lat="45.37771" lon="5.65296">
        <ele>505.3</ele>
        <time>2016-05-21T05:42:01Z</time>
      </trkpt>
      <trkpt lat="45.37771" lon="5.65308">
        <ele>505.9</ele>
        <time>2016-05-21T05:42:03Z</time>
      </trkpt>
      <trkpt lat="45.37771" lon="5.65319">
        <ele>506.8</ele>
        <time>2016-05-21T05:42:05Z</time>
      </trkpt>
      <trkpt lat="45.37771" lon="5.65332">
        <ele>507.6</ele>
        <time>2016-05-21T05:42:07Z</time>
      </trkpt>
      <trkpt lat="45.37771" lon="5.65344">
        <ele>508.3</ele>
        <time>2016-05-21T05:42:09Z</time>
      </trkpt>
      <trkpt lat="45.37771" lon="5.65356">
        <ele>508.7</ele>
        <time>2016-05-21T05:42:11Z</time>
      </trkpt>
      <trkpt lat="45.37772" lon="5.65368">
        <ele>508.8</ele>
        <time>2016-05-21T05:42:13Z</time>
      </trkpt>
      <trkpt lat="45.37772" lon="5.65381">
        <ele>509.4</ele>
        <time>2016-05-21T05:42:15Z</time>
      </trkpt>
      <trkpt lat="45.37773" lon="5.65391">
        <ele>510.3</ele>
        <time>2016-05-21T05:42:17Z</time>
      </trkpt>
      <trkpt lat="45.37773" lon="5.65403">
        <ele>511.2</ele>
        <time>2016-05-21T05:42:19Z</time>
      </trkpt>
      <trkpt lat="45.37773" lon="5.65415">
        <ele>511.7</ele>
        <time>2016-05-21T05:42:21Z</time>
      </trkpt>
      <trkpt lat="45.37773" lon="5.65427">
        <ele>511.6</ele>
        <time>2016-05-21T05:42:23Z</time>
      </trkpt>
      <trkpt lat="45.37771" lon="5.6544">
        <ele>511.4</ele>
        <time>2016-05-21T05:42:25Z</time>
      </trkpt>
      <trkpt lat="45.3777" lon="5.65452">
        <ele>511.3</ele>
        <time>2016-05-21T05:42:27Z</time>
      </trkpt>
      <trkpt lat="45.37768" lon="5.65464">
        <ele>510.6</ele>
        <time>2016-05-21T05:42:29Z</time>
      </trkpt>
      <trkpt lat="45.37764" lon="5.65476">
        <ele>509.4</ele>
        <time>2016-05-21T05:42:31Z</time>
      </trkpt>
      <trkpt lat="45.37761" lon="5.65487">
        <ele>509.1</ele>
        <time>2016-05-21T05:42:33Z</time>
      </trkpt>
      <trkpt lat="45.37756" lon="5.65496">
        <ele>509.5</ele>
        <time>2016-05-21T05:42:35Z</time>
      </trkpt>
      <trkpt lat="45.37751" lon="5.65507">
        <ele>509</ele>
        <time>2016-05-21T05:42:37Z</time>
      </trkpt>
      <trkpt lat="45.37744" lon="5.65516">
        <ele>508.6</ele>
        <time>2016-05-21T05:42:39Z</time>
      </trkpt>
      <trkpt lat="45.37738" lon="5.65524">
        <ele>509</ele>
        <time>2016-05-21T05:42:41Z</time>
      </trkpt>
      <trkpt lat="45.37731" lon="5.65531">
        <ele>510.5</ele>
        <time>2016-05-21T05:42:43Z</time>
      </trkpt>
      <trkpt lat="45.37725" lon="5.65537">
        <ele>512.6</ele>
        <time>2016-05-21T05:42:45Z</time>
      </trkpt>
      <trkpt lat="45.37718" lon="5.65544">
        <ele>513.8</ele>
        <time>2016-05-21T05:42:47Z</time>
      </trkpt>
      <trkpt lat="45.37713" lon="5.65552">
        <ele>515.2</ele>
        <time>2016-05-21T05:42:49Z</time>
      </trkpt>
      <trkpt lat="45.37708" lon="5.65561">
        <ele>516.1</ele>
        <time>2016-05-21T05:42:51Z</time>
      </trkpt>
      <trkpt lat="45.37703" lon="5.6557">
        <ele>516.4</ele>
        <time>2016-05-21T05:42:53Z</time>
      </trkpt>
      <trkpt lat="45.37698" lon="5.6558">
        <ele>517</ele>
        <time>2016-05-21T05:42:55Z</time>
      </trkpt>
      <trkpt lat="45.37693" lon="5.6559">
        <ele>517.5</ele>
        <time>2016-05-21T05:42:57Z</time>
      </trkpt>
      <trkpt lat="45.37689" lon="5.656">
        <ele>517.3</ele>
        <time>2016-05-21T05:42:59Z</time>
      </trkpt>
      <trkpt lat="45.37685" lon="5.6561">
        <ele>517.7</ele>
        <time>2016-05-21T05:43:01Z</time>
      </trkpt>
      <trkpt lat="45.3768" lon="5.6562">
        <ele>518</ele>
        <time>2016-05-21T05:43:03Z</time>
      </trkpt>
      <trkpt lat="45.37676" lon="5.6563">
        <ele>517.5</ele>
        <time>2016-05-21T05:43:05Z</time>
      </trkpt>
      <trkpt lat="45.37672" lon="5.65642">
        <ele>516.3</ele>
        <time>2016-05-21T05:43:07Z</time>
      </trkpt>
      <trkpt lat="45.37668" lon="5.65654">
        <ele>515.4</ele>
        <time>2016-05-21T05:43:09Z</time>
      </trkpt>
      <trkpt lat="45.37663" lon="5.65665">
        <ele>514.6</ele>
        <time>2016-05-21T05:43:11Z</time>
      </trkpt>
      <trkpt lat="45.37657" lon="5.65676">
        <ele>514.1</ele>
        <time>2016-05-21T05:43:13Z</time>
      </trkpt>
      <trkpt lat="45.37652" lon="5.65686">
        <ele>514.2</ele>
        <time>2016-05-21T05:43:15Z</time>
      </trkpt>
      <trkpt lat="45.37647" lon="5.65693">
        <ele>514.9</ele>
        <time>2016-05-21T05:43:17Z</time>
      </trkpt>
      <trkpt lat="45.37641" lon="5.65701">
        <ele>516.1</ele>
        <time>2016-05-21T05:43:19Z</time>
      </trkpt>
      <trkpt lat="45.37634" lon="5.65709">
        <ele>516.6</ele>
        <time>2016-05-21T05:43:21Z</time>
      </trkpt>
      <trkpt lat="45.37628" lon="5.65715">
        <ele>516.3</ele>
        <time>2016-05-21T05:43:23Z</time>
      </trkpt>
      <trkpt lat="45.37621" lon="5.65721">
        <ele>516.7</ele>
        <time>2016-05-21T05:43:25Z</time>
      </trkpt>
      <trkpt lat="45.37614" lon="5.65727">
        <ele>517.8</ele>
        <time>2016-05-21T05:43:27Z</time>
      </trkpt>
      <trkpt lat="45.37609" lon="5.65733">
        <ele>518.9</ele>
        <time>2016-05-21T05:43:29Z</time>
      </trkpt>
      <trkpt lat="45.37603" lon="5.6574">
        <ele>519.9</ele>
        <time>2016-05-21T05:43:31Z</time>
      </trkpt>
      <trkpt lat="45.37596" lon="5.65746">
        <ele>521</ele>
        <time>2016-05-21T05:43:33Z</time>
      </trkpt>
      <trkpt lat="45.37588" lon="5.65757">
        <ele>522.7</ele>
        <time>2016-05-21T05:43:36Z</time>
      </trkpt>
      <trkpt lat="45.37583" lon="5.65764">
        <ele>523.4</ele>
        <time>2016-05-21T05:43:38Z</time>
      </trkpt>
      <trkpt lat="45.37579" lon="5.65773">
        <ele>523.9</ele>
        <time>2016-05-21T05:43:40Z</time>
      </trkpt>
      <trkpt lat="45.37574" lon="5.65783">
        <ele>524.8</ele>
        <time>2016-05-21T05:43:42Z</time>
      </trkpt>
      <trkpt lat="45.3757" lon="5.65794">
        <ele>525.7</ele>
        <time>2016-05-21T05:43:44Z</time>
      </trkpt>
      <trkpt lat="45.37566" lon="5.65808">
        <ele>526.2</ele>
        <time>2016-05-21T05:43:47Z</time>
      </trkpt>
      <trkpt lat="45.37565" lon="5.65818">
        <ele>526.3</ele>
        <time>2016-05-21T05:43:49Z</time>
      </trkpt>
      <trkpt lat="45.37563" lon="5.65828">
        <ele>526.3</ele>
        <time>2016-05-21T05:43:51Z</time>
      </trkpt>
      <trkpt lat="45.37559" lon="5.65842">
        <ele>526.3</ele>
        <time>2016-05-21T05:43:54Z</time>
      </trkpt>
      <trkpt lat="45.37556" lon="5.65852">
        <ele>526.6</ele>
        <time>2016-05-21T05:43:56Z</time>
      </trkpt>
      <trkpt lat="45.37552" lon="5.65862">
        <ele>526.8</ele>
        <time>2016-05-21T05:43:58Z</time>
      </trkpt>
      <trkpt lat="45.37549" lon="5.65872">
        <ele>527</ele>
        <time>2016-05-21T05:44:00Z</time>
      </trkpt>
      <trkpt lat="45.37541" lon="5.65883">
        <ele>528</ele>
        <time>2016-05-21T05:44:03Z</time>
      </trkpt>
      <trkpt lat="45.37535" lon="5.65889">
        <ele>528.6</ele>
        <time>2016-05-21T05:44:05Z</time>
      </trkpt>
      <trkpt lat="45.37526" lon="5.65895">
        <ele>529.8</ele>
        <time>2016-05-21T05:44:08Z</time>
      </trkpt>
      <trkpt lat="45.37517" lon="5.65896">
        <ele>530.4</ele>
        <time>2016-05-21T05:44:10Z</time>
      </trkpt>
      <trkpt lat="45.37509" lon="5.65896">
        <ele>530.4</ele>
        <time>2016-05-21T05:44:12Z</time>
      </trkpt>
      <trkpt lat="45.375" lon="5.65895">
        <ele>530.7</ele>
        <time>2016-05-21T05:44:14Z</time>
      </trkpt>
      <trkpt lat="45.37492" lon="5.65891">
        <ele>530.6</ele>
        <time>2016-05-21T05:44:16Z</time>
      </trkpt>
      <trkpt lat="45.37484" lon="5.65889">
        <ele>530.8</ele>
        <time>2016-05-21T05:44:18Z</time>
      </trkpt>
      <trkpt lat="45.37477" lon="5.65885">
        <ele>531.8</ele>
        <time>2016-05-21T05:44:20Z</time>
      </trkpt>
      <trkpt lat="45.37469" lon="5.65881">
        <ele>532.4</ele>
        <time>2016-05-21T05:44:22Z</time>
      </trkpt>
      <trkpt lat="45.37461" lon="5.65879">
        <ele>531.8</ele>
        <time>2016-05-21T05:44:24Z</time>
      </trkpt>
      <trkpt lat="45.37453" lon="5.65878">
        <ele>531.6</ele>
        <time>2016-05-21T05:44:26Z</time>
      </trkpt>
      <trkpt lat="45.37445" lon="5.65879">
        <ele>531</ele>
        <time>2016-05-21T05:44:28Z</time>
      </trkpt>
      <trkpt lat="45.37436" lon="5.65882">
        <ele>530.4</ele>
        <time>2016-05-21T05:44:30Z</time>
      </trkpt>
      <trkpt lat="45.37429" lon="5.65888">
        <ele>530.9</ele>
        <time>2016-05-21T05:44:32Z</time>
      </trkpt>
      <trkpt lat="45.37421" lon="5.65898">
        <ele>531.9</ele>
        <time>2016-05-21T05:44:35Z</time>
      </trkpt>
      <trkpt lat="45.37415" lon="5.65906">
        <ele>532.2</ele>
        <time>2016-05-21T05:44:37Z</time>
      </trkpt>
      <trkpt lat="45.37408" lon="5.65916">
        <ele>532.2</ele>
        <time>2016-05-21T05:44:39Z</time>
      </trkpt>
      <trkpt lat="45.37401" lon="5.65927">
        <ele>532.4</ele>
        <time>2016-05-21T05:44:41Z</time>
      </trkpt>
      <trkpt lat="45.37393" lon="5.65936">
        <ele>532.7</ele>
        <time>2016-05-21T05:44:43Z</time>
      </trkpt>
      <trkpt lat="45.37384" lon="5.65947">
        <ele>532.2</ele>
        <time>2016-05-21T05:44:45Z</time>
      </trkpt>
      <trkpt lat="45.37375" lon="5.65958">
        <ele>531.9</ele>
        <time>2016-05-21T05:44:47Z</time>
      </trkpt>
      <trkpt lat="45.37366" lon="5.65969">
        <ele>531.5</ele>
        <time>2016-05-21T05:44:49Z</time>
      </trkpt>
      <trkpt lat="45.37356" lon="5.6598">
        <ele>530.9</ele>
        <time>2016-05-21T05:44:51Z</time>
      </trkpt>
      <trkpt lat="45.37347" lon="5.65992">
        <ele>530.4</ele>
        <time>2016-05-21T05:44:53Z</time>
      </trkpt>
      <trkpt lat="45.37338" lon="5.66004">
        <ele>529.9</ele>
        <time>2016-05-21T05:44:55Z</time>
      </trkpt>
      <trkpt lat="45.37328" lon="5.66017">
        <ele>529.7</ele>
        <time>2016-05-21T05:44:57Z</time>
      </trkpt>
      <trkpt lat="45.37319" lon="5.66028">
        <ele>529.8</ele>
        <time>2016-05-21T05:44:59Z</time>
      </trkpt>
      <trkpt lat="45.3731" lon="5.6604">
        <ele>530.1</ele>
        <time>2016-05-21T05:45:01Z</time>
      </trkpt>
      <trkpt lat="45.37303" lon="5.66044">
        <ele>530</ele>
        <time>2016-05-21T05:45:02Z</time>
      </trkpt>
      <trkpt lat="45.3729" lon="5.66052">
        <ele>529.3</ele>
        <time>2016-05-21T05:45:04Z</time>
      </trkpt>
      <trkpt lat="45.37276" lon="5.66059">
        <ele>529.6</ele>
        <time>2016-05-21T05:45:06Z</time>
      </trkpt>
      <trkpt lat="45.37269" lon="5.66062">
        <ele>529.8</ele>
        <time>2016-05-21T05:45:07Z</time>
      </trkpt>
      <trkpt lat="45.37256" lon="5.66068">
        <ele>530.1</ele>
        <time>2016-05-21T05:45:09Z</time>
      </trkpt>
      <trkpt lat="45.37243" lon="5.66074">
        <ele>531</ele>
        <time>2016-05-21T05:45:11Z</time>
      </trkpt>
      <trkpt lat="45.37229" lon="5.66078">
        <ele>531</ele>
        <time>2016-05-21T05:45:13Z</time>
      </trkpt>
      <trkpt lat="45.37222" lon="5.6608">
        <ele>530.9</ele>
        <time>2016-05-21T05:45:14Z</time>
      </trkpt>
      <trkpt lat="45.37214" lon="5.66081">
        <ele>530.9</ele>
        <time>2016-05-21T05:45:15Z</time>
      </trkpt>
      <trkpt lat="45.37206" lon="5.66082">
        <ele>530.8</ele>
        <time>2016-05-21T05:45:16Z</time>
      </trkpt>
      <trkpt lat="45.37198" lon="5.66083">
        <ele>530.4</ele>
        <time>2016-05-21T05:45:17Z</time>
      </trkpt>
      <trkpt lat="45.3719" lon="5.66083">
        <ele>530</ele>
        <time>2016-05-21T05:45:18Z</time>
      </trkpt>
      <trkpt lat="45.37182" lon="5.66083">
        <ele>529.4</ele>
        <time>2016-05-21T05:45:19Z</time>
      </trkpt>
      <trkpt lat="45.37174" lon="5.66083">
        <ele>528.8</ele>
        <time>2016-05-21T05:45:20Z</time>
      </trkpt>
      <trkpt lat="45.37165" lon="5.66083">
        <ele>527.9</ele>
        <time>2016-05-21T05:45:21Z</time>
      </trkpt>
      <trkpt lat="45.37157" lon="5.66083">
        <ele>527.6</ele>
        <time>2016-05-21T05:45:22Z</time>
      </trkpt>
      <trkpt lat="45.37147" lon="5.66083">
        <ele>527.3</ele>
        <time>2016-05-21T05:45:23Z</time>
      </trkpt>
      <trkpt lat="45.37139" lon="5.66084">
        <ele>527.2</ele>
        <time>2016-05-21T05:45:24Z</time>
      </trkpt>
      <trkpt lat="45.37129" lon="5.66086">
        <ele>527.2</ele>
        <time>2016-05-21T05:45:25Z</time>
      </trkpt>
      <trkpt lat="45.3712" lon="5.66088">
        <ele>527.2</ele>
        <time>2016-05-21T05:45:26Z</time>
      </trkpt>
      <trkpt lat="45.37112" lon="5.66092">
        <ele>527.5</ele>
        <time>2016-05-21T05:45:27Z</time>
      </trkpt>
      <trkpt lat="45.37103" lon="5.66097">
        <ele>527.9</ele>
        <time>2016-05-21T05:45:28Z</time>
      </trkpt>
      <trkpt lat="45.37094" lon="5.66103">
        <ele>528.2</ele>
        <time>2016-05-21T05:45:29Z</time>
      </trkpt>
      <trkpt lat="45.37086" lon="5.6611">
        <ele>528.3</ele>
        <time>2016-05-21T05:45:30Z</time>
      </trkpt>
      <trkpt lat="45.37079" lon="5.6612">
        <ele>528.2</ele>
        <time>2016-05-21T05:45:31Z</time>
      </trkpt>
      <trkpt lat="45.37073" lon="5.6613">
        <ele>528.1</ele>
        <time>2016-05-21T05:45:32Z</time>
      </trkpt>
      <trkpt lat="45.37066" lon="5.6614">
        <ele>527.6</ele>
        <time>2016-05-21T05:45:33Z</time>
      </trkpt>
      <trkpt lat="45.37061" lon="5.66151">
        <ele>526.9</ele>
        <time>2016-05-21T05:45:34Z</time>
      </trkpt>
      <trkpt lat="45.37057" lon="5.66164">
        <ele>526.3</ele>
        <time>2016-05-21T05:45:35Z</time>
      </trkpt>
      <trkpt lat="45.37053" lon="5.66177">
        <ele>525.7</ele>
        <time>2016-05-21T05:45:36Z</time>
      </trkpt>
      <trkpt lat="45.3705" lon="5.66192">
        <ele>525.4</ele>
        <time>2016-05-21T05:45:37Z</time>
      </trkpt>
      <trkpt lat="45.37048" lon="5.66206">
        <ele>525.3</ele>
        <time>2016-05-21T05:45:38Z</time>
      </trkpt>
      <trkpt lat="45.37046" lon="5.66221">
        <ele>525.2</ele>
        <time>2016-05-21T05:45:39Z</time>
      </trkpt>
      <trkpt lat="45.37045" lon="5.66235">
        <ele>524.9</ele>
        <time>2016-05-21T05:45:40Z</time>
      </trkpt>
      <trkpt lat="45.37044" lon="5.6625">
        <ele>524.6</ele>
        <time>2016-05-21T05:45:41Z</time>
      </trkpt>
      <trkpt lat="45.37044" lon="5.66264">
        <ele>524.4</ele>
        <time>2016-05-21T05:45:42Z</time>
      </trkpt>
      <trkpt lat="45.37044" lon="5.66278">
        <ele>524.2</ele>
        <time>2016-05-21T05:45:43Z</time>
      </trkpt>
      <trkpt lat="45.37042" lon="5.66292">
        <ele>523.8</ele>
        <time>2016-05-21T05:45:44Z</time>
      </trkpt>
      <trkpt lat="45.37039" lon="5.66304">
        <ele>523.5</ele>
        <time>2016-05-21T05:45:45Z</time>
      </trkpt>
      <trkpt lat="45.37037" lon="5.66316">
        <ele>523.4</ele>
        <time>2016-05-21T05:45:46Z</time>
      </trkpt>
      <trkpt lat="45.37033" lon="5.66325">
        <ele>523.5</ele>
        <time>2016-05-21T05:45:47Z</time>
      </trkpt>
      <trkpt lat="45.37028" lon="5.66336">
        <ele>523.3</ele>
        <time>2016-05-21T05:45:48Z</time>
      </trkpt>
      <trkpt lat="45.37024" lon="5.66345">
        <ele>522.7</ele>
        <time>2016-05-21T05:45:49Z</time>
      </trkpt>
      <trkpt lat="45.37019" lon="5.66354">
        <ele>522.2</ele>
        <time>2016-05-21T05:45:50Z</time>
      </trkpt>
      <trkpt lat="45.37014" lon="5.66362">
        <ele>522</ele>
        <time>2016-05-21T05:45:51Z</time>
      </trkpt>
      <trkpt lat="45.37009" lon="5.6637">
        <ele>521.8</ele>
        <time>2016-05-21T05:45:52Z</time>
      </trkpt>
      <trkpt lat="45.37004" lon="5.66377">
        <ele>521.9</ele>
        <time>2016-05-21T05:45:53Z</time>
      </trkpt>
      <trkpt lat="45.36999" lon="5.66385">
        <ele>521.9</ele>
        <time>2016-05-21T05:45:54Z</time>
      </trkpt>
      <trkpt lat="45.36993" lon="5.66392">
        <ele>522.1</ele>
        <time>2016-05-21T05:45:55Z</time>
      </trkpt>
      <trkpt lat="45.36987" lon="5.66398">
        <ele>522.2</ele>
        <time>2016-05-21T05:45:56Z</time>
      </trkpt>
      <trkpt lat="45.36981" lon="5.66406">
        <ele>522.3</ele>
        <time>2016-05-21T05:45:57Z</time>
      </trkpt>
      <trkpt lat="45.36975" lon="5.66414">
        <ele>522.7</ele>
        <time>2016-05-21T05:45:58Z</time>
      </trkpt>
      <trkpt lat="45.36968" lon="5.6642">
        <ele>522.9</ele>
        <time>2016-05-21T05:45:59Z</time>
      </trkpt>
      <trkpt lat="45.36963" lon="5.66427">
        <ele>523.3</ele>
        <time>2016-05-21T05:46:00Z</time>
      </trkpt>
      <trkpt lat="45.36957" lon="5.66433">
        <ele>524</ele>
        <time>2016-05-21T05:46:01Z</time>
      </trkpt>
      <trkpt lat="45.36951" lon="5.6644">
        <ele>524.8</ele>
        <time>2016-05-21T05:46:02Z</time>
      </trkpt>
      <trkpt lat="45.36944" lon="5.66444">
        <ele>525.6</ele>
        <time>2016-05-21T05:46:03Z</time>
      </trkpt>
      <trkpt lat="45.36932" lon="5.66449">
        <ele>527.9</ele>
        <time>2016-05-21T05:46:05Z</time>
      </trkpt>
      <trkpt lat="45.3692" lon="5.66449">
        <ele>528.7</ele>
        <time>2016-05-21T05:46:07Z</time>
      </trkpt>
      <trkpt lat="45.36909" lon="5.66446">
        <ele>528.7</ele>
        <time>2016-05-21T05:46:09Z</time>
      </trkpt>
      <trkpt lat="45.36898" lon="5.66441">
        <ele>528.5</ele>
        <time>2016-05-21T05:46:11Z</time>
      </trkpt>
      <trkpt lat="45.36888" lon="5.66437">
        <ele>528.7</ele>
        <time>2016-05-21T05:46:13Z</time>
      </trkpt>
      <trkpt lat="45.3688" lon="5.66432">
        <ele>528.9</ele>
        <time>2016-05-21T05:46:15Z</time>
      </trkpt>
      <trkpt lat="45.36871" lon="5.66428">
        <ele>529.5</ele>
        <time>2016-05-21T05:46:17Z</time>
      </trkpt>
      <trkpt lat="45.36861" lon="5.66424">
        <ele>530.3</ele>
        <time>2016-05-21T05:46:19Z</time>
      </trkpt>
      <trkpt lat="45.36851" lon="5.66421">
        <ele>530.6</ele>
        <time>2016-05-21T05:46:21Z</time>
      </trkpt>
      <trkpt lat="45.36841" lon="5.66418">
        <ele>530.5</ele>
        <time>2016-05-21T05:46:23Z</time>
      </trkpt>
      <trkpt lat="45.36831" lon="5.66416">
        <ele>530</ele>
        <time>2016-05-21T05:46:25Z</time>
      </trkpt>
      <trkpt lat="45.3682" lon="5.66414">
        <ele>529.8</ele>
        <time>2016-05-21T05:46:27Z</time>
      </trkpt>
      <trkpt lat="45.36809" lon="5.66413">
        <ele>529.6</ele>
        <time>2016-05-21T05:46:29Z</time>
      </trkpt>
      <trkpt lat="45.36799" lon="5.66413">
        <ele>529.1</ele>
        <time>2016-05-21T05:46:31Z</time>
      </trkpt>
      <trkpt lat="45.36787" lon="5.66413">
        <ele>529.2</ele>
        <time>2016-05-21T05:46:33Z</time>
      </trkpt>
      <trkpt lat="45.36774" lon="5.66414">
        <ele>528.6</ele>
        <time>2016-05-21T05:46:35Z</time>
      </trkpt>
      <trkpt lat="45.36761" lon="5.66416">
        <ele>528</ele>
        <time>2016-05-21T05:46:37Z</time>
      </trkpt>
      <trkpt lat="45.36748" lon="5.66419">
        <ele>526.7</ele>
        <time>2016-05-21T05:46:39Z</time>
      </trkpt>
      <trkpt lat="45.36734" lon="5.66423">
        <ele>526.2</ele>
        <time>2016-05-21T05:46:41Z</time>
      </trkpt>
      <trkpt lat="45.36726" lon="5.66424">
        <ele>526.2</ele>
        <time>2016-05-21T05:46:42Z</time>
      </trkpt>
      <trkpt lat="45.36718" lon="5.66426">
        <ele>526.3</ele>
        <time>2016-05-21T05:46:43Z</time>
      </trkpt>
      <trkpt lat="45.36711" lon="5.66428">
        <ele>526.5</ele>
        <time>2016-05-21T05:46:44Z</time>
      </trkpt>
      <trkpt lat="45.36702" lon="5.6643">
        <ele>527</ele>
        <time>2016-05-21T05:46:45Z</time>
      </trkpt>
      <trkpt lat="45.36695" lon="5.66431">
        <ele>527.6</ele>
        <time>2016-05-21T05:46:46Z</time>
      </trkpt>
      <trkpt lat="45.36687" lon="5.66433">
        <ele>528.1</ele>
        <time>2016-05-21T05:46:47Z</time>
      </trkpt>
      <trkpt lat="45.3668" lon="5.66436">
        <ele>528.5</ele>
        <time>2016-05-21T05:46:48Z</time>
      </trkpt>
      <trkpt lat="45.36667" lon="5.66441">
        <ele>528.7</ele>
        <time>2016-05-21T05:46:50Z</time>
      </trkpt>
      <trkpt lat="45.36654" lon="5.66447">
        <ele>528</ele>
        <time>2016-05-21T05:46:52Z</time>
      </trkpt>
      <trkpt lat="45.36641" lon="5.66453">
        <ele>526.8</ele>
        <time>2016-05-21T05:46:54Z</time>
      </trkpt>
      <trkpt lat="45.36628" lon="5.66458">
        <ele>525.6</ele>
        <time>2016-05-21T05:46:56Z</time>
      </trkpt>
      <trkpt lat="45.3662" lon="5.66459">
        <ele>525</ele>
        <time>2016-05-21T05:46:57Z</time>
      </trkpt>
      <trkpt lat="45.36606" lon="5.66464">
        <ele>526</ele>
        <time>2016-05-21T05:46:59Z</time>
      </trkpt>
      <trkpt lat="45.36598" lon="5.66467">
        <ele>526.5</ele>
        <time>2016-05-21T05:47:00Z</time>
      </trkpt>
      <trkpt lat="45.36592" lon="5.66473">
        <ele>526.8</ele>
        <time>2016-05-21T05:47:01Z</time>
      </trkpt>
      <trkpt lat="45.36585" lon="5.66479">
        <ele>527.1</ele>
        <time>2016-05-21T05:47:02Z</time>
      </trkpt>
      <trkpt lat="45.36579" lon="5.66484">
        <ele>527.1</ele>
        <time>2016-05-21T05:47:03Z</time>
      </trkpt>
      <trkpt lat="45.36567" lon="5.66496">
        <ele>528</ele>
        <time>2016-05-21T05:47:05Z</time>
      </trkpt>
      <trkpt lat="45.36556" lon="5.66507">
        <ele>529.3</ele>
        <time>2016-05-21T05:47:07Z</time>
      </trkpt>
      <trkpt lat="45.36545" lon="5.66517">
        <ele>531.3</ele>
        <time>2016-05-21T05:47:09Z</time>
      </trkpt>
      <trkpt lat="45.36508" lon="5.66541">
        <ele>535.2</ele>
        <time>2016-05-21T05:47:15Z</time>
      </trkpt>
      <trkpt lat="45.36495" lon="5.66548">
        <ele>533.9</ele>
        <time>2016-05-21T05:47:17Z</time>
      </trkpt>
      <trkpt lat="45.36477" lon="5.66557">
        <ele>532.5</ele>
        <time>2016-05-21T05:47:20Z</time>
      </trkpt>
      <trkpt lat="45.36466" lon="5.66564">
        <ele>531.8</ele>
        <time>2016-05-21T05:47:22Z</time>
      </trkpt>
      <trkpt lat="45.36454" lon="5.66573">
        <ele>532.5</ele>
        <time>2016-05-21T05:47:24Z</time>
      </trkpt>
      <trkpt lat="45.36443" lon="5.66581">
        <ele>533.5</ele>
        <time>2016-05-21T05:47:26Z</time>
      </trkpt>
      <trkpt lat="45.36432" lon="5.66591">
        <ele>534.6</ele>
        <time>2016-05-21T05:47:28Z</time>
      </trkpt>
      <trkpt lat="45.36424" lon="5.666">
        <ele>536</ele>
        <time>2016-05-21T05:47:30Z</time>
      </trkpt>
      <trkpt lat="45.36415" lon="5.6661">
        <ele>537.2</ele>
        <time>2016-05-21T05:47:32Z</time>
      </trkpt>
      <trkpt lat="45.36406" lon="5.6662">
        <ele>537.8</ele>
        <time>2016-05-21T05:47:34Z</time>
      </trkpt>
      <trkpt lat="45.36397" lon="5.66627">
        <ele>538.3</ele>
        <time>2016-05-21T05:47:36Z</time>
      </trkpt>
      <trkpt lat="45.36388" lon="5.66636">
        <ele>538.6</ele>
        <time>2016-05-21T05:47:38Z</time>
      </trkpt>
      <trkpt lat="45.36379" lon="5.66644">
        <ele>539.6</ele>
        <time>2016-05-21T05:47:40Z</time>
      </trkpt>
      <trkpt lat="45.36371" lon="5.66652">
        <ele>540.2</ele>
        <time>2016-05-21T05:47:42Z</time>
      </trkpt>
      <trkpt lat="45.36362" lon="5.6666">
        <ele>540</ele>
        <time>2016-05-21T05:47:44Z</time>
      </trkpt>
      <trkpt lat="45.36352" lon="5.66667">
        <ele>539.4</ele>
        <time>2016-05-21T05:47:46Z</time>
      </trkpt>
      <trkpt lat="45.36342" lon="5.66672">
        <ele>538.9</ele>
        <time>2016-05-21T05:47:48Z</time>
      </trkpt>
      <trkpt lat="45.36332" lon="5.66678">
        <ele>538.7</ele>
        <time>2016-05-21T05:47:50Z</time>
      </trkpt>
      <trkpt lat="45.36323" lon="5.66684">
        <ele>538.9</ele>
        <time>2016-05-21T05:47:52Z</time>
      </trkpt>
      <trkpt lat="45.36314" lon="5.66689">
        <ele>539.1</ele>
        <time>2016-05-21T05:47:54Z</time>
      </trkpt>
      <trkpt lat="45.36305" lon="5.66693">
        <ele>538.8</ele>
        <time>2016-05-21T05:47:56Z</time>
      </trkpt>
      <trkpt lat="45.36295" lon="5.66695">
        <ele>538.7</ele>
        <time>2016-05-21T05:47:58Z</time>
      </trkpt>
      <trkpt lat="45.36285" lon="5.66697">
        <ele>538.7</ele>
        <time>2016-05-21T05:48:00Z</time>
      </trkpt>
      <trkpt lat="45.36275" lon="5.66698">
        <ele>539.1</ele>
        <time>2016-05-21T05:48:02Z</time>
      </trkpt>
      <trkpt lat="45.36267" lon="5.667">
        <ele>539.4</ele>
        <time>2016-05-21T05:48:04Z</time>
      </trkpt>
      <trkpt lat="45.36258" lon="5.66703">
        <ele>539.3</ele>
        <time>2016-05-21T05:48:06Z</time>
      </trkpt>
      <trkpt lat="45.3625" lon="5.66709">
        <ele>539.2</ele>
        <time>2016-05-21T05:48:08Z</time>
      </trkpt>
      <trkpt lat="45.36242" lon="5.66715">
        <ele>539.6</ele>
        <time>2016-05-21T05:48:10Z</time>
      </trkpt>
      <trkpt lat="45.36233" lon="5.66724">
        <ele>539.9</ele>
        <time>2016-05-21T05:48:12Z</time>
      </trkpt>
      <trkpt lat="45.36226" lon="5.66735">
        <ele>539.1</ele>
        <time>2016-05-21T05:48:14Z</time>
      </trkpt>
      <trkpt lat="45.3622" lon="5.66747">
        <ele>538.5</ele>
        <time>2016-05-21T05:48:16Z</time>
      </trkpt>
      <trkpt lat="45.36214" lon="5.66761">
        <ele>537.6</ele>
        <time>2016-05-21T05:48:18Z</time>
      </trkpt>
      <trkpt lat="45.36209" lon="5.66777">
        <ele>537.6</ele>
        <time>2016-05-21T05:48:20Z</time>
      </trkpt>
      <trkpt lat="45.36205" lon="5.66794">
        <ele>538.6</ele>
        <time>2016-05-21T05:48:22Z</time>
      </trkpt>
      <trkpt lat="45.36203" lon="5.66815">
        <ele>538.9</ele>
        <time>2016-05-21T05:48:24Z</time>
      </trkpt>
      <trkpt lat="45.36203" lon="5.66826">
        <ele>539.4</ele>
        <time>2016-05-21T05:48:25Z</time>
      </trkpt>
      <trkpt lat="45.36202" lon="5.66837">
        <ele>540</ele>
        <time>2016-05-21T05:48:26Z</time>
      </trkpt>
      <trkpt lat="45.36202" lon="5.66849">
        <ele>540.4</ele>
        <time>2016-05-21T05:48:27Z</time>
      </trkpt>
      <trkpt lat="45.36202" lon="5.66862">
        <ele>540</ele>
        <time>2016-05-21T05:48:28Z</time>
      </trkpt>
      <trkpt lat="45.36202" lon="5.66876">
        <ele>539.8</ele>
        <time>2016-05-21T05:48:29Z</time>
      </trkpt>
      <trkpt lat="45.36203" lon="5.66891">
        <ele>539.2</ele>
        <time>2016-05-21T05:48:30Z</time>
      </trkpt>
      <trkpt lat="45.36203" lon="5.66905">
        <ele>538.8</ele>
        <time>2016-05-21T05:48:31Z</time>
      </trkpt>
      <trkpt lat="45.36204" lon="5.66919">
        <ele>538.7</ele>
        <time>2016-05-21T05:48:32Z</time>
      </trkpt>
      <trkpt lat="45.36204" lon="5.66932">
        <ele>538.8</ele>
        <time>2016-05-21T05:48:33Z</time>
      </trkpt>
      <trkpt lat="45.36204" lon="5.66946">
        <ele>539</ele>
        <time>2016-05-21T05:48:34Z</time>
      </trkpt>
      <trkpt lat="45.36204" lon="5.66961">
        <ele>539.1</ele>
        <time>2016-05-21T05:48:35Z</time>
      </trkpt>
      <trkpt lat="45.36203" lon="5.66975">
        <ele>539.1</ele>
        <time>2016-05-21T05:48:36Z</time>
      </trkpt>
      <trkpt lat="45.362" lon="5.66989">
        <ele>539</ele>
        <time>2016-05-21T05:48:37Z</time>
      </trkpt>
      <trkpt lat="45.36196" lon="5.67003">
        <ele>538.9</ele>
        <time>2016-05-21T05:48:38Z</time>
      </trkpt>
      <trkpt lat="45.36188" lon="5.67012">
        <ele>539.1</ele>
        <time>2016-05-21T05:48:39Z</time>
      </trkpt>
      <trkpt lat="45.3618" lon="5.67021">
        <ele>539.3</ele>
        <time>2016-05-21T05:48:40Z</time>
      </trkpt>
      <trkpt lat="45.36172" lon="5.6703">
        <ele>539.6</ele>
        <time>2016-05-21T05:48:41Z</time>
      </trkpt>
      <trkpt lat="45.36163" lon="5.67038">
        <ele>539.8</ele>
        <time>2016-05-21T05:48:42Z</time>
      </trkpt>
      <trkpt lat="45.36155" lon="5.67046">
        <ele>539.9</ele>
        <time>2016-05-21T05:48:43Z</time>
      </trkpt>
      <trkpt lat="45.36147" lon="5.67054">
        <ele>539.9</ele>
        <time>2016-05-21T05:48:44Z</time>
      </trkpt>
      <trkpt lat="45.36139" lon="5.67062">
        <ele>540.1</ele>
        <time>2016-05-21T05:48:45Z</time>
      </trkpt>
      <trkpt lat="45.36133" lon="5.6707">
        <ele>540.1</ele>
        <time>2016-05-21T05:48:46Z</time>
      </trkpt>
      <trkpt lat="45.36126" lon="5.6708">
        <ele>539.5</ele>
        <time>2016-05-21T05:48:47Z</time>
      </trkpt>
      <trkpt lat="45.36121" lon="5.6709">
        <ele>538.8</ele>
        <time>2016-05-21T05:48:48Z</time>
      </trkpt>
      <trkpt lat="45.36115" lon="5.671">
        <ele>538.2</ele>
        <time>2016-05-21T05:48:49Z</time>
      </trkpt>
      <trkpt lat="45.3611" lon="5.67111">
        <ele>537.6</ele>
        <time>2016-05-21T05:48:50Z</time>
      </trkpt>
      <trkpt lat="45.36105" lon="5.67122">
        <ele>536.7</ele>
        <time>2016-05-21T05:48:51Z</time>
      </trkpt>
      <trkpt lat="45.36101" lon="5.67133">
        <ele>536</ele>
        <time>2016-05-21T05:48:52Z</time>
      </trkpt>
      <trkpt lat="45.36096" lon="5.67144">
        <ele>535.5</ele>
        <time>2016-05-21T05:48:53Z</time>
      </trkpt>
      <trkpt lat="45.36092" lon="5.67155">
        <ele>535</ele>
        <time>2016-05-21T05:48:54Z</time>
      </trkpt>
      <trkpt lat="45.36087" lon="5.67166">
        <ele>534.7</ele>
        <time>2016-05-21T05:48:55Z</time>
      </trkpt>
      <trkpt lat="45.36083" lon="5.67176">
        <ele>534.6</ele>
        <time>2016-05-21T05:48:56Z</time>
      </trkpt>
      <trkpt lat="45.36078" lon="5.67186">
        <ele>534.4</ele>
        <time>2016-05-21T05:48:57Z</time>
      </trkpt>
      <trkpt lat="45.36074" lon="5.67195">
        <ele>534.2</ele>
        <time>2016-05-21T05:48:58Z</time>
      </trkpt>
      <trkpt lat="45.3607" lon="5.67204">
        <ele>533.7</ele>
        <time>2016-05-21T05:48:59Z</time>
      </trkpt>
      <trkpt lat="45.36066" lon="5.67214">
        <ele>533.8</ele>
        <time>2016-05-21T05:49:00Z</time>
      </trkpt>
      <trkpt lat="45.36063" lon="5.67223">
        <ele>533.4</ele>
        <time>2016-05-21T05:49:01Z</time>
      </trkpt>
      <trkpt lat="45.36058" lon="5.67233">
        <ele>533.3</ele>
        <time>2016-05-21T05:49:02Z</time>
      </trkpt>
      <trkpt lat="45.36055" lon="5.67243">
        <ele>533</ele>
        <time>2016-05-21T05:49:03Z</time>
      </trkpt>
      <trkpt lat="45.36054" lon="5.67255">
        <ele>533.2</ele>
        <time>2016-05-21T05:49:04Z</time>
      </trkpt>
      <trkpt lat="45.36054" lon="5.67268">
        <ele>533.3</ele>
        <time>2016-05-21T05:49:05Z</time>
      </trkpt>
      <trkpt lat="45.36054" lon="5.67281">
        <ele>533.4</ele>
        <time>2016-05-21T05:49:06Z</time>
      </trkpt>
      <trkpt lat="45.36056" lon="5.67296">
        <ele>533.2</ele>
        <time>2016-05-21T05:49:07Z</time>
      </trkpt>
      <trkpt lat="45.3606" lon="5.67309">
        <ele>533</ele>
        <time>2016-05-21T05:49:08Z</time>
      </trkpt>
      <trkpt lat="45.36064" lon="5.67321">
        <ele>532.4</ele>
        <time>2016-05-21T05:49:09Z</time>
      </trkpt>
      <trkpt lat="45.36071" lon="5.67332">
        <ele>532</ele>
        <time>2016-05-21T05:49:10Z</time>
      </trkpt>
      <trkpt lat="45.36078" lon="5.67343">
        <ele>531.4</ele>
        <time>2016-05-21T05:49:11Z</time>
      </trkpt>
      <trkpt lat="45.36086" lon="5.67354">
        <ele>530.4</ele>
        <time>2016-05-21T05:49:12Z</time>
      </trkpt>
      <trkpt lat="45.36095" lon="5.67364">
        <ele>529.4</ele>
        <time>2016-05-21T05:49:13Z</time>
      </trkpt>
      <trkpt lat="45.36104" lon="5.67373">
        <ele>528.4</ele>
        <time>2016-05-21T05:49:14Z</time>
      </trkpt>
      <trkpt lat="45.36113" lon="5.67383">
        <ele>527.5</ele>
        <time>2016-05-21T05:49:15Z</time>
      </trkpt>
      <trkpt lat="45.36123" lon="5.67393">
        <ele>526.6</ele>
        <time>2016-05-21T05:49:16Z</time>
      </trkpt>
      <trkpt lat="45.36132" lon="5.67404">
        <ele>525.7</ele>
        <time>2016-05-21T05:49:17Z</time>
      </trkpt>
      <trkpt lat="45.36141" lon="5.67416">
        <ele>524.6</ele>
        <time>2016-05-21T05:49:18Z</time>
      </trkpt>
      <trkpt lat="45.3615" lon="5.67429">
        <ele>523.6</ele>
        <time>2016-05-21T05:49:19Z</time>
      </trkpt>
      <trkpt lat="45.36159" lon="5.67444">
        <ele>522.6</ele>
        <time>2016-05-21T05:49:20Z</time>
      </trkpt>
      <trkpt lat="45.36168" lon="5.67458">
        <ele>521.7</ele>
        <time>2016-05-21T05:49:21Z</time>
      </trkpt>
      <trkpt lat="45.36177" lon="5.6747">
        <ele>520.6</ele>
        <time>2016-05-21T05:49:22Z</time>
      </trkpt>
      <trkpt lat="45.36186" lon="5.67481">
        <ele>519.5</ele>
        <time>2016-05-21T05:49:23Z</time>
      </trkpt>
      <trkpt lat="45.36199" lon="5.6749">
        <ele>518.6</ele>
        <time>2016-05-21T05:49:24Z</time>
      </trkpt>
      <trkpt lat="45.36212" lon="5.67497">
        <ele>518</ele>
        <time>2016-05-21T05:49:25Z</time>
      </trkpt>
      <trkpt lat="45.36225" lon="5.67503">
        <ele>517.2</ele>
        <time>2016-05-21T05:49:26Z</time>
      </trkpt>
      <trkpt lat="45.36238" lon="5.67509">
        <ele>516.2</ele>
        <time>2016-05-21T05:49:27Z</time>
      </trkpt>
      <trkpt lat="45.36251" lon="5.67515">
        <ele>515.3</ele>
        <time>2016-05-21T05:49:28Z</time>
      </trkpt>
      <trkpt lat="45.36265" lon="5.67523">
        <ele>514.6</ele>
        <time>2016-05-21T05:49:29Z</time>
      </trkpt>
      <trkpt lat="45.36275" lon="5.67534">
        <ele>513.7</ele>
        <time>2016-05-21T05:49:30Z</time>
      </trkpt>
      <trkpt lat="45.36285" lon="5.67545">
        <ele>512.7</ele>
        <time>2016-05-21T05:49:31Z</time>
      </trkpt>
      <trkpt lat="45.36297" lon="5.67558">
        <ele>511.4</ele>
        <time>2016-05-21T05:49:32Z</time>
      </trkpt>
      <trkpt lat="45.36308" lon="5.6757">
        <ele>510.1</ele>
        <time>2016-05-21T05:49:33Z</time>
      </trkpt>
      <trkpt lat="45.36318" lon="5.6758">
        <ele>508.9</ele>
        <time>2016-05-21T05:49:34Z</time>
      </trkpt>
      <trkpt lat="45.36329" lon="5.6759">
        <ele>508</ele>
        <time>2016-05-21T05:49:35Z</time>
      </trkpt>
      <trkpt lat="45.36337" lon="5.676">
        <ele>506.8</ele>
        <time>2016-05-21T05:49:36Z</time>
      </trkpt>
      <trkpt lat="45.36344" lon="5.67614">
        <ele>505.4</ele>
        <time>2016-05-21T05:49:37Z</time>
      </trkpt>
      <trkpt lat="45.36348" lon="5.67629">
        <ele>504.2</ele>
        <time>2016-05-21T05:49:38Z</time>
      </trkpt>
      <trkpt lat="45.3635" lon="5.67644">
        <ele>503.1</ele>
        <time>2016-05-21T05:49:39Z</time>
      </trkpt>
      <trkpt lat="45.36349" lon="5.67662">
        <ele>502.1</ele>
        <time>2016-05-21T05:49:40Z</time>
      </trkpt>
      <trkpt lat="45.36346" lon="5.67678">
        <ele>501.1</ele>
        <time>2016-05-21T05:49:41Z</time>
      </trkpt>
      <trkpt lat="45.36344" lon="5.67694">
        <ele>500.2</ele>
        <time>2016-05-21T05:49:42Z</time>
      </trkpt>
      <trkpt lat="45.36341" lon="5.6771">
        <ele>499.2</ele>
        <time>2016-05-21T05:49:43Z</time>
      </trkpt>
      <trkpt lat="45.36338" lon="5.67726">
        <ele>498.2</ele>
        <time>2016-05-21T05:49:44Z</time>
      </trkpt>
      <trkpt lat="45.36334" lon="5.67742">
        <ele>497.1</ele>
        <time>2016-05-21T05:49:45Z</time>
      </trkpt>
      <trkpt lat="45.3633" lon="5.67758">
        <ele>496.2</ele>
        <time>2016-05-21T05:49:46Z</time>
      </trkpt>
      <trkpt lat="45.36325" lon="5.67773">
        <ele>495.2</ele>
        <time>2016-05-21T05:49:47Z</time>
      </trkpt>
      <trkpt lat="45.36322" lon="5.67787">
        <ele>494.5</ele>
        <time>2016-05-21T05:49:48Z</time>
      </trkpt>
      <trkpt lat="45.36318" lon="5.67801">
        <ele>493.8</ele>
        <time>2016-05-21T05:49:49Z</time>
      </trkpt>
      <trkpt lat="45.36314" lon="5.67815">
        <ele>492.9</ele>
        <time>2016-05-21T05:49:50Z</time>
      </trkpt>
      <trkpt lat="45.3631" lon="5.67828">
        <ele>492</ele>
        <time>2016-05-21T05:49:51Z</time>
      </trkpt>
      <trkpt lat="45.36307" lon="5.67841">
        <ele>491.4</ele>
        <time>2016-05-21T05:49:52Z</time>
      </trkpt>
      <trkpt lat="45.36303" lon="5.67853">
        <ele>490.8</ele>
        <time>2016-05-21T05:49:53Z</time>
      </trkpt>
      <trkpt lat="45.363" lon="5.67866">
        <ele>490.4</ele>
        <time>2016-05-21T05:49:54Z</time>
      </trkpt>
      <trkpt lat="45.36296" lon="5.67878">
        <ele>490.1</ele>
        <time>2016-05-21T05:49:55Z</time>
      </trkpt>
      <trkpt lat="45.36293" lon="5.67889">
        <ele>489.8</ele>
        <time>2016-05-21T05:49:56Z</time>
      </trkpt>
      <trkpt lat="45.3629" lon="5.67901">
        <ele>489.7</ele>
        <time>2016-05-21T05:49:57Z</time>
      </trkpt>
      <trkpt lat="45.36287" lon="5.67911">
        <ele>489.7</ele>
        <time>2016-05-21T05:49:58Z</time>
      </trkpt>
      <trkpt lat="45.36284" lon="5.67921">
        <ele>489.8</ele>
        <time>2016-05-21T05:49:59Z</time>
      </trkpt>
      <trkpt lat="45.36281" lon="5.67931">
        <ele>489.9</ele>
        <time>2016-05-21T05:50:00Z</time>
      </trkpt>
      <trkpt lat="45.36279" lon="5.67942">
        <ele>489.9</ele>
        <time>2016-05-21T05:50:01Z</time>
      </trkpt>
      <trkpt lat="45.36277" lon="5.67952">
        <ele>489.9</ele>
        <time>2016-05-21T05:50:02Z</time>
      </trkpt>
      <trkpt lat="45.36276" lon="5.67963">
        <ele>489.9</ele>
        <time>2016-05-21T05:50:03Z</time>
      </trkpt>
      <trkpt lat="45.36275" lon="5.67974">
        <ele>489.9</ele>
        <time>2016-05-21T05:50:04Z</time>
      </trkpt>
      <trkpt lat="45.36277" lon="5.67986">
        <ele>489.8</ele>
        <time>2016-05-21T05:50:05Z</time>
      </trkpt>
      <trkpt lat="45.36278" lon="5.67998">
        <ele>489.6</ele>
        <time>2016-05-21T05:50:06Z</time>
      </trkpt>
      <trkpt lat="45.36281" lon="5.6801">
        <ele>489</ele>
        <time>2016-05-21T05:50:07Z</time>
      </trkpt>
      <trkpt lat="45.36284" lon="5.68023">
        <ele>488.3</ele>
        <time>2016-05-21T05:50:08Z</time>
      </trkpt>
      <trkpt lat="45.36288" lon="5.68035">
        <ele>487.4</ele>
        <time>2016-05-21T05:50:09Z</time>
      </trkpt>
      <trkpt lat="45.36292" lon="5.68047">
        <ele>486.8</ele>
        <time>2016-05-21T05:50:10Z</time>
      </trkpt>
      <trkpt lat="45.36296" lon="5.68058">
        <ele>486.3</ele>
        <time>2016-05-21T05:50:11Z</time>
      </trkpt>
      <trkpt lat="45.363" lon="5.68069">
        <ele>486</ele>
        <time>2016-05-21T05:50:12Z</time>
      </trkpt>
      <trkpt lat="45.36303" lon="5.68079">
        <ele>486.1</ele>
        <time>2016-05-21T05:50:13Z</time>
      </trkpt>
      <trkpt lat="45.36309" lon="5.68096">
        <ele>487.1</ele>
        <time>2016-05-21T05:50:15Z</time>
      </trkpt>
      <trkpt lat="45.36317" lon="5.68114">
        <ele>487.8</ele>
        <time>2016-05-21T05:50:17Z</time>
      </trkpt>
      <trkpt lat="45.36321" lon="5.68124">
        <ele>487.9</ele>
        <time>2016-05-21T05:50:18Z</time>
      </trkpt>
      <trkpt lat="45.36325" lon="5.68133">
        <ele>488</ele>
        <time>2016-05-21T05:50:19Z</time>
      </trkpt>
      <trkpt lat="45.3633" lon="5.68144">
        <ele>488.2</ele>
        <time>2016-05-21T05:50:20Z</time>
      </trkpt>
      <trkpt lat="45.36336" lon="5.68154">
        <ele>488.3</ele>
        <time>2016-05-21T05:50:21Z</time>
      </trkpt>
      <trkpt lat="45.36341" lon="5.68163">
        <ele>488.7</ele>
        <time>2016-05-21T05:50:22Z</time>
      </trkpt>
      <trkpt lat="45.36347" lon="5.68173">
        <ele>488.9</ele>
        <time>2016-05-21T05:50:23Z</time>
      </trkpt>
      <trkpt lat="45.36353" lon="5.68181">
        <ele>489.2</ele>
        <time>2016-05-21T05:50:24Z</time>
      </trkpt>
      <trkpt lat="45.3636" lon="5.6819">
        <ele>489.4</ele>
        <time>2016-05-21T05:50:25Z</time>
      </trkpt>
      <trkpt lat="45.36368" lon="5.68199">
        <ele>489.3</ele>
        <time>2016-05-21T05:50:26Z</time>
      </trkpt>
      <trkpt lat="45.36376" lon="5.68208">
        <ele>489.3</ele>
        <time>2016-05-21T05:50:27Z</time>
      </trkpt>
      <trkpt lat="45.36384" lon="5.68217">
        <ele>489</ele>
        <time>2016-05-21T05:50:28Z</time>
      </trkpt>
      <trkpt lat="45.36392" lon="5.68226">
        <ele>488.8</ele>
        <time>2016-05-21T05:50:29Z</time>
      </trkpt>
      <trkpt lat="45.36401" lon="5.68235">
        <ele>488.6</ele>
        <time>2016-05-21T05:50:30Z</time>
      </trkpt>
      <trkpt lat="45.3641" lon="5.68244">
        <ele>488.4</ele>
        <time>2016-05-21T05:50:31Z</time>
      </trkpt>
      <trkpt lat="45.36418" lon="5.68253">
        <ele>488.1</ele>
        <time>2016-05-21T05:50:32Z</time>
      </trkpt>
      <trkpt lat="45.36427" lon="5.68261">
        <ele>487.9</ele>
        <time>2016-05-21T05:50:33Z</time>
      </trkpt>
      <trkpt lat="45.36435" lon="5.6827">
        <ele>487.7</ele>
        <time>2016-05-21T05:50:34Z</time>
      </trkpt>
      <trkpt lat="45.36444" lon="5.68279">
        <ele>487.4</ele>
        <time>2016-05-21T05:50:35Z</time>
      </trkpt>
      <trkpt lat="45.36453" lon="5.68288">
        <ele>487.2</ele>
        <time>2016-05-21T05:50:36Z</time>
      </trkpt>
      <trkpt lat="45.36461" lon="5.68296">
        <ele>487</ele>
        <time>2016-05-21T05:50:37Z</time>
      </trkpt>
      <trkpt lat="45.3647" lon="5.68305">
        <ele>486.6</ele>
        <time>2016-05-21T05:50:38Z</time>
      </trkpt>
      <trkpt lat="45.36477" lon="5.68313">
        <ele>486.3</ele>
        <time>2016-05-21T05:50:39Z</time>
      </trkpt>
      <trkpt lat="45.36486" lon="5.68322">
        <ele>486.1</ele>
        <time>2016-05-21T05:50:40Z</time>
      </trkpt>
      <trkpt lat="45.36494" lon="5.68331">
        <ele>486.1</ele>
        <time>2016-05-21T05:50:41Z</time>
      </trkpt>
      <trkpt lat="45.36503" lon="5.6834">
        <ele>486.1</ele>
        <time>2016-05-21T05:50:42Z</time>
      </trkpt>
      <trkpt lat="45.36511" lon="5.68348">
        <ele>485.9</ele>
        <time>2016-05-21T05:50:43Z</time>
      </trkpt>
      <trkpt lat="45.36519" lon="5.68357">
        <ele>485.8</ele>
        <time>2016-05-21T05:50:44Z</time>
      </trkpt>
      <trkpt lat="45.36527" lon="5.68366">
        <ele>485.3</ele>
        <time>2016-05-21T05:50:45Z</time>
      </trkpt>
      <trkpt lat="45.36536" lon="5.68374">
        <ele>484.8</ele>
        <time>2016-05-21T05:50:46Z</time>
      </trkpt>
      <trkpt lat="45.36545" lon="5.68384">
        <ele>484.3</ele>
        <time>2016-05-21T05:50:47Z</time>
      </trkpt>
      <trkpt lat="45.36554" lon="5.68393">
        <ele>483.6</ele>
        <time>2016-05-21T05:50:48Z</time>
      </trkpt>
      <trkpt lat="45.36563" lon="5.68403">
        <ele>483</ele>
        <time>2016-05-21T05:50:49Z</time>
      </trkpt>
      <trkpt lat="45.36572" lon="5.68413">
        <ele>482.6</ele>
        <time>2016-05-21T05:50:50Z</time>
      </trkpt>
      <trkpt lat="45.36581" lon="5.68422">
        <ele>482.1</ele>
        <time>2016-05-21T05:50:51Z</time>
      </trkpt>
      <trkpt lat="45.36591" lon="5.68432">
        <ele>481.7</ele>
        <time>2016-05-21T05:50:52Z</time>
      </trkpt>
      <trkpt lat="45.36601" lon="5.68441">
        <ele>481.4</ele>
        <time>2016-05-21T05:50:53Z</time>
      </trkpt>
      <trkpt lat="45.3661" lon="5.68451">
        <ele>481.2</ele>
        <time>2016-05-21T05:50:54Z</time>
      </trkpt>
      <trkpt lat="45.36619" lon="5.6846">
        <ele>480.9</ele>
        <time>2016-05-21T05:50:55Z</time>
      </trkpt>
      <trkpt lat="45.36627" lon="5.6847">
        <ele>480.7</ele>
        <time>2016-05-21T05:50:56Z</time>
      </trkpt>
      <trkpt lat="45.36635" lon="5.68479">
        <ele>480.4</ele>
        <time>2016-05-21T05:50:57Z</time>
      </trkpt>
      <trkpt lat="45.36644" lon="5.68488">
        <ele>480</ele>
        <time>2016-05-21T05:50:58Z</time>
      </trkpt>
      <trkpt lat="45.36652" lon="5.68498">
        <ele>479.9</ele>
        <time>2016-05-21T05:50:59Z</time>
      </trkpt>
      <trkpt lat="45.3666" lon="5.68507">
        <ele>479.6</ele>
        <time>2016-05-21T05:51:00Z</time>
      </trkpt>
      <trkpt lat="45.36668" lon="5.68516">
        <ele>479.2</ele>
        <time>2016-05-21T05:51:01Z</time>
      </trkpt>
      <trkpt lat="45.36677" lon="5.68525">
        <ele>478.9</ele>
        <time>2016-05-21T05:51:02Z</time>
      </trkpt>
      <trkpt lat="45.36686" lon="5.68535">
        <ele>478.7</ele>
        <time>2016-05-21T05:51:03Z</time>
      </trkpt>
      <trkpt lat="45.36695" lon="5.68543">
        <ele>478.6</ele>
        <time>2016-05-21T05:51:04Z</time>
      </trkpt>
      <trkpt lat="45.36704" lon="5.68551">
        <ele>478.6</ele>
        <time>2016-05-21T05:51:05Z</time>
      </trkpt>
      <trkpt lat="45.36713" lon="5.68558">
        <ele>478.5</ele>
        <time>2016-05-21T05:51:06Z</time>
      </trkpt>
      <trkpt lat="45.36723" lon="5.68565">
        <ele>478.5</ele>
        <time>2016-05-21T05:51:07Z</time>
      </trkpt>
      <trkpt lat="45.36733" lon="5.6857">
        <ele>478.5</ele>
        <time>2016-05-21T05:51:08Z</time>
      </trkpt>
      <trkpt lat="45.36743" lon="5.68575">
        <ele>478.4</ele>
        <time>2016-05-21T05:51:09Z</time>
      </trkpt>
      <trkpt lat="45.36754" lon="5.68579">
        <ele>478.1</ele>
        <time>2016-05-21T05:51:10Z</time>
      </trkpt>
      <trkpt lat="45.36764" lon="5.68584">
        <ele>477.9</ele>
        <time>2016-05-21T05:51:11Z</time>
      </trkpt>
      <trkpt lat="45.36775" lon="5.68588">
        <ele>477.8</ele>
        <time>2016-05-21T05:51:12Z</time>
      </trkpt>
      <trkpt lat="45.36786" lon="5.68593">
        <ele>477.5</ele>
        <time>2016-05-21T05:51:13Z</time>
      </trkpt>
      <trkpt lat="45.36797" lon="5.68599">
        <ele>477.2</ele>
        <time>2016-05-21T05:51:14Z</time>
      </trkpt>
      <trkpt lat="45.36807" lon="5.68606">
        <ele>476.8</ele>
        <time>2016-05-21T05:51:15Z</time>
      </trkpt>
      <trkpt lat="45.36816" lon="5.68613">
        <ele>476.5</ele>
        <time>2016-05-21T05:51:16Z</time>
      </trkpt>
      <trkpt lat="45.36827" lon="5.68619">
        <ele>476.2</ele>
        <time>2016-05-21T05:51:17Z</time>
      </trkpt>
      <trkpt lat="45.36836" lon="5.68627">
        <ele>475.8</ele>
        <time>2016-05-21T05:51:18Z</time>
      </trkpt>
      <trkpt lat="45.36846" lon="5.68635">
        <ele>475.4</ele>
        <time>2016-05-21T05:51:19Z</time>
      </trkpt>
      <trkpt lat="45.36854" lon="5.68642">
        <ele>475</ele>
        <time>2016-05-21T05:51:20Z</time>
      </trkpt>
      <trkpt lat="45.36864" lon="5.6865">
        <ele>474.6</ele>
        <time>2016-05-21T05:51:21Z</time>
      </trkpt>
      <trkpt lat="45.36874" lon="5.68657">
        <ele>474.3</ele>
        <time>2016-05-21T05:51:22Z</time>
      </trkpt>
      <trkpt lat="45.36883" lon="5.68665">
        <ele>473.9</ele>
        <time>2016-05-21T05:51:23Z</time>
      </trkpt>
      <trkpt lat="45.36892" lon="5.68672">
        <ele>473.3</ele>
        <time>2016-05-21T05:51:24Z</time>
      </trkpt>
      <trkpt lat="45.36901" lon="5.6868">
        <ele>472.5</ele>
        <time>2016-05-21T05:51:25Z</time>
      </trkpt>
      <trkpt lat="45.3691" lon="5.68687">
        <ele>471.7</ele>
        <time>2016-05-21T05:51:26Z</time>
      </trkpt>
      <trkpt lat="45.36919" lon="5.68694">
        <ele>471.4</ele>
        <time>2016-05-21T05:51:27Z</time>
      </trkpt>
      <trkpt lat="45.36929" lon="5.68701">
        <ele>471.1</ele>
        <time>2016-05-21T05:51:28Z</time>
      </trkpt>
      <trkpt lat="45.36938" lon="5.68708">
        <ele>470.7</ele>
        <time>2016-05-21T05:51:29Z</time>
      </trkpt>
      <trkpt lat="45.36948" lon="5.68716">
        <ele>470.5</ele>
        <time>2016-05-21T05:51:30Z</time>
      </trkpt>
      <trkpt lat="45.36957" lon="5.68724">
        <ele>470.1</ele>
        <time>2016-05-21T05:51:31Z</time>
      </trkpt>
      <trkpt lat="45.36967" lon="5.68731">
        <ele>469.6</ele>
        <time>2016-05-21T05:51:32Z</time>
      </trkpt>
      <trkpt lat="45.36977" lon="5.68739">
        <ele>469.3</ele>
        <time>2016-05-21T05:51:33Z</time>
      </trkpt>
      <trkpt lat="45.36986" lon="5.68747">
        <ele>468.9</ele>
        <time>2016-05-21T05:51:34Z</time>
      </trkpt>
      <trkpt lat="45.36996" lon="5.68755">
        <ele>468.4</ele>
        <time>2016-05-21T05:51:35Z</time>
      </trkpt>
      <trkpt lat="45.37005" lon="5.68764">
        <ele>468.1</ele>
        <time>2016-05-21T05:51:36Z</time>
      </trkpt>
      <trkpt lat="45.37015" lon="5.68773">
        <ele>467.9</ele>
        <time>2016-05-21T05:51:37Z</time>
      </trkpt>
      <trkpt lat="45.37024" lon="5.68781">
        <ele>467.8</ele>
        <time>2016-05-21T05:51:38Z</time>
      </trkpt>
      <trkpt lat="45.37032" lon="5.6879">
        <ele>467.7</ele>
        <time>2016-05-21T05:51:39Z</time>
      </trkpt>
      <trkpt lat="45.37041" lon="5.68799">
        <ele>467.6</ele>
        <time>2016-05-21T05:51:40Z</time>
      </trkpt>
      <trkpt lat="45.37049" lon="5.68809">
        <ele>467.7</ele>
        <time>2016-05-21T05:51:41Z</time>
      </trkpt>
      <trkpt lat="45.37057" lon="5.68819">
        <ele>468.1</ele>
        <time>2016-05-21T05:51:42Z</time>
      </trkpt>
      <trkpt lat="45.37065" lon="5.6883">
        <ele>468.2</ele>
        <time>2016-05-21T05:51:43Z</time>
      </trkpt>
      <trkpt lat="45.37074" lon="5.68841">
        <ele>468</ele>
        <time>2016-05-21T05:51:44Z</time>
      </trkpt>
      <trkpt lat="45.37082" lon="5.68852">
        <ele>467.7</ele>
        <time>2016-05-21T05:51:45Z</time>
      </trkpt>
      <trkpt lat="45.37089" lon="5.68864">
        <ele>467.3</ele>
        <time>2016-05-21T05:51:46Z</time>
      </trkpt>
      <trkpt lat="45.37096" lon="5.68876">
        <ele>466.6</ele>
        <time>2016-05-21T05:51:47Z</time>
      </trkpt>
      <trkpt lat="45.37103" lon="5.68887">
        <ele>466.1</ele>
        <time>2016-05-21T05:51:48Z</time>
      </trkpt>
      <trkpt lat="45.37109" lon="5.689">
        <ele>465.6</ele>
        <time>2016-05-21T05:51:49Z</time>
      </trkpt>
      <trkpt lat="45.37116" lon="5.68912">
        <ele>465</ele>
        <time>2016-05-21T05:51:50Z</time>
      </trkpt>
      <trkpt lat="45.37122" lon="5.68924">
        <ele>464.5</ele>
        <time>2016-05-21T05:51:51Z</time>
      </trkpt>
      <trkpt lat="45.37127" lon="5.68937">
        <ele>464.1</ele>
        <time>2016-05-21T05:51:52Z</time>
      </trkpt>
      <trkpt lat="45.37134" lon="5.68949">
        <ele>463.8</ele>
        <time>2016-05-21T05:51:53Z</time>
      </trkpt>
      <trkpt lat="45.37139" lon="5.68962">
        <ele>463.5</ele>
        <time>2016-05-21T05:51:54Z</time>
      </trkpt>
      <trkpt lat="45.37145" lon="5.68974">
        <ele>463</ele>
        <time>2016-05-21T05:51:55Z</time>
      </trkpt>
      <trkpt lat="45.3715" lon="5.68987">
        <ele>462.7</ele>
        <time>2016-05-21T05:51:56Z</time>
      </trkpt>
      <trkpt lat="45.37156" lon="5.69001">
        <ele>462.1</ele>
        <time>2016-05-21T05:51:57Z</time>
      </trkpt>
      <trkpt lat="45.37161" lon="5.69016">
        <ele>461.6</ele>
        <time>2016-05-21T05:51:58Z</time>
      </trkpt>
      <trkpt lat="45.37165" lon="5.6903">
        <ele>461.2</ele>
        <time>2016-05-21T05:51:59Z</time>
      </trkpt>
      <trkpt lat="45.37168" lon="5.69044">
        <ele>461</ele>
        <time>2016-05-21T05:52:00Z</time>
      </trkpt>
      <trkpt lat="45.37171" lon="5.69058">
        <ele>460.8</ele>
        <time>2016-05-21T05:52:01Z</time>
      </trkpt>
      <trkpt lat="45.37172" lon="5.69073">
        <ele>460.5</ele>
        <time>2016-05-21T05:52:02Z</time>
      </trkpt>
      <trkpt lat="45.37174" lon="5.69088">
        <ele>460</ele>
        <time>2016-05-21T05:52:03Z</time>
      </trkpt>
      <trkpt lat="45.37176" lon="5.69103">
        <ele>459.7</ele>
        <time>2016-05-21T05:52:04Z</time>
      </trkpt>
      <trkpt lat="45.37177" lon="5.69119">
        <ele>459.3</ele>
        <time>2016-05-21T05:52:05Z</time>
      </trkpt>
      <trkpt lat="45.37178" lon="5.69134">
        <ele>458.9</ele>
        <time>2016-05-21T05:52:06Z</time>
      </trkpt>
      <trkpt lat="45.37178" lon="5.69149">
        <ele>458.3</ele>
        <time>2016-05-21T05:52:07Z</time>
      </trkpt>
      <trkpt lat="45.37178" lon="5.69164">
        <ele>457.8</ele>
        <time>2016-05-21T05:52:08Z</time>
      </trkpt>
      <trkpt lat="45.37178" lon="5.69178">
        <ele>457.6</ele>
        <time>2016-05-21T05:52:09Z</time>
      </trkpt>
      <trkpt lat="45.37178" lon="5.69192">
        <ele>457.8</ele>
        <time>2016-05-21T05:52:10Z</time>
      </trkpt>
      <trkpt lat="45.37178" lon="5.69206">
        <ele>457.9</ele>
        <time>2016-05-21T05:52:11Z</time>
      </trkpt>
      <trkpt lat="45.37178" lon="5.69219">
        <ele>458</ele>
        <time>2016-05-21T05:52:12Z</time>
      </trkpt>
      <trkpt lat="45.37178" lon="5.69232">
        <ele>458.5</ele>
        <time>2016-05-21T05:52:13Z</time>
      </trkpt>
      <trkpt lat="45.37179" lon="5.69245">
        <ele>458.9</ele>
        <time>2016-05-21T05:52:14Z</time>
      </trkpt>
      <trkpt lat="45.3718" lon="5.69257">
        <ele>458.9</ele>
        <time>2016-05-21T05:52:15Z</time>
      </trkpt>
      <trkpt lat="45.37182" lon="5.69268">
        <ele>458.7</ele>
        <time>2016-05-21T05:52:16Z</time>
      </trkpt>
      <trkpt lat="45.37184" lon="5.6928">
        <ele>458.4</ele>
        <time>2016-05-21T05:52:17Z</time>
      </trkpt>
      <trkpt lat="45.37187" lon="5.69292">
        <ele>458.3</ele>
        <time>2016-05-21T05:52:18Z</time>
      </trkpt>
      <trkpt lat="45.3719" lon="5.69303">
        <ele>458</ele>
        <time>2016-05-21T05:52:19Z</time>
      </trkpt>
      <trkpt lat="45.37194" lon="5.69315">
        <ele>457.9</ele>
        <time>2016-05-21T05:52:20Z</time>
      </trkpt>
      <trkpt lat="45.37197" lon="5.69326">
        <ele>457.6</ele>
        <time>2016-05-21T05:52:21Z</time>
      </trkpt>
      <trkpt lat="45.37202" lon="5.69337">
        <ele>457.5</ele>
        <time>2016-05-21T05:52:22Z</time>
      </trkpt>
      <trkpt lat="45.37205" lon="5.69348">
        <ele>457.2</ele>
        <time>2016-05-21T05:52:23Z</time>
      </trkpt>
      <trkpt lat="45.37209" lon="5.69359">
        <ele>457</ele>
        <time>2016-05-21T05:52:24Z</time>
      </trkpt>
      <trkpt lat="45.37213" lon="5.69369">
        <ele>456.7</ele>
        <time>2016-05-21T05:52:25Z</time>
      </trkpt>
      <trkpt lat="45.37217" lon="5.6938">
        <ele>456.5</ele>
        <time>2016-05-21T05:52:26Z</time>
      </trkpt>
      <trkpt lat="45.37221" lon="5.69389">
        <ele>456.5</ele>
        <time>2016-05-21T05:52:27Z</time>
      </trkpt>
      <trkpt lat="45.37225" lon="5.69399">
        <ele>456.6</ele>
        <time>2016-05-21T05:52:28Z</time>
      </trkpt>
      <trkpt lat="45.37229" lon="5.69409">
        <ele>456.6</ele>
        <time>2016-05-21T05:52:29Z</time>
      </trkpt>
      <trkpt lat="45.37234" lon="5.69419">
        <ele>456.6</ele>
        <time>2016-05-21T05:52:30Z</time>
      </trkpt>
      <trkpt lat="45.37238" lon="5.69427">
        <ele>456.8</ele>
        <time>2016-05-21T05:52:31Z</time>
      </trkpt>
      <trkpt lat="45.37243" lon="5.69436">
        <ele>456.6</ele>
        <time>2016-05-21T05:52:32Z</time>
      </trkpt>
      <trkpt lat="45.37248" lon="5.69445">
        <ele>456.4</ele>
        <time>2016-05-21T05:52:33Z</time>
      </trkpt>
      <trkpt lat="45.37252" lon="5.69454">
        <ele>456.4</ele>
        <time>2016-05-21T05:52:34Z</time>
      </trkpt>
      <trkpt lat="45.37257" lon="5.69461">
        <ele>456.7</ele>
        <time>2016-05-21T05:52:35Z</time>
      </trkpt>
      <trkpt lat="45.37262" lon="5.6947">
        <ele>457</ele>
        <time>2016-05-21T05:52:36Z</time>
      </trkpt>
      <trkpt lat="45.37267" lon="5.69478">
        <ele>457.5</ele>
        <time>2016-05-21T05:52:37Z</time>
      </trkpt>
      <trkpt lat="45.37276" lon="5.69494">
        <ele>458.6</ele>
        <time>2016-05-21T05:52:39Z</time>
      </trkpt>
      <trkpt lat="45.37285" lon="5.6951">
        <ele>459.6</ele>
        <time>2016-05-21T05:52:41Z</time>
      </trkpt>
      <trkpt lat="45.37289" lon="5.69517">
        <ele>460.1</ele>
        <time>2016-05-21T05:52:42Z</time>
      </trkpt>
      <trkpt lat="45.37298" lon="5.69533">
        <ele>461.5</ele>
        <time>2016-05-21T05:52:44Z</time>
      </trkpt>
      <trkpt lat="45.37303" lon="5.69541">
        <ele>461.8</ele>
        <time>2016-05-21T05:52:45Z</time>
      </trkpt>
      <trkpt lat="45.37307" lon="5.6955">
        <ele>462.1</ele>
        <time>2016-05-21T05:52:46Z</time>
      </trkpt>
      <trkpt lat="45.37316" lon="5.69566">
        <ele>462.9</ele>
        <time>2016-05-21T05:52:48Z</time>
      </trkpt>
      <trkpt lat="45.3732" lon="5.69574">
        <ele>463.1</ele>
        <time>2016-05-21T05:52:49Z</time>
      </trkpt>
      <trkpt lat="45.37324" lon="5.69583">
        <ele>463.2</ele>
        <time>2016-05-21T05:52:50Z</time>
      </trkpt>
      <trkpt lat="45.37329" lon="5.69591">
        <ele>463.2</ele>
        <time>2016-05-21T05:52:51Z</time>
      </trkpt>
      <trkpt lat="45.37333" lon="5.696">
        <ele>463.1</ele>
        <time>2016-05-21T05:52:52Z</time>
      </trkpt>
      <trkpt lat="45.37338" lon="5.69608">
        <ele>463.1</ele>
        <time>2016-05-21T05:52:53Z</time>
      </trkpt>
      <trkpt lat="45.37343" lon="5.69617">
        <ele>463.1</ele>
        <time>2016-05-21T05:52:54Z</time>
      </trkpt>
      <trkpt lat="45.37348" lon="5.69624">
        <ele>463.3</ele>
        <time>2016-05-21T05:52:55Z</time>
      </trkpt>
      <trkpt lat="45.37353" lon="5.69632">
        <ele>463.3</ele>
        <time>2016-05-21T05:52:56Z</time>
      </trkpt>
      <trkpt lat="45.37358" lon="5.6964">
        <ele>463.4</ele>
        <time>2016-05-21T05:52:57Z</time>
      </trkpt>
      <trkpt lat="45.37367" lon="5.69652">
        <ele>463.6</ele>
        <time>2016-05-21T05:52:59Z</time>
      </trkpt>
      <trkpt lat="45.37374" lon="5.6966">
        <ele>464.2</ele>
        <time>2016-05-21T05:53:01Z</time>
      </trkpt>
      <trkpt lat="45.37383" lon="5.69669">
        <ele>464.7</ele>
        <time>2016-05-21T05:53:03Z</time>
      </trkpt>
      <trkpt lat="45.37394" lon="5.69678">
        <ele>464.6</ele>
        <time>2016-05-21T05:53:05Z</time>
      </trkpt>
      <trkpt lat="45.37405" lon="5.69687">
        <ele>464.7</ele>
        <time>2016-05-21T05:53:07Z</time>
      </trkpt>
      <trkpt lat="45.37418" lon="5.69694">
        <ele>465.6</ele>
        <time>2016-05-21T05:53:09Z</time>
      </trkpt>
      <trkpt lat="45.37431" lon="5.697">
        <ele>466.9</ele>
        <time>2016-05-21T05:53:11Z</time>
      </trkpt>
      <trkpt lat="45.37444" lon="5.69703">
        <ele>468</ele>
        <time>2016-05-21T05:53:13Z</time>
      </trkpt>
      <trkpt lat="45.37458" lon="5.69706">
        <ele>469.1</ele>
        <time>2016-05-21T05:53:15Z</time>
      </trkpt>
      <trkpt lat="45.37466" lon="5.69707">
        <ele>469.2</ele>
        <time>2016-05-21T05:53:16Z</time>
      </trkpt>
      <trkpt lat="45.37473" lon="5.69708">
        <ele>469</ele>
        <time>2016-05-21T05:53:17Z</time>
      </trkpt>
      <trkpt lat="45.37482" lon="5.69709">
        <ele>468.6</ele>
        <time>2016-05-21T05:53:18Z</time>
      </trkpt>
      <trkpt lat="45.37489" lon="5.6971">
        <ele>468.5</ele>
        <time>2016-05-21T05:53:19Z</time>
      </trkpt>
      <trkpt lat="45.37496" lon="5.69711">
        <ele>468.3</ele>
        <time>2016-05-21T05:53:20Z</time>
      </trkpt>
      <trkpt lat="45.3751" lon="5.69715">
        <ele>467.8</ele>
        <time>2016-05-21T05:53:22Z</time>
      </trkpt>
      <trkpt lat="45.37522" lon="5.6972">
        <ele>467.9</ele>
        <time>2016-05-21T05:53:24Z</time>
      </trkpt>
      <trkpt lat="45.37533" lon="5.69725">
        <ele>468.1</ele>
        <time>2016-05-21T05:53:26Z</time>
      </trkpt>
      <trkpt lat="45.37542" lon="5.6973">
        <ele>468.2</ele>
        <time>2016-05-21T05:53:28Z</time>
      </trkpt>
      <trkpt lat="45.3755" lon="5.69734">
        <ele>468.6</ele>
        <time>2016-05-21T05:53:30Z</time>
      </trkpt>
      <trkpt lat="45.37559" lon="5.6974">
        <ele>468.5</ele>
        <time>2016-05-21T05:53:33Z</time>
      </trkpt>
      <trkpt lat="45.37566" lon="5.69744">
        <ele>468.5</ele>
        <time>2016-05-21T05:53:36Z</time>
      </trkpt>
      <trkpt lat="45.37575" lon="5.69748">
        <ele>468.6</ele>
        <time>2016-05-21T05:53:39Z</time>
      </trkpt>
      <trkpt lat="45.37584" lon="5.69752">
        <ele>468.7</ele>
        <time>2016-05-21T05:53:42Z</time>
      </trkpt>
      <trkpt lat="45.37593" lon="5.69757">
        <ele>468.7</ele>
        <time>2016-05-21T05:53:45Z</time>
      </trkpt>
      <trkpt lat="45.37603" lon="5.69763">
        <ele>469.5</ele>
        <time>2016-05-21T05:53:48Z</time>
      </trkpt>
      <trkpt lat="45.37611" lon="5.69768">
        <ele>470</ele>
        <time>2016-05-21T05:53:50Z</time>
      </trkpt>
      <trkpt lat="45.3762" lon="5.69773">
        <ele>470.3</ele>
        <time>2016-05-21T05:53:52Z</time>
      </trkpt>
      <trkpt lat="45.3763" lon="5.69777">
        <ele>470.5</ele>
        <time>2016-05-21T05:53:54Z</time>
      </trkpt>
      <trkpt lat="45.3764" lon="5.69782">
        <ele>470.5</ele>
        <time>2016-05-21T05:53:56Z</time>
      </trkpt>
      <trkpt lat="45.37652" lon="5.69788">
        <ele>469</ele>
        <time>2016-05-21T05:53:58Z</time>
      </trkpt>
      <trkpt lat="45.37659" lon="5.69791">
        <ele>468.5</ele>
        <time>2016-05-21T05:53:59Z</time>
      </trkpt>
      <trkpt lat="45.37672" lon="5.69797">
        <ele>467.8</ele>
        <time>2016-05-21T05:54:01Z</time>
      </trkpt>
      <trkpt lat="45.37684" lon="5.69804">
        <ele>467.9</ele>
        <time>2016-05-21T05:54:03Z</time>
      </trkpt>
      <trkpt lat="45.37695" lon="5.69813">
        <ele>469.1</ele>
        <time>2016-05-21T05:54:05Z</time>
      </trkpt>
      <trkpt lat="45.37706" lon="5.69823">
        <ele>470.1</ele>
        <time>2016-05-21T05:54:07Z</time>
      </trkpt>
      <trkpt lat="45.37713" lon="5.6983">
        <ele>470.4</ele>
        <time>2016-05-21T05:54:08Z</time>
      </trkpt>
      <trkpt lat="45.37718" lon="5.69836">
        <ele>470.4</ele>
        <time>2016-05-21T05:54:09Z</time>
      </trkpt>
      <trkpt lat="45.37725" lon="5.69843">
        <ele>470.4</ele>
        <time>2016-05-21T05:54:10Z</time>
      </trkpt>
      <trkpt lat="45.37731" lon="5.6985">
        <ele>470.2</ele>
        <time>2016-05-21T05:54:11Z</time>
      </trkpt>
      <trkpt lat="45.37738" lon="5.69858">
        <ele>469.8</ele>
        <time>2016-05-21T05:54:12Z</time>
      </trkpt>
      <trkpt lat="45.37744" lon="5.69867">
        <ele>468.9</ele>
        <time>2016-05-21T05:54:13Z</time>
      </trkpt>
      <trkpt lat="45.3775" lon="5.69876">
        <ele>468</ele>
        <time>2016-05-21T05:54:14Z</time>
      </trkpt>
      <trkpt lat="45.37756" lon="5.69885">
        <ele>467.3</ele>
        <time>2016-05-21T05:54:15Z</time>
      </trkpt>
      <trkpt lat="45.37761" lon="5.69893">
        <ele>466.6</ele>
        <time>2016-05-21T05:54:16Z</time>
      </trkpt>
      <trkpt lat="45.37766" lon="5.69902">
        <ele>466</ele>
        <time>2016-05-21T05:54:17Z</time>
      </trkpt>
      <trkpt lat="45.37771" lon="5.6991">
        <ele>465.4</ele>
        <time>2016-05-21T05:54:18Z</time>
      </trkpt>
      <trkpt lat="45.37777" lon="5.6992">
        <ele>464.6</ele>
        <time>2016-05-21T05:54:19Z</time>
      </trkpt>
      <trkpt lat="45.37782" lon="5.69929">
        <ele>464.2</ele>
        <time>2016-05-21T05:54:20Z</time>
      </trkpt>
      <trkpt lat="45.37787" lon="5.69938">
        <ele>463.9</ele>
        <time>2016-05-21T05:54:21Z</time>
      </trkpt>
      <trkpt lat="45.37793" lon="5.69947">
        <ele>463.9</ele>
        <time>2016-05-21T05:54:22Z</time>
      </trkpt>
      <trkpt lat="45.37798" lon="5.69957">
        <ele>463.8</ele>
        <time>2016-05-21T05:54:23Z</time>
      </trkpt>
      <trkpt lat="45.37803" lon="5.69967">
        <ele>463.8</ele>
        <time>2016-05-21T05:54:24Z</time>
      </trkpt>
      <trkpt lat="45.37809" lon="5.69977">
        <ele>463.7</ele>
        <time>2016-05-21T05:54:25Z</time>
      </trkpt>
      <trkpt lat="45.37814" lon="5.69986">
        <ele>463.6</ele>
        <time>2016-05-21T05:54:26Z</time>
      </trkpt>
      <trkpt lat="45.37819" lon="5.69996">
        <ele>463.7</ele>
        <time>2016-05-21T05:54:27Z</time>
      </trkpt>
      <trkpt lat="45.37824" lon="5.70005">
        <ele>463.9</ele>
        <time>2016-05-21T05:54:28Z</time>
      </trkpt>
      <trkpt lat="45.37829" lon="5.70014">
        <ele>464.5</ele>
        <time>2016-05-21T05:54:29Z</time>
      </trkpt>
      <trkpt lat="45.37835" lon="5.70024">
        <ele>464.6</ele>
        <time>2016-05-21T05:54:30Z</time>
      </trkpt>
      <trkpt lat="45.3784" lon="5.70034">
        <ele>464.5</ele>
        <time>2016-05-21T05:54:31Z</time>
      </trkpt>
      <trkpt lat="45.37845" lon="5.70043">
        <ele>464.3</ele>
        <time>2016-05-21T05:54:32Z</time>
      </trkpt>
      <trkpt lat="45.37851" lon="5.70053">
        <ele>463.7</ele>
        <time>2016-05-21T05:54:33Z</time>
      </trkpt>
      <trkpt lat="45.37858" lon="5.70063">
        <ele>462.9</ele>
        <time>2016-05-21T05:54:34Z</time>
      </trkpt>
      <trkpt lat="45.37864" lon="5.70072">
        <ele>461.8</ele>
        <time>2016-05-21T05:54:35Z</time>
      </trkpt>
      <trkpt lat="45.3787" lon="5.70083">
        <ele>460.7</ele>
        <time>2016-05-21T05:54:36Z</time>
      </trkpt>
      <trkpt lat="45.37876" lon="5.70093">
        <ele>459.9</ele>
        <time>2016-05-21T05:54:37Z</time>
      </trkpt>
      <trkpt lat="45.37882" lon="5.70103">
        <ele>459.7</ele>
        <time>2016-05-21T05:54:38Z</time>
      </trkpt>
      <trkpt lat="45.37887" lon="5.70111">
        <ele>459.5</ele>
        <time>2016-05-21T05:54:39Z</time>
      </trkpt>
      <trkpt lat="45.37892" lon="5.7012">
        <ele>459.4</ele>
        <time>2016-05-21T05:54:40Z</time>
      </trkpt>
      <trkpt lat="45.37897" lon="5.70128">
        <ele>459.1</ele>
        <time>2016-05-21T05:54:41Z</time>
      </trkpt>
      <trkpt lat="45.37901" lon="5.70138">
        <ele>459</ele>
        <time>2016-05-21T05:54:42Z</time>
      </trkpt>
      <trkpt lat="45.37906" lon="5.70147">
        <ele>459.4</ele>
        <time>2016-05-21T05:54:43Z</time>
      </trkpt>
      <trkpt lat="45.3791" lon="5.70157">
        <ele>459.8</ele>
        <time>2016-05-21T05:54:44Z</time>
      </trkpt>
      <trkpt lat="45.37914" lon="5.70166">
        <ele>460</ele>
        <time>2016-05-21T05:54:45Z</time>
      </trkpt>
      <trkpt lat="45.37919" lon="5.70177">
        <ele>460.2</ele>
        <time>2016-05-21T05:54:46Z</time>
      </trkpt>
      <trkpt lat="45.37922" lon="5.70187">
        <ele>460.3</ele>
        <time>2016-05-21T05:54:47Z</time>
      </trkpt>
      <trkpt lat="45.37927" lon="5.70199">
        <ele>460.3</ele>
        <time>2016-05-21T05:54:48Z</time>
      </trkpt>
      <trkpt lat="45.3793" lon="5.7021">
        <ele>460.3</ele>
        <time>2016-05-21T05:54:49Z</time>
      </trkpt>
      <trkpt lat="45.37934" lon="5.70221">
        <ele>460.3</ele>
        <time>2016-05-21T05:54:50Z</time>
      </trkpt>
      <trkpt lat="45.37937" lon="5.70232">
        <ele>460.5</ele>
        <time>2016-05-21T05:54:51Z</time>
      </trkpt>
      <trkpt lat="45.3794" lon="5.70243">
        <ele>460.2</ele>
        <time>2016-05-21T05:54:52Z</time>
      </trkpt>
      <trkpt lat="45.37943" lon="5.70255">
        <ele>460.4</ele>
        <time>2016-05-21T05:54:53Z</time>
      </trkpt>
      <trkpt lat="45.37945" lon="5.70266">
        <ele>460.3</ele>
        <time>2016-05-21T05:54:54Z</time>
      </trkpt>
      <trkpt lat="45.37948" lon="5.70278">
        <ele>460</ele>
        <time>2016-05-21T05:54:55Z</time>
      </trkpt>
      <trkpt lat="45.3795" lon="5.70289">
        <ele>459.5</ele>
        <time>2016-05-21T05:54:56Z</time>
      </trkpt>
      <trkpt lat="45.37952" lon="5.703">
        <ele>459</ele>
        <time>2016-05-21T05:54:57Z</time>
      </trkpt>
      <trkpt lat="45.37955" lon="5.70312">
        <ele>458.7</ele>
        <time>2016-05-21T05:54:58Z</time>
      </trkpt>
      <trkpt lat="45.37958" lon="5.70322">
        <ele>458.5</ele>
        <time>2016-05-21T05:54:59Z</time>
      </trkpt>
      <trkpt lat="45.3796" lon="5.70333">
        <ele>458.4</ele>
        <time>2016-05-21T05:55:00Z</time>
      </trkpt>
      <trkpt lat="45.37964" lon="5.70344">
        <ele>458.2</ele>
        <time>2016-05-21T05:55:01Z</time>
      </trkpt>
      <trkpt lat="45.37967" lon="5.70356">
        <ele>457.9</ele>
        <time>2016-05-21T05:55:02Z</time>
      </trkpt>
      <trkpt lat="45.37971" lon="5.70367">
        <ele>457.6</ele>
        <time>2016-05-21T05:55:03Z</time>
      </trkpt>
      <trkpt lat="45.37975" lon="5.70377">
        <ele>457.4</ele>
        <time>2016-05-21T05:55:04Z</time>
      </trkpt>
      <trkpt lat="45.37979" lon="5.70388">
        <ele>457.2</ele>
        <time>2016-05-21T05:55:05Z</time>
      </trkpt>
      <trkpt lat="45.37983" lon="5.70397">
        <ele>457.1</ele>
        <time>2016-05-21T05:55:06Z</time>
      </trkpt>
      <trkpt lat="45.37987" lon="5.70407">
        <ele>457.3</ele>
        <time>2016-05-21T05:55:07Z</time>
      </trkpt>
      <trkpt lat="45.37991" lon="5.70417">
        <ele>457.5</ele>
        <time>2016-05-21T05:55:08Z</time>
      </trkpt>
      <trkpt lat="45.37996" lon="5.70426">
        <ele>457.7</ele>
        <time>2016-05-21T05:55:09Z</time>
      </trkpt>
      <trkpt lat="45.38" lon="5.70437">
        <ele>457.9</ele>
        <time>2016-05-21T05:55:10Z</time>
      </trkpt>
      <trkpt lat="45.38005" lon="5.70448">
        <ele>457.8</ele>
        <time>2016-05-21T05:55:11Z</time>
      </trkpt>
      <trkpt lat="45.3801" lon="5.70458">
        <ele>457.7</ele>
        <time>2016-05-21T05:55:12Z</time>
      </trkpt>
      <trkpt lat="45.38015" lon="5.70468">
        <ele>457.6</ele>
        <time>2016-05-21T05:55:13Z</time>
      </trkpt>
      <trkpt lat="45.38019" lon="5.70477">
        <ele>457.6</ele>
        <time>2016-05-21T05:55:14Z</time>
      </trkpt>
      <trkpt lat="45.38024" lon="5.70487">
        <ele>457.5</ele>
        <time>2016-05-21T05:55:15Z</time>
      </trkpt>
      <trkpt lat="45.38028" lon="5.70496">
        <ele>457.3</ele>
        <time>2016-05-21T05:55:16Z</time>
      </trkpt>
      <trkpt lat="45.38032" lon="5.70506">
        <ele>456.8</ele>
        <time>2016-05-21T05:55:17Z</time>
      </trkpt>
      <trkpt lat="45.38036" lon="5.70515">
        <ele>456.5</ele>
        <time>2016-05-21T05:55:18Z</time>
      </trkpt>
      <trkpt lat="45.38041" lon="5.70526">
        <ele>456.6</ele>
        <time>2016-05-21T05:55:19Z</time>
      </trkpt>
      <trkpt lat="45.38045" lon="5.70536">
        <ele>456.4</ele>
        <time>2016-05-21T05:55:20Z</time>
      </trkpt>
      <trkpt lat="45.38049" lon="5.70545">
        <ele>455.9</ele>
        <time>2016-05-21T05:55:21Z</time>
      </trkpt>
      <trkpt lat="45.38053" lon="5.70554">
        <ele>455.8</ele>
        <time>2016-05-21T05:55:22Z</time>
      </trkpt>
      <trkpt lat="45.38057" lon="5.70563">
        <ele>455.8</ele>
        <time>2016-05-21T05:55:23Z</time>
      </trkpt>
      <trkpt lat="45.38062" lon="5.70573">
        <ele>456</ele>
        <time>2016-05-21T05:55:24Z</time>
      </trkpt>
      <trkpt lat="45.38067" lon="5.70582">
        <ele>456.4</ele>
        <time>2016-05-21T05:55:25Z</time>
      </trkpt>
      <trkpt lat="45.38071" lon="5.70591">
        <ele>456.9</ele>
        <time>2016-05-21T05:55:26Z</time>
      </trkpt>
      <trkpt lat="45.38076" lon="5.70601">
        <ele>457.5</ele>
        <time>2016-05-21T05:55:27Z</time>
      </trkpt>
      <trkpt lat="45.3808" lon="5.70611">
        <ele>457.8</ele>
        <time>2016-05-21T05:55:28Z</time>
      </trkpt>
      <trkpt lat="45.38085" lon="5.7062">
        <ele>457.9</ele>
        <time>2016-05-21T05:55:29Z</time>
      </trkpt>
      <trkpt lat="45.38089" lon="5.7063">
        <ele>457.9</ele>
        <time>2016-05-21T05:55:30Z</time>
      </trkpt>
      <trkpt lat="45.38093" lon="5.7064">
        <ele>457.8</ele>
        <time>2016-05-21T05:55:31Z</time>
      </trkpt>
      <trkpt lat="45.38098" lon="5.70649">
        <ele>457.3</ele>
        <time>2016-05-21T05:55:32Z</time>
      </trkpt>
      <trkpt lat="45.38102" lon="5.7066">
        <ele>456.8</ele>
        <time>2016-05-21T05:55:33Z</time>
      </trkpt>
      <trkpt lat="45.38107" lon="5.70668">
        <ele>456.5</ele>
        <time>2016-05-21T05:55:34Z</time>
      </trkpt>
      <trkpt lat="45.38112" lon="5.70677">
        <ele>456.3</ele>
        <time>2016-05-21T05:55:35Z</time>
      </trkpt>
      <trkpt lat="45.38117" lon="5.70686">
        <ele>455.8</ele>
        <time>2016-05-21T05:55:36Z</time>
      </trkpt>
      <trkpt lat="45.38122" lon="5.70694">
        <ele>455</ele>
        <time>2016-05-21T05:55:37Z</time>
      </trkpt>
      <trkpt lat="45.38127" lon="5.70702">
        <ele>454.2</ele>
        <time>2016-05-21T05:55:38Z</time>
      </trkpt>
      <trkpt lat="45.38132" lon="5.70709">
        <ele>453.6</ele>
        <time>2016-05-21T05:55:39Z</time>
      </trkpt>
      <trkpt lat="45.38138" lon="5.70717">
        <ele>453.1</ele>
        <time>2016-05-21T05:55:40Z</time>
      </trkpt>
      <trkpt lat="45.38144" lon="5.70724">
        <ele>453.1</ele>
        <time>2016-05-21T05:55:41Z</time>
      </trkpt>
      <trkpt lat="45.3815" lon="5.70731">
        <ele>453.2</ele>
        <time>2016-05-21T05:55:42Z</time>
      </trkpt>
      <trkpt lat="45.38157" lon="5.70738">
        <ele>453.1</ele>
        <time>2016-05-21T05:55:43Z</time>
      </trkpt>
      <trkpt lat="45.38163" lon="5.70744">
        <ele>452.4</ele>
        <time>2016-05-21T05:55:44Z</time>
      </trkpt>
      <trkpt lat="45.3817" lon="5.7075">
        <ele>451.9</ele>
        <time>2016-05-21T05:55:45Z</time>
      </trkpt>
      <trkpt lat="45.38177" lon="5.70757">
        <ele>451.6</ele>
        <time>2016-05-21T05:55:46Z</time>
      </trkpt>
      <trkpt lat="45.38184" lon="5.70764">
        <ele>451.2</ele>
        <time>2016-05-21T05:55:47Z</time>
      </trkpt>
      <trkpt lat="45.38191" lon="5.7077">
        <ele>451.3</ele>
        <time>2016-05-21T05:55:48Z</time>
      </trkpt>
      <trkpt lat="45.38199" lon="5.70778">
        <ele>450.7</ele>
        <time>2016-05-21T05:55:49Z</time>
      </trkpt>
      <trkpt lat="45.38206" lon="5.70785">
        <ele>450.2</ele>
        <time>2016-05-21T05:55:50Z</time>
      </trkpt>
      <trkpt lat="45.38212" lon="5.70793">
        <ele>449.9</ele>
        <time>2016-05-21T05:55:51Z</time>
      </trkpt>
      <trkpt lat="45.38219" lon="5.70802">
        <ele>449.7</ele>
        <time>2016-05-21T05:55:52Z</time>
      </trkpt>
      <trkpt lat="45.38225" lon="5.7081">
        <ele>449.3</ele>
        <time>2016-05-21T05:55:53Z</time>
      </trkpt>
      <trkpt lat="45.38231" lon="5.70818">
        <ele>449.1</ele>
        <time>2016-05-21T05:55:54Z</time>
      </trkpt>
      <trkpt lat="45.38237" lon="5.70827">
        <ele>449.2</ele>
        <time>2016-05-21T05:55:55Z</time>
      </trkpt>
      <trkpt lat="45.38242" lon="5.70837">
        <ele>449.2</ele>
        <time>2016-05-21T05:55:56Z</time>
      </trkpt>
      <trkpt lat="45.38247" lon="5.70846">
        <ele>449.6</ele>
        <time>2016-05-21T05:55:57Z</time>
      </trkpt>
      <trkpt lat="45.38252" lon="5.70856">
        <ele>449.7</ele>
        <time>2016-05-21T05:55:58Z</time>
      </trkpt>
      <trkpt lat="45.38257" lon="5.70865">
        <ele>449.8</ele>
        <time>2016-05-21T05:55:59Z</time>
      </trkpt>
      <trkpt lat="45.38261" lon="5.70874">
        <ele>449.9</ele>
        <time>2016-05-21T05:56:00Z</time>
      </trkpt>
      <trkpt lat="45.38265" lon="5.70883">
        <ele>450</ele>
        <time>2016-05-21T05:56:01Z</time>
      </trkpt>
      <trkpt lat="45.38269" lon="5.70892">
        <ele>449.9</ele>
        <time>2016-05-21T05:56:02Z</time>
      </trkpt>
      <trkpt lat="45.38274" lon="5.70901">
        <ele>449.7</ele>
        <time>2016-05-21T05:56:03Z</time>
      </trkpt>
      <trkpt lat="45.38278" lon="5.70911">
        <ele>449.5</ele>
        <time>2016-05-21T05:56:04Z</time>
      </trkpt>
      <trkpt lat="45.38283" lon="5.70921">
        <ele>449.3</ele>
        <time>2016-05-21T05:56:05Z</time>
      </trkpt>
      <trkpt lat="45.38287" lon="5.7093">
        <ele>449.2</ele>
        <time>2016-05-21T05:56:06Z</time>
      </trkpt>
      <trkpt lat="45.38291" lon="5.70939">
        <ele>449.3</ele>
        <time>2016-05-21T05:56:07Z</time>
      </trkpt>
      <trkpt lat="45.38295" lon="5.70949">
        <ele>449.5</ele>
        <time>2016-05-21T05:56:08Z</time>
      </trkpt>
      <trkpt lat="45.38304" lon="5.70965">
        <ele>450.8</ele>
        <time>2016-05-21T05:56:10Z</time>
      </trkpt>
      <trkpt lat="45.38308" lon="5.70973">
        <ele>451.4</ele>
        <time>2016-05-21T05:56:11Z</time>
      </trkpt>
      <trkpt lat="45.38313" lon="5.70982">
        <ele>451.9</ele>
        <time>2016-05-21T05:56:12Z</time>
      </trkpt>
      <trkpt lat="45.38317" lon="5.70991">
        <ele>452.3</ele>
        <time>2016-05-21T05:56:13Z</time>
      </trkpt>
      <trkpt lat="45.38322" lon="5.71001">
        <ele>452.5</ele>
        <time>2016-05-21T05:56:14Z</time>
      </trkpt>
      <trkpt lat="45.38327" lon="5.7101">
        <ele>452.6</ele>
        <time>2016-05-21T05:56:15Z</time>
      </trkpt>
      <trkpt lat="45.38331" lon="5.71019">
        <ele>452.6</ele>
        <time>2016-05-21T05:56:16Z</time>
      </trkpt>
      <trkpt lat="45.38335" lon="5.71027">
        <ele>452.9</ele>
        <time>2016-05-21T05:56:17Z</time>
      </trkpt>
      <trkpt lat="45.38343" lon="5.71044">
        <ele>453.4</ele>
        <time>2016-05-21T05:56:19Z</time>
      </trkpt>
      <trkpt lat="45.38351" lon="5.71061">
        <ele>454.1</ele>
        <time>2016-05-21T05:56:21Z</time>
      </trkpt>
      <trkpt lat="45.38356" lon="5.7107">
        <ele>454.3</ele>
        <time>2016-05-21T05:56:22Z</time>
      </trkpt>
      <trkpt lat="45.38364" lon="5.71087">
        <ele>454.9</ele>
        <time>2016-05-21T05:56:24Z</time>
      </trkpt>
      <trkpt lat="45.38368" lon="5.71095">
        <ele>455.3</ele>
        <time>2016-05-21T05:56:25Z</time>
      </trkpt>
      <trkpt lat="45.38372" lon="5.71104">
        <ele>455.7</ele>
        <time>2016-05-21T05:56:26Z</time>
      </trkpt>
      <trkpt lat="45.38376" lon="5.71113">
        <ele>456.1</ele>
        <time>2016-05-21T05:56:27Z</time>
      </trkpt>
      <trkpt lat="45.38384" lon="5.7113">
        <ele>457</ele>
        <time>2016-05-21T05:56:29Z</time>
      </trkpt>
      <trkpt lat="45.38388" lon="5.71139">
        <ele>457.3</ele>
        <time>2016-05-21T05:56:30Z</time>
      </trkpt>
      <trkpt lat="45.38395" lon="5.71155">
        <ele>458.2</ele>
        <time>2016-05-21T05:56:32Z</time>
      </trkpt>
      <trkpt lat="45.38404" lon="5.71172">
        <ele>458.5</ele>
        <time>2016-05-21T05:56:34Z</time>
      </trkpt>
      <trkpt lat="45.38408" lon="5.71182">
        <ele>458.5</ele>
        <time>2016-05-21T05:56:35Z</time>
      </trkpt>
      <trkpt lat="45.38413" lon="5.71191">
        <ele>458.4</ele>
        <time>2016-05-21T05:56:36Z</time>
      </trkpt>
      <trkpt lat="45.38417" lon="5.712">
        <ele>458.2</ele>
        <time>2016-05-21T05:56:37Z</time>
      </trkpt>
      <trkpt lat="45.38422" lon="5.71209">
        <ele>458</ele>
        <time>2016-05-21T05:56:38Z</time>
      </trkpt>
      <trkpt lat="45.38426" lon="5.71218">
        <ele>457.7</ele>
        <time>2016-05-21T05:56:39Z</time>
      </trkpt>
      <trkpt lat="45.3843" lon="5.71226">
        <ele>457.4</ele>
        <time>2016-05-21T05:56:40Z</time>
      </trkpt>
      <trkpt lat="45.38435" lon="5.71235">
        <ele>457</ele>
        <time>2016-05-21T05:56:41Z</time>
      </trkpt>
      <trkpt lat="45.3844" lon="5.71244">
        <ele>456.6</ele>
        <time>2016-05-21T05:56:42Z</time>
      </trkpt>
      <trkpt lat="45.38444" lon="5.71253">
        <ele>456.3</ele>
        <time>2016-05-21T05:56:43Z</time>
      </trkpt>
      <trkpt lat="45.38449" lon="5.71262">
        <ele>456</ele>
        <time>2016-05-21T05:56:44Z</time>
      </trkpt>
      <trkpt lat="45.38453" lon="5.71271">
        <ele>455.8</ele>
        <time>2016-05-21T05:56:45Z</time>
      </trkpt>
      <trkpt lat="45.38458" lon="5.7128">
        <ele>455.6</ele>
        <time>2016-05-21T05:56:46Z</time>
      </trkpt>
      <trkpt lat="45.38462" lon="5.71289">
        <ele>455.3</ele>
        <time>2016-05-21T05:56:47Z</time>
      </trkpt>
      <trkpt lat="45.38467" lon="5.71298">
        <ele>455</ele>
        <time>2016-05-21T05:56:48Z</time>
      </trkpt>
      <trkpt lat="45.38472" lon="5.71307">
        <ele>454.9</ele>
        <time>2016-05-21T05:56:49Z</time>
      </trkpt>
      <trkpt lat="45.38477" lon="5.71316">
        <ele>454.7</ele>
        <time>2016-05-21T05:56:50Z</time>
      </trkpt>
      <trkpt lat="45.38482" lon="5.71326">
        <ele>454.4</ele>
        <time>2016-05-21T05:56:51Z</time>
      </trkpt>
      <trkpt lat="45.38487" lon="5.71336">
        <ele>454.1</ele>
        <time>2016-05-21T05:56:52Z</time>
      </trkpt>
      <trkpt lat="45.38492" lon="5.71345">
        <ele>453.7</ele>
        <time>2016-05-21T05:56:53Z</time>
      </trkpt>
      <trkpt lat="45.38496" lon="5.71353">
        <ele>453.5</ele>
        <time>2016-05-21T05:56:54Z</time>
      </trkpt>
      <trkpt lat="45.385" lon="5.71362">
        <ele>453.3</ele>
        <time>2016-05-21T05:56:55Z</time>
      </trkpt>
      <trkpt lat="45.38505" lon="5.71371">
        <ele>453.2</ele>
        <time>2016-05-21T05:56:56Z</time>
      </trkpt>
      <trkpt lat="45.3851" lon="5.71381">
        <ele>453.1</ele>
        <time>2016-05-21T05:56:57Z</time>
      </trkpt>
      <trkpt lat="45.38514" lon="5.71391">
        <ele>453</ele>
        <time>2016-05-21T05:56:58Z</time>
      </trkpt>
      <trkpt lat="45.38519" lon="5.71401">
        <ele>453</ele>
        <time>2016-05-21T05:56:59Z</time>
      </trkpt>
      <trkpt lat="45.38524" lon="5.7141">
        <ele>452.9</ele>
        <time>2016-05-21T05:57:00Z</time>
      </trkpt>
      <trkpt lat="45.38528" lon="5.71419">
        <ele>453</ele>
        <time>2016-05-21T05:57:01Z</time>
      </trkpt>
      <trkpt lat="45.38533" lon="5.71427">
        <ele>453.1</ele>
        <time>2016-05-21T05:57:02Z</time>
      </trkpt>
      <trkpt lat="45.38537" lon="5.71437">
        <ele>453.3</ele>
        <time>2016-05-21T05:57:03Z</time>
      </trkpt>
      <trkpt lat="45.38542" lon="5.71446">
        <ele>453.5</ele>
        <time>2016-05-21T05:57:04Z</time>
      </trkpt>
      <trkpt lat="45.38546" lon="5.71455">
        <ele>453.7</ele>
        <time>2016-05-21T05:57:05Z</time>
      </trkpt>
      <trkpt lat="45.38551" lon="5.71464">
        <ele>453.9</ele>
        <time>2016-05-21T05:57:06Z</time>
      </trkpt>
      <trkpt lat="45.38555" lon="5.71472">
        <ele>453.9</ele>
        <time>2016-05-21T05:57:07Z</time>
      </trkpt>
      <trkpt lat="45.38559" lon="5.71482">
        <ele>454</ele>
        <time>2016-05-21T05:57:08Z</time>
      </trkpt>
      <trkpt lat="45.38563" lon="5.71491">
        <ele>454.1</ele>
        <time>2016-05-21T05:57:09Z</time>
      </trkpt>
      <trkpt lat="45.38568" lon="5.715">
        <ele>454.1</ele>
        <time>2016-05-21T05:57:10Z</time>
      </trkpt>
      <trkpt lat="45.38573" lon="5.7151">
        <ele>454.1</ele>
        <time>2016-05-21T05:57:11Z</time>
      </trkpt>
      <trkpt lat="45.38577" lon="5.7152">
        <ele>454.1</ele>
        <time>2016-05-21T05:57:12Z</time>
      </trkpt>
      <trkpt lat="45.38581" lon="5.71528">
        <ele>454.2</ele>
        <time>2016-05-21T05:57:13Z</time>
      </trkpt>
      <trkpt lat="45.38586" lon="5.71537">
        <ele>454.3</ele>
        <time>2016-05-21T05:57:14Z</time>
      </trkpt>
      <trkpt lat="45.3859" lon="5.71546">
        <ele>454.3</ele>
        <time>2016-05-21T05:57:15Z</time>
      </trkpt>
      <trkpt lat="45.38595" lon="5.71556">
        <ele>454.5</ele>
        <time>2016-05-21T05:57:16Z</time>
      </trkpt>
      <trkpt lat="45.38599" lon="5.71564">
        <ele>454.8</ele>
        <time>2016-05-21T05:57:17Z</time>
      </trkpt>
      <trkpt lat="45.38603" lon="5.71574">
        <ele>455.1</ele>
        <time>2016-05-21T05:57:18Z</time>
      </trkpt>
      <trkpt lat="45.38607" lon="5.71583">
        <ele>455.2</ele>
        <time>2016-05-21T05:57:19Z</time>
      </trkpt>
      <trkpt lat="45.38612" lon="5.71592">
        <ele>455.1</ele>
        <time>2016-05-21T05:57:20Z</time>
      </trkpt>
      <trkpt lat="45.38616" lon="5.71601">
        <ele>454.9</ele>
        <time>2016-05-21T05:57:21Z</time>
      </trkpt>
      <trkpt lat="45.3862" lon="5.7161">
        <ele>454.6</ele>
        <time>2016-05-21T05:57:22Z</time>
      </trkpt>
      <trkpt lat="45.38626" lon="5.71619">
        <ele>454.3</ele>
        <time>2016-05-21T05:57:23Z</time>
      </trkpt>
      <trkpt lat="45.3863" lon="5.71629">
        <ele>453.9</ele>
        <time>2016-05-21T05:57:24Z</time>
      </trkpt>
      <trkpt lat="45.38635" lon="5.71637">
        <ele>453.6</ele>
        <time>2016-05-21T05:57:25Z</time>
      </trkpt>
      <trkpt lat="45.38639" lon="5.71646">
        <ele>453.4</ele>
        <time>2016-05-21T05:57:26Z</time>
      </trkpt>
      <trkpt lat="45.38644" lon="5.71655">
        <ele>453.2</ele>
        <time>2016-05-21T05:57:27Z</time>
      </trkpt>
      <trkpt lat="45.38648" lon="5.71663">
        <ele>453</ele>
        <time>2016-05-21T05:57:28Z</time>
      </trkpt>
      <trkpt lat="45.38652" lon="5.71672">
        <ele>452.9</ele>
        <time>2016-05-21T05:57:29Z</time>
      </trkpt>
      <trkpt lat="45.38661" lon="5.71688">
        <ele>452.5</ele>
        <time>2016-05-21T05:57:31Z</time>
      </trkpt>
      <trkpt lat="45.38669" lon="5.71704">
        <ele>452.9</ele>
        <time>2016-05-21T05:57:33Z</time>
      </trkpt>
      <trkpt lat="45.38677" lon="5.71721">
        <ele>453.4</ele>
        <time>2016-05-21T05:57:35Z</time>
      </trkpt>
      <trkpt lat="45.38682" lon="5.7173">
        <ele>453.5</ele>
        <time>2016-05-21T05:57:36Z</time>
      </trkpt>
      <trkpt lat="45.38686" lon="5.71738">
        <ele>453.4</ele>
        <time>2016-05-21T05:57:37Z</time>
      </trkpt>
      <trkpt lat="45.38691" lon="5.71747">
        <ele>453.2</ele>
        <time>2016-05-21T05:57:38Z</time>
      </trkpt>
      <trkpt lat="45.38695" lon="5.71756">
        <ele>452.9</ele>
        <time>2016-05-21T05:57:39Z</time>
      </trkpt>
      <trkpt lat="45.387" lon="5.71764">
        <ele>452.7</ele>
        <time>2016-05-21T05:57:40Z</time>
      </trkpt>
      <trkpt lat="45.38705" lon="5.71773">
        <ele>452.6</ele>
        <time>2016-05-21T05:57:41Z</time>
      </trkpt>
      <trkpt lat="45.3871" lon="5.71782">
        <ele>452.5</ele>
        <time>2016-05-21T05:57:42Z</time>
      </trkpt>
      <trkpt lat="45.38714" lon="5.7179">
        <ele>452.5</ele>
        <time>2016-05-21T05:57:43Z</time>
      </trkpt>
      <trkpt lat="45.38722" lon="5.71806">
        <ele>452.9</ele>
        <time>2016-05-21T05:57:45Z</time>
      </trkpt>
      <trkpt lat="45.38726" lon="5.71815">
        <ele>453.1</ele>
        <time>2016-05-21T05:57:46Z</time>
      </trkpt>
      <trkpt lat="45.38731" lon="5.71824">
        <ele>453.4</ele>
        <time>2016-05-21T05:57:47Z</time>
      </trkpt>
      <trkpt lat="45.38739" lon="5.7184">
        <ele>453.8</ele>
        <time>2016-05-21T05:57:49Z</time>
      </trkpt>
      <trkpt lat="45.38747" lon="5.71857">
        <ele>454.4</ele>
        <time>2016-05-21T05:57:51Z</time>
      </trkpt>
      <trkpt lat="45.38754" lon="5.71873">
        <ele>454.7</ele>
        <time>2016-05-21T05:57:53Z</time>
      </trkpt>
      <trkpt lat="45.38762" lon="5.7189">
        <ele>454.5</ele>
        <time>2016-05-21T05:57:55Z</time>
      </trkpt>
      <trkpt lat="45.38769" lon="5.71906">
        <ele>454.3</ele>
        <time>2016-05-21T05:57:57Z</time>
      </trkpt>
      <trkpt lat="45.38775" lon="5.71923">
        <ele>454.9</ele>
        <time>2016-05-21T05:57:59Z</time>
      </trkpt>
      <trkpt lat="45.38781" lon="5.71939">
        <ele>455.5</ele>
        <time>2016-05-21T05:58:01Z</time>
      </trkpt>
      <trkpt lat="45.38788" lon="5.71957">
        <ele>456</ele>
        <time>2016-05-21T05:58:03Z</time>
      </trkpt>
      <trkpt lat="45.38793" lon="5.71974">
        <ele>456.6</ele>
        <time>2016-05-21T05:58:05Z</time>
      </trkpt>
      <trkpt lat="45.38799" lon="5.71991">
        <ele>457.7</ele>
        <time>2016-05-21T05:58:07Z</time>
      </trkpt>
      <trkpt lat="45.38804" lon="5.7201">
        <ele>458.1</ele>
        <time>2016-05-21T05:58:09Z</time>
      </trkpt>
      <trkpt lat="45.38807" lon="5.7202">
        <ele>457.7</ele>
        <time>2016-05-21T05:58:10Z</time>
      </trkpt>
      <trkpt lat="45.38809" lon="5.7203">
        <ele>457.3</ele>
        <time>2016-05-21T05:58:11Z</time>
      </trkpt>
      <trkpt lat="45.38814" lon="5.72049">
        <ele>456.4</ele>
        <time>2016-05-21T05:58:13Z</time>
      </trkpt>
      <trkpt lat="45.38817" lon="5.72065">
        <ele>456.9</ele>
        <time>2016-05-21T05:58:15Z</time>
      </trkpt>
      <trkpt lat="45.38821" lon="5.72083">
        <ele>457.2</ele>
        <time>2016-05-21T05:58:17Z</time>
      </trkpt>
      <trkpt lat="45.38824" lon="5.72093">
        <ele>457.1</ele>
        <time>2016-05-21T05:58:18Z</time>
      </trkpt>
      <trkpt lat="45.38826" lon="5.72103">
        <ele>456.9</ele>
        <time>2016-05-21T05:58:19Z</time>
      </trkpt>
      <trkpt lat="45.3883" lon="5.72122">
        <ele>456.9</ele>
        <time>2016-05-21T05:58:21Z</time>
      </trkpt>
      <trkpt lat="45.38833" lon="5.72141">
        <ele>456.6</ele>
        <time>2016-05-21T05:58:23Z</time>
      </trkpt>
      <trkpt lat="45.38837" lon="5.7216">
        <ele>456.6</ele>
        <time>2016-05-21T05:58:25Z</time>
      </trkpt>
      <trkpt lat="45.38839" lon="5.72178">
        <ele>457.3</ele>
        <time>2016-05-21T05:58:27Z</time>
      </trkpt>
      <trkpt lat="45.38842" lon="5.72198">
        <ele>457.4</ele>
        <time>2016-05-21T05:58:29Z</time>
      </trkpt>
      <trkpt lat="45.38845" lon="5.72218">
        <ele>456.6</ele>
        <time>2016-05-21T05:58:31Z</time>
      </trkpt>
      <trkpt lat="45.38847" lon="5.72237">
        <ele>456.6</ele>
        <time>2016-05-21T05:58:33Z</time>
      </trkpt>
      <trkpt lat="45.38849" lon="5.72256">
        <ele>456.4</ele>
        <time>2016-05-21T05:58:35Z</time>
      </trkpt>
      <trkpt lat="45.38851" lon="5.72275">
        <ele>456.1</ele>
        <time>2016-05-21T05:58:37Z</time>
      </trkpt>
      <trkpt lat="45.38853" lon="5.72294">
        <ele>456</ele>
        <time>2016-05-21T05:58:39Z</time>
      </trkpt>
      <trkpt lat="45.38854" lon="5.72313">
        <ele>456.1</ele>
        <time>2016-05-21T05:58:41Z</time>
      </trkpt>
      <trkpt lat="45.38854" lon="5.72331">
        <ele>457</ele>
        <time>2016-05-21T05:58:43Z</time>
      </trkpt>
      <trkpt lat="45.38855" lon="5.72349">
        <ele>457.7</ele>
        <time>2016-05-21T05:58:45Z</time>
      </trkpt>
      <trkpt lat="45.38855" lon="5.72368">
        <ele>457.9</ele>
        <time>2016-05-21T05:58:47Z</time>
      </trkpt>
      <trkpt lat="45.38855" lon="5.72385">
        <ele>458</ele>
        <time>2016-05-21T05:58:49Z</time>
      </trkpt>
      <trkpt lat="45.38854" lon="5.72403">
        <ele>457.8</ele>
        <time>2016-05-21T05:58:51Z</time>
      </trkpt>
      <trkpt lat="45.38854" lon="5.72421">
        <ele>457.3</ele>
        <time>2016-05-21T05:58:53Z</time>
      </trkpt>
      <trkpt lat="45.38854" lon="5.72437">
        <ele>457.9</ele>
        <time>2016-05-21T05:58:55Z</time>
      </trkpt>
      <trkpt lat="45.38854" lon="5.72454">
        <ele>457.6</ele>
        <time>2016-05-21T05:58:57Z</time>
      </trkpt>
      <trkpt lat="45.38853" lon="5.7247">
        <ele>457.5</ele>
        <time>2016-05-21T05:58:59Z</time>
      </trkpt>
      <trkpt lat="45.3885" lon="5.72487">
        <ele>457.4</ele>
        <time>2016-05-21T05:59:01Z</time>
      </trkpt>
      <trkpt lat="45.38848" lon="5.72505">
        <ele>457.4</ele>
        <time>2016-05-21T05:59:03Z</time>
      </trkpt>
      <trkpt lat="45.38845" lon="5.72524">
        <ele>457.6</ele>
        <time>2016-05-21T05:59:05Z</time>
      </trkpt>
      <trkpt lat="45.38844" lon="5.72542">
        <ele>458.6</ele>
        <time>2016-05-21T05:59:07Z</time>
      </trkpt>
      <trkpt lat="45.38842" lon="5.72561">
        <ele>459.7</ele>
        <time>2016-05-21T05:59:09Z</time>
      </trkpt>
      <trkpt lat="45.3884" lon="5.72578">
        <ele>460.4</ele>
        <time>2016-05-21T05:59:11Z</time>
      </trkpt>
      <trkpt lat="45.38837" lon="5.72595">
        <ele>460.9</ele>
        <time>2016-05-21T05:59:13Z</time>
      </trkpt>
      <trkpt lat="45.38834" lon="5.72612">
        <ele>461</ele>
        <time>2016-05-21T05:59:15Z</time>
      </trkpt>
      <trkpt lat="45.38832" lon="5.72629">
        <ele>461.2</ele>
        <time>2016-05-21T05:59:17Z</time>
      </trkpt>
      <trkpt lat="45.38829" lon="5.72647">
        <ele>461.2</ele>
        <time>2016-05-21T05:59:19Z</time>
      </trkpt>
      <trkpt lat="45.38825" lon="5.72664">
        <ele>461.3</ele>
        <time>2016-05-21T05:59:21Z</time>
      </trkpt>
      <trkpt lat="45.38823" lon="5.72682">
        <ele>461.3</ele>
        <time>2016-05-21T05:59:23Z</time>
      </trkpt>
      <trkpt lat="45.38821" lon="5.727">
        <ele>461.4</ele>
        <time>2016-05-21T05:59:25Z</time>
      </trkpt>
      <trkpt lat="45.38817" lon="5.72718">
        <ele>461.5</ele>
        <time>2016-05-21T05:59:27Z</time>
      </trkpt>
      <trkpt lat="45.38816" lon="5.72728">
        <ele>461.4</ele>
        <time>2016-05-21T05:59:28Z</time>
      </trkpt>
      <trkpt lat="45.38815" lon="5.72739">
        <ele>461.4</ele>
        <time>2016-05-21T05:59:29Z</time>
      </trkpt>
      <trkpt lat="45.38814" lon="5.72749">
        <ele>461.3</ele>
        <time>2016-05-21T05:59:30Z</time>
      </trkpt>
      <trkpt lat="45.38811" lon="5.72766">
        <ele>461.2</ele>
        <time>2016-05-21T05:59:32Z</time>
      </trkpt>
      <trkpt lat="45.38809" lon="5.72784">
        <ele>460.7</ele>
        <time>2016-05-21T05:59:34Z</time>
      </trkpt>
      <trkpt lat="45.38807" lon="5.72803">
        <ele>460.3</ele>
        <time>2016-05-21T05:59:36Z</time>
      </trkpt>
      <trkpt lat="45.38805" lon="5.72822">
        <ele>460.8</ele>
        <time>2016-05-21T05:59:38Z</time>
      </trkpt>
      <trkpt lat="45.38803" lon="5.7284">
        <ele>461.4</ele>
        <time>2016-05-21T05:59:40Z</time>
      </trkpt>
      <trkpt lat="45.38801" lon="5.72857">
        <ele>462.2</ele>
        <time>2016-05-21T05:59:42Z</time>
      </trkpt>
      <trkpt lat="45.38798" lon="5.72873">
        <ele>463.2</ele>
        <time>2016-05-21T05:59:44Z</time>
      </trkpt>
      <trkpt lat="45.38795" lon="5.72892">
        <ele>463.7</ele>
        <time>2016-05-21T05:59:46Z</time>
      </trkpt>
      <trkpt lat="45.38792" lon="5.7291">
        <ele>464.1</ele>
        <time>2016-05-21T05:59:48Z</time>
      </trkpt>
      <trkpt lat="45.38789" lon="5.72928">
        <ele>464.6</ele>
        <time>2016-05-21T05:59:50Z</time>
      </trkpt>
      <trkpt lat="45.38786" lon="5.72947">
        <ele>464.5</ele>
        <time>2016-05-21T05:59:52Z</time>
      </trkpt>
      <trkpt lat="45.38784" lon="5.72967">
        <ele>464.4</ele>
        <time>2016-05-21T05:59:54Z</time>
      </trkpt>
      <trkpt lat="45.38782" lon="5.72986">
        <ele>464.2</ele>
        <time>2016-05-21T05:59:56Z</time>
      </trkpt>
      <trkpt lat="45.38778" lon="5.73004">
        <ele>464.6</ele>
        <time>2016-05-21T05:59:58Z</time>
      </trkpt>
      <trkpt lat="45.38773" lon="5.73022">
        <ele>465.2</ele>
        <time>2016-05-21T06:00:00Z</time>
      </trkpt>
      <trkpt lat="45.3877" lon="5.7304">
        <ele>466.4</ele>
        <time>2016-05-21T06:00:02Z</time>
      </trkpt>
      <trkpt lat="45.38768" lon="5.73058">
        <ele>467.4</ele>
        <time>2016-05-21T06:00:04Z</time>
      </trkpt>
      <trkpt lat="45.38765" lon="5.73077">
        <ele>467.7</ele>
        <time>2016-05-21T06:00:06Z</time>
      </trkpt>
      <trkpt lat="45.38764" lon="5.73096">
        <ele>467.9</ele>
        <time>2016-05-21T06:00:08Z</time>
      </trkpt>
      <trkpt lat="45.38763" lon="5.73115">
        <ele>468.1</ele>
        <time>2016-05-21T06:00:10Z</time>
      </trkpt>
      <trkpt lat="45.38761" lon="5.73133">
        <ele>467.8</ele>
        <time>2016-05-21T06:00:12Z</time>
      </trkpt>
      <trkpt lat="45.38758" lon="5.73152">
        <ele>467.4</ele>
        <time>2016-05-21T06:00:14Z</time>
      </trkpt>
      <trkpt lat="45.38756" lon="5.7317">
        <ele>467.7</ele>
        <time>2016-05-21T06:00:16Z</time>
      </trkpt>
      <trkpt lat="45.38754" lon="5.73187">
        <ele>468.1</ele>
        <time>2016-05-21T06:00:18Z</time>
      </trkpt>
      <trkpt lat="45.38752" lon="5.73204">
        <ele>468.5</ele>
        <time>2016-05-21T06:00:20Z</time>
      </trkpt>
      <trkpt lat="45.3875" lon="5.73221">
        <ele>469</ele>
        <time>2016-05-21T06:00:22Z</time>
      </trkpt>
      <trkpt lat="45.38748" lon="5.73234">
        <ele>469.5</ele>
        <time>2016-05-21T06:00:24Z</time>
      </trkpt>
      <trkpt lat="45.38747" lon="5.73248">
        <ele>469.6</ele>
        <time>2016-05-21T06:00:26Z</time>
      </trkpt>
      <trkpt lat="45.38745" lon="5.73261">
        <ele>469.5</ele>
        <time>2016-05-21T06:00:28Z</time>
      </trkpt>
      <trkpt lat="45.38742" lon="5.73273">
        <ele>469.3</ele>
        <time>2016-05-21T06:00:30Z</time>
      </trkpt>
      <trkpt lat="45.38739" lon="5.73287">
        <ele>469.2</ele>
        <time>2016-05-21T06:00:32Z</time>
      </trkpt>
      <trkpt lat="45.38737" lon="5.73301">
        <ele>469.8</ele>
        <time>2016-05-21T06:00:34Z</time>
      </trkpt>
      <trkpt lat="45.38736" lon="5.73315">
        <ele>469.8</ele>
        <time>2016-05-21T06:00:36Z</time>
      </trkpt>
      <trkpt lat="45.38735" lon="5.73328">
        <ele>470.1</ele>
        <time>2016-05-21T06:00:38Z</time>
      </trkpt>
      <trkpt lat="45.38733" lon="5.73342">
        <ele>470.4</ele>
        <time>2016-05-21T06:00:40Z</time>
      </trkpt>
      <trkpt lat="45.38731" lon="5.73355">
        <ele>470.7</ele>
        <time>2016-05-21T06:00:42Z</time>
      </trkpt>
      <trkpt lat="45.38728" lon="5.73366">
        <ele>471.1</ele>
        <time>2016-05-21T06:00:44Z</time>
      </trkpt>
      <trkpt lat="45.38723" lon="5.7338">
        <ele>471.6</ele>
        <time>2016-05-21T06:00:46Z</time>
      </trkpt>
      <trkpt lat="45.38718" lon="5.73394">
        <ele>471.7</ele>
        <time>2016-05-21T06:00:48Z</time>
      </trkpt>
      <trkpt lat="45.38712" lon="5.7341">
        <ele>471.1</ele>
        <time>2016-05-21T06:00:50Z</time>
      </trkpt>
      <trkpt lat="45.38706" lon="5.73426">
        <ele>470.8</ele>
        <time>2016-05-21T06:00:52Z</time>
      </trkpt>
      <trkpt lat="45.38701" lon="5.73442">
        <ele>471.4</ele>
        <time>2016-05-21T06:00:54Z</time>
      </trkpt>
      <trkpt lat="45.38695" lon="5.73455">
        <ele>471.5</ele>
        <time>2016-05-21T06:00:56Z</time>
      </trkpt>
      <trkpt lat="45.38692" lon="5.73468">
        <ele>471.3</ele>
        <time>2016-05-21T06:00:58Z</time>
      </trkpt>
      <trkpt lat="45.38687" lon="5.73481">
        <ele>470.3</ele>
        <time>2016-05-21T06:01:00Z</time>
      </trkpt>
      <trkpt lat="45.38681" lon="5.73493">
        <ele>469.4</ele>
        <time>2016-05-21T06:01:02Z</time>
      </trkpt>
      <trkpt lat="45.38676" lon="5.73503">
        <ele>468.5</ele>
        <time>2016-05-21T06:01:04Z</time>
      </trkpt>
      <trkpt lat="45.3867" lon="5.7351">
        <ele>467.2</ele>
        <time>2016-05-21T06:01:06Z</time>
      </trkpt>
      <trkpt lat="45.38665" lon="5.7352">
        <ele>464.7</ele>
        <time>2016-05-21T06:01:08Z</time>
      </trkpt>
      <trkpt lat="45.38658" lon="5.73527">
        <ele>464</ele>
        <time>2016-05-21T06:01:10Z</time>
      </trkpt>
      <trkpt lat="45.38651" lon="5.73535">
        <ele>463.3</ele>
        <time>2016-05-21T06:01:12Z</time>
      </trkpt>
      <trkpt lat="45.38644" lon="5.73537">
        <ele>462.9</ele>
        <time>2016-05-21T06:01:14Z</time>
      </trkpt>
      <trkpt lat="45.38634" lon="5.7354">
        <ele>462.3</ele>
        <time>2016-05-21T06:01:16Z</time>
      </trkpt>
      <trkpt lat="45.38626" lon="5.73543">
        <ele>462.4</ele>
        <time>2016-05-21T06:01:18Z</time>
      </trkpt>
      <trkpt lat="45.38616" lon="5.73546">
        <ele>463.4</ele>
        <time>2016-05-21T06:01:20Z</time>
      </trkpt>
      <trkpt lat="45.38607" lon="5.73547">
        <ele>463.8</ele>
        <time>2016-05-21T06:01:22Z</time>
      </trkpt>
      <trkpt lat="45.38597" lon="5.73549">
        <ele>463.9</ele>
        <time>2016-05-21T06:01:25Z</time>
      </trkpt>
      <trkpt lat="45.38586" lon="5.73554">
        <ele>464.4</ele>
        <time>2016-05-21T06:01:28Z</time>
      </trkpt>
      <trkpt lat="45.38577" lon="5.73554">
        <ele>465.8</ele>
        <time>2016-05-21T06:01:31Z</time>
      </trkpt>
      <trkpt lat="45.38567" lon="5.7355">
        <ele>467</ele>
        <time>2016-05-21T06:01:34Z</time>
      </trkpt>
      <trkpt lat="45.38559" lon="5.73547">
        <ele>468.2</ele>
        <time>2016-05-21T06:01:36Z</time>
      </trkpt>
      <trkpt lat="45.38551" lon="5.73543">
        <ele>469.5</ele>
        <time>2016-05-21T06:01:38Z</time>
      </trkpt>
      <trkpt lat="45.38543" lon="5.73539">
        <ele>470.7</ele>
        <time>2016-05-21T06:01:40Z</time>
      </trkpt>
      <trkpt lat="45.38525" lon="5.73531">
        <ele>472.8</ele>
        <time>2016-05-21T06:01:44Z</time>
      </trkpt>
      <trkpt lat="45.38515" lon="5.73526">
        <ele>473.3</ele>
        <time>2016-05-21T06:01:46Z</time>
      </trkpt>
      <trkpt lat="45.38501" lon="5.73522">
        <ele>472.4</ele>
        <time>2016-05-21T06:01:49Z</time>
      </trkpt>
      <trkpt lat="45.3849" lon="5.73522">
        <ele>471.9</ele>
        <time>2016-05-21T06:01:51Z</time>
      </trkpt>
      <trkpt lat="45.38481" lon="5.7352">
        <ele>471.5</ele>
        <time>2016-05-21T06:01:53Z</time>
      </trkpt>
      <trkpt lat="45.3847" lon="5.73518">
        <ele>470.9</ele>
        <time>2016-05-21T06:01:55Z</time>
      </trkpt>
      <trkpt lat="45.38454" lon="5.73521">
        <ele>470.3</ele>
        <time>2016-05-21T06:01:58Z</time>
      </trkpt>
      <trkpt lat="45.38444" lon="5.7352">
        <ele>470.4</ele>
        <time>2016-05-21T06:02:00Z</time>
      </trkpt>
      <trkpt lat="45.38429" lon="5.73523">
        <ele>470.5</ele>
        <time>2016-05-21T06:02:03Z</time>
      </trkpt>
      <trkpt lat="45.38421" lon="5.7352">
        <ele>470.7</ele>
        <time>2016-05-21T06:02:05Z</time>
      </trkpt>
      <trkpt lat="45.38411" lon="5.7352">
        <ele>471.1</ele>
        <time>2016-05-21T06:02:07Z</time>
      </trkpt>
      <trkpt lat="45.38402" lon="5.73521">
        <ele>471.3</ele>
        <time>2016-05-21T06:02:09Z</time>
      </trkpt>
      <trkpt lat="45.38386" lon="5.73522">
        <ele>472.5</ele>
        <time>2016-05-21T06:02:12Z</time>
      </trkpt>
      <trkpt lat="45.38375" lon="5.73522">
        <ele>470.3</ele>
        <time>2016-05-21T06:02:14Z</time>
      </trkpt>
      <trkpt lat="45.38356" lon="5.73522">
        <ele>466.4</ele>
        <time>2016-05-21T06:02:17Z</time>
      </trkpt>
      <trkpt lat="45.38344" lon="5.73522">
        <ele>464.9</ele>
        <time>2016-05-21T06:02:19Z</time>
      </trkpt>
      <trkpt lat="45.38335" lon="5.73522">
        <ele>464.2</ele>
        <time>2016-05-21T06:02:21Z</time>
      </trkpt>
      <trkpt lat="45.38324" lon="5.73521">
        <ele>464.6</ele>
        <time>2016-05-21T06:02:24Z</time>
      </trkpt>
      <trkpt lat="45.38313" lon="5.7352">
        <ele>465.7</ele>
        <time>2016-05-21T06:02:27Z</time>
      </trkpt>
      <trkpt lat="45.38304" lon="5.7352">
        <ele>467.4</ele>
        <time>2016-05-21T06:02:29Z</time>
      </trkpt>
      <trkpt lat="45.38294" lon="5.73522">
        <ele>468.7</ele>
        <time>2016-05-21T06:02:31Z</time>
      </trkpt>
      <trkpt lat="45.38284" lon="5.73523">
        <ele>470.4</ele>
        <time>2016-05-21T06:02:33Z</time>
      </trkpt>
      <trkpt lat="45.38273" lon="5.73524">
        <ele>471.9</ele>
        <time>2016-05-21T06:02:35Z</time>
      </trkpt>
      <trkpt lat="45.38262" lon="5.73529">
        <ele>473.2</ele>
        <time>2016-05-21T06:02:37Z</time>
      </trkpt>
      <trkpt lat="45.38251" lon="5.73533">
        <ele>474.5</ele>
        <time>2016-05-21T06:02:39Z</time>
      </trkpt>
      <trkpt lat="45.3824" lon="5.73537">
        <ele>475.6</ele>
        <time>2016-05-21T06:02:41Z</time>
      </trkpt>
      <trkpt lat="45.38229" lon="5.73542">
        <ele>476.5</ele>
        <time>2016-05-21T06:02:43Z</time>
      </trkpt>
      <trkpt lat="45.38218" lon="5.73546">
        <ele>477.5</ele>
        <time>2016-05-21T06:02:45Z</time>
      </trkpt>
      <trkpt lat="45.38208" lon="5.73548">
        <ele>478.3</ele>
        <time>2016-05-21T06:02:47Z</time>
      </trkpt>
      <trkpt lat="45.38198" lon="5.73551">
        <ele>478.5</ele>
        <time>2016-05-21T06:02:49Z</time>
      </trkpt>
      <trkpt lat="45.38188" lon="5.73556">
        <ele>478</ele>
        <time>2016-05-21T06:02:51Z</time>
      </trkpt>
      <trkpt lat="45.38178" lon="5.7356">
        <ele>477.8</ele>
        <time>2016-05-21T06:02:53Z</time>
      </trkpt>
      <trkpt lat="45.38168" lon="5.73565">
        <ele>478.6</ele>
        <time>2016-05-21T06:02:55Z</time>
      </trkpt>
      <trkpt lat="45.38157" lon="5.7357">
        <ele>478.1</ele>
        <time>2016-05-21T06:02:57Z</time>
      </trkpt>
      <trkpt lat="45.38136" lon="5.73583">
        <ele>476.8</ele>
        <time>2016-05-21T06:03:01Z</time>
      </trkpt>
      <trkpt lat="45.38126" lon="5.73593">
        <ele>475.3</ele>
        <time>2016-05-21T06:03:03Z</time>
      </trkpt>
      <trkpt lat="45.38119" lon="5.73599">
        <ele>474.8</ele>
        <time>2016-05-21T06:03:04Z</time>
      </trkpt>
      <trkpt lat="45.38099" lon="5.73623">
        <ele>474.1</ele>
        <time>2016-05-21T06:03:08Z</time>
      </trkpt>
      <trkpt lat="45.38092" lon="5.73635">
        <ele>474.1</ele>
        <time>2016-05-21T06:03:10Z</time>
      </trkpt>
      <trkpt lat="45.38085" lon="5.73645">
        <ele>475.4</ele>
        <time>2016-05-21T06:03:12Z</time>
      </trkpt>
      <trkpt lat="45.38079" lon="5.73658">
        <ele>478.2</ele>
        <time>2016-05-21T06:03:14Z</time>
      </trkpt>
      <trkpt lat="45.38073" lon="5.7367">
        <ele>480.2</ele>
        <time>2016-05-21T06:03:16Z</time>
      </trkpt>
      <trkpt lat="45.38065" lon="5.73683">
        <ele>481.4</ele>
        <time>2016-05-21T06:03:18Z</time>
      </trkpt>
      <trkpt lat="45.38058" lon="5.73696">
        <ele>482.6</ele>
        <time>2016-05-21T06:03:20Z</time>
      </trkpt>
      <trkpt lat="45.38051" lon="5.73709">
        <ele>484.5</ele>
        <time>2016-05-21T06:03:22Z</time>
      </trkpt>
      <trkpt lat="45.38045" lon="5.73722">
        <ele>486.4</ele>
        <time>2016-05-21T06:03:24Z</time>
      </trkpt>
      <trkpt lat="45.38039" lon="5.73734">
        <ele>487.7</ele>
        <time>2016-05-21T06:03:26Z</time>
      </trkpt>
      <trkpt lat="45.38032" lon="5.73747">
        <ele>488.4</ele>
        <time>2016-05-21T06:03:28Z</time>
      </trkpt>
      <trkpt lat="45.38026" lon="5.73759">
        <ele>488.7</ele>
        <time>2016-05-21T06:03:30Z</time>
      </trkpt>
      <trkpt lat="45.3802" lon="5.73771">
        <ele>490.1</ele>
        <time>2016-05-21T06:03:32Z</time>
      </trkpt>
      <trkpt lat="45.38011" lon="5.73781">
        <ele>490.8</ele>
        <time>2016-05-21T06:03:34Z</time>
      </trkpt>
      <trkpt lat="45.38002" lon="5.73792">
        <ele>489.3</ele>
        <time>2016-05-21T06:03:36Z</time>
      </trkpt>
      <trkpt lat="45.37993" lon="5.73805">
        <ele>488.6</ele>
        <time>2016-05-21T06:03:38Z</time>
      </trkpt>
      <trkpt lat="45.37988" lon="5.73812">
        <ele>487.9</ele>
        <time>2016-05-21T06:03:39Z</time>
      </trkpt>
      <trkpt lat="45.37977" lon="5.73825">
        <ele>486.4</ele>
        <time>2016-05-21T06:03:41Z</time>
      </trkpt>
      <trkpt lat="45.37969" lon="5.73838">
        <ele>484.5</ele>
        <time>2016-05-21T06:03:43Z</time>
      </trkpt>
      <trkpt lat="45.37962" lon="5.73852">
        <ele>483.2</ele>
        <time>2016-05-21T06:03:45Z</time>
      </trkpt>
      <trkpt lat="45.37957" lon="5.73867">
        <ele>483.2</ele>
        <time>2016-05-21T06:03:47Z</time>
      </trkpt>
      <trkpt lat="45.37953" lon="5.73885">
        <ele>484</ele>
        <time>2016-05-21T06:03:49Z</time>
      </trkpt>
      <trkpt lat="45.37951" lon="5.73902">
        <ele>485</ele>
        <time>2016-05-21T06:03:51Z</time>
      </trkpt>
      <trkpt lat="45.37949" lon="5.73916">
        <ele>486.3</ele>
        <time>2016-05-21T06:03:53Z</time>
      </trkpt>
      <trkpt lat="45.37946" lon="5.73931">
        <ele>487.6</ele>
        <time>2016-05-21T06:03:55Z</time>
      </trkpt>
      <trkpt lat="45.37943" lon="5.73946">
        <ele>488.8</ele>
        <time>2016-05-21T06:03:57Z</time>
      </trkpt>
      <trkpt lat="45.3794" lon="5.7396">
        <ele>490.4</ele>
        <time>2016-05-21T06:03:59Z</time>
      </trkpt>
      <trkpt lat="45.37933" lon="5.73973">
        <ele>491.7</ele>
        <time>2016-05-21T06:04:01Z</time>
      </trkpt>
      <trkpt lat="45.37925" lon="5.73986">
        <ele>491.8</ele>
        <time>2016-05-21T06:04:03Z</time>
      </trkpt>
      <trkpt lat="45.37918" lon="5.73998">
        <ele>491.6</ele>
        <time>2016-05-21T06:04:05Z</time>
      </trkpt>
      <trkpt lat="45.37912" lon="5.74012">
        <ele>492.5</ele>
        <time>2016-05-21T06:04:07Z</time>
      </trkpt>
      <trkpt lat="45.37905" lon="5.74026">
        <ele>494</ele>
        <time>2016-05-21T06:04:09Z</time>
      </trkpt>
      <trkpt lat="45.37898" lon="5.74041">
        <ele>495.1</ele>
        <time>2016-05-21T06:04:11Z</time>
      </trkpt>
      <trkpt lat="45.37893" lon="5.74058">
        <ele>495.3</ele>
        <time>2016-05-21T06:04:13Z</time>
      </trkpt>
      <trkpt lat="45.37888" lon="5.74074">
        <ele>494.3</ele>
        <time>2016-05-21T06:04:15Z</time>
      </trkpt>
      <trkpt lat="45.37884" lon="5.7409">
        <ele>493.1</ele>
        <time>2016-05-21T06:04:17Z</time>
      </trkpt>
      <trkpt lat="45.37879" lon="5.74105">
        <ele>494.3</ele>
        <time>2016-05-21T06:04:19Z</time>
      </trkpt>
      <trkpt lat="45.37877" lon="5.74122">
        <ele>496.7</ele>
        <time>2016-05-21T06:04:21Z</time>
      </trkpt>
      <trkpt lat="45.37872" lon="5.74137">
        <ele>498.4</ele>
        <time>2016-05-21T06:04:23Z</time>
      </trkpt>
      <trkpt lat="45.37871" lon="5.74154">
        <ele>498.8</ele>
        <time>2016-05-21T06:04:25Z</time>
      </trkpt>
      <trkpt lat="45.37872" lon="5.74171">
        <ele>498.7</ele>
        <time>2016-05-21T06:04:27Z</time>
      </trkpt>
      <trkpt lat="45.37874" lon="5.74189">
        <ele>498.6</ele>
        <time>2016-05-21T06:04:29Z</time>
      </trkpt>
      <trkpt lat="45.37877" lon="5.74206">
        <ele>498.4</ele>
        <time>2016-05-21T06:04:31Z</time>
      </trkpt>
      <trkpt lat="45.3788" lon="5.7422">
        <ele>498.9</ele>
        <time>2016-05-21T06:04:33Z</time>
      </trkpt>
      <trkpt lat="45.37884" lon="5.74236">
        <ele>498.2</ele>
        <time>2016-05-21T06:04:35Z</time>
      </trkpt>
      <trkpt lat="45.37892" lon="5.74252">
        <ele>498.2</ele>
        <time>2016-05-21T06:04:37Z</time>
      </trkpt>
      <trkpt lat="45.37899" lon="5.74267">
        <ele>498.1</ele>
        <time>2016-05-21T06:04:39Z</time>
      </trkpt>
      <trkpt lat="45.37904" lon="5.74283">
        <ele>496.9</ele>
        <time>2016-05-21T06:04:41Z</time>
      </trkpt>
      <trkpt lat="45.37908" lon="5.74299">
        <ele>495.7</ele>
        <time>2016-05-21T06:04:43Z</time>
      </trkpt>
      <trkpt lat="45.37915" lon="5.74314">
        <ele>494.6</ele>
        <time>2016-05-21T06:04:45Z</time>
      </trkpt>
      <trkpt lat="45.37922" lon="5.74328">
        <ele>493.8</ele>
        <time>2016-05-21T06:04:47Z</time>
      </trkpt>
      <trkpt lat="45.37929" lon="5.74342">
        <ele>493.2</ele>
        <time>2016-05-21T06:04:49Z</time>
      </trkpt>
      <trkpt lat="45.37937" lon="5.74356">
        <ele>492.5</ele>
        <time>2016-05-21T06:04:51Z</time>
      </trkpt>
      <trkpt lat="45.37944" lon="5.74369">
        <ele>491</ele>
        <time>2016-05-21T06:04:53Z</time>
      </trkpt>
      <trkpt lat="45.37951" lon="5.74382">
        <ele>490.1</ele>
        <time>2016-05-21T06:04:55Z</time>
      </trkpt>
      <trkpt lat="45.37957" lon="5.74395">
        <ele>488.9</ele>
        <time>2016-05-21T06:04:57Z</time>
      </trkpt>
      <trkpt lat="45.37963" lon="5.74407">
        <ele>487.3</ele>
        <time>2016-05-21T06:04:59Z</time>
      </trkpt>
      <trkpt lat="45.37966" lon="5.74418">
        <ele>487.2</ele>
        <time>2016-05-21T06:05:01Z</time>
      </trkpt>
      <trkpt lat="45.37968" lon="5.74431">
        <ele>486.1</ele>
        <time>2016-05-21T06:05:03Z</time>
      </trkpt>
      <trkpt lat="45.37967" lon="5.74445">
        <ele>486.4</ele>
        <time>2016-05-21T06:05:05Z</time>
      </trkpt>
      <trkpt lat="45.37966" lon="5.7446">
        <ele>487.1</ele>
        <time>2016-05-21T06:05:07Z</time>
      </trkpt>
      <trkpt lat="45.37964" lon="5.74473">
        <ele>488.1</ele>
        <time>2016-05-21T06:05:09Z</time>
      </trkpt>
      <trkpt lat="45.3796" lon="5.74486">
        <ele>489</ele>
        <time>2016-05-21T06:05:11Z</time>
      </trkpt>
      <trkpt lat="45.37955" lon="5.74498">
        <ele>490.5</ele>
        <time>2016-05-21T06:05:13Z</time>
      </trkpt>
      <trkpt lat="45.37953" lon="5.7451">
        <ele>491.2</ele>
        <time>2016-05-21T06:05:15Z</time>
      </trkpt>
      <trkpt lat="45.37949" lon="5.74524">
        <ele>491.3</ele>
        <time>2016-05-21T06:05:17Z</time>
      </trkpt>
      <trkpt lat="45.37946" lon="5.74536">
        <ele>491</ele>
        <time>2016-05-21T06:05:19Z</time>
      </trkpt>
      <trkpt lat="45.37946" lon="5.74548">
        <ele>490.3</ele>
        <time>2016-05-21T06:05:21Z</time>
      </trkpt>
      <trkpt lat="45.37945" lon="5.7456">
        <ele>489.7</ele>
        <time>2016-05-21T06:05:23Z</time>
      </trkpt>
      <trkpt lat="45.37948" lon="5.74572">
        <ele>489.7</ele>
        <time>2016-05-21T06:05:25Z</time>
      </trkpt>
      <trkpt lat="45.37951" lon="5.74585">
        <ele>490.1</ele>
        <time>2016-05-21T06:05:27Z</time>
      </trkpt>
      <trkpt lat="45.37952" lon="5.74597">
        <ele>491</ele>
        <time>2016-05-21T06:05:29Z</time>
      </trkpt>
      <trkpt lat="45.37952" lon="5.74609">
        <ele>491.7</ele>
        <time>2016-05-21T06:05:31Z</time>
      </trkpt>
      <trkpt lat="45.3795" lon="5.74621">
        <ele>491.9</ele>
        <time>2016-05-21T06:05:33Z</time>
      </trkpt>
      <trkpt lat="45.37949" lon="5.74634">
        <ele>492.3</ele>
        <time>2016-05-21T06:05:35Z</time>
      </trkpt>
      <trkpt lat="45.37946" lon="5.74646">
        <ele>493.5</ele>
        <time>2016-05-21T06:05:37Z</time>
      </trkpt>
      <trkpt lat="45.37943" lon="5.7466">
        <ele>494.4</ele>
        <time>2016-05-21T06:05:39Z</time>
      </trkpt>
      <trkpt lat="45.37938" lon="5.74672">
        <ele>494.5</ele>
        <time>2016-05-21T06:05:41Z</time>
      </trkpt>
      <trkpt lat="45.37933" lon="5.74682">
        <ele>494.2</ele>
        <time>2016-05-21T06:05:43Z</time>
      </trkpt>
      <trkpt lat="45.37929" lon="5.74691">
        <ele>492.8</ele>
        <time>2016-05-21T06:05:45Z</time>
      </trkpt>
      <trkpt lat="45.37922" lon="5.74702">
        <ele>490.8</ele>
        <time>2016-05-21T06:05:48Z</time>
      </trkpt>
      <trkpt lat="45.37917" lon="5.74711">
        <ele>492.6</ele>
        <time>2016-05-21T06:05:51Z</time>
      </trkpt>
      <trkpt lat="45.37911" lon="5.74718">
        <ele>494.7</ele>
        <time>2016-05-21T06:05:54Z</time>
      </trkpt>
      <trkpt lat="45.37901" lon="5.74722">
        <ele>497</ele>
        <time>2016-05-21T06:05:57Z</time>
      </trkpt>
      <trkpt lat="45.37893" lon="5.74725">
        <ele>497.2</ele>
        <time>2016-05-21T06:05:59Z</time>
      </trkpt>
      <trkpt lat="45.37885" lon="5.74729">
        <ele>497.1</ele>
        <time>2016-05-21T06:06:01Z</time>
      </trkpt>
      <trkpt lat="45.37878" lon="5.74729">
        <ele>497.7</ele>
        <time>2016-05-21T06:06:03Z</time>
      </trkpt>
      <trkpt lat="45.37869" lon="5.74729">
        <ele>498.5</ele>
        <time>2016-05-21T06:06:05Z</time>
      </trkpt>
      <trkpt lat="45.3786" lon="5.74729">
        <ele>499</ele>
        <time>2016-05-21T06:06:07Z</time>
      </trkpt>
      <trkpt lat="45.37851" lon="5.74729">
        <ele>500.8</ele>
        <time>2016-05-21T06:06:09Z</time>
      </trkpt>
      <trkpt lat="45.37843" lon="5.7473">
        <ele>502.9</ele>
        <time>2016-05-21T06:06:11Z</time>
      </trkpt>
      <trkpt lat="45.37835" lon="5.74732">
        <ele>504.4</ele>
        <time>2016-05-21T06:06:13Z</time>
      </trkpt>
      <trkpt lat="45.37827" lon="5.74734">
        <ele>506</ele>
        <time>2016-05-21T06:06:15Z</time>
      </trkpt>
      <trkpt lat="45.37818" lon="5.74738">
        <ele>506.9</ele>
        <time>2016-05-21T06:06:17Z</time>
      </trkpt>
      <trkpt lat="45.37806" lon="5.7474">
        <ele>507.4</ele>
        <time>2016-05-21T06:06:19Z</time>
      </trkpt>
      <trkpt lat="45.37799" lon="5.74744">
        <ele>508.1</ele>
        <time>2016-05-21T06:06:21Z</time>
      </trkpt>
      <trkpt lat="45.37789" lon="5.74749">
        <ele>510.5</ele>
        <time>2016-05-21T06:06:23Z</time>
      </trkpt>
      <trkpt lat="45.37781" lon="5.74751">
        <ele>513.2</ele>
        <time>2016-05-21T06:06:25Z</time>
      </trkpt>
      <trkpt lat="45.37771" lon="5.74755">
        <ele>515.5</ele>
        <time>2016-05-21T06:06:27Z</time>
      </trkpt>
      <trkpt lat="45.37763" lon="5.74761">
        <ele>517.6</ele>
        <time>2016-05-21T06:06:29Z</time>
      </trkpt>
      <trkpt lat="45.37756" lon="5.74765">
        <ele>518.2</ele>
        <time>2016-05-21T06:06:31Z</time>
      </trkpt>
      <trkpt lat="45.37536" lon="5.74915">
        <ele>510.4</ele>
        <time>2016-05-21T06:07:31Z</time>
      </trkpt>
      <trkpt lat="45.37529" lon="5.74927">
        <ele>510.8</ele>
        <time>2016-05-21T06:07:34Z</time>
      </trkpt>
      <trkpt lat="45.37519" lon="5.74932">
        <ele>511.2</ele>
        <time>2016-05-21T06:07:35Z</time>
      </trkpt>
      <trkpt lat="45.37508" lon="5.74937">
        <ele>511.8</ele>
        <time>2016-05-21T06:07:36Z</time>
      </trkpt>
      <trkpt lat="45.37495" lon="5.74942">
        <ele>512.4</ele>
        <time>2016-05-21T06:07:37Z</time>
      </trkpt>
      <trkpt lat="45.37486" lon="5.74947">
        <ele>513.1</ele>
        <time>2016-05-21T06:07:38Z</time>
      </trkpt>
      <trkpt lat="45.37477" lon="5.74954">
        <ele>514</ele>
        <time>2016-05-21T06:07:40Z</time>
      </trkpt>
      <trkpt lat="45.37472" lon="5.74963">
        <ele>514.8</ele>
        <time>2016-05-21T06:07:42Z</time>
      </trkpt>
      <trkpt lat="45.37466" lon="5.74972">
        <ele>515.4</ele>
        <time>2016-05-21T06:07:44Z</time>
      </trkpt>
      <trkpt lat="45.37461" lon="5.74981">
        <ele>515.7</ele>
        <time>2016-05-21T06:07:46Z</time>
      </trkpt>
      <trkpt lat="45.37454" lon="5.74987">
        <ele>516.1</ele>
        <time>2016-05-21T06:07:48Z</time>
      </trkpt>
      <trkpt lat="45.37448" lon="5.74993">
        <ele>515.8</ele>
        <time>2016-05-21T06:07:50Z</time>
      </trkpt>
      <trkpt lat="45.3744" lon="5.74999">
        <ele>515.9</ele>
        <time>2016-05-21T06:07:54Z</time>
      </trkpt>
      <trkpt lat="45.37431" lon="5.75001">
        <ele>517.7</ele>
        <time>2016-05-21T06:07:56Z</time>
      </trkpt>
      <trkpt lat="45.37424" lon="5.75004">
        <ele>519.6</ele>
        <time>2016-05-21T06:07:58Z</time>
      </trkpt>
      <trkpt lat="45.37415" lon="5.75006">
        <ele>521.9</ele>
        <time>2016-05-21T06:08:00Z</time>
      </trkpt>
      <trkpt lat="45.37408" lon="5.7501">
        <ele>523.7</ele>
        <time>2016-05-21T06:08:02Z</time>
      </trkpt>
      <trkpt lat="45.37395" lon="5.75014">
        <ele>525.9</ele>
        <time>2016-05-21T06:08:06Z</time>
      </trkpt>
      <trkpt lat="45.37376" lon="5.7502">
        <ele>525.9</ele>
        <time>2016-05-21T06:08:11Z</time>
      </trkpt>
      <trkpt lat="45.37335" lon="5.75017">
        <ele>524.7</ele>
        <time>2016-05-21T06:08:20Z</time>
      </trkpt>
      <trkpt lat="45.37307" lon="5.75005">
        <ele>520.6</ele>
        <time>2016-05-21T06:08:27Z</time>
      </trkpt>
      <trkpt lat="45.37295" lon="5.74998">
        <ele>519</ele>
        <time>2016-05-21T06:08:30Z</time>
      </trkpt>
      <trkpt lat="45.37288" lon="5.74992">
        <ele>518.9</ele>
        <time>2016-05-21T06:08:32Z</time>
      </trkpt>
      <trkpt lat="45.37279" lon="5.74989">
        <ele>518.7</ele>
        <time>2016-05-21T06:08:35Z</time>
      </trkpt>
      <trkpt lat="45.37268" lon="5.7499">
        <ele>516.5</ele>
        <time>2016-05-21T06:08:38Z</time>
      </trkpt>
      <trkpt lat="45.3726" lon="5.74993">
        <ele>514.7</ele>
        <time>2016-05-21T06:08:40Z</time>
      </trkpt>
      <trkpt lat="45.37253" lon="5.74994">
        <ele>514.3</ele>
        <time>2016-05-21T06:08:42Z</time>
      </trkpt>
      <trkpt lat="45.37244" lon="5.74995">
        <ele>514.2</ele>
        <time>2016-05-21T06:08:44Z</time>
      </trkpt>
      <trkpt lat="45.37237" lon="5.74995">
        <ele>514.2</ele>
        <time>2016-05-21T06:08:46Z</time>
      </trkpt>
      <trkpt lat="45.37228" lon="5.74994">
        <ele>514.4</ele>
        <time>2016-05-21T06:08:48Z</time>
      </trkpt>
      <trkpt lat="45.37221" lon="5.74993">
        <ele>514.4</ele>
        <time>2016-05-21T06:08:50Z</time>
      </trkpt>
      <trkpt lat="45.37211" lon="5.74992">
        <ele>514.4</ele>
        <time>2016-05-21T06:08:53Z</time>
      </trkpt>
      <trkpt lat="45.372" lon="5.74997">
        <ele>514.2</ele>
        <time>2016-05-21T06:08:55Z</time>
      </trkpt>
      <trkpt lat="45.37175" lon="5.75002">
        <ele>515.4</ele>
        <time>2016-05-21T06:09:01Z</time>
      </trkpt>
      <trkpt lat="45.37164" lon="5.75002">
        <ele>515.2</ele>
        <time>2016-05-21T06:09:04Z</time>
      </trkpt>
      <trkpt lat="45.37157" lon="5.75">
        <ele>515</ele>
        <time>2016-05-21T06:09:06Z</time>
      </trkpt>
      <trkpt lat="45.37149" lon="5.74997">
        <ele>515.2</ele>
        <time>2016-05-21T06:09:08Z</time>
      </trkpt>
      <trkpt lat="45.37142" lon="5.74993">
        <ele>515.2</ele>
        <time>2016-05-21T06:09:10Z</time>
      </trkpt>
      <trkpt lat="45.37132" lon="5.74988">
        <ele>515.2</ele>
        <time>2016-05-21T06:09:13Z</time>
      </trkpt>
      <trkpt lat="45.37117" lon="5.74981">
        <ele>514.8</ele>
        <time>2016-05-21T06:09:17Z</time>
      </trkpt>
      <trkpt lat="45.37084" lon="5.74956">
        <ele>514.5</ele>
        <time>2016-05-21T06:09:26Z</time>
      </trkpt>
      <trkpt lat="45.37077" lon="5.74948">
        <ele>514.8</ele>
        <time>2016-05-21T06:09:28Z</time>
      </trkpt>
      <trkpt lat="45.37061" lon="5.74935">
        <ele>517.2</ele>
        <time>2016-05-21T06:09:32Z</time>
      </trkpt>
      <trkpt lat="45.37058" lon="5.74925">
        <ele>521.4</ele>
        <time>2016-05-21T06:09:34Z</time>
      </trkpt>
      <trkpt lat="45.37048" lon="5.74915">
        <ele>526.6</ele>
        <time>2016-05-21T06:09:37Z</time>
      </trkpt>
      <trkpt lat="45.37038" lon="5.74909">
        <ele>529.3</ele>
        <time>2016-05-21T06:09:39Z</time>
      </trkpt>
      <trkpt lat="45.37029" lon="5.74907">
        <ele>531.1</ele>
        <time>2016-05-21T06:09:41Z</time>
      </trkpt>
      <trkpt lat="45.37003" lon="5.74909">
        <ele>535.4</ele>
        <time>2016-05-21T06:09:45Z</time>
      </trkpt>
      <trkpt lat="45.36986" lon="5.74913">
        <ele>537.8</ele>
        <time>2016-05-21T06:09:48Z</time>
      </trkpt>
      <trkpt lat="45.36979" lon="5.74916">
        <ele>538.2</ele>
        <time>2016-05-21T06:09:49Z</time>
      </trkpt>
      <trkpt lat="45.36972" lon="5.74919">
        <ele>538.8</ele>
        <time>2016-05-21T06:09:50Z</time>
      </trkpt>
      <trkpt lat="45.3696" lon="5.74925">
        <ele>540.3</ele>
        <time>2016-05-21T06:09:52Z</time>
      </trkpt>
      <trkpt lat="45.36932" lon="5.74938">
        <ele>542.3</ele>
        <time>2016-05-21T06:09:57Z</time>
      </trkpt>
      <trkpt lat="45.36921" lon="5.74942">
        <ele>542.9</ele>
        <time>2016-05-21T06:09:59Z</time>
      </trkpt>
      <trkpt lat="45.36909" lon="5.74946">
        <ele>543.5</ele>
        <time>2016-05-21T06:10:01Z</time>
      </trkpt>
      <trkpt lat="45.36897" lon="5.74949">
        <ele>544.7</ele>
        <time>2016-05-21T06:10:03Z</time>
      </trkpt>
      <trkpt lat="45.3689" lon="5.74951">
        <ele>544.8</ele>
        <time>2016-05-21T06:10:04Z</time>
      </trkpt>
      <trkpt lat="45.36882" lon="5.74954">
        <ele>544.6</ele>
        <time>2016-05-21T06:10:05Z</time>
      </trkpt>
      <trkpt lat="45.3687" lon="5.74958">
        <ele>544.5</ele>
        <time>2016-05-21T06:10:07Z</time>
      </trkpt>
      <trkpt lat="45.36858" lon="5.74962">
        <ele>544</ele>
        <time>2016-05-21T06:10:09Z</time>
      </trkpt>
      <trkpt lat="45.36846" lon="5.74964">
        <ele>543.3</ele>
        <time>2016-05-21T06:10:11Z</time>
      </trkpt>
      <trkpt lat="45.36832" lon="5.74968">
        <ele>543</ele>
        <time>2016-05-21T06:10:13Z</time>
      </trkpt>
      <trkpt lat="45.36824" lon="5.74971">
        <ele>542.9</ele>
        <time>2016-05-21T06:10:14Z</time>
      </trkpt>
      <trkpt lat="45.36814" lon="5.74975">
        <ele>542.6</ele>
        <time>2016-05-21T06:10:16Z</time>
      </trkpt>
      <trkpt lat="45.36805" lon="5.74979">
        <ele>543.4</ele>
        <time>2016-05-21T06:10:18Z</time>
      </trkpt>
      <trkpt lat="45.36794" lon="5.74985">
        <ele>541.9</ele>
        <time>2016-05-21T06:10:20Z</time>
      </trkpt>
      <trkpt lat="45.36785" lon="5.7499">
        <ele>541</ele>
        <time>2016-05-21T06:10:22Z</time>
      </trkpt>
      <trkpt lat="45.36778" lon="5.74995">
        <ele>542.6</ele>
        <time>2016-05-21T06:10:24Z</time>
      </trkpt>
      <trkpt lat="45.36771" lon="5.75004">
        <ele>543.9</ele>
        <time>2016-05-21T06:10:26Z</time>
      </trkpt>
      <trkpt lat="45.36761" lon="5.75011">
        <ele>544.8</ele>
        <time>2016-05-21T06:10:28Z</time>
      </trkpt>
      <trkpt lat="45.36753" lon="5.75016">
        <ele>545.6</ele>
        <time>2016-05-21T06:10:30Z</time>
      </trkpt>
      <trkpt lat="45.36743" lon="5.75022">
        <ele>545.5</ele>
        <time>2016-05-21T06:10:32Z</time>
      </trkpt>
      <trkpt lat="45.36735" lon="5.75028">
        <ele>545</ele>
        <time>2016-05-21T06:10:34Z</time>
      </trkpt>
      <trkpt lat="45.36726" lon="5.75036">
        <ele>543.7</ele>
        <time>2016-05-21T06:10:36Z</time>
      </trkpt>
      <trkpt lat="45.36718" lon="5.75045">
        <ele>541.9</ele>
        <time>2016-05-21T06:10:38Z</time>
      </trkpt>
      <trkpt lat="45.36711" lon="5.75055">
        <ele>540.6</ele>
        <time>2016-05-21T06:10:40Z</time>
      </trkpt>
      <trkpt lat="45.36702" lon="5.75063">
        <ele>540.4</ele>
        <time>2016-05-21T06:10:42Z</time>
      </trkpt>
      <trkpt lat="45.36692" lon="5.75068">
        <ele>540.4</ele>
        <time>2016-05-21T06:10:44Z</time>
      </trkpt>
      <trkpt lat="45.36681" lon="5.7507">
        <ele>541</ele>
        <time>2016-05-21T06:10:46Z</time>
      </trkpt>
      <trkpt lat="45.36666" lon="5.75075">
        <ele>542.1</ele>
        <time>2016-05-21T06:10:48Z</time>
      </trkpt>
      <trkpt lat="45.36657" lon="5.7508">
        <ele>542.7</ele>
        <time>2016-05-21T06:10:49Z</time>
      </trkpt>
      <trkpt lat="45.36636" lon="5.75076">
        <ele>545</ele>
        <time>2016-05-21T06:10:53Z</time>
      </trkpt>
      <trkpt lat="45.36625" lon="5.75077">
        <ele>547.6</ele>
        <time>2016-05-21T06:10:55Z</time>
      </trkpt>
      <trkpt lat="45.36612" lon="5.75083">
        <ele>549.7</ele>
        <time>2016-05-21T06:10:57Z</time>
      </trkpt>
      <trkpt lat="45.36604" lon="5.75087">
        <ele>550.6</ele>
        <time>2016-05-21T06:10:58Z</time>
      </trkpt>
      <trkpt lat="45.36588" lon="5.75097">
        <ele>551.5</ele>
        <time>2016-05-21T06:11:01Z</time>
      </trkpt>
      <trkpt lat="45.36579" lon="5.75104">
        <ele>551.6</ele>
        <time>2016-05-21T06:11:02Z</time>
      </trkpt>
      <trkpt lat="45.36572" lon="5.75109">
        <ele>551.7</ele>
        <time>2016-05-21T06:11:03Z</time>
      </trkpt>
      <trkpt lat="45.36566" lon="5.75113">
        <ele>551.6</ele>
        <time>2016-05-21T06:11:04Z</time>
      </trkpt>
      <trkpt lat="45.36556" lon="5.75119">
        <ele>551.5</ele>
        <time>2016-05-21T06:11:05Z</time>
      </trkpt>
      <trkpt lat="45.36546" lon="5.75125">
        <ele>551.4</ele>
        <time>2016-05-21T06:11:06Z</time>
      </trkpt>
      <trkpt lat="45.36536" lon="5.75134">
        <ele>550.3</ele>
        <time>2016-05-21T06:11:08Z</time>
      </trkpt>
      <trkpt lat="45.36538" lon="5.75146">
        <ele>549.8</ele>
        <time>2016-05-21T06:11:10Z</time>
      </trkpt>
      <trkpt lat="45.36538" lon="5.75159">
        <ele>550.6</ele>
        <time>2016-05-21T06:11:12Z</time>
      </trkpt>
      <trkpt lat="45.36538" lon="5.75172">
        <ele>551.9</ele>
        <time>2016-05-21T06:11:14Z</time>
      </trkpt>
      <trkpt lat="45.36537" lon="5.75184">
        <ele>552.6</ele>
        <time>2016-05-21T06:11:16Z</time>
      </trkpt>
      <trkpt lat="45.36535" lon="5.75197">
        <ele>554.1</ele>
        <time>2016-05-21T06:11:18Z</time>
      </trkpt>
      <trkpt lat="45.36534" lon="5.75211">
        <ele>553.6</ele>
        <time>2016-05-21T06:11:20Z</time>
      </trkpt>
      <trkpt lat="45.36532" lon="5.75225">
        <ele>552.5</ele>
        <time>2016-05-21T06:11:22Z</time>
      </trkpt>
      <trkpt lat="45.36529" lon="5.75239">
        <ele>551.8</ele>
        <time>2016-05-21T06:11:24Z</time>
      </trkpt>
      <trkpt lat="45.36527" lon="5.75252">
        <ele>551.8</ele>
        <time>2016-05-21T06:11:26Z</time>
      </trkpt>
      <trkpt lat="45.36523" lon="5.75262">
        <ele>552.4</ele>
        <time>2016-05-21T06:11:28Z</time>
      </trkpt>
      <trkpt lat="45.36517" lon="5.75271">
        <ele>553.3</ele>
        <time>2016-05-21T06:11:30Z</time>
      </trkpt>
      <trkpt lat="45.36509" lon="5.75279">
        <ele>553.5</ele>
        <time>2016-05-21T06:11:32Z</time>
      </trkpt>
      <trkpt lat="45.36502" lon="5.75287">
        <ele>551.2</ele>
        <time>2016-05-21T06:11:34Z</time>
      </trkpt>
      <trkpt lat="45.36494" lon="5.75291">
        <ele>549.3</ele>
        <time>2016-05-21T06:11:36Z</time>
      </trkpt>
      <trkpt lat="45.36484" lon="5.7529">
        <ele>548</ele>
        <time>2016-05-21T06:11:38Z</time>
      </trkpt>
      <trkpt lat="45.36475" lon="5.7529">
        <ele>547.1</ele>
        <time>2016-05-21T06:11:40Z</time>
      </trkpt>
      <trkpt lat="45.36466" lon="5.7529">
        <ele>546.4</ele>
        <time>2016-05-21T06:11:42Z</time>
      </trkpt>
      <trkpt lat="45.36457" lon="5.75292">
        <ele>546.8</ele>
        <time>2016-05-21T06:11:44Z</time>
      </trkpt>
      <trkpt lat="45.36449" lon="5.75294">
        <ele>547.4</ele>
        <time>2016-05-21T06:11:46Z</time>
      </trkpt>
      <trkpt lat="45.36442" lon="5.75298">
        <ele>547.5</ele>
        <time>2016-05-21T06:11:48Z</time>
      </trkpt>
      <trkpt lat="45.3643" lon="5.75307">
        <ele>548</ele>
        <time>2016-05-21T06:11:50Z</time>
      </trkpt>
      <trkpt lat="45.36421" lon="5.75316">
        <ele>549.2</ele>
        <time>2016-05-21T06:11:52Z</time>
      </trkpt>
      <trkpt lat="45.36411" lon="5.75321">
        <ele>550.6</ele>
        <time>2016-05-21T06:11:54Z</time>
      </trkpt>
      <trkpt lat="45.36401" lon="5.75326">
        <ele>551.3</ele>
        <time>2016-05-21T06:11:56Z</time>
      </trkpt>
      <trkpt lat="45.3639" lon="5.75333">
        <ele>553.2</ele>
        <time>2016-05-21T06:11:58Z</time>
      </trkpt>
      <trkpt lat="45.36381" lon="5.7534">
        <ele>554.7</ele>
        <time>2016-05-21T06:12:00Z</time>
      </trkpt>
      <trkpt lat="45.36372" lon="5.75349">
        <ele>556.2</ele>
        <time>2016-05-21T06:12:02Z</time>
      </trkpt>
      <trkpt lat="45.36363" lon="5.75358">
        <ele>558.2</ele>
        <time>2016-05-21T06:12:04Z</time>
      </trkpt>
      <trkpt lat="45.36355" lon="5.75367">
        <ele>559.4</ele>
        <time>2016-05-21T06:12:06Z</time>
      </trkpt>
      <trkpt lat="45.36346" lon="5.75376">
        <ele>560.6</ele>
        <time>2016-05-21T06:12:08Z</time>
      </trkpt>
      <trkpt lat="45.36337" lon="5.75383">
        <ele>558.8</ele>
        <time>2016-05-21T06:12:10Z</time>
      </trkpt>
      <trkpt lat="45.36328" lon="5.75388">
        <ele>556.4</ele>
        <time>2016-05-21T06:12:12Z</time>
      </trkpt>
      <trkpt lat="45.36318" lon="5.75388">
        <ele>555.1</ele>
        <time>2016-05-21T06:12:14Z</time>
      </trkpt>
      <trkpt lat="45.36307" lon="5.75388">
        <ele>554</ele>
        <time>2016-05-21T06:12:16Z</time>
      </trkpt>
      <trkpt lat="45.36298" lon="5.75388">
        <ele>553.1</ele>
        <time>2016-05-21T06:12:18Z</time>
      </trkpt>
      <trkpt lat="45.36288" lon="5.75387">
        <ele>552.9</ele>
        <time>2016-05-21T06:12:20Z</time>
      </trkpt>
      <trkpt lat="45.36278" lon="5.75387">
        <ele>553.9</ele>
        <time>2016-05-21T06:12:22Z</time>
      </trkpt>
      <trkpt lat="45.36268" lon="5.75388">
        <ele>554.5</ele>
        <time>2016-05-21T06:12:25Z</time>
      </trkpt>
      <trkpt lat="45.3626" lon="5.75389">
        <ele>555.6</ele>
        <time>2016-05-21T06:12:27Z</time>
      </trkpt>
      <trkpt lat="45.36252" lon="5.75392">
        <ele>555.7</ele>
        <time>2016-05-21T06:12:30Z</time>
      </trkpt>
      <trkpt lat="45.36243" lon="5.75392">
        <ele>556.2</ele>
        <time>2016-05-21T06:12:33Z</time>
      </trkpt>
      <trkpt lat="45.36234" lon="5.75395">
        <ele>559</ele>
        <time>2016-05-21T06:12:36Z</time>
      </trkpt>
      <trkpt lat="45.36227" lon="5.75399">
        <ele>563.2</ele>
        <time>2016-05-21T06:12:38Z</time>
      </trkpt>
      <trkpt lat="45.36217" lon="5.75404">
        <ele>565.1</ele>
        <time>2016-05-21T06:12:41Z</time>
      </trkpt>
      <trkpt lat="45.36207" lon="5.75408">
        <ele>565.6</ele>
        <time>2016-05-21T06:12:44Z</time>
      </trkpt>
      <trkpt lat="45.36197" lon="5.75411">
        <ele>566.1</ele>
        <time>2016-05-21T06:12:47Z</time>
      </trkpt>
      <trkpt lat="45.36189" lon="5.75412">
        <ele>566.5</ele>
        <time>2016-05-21T06:12:49Z</time>
      </trkpt>
      <trkpt lat="45.3618" lon="5.75412">
        <ele>567.2</ele>
        <time>2016-05-21T06:12:52Z</time>
      </trkpt>
      <trkpt lat="45.36169" lon="5.75411">
        <ele>567.9</ele>
        <time>2016-05-21T06:12:55Z</time>
      </trkpt>
      <trkpt lat="45.36159" lon="5.75411">
        <ele>568.7</ele>
        <time>2016-05-21T06:12:58Z</time>
      </trkpt>
      <trkpt lat="45.36151" lon="5.75409">
        <ele>574.4</ele>
        <time>2016-05-21T06:13:00Z</time>
      </trkpt>
      <trkpt lat="45.36142" lon="5.75407">
        <ele>575</ele>
        <time>2016-05-21T06:13:03Z</time>
      </trkpt>
      <trkpt lat="45.36133" lon="5.75404">
        <ele>577.6</ele>
        <time>2016-05-21T06:13:06Z</time>
      </trkpt>
      <trkpt lat="45.36124" lon="5.75402">
        <ele>578.2</ele>
        <time>2016-05-21T06:13:09Z</time>
      </trkpt>
      <trkpt lat="45.36116" lon="5.75405">
        <ele>578.9</ele>
        <time>2016-05-21T06:13:12Z</time>
      </trkpt>
      <trkpt lat="45.36106" lon="5.75408">
        <ele>579.4</ele>
        <time>2016-05-21T06:13:15Z</time>
      </trkpt>
      <trkpt lat="45.36098" lon="5.7541">
        <ele>580.2</ele>
        <time>2016-05-21T06:13:19Z</time>
      </trkpt>
      <trkpt lat="45.36088" lon="5.75415">
        <ele>582.2</ele>
        <time>2016-05-21T06:13:22Z</time>
      </trkpt>
      <trkpt lat="45.36081" lon="5.75418">
        <ele>582.3</ele>
        <time>2016-05-21T06:13:24Z</time>
      </trkpt>
      <trkpt lat="45.36071" lon="5.75421">
        <ele>582.3</ele>
        <time>2016-05-21T06:13:27Z</time>
      </trkpt>
      <trkpt lat="45.36063" lon="5.75424">
        <ele>582.8</ele>
        <time>2016-05-21T06:13:29Z</time>
      </trkpt>
      <trkpt lat="45.36056" lon="5.75426">
        <ele>582.9</ele>
        <time>2016-05-21T06:13:31Z</time>
      </trkpt>
      <trkpt lat="45.36048" lon="5.75427">
        <ele>583.2</ele>
        <time>2016-05-21T06:13:33Z</time>
      </trkpt>
      <trkpt lat="45.36038" lon="5.75429">
        <ele>583.8</ele>
        <time>2016-05-21T06:13:36Z</time>
      </trkpt>
      <trkpt lat="45.36028" lon="5.7543">
        <ele>586.7</ele>
        <time>2016-05-21T06:13:39Z</time>
      </trkpt>
      <trkpt lat="45.36021" lon="5.75433">
        <ele>587.2</ele>
        <time>2016-05-21T06:13:41Z</time>
      </trkpt>
      <trkpt lat="45.36011" lon="5.75436">
        <ele>590.9</ele>
        <time>2016-05-21T06:13:44Z</time>
      </trkpt>
      <trkpt lat="45.36002" lon="5.7544">
        <ele>592</ele>
        <time>2016-05-21T06:13:47Z</time>
      </trkpt>
      <trkpt lat="45.35993" lon="5.75446">
        <ele>592.9</ele>
        <time>2016-05-21T06:13:50Z</time>
      </trkpt>
      <trkpt lat="45.35986" lon="5.7545">
        <ele>593.9</ele>
        <time>2016-05-21T06:13:53Z</time>
      </trkpt>
      <trkpt lat="45.35976" lon="5.75455">
        <ele>594.6</ele>
        <time>2016-05-21T06:13:56Z</time>
      </trkpt>
      <trkpt lat="45.35969" lon="5.7546">
        <ele>595.5</ele>
        <time>2016-05-21T06:13:59Z</time>
      </trkpt>
      <trkpt lat="45.3596" lon="5.75466">
        <ele>596.3</ele>
        <time>2016-05-21T06:14:02Z</time>
      </trkpt>
      <trkpt lat="45.35952" lon="5.7547">
        <ele>597</ele>
        <time>2016-05-21T06:14:05Z</time>
      </trkpt>
      <trkpt lat="45.35948" lon="5.75483">
        <ele>600</ele>
        <time>2016-05-21T06:14:08Z</time>
      </trkpt>
      <trkpt lat="45.35944" lon="5.75493">
        <ele>602.2</ele>
        <time>2016-05-21T06:14:10Z</time>
      </trkpt>
      <trkpt lat="45.35936" lon="5.75497">
        <ele>602.4</ele>
        <time>2016-05-21T06:14:12Z</time>
      </trkpt>
      <trkpt lat="45.35929" lon="5.75501">
        <ele>602.4</ele>
        <time>2016-05-21T06:14:14Z</time>
      </trkpt>
      <trkpt lat="45.35919" lon="5.75506">
        <ele>601.7</ele>
        <time>2016-05-21T06:14:17Z</time>
      </trkpt>
      <trkpt lat="45.35911" lon="5.75512">
        <ele>601.6</ele>
        <time>2016-05-21T06:14:20Z</time>
      </trkpt>
      <trkpt lat="45.35903" lon="5.75519">
        <ele>601.4</ele>
        <time>2016-05-21T06:14:23Z</time>
      </trkpt>
      <trkpt lat="45.35895" lon="5.75524">
        <ele>601.2</ele>
        <time>2016-05-21T06:14:26Z</time>
      </trkpt>
      <trkpt lat="45.35886" lon="5.75528">
        <ele>601</ele>
        <time>2016-05-21T06:14:29Z</time>
      </trkpt>
      <trkpt lat="45.35878" lon="5.75534">
        <ele>601</ele>
        <time>2016-05-21T06:14:32Z</time>
      </trkpt>
      <trkpt lat="45.35871" lon="5.75538">
        <ele>601</ele>
        <time>2016-05-21T06:14:34Z</time>
      </trkpt>
      <trkpt lat="45.35864" lon="5.75542">
        <ele>601.4</ele>
        <time>2016-05-21T06:14:36Z</time>
      </trkpt>
      <trkpt lat="45.35855" lon="5.75547">
        <ele>601.7</ele>
        <time>2016-05-21T06:14:39Z</time>
      </trkpt>
      <trkpt lat="45.35847" lon="5.75552">
        <ele>602.1</ele>
        <time>2016-05-21T06:14:42Z</time>
      </trkpt>
      <trkpt lat="45.35839" lon="5.7556">
        <ele>602.4</ele>
        <time>2016-05-21T06:14:45Z</time>
      </trkpt>
      <trkpt lat="45.35833" lon="5.7557">
        <ele>602.8</ele>
        <time>2016-05-21T06:14:48Z</time>
      </trkpt>
      <trkpt lat="45.35826" lon="5.7558">
        <ele>603.1</ele>
        <time>2016-05-21T06:14:51Z</time>
      </trkpt>
      <trkpt lat="45.3582" lon="5.7559">
        <ele>603.3</ele>
        <time>2016-05-21T06:14:54Z</time>
      </trkpt>
      <trkpt lat="45.35814" lon="5.756">
        <ele>603.8</ele>
        <time>2016-05-21T06:14:57Z</time>
      </trkpt>
      <trkpt lat="45.35808" lon="5.75608">
        <ele>604.4</ele>
        <time>2016-05-21T06:15:00Z</time>
      </trkpt>
      <trkpt lat="45.35803" lon="5.75616">
        <ele>605</ele>
        <time>2016-05-21T06:15:03Z</time>
      </trkpt>
      <trkpt lat="45.35798" lon="5.75626">
        <ele>605.4</ele>
        <time>2016-05-21T06:15:06Z</time>
      </trkpt>
      <trkpt lat="45.35791" lon="5.75635">
        <ele>605.8</ele>
        <time>2016-05-21T06:15:09Z</time>
      </trkpt>
      <trkpt lat="45.35784" lon="5.75642">
        <ele>606</ele>
        <time>2016-05-21T06:15:12Z</time>
      </trkpt>
      <trkpt lat="45.35776" lon="5.75651">
        <ele>606.1</ele>
        <time>2016-05-21T06:15:15Z</time>
      </trkpt>
      <trkpt lat="45.35768" lon="5.75654">
        <ele>606.2</ele>
        <time>2016-05-21T06:15:18Z</time>
      </trkpt>
      <trkpt lat="45.35761" lon="5.75652">
        <ele>606.2</ele>
        <time>2016-05-21T06:15:21Z</time>
      </trkpt>
      <trkpt lat="45.35754" lon="5.75645">
        <ele>606.4</ele>
        <time>2016-05-21T06:15:25Z</time>
      </trkpt>
      <trkpt lat="45.35746" lon="5.75639">
        <ele>606.6</ele>
        <time>2016-05-21T06:15:30Z</time>
      </trkpt>
      <trkpt lat="45.35739" lon="5.75633">
        <ele>606.8</ele>
        <time>2016-05-21T06:15:36Z</time>
      </trkpt>
      <trkpt lat="45.3573" lon="5.75643">
        <ele>605.8</ele>
        <time>2016-05-21T06:15:46Z</time>
      </trkpt>
      <trkpt lat="45.35708" lon="5.75651">
        <ele>604.7</ele>
        <time>2016-05-21T06:15:52Z</time>
      </trkpt>
      <trkpt lat="45.357" lon="5.7565">
        <ele>604.8</ele>
        <time>2016-05-21T06:15:53Z</time>
      </trkpt>
      <trkpt lat="45.35687" lon="5.75652">
        <ele>606.7</ele>
        <time>2016-05-21T06:15:55Z</time>
      </trkpt>
      <trkpt lat="45.35677" lon="5.75656">
        <ele>607.2</ele>
        <time>2016-05-21T06:15:57Z</time>
      </trkpt>
      <trkpt lat="45.35669" lon="5.75661">
        <ele>610</ele>
        <time>2016-05-21T06:15:58Z</time>
      </trkpt>
      <trkpt lat="45.3566" lon="5.75663">
        <ele>610.4</ele>
        <time>2016-05-21T06:16:00Z</time>
      </trkpt>
      <trkpt lat="45.3565" lon="5.75665">
        <ele>610.9</ele>
        <time>2016-05-21T06:16:02Z</time>
      </trkpt>
      <trkpt lat="45.35643" lon="5.75667">
        <ele>611.5</ele>
        <time>2016-05-21T06:16:04Z</time>
      </trkpt>
      <trkpt lat="45.35634" lon="5.75667">
        <ele>612</ele>
        <time>2016-05-21T06:16:06Z</time>
      </trkpt>
      <trkpt lat="45.35625" lon="5.75673">
        <ele>614.4</ele>
        <time>2016-05-21T06:16:08Z</time>
      </trkpt>
      <trkpt lat="45.35615" lon="5.7568">
        <ele>617.6</ele>
        <time>2016-05-21T06:16:10Z</time>
      </trkpt>
      <trkpt lat="45.35608" lon="5.75683">
        <ele>617.8</ele>
        <time>2016-05-21T06:16:12Z</time>
      </trkpt>
      <trkpt lat="45.35599" lon="5.75684">
        <ele>618.7</ele>
        <time>2016-05-21T06:16:16Z</time>
      </trkpt>
      <trkpt lat="45.3559" lon="5.75682">
        <ele>619.4</ele>
        <time>2016-05-21T06:16:19Z</time>
      </trkpt>
      <trkpt lat="45.35582" lon="5.7568">
        <ele>619.9</ele>
        <time>2016-05-21T06:16:21Z</time>
      </trkpt>
      <trkpt lat="45.35575" lon="5.75677">
        <ele>620.4</ele>
        <time>2016-05-21T06:16:23Z</time>
      </trkpt>
      <trkpt lat="45.35567" lon="5.75672">
        <ele>620.9</ele>
        <time>2016-05-21T06:16:26Z</time>
      </trkpt>
      <trkpt lat="45.3556" lon="5.75667">
        <ele>621.4</ele>
        <time>2016-05-21T06:16:29Z</time>
      </trkpt>
      <trkpt lat="45.3555" lon="5.75664">
        <ele>624.5</ele>
        <time>2016-05-21T06:16:32Z</time>
      </trkpt>
      <trkpt lat="45.35541" lon="5.75665">
        <ele>625.8</ele>
        <time>2016-05-21T06:16:34Z</time>
      </trkpt>
      <trkpt lat="45.3553" lon="5.75662">
        <ele>627.2</ele>
        <time>2016-05-21T06:16:37Z</time>
      </trkpt>
      <trkpt lat="45.35523" lon="5.75659">
        <ele>627.7</ele>
        <time>2016-05-21T06:16:41Z</time>
      </trkpt>
      <trkpt lat="45.35514" lon="5.75655">
        <ele>628.2</ele>
        <time>2016-05-21T06:16:44Z</time>
      </trkpt>
      <trkpt lat="45.35504" lon="5.75658">
        <ele>628.9</ele>
        <time>2016-05-21T06:16:48Z</time>
      </trkpt>
      <trkpt lat="45.35495" lon="5.75665">
        <ele>629.2</ele>
        <time>2016-05-21T06:16:50Z</time>
      </trkpt>
      <trkpt lat="45.35487" lon="5.75668">
        <ele>629.6</ele>
        <time>2016-05-21T06:16:52Z</time>
      </trkpt>
      <trkpt lat="45.35478" lon="5.75675">
        <ele>631.8</ele>
        <time>2016-05-21T06:16:54Z</time>
      </trkpt>
      <trkpt lat="45.35471" lon="5.75685">
        <ele>634</ele>
        <time>2016-05-21T06:16:56Z</time>
      </trkpt>
      <trkpt lat="45.35466" lon="5.75695">
        <ele>636.5</ele>
        <time>2016-05-21T06:16:58Z</time>
      </trkpt>
      <trkpt lat="45.35461" lon="5.75703">
        <ele>637.8</ele>
        <time>2016-05-21T06:17:00Z</time>
      </trkpt>
      <trkpt lat="45.35457" lon="5.75713">
        <ele>638.1</ele>
        <time>2016-05-21T06:17:02Z</time>
      </trkpt>
      <trkpt lat="45.35455" lon="5.75723">
        <ele>638</ele>
        <time>2016-05-21T06:17:04Z</time>
      </trkpt>
      <trkpt lat="45.35453" lon="5.75734">
        <ele>636.4</ele>
        <time>2016-05-21T06:17:06Z</time>
      </trkpt>
      <trkpt lat="45.35452" lon="5.75744">
        <ele>635.8</ele>
        <time>2016-05-21T06:17:08Z</time>
      </trkpt>
      <trkpt lat="45.35451" lon="5.75754">
        <ele>635.2</ele>
        <time>2016-05-21T06:17:10Z</time>
      </trkpt>
      <trkpt lat="45.35449" lon="5.75769">
        <ele>634.8</ele>
        <time>2016-05-21T06:17:13Z</time>
      </trkpt>
      <trkpt lat="45.35444" lon="5.75781">
        <ele>634.6</ele>
        <time>2016-05-21T06:17:16Z</time>
      </trkpt>
      <trkpt lat="45.35435" lon="5.75789">
        <ele>634.5</ele>
        <time>2016-05-21T06:17:19Z</time>
      </trkpt>
      <trkpt lat="45.35429" lon="5.75796">
        <ele>634.5</ele>
        <time>2016-05-21T06:17:21Z</time>
      </trkpt>
      <trkpt lat="45.35422" lon="5.75805">
        <ele>634.7</ele>
        <time>2016-05-21T06:17:24Z</time>
      </trkpt>
      <trkpt lat="45.35414" lon="5.75813">
        <ele>635</ele>
        <time>2016-05-21T06:17:27Z</time>
      </trkpt>
      <trkpt lat="45.35407" lon="5.75822">
        <ele>635.3</ele>
        <time>2016-05-21T06:17:30Z</time>
      </trkpt>
      <trkpt lat="45.35401" lon="5.75831">
        <ele>635.6</ele>
        <time>2016-05-21T06:17:33Z</time>
      </trkpt>
      <trkpt lat="45.35396" lon="5.75841">
        <ele>636.2</ele>
        <time>2016-05-21T06:17:36Z</time>
      </trkpt>
      <trkpt lat="45.3539" lon="5.75851">
        <ele>636.7</ele>
        <time>2016-05-21T06:17:39Z</time>
      </trkpt>
      <trkpt lat="45.35383" lon="5.7586">
        <ele>637.2</ele>
        <time>2016-05-21T06:17:42Z</time>
      </trkpt>
      <trkpt lat="45.35376" lon="5.75869">
        <ele>637.7</ele>
        <time>2016-05-21T06:17:45Z</time>
      </trkpt>
      <trkpt lat="45.35368" lon="5.75875">
        <ele>640</ele>
        <time>2016-05-21T06:17:48Z</time>
      </trkpt>
      <trkpt lat="45.35359" lon="5.7588">
        <ele>641.7</ele>
        <time>2016-05-21T06:17:51Z</time>
      </trkpt>
      <trkpt lat="45.3535" lon="5.75882">
        <ele>642.1</ele>
        <time>2016-05-21T06:17:54Z</time>
      </trkpt>
      <trkpt lat="45.35341" lon="5.75888">
        <ele>642.5</ele>
        <time>2016-05-21T06:17:58Z</time>
      </trkpt>
      <trkpt lat="45.35332" lon="5.75891">
        <ele>642.9</ele>
        <time>2016-05-21T06:18:01Z</time>
      </trkpt>
      <trkpt lat="45.35323" lon="5.75893">
        <ele>643.5</ele>
        <time>2016-05-21T06:18:04Z</time>
      </trkpt>
      <trkpt lat="45.35315" lon="5.75899">
        <ele>644.2</ele>
        <time>2016-05-21T06:18:07Z</time>
      </trkpt>
      <trkpt lat="45.35307" lon="5.75905">
        <ele>644.9</ele>
        <time>2016-05-21T06:18:10Z</time>
      </trkpt>
      <trkpt lat="45.353" lon="5.75914">
        <ele>645.4</ele>
        <time>2016-05-21T06:18:13Z</time>
      </trkpt>
      <trkpt lat="45.35293" lon="5.75923">
        <ele>645.9</ele>
        <time>2016-05-21T06:18:16Z</time>
      </trkpt>
      <trkpt lat="45.35288" lon="5.75935">
        <ele>646.4</ele>
        <time>2016-05-21T06:18:19Z</time>
      </trkpt>
      <trkpt lat="45.35282" lon="5.75944">
        <ele>646.8</ele>
        <time>2016-05-21T06:18:22Z</time>
      </trkpt>
      <trkpt lat="45.35276" lon="5.75953">
        <ele>647.3</ele>
        <time>2016-05-21T06:18:25Z</time>
      </trkpt>
      <trkpt lat="45.3527" lon="5.75961">
        <ele>648</ele>
        <time>2016-05-21T06:18:28Z</time>
      </trkpt>
      <trkpt lat="45.35264" lon="5.75968">
        <ele>648.9</ele>
        <time>2016-05-21T06:18:31Z</time>
      </trkpt>
      <trkpt lat="45.3526" lon="5.75978">
        <ele>649.8</ele>
        <time>2016-05-21T06:18:34Z</time>
      </trkpt>
      <trkpt lat="45.35255" lon="5.75988">
        <ele>650.8</ele>
        <time>2016-05-21T06:18:37Z</time>
      </trkpt>
      <trkpt lat="45.3525" lon="5.75998">
        <ele>651.9</ele>
        <time>2016-05-21T06:18:40Z</time>
      </trkpt>
      <trkpt lat="45.35244" lon="5.76008">
        <ele>653</ele>
        <time>2016-05-21T06:18:43Z</time>
      </trkpt>
      <trkpt lat="45.35237" lon="5.76017">
        <ele>654</ele>
        <time>2016-05-21T06:18:46Z</time>
      </trkpt>
      <trkpt lat="45.35231" lon="5.76026">
        <ele>654.9</ele>
        <time>2016-05-21T06:18:49Z</time>
      </trkpt>
      <trkpt lat="45.35226" lon="5.76038">
        <ele>655.8</ele>
        <time>2016-05-21T06:18:52Z</time>
      </trkpt>
      <trkpt lat="45.35221" lon="5.76049">
        <ele>656.6</ele>
        <time>2016-05-21T06:18:55Z</time>
      </trkpt>
      <trkpt lat="45.35215" lon="5.7606">
        <ele>657.4</ele>
        <time>2016-05-21T06:18:58Z</time>
      </trkpt>
      <trkpt lat="45.35208" lon="5.76072">
        <ele>657.9</ele>
        <time>2016-05-21T06:19:01Z</time>
      </trkpt>
      <trkpt lat="45.35202" lon="5.76079">
        <ele>658.1</ele>
        <time>2016-05-21T06:19:03Z</time>
      </trkpt>
      <trkpt lat="45.35197" lon="5.76088">
        <ele>658.2</ele>
        <time>2016-05-21T06:19:05Z</time>
      </trkpt>
      <trkpt lat="45.35193" lon="5.76096">
        <ele>658</ele>
        <time>2016-05-21T06:19:07Z</time>
      </trkpt>
      <trkpt lat="45.35188" lon="5.76103">
        <ele>657.7</ele>
        <time>2016-05-21T06:19:09Z</time>
      </trkpt>
      <trkpt lat="45.35182" lon="5.76116">
        <ele>657.6</ele>
        <time>2016-05-21T06:19:12Z</time>
      </trkpt>
      <trkpt lat="45.35178" lon="5.76126">
        <ele>657.9</ele>
        <time>2016-05-21T06:19:15Z</time>
      </trkpt>
      <trkpt lat="45.35175" lon="5.76136">
        <ele>658.4</ele>
        <time>2016-05-21T06:19:18Z</time>
      </trkpt>
      <trkpt lat="45.35172" lon="5.76149">
        <ele>659.2</ele>
        <time>2016-05-21T06:19:22Z</time>
      </trkpt>
      <trkpt lat="45.35168" lon="5.76159">
        <ele>660</ele>
        <time>2016-05-21T06:19:25Z</time>
      </trkpt>
      <trkpt lat="45.35165" lon="5.76171">
        <ele>660.8</ele>
        <time>2016-05-21T06:19:28Z</time>
      </trkpt>
      <trkpt lat="45.35163" lon="5.76184">
        <ele>661.8</ele>
        <time>2016-05-21T06:19:31Z</time>
      </trkpt>
      <trkpt lat="45.3516" lon="5.76197">
        <ele>663.1</ele>
        <time>2016-05-21T06:19:35Z</time>
      </trkpt>
      <trkpt lat="45.35161" lon="5.7621">
        <ele>664.2</ele>
        <time>2016-05-21T06:19:38Z</time>
      </trkpt>
      <trkpt lat="45.3516" lon="5.76221">
        <ele>665</ele>
        <time>2016-05-21T06:19:40Z</time>
      </trkpt>
      <trkpt lat="45.35161" lon="5.76234">
        <ele>666.1</ele>
        <time>2016-05-21T06:19:43Z</time>
      </trkpt>
      <trkpt lat="45.35163" lon="5.76247">
        <ele>667.2</ele>
        <time>2016-05-21T06:19:46Z</time>
      </trkpt>
      <trkpt lat="45.35163" lon="5.7626">
        <ele>668.3</ele>
        <time>2016-05-21T06:19:49Z</time>
      </trkpt>
      <trkpt lat="45.35164" lon="5.76272">
        <ele>669.5</ele>
        <time>2016-05-21T06:19:52Z</time>
      </trkpt>
      <trkpt lat="45.35167" lon="5.76282">
        <ele>670.6</ele>
        <time>2016-05-21T06:19:55Z</time>
      </trkpt>
      <trkpt lat="45.35171" lon="5.76295">
        <ele>672.1</ele>
        <time>2016-05-21T06:19:59Z</time>
      </trkpt>
      <trkpt lat="45.35173" lon="5.76307">
        <ele>672.9</ele>
        <time>2016-05-21T06:20:02Z</time>
      </trkpt>
      <trkpt lat="45.35175" lon="5.7632">
        <ele>673.5</ele>
        <time>2016-05-21T06:20:05Z</time>
      </trkpt>
      <trkpt lat="45.35175" lon="5.76335">
        <ele>674</ele>
        <time>2016-05-21T06:20:08Z</time>
      </trkpt>
      <trkpt lat="45.35179" lon="5.76347">
        <ele>674.5</ele>
        <time>2016-05-21T06:20:11Z</time>
      </trkpt>
      <trkpt lat="45.35184" lon="5.7636">
        <ele>675.4</ele>
        <time>2016-05-21T06:20:14Z</time>
      </trkpt>
      <trkpt lat="45.35188" lon="5.76371">
        <ele>676.1</ele>
        <time>2016-05-21T06:20:17Z</time>
      </trkpt>
      <trkpt lat="45.3519" lon="5.76383">
        <ele>676.7</ele>
        <time>2016-05-21T06:20:20Z</time>
      </trkpt>
      <trkpt lat="45.3519" lon="5.76396">
        <ele>677.3</ele>
        <time>2016-05-21T06:20:23Z</time>
      </trkpt>
      <trkpt lat="45.3519" lon="5.76409">
        <ele>677.9</ele>
        <time>2016-05-21T06:20:26Z</time>
      </trkpt>
      <trkpt lat="45.35188" lon="5.7642">
        <ele>678.2</ele>
        <time>2016-05-21T06:20:29Z</time>
      </trkpt>
      <trkpt lat="45.35185" lon="5.76435">
        <ele>678.2</ele>
        <time>2016-05-21T06:20:32Z</time>
      </trkpt>
      <trkpt lat="45.35184" lon="5.7645">
        <ele>678.2</ele>
        <time>2016-05-21T06:20:35Z</time>
      </trkpt>
      <trkpt lat="45.35182" lon="5.76461">
        <ele>678.1</ele>
        <time>2016-05-21T06:20:37Z</time>
      </trkpt>
      <trkpt lat="45.35178" lon="5.76473">
        <ele>678</ele>
        <time>2016-05-21T06:20:40Z</time>
      </trkpt>
      <trkpt lat="45.35172" lon="5.76482">
        <ele>678</ele>
        <time>2016-05-21T06:20:43Z</time>
      </trkpt>
      <trkpt lat="45.35169" lon="5.76492">
        <ele>678.2</ele>
        <time>2016-05-21T06:20:46Z</time>
      </trkpt>
      <trkpt lat="45.35165" lon="5.76505">
        <ele>678.5</ele>
        <time>2016-05-21T06:20:49Z</time>
      </trkpt>
      <trkpt lat="45.35162" lon="5.76517">
        <ele>678.8</ele>
        <time>2016-05-21T06:20:52Z</time>
      </trkpt>
      <trkpt lat="45.35157" lon="5.76529">
        <ele>679.3</ele>
        <time>2016-05-21T06:20:55Z</time>
      </trkpt>
      <trkpt lat="45.35154" lon="5.76539">
        <ele>679.9</ele>
        <time>2016-05-21T06:20:58Z</time>
      </trkpt>
      <trkpt lat="45.3515" lon="5.76548">
        <ele>680.9</ele>
        <time>2016-05-21T06:21:02Z</time>
      </trkpt>
      <trkpt lat="45.35142" lon="5.76558">
        <ele>682</ele>
        <time>2016-05-21T06:21:06Z</time>
      </trkpt>
      <trkpt lat="45.35136" lon="5.76564">
        <ele>682.9</ele>
        <time>2016-05-21T06:21:09Z</time>
      </trkpt>
      <trkpt lat="45.3513" lon="5.76572">
        <ele>683.8</ele>
        <time>2016-05-21T06:21:12Z</time>
      </trkpt>
      <trkpt lat="45.35124" lon="5.76581">
        <ele>684.7</ele>
        <time>2016-05-21T06:21:15Z</time>
      </trkpt>
      <trkpt lat="45.35118" lon="5.7659">
        <ele>685.5</ele>
        <time>2016-05-21T06:21:18Z</time>
      </trkpt>
      <trkpt lat="45.35112" lon="5.76597">
        <ele>686.3</ele>
        <time>2016-05-21T06:21:21Z</time>
      </trkpt>
      <trkpt lat="45.35105" lon="5.76607">
        <ele>687.7</ele>
        <time>2016-05-21T06:21:25Z</time>
      </trkpt>
      <trkpt lat="45.351" lon="5.76616">
        <ele>688.7</ele>
        <time>2016-05-21T06:21:28Z</time>
      </trkpt>
      <trkpt lat="45.35095" lon="5.76626">
        <ele>689.8</ele>
        <time>2016-05-21T06:21:31Z</time>
      </trkpt>
      <trkpt lat="45.35092" lon="5.76637">
        <ele>690.7</ele>
        <time>2016-05-21T06:21:34Z</time>
      </trkpt>
      <trkpt lat="45.35088" lon="5.76649">
        <ele>691.6</ele>
        <time>2016-05-21T06:21:37Z</time>
      </trkpt>
      <trkpt lat="45.35084" lon="5.7666">
        <ele>692.5</ele>
        <time>2016-05-21T06:21:40Z</time>
      </trkpt>
      <trkpt lat="45.3508" lon="5.76672">
        <ele>693.5</ele>
        <time>2016-05-21T06:21:43Z</time>
      </trkpt>
      <trkpt lat="45.35077" lon="5.76685">
        <ele>694.6</ele>
        <time>2016-05-21T06:21:46Z</time>
      </trkpt>
      <trkpt lat="45.35075" lon="5.76697">
        <ele>695.9</ele>
        <time>2016-05-21T06:21:49Z</time>
      </trkpt>
      <trkpt lat="45.35071" lon="5.76707">
        <ele>697</ele>
        <time>2016-05-21T06:21:52Z</time>
      </trkpt>
      <trkpt lat="45.35068" lon="5.7672">
        <ele>697.9</ele>
        <time>2016-05-21T06:21:55Z</time>
      </trkpt>
      <trkpt lat="45.35064" lon="5.76732">
        <ele>698.3</ele>
        <time>2016-05-21T06:21:58Z</time>
      </trkpt>
      <trkpt lat="45.35061" lon="5.76744">
        <ele>698.4</ele>
        <time>2016-05-21T06:22:01Z</time>
      </trkpt>
      <trkpt lat="45.35057" lon="5.76754">
        <ele>698.6</ele>
        <time>2016-05-21T06:22:04Z</time>
      </trkpt>
      <trkpt lat="45.35053" lon="5.76765">
        <ele>698.9</ele>
        <time>2016-05-21T06:22:07Z</time>
      </trkpt>
      <trkpt lat="45.3505" lon="5.76775">
        <ele>698.9</ele>
        <time>2016-05-21T06:22:09Z</time>
      </trkpt>
      <trkpt lat="45.35047" lon="5.76786">
        <ele>698.9</ele>
        <time>2016-05-21T06:22:11Z</time>
      </trkpt>
      <trkpt lat="45.35042" lon="5.76798">
        <ele>698.8</ele>
        <time>2016-05-21T06:22:14Z</time>
      </trkpt>
      <trkpt lat="45.35038" lon="5.76808">
        <ele>698.8</ele>
        <time>2016-05-21T06:22:17Z</time>
      </trkpt>
      <trkpt lat="45.35033" lon="5.76822">
        <ele>695.5</ele>
        <time>2016-05-21T06:22:21Z</time>
      </trkpt>
      <trkpt lat="45.35029" lon="5.76833">
        <ele>695.1</ele>
        <time>2016-05-21T06:22:24Z</time>
      </trkpt>
      <trkpt lat="45.35023" lon="5.76839">
        <ele>694.6</ele>
        <time>2016-05-21T06:22:27Z</time>
      </trkpt>
      <trkpt lat="45.35015" lon="5.76844">
        <ele>694</ele>
        <time>2016-05-21T06:22:30Z</time>
      </trkpt>
      <trkpt lat="45.35004" lon="5.76845">
        <ele>693.5</ele>
        <time>2016-05-21T06:22:33Z</time>
      </trkpt>
      <trkpt lat="45.34996" lon="5.76848">
        <ele>693.2</ele>
        <time>2016-05-21T06:22:35Z</time>
      </trkpt>
      <trkpt lat="45.3499" lon="5.76856">
        <ele>692.8</ele>
        <time>2016-05-21T06:22:38Z</time>
      </trkpt>
      <trkpt lat="45.34987" lon="5.76867">
        <ele>692.5</ele>
        <time>2016-05-21T06:22:41Z</time>
      </trkpt>
      <trkpt lat="45.34984" lon="5.76878">
        <ele>692.2</ele>
        <time>2016-05-21T06:22:44Z</time>
      </trkpt>
      <trkpt lat="45.34977" lon="5.76898">
        <ele>691.9</ele>
        <time>2016-05-21T06:22:51Z</time>
      </trkpt>
      <trkpt lat="45.34964" lon="5.76911">
        <ele>690.6</ele>
        <time>2016-05-21T06:22:57Z</time>
      </trkpt>
      <trkpt lat="45.3496" lon="5.7692">
        <ele>689.7</ele>
        <time>2016-05-21T06:23:00Z</time>
      </trkpt>
      <trkpt lat="45.34953" lon="5.76927">
        <ele>688.9</ele>
        <time>2016-05-21T06:23:03Z</time>
      </trkpt>
      <trkpt lat="45.34951" lon="5.7694">
        <ele>688.1</ele>
        <time>2016-05-21T06:23:06Z</time>
      </trkpt>
      <trkpt lat="45.34948" lon="5.76953">
        <ele>687.5</ele>
        <time>2016-05-21T06:23:09Z</time>
      </trkpt>
      <trkpt lat="45.34948" lon="5.76963">
        <ele>687.2</ele>
        <time>2016-05-21T06:23:11Z</time>
      </trkpt>
      <trkpt lat="45.34952" lon="5.76981">
        <ele>686.9</ele>
        <time>2016-05-21T06:23:13Z</time>
      </trkpt>
      <trkpt lat="45.34954" lon="5.76992">
        <ele>686.9</ele>
        <time>2016-05-21T06:23:14Z</time>
      </trkpt>
      <trkpt lat="45.34957" lon="5.77002">
        <ele>686.9</ele>
        <time>2016-05-21T06:23:15Z</time>
      </trkpt>
      <trkpt lat="45.34959" lon="5.77016">
        <ele>686.8</ele>
        <time>2016-05-21T06:23:17Z</time>
      </trkpt>
      <trkpt lat="45.3496" lon="5.77026">
        <ele>686.7</ele>
        <time>2016-05-21T06:23:19Z</time>
      </trkpt>
      <trkpt lat="45.3496" lon="5.77038">
        <ele>686.5</ele>
        <time>2016-05-21T06:23:22Z</time>
      </trkpt>
      <trkpt lat="45.34959" lon="5.77051">
        <ele>686.4</ele>
        <time>2016-05-21T06:23:25Z</time>
      </trkpt>
      <trkpt lat="45.34958" lon="5.77065">
        <ele>686.3</ele>
        <time>2016-05-21T06:23:28Z</time>
      </trkpt>
      <trkpt lat="45.34959" lon="5.77079">
        <ele>686.1</ele>
        <time>2016-05-21T06:23:31Z</time>
      </trkpt>
      <trkpt lat="45.3496" lon="5.77092">
        <ele>686</ele>
        <time>2016-05-21T06:23:34Z</time>
      </trkpt>
      <trkpt lat="45.3496" lon="5.77104">
        <ele>685.9</ele>
        <time>2016-05-21T06:23:37Z</time>
      </trkpt>
      <trkpt lat="45.3496" lon="5.77117">
        <ele>686.1</ele>
        <time>2016-05-21T06:23:40Z</time>
      </trkpt>
      <trkpt lat="45.34961" lon="5.77129">
        <ele>686.4</ele>
        <time>2016-05-21T06:23:43Z</time>
      </trkpt>
      <trkpt lat="45.3496" lon="5.77142">
        <ele>686.8</ele>
        <time>2016-05-21T06:23:46Z</time>
      </trkpt>
      <trkpt lat="45.34962" lon="5.77153">
        <ele>687.2</ele>
        <time>2016-05-21T06:23:49Z</time>
      </trkpt>
      <trkpt lat="45.34961" lon="5.77165">
        <ele>687.7</ele>
        <time>2016-05-21T06:23:52Z</time>
      </trkpt>
      <trkpt lat="45.3496" lon="5.77178">
        <ele>688.3</ele>
        <time>2016-05-21T06:23:55Z</time>
      </trkpt>
      <trkpt lat="45.34962" lon="5.77189">
        <ele>688.9</ele>
        <time>2016-05-21T06:23:58Z</time>
      </trkpt>
      <trkpt lat="45.34963" lon="5.77203">
        <ele>689.8</ele>
        <time>2016-05-21T06:24:01Z</time>
      </trkpt>
      <trkpt lat="45.34962" lon="5.77217">
        <ele>690.8</ele>
        <time>2016-05-21T06:24:04Z</time>
      </trkpt>
      <trkpt lat="45.34961" lon="5.77228">
        <ele>691.9</ele>
        <time>2016-05-21T06:24:07Z</time>
      </trkpt>
      <trkpt lat="45.3496" lon="5.77241">
        <ele>693.5</ele>
        <time>2016-05-21T06:24:11Z</time>
      </trkpt>
      <trkpt lat="45.34959" lon="5.77251">
        <ele>695.1</ele>
        <time>2016-05-21T06:24:14Z</time>
      </trkpt>
      <trkpt lat="45.34958" lon="5.77264">
        <ele>697</ele>
        <time>2016-05-21T06:24:17Z</time>
      </trkpt>
      <trkpt lat="45.3496" lon="5.77274">
        <ele>699.5</ele>
        <time>2016-05-21T06:24:20Z</time>
      </trkpt>
      <trkpt lat="45.34969" lon="5.77275">
        <ele>702.6</ele>
        <time>2016-05-21T06:24:22Z</time>
      </trkpt>
      <trkpt lat="45.34977" lon="5.77278">
        <ele>706.1</ele>
        <time>2016-05-21T06:24:24Z</time>
      </trkpt>
      <trkpt lat="45.34984" lon="5.77285">
        <ele>710.2</ele>
        <time>2016-05-21T06:24:26Z</time>
      </trkpt>
      <trkpt lat="45.34989" lon="5.77296">
        <ele>716.8</ele>
        <time>2016-05-21T06:24:29Z</time>
      </trkpt>
      <trkpt lat="45.34994" lon="5.77306">
        <ele>723</ele>
        <time>2016-05-21T06:24:32Z</time>
      </trkpt>
      <trkpt lat="45.34998" lon="5.77318">
        <ele>730.7</ele>
        <time>2016-05-21T06:24:36Z</time>
      </trkpt>
      <trkpt lat="45.35001" lon="5.77331">
        <ele>737.9</ele>
        <time>2016-05-21T06:24:40Z</time>
      </trkpt>
      <trkpt lat="45.35006" lon="5.77341">
        <ele>742.9</ele>
        <time>2016-05-21T06:24:43Z</time>
      </trkpt>
      <trkpt lat="45.3501" lon="5.77351">
        <ele>746.6</ele>
        <time>2016-05-21T06:24:46Z</time>
      </trkpt>
      <trkpt lat="45.35018" lon="5.77359">
        <ele>748.3</ele>
        <time>2016-05-21T06:24:49Z</time>
      </trkpt>
      <trkpt lat="45.35023" lon="5.77368">
        <ele>749.2</ele>
        <time>2016-05-21T06:24:52Z</time>
      </trkpt>
      <trkpt lat="45.35027" lon="5.7738">
        <ele>749.9</ele>
        <time>2016-05-21T06:24:57Z</time>
      </trkpt>
      <trkpt lat="45.35031" lon="5.77392">
        <ele>750.3</ele>
        <time>2016-05-21T06:25:01Z</time>
      </trkpt>
      <trkpt lat="45.35034" lon="5.77403">
        <ele>750.5</ele>
        <time>2016-05-21T06:25:04Z</time>
      </trkpt>
      <trkpt lat="45.35034" lon="5.77414">
        <ele>750.7</ele>
        <time>2016-05-21T06:25:07Z</time>
      </trkpt>
      <trkpt lat="45.35034" lon="5.77426">
        <ele>750.8</ele>
        <time>2016-05-21T06:25:10Z</time>
      </trkpt>
      <trkpt lat="45.35033" lon="5.77438">
        <ele>751</ele>
        <time>2016-05-21T06:25:13Z</time>
      </trkpt>
      <trkpt lat="45.35029" lon="5.77448">
        <ele>751</ele>
        <time>2016-05-21T06:25:16Z</time>
      </trkpt>
      <trkpt lat="45.35027" lon="5.77459">
        <ele>751.2</ele>
        <time>2016-05-21T06:25:19Z</time>
      </trkpt>
      <trkpt lat="45.35028" lon="5.77469">
        <ele>750.6</ele>
        <time>2016-05-21T06:25:22Z</time>
      </trkpt>
      <trkpt lat="45.35025" lon="5.77517">
        <ele>750.5</ele>
        <time>2016-05-21T06:25:41Z</time>
      </trkpt>
      <trkpt lat="45.35009" lon="5.77544">
        <ele>750.3</ele>
        <time>2016-05-21T06:25:43Z</time>
      </trkpt>
      <trkpt lat="45.34999" lon="5.77549">
        <ele>750.4</ele>
        <time>2016-05-21T06:25:45Z</time>
      </trkpt>
      <trkpt lat="45.34993" lon="5.77558">
        <ele>751.2</ele>
        <time>2016-05-21T06:25:48Z</time>
      </trkpt>
      <trkpt lat="45.3499" lon="5.77569">
        <ele>752.2</ele>
        <time>2016-05-21T06:25:51Z</time>
      </trkpt>
      <trkpt lat="45.34988" lon="5.77582">
        <ele>753.2</ele>
        <time>2016-05-21T06:25:54Z</time>
      </trkpt>
      <trkpt lat="45.34987" lon="5.77594">
        <ele>754.3</ele>
        <time>2016-05-21T06:25:57Z</time>
      </trkpt>
      <trkpt lat="45.34985" lon="5.77605">
        <ele>755.1</ele>
        <time>2016-05-21T06:26:00Z</time>
      </trkpt>
      <trkpt lat="45.34982" lon="5.77616">
        <ele>756.3</ele>
        <time>2016-05-21T06:26:04Z</time>
      </trkpt>
      <trkpt lat="45.34982" lon="5.77628">
        <ele>757.3</ele>
        <time>2016-05-21T06:26:07Z</time>
      </trkpt>
      <trkpt lat="45.34982" lon="5.77639">
        <ele>758.5</ele>
        <time>2016-05-21T06:26:10Z</time>
      </trkpt>
      <trkpt lat="45.34982" lon="5.7765">
        <ele>759.7</ele>
        <time>2016-05-21T06:26:13Z</time>
      </trkpt>
      <trkpt lat="45.34981" lon="5.77661">
        <ele>760.8</ele>
        <time>2016-05-21T06:26:16Z</time>
      </trkpt>
      <trkpt lat="45.34979" lon="5.77673">
        <ele>761.7</ele>
        <time>2016-05-21T06:26:19Z</time>
      </trkpt>
      <trkpt lat="45.34979" lon="5.77684">
        <ele>762.6</ele>
        <time>2016-05-21T06:26:22Z</time>
      </trkpt>
      <trkpt lat="45.34977" lon="5.77695">
        <ele>763.5</ele>
        <time>2016-05-21T06:26:25Z</time>
      </trkpt>
      <trkpt lat="45.34977" lon="5.77707">
        <ele>764.3</ele>
        <time>2016-05-21T06:26:28Z</time>
      </trkpt>
      <trkpt lat="45.34975" lon="5.77718">
        <ele>765.1</ele>
        <time>2016-05-21T06:26:31Z</time>
      </trkpt>
      <trkpt lat="45.34973" lon="5.77728">
        <ele>766.1</ele>
        <time>2016-05-21T06:26:34Z</time>
      </trkpt>
      <trkpt lat="45.3497" lon="5.77739">
        <ele>767.2</ele>
        <time>2016-05-21T06:26:37Z</time>
      </trkpt>
      <trkpt lat="45.34967" lon="5.77748">
        <ele>768.3</ele>
        <time>2016-05-21T06:26:40Z</time>
      </trkpt>
      <trkpt lat="45.34963" lon="5.77758">
        <ele>769.5</ele>
        <time>2016-05-21T06:26:43Z</time>
      </trkpt>
      <trkpt lat="45.34959" lon="5.7777">
        <ele>771.4</ele>
        <time>2016-05-21T06:26:47Z</time>
      </trkpt>
      <trkpt lat="45.34956" lon="5.77782">
        <ele>772.6</ele>
        <time>2016-05-21T06:26:50Z</time>
      </trkpt>
      <trkpt lat="45.34955" lon="5.77794">
        <ele>773.3</ele>
        <time>2016-05-21T06:26:54Z</time>
      </trkpt>
      <trkpt lat="45.34955" lon="5.77808">
        <ele>773.3</ele>
        <time>2016-05-21T06:26:58Z</time>
      </trkpt>
      <trkpt lat="45.34952" lon="5.77822">
        <ele>773.5</ele>
        <time>2016-05-21T06:27:01Z</time>
      </trkpt>
      <trkpt lat="45.34952" lon="5.77833">
        <ele>773.6</ele>
        <time>2016-05-21T06:27:03Z</time>
      </trkpt>
      <trkpt lat="45.34952" lon="5.77846">
        <ele>773.6</ele>
        <time>2016-05-21T06:27:06Z</time>
      </trkpt>
      <trkpt lat="45.34949" lon="5.77856">
        <ele>773.6</ele>
        <time>2016-05-21T06:27:08Z</time>
      </trkpt>
      <trkpt lat="45.34945" lon="5.7787">
        <ele>773.6</ele>
        <time>2016-05-21T06:27:11Z</time>
      </trkpt>
      <trkpt lat="45.34941" lon="5.7788">
        <ele>773.7</ele>
        <time>2016-05-21T06:27:13Z</time>
      </trkpt>
      <trkpt lat="45.34935" lon="5.7789">
        <ele>774</ele>
        <time>2016-05-21T06:27:16Z</time>
      </trkpt>
      <trkpt lat="45.34928" lon="5.77899">
        <ele>774.4</ele>
        <time>2016-05-21T06:27:19Z</time>
      </trkpt>
      <trkpt lat="45.34921" lon="5.77905">
        <ele>775.1</ele>
        <time>2016-05-21T06:27:22Z</time>
      </trkpt>
      <trkpt lat="45.34914" lon="5.7791">
        <ele>776</ele>
        <time>2016-05-21T06:27:25Z</time>
      </trkpt>
      <trkpt lat="45.34908" lon="5.7792">
        <ele>776.9</ele>
        <time>2016-05-21T06:27:30Z</time>
      </trkpt>
      <trkpt lat="45.34905" lon="5.77931">
        <ele>777.7</ele>
        <time>2016-05-21T06:27:33Z</time>
      </trkpt>
      <trkpt lat="45.34903" lon="5.77946">
        <ele>778.3</ele>
        <time>2016-05-21T06:27:36Z</time>
      </trkpt>
      <trkpt lat="45.349" lon="5.77959">
        <ele>778.8</ele>
        <time>2016-05-21T06:27:39Z</time>
      </trkpt>
      <trkpt lat="45.34897" lon="5.77972">
        <ele>779.2</ele>
        <time>2016-05-21T06:27:42Z</time>
      </trkpt>
      <trkpt lat="45.34893" lon="5.77982">
        <ele>779.6</ele>
        <time>2016-05-21T06:27:45Z</time>
      </trkpt>
      <trkpt lat="45.34888" lon="5.77991">
        <ele>780</ele>
        <time>2016-05-21T06:27:48Z</time>
      </trkpt>
      <trkpt lat="45.34884" lon="5.78001">
        <ele>780.4</ele>
        <time>2016-05-21T06:27:51Z</time>
      </trkpt>
      <trkpt lat="45.34879" lon="5.7801">
        <ele>780.9</ele>
        <time>2016-05-21T06:27:54Z</time>
      </trkpt>
      <trkpt lat="45.34875" lon="5.78019">
        <ele>781</ele>
        <time>2016-05-21T06:27:57Z</time>
      </trkpt>
      <trkpt lat="45.34867" lon="5.78031">
        <ele>781</ele>
        <time>2016-05-21T06:28:02Z</time>
      </trkpt>
      <trkpt lat="45.34862" lon="5.78043">
        <ele>781</ele>
        <time>2016-05-21T06:28:04Z</time>
      </trkpt>
      <trkpt lat="45.34862" lon="5.78056">
        <ele>781.2</ele>
        <time>2016-05-21T06:28:06Z</time>
      </trkpt>
      <trkpt lat="45.34866" lon="5.78068">
        <ele>781.8</ele>
        <time>2016-05-21T06:28:08Z</time>
      </trkpt>
      <trkpt lat="45.3487" lon="5.78079">
        <ele>782.5</ele>
        <time>2016-05-21T06:28:10Z</time>
      </trkpt>
      <trkpt lat="45.34873" lon="5.7809">
        <ele>783.7</ele>
        <time>2016-05-21T06:28:13Z</time>
      </trkpt>
      <trkpt lat="45.34873" lon="5.78103">
        <ele>785.3</ele>
        <time>2016-05-21T06:28:17Z</time>
      </trkpt>
      <trkpt lat="45.34871" lon="5.78114">
        <ele>786.3</ele>
        <time>2016-05-21T06:28:20Z</time>
      </trkpt>
      <trkpt lat="45.3487" lon="5.78125">
        <ele>787.3</ele>
        <time>2016-05-21T06:28:23Z</time>
      </trkpt>
      <trkpt lat="45.34871" lon="5.78137">
        <ele>788.2</ele>
        <time>2016-05-21T06:28:26Z</time>
      </trkpt>
      <trkpt lat="45.34873" lon="5.78149">
        <ele>789</ele>
        <time>2016-05-21T06:28:29Z</time>
      </trkpt>
      <trkpt lat="45.34876" lon="5.78161">
        <ele>789.5</ele>
        <time>2016-05-21T06:28:32Z</time>
      </trkpt>
      <trkpt lat="45.34881" lon="5.78171">
        <ele>790.1</ele>
        <time>2016-05-21T06:28:35Z</time>
      </trkpt>
      <trkpt lat="45.34887" lon="5.78178">
        <ele>790.8</ele>
        <time>2016-05-21T06:28:38Z</time>
      </trkpt>
      <trkpt lat="45.34895" lon="5.78183">
        <ele>791.6</ele>
        <time>2016-05-21T06:28:41Z</time>
      </trkpt>
      <trkpt lat="45.34903" lon="5.78189">
        <ele>792.3</ele>
        <time>2016-05-21T06:28:44Z</time>
      </trkpt>
      <trkpt lat="45.34911" lon="5.78194">
        <ele>793</ele>
        <time>2016-05-21T06:28:47Z</time>
      </trkpt>
      <trkpt lat="45.3492" lon="5.78196">
        <ele>793.4</ele>
        <time>2016-05-21T06:28:50Z</time>
      </trkpt>
      <trkpt lat="45.34928" lon="5.78199">
        <ele>793.7</ele>
        <time>2016-05-21T06:28:53Z</time>
      </trkpt>
      <trkpt lat="45.34936" lon="5.78201">
        <ele>793.8</ele>
        <time>2016-05-21T06:28:56Z</time>
      </trkpt>
      <trkpt lat="45.34946" lon="5.78203">
        <ele>793.9</ele>
        <time>2016-05-21T06:29:00Z</time>
      </trkpt>
      <trkpt lat="45.34954" lon="5.78204">
        <ele>794.3</ele>
        <time>2016-05-21T06:29:03Z</time>
      </trkpt>
      <trkpt lat="45.34962" lon="5.78206">
        <ele>794.8</ele>
        <time>2016-05-21T06:29:06Z</time>
      </trkpt>
      <trkpt lat="45.34969" lon="5.7821">
        <ele>795.4</ele>
        <time>2016-05-21T06:29:09Z</time>
      </trkpt>
      <trkpt lat="45.34976" lon="5.78215">
        <ele>795.9</ele>
        <time>2016-05-21T06:29:12Z</time>
      </trkpt>
      <trkpt lat="45.34982" lon="5.78222">
        <ele>796.5</ele>
        <time>2016-05-21T06:29:15Z</time>
      </trkpt>
      <trkpt lat="45.34988" lon="5.7823">
        <ele>797.3</ele>
        <time>2016-05-21T06:29:18Z</time>
      </trkpt>
      <trkpt lat="45.34995" lon="5.78238">
        <ele>798.3</ele>
        <time>2016-05-21T06:29:21Z</time>
      </trkpt>
      <trkpt lat="45.35" lon="5.78247">
        <ele>799.2</ele>
        <time>2016-05-21T06:29:24Z</time>
      </trkpt>
      <trkpt lat="45.35005" lon="5.78255">
        <ele>800.3</ele>
        <time>2016-05-21T06:29:27Z</time>
      </trkpt>
      <trkpt lat="45.35009" lon="5.78267">
        <ele>801.7</ele>
        <time>2016-05-21T06:29:31Z</time>
      </trkpt>
      <trkpt lat="45.35009" lon="5.78279">
        <ele>802.6</ele>
        <time>2016-05-21T06:29:34Z</time>
      </trkpt>
      <trkpt lat="45.35008" lon="5.78293">
        <ele>803.6</ele>
        <time>2016-05-21T06:29:37Z</time>
      </trkpt>
      <trkpt lat="45.3501" lon="5.78306">
        <ele>804.5</ele>
        <time>2016-05-21T06:29:40Z</time>
      </trkpt>
      <trkpt lat="45.3501" lon="5.78319">
        <ele>805.3</ele>
        <time>2016-05-21T06:29:43Z</time>
      </trkpt>
      <trkpt lat="45.35011" lon="5.78332">
        <ele>806.2</ele>
        <time>2016-05-21T06:29:46Z</time>
      </trkpt>
      <trkpt lat="45.35012" lon="5.78343">
        <ele>807.2</ele>
        <time>2016-05-21T06:29:49Z</time>
      </trkpt>
      <trkpt lat="45.35015" lon="5.78353">
        <ele>808.4</ele>
        <time>2016-05-21T06:29:52Z</time>
      </trkpt>
      <trkpt lat="45.35018" lon="5.78363">
        <ele>809.5</ele>
        <time>2016-05-21T06:29:55Z</time>
      </trkpt>
      <trkpt lat="45.35021" lon="5.78374">
        <ele>810.6</ele>
        <time>2016-05-21T06:29:58Z</time>
      </trkpt>
      <trkpt lat="45.35024" lon="5.78385">
        <ele>811.5</ele>
        <time>2016-05-21T06:30:01Z</time>
      </trkpt>
      <trkpt lat="45.35027" lon="5.78396">
        <ele>812.2</ele>
        <time>2016-05-21T06:30:04Z</time>
      </trkpt>
      <trkpt lat="45.3503" lon="5.78406">
        <ele>812.8</ele>
        <time>2016-05-21T06:30:07Z</time>
      </trkpt>
      <trkpt lat="45.35034" lon="5.78416">
        <ele>813.2</ele>
        <time>2016-05-21T06:30:10Z</time>
      </trkpt>
      <trkpt lat="45.35037" lon="5.78424">
        <ele>813.3</ele>
        <time>2016-05-21T06:30:13Z</time>
      </trkpt>
      <trkpt lat="45.35042" lon="5.78433">
        <ele>813.6</ele>
        <time>2016-05-21T06:30:16Z</time>
      </trkpt>
      <trkpt lat="45.35049" lon="5.78443">
        <ele>814</ele>
        <time>2016-05-21T06:30:19Z</time>
      </trkpt>
      <trkpt lat="45.35054" lon="5.78452">
        <ele>814.6</ele>
        <time>2016-05-21T06:30:22Z</time>
      </trkpt>
      <trkpt lat="45.35059" lon="5.78462">
        <ele>815.2</ele>
        <time>2016-05-21T06:30:25Z</time>
      </trkpt>
      <trkpt lat="45.35063" lon="5.78473">
        <ele>815.8</ele>
        <time>2016-05-21T06:30:28Z</time>
      </trkpt>
      <trkpt lat="45.35062" lon="5.78485">
        <ele>816.5</ele>
        <time>2016-05-21T06:30:32Z</time>
      </trkpt>
      <trkpt lat="45.35058" lon="5.78495">
        <ele>817.3</ele>
        <time>2016-05-21T06:30:35Z</time>
      </trkpt>
      <trkpt lat="45.35052" lon="5.78502">
        <ele>817.9</ele>
        <time>2016-05-21T06:30:38Z</time>
      </trkpt>
      <trkpt lat="45.35043" lon="5.78506">
        <ele>818.5</ele>
        <time>2016-05-21T06:30:41Z</time>
      </trkpt>
      <trkpt lat="45.35034" lon="5.78506">
        <ele>819.2</ele>
        <time>2016-05-21T06:30:44Z</time>
      </trkpt>
      <trkpt lat="45.35026" lon="5.78504">
        <ele>819.9</ele>
        <time>2016-05-21T06:30:47Z</time>
      </trkpt>
      <trkpt lat="45.35017" lon="5.785">
        <ele>820.5</ele>
        <time>2016-05-21T06:30:50Z</time>
      </trkpt>
      <trkpt lat="45.35007" lon="5.78495">
        <ele>821.4</ele>
        <time>2016-05-21T06:30:53Z</time>
      </trkpt>
      <trkpt lat="45.35001" lon="5.78489">
        <ele>824.3</ele>
        <time>2016-05-21T06:30:55Z</time>
      </trkpt>
      <trkpt lat="45.34992" lon="5.78482">
        <ele>826.3</ele>
        <time>2016-05-21T06:30:58Z</time>
      </trkpt>
      <trkpt lat="45.34986" lon="5.78478">
        <ele>826.8</ele>
        <time>2016-05-21T06:31:01Z</time>
      </trkpt>
      <trkpt lat="45.34979" lon="5.78471">
        <ele>827.3</ele>
        <time>2016-05-21T06:31:05Z</time>
      </trkpt>
      <trkpt lat="45.34972" lon="5.78463">
        <ele>828.1</ele>
        <time>2016-05-21T06:31:10Z</time>
      </trkpt>
      <trkpt lat="45.34967" lon="5.78456">
        <ele>828.5</ele>
        <time>2016-05-21T06:31:14Z</time>
      </trkpt>
      <trkpt lat="45.3496" lon="5.78448">
        <ele>828.5</ele>
        <time>2016-05-21T06:31:18Z</time>
      </trkpt>
      <trkpt lat="45.34954" lon="5.7844">
        <ele>828.4</ele>
        <time>2016-05-21T06:31:22Z</time>
      </trkpt>
      <trkpt lat="45.34948" lon="5.78431">
        <ele>828.3</ele>
        <time>2016-05-21T06:31:26Z</time>
      </trkpt>
      <trkpt lat="45.34943" lon="5.7842">
        <ele>827.9</ele>
        <time>2016-05-21T06:31:30Z</time>
      </trkpt>
      <trkpt lat="45.34939" lon="5.78411">
        <ele>827.5</ele>
        <time>2016-05-21T06:31:32Z</time>
      </trkpt>
      <trkpt lat="45.34933" lon="5.78401">
        <ele>827.3</ele>
        <time>2016-05-21T06:31:34Z</time>
      </trkpt>
      <trkpt lat="45.34925" lon="5.78393">
        <ele>827.5</ele>
        <time>2016-05-21T06:31:36Z</time>
      </trkpt>
      <trkpt lat="45.34914" lon="5.78389">
        <ele>827.7</ele>
        <time>2016-05-21T06:31:38Z</time>
      </trkpt>
      <trkpt lat="45.34903" lon="5.78392">
        <ele>828.1</ele>
        <time>2016-05-21T06:31:40Z</time>
      </trkpt>
      <trkpt lat="45.34893" lon="5.78401">
        <ele>828.5</ele>
        <time>2016-05-21T06:31:42Z</time>
      </trkpt>
      <trkpt lat="45.34885" lon="5.78413">
        <ele>829.1</ele>
        <time>2016-05-21T06:31:44Z</time>
      </trkpt>
      <trkpt lat="45.34877" lon="5.78424">
        <ele>830.6</ele>
        <time>2016-05-21T06:31:46Z</time>
      </trkpt>
      <trkpt lat="45.34868" lon="5.78434">
        <ele>829.6</ele>
        <time>2016-05-21T06:31:48Z</time>
      </trkpt>
      <trkpt lat="45.34859" lon="5.78443">
        <ele>827.8</ele>
        <time>2016-05-21T06:31:50Z</time>
      </trkpt>
      <trkpt lat="45.34851" lon="5.78452">
        <ele>826.5</ele>
        <time>2016-05-21T06:31:52Z</time>
      </trkpt>
      <trkpt lat="45.34843" lon="5.78462">
        <ele>825.4</ele>
        <time>2016-05-21T06:31:54Z</time>
      </trkpt>
      <trkpt lat="45.34837" lon="5.78472">
        <ele>825.5</ele>
        <time>2016-05-21T06:31:56Z</time>
      </trkpt>
      <trkpt lat="45.34833" lon="5.78482">
        <ele>826.4</ele>
        <time>2016-05-21T06:31:58Z</time>
      </trkpt>
      <trkpt lat="45.34829" lon="5.78495">
        <ele>826.9</ele>
        <time>2016-05-21T06:32:00Z</time>
      </trkpt>
      <trkpt lat="45.34824" lon="5.78509">
        <ele>827.3</ele>
        <time>2016-05-21T06:32:02Z</time>
      </trkpt>
      <trkpt lat="45.3482" lon="5.78525">
        <ele>826.2</ele>
        <time>2016-05-21T06:32:04Z</time>
      </trkpt>
      <trkpt lat="45.34816" lon="5.7854">
        <ele>824.4</ele>
        <time>2016-05-21T06:32:06Z</time>
      </trkpt>
      <trkpt lat="45.34812" lon="5.78555">
        <ele>823.6</ele>
        <time>2016-05-21T06:32:08Z</time>
      </trkpt>
      <trkpt lat="45.3481" lon="5.78571">
        <ele>823.6</ele>
        <time>2016-05-21T06:32:10Z</time>
      </trkpt>
      <trkpt lat="45.34807" lon="5.78587">
        <ele>822.9</ele>
        <time>2016-05-21T06:32:12Z</time>
      </trkpt>
      <trkpt lat="45.34804" lon="5.78604">
        <ele>822.1</ele>
        <time>2016-05-21T06:32:14Z</time>
      </trkpt>
      <trkpt lat="45.34801" lon="5.7862">
        <ele>821.4</ele>
        <time>2016-05-21T06:32:16Z</time>
      </trkpt>
      <trkpt lat="45.34797" lon="5.78635">
        <ele>821.6</ele>
        <time>2016-05-21T06:32:18Z</time>
      </trkpt>
      <trkpt lat="45.34794" lon="5.7865">
        <ele>821.7</ele>
        <time>2016-05-21T06:32:20Z</time>
      </trkpt>
      <trkpt lat="45.34793" lon="5.78665">
        <ele>822.1</ele>
        <time>2016-05-21T06:32:22Z</time>
      </trkpt>
      <trkpt lat="45.34791" lon="5.78681">
        <ele>821.7</ele>
        <time>2016-05-21T06:32:24Z</time>
      </trkpt>
      <trkpt lat="45.3479" lon="5.78697">
        <ele>821.4</ele>
        <time>2016-05-21T06:32:26Z</time>
      </trkpt>
      <trkpt lat="45.3479" lon="5.78713">
        <ele>821.3</ele>
        <time>2016-05-21T06:32:28Z</time>
      </trkpt>
      <trkpt lat="45.3479" lon="5.78728">
        <ele>821</ele>
        <time>2016-05-21T06:32:30Z</time>
      </trkpt>
      <trkpt lat="45.3479" lon="5.78743">
        <ele>821</ele>
        <time>2016-05-21T06:32:32Z</time>
      </trkpt>
      <trkpt lat="45.3479" lon="5.78757">
        <ele>821.4</ele>
        <time>2016-05-21T06:32:34Z</time>
      </trkpt>
      <trkpt lat="45.3479" lon="5.78773">
        <ele>822.3</ele>
        <time>2016-05-21T06:32:36Z</time>
      </trkpt>
      <trkpt lat="45.34789" lon="5.78786">
        <ele>822.5</ele>
        <time>2016-05-21T06:32:38Z</time>
      </trkpt>
      <trkpt lat="45.3479" lon="5.78799">
        <ele>822.7</ele>
        <time>2016-05-21T06:32:40Z</time>
      </trkpt>
      <trkpt lat="45.34792" lon="5.78815">
        <ele>823.2</ele>
        <time>2016-05-21T06:32:42Z</time>
      </trkpt>
      <trkpt lat="45.34794" lon="5.7883">
        <ele>823.6</ele>
        <time>2016-05-21T06:32:44Z</time>
      </trkpt>
      <trkpt lat="45.34798" lon="5.78844">
        <ele>824.6</ele>
        <time>2016-05-21T06:32:46Z</time>
      </trkpt>
      <trkpt lat="45.34803" lon="5.78861">
        <ele>825.8</ele>
        <time>2016-05-21T06:32:48Z</time>
      </trkpt>
      <trkpt lat="45.34807" lon="5.78874">
        <ele>826.8</ele>
        <time>2016-05-21T06:32:50Z</time>
      </trkpt>
      <trkpt lat="45.34811" lon="5.78888">
        <ele>828.5</ele>
        <time>2016-05-21T06:32:52Z</time>
      </trkpt>
      <trkpt lat="45.34816" lon="5.78903">
        <ele>829.1</ele>
        <time>2016-05-21T06:32:54Z</time>
      </trkpt>
      <trkpt lat="45.34819" lon="5.78916">
        <ele>829.2</ele>
        <time>2016-05-21T06:32:56Z</time>
      </trkpt>
      <trkpt lat="45.34823" lon="5.7893">
        <ele>829.6</ele>
        <time>2016-05-21T06:32:58Z</time>
      </trkpt>
      <trkpt lat="45.34826" lon="5.78945">
        <ele>830.2</ele>
        <time>2016-05-21T06:33:00Z</time>
      </trkpt>
      <trkpt lat="45.34831" lon="5.78958">
        <ele>830.1</ele>
        <time>2016-05-21T06:33:02Z</time>
      </trkpt>
      <trkpt lat="45.34835" lon="5.78972">
        <ele>829.8</ele>
        <time>2016-05-21T06:33:04Z</time>
      </trkpt>
      <trkpt lat="45.34839" lon="5.78987">
        <ele>828.7</ele>
        <time>2016-05-21T06:33:06Z</time>
      </trkpt>
      <trkpt lat="45.34844" lon="5.79001">
        <ele>827.9</ele>
        <time>2016-05-21T06:33:08Z</time>
      </trkpt>
      <trkpt lat="45.34846" lon="5.79017">
        <ele>827.6</ele>
        <time>2016-05-21T06:33:10Z</time>
      </trkpt>
      <trkpt lat="45.34849" lon="5.79032">
        <ele>828.3</ele>
        <time>2016-05-21T06:33:12Z</time>
      </trkpt>
      <trkpt lat="45.34845" lon="5.79049">
        <ele>829.6</ele>
        <time>2016-05-21T06:33:14Z</time>
      </trkpt>
      <trkpt lat="45.3484" lon="5.79064">
        <ele>830.7</ele>
        <time>2016-05-21T06:33:16Z</time>
      </trkpt>
      <trkpt lat="45.34833" lon="5.79075">
        <ele>829.9</ele>
        <time>2016-05-21T06:33:18Z</time>
      </trkpt>
      <trkpt lat="45.34825" lon="5.79088">
        <ele>829.7</ele>
        <time>2016-05-21T06:33:20Z</time>
      </trkpt>
      <trkpt lat="45.34817" lon="5.79099">
        <ele>829.8</ele>
        <time>2016-05-21T06:33:22Z</time>
      </trkpt>
      <trkpt lat="45.34808" lon="5.79109">
        <ele>829.6</ele>
        <time>2016-05-21T06:33:24Z</time>
      </trkpt>
      <trkpt lat="45.34801" lon="5.7912">
        <ele>828.7</ele>
        <time>2016-05-21T06:33:26Z</time>
      </trkpt>
      <trkpt lat="45.34792" lon="5.7913">
        <ele>827.5</ele>
        <time>2016-05-21T06:33:28Z</time>
      </trkpt>
      <trkpt lat="45.34782" lon="5.7914">
        <ele>826.8</ele>
        <time>2016-05-21T06:33:30Z</time>
      </trkpt>
      <trkpt lat="45.34773" lon="5.79152">
        <ele>825.3</ele>
        <time>2016-05-21T06:33:32Z</time>
      </trkpt>
      <trkpt lat="45.34763" lon="5.79162">
        <ele>824.8</ele>
        <time>2016-05-21T06:33:34Z</time>
      </trkpt>
      <trkpt lat="45.34754" lon="5.79172">
        <ele>825</ele>
        <time>2016-05-21T06:33:36Z</time>
      </trkpt>
      <trkpt lat="45.34745" lon="5.7918">
        <ele>824.9</ele>
        <time>2016-05-21T06:33:38Z</time>
      </trkpt>
      <trkpt lat="45.34735" lon="5.7919">
        <ele>824.2</ele>
        <time>2016-05-21T06:33:40Z</time>
      </trkpt>
      <trkpt lat="45.34726" lon="5.79199">
        <ele>823.5</ele>
        <time>2016-05-21T06:33:42Z</time>
      </trkpt>
      <trkpt lat="45.34718" lon="5.79211">
        <ele>823.8</ele>
        <time>2016-05-21T06:33:44Z</time>
      </trkpt>
      <trkpt lat="45.34711" lon="5.79221">
        <ele>823.7</ele>
        <time>2016-05-21T06:33:46Z</time>
      </trkpt>
      <trkpt lat="45.34706" lon="5.79235">
        <ele>823.7</ele>
        <time>2016-05-21T06:33:48Z</time>
      </trkpt>
      <trkpt lat="45.34701" lon="5.79247">
        <ele>824.5</ele>
        <time>2016-05-21T06:33:50Z</time>
      </trkpt>
      <trkpt lat="45.34698" lon="5.79262">
        <ele>826.6</ele>
        <time>2016-05-21T06:33:52Z</time>
      </trkpt>
      <trkpt lat="45.34697" lon="5.79277">
        <ele>828.2</ele>
        <time>2016-05-21T06:33:54Z</time>
      </trkpt>
      <trkpt lat="45.34696" lon="5.7929">
        <ele>829.5</ele>
        <time>2016-05-21T06:33:56Z</time>
      </trkpt>
      <trkpt lat="45.34692" lon="5.79304">
        <ele>831.3</ele>
        <time>2016-05-21T06:33:58Z</time>
      </trkpt>
      <trkpt lat="45.34687" lon="5.79318">
        <ele>831.6</ele>
        <time>2016-05-21T06:34:00Z</time>
      </trkpt>
      <trkpt lat="45.34682" lon="5.7933">
        <ele>831.5</ele>
        <time>2016-05-21T06:34:02Z</time>
      </trkpt>
      <trkpt lat="45.34676" lon="5.79341">
        <ele>831.8</ele>
        <time>2016-05-21T06:34:04Z</time>
      </trkpt>
      <trkpt lat="45.34671" lon="5.79351">
        <ele>831.8</ele>
        <time>2016-05-21T06:34:06Z</time>
      </trkpt>
      <trkpt lat="45.34667" lon="5.79363">
        <ele>832.7</ele>
        <time>2016-05-21T06:34:08Z</time>
      </trkpt>
      <trkpt lat="45.34665" lon="5.79375">
        <ele>832.7</ele>
        <time>2016-05-21T06:34:10Z</time>
      </trkpt>
      <trkpt lat="45.34662" lon="5.79388">
        <ele>832.9</ele>
        <time>2016-05-21T06:34:12Z</time>
      </trkpt>
      <trkpt lat="45.34661" lon="5.79402">
        <ele>834.3</ele>
        <time>2016-05-21T06:34:14Z</time>
      </trkpt>
      <trkpt lat="45.3466" lon="5.79417">
        <ele>837</ele>
        <time>2016-05-21T06:34:16Z</time>
      </trkpt>
      <trkpt lat="45.34659" lon="5.79433">
        <ele>836.8</ele>
        <time>2016-05-21T06:34:18Z</time>
      </trkpt>
      <trkpt lat="45.34658" lon="5.79448">
        <ele>835.1</ele>
        <time>2016-05-21T06:34:20Z</time>
      </trkpt>
      <trkpt lat="45.34655" lon="5.79465">
        <ele>833.4</ele>
        <time>2016-05-21T06:34:22Z</time>
      </trkpt>
      <trkpt lat="45.34649" lon="5.79478">
        <ele>832.4</ele>
        <time>2016-05-21T06:34:24Z</time>
      </trkpt>
      <trkpt lat="45.34641" lon="5.79489">
        <ele>831.7</ele>
        <time>2016-05-21T06:34:26Z</time>
      </trkpt>
      <trkpt lat="45.34633" lon="5.79497">
        <ele>830.6</ele>
        <time>2016-05-21T06:34:28Z</time>
      </trkpt>
      <trkpt lat="45.34626" lon="5.79504">
        <ele>829.8</ele>
        <time>2016-05-21T06:34:30Z</time>
      </trkpt>
      <trkpt lat="45.34618" lon="5.79514">
        <ele>828.2</ele>
        <time>2016-05-21T06:34:32Z</time>
      </trkpt>
      <trkpt lat="45.3461" lon="5.79523">
        <ele>827.9</ele>
        <time>2016-05-21T06:34:34Z</time>
      </trkpt>
      <trkpt lat="45.34605" lon="5.79534">
        <ele>827.5</ele>
        <time>2016-05-21T06:34:36Z</time>
      </trkpt>
      <trkpt lat="45.34599" lon="5.79545">
        <ele>828</ele>
        <time>2016-05-21T06:34:38Z</time>
      </trkpt>
      <trkpt lat="45.34595" lon="5.79558">
        <ele>829.2</ele>
        <time>2016-05-21T06:34:40Z</time>
      </trkpt>
      <trkpt lat="45.3459" lon="5.79571">
        <ele>830.9</ele>
        <time>2016-05-21T06:34:42Z</time>
      </trkpt>
      <trkpt lat="45.34584" lon="5.79584">
        <ele>833.7</ele>
        <time>2016-05-21T06:34:44Z</time>
      </trkpt>
      <trkpt lat="45.34579" lon="5.79598">
        <ele>834.9</ele>
        <time>2016-05-21T06:34:46Z</time>
      </trkpt>
      <trkpt lat="45.34575" lon="5.7961">
        <ele>835.1</ele>
        <time>2016-05-21T06:34:48Z</time>
      </trkpt>
      <trkpt lat="45.3457" lon="5.79622">
        <ele>834.9</ele>
        <time>2016-05-21T06:34:50Z</time>
      </trkpt>
      <trkpt lat="45.34566" lon="5.79634">
        <ele>834.9</ele>
        <time>2016-05-21T06:34:52Z</time>
      </trkpt>
      <trkpt lat="45.34562" lon="5.7965">
        <ele>835.6</ele>
        <time>2016-05-21T06:34:54Z</time>
      </trkpt>
      <trkpt lat="45.34557" lon="5.79665">
        <ele>835.2</ele>
        <time>2016-05-21T06:34:56Z</time>
      </trkpt>
      <trkpt lat="45.34552" lon="5.79681">
        <ele>834.7</ele>
        <time>2016-05-21T06:34:58Z</time>
      </trkpt>
      <trkpt lat="45.3455" lon="5.79697">
        <ele>834.1</ele>
        <time>2016-05-21T06:35:00Z</time>
      </trkpt>
      <trkpt lat="45.34545" lon="5.79713">
        <ele>832.8</ele>
        <time>2016-05-21T06:35:02Z</time>
      </trkpt>
      <trkpt lat="45.3454" lon="5.79727">
        <ele>834.3</ele>
        <time>2016-05-21T06:35:04Z</time>
      </trkpt>
      <trkpt lat="45.34534" lon="5.79743">
        <ele>834.5</ele>
        <time>2016-05-21T06:35:06Z</time>
      </trkpt>
      <trkpt lat="45.34528" lon="5.79761">
        <ele>835.2</ele>
        <time>2016-05-21T06:35:08Z</time>
      </trkpt>
      <trkpt lat="45.34521" lon="5.79774">
        <ele>836.4</ele>
        <time>2016-05-21T06:35:10Z</time>
      </trkpt>
      <trkpt lat="45.34514" lon="5.79786">
        <ele>836.4</ele>
        <time>2016-05-21T06:35:12Z</time>
      </trkpt>
      <trkpt lat="45.34505" lon="5.79797">
        <ele>836.6</ele>
        <time>2016-05-21T06:35:14Z</time>
      </trkpt>
      <trkpt lat="45.34496" lon="5.79809">
        <ele>837.6</ele>
        <time>2016-05-21T06:35:16Z</time>
      </trkpt>
      <trkpt lat="45.34486" lon="5.79819">
        <ele>837.4</ele>
        <time>2016-05-21T06:35:18Z</time>
      </trkpt>
      <trkpt lat="45.34476" lon="5.79832">
        <ele>836.2</ele>
        <time>2016-05-21T06:35:20Z</time>
      </trkpt>
      <trkpt lat="45.34467" lon="5.79843">
        <ele>836</ele>
        <time>2016-05-21T06:35:22Z</time>
      </trkpt>
      <trkpt lat="45.34457" lon="5.79852">
        <ele>837.6</ele>
        <time>2016-05-21T06:35:24Z</time>
      </trkpt>
      <trkpt lat="45.34449" lon="5.79859">
        <ele>840.1</ele>
        <time>2016-05-21T06:35:26Z</time>
      </trkpt>
      <trkpt lat="45.3444" lon="5.79868">
        <ele>839.8</ele>
        <time>2016-05-21T06:35:28Z</time>
      </trkpt>
      <trkpt lat="45.34435" lon="5.79875">
        <ele>839.7</ele>
        <time>2016-05-21T06:35:29Z</time>
      </trkpt>
      <trkpt lat="45.34425" lon="5.79888">
        <ele>840</ele>
        <time>2016-05-21T06:35:31Z</time>
      </trkpt>
      <trkpt lat="45.34418" lon="5.79901">
        <ele>839.4</ele>
        <time>2016-05-21T06:35:33Z</time>
      </trkpt>
      <trkpt lat="45.34414" lon="5.79919">
        <ele>839.1</ele>
        <time>2016-05-21T06:35:35Z</time>
      </trkpt>
      <trkpt lat="45.34408" lon="5.79931">
        <ele>837.9</ele>
        <time>2016-05-21T06:35:37Z</time>
      </trkpt>
      <trkpt lat="45.34405" lon="5.79945">
        <ele>837.1</ele>
        <time>2016-05-21T06:35:39Z</time>
      </trkpt>
      <trkpt lat="45.34404" lon="5.79962">
        <ele>837.2</ele>
        <time>2016-05-21T06:35:41Z</time>
      </trkpt>
      <trkpt lat="45.34404" lon="5.7998">
        <ele>835.7</ele>
        <time>2016-05-21T06:35:43Z</time>
      </trkpt>
      <trkpt lat="45.34404" lon="5.79996">
        <ele>834.7</ele>
        <time>2016-05-21T06:35:45Z</time>
      </trkpt>
      <trkpt lat="45.34404" lon="5.80012">
        <ele>835</ele>
        <time>2016-05-21T06:35:47Z</time>
      </trkpt>
      <trkpt lat="45.34403" lon="5.80026">
        <ele>835.8</ele>
        <time>2016-05-21T06:35:49Z</time>
      </trkpt>
      <trkpt lat="45.34403" lon="5.80042">
        <ele>837.2</ele>
        <time>2016-05-21T06:35:51Z</time>
      </trkpt>
      <trkpt lat="45.34401" lon="5.80057">
        <ele>838.5</ele>
        <time>2016-05-21T06:35:53Z</time>
      </trkpt>
      <trkpt lat="45.34396" lon="5.80068">
        <ele>839.3</ele>
        <time>2016-05-21T06:35:55Z</time>
      </trkpt>
      <trkpt lat="45.34389" lon="5.80078">
        <ele>840.8</ele>
        <time>2016-05-21T06:35:57Z</time>
      </trkpt>
      <trkpt lat="45.34384" lon="5.80086">
        <ele>841.7</ele>
        <time>2016-05-21T06:35:59Z</time>
      </trkpt>
      <trkpt lat="45.3438" lon="5.80097">
        <ele>844.1</ele>
        <time>2016-05-21T06:36:01Z</time>
      </trkpt>
      <trkpt lat="45.34378" lon="5.8011">
        <ele>846.4</ele>
        <time>2016-05-21T06:36:03Z</time>
      </trkpt>
      <trkpt lat="45.34376" lon="5.80122">
        <ele>848.2</ele>
        <time>2016-05-21T06:36:05Z</time>
      </trkpt>
      <trkpt lat="45.34375" lon="5.80134">
        <ele>851</ele>
        <time>2016-05-21T06:36:07Z</time>
      </trkpt>
      <trkpt lat="45.34372" lon="5.80146">
        <ele>853.1</ele>
        <time>2016-05-21T06:36:09Z</time>
      </trkpt>
      <trkpt lat="45.34369" lon="5.80158">
        <ele>853.4</ele>
        <time>2016-05-21T06:36:11Z</time>
      </trkpt>
      <trkpt lat="45.34366" lon="5.80171">
        <ele>853.6</ele>
        <time>2016-05-21T06:36:13Z</time>
      </trkpt>
      <trkpt lat="45.34362" lon="5.80183">
        <ele>852.9</ele>
        <time>2016-05-21T06:36:15Z</time>
      </trkpt>
      <trkpt lat="45.34356" lon="5.80192">
        <ele>851.7</ele>
        <time>2016-05-21T06:36:17Z</time>
      </trkpt>
      <trkpt lat="45.34348" lon="5.80202">
        <ele>850.6</ele>
        <time>2016-05-21T06:36:19Z</time>
      </trkpt>
      <trkpt lat="45.34342" lon="5.80211">
        <ele>849</ele>
        <time>2016-05-21T06:36:21Z</time>
      </trkpt>
      <trkpt lat="45.34336" lon="5.80221">
        <ele>849.3</ele>
        <time>2016-05-21T06:36:23Z</time>
      </trkpt>
      <trkpt lat="45.34329" lon="5.80233">
        <ele>848.9</ele>
        <time>2016-05-21T06:36:25Z</time>
      </trkpt>
      <trkpt lat="45.34324" lon="5.80243">
        <ele>848.3</ele>
        <time>2016-05-21T06:36:27Z</time>
      </trkpt>
      <trkpt lat="45.34319" lon="5.80254">
        <ele>849.8</ele>
        <time>2016-05-21T06:36:29Z</time>
      </trkpt>
      <trkpt lat="45.34313" lon="5.80265">
        <ele>851</ele>
        <time>2016-05-21T06:36:31Z</time>
      </trkpt>
      <trkpt lat="45.34305" lon="5.80273">
        <ele>850.7</ele>
        <time>2016-05-21T06:36:33Z</time>
      </trkpt>
      <trkpt lat="45.34299" lon="5.80283">
        <ele>849.2</ele>
        <time>2016-05-21T06:36:35Z</time>
      </trkpt>
      <trkpt lat="45.34292" lon="5.80291">
        <ele>847.8</ele>
        <time>2016-05-21T06:36:37Z</time>
      </trkpt>
      <trkpt lat="45.34284" lon="5.80295">
        <ele>848.2</ele>
        <time>2016-05-21T06:36:39Z</time>
      </trkpt>
      <trkpt lat="45.34274" lon="5.803">
        <ele>848.7</ele>
        <time>2016-05-21T06:36:41Z</time>
      </trkpt>
      <trkpt lat="45.34266" lon="5.80308">
        <ele>849.9</ele>
        <time>2016-05-21T06:36:43Z</time>
      </trkpt>
      <trkpt lat="45.34257" lon="5.80313">
        <ele>851.6</ele>
        <time>2016-05-21T06:36:45Z</time>
      </trkpt>
      <trkpt lat="45.34248" lon="5.80318">
        <ele>855</ele>
        <time>2016-05-21T06:36:47Z</time>
      </trkpt>
      <trkpt lat="45.34242" lon="5.80324">
        <ele>856.4</ele>
        <time>2016-05-21T06:36:49Z</time>
      </trkpt>
      <trkpt lat="45.34233" lon="5.80331">
        <ele>859.5</ele>
        <time>2016-05-21T06:36:51Z</time>
      </trkpt>
      <trkpt lat="45.34224" lon="5.80336">
        <ele>860.9</ele>
        <time>2016-05-21T06:36:53Z</time>
      </trkpt>
      <trkpt lat="45.34214" lon="5.80346">
        <ele>863.3</ele>
        <time>2016-05-21T06:36:56Z</time>
      </trkpt>
      <trkpt lat="45.34203" lon="5.8035">
        <ele>867.8</ele>
        <time>2016-05-21T06:36:58Z</time>
      </trkpt>
      <trkpt lat="45.34196" lon="5.80357">
        <ele>869.6</ele>
        <time>2016-05-21T06:37:00Z</time>
      </trkpt>
      <trkpt lat="45.34186" lon="5.80362">
        <ele>871.7</ele>
        <time>2016-05-21T06:37:02Z</time>
      </trkpt>
      <trkpt lat="45.34176" lon="5.80367">
        <ele>874</ele>
        <time>2016-05-21T06:37:04Z</time>
      </trkpt>
      <trkpt lat="45.34167" lon="5.80371">
        <ele>875.2</ele>
        <time>2016-05-21T06:37:06Z</time>
      </trkpt>
      <trkpt lat="45.34157" lon="5.80376">
        <ele>878.4</ele>
        <time>2016-05-21T06:37:08Z</time>
      </trkpt>
      <trkpt lat="45.34148" lon="5.80377">
        <ele>879.3</ele>
        <time>2016-05-21T06:37:10Z</time>
      </trkpt>
      <trkpt lat="45.34136" lon="5.80382">
        <ele>879.4</ele>
        <time>2016-05-21T06:37:12Z</time>
      </trkpt>
      <trkpt lat="45.34127" lon="5.80387">
        <ele>878.7</ele>
        <time>2016-05-21T06:37:14Z</time>
      </trkpt>
      <trkpt lat="45.34119" lon="5.80396">
        <ele>877.5</ele>
        <time>2016-05-21T06:37:16Z</time>
      </trkpt>
      <trkpt lat="45.34107" lon="5.80406">
        <ele>875.1</ele>
        <time>2016-05-21T06:37:18Z</time>
      </trkpt>
      <trkpt lat="45.34096" lon="5.80417">
        <ele>870.1</ele>
        <time>2016-05-21T06:37:20Z</time>
      </trkpt>
      <trkpt lat="45.34085" lon="5.80427">
        <ele>864.7</ele>
        <time>2016-05-21T06:37:22Z</time>
      </trkpt>
      <trkpt lat="45.34075" lon="5.80435">
        <ele>859.2</ele>
        <time>2016-05-21T06:37:24Z</time>
      </trkpt>
      <trkpt lat="45.34065" lon="5.80448">
        <ele>855.8</ele>
        <time>2016-05-21T06:37:26Z</time>
      </trkpt>
      <trkpt lat="45.34058" lon="5.80458">
        <ele>853.9</ele>
        <time>2016-05-21T06:37:28Z</time>
      </trkpt>
      <trkpt lat="45.34052" lon="5.80469">
        <ele>853.2</ele>
        <time>2016-05-21T06:37:30Z</time>
      </trkpt>
      <trkpt lat="45.34047" lon="5.80481">
        <ele>853.9</ele>
        <time>2016-05-21T06:37:32Z</time>
      </trkpt>
      <trkpt lat="45.34041" lon="5.80494">
        <ele>854.9</ele>
        <time>2016-05-21T06:37:34Z</time>
      </trkpt>
      <trkpt lat="45.34035" lon="5.80508">
        <ele>854.7</ele>
        <time>2016-05-21T06:37:36Z</time>
      </trkpt>
      <trkpt lat="45.34027" lon="5.80519">
        <ele>854.3</ele>
        <time>2016-05-21T06:37:38Z</time>
      </trkpt>
      <trkpt lat="45.34021" lon="5.80529">
        <ele>854.4</ele>
        <time>2016-05-21T06:37:40Z</time>
      </trkpt>
      <trkpt lat="45.34012" lon="5.80534">
        <ele>853.7</ele>
        <time>2016-05-21T06:37:42Z</time>
      </trkpt>
      <trkpt lat="45.34005" lon="5.80536">
        <ele>852.4</ele>
        <time>2016-05-21T06:37:44Z</time>
      </trkpt>
      <trkpt lat="45.33997" lon="5.8054">
        <ele>852</ele>
        <time>2016-05-21T06:37:47Z</time>
      </trkpt>
      <trkpt lat="45.33989" lon="5.80544">
        <ele>851.9</ele>
        <time>2016-05-21T06:37:49Z</time>
      </trkpt>
      <trkpt lat="45.33982" lon="5.80547">
        <ele>851.8</ele>
        <time>2016-05-21T06:37:51Z</time>
      </trkpt>
      <trkpt lat="45.33972" lon="5.80552">
        <ele>851.7</ele>
        <time>2016-05-21T06:37:54Z</time>
      </trkpt>
      <trkpt lat="45.33964" lon="5.80557">
        <ele>851.7</ele>
        <time>2016-05-21T06:37:57Z</time>
      </trkpt>
      <trkpt lat="45.33956" lon="5.80559">
        <ele>851.8</ele>
        <time>2016-05-21T06:38:00Z</time>
      </trkpt>
      <trkpt lat="45.33948" lon="5.80562">
        <ele>852</ele>
        <time>2016-05-21T06:38:03Z</time>
      </trkpt>
      <trkpt lat="45.33941" lon="5.80559">
        <ele>852.4</ele>
        <time>2016-05-21T06:38:08Z</time>
      </trkpt>
      <trkpt lat="45.33942" lon="5.80547">
        <ele>852.7</ele>
        <time>2016-05-21T06:38:12Z</time>
      </trkpt>
      <trkpt lat="45.3395" lon="5.80541">
        <ele>852.9</ele>
        <time>2016-05-21T06:38:16Z</time>
      </trkpt>
      <trkpt lat="45.33958" lon="5.80536">
        <ele>853</ele>
        <time>2016-05-21T06:38:20Z</time>
      </trkpt>
      <trkpt lat="45.33966" lon="5.8053">
        <ele>853.1</ele>
        <time>2016-05-21T06:38:23Z</time>
      </trkpt>
      <trkpt lat="45.33973" lon="5.80526">
        <ele>853.1</ele>
        <time>2016-05-21T06:38:26Z</time>
      </trkpt>
      <trkpt lat="45.33979" lon="5.8052">
        <ele>853</ele>
        <time>2016-05-21T06:38:29Z</time>
      </trkpt>
      <trkpt lat="45.33984" lon="5.80511">
        <ele>852.8</ele>
        <time>2016-05-21T06:38:33Z</time>
      </trkpt>
      <trkpt lat="45.33986" lon="5.805">
        <ele>853.2</ele>
        <time>2016-05-21T06:38:37Z</time>
      </trkpt>
      <trkpt lat="45.33986" lon="5.80489">
        <ele>853.8</ele>
        <time>2016-05-21T06:38:41Z</time>
      </trkpt>
      <trkpt lat="45.33987" lon="5.80476">
        <ele>854.6</ele>
        <time>2016-05-21T06:38:45Z</time>
      </trkpt>
      <trkpt lat="45.33987" lon="5.80466">
        <ele>855.5</ele>
        <time>2016-05-21T06:38:50Z</time>
      </trkpt>
      <trkpt lat="45.33988" lon="5.80455">
        <ele>855.9</ele>
        <time>2016-05-21T06:38:53Z</time>
      </trkpt>
      <trkpt lat="45.33989" lon="5.80443">
        <ele>856.5</ele>
        <time>2016-05-21T06:38:56Z</time>
      </trkpt>
      <trkpt lat="45.33992" lon="5.80433">
        <ele>857.3</ele>
        <time>2016-05-21T06:38:59Z</time>
      </trkpt>
      <trkpt lat="45.33996" lon="5.80423">
        <ele>858.3</ele>
        <time>2016-05-21T06:39:03Z</time>
      </trkpt>
      <trkpt lat="45.34" lon="5.80415">
        <ele>859.6</ele>
        <time>2016-05-21T06:39:07Z</time>
      </trkpt>
      <trkpt lat="45.34006" lon="5.80406">
        <ele>860.8</ele>
        <time>2016-05-21T06:39:11Z</time>
      </trkpt>
      <trkpt lat="45.34012" lon="5.80399">
        <ele>862</ele>
        <time>2016-05-21T06:39:15Z</time>
      </trkpt>
      <trkpt lat="45.34018" lon="5.80392">
        <ele>862.8</ele>
        <time>2016-05-21T06:39:18Z</time>
      </trkpt>
      <trkpt lat="45.34022" lon="5.80381">
        <ele>863.7</ele>
        <time>2016-05-21T06:39:22Z</time>
      </trkpt>
      <trkpt lat="45.34026" lon="5.8037">
        <ele>865.3</ele>
        <time>2016-05-21T06:39:28Z</time>
      </trkpt>
      <trkpt lat="45.34028" lon="5.80358">
        <ele>866.3</ele>
        <time>2016-05-21T06:39:32Z</time>
      </trkpt>
      <trkpt lat="45.34033" lon="5.80348">
        <ele>867.5</ele>
        <time>2016-05-21T06:39:36Z</time>
      </trkpt>
      <trkpt lat="45.34038" lon="5.80339">
        <ele>869.3</ele>
        <time>2016-05-21T06:39:41Z</time>
      </trkpt>
      <trkpt lat="45.34044" lon="5.80329">
        <ele>871.6</ele>
        <time>2016-05-21T06:39:46Z</time>
      </trkpt>
      <trkpt lat="45.34047" lon="5.8032">
        <ele>872.9</ele>
        <time>2016-05-21T06:39:49Z</time>
      </trkpt>
      <trkpt lat="45.34048" lon="5.80309">
        <ele>874.4</ele>
        <time>2016-05-21T06:39:52Z</time>
      </trkpt>
      <trkpt lat="45.34048" lon="5.80296">
        <ele>875.9</ele>
        <time>2016-05-21T06:39:55Z</time>
      </trkpt>
      <trkpt lat="45.34046" lon="5.80279">
        <ele>876.8</ele>
        <time>2016-05-21T06:39:57Z</time>
      </trkpt>
      <trkpt lat="45.34042" lon="5.80271">
        <ele>878</ele>
        <time>2016-05-21T06:40:02Z</time>
      </trkpt>
      <trkpt lat="45.34033" lon="5.80274">
        <ele>878.8</ele>
        <time>2016-05-21T06:40:06Z</time>
      </trkpt>
      <trkpt lat="45.34026" lon="5.80278">
        <ele>879.1</ele>
        <time>2016-05-21T06:40:09Z</time>
      </trkpt>
      <trkpt lat="45.34019" lon="5.80282">
        <ele>879.9</ele>
        <time>2016-05-21T06:40:13Z</time>
      </trkpt>
      <trkpt lat="45.34011" lon="5.80284">
        <ele>880.9</ele>
        <time>2016-05-21T06:40:17Z</time>
      </trkpt>
      <trkpt lat="45.34003" lon="5.80287">
        <ele>881.5</ele>
        <time>2016-05-21T06:40:20Z</time>
      </trkpt>
      <trkpt lat="45.33994" lon="5.80291">
        <ele>882.3</ele>
        <time>2016-05-21T06:40:23Z</time>
      </trkpt>
      <trkpt lat="45.33986" lon="5.80297">
        <ele>883.6</ele>
        <time>2016-05-21T06:40:28Z</time>
      </trkpt>
      <trkpt lat="45.33981" lon="5.80304">
        <ele>884.5</ele>
        <time>2016-05-21T06:40:31Z</time>
      </trkpt>
      <trkpt lat="45.33973" lon="5.8031">
        <ele>885.5</ele>
        <time>2016-05-21T06:40:36Z</time>
      </trkpt>
      <trkpt lat="45.33965" lon="5.80314">
        <ele>886.4</ele>
        <time>2016-05-21T06:40:39Z</time>
      </trkpt>
      <trkpt lat="45.33958" lon="5.80317">
        <ele>887.3</ele>
        <time>2016-05-21T06:40:42Z</time>
      </trkpt>
      <trkpt lat="45.3395" lon="5.80321">
        <ele>888.1</ele>
        <time>2016-05-21T06:40:45Z</time>
      </trkpt>
      <trkpt lat="45.33942" lon="5.80324">
        <ele>889.1</ele>
        <time>2016-05-21T06:40:48Z</time>
      </trkpt>
      <trkpt lat="45.33935" lon="5.80327">
        <ele>890</ele>
        <time>2016-05-21T06:40:51Z</time>
      </trkpt>
      <trkpt lat="45.33926" lon="5.8033">
        <ele>891.3</ele>
        <time>2016-05-21T06:40:55Z</time>
      </trkpt>
      <trkpt lat="45.33917" lon="5.80333">
        <ele>891.9</ele>
        <time>2016-05-21T06:40:58Z</time>
      </trkpt>
      <trkpt lat="45.33909" lon="5.80336">
        <ele>892.4</ele>
        <time>2016-05-21T06:41:01Z</time>
      </trkpt>
      <trkpt lat="45.33902" lon="5.80338">
        <ele>893</ele>
        <time>2016-05-21T06:41:04Z</time>
      </trkpt>
      <trkpt lat="45.33895" lon="5.8034">
        <ele>893.6</ele>
        <time>2016-05-21T06:41:07Z</time>
      </trkpt>
      <trkpt lat="45.33886" lon="5.80343">
        <ele>894.8</ele>
        <time>2016-05-21T06:41:11Z</time>
      </trkpt>
      <trkpt lat="45.33878" lon="5.80346">
        <ele>896</ele>
        <time>2016-05-21T06:41:15Z</time>
      </trkpt>
      <trkpt lat="45.3387" lon="5.8035">
        <ele>897.2</ele>
        <time>2016-05-21T06:41:19Z</time>
      </trkpt>
      <trkpt lat="45.33862" lon="5.80352">
        <ele>898.3</ele>
        <time>2016-05-21T06:41:23Z</time>
      </trkpt>
      <trkpt lat="45.33854" lon="5.80352">
        <ele>899.3</ele>
        <time>2016-05-21T06:41:27Z</time>
      </trkpt>
      <trkpt lat="45.33847" lon="5.80349">
        <ele>900.5</ele>
        <time>2016-05-21T06:41:30Z</time>
      </trkpt>
      <trkpt lat="45.33839" lon="5.80342">
        <ele>901.9</ele>
        <time>2016-05-21T06:41:34Z</time>
      </trkpt>
      <trkpt lat="45.33832" lon="5.80338">
        <ele>902.8</ele>
        <time>2016-05-21T06:41:37Z</time>
      </trkpt>
      <trkpt lat="45.33823" lon="5.80333">
        <ele>904.1</ele>
        <time>2016-05-21T06:41:41Z</time>
      </trkpt>
      <trkpt lat="45.33815" lon="5.80329">
        <ele>905.3</ele>
        <time>2016-05-21T06:41:45Z</time>
      </trkpt>
      <trkpt lat="45.33808" lon="5.80325">
        <ele>906.2</ele>
        <time>2016-05-21T06:41:48Z</time>
      </trkpt>
      <trkpt lat="45.33801" lon="5.80321">
        <ele>907</ele>
        <time>2016-05-21T06:41:51Z</time>
      </trkpt>
      <trkpt lat="45.33795" lon="5.80317">
        <ele>908.3</ele>
        <time>2016-05-21T06:41:55Z</time>
      </trkpt>
      <trkpt lat="45.33788" lon="5.80312">
        <ele>909.7</ele>
        <time>2016-05-21T06:41:59Z</time>
      </trkpt>
      <trkpt lat="45.33781" lon="5.80305">
        <ele>911</ele>
        <time>2016-05-21T06:42:03Z</time>
      </trkpt>
      <trkpt lat="45.33776" lon="5.80294">
        <ele>912.2</ele>
        <time>2016-05-21T06:42:07Z</time>
      </trkpt>
      <trkpt lat="45.33769" lon="5.80285">
        <ele>913.3</ele>
        <time>2016-05-21T06:42:11Z</time>
      </trkpt>
      <trkpt lat="45.33762" lon="5.80278">
        <ele>914.4</ele>
        <time>2016-05-21T06:42:15Z</time>
      </trkpt>
      <trkpt lat="45.33754" lon="5.8027">
        <ele>915.6</ele>
        <time>2016-05-21T06:42:19Z</time>
      </trkpt>
      <trkpt lat="45.33747" lon="5.80262">
        <ele>916.3</ele>
        <time>2016-05-21T06:42:23Z</time>
      </trkpt>
      <trkpt lat="45.33739" lon="5.80256">
        <ele>917.1</ele>
        <time>2016-05-21T06:42:27Z</time>
      </trkpt>
      <trkpt lat="45.33733" lon="5.8025">
        <ele>917.9</ele>
        <time>2016-05-21T06:42:31Z</time>
      </trkpt>
      <trkpt lat="45.33726" lon="5.80244">
        <ele>918.5</ele>
        <time>2016-05-21T06:42:35Z</time>
      </trkpt>
      <trkpt lat="45.33718" lon="5.80241">
        <ele>919.2</ele>
        <time>2016-05-21T06:42:39Z</time>
      </trkpt>
      <trkpt lat="45.33709" lon="5.80239">
        <ele>920</ele>
        <time>2016-05-21T06:42:43Z</time>
      </trkpt>
      <trkpt lat="45.33702" lon="5.80239">
        <ele>920.4</ele>
        <time>2016-05-21T06:42:46Z</time>
      </trkpt>
      <trkpt lat="45.33692" lon="5.80241">
        <ele>920.9</ele>
        <time>2016-05-21T06:42:50Z</time>
      </trkpt>
      <trkpt lat="45.33684" lon="5.80244">
        <ele>921.3</ele>
        <time>2016-05-21T06:42:54Z</time>
      </trkpt>
      <trkpt lat="45.33677" lon="5.80248">
        <ele>921.5</ele>
        <time>2016-05-21T06:42:59Z</time>
      </trkpt>
      <trkpt lat="45.3367" lon="5.80252">
        <ele>921.7</ele>
        <time>2016-05-21T06:43:02Z</time>
      </trkpt>
      <trkpt lat="45.33663" lon="5.80259">
        <ele>922</ele>
        <time>2016-05-21T06:43:06Z</time>
      </trkpt>
      <trkpt lat="45.33655" lon="5.80265">
        <ele>922.9</ele>
        <time>2016-05-21T06:43:11Z</time>
      </trkpt>
      <trkpt lat="45.33645" lon="5.8027">
        <ele>923.7</ele>
        <time>2016-05-21T06:43:15Z</time>
      </trkpt>
      <trkpt lat="45.33636" lon="5.80276">
        <ele>924.2</ele>
        <time>2016-05-21T06:43:18Z</time>
      </trkpt>
      <trkpt lat="45.33629" lon="5.80278">
        <ele>924.4</ele>
        <time>2016-05-21T06:43:20Z</time>
      </trkpt>
      <trkpt lat="45.3362" lon="5.80282">
        <ele>924.6</ele>
        <time>2016-05-21T06:43:23Z</time>
      </trkpt>
      <trkpt lat="45.33611" lon="5.80285">
        <ele>925.1</ele>
        <time>2016-05-21T06:43:27Z</time>
      </trkpt>
      <trkpt lat="45.33601" lon="5.80287">
        <ele>925.7</ele>
        <time>2016-05-21T06:43:30Z</time>
      </trkpt>
      <trkpt lat="45.33591" lon="5.80288">
        <ele>926.1</ele>
        <time>2016-05-21T06:43:32Z</time>
      </trkpt>
      <trkpt lat="45.3358" lon="5.80289">
        <ele>929.2</ele>
        <time>2016-05-21T06:43:34Z</time>
      </trkpt>
      <trkpt lat="45.33569" lon="5.8029">
        <ele>930.9</ele>
        <time>2016-05-21T06:43:36Z</time>
      </trkpt>
      <trkpt lat="45.33559" lon="5.80291">
        <ele>931.3</ele>
        <time>2016-05-21T06:43:38Z</time>
      </trkpt>
      <trkpt lat="45.33548" lon="5.8029">
        <ele>930.8</ele>
        <time>2016-05-21T06:43:41Z</time>
      </trkpt>
      <trkpt lat="45.33541" lon="5.80289">
        <ele>929.9</ele>
        <time>2016-05-21T06:43:43Z</time>
      </trkpt>
      <trkpt lat="45.33531" lon="5.80282">
        <ele>929.9</ele>
        <time>2016-05-21T06:43:46Z</time>
      </trkpt>
      <trkpt lat="45.33522" lon="5.80277">
        <ele>930.1</ele>
        <time>2016-05-21T06:43:49Z</time>
      </trkpt>
      <trkpt lat="45.33512" lon="5.80272">
        <ele>931.4</ele>
        <time>2016-05-21T06:43:52Z</time>
      </trkpt>
      <trkpt lat="45.33506" lon="5.80268">
        <ele>931.6</ele>
        <time>2016-05-21T06:43:54Z</time>
      </trkpt>
      <trkpt lat="45.33499" lon="5.80263">
        <ele>931.6</ele>
        <time>2016-05-21T06:43:56Z</time>
      </trkpt>
      <trkpt lat="45.33489" lon="5.80256">
        <ele>931.7</ele>
        <time>2016-05-21T06:43:59Z</time>
      </trkpt>
      <trkpt lat="45.33481" lon="5.80251">
        <ele>932.6</ele>
        <time>2016-05-21T06:44:01Z</time>
      </trkpt>
      <trkpt lat="45.33471" lon="5.80244">
        <ele>934.1</ele>
        <time>2016-05-21T06:44:03Z</time>
      </trkpt>
      <trkpt lat="45.3346" lon="5.80238">
        <ele>934.8</ele>
        <time>2016-05-21T06:44:05Z</time>
      </trkpt>
      <trkpt lat="45.33448" lon="5.80228">
        <ele>936.1</ele>
        <time>2016-05-21T06:44:07Z</time>
      </trkpt>
      <trkpt lat="45.33442" lon="5.80222">
        <ele>936.3</ele>
        <time>2016-05-21T06:44:08Z</time>
      </trkpt>
      <trkpt lat="45.33434" lon="5.80216">
        <ele>936.6</ele>
        <time>2016-05-21T06:44:09Z</time>
      </trkpt>
      <trkpt lat="45.33426" lon="5.80209">
        <ele>936.6</ele>
        <time>2016-05-21T06:44:10Z</time>
      </trkpt>
      <trkpt lat="45.33418" lon="5.80202">
        <ele>936.4</ele>
        <time>2016-05-21T06:44:11Z</time>
      </trkpt>
      <trkpt lat="45.3341" lon="5.80197">
        <ele>935.9</ele>
        <time>2016-05-21T06:44:12Z</time>
      </trkpt>
      <trkpt lat="45.33403" lon="5.80192">
        <ele>934.8</ele>
        <time>2016-05-21T06:44:13Z</time>
      </trkpt>
      <trkpt lat="45.33395" lon="5.80187">
        <ele>934.1</ele>
        <time>2016-05-21T06:44:14Z</time>
      </trkpt>
      <trkpt lat="45.33389" lon="5.80183">
        <ele>933.5</ele>
        <time>2016-05-21T06:44:15Z</time>
      </trkpt>
      <trkpt lat="45.33377" lon="5.80174">
        <ele>931.9</ele>
        <time>2016-05-21T06:44:17Z</time>
      </trkpt>
      <trkpt lat="45.33366" lon="5.80167">
        <ele>931.5</ele>
        <time>2016-05-21T06:44:19Z</time>
      </trkpt>
      <trkpt lat="45.33355" lon="5.80159">
        <ele>931.9</ele>
        <time>2016-05-21T06:44:21Z</time>
      </trkpt>
      <trkpt lat="45.33345" lon="5.80151">
        <ele>931.6</ele>
        <time>2016-05-21T06:44:23Z</time>
      </trkpt>
      <trkpt lat="45.33335" lon="5.80143">
        <ele>931</ele>
        <time>2016-05-21T06:44:25Z</time>
      </trkpt>
      <trkpt lat="45.33323" lon="5.80133">
        <ele>930.6</ele>
        <time>2016-05-21T06:44:27Z</time>
      </trkpt>
      <trkpt lat="45.33312" lon="5.80125">
        <ele>929.4</ele>
        <time>2016-05-21T06:44:29Z</time>
      </trkpt>
      <trkpt lat="45.33305" lon="5.80122">
        <ele>929.6</ele>
        <time>2016-05-21T06:44:30Z</time>
      </trkpt>
      <trkpt lat="45.33298" lon="5.8012">
        <ele>929.4</ele>
        <time>2016-05-21T06:44:31Z</time>
      </trkpt>
      <trkpt lat="45.33287" lon="5.80116">
        <ele>928.5</ele>
        <time>2016-05-21T06:44:33Z</time>
      </trkpt>
      <trkpt lat="45.33277" lon="5.80111">
        <ele>928.2</ele>
        <time>2016-05-21T06:44:35Z</time>
      </trkpt>
      <trkpt lat="45.33265" lon="5.80104">
        <ele>928.5</ele>
        <time>2016-05-21T06:44:37Z</time>
      </trkpt>
      <trkpt lat="45.33256" lon="5.80096">
        <ele>928.7</ele>
        <time>2016-05-21T06:44:39Z</time>
      </trkpt>
      <trkpt lat="45.33247" lon="5.80088">
        <ele>928.7</ele>
        <time>2016-05-21T06:44:41Z</time>
      </trkpt>
      <trkpt lat="45.33237" lon="5.80079">
        <ele>927.8</ele>
        <time>2016-05-21T06:44:43Z</time>
      </trkpt>
      <trkpt lat="45.33229" lon="5.8007">
        <ele>927.9</ele>
        <time>2016-05-21T06:44:45Z</time>
      </trkpt>
      <trkpt lat="45.33219" lon="5.80063">
        <ele>929.8</ele>
        <time>2016-05-21T06:44:47Z</time>
      </trkpt>
      <trkpt lat="45.33208" lon="5.80059">
        <ele>931.2</ele>
        <time>2016-05-21T06:44:49Z</time>
      </trkpt>
      <trkpt lat="45.33197" lon="5.80055">
        <ele>930.9</ele>
        <time>2016-05-21T06:44:51Z</time>
      </trkpt>
      <trkpt lat="45.33186" lon="5.80053">
        <ele>931.2</ele>
        <time>2016-05-21T06:44:53Z</time>
      </trkpt>
      <trkpt lat="45.33176" lon="5.80051">
        <ele>931.1</ele>
        <time>2016-05-21T06:44:55Z</time>
      </trkpt>
      <trkpt lat="45.33168" lon="5.80049">
        <ele>930.7</ele>
        <time>2016-05-21T06:44:57Z</time>
      </trkpt>
      <trkpt lat="45.33159" lon="5.80049">
        <ele>930.7</ele>
        <time>2016-05-21T06:44:59Z</time>
      </trkpt>
      <trkpt lat="45.33149" lon="5.80048">
        <ele>931.3</ele>
        <time>2016-05-21T06:45:01Z</time>
      </trkpt>
      <trkpt lat="45.33141" lon="5.80045">
        <ele>931.8</ele>
        <time>2016-05-21T06:45:03Z</time>
      </trkpt>
      <trkpt lat="45.33134" lon="5.80039">
        <ele>933.3</ele>
        <time>2016-05-21T06:45:05Z</time>
      </trkpt>
      <trkpt lat="45.33126" lon="5.80034">
        <ele>934.1</ele>
        <time>2016-05-21T06:45:07Z</time>
      </trkpt>
      <trkpt lat="45.33117" lon="5.80029">
        <ele>934.9</ele>
        <time>2016-05-21T06:45:09Z</time>
      </trkpt>
      <trkpt lat="45.33107" lon="5.80024">
        <ele>935.7</ele>
        <time>2016-05-21T06:45:11Z</time>
      </trkpt>
      <trkpt lat="45.33097" lon="5.80018">
        <ele>936.2</ele>
        <time>2016-05-21T06:45:13Z</time>
      </trkpt>
      <trkpt lat="45.33087" lon="5.80012">
        <ele>936.3</ele>
        <time>2016-05-21T06:45:15Z</time>
      </trkpt>
      <trkpt lat="45.33078" lon="5.80005">
        <ele>935.8</ele>
        <time>2016-05-21T06:45:17Z</time>
      </trkpt>
      <trkpt lat="45.33071" lon="5.8">
        <ele>935</ele>
        <time>2016-05-21T06:45:19Z</time>
      </trkpt>
      <trkpt lat="45.33062" lon="5.79995">
        <ele>934.9</ele>
        <time>2016-05-21T06:45:21Z</time>
      </trkpt>
      <trkpt lat="45.33053" lon="5.7999">
        <ele>935.3</ele>
        <time>2016-05-21T06:45:23Z</time>
      </trkpt>
      <trkpt lat="45.33044" lon="5.79985">
        <ele>935.5</ele>
        <time>2016-05-21T06:45:25Z</time>
      </trkpt>
      <trkpt lat="45.33034" lon="5.79979">
        <ele>934.5</ele>
        <time>2016-05-21T06:45:27Z</time>
      </trkpt>
      <trkpt lat="45.33025" lon="5.79974">
        <ele>934.1</ele>
        <time>2016-05-21T06:45:29Z</time>
      </trkpt>
      <trkpt lat="45.33015" lon="5.79969">
        <ele>934.9</ele>
        <time>2016-05-21T06:45:31Z</time>
      </trkpt>
      <trkpt lat="45.33006" lon="5.79963">
        <ele>936.3</ele>
        <time>2016-05-21T06:45:33Z</time>
      </trkpt>
      <trkpt lat="45.32996" lon="5.79956">
        <ele>937</ele>
        <time>2016-05-21T06:45:35Z</time>
      </trkpt>
      <trkpt lat="45.32987" lon="5.79949">
        <ele>937.5</ele>
        <time>2016-05-21T06:45:37Z</time>
      </trkpt>
      <trkpt lat="45.32977" lon="5.79942">
        <ele>937.5</ele>
        <time>2016-05-21T06:45:39Z</time>
      </trkpt>
      <trkpt lat="45.32968" lon="5.79936">
        <ele>937.3</ele>
        <time>2016-05-21T06:45:41Z</time>
      </trkpt>
      <trkpt lat="45.32958" lon="5.79929">
        <ele>937.7</ele>
        <time>2016-05-21T06:45:43Z</time>
      </trkpt>
      <trkpt lat="45.32949" lon="5.79923">
        <ele>938.1</ele>
        <time>2016-05-21T06:45:45Z</time>
      </trkpt>
      <trkpt lat="45.3294" lon="5.79918">
        <ele>938.9</ele>
        <time>2016-05-21T06:45:47Z</time>
      </trkpt>
      <trkpt lat="45.32931" lon="5.79912">
        <ele>939.8</ele>
        <time>2016-05-21T06:45:49Z</time>
      </trkpt>
      <trkpt lat="45.32923" lon="5.79905">
        <ele>940.6</ele>
        <time>2016-05-21T06:45:51Z</time>
      </trkpt>
      <trkpt lat="45.32915" lon="5.79897">
        <ele>940.3</ele>
        <time>2016-05-21T06:45:53Z</time>
      </trkpt>
      <trkpt lat="45.32908" lon="5.79891">
        <ele>939.5</ele>
        <time>2016-05-21T06:45:55Z</time>
      </trkpt>
      <trkpt lat="45.32899" lon="5.79884">
        <ele>938.4</ele>
        <time>2016-05-21T06:45:57Z</time>
      </trkpt>
      <trkpt lat="45.3289" lon="5.79878">
        <ele>937.4</ele>
        <time>2016-05-21T06:45:59Z</time>
      </trkpt>
      <trkpt lat="45.32882" lon="5.79872">
        <ele>936.6</ele>
        <time>2016-05-21T06:46:01Z</time>
      </trkpt>
      <trkpt lat="45.32872" lon="5.79866">
        <ele>936.2</ele>
        <time>2016-05-21T06:46:03Z</time>
      </trkpt>
      <trkpt lat="45.32862" lon="5.79862">
        <ele>935.4</ele>
        <time>2016-05-21T06:46:05Z</time>
      </trkpt>
      <trkpt lat="45.3285" lon="5.79857">
        <ele>935.2</ele>
        <time>2016-05-21T06:46:07Z</time>
      </trkpt>
      <trkpt lat="45.32838" lon="5.79854">
        <ele>935.5</ele>
        <time>2016-05-21T06:46:09Z</time>
      </trkpt>
      <trkpt lat="45.3283" lon="5.79852">
        <ele>934.9</ele>
        <time>2016-05-21T06:46:11Z</time>
      </trkpt>
      <trkpt lat="45.3282" lon="5.79849">
        <ele>934.7</ele>
        <time>2016-05-21T06:46:13Z</time>
      </trkpt>
      <trkpt lat="45.3281" lon="5.79845">
        <ele>934.7</ele>
        <time>2016-05-21T06:46:15Z</time>
      </trkpt>
      <trkpt lat="45.328" lon="5.7984">
        <ele>933.6</ele>
        <time>2016-05-21T06:46:17Z</time>
      </trkpt>
      <trkpt lat="45.32792" lon="5.79835">
        <ele>933.5</ele>
        <time>2016-05-21T06:46:19Z</time>
      </trkpt>
      <trkpt lat="45.32784" lon="5.7983">
        <ele>933.3</ele>
        <time>2016-05-21T06:46:21Z</time>
      </trkpt>
      <trkpt lat="45.32775" lon="5.79824">
        <ele>933.1</ele>
        <time>2016-05-21T06:46:23Z</time>
      </trkpt>
      <trkpt lat="45.32765" lon="5.79817">
        <ele>933.3</ele>
        <time>2016-05-21T06:46:25Z</time>
      </trkpt>
      <trkpt lat="45.32755" lon="5.79811">
        <ele>933.6</ele>
        <time>2016-05-21T06:46:27Z</time>
      </trkpt>
      <trkpt lat="45.32745" lon="5.79805">
        <ele>933.8</ele>
        <time>2016-05-21T06:46:29Z</time>
      </trkpt>
      <trkpt lat="45.32734" lon="5.79798">
        <ele>935.1</ele>
        <time>2016-05-21T06:46:31Z</time>
      </trkpt>
      <trkpt lat="45.32723" lon="5.7979">
        <ele>936</ele>
        <time>2016-05-21T06:46:33Z</time>
      </trkpt>
      <trkpt lat="45.32713" lon="5.79784">
        <ele>936.9</ele>
        <time>2016-05-21T06:46:35Z</time>
      </trkpt>
      <trkpt lat="45.32703" lon="5.79777">
        <ele>938.6</ele>
        <time>2016-05-21T06:46:37Z</time>
      </trkpt>
      <trkpt lat="45.32693" lon="5.79769">
        <ele>939.1</ele>
        <time>2016-05-21T06:46:39Z</time>
      </trkpt>
      <trkpt lat="45.32686" lon="5.79765">
        <ele>939.6</ele>
        <time>2016-05-21T06:46:41Z</time>
      </trkpt>
      <trkpt lat="45.32678" lon="5.79761">
        <ele>938.7</ele>
        <time>2016-05-21T06:46:43Z</time>
      </trkpt>
      <trkpt lat="45.3267" lon="5.7976">
        <ele>938.7</ele>
        <time>2016-05-21T06:46:45Z</time>
      </trkpt>
      <trkpt lat="45.32661" lon="5.79758">
        <ele>939.1</ele>
        <time>2016-05-21T06:46:47Z</time>
      </trkpt>
      <trkpt lat="45.32653" lon="5.79753">
        <ele>939.7</ele>
        <time>2016-05-21T06:46:49Z</time>
      </trkpt>
      <trkpt lat="45.32644" lon="5.79746">
        <ele>940.4</ele>
        <time>2016-05-21T06:46:51Z</time>
      </trkpt>
      <trkpt lat="45.32635" lon="5.79739">
        <ele>940.5</ele>
        <time>2016-05-21T06:46:53Z</time>
      </trkpt>
      <trkpt lat="45.32626" lon="5.79732">
        <ele>940</ele>
        <time>2016-05-21T06:46:55Z</time>
      </trkpt>
      <trkpt lat="45.32618" lon="5.79726">
        <ele>939.7</ele>
        <time>2016-05-21T06:46:57Z</time>
      </trkpt>
      <trkpt lat="45.32609" lon="5.79721">
        <ele>939.2</ele>
        <time>2016-05-21T06:46:59Z</time>
      </trkpt>
      <trkpt lat="45.32601" lon="5.79716">
        <ele>939.2</ele>
        <time>2016-05-21T06:47:01Z</time>
      </trkpt>
      <trkpt lat="45.32593" lon="5.79711">
        <ele>939.6</ele>
        <time>2016-05-21T06:47:03Z</time>
      </trkpt>
      <trkpt lat="45.32584" lon="5.79707">
        <ele>939.8</ele>
        <time>2016-05-21T06:47:05Z</time>
      </trkpt>
      <trkpt lat="45.32577" lon="5.79701">
        <ele>940</ele>
        <time>2016-05-21T06:47:07Z</time>
      </trkpt>
      <trkpt lat="45.3257" lon="5.79694">
        <ele>941.1</ele>
        <time>2016-05-21T06:47:09Z</time>
      </trkpt>
      <trkpt lat="45.32563" lon="5.79686">
        <ele>942.1</ele>
        <time>2016-05-21T06:47:11Z</time>
      </trkpt>
      <trkpt lat="45.32556" lon="5.79677">
        <ele>942.8</ele>
        <time>2016-05-21T06:47:13Z</time>
      </trkpt>
      <trkpt lat="45.32549" lon="5.79668">
        <ele>943.4</ele>
        <time>2016-05-21T06:47:15Z</time>
      </trkpt>
      <trkpt lat="45.32543" lon="5.79659">
        <ele>944.1</ele>
        <time>2016-05-21T06:47:17Z</time>
      </trkpt>
      <trkpt lat="45.32538" lon="5.7965">
        <ele>944.9</ele>
        <time>2016-05-21T06:47:19Z</time>
      </trkpt>
      <trkpt lat="45.32532" lon="5.79641">
        <ele>944.8</ele>
        <time>2016-05-21T06:47:21Z</time>
      </trkpt>
      <trkpt lat="45.32526" lon="5.79632">
        <ele>944.9</ele>
        <time>2016-05-21T06:47:23Z</time>
      </trkpt>
      <trkpt lat="45.3252" lon="5.79625">
        <ele>945.1</ele>
        <time>2016-05-21T06:47:25Z</time>
      </trkpt>
      <trkpt lat="45.32513" lon="5.79615">
        <ele>946.5</ele>
        <time>2016-05-21T06:47:28Z</time>
      </trkpt>
      <trkpt lat="45.32507" lon="5.79607">
        <ele>946.8</ele>
        <time>2016-05-21T06:47:30Z</time>
      </trkpt>
      <trkpt lat="45.32501" lon="5.79599">
        <ele>946.9</ele>
        <time>2016-05-21T06:47:32Z</time>
      </trkpt>
      <trkpt lat="45.32495" lon="5.79592">
        <ele>947</ele>
        <time>2016-05-21T06:47:34Z</time>
      </trkpt>
      <trkpt lat="45.32489" lon="5.79584">
        <ele>947.7</ele>
        <time>2016-05-21T06:47:36Z</time>
      </trkpt>
      <trkpt lat="45.32482" lon="5.79575">
        <ele>947.2</ele>
        <time>2016-05-21T06:47:38Z</time>
      </trkpt>
      <trkpt lat="45.32475" lon="5.79566">
        <ele>947.3</ele>
        <time>2016-05-21T06:47:40Z</time>
      </trkpt>
      <trkpt lat="45.32468" lon="5.79557">
        <ele>946.6</ele>
        <time>2016-05-21T06:47:42Z</time>
      </trkpt>
      <trkpt lat="45.32461" lon="5.79549">
        <ele>946.6</ele>
        <time>2016-05-21T06:47:44Z</time>
      </trkpt>
      <trkpt lat="45.32454" lon="5.79541">
        <ele>946.7</ele>
        <time>2016-05-21T06:47:46Z</time>
      </trkpt>
      <trkpt lat="45.32448" lon="5.79534">
        <ele>947</ele>
        <time>2016-05-21T06:47:48Z</time>
      </trkpt>
      <trkpt lat="45.32442" lon="5.79526">
        <ele>947.6</ele>
        <time>2016-05-21T06:47:50Z</time>
      </trkpt>
      <trkpt lat="45.32436" lon="5.79518">
        <ele>948.4</ele>
        <time>2016-05-21T06:47:52Z</time>
      </trkpt>
      <trkpt lat="45.32431" lon="5.79511">
        <ele>949.2</ele>
        <time>2016-05-21T06:47:54Z</time>
      </trkpt>
      <trkpt lat="45.32425" lon="5.79503">
        <ele>950.6</ele>
        <time>2016-05-21T06:47:56Z</time>
      </trkpt>
      <trkpt lat="45.3242" lon="5.79493">
        <ele>951.7</ele>
        <time>2016-05-21T06:47:58Z</time>
      </trkpt>
      <trkpt lat="45.32414" lon="5.79484">
        <ele>952.6</ele>
        <time>2016-05-21T06:48:00Z</time>
      </trkpt>
      <trkpt lat="45.3241" lon="5.79475">
        <ele>952.9</ele>
        <time>2016-05-21T06:48:02Z</time>
      </trkpt>
      <trkpt lat="45.32403" lon="5.79462">
        <ele>954.3</ele>
        <time>2016-05-21T06:48:05Z</time>
      </trkpt>
      <trkpt lat="45.32399" lon="5.79452">
        <ele>955.6</ele>
        <time>2016-05-21T06:48:07Z</time>
      </trkpt>
      <trkpt lat="45.32395" lon="5.79442">
        <ele>956.4</ele>
        <time>2016-05-21T06:48:09Z</time>
      </trkpt>
      <trkpt lat="45.32391" lon="5.79432">
        <ele>956.5</ele>
        <time>2016-05-21T06:48:11Z</time>
      </trkpt>
      <trkpt lat="45.32387" lon="5.79422">
        <ele>957</ele>
        <time>2016-05-21T06:48:13Z</time>
      </trkpt>
      <trkpt lat="45.32382" lon="5.79413">
        <ele>957.7</ele>
        <time>2016-05-21T06:48:15Z</time>
      </trkpt>
      <trkpt lat="45.32376" lon="5.79405">
        <ele>958.1</ele>
        <time>2016-05-21T06:48:17Z</time>
      </trkpt>
      <trkpt lat="45.32369" lon="5.79399">
        <ele>958.9</ele>
        <time>2016-05-21T06:48:19Z</time>
      </trkpt>
      <trkpt lat="45.32359" lon="5.79396">
        <ele>959.9</ele>
        <time>2016-05-21T06:48:22Z</time>
      </trkpt>
      <trkpt lat="45.32351" lon="5.79397">
        <ele>960.1</ele>
        <time>2016-05-21T06:48:24Z</time>
      </trkpt>
      <trkpt lat="45.32344" lon="5.79401">
        <ele>960.2</ele>
        <time>2016-05-21T06:48:26Z</time>
      </trkpt>
      <trkpt lat="45.32338" lon="5.7941">
        <ele>960.2</ele>
        <time>2016-05-21T06:48:28Z</time>
      </trkpt>
      <trkpt lat="45.32333" lon="5.79419">
        <ele>960.4</ele>
        <time>2016-05-21T06:48:30Z</time>
      </trkpt>
      <trkpt lat="45.3233" lon="5.7943">
        <ele>960.7</ele>
        <time>2016-05-21T06:48:32Z</time>
      </trkpt>
      <trkpt lat="45.32328" lon="5.7944">
        <ele>961.2</ele>
        <time>2016-05-21T06:48:34Z</time>
      </trkpt>
      <trkpt lat="45.32323" lon="5.79451">
        <ele>961.3</ele>
        <time>2016-05-21T06:48:37Z</time>
      </trkpt>
      <trkpt lat="45.3232" lon="5.79464">
        <ele>961.4</ele>
        <time>2016-05-21T06:48:40Z</time>
      </trkpt>
      <trkpt lat="45.32316" lon="5.79475">
        <ele>961.4</ele>
        <time>2016-05-21T06:48:42Z</time>
      </trkpt>
      <trkpt lat="45.32311" lon="5.79487">
        <ele>961.4</ele>
        <time>2016-05-21T06:48:45Z</time>
      </trkpt>
      <trkpt lat="45.32306" lon="5.79497">
        <ele>961.3</ele>
        <time>2016-05-21T06:48:47Z</time>
      </trkpt>
      <trkpt lat="45.32301" lon="5.79507">
        <ele>961.3</ele>
        <time>2016-05-21T06:48:49Z</time>
      </trkpt>
      <trkpt lat="45.32296" lon="5.79516">
        <ele>961.2</ele>
        <time>2016-05-21T06:48:51Z</time>
      </trkpt>
      <trkpt lat="45.32291" lon="5.79524">
        <ele>961.1</ele>
        <time>2016-05-21T06:48:53Z</time>
      </trkpt>
      <trkpt lat="45.32285" lon="5.79536">
        <ele>961</ele>
        <time>2016-05-21T06:48:56Z</time>
      </trkpt>
      <trkpt lat="45.32279" lon="5.79546">
        <ele>961.2</ele>
        <time>2016-05-21T06:48:59Z</time>
      </trkpt>
      <trkpt lat="45.32273" lon="5.79556">
        <ele>961.5</ele>
        <time>2016-05-21T06:49:02Z</time>
      </trkpt>
      <trkpt lat="45.32267" lon="5.79563">
        <ele>961.9</ele>
        <time>2016-05-21T06:49:05Z</time>
      </trkpt>
      <trkpt lat="45.32258" lon="5.79567">
        <ele>962.7</ele>
        <time>2016-05-21T06:49:08Z</time>
      </trkpt>
      <trkpt lat="45.32248" lon="5.79572">
        <ele>963.5</ele>
        <time>2016-05-21T06:49:11Z</time>
      </trkpt>
      <trkpt lat="45.3224" lon="5.79576">
        <ele>964</ele>
        <time>2016-05-21T06:49:13Z</time>
      </trkpt>
      <trkpt lat="45.32232" lon="5.7958">
        <ele>964.5</ele>
        <time>2016-05-21T06:49:15Z</time>
      </trkpt>
      <trkpt lat="45.32223" lon="5.79583">
        <ele>964.8</ele>
        <time>2016-05-21T06:49:18Z</time>
      </trkpt>
      <trkpt lat="45.32214" lon="5.79583">
        <ele>965.2</ele>
        <time>2016-05-21T06:49:21Z</time>
      </trkpt>
      <trkpt lat="45.32206" lon="5.79582">
        <ele>965.3</ele>
        <time>2016-05-21T06:49:23Z</time>
      </trkpt>
      <trkpt lat="45.32199" lon="5.7958">
        <ele>965.5</ele>
        <time>2016-05-21T06:49:25Z</time>
      </trkpt>
      <trkpt lat="45.32191" lon="5.79575">
        <ele>965.7</ele>
        <time>2016-05-21T06:49:28Z</time>
      </trkpt>
      <trkpt lat="45.32184" lon="5.7957">
        <ele>966</ele>
        <time>2016-05-21T06:49:30Z</time>
      </trkpt>
      <trkpt lat="45.32177" lon="5.79564">
        <ele>966.4</ele>
        <time>2016-05-21T06:49:32Z</time>
      </trkpt>
      <trkpt lat="45.32169" lon="5.79557">
        <ele>966.9</ele>
        <time>2016-05-21T06:49:35Z</time>
      </trkpt>
      <trkpt lat="45.32163" lon="5.7955">
        <ele>969.7</ele>
        <time>2016-05-21T06:49:37Z</time>
      </trkpt>
      <trkpt lat="45.32156" lon="5.7954">
        <ele>973.4</ele>
        <time>2016-05-21T06:49:40Z</time>
      </trkpt>
      <trkpt lat="45.32151" lon="5.79526">
        <ele>973.7</ele>
        <time>2016-05-21T06:49:43Z</time>
      </trkpt>
      <trkpt lat="45.32148" lon="5.79512">
        <ele>973.9</ele>
        <time>2016-05-21T06:49:46Z</time>
      </trkpt>
      <trkpt lat="45.32148" lon="5.795">
        <ele>974.5</ele>
        <time>2016-05-21T06:49:48Z</time>
      </trkpt>
      <trkpt lat="45.32147" lon="5.79485">
        <ele>975.1</ele>
        <time>2016-05-21T06:49:51Z</time>
      </trkpt>
      <trkpt lat="45.32147" lon="5.79475">
        <ele>975.2</ele>
        <time>2016-05-21T06:49:53Z</time>
      </trkpt>
      <trkpt lat="45.32146" lon="5.79464">
        <ele>975.2</ele>
        <time>2016-05-21T06:49:55Z</time>
      </trkpt>
      <trkpt lat="45.32146" lon="5.79453">
        <ele>975.7</ele>
        <time>2016-05-21T06:49:57Z</time>
      </trkpt>
      <trkpt lat="45.32145" lon="5.79442">
        <ele>976</ele>
        <time>2016-05-21T06:49:59Z</time>
      </trkpt>
      <trkpt lat="45.32142" lon="5.79433">
        <ele>976.4</ele>
        <time>2016-05-21T06:50:01Z</time>
      </trkpt>
      <trkpt lat="45.32136" lon="5.79421">
        <ele>977.3</ele>
        <time>2016-05-21T06:50:04Z</time>
      </trkpt>
      <trkpt lat="45.3213" lon="5.79414">
        <ele>978</ele>
        <time>2016-05-21T06:50:06Z</time>
      </trkpt>
      <trkpt lat="45.32123" lon="5.79408">
        <ele>978.5</ele>
        <time>2016-05-21T06:50:08Z</time>
      </trkpt>
      <trkpt lat="45.32117" lon="5.79402">
        <ele>979.6</ele>
        <time>2016-05-21T06:50:10Z</time>
      </trkpt>
      <trkpt lat="45.32109" lon="5.79391">
        <ele>980.7</ele>
        <time>2016-05-21T06:50:13Z</time>
      </trkpt>
      <trkpt lat="45.32105" lon="5.79382">
        <ele>981.4</ele>
        <time>2016-05-21T06:50:15Z</time>
      </trkpt>
      <trkpt lat="45.321" lon="5.79371">
        <ele>982.7</ele>
        <time>2016-05-21T06:50:17Z</time>
      </trkpt>
      <trkpt lat="45.32097" lon="5.79362">
        <ele>983.2</ele>
        <time>2016-05-21T06:50:19Z</time>
      </trkpt>
      <trkpt lat="45.32094" lon="5.79351">
        <ele>983.2</ele>
        <time>2016-05-21T06:50:21Z</time>
      </trkpt>
      <trkpt lat="45.32091" lon="5.79339">
        <ele>983.1</ele>
        <time>2016-05-21T06:50:23Z</time>
      </trkpt>
      <trkpt lat="45.32088" lon="5.79328">
        <ele>983.1</ele>
        <time>2016-05-21T06:50:25Z</time>
      </trkpt>
      <trkpt lat="45.32087" lon="5.79316">
        <ele>983.4</ele>
        <time>2016-05-21T06:50:27Z</time>
      </trkpt>
      <trkpt lat="45.32085" lon="5.79307">
        <ele>984.1</ele>
        <time>2016-05-21T06:50:29Z</time>
      </trkpt>
      <trkpt lat="45.32082" lon="5.79296">
        <ele>984.7</ele>
        <time>2016-05-21T06:50:31Z</time>
      </trkpt>
      <trkpt lat="45.32078" lon="5.79282">
        <ele>984.6</ele>
        <time>2016-05-21T06:50:34Z</time>
      </trkpt>
      <trkpt lat="45.32075" lon="5.79272">
        <ele>985.1</ele>
        <time>2016-05-21T06:50:36Z</time>
      </trkpt>
      <trkpt lat="45.32072" lon="5.79262">
        <ele>985.9</ele>
        <time>2016-05-21T06:50:38Z</time>
      </trkpt>
      <trkpt lat="45.32069" lon="5.7925">
        <ele>986.4</ele>
        <time>2016-05-21T06:50:40Z</time>
      </trkpt>
      <trkpt lat="45.32065" lon="5.79236">
        <ele>987</ele>
        <time>2016-05-21T06:50:43Z</time>
      </trkpt>
      <trkpt lat="45.32061" lon="5.79227">
        <ele>987.1</ele>
        <time>2016-05-21T06:50:45Z</time>
      </trkpt>
      <trkpt lat="45.32057" lon="5.79218">
        <ele>988.2</ele>
        <time>2016-05-21T06:50:47Z</time>
      </trkpt>
      <trkpt lat="45.32052" lon="5.7921">
        <ele>988.3</ele>
        <time>2016-05-21T06:50:49Z</time>
      </trkpt>
      <trkpt lat="45.32047" lon="5.79201">
        <ele>988.9</ele>
        <time>2016-05-21T06:50:51Z</time>
      </trkpt>
      <trkpt lat="45.3204" lon="5.79189">
        <ele>989.3</ele>
        <time>2016-05-21T06:50:54Z</time>
      </trkpt>
      <trkpt lat="45.32033" lon="5.7918">
        <ele>990.1</ele>
        <time>2016-05-21T06:50:56Z</time>
      </trkpt>
      <trkpt lat="45.32028" lon="5.79171">
        <ele>990.9</ele>
        <time>2016-05-21T06:50:58Z</time>
      </trkpt>
      <trkpt lat="45.32022" lon="5.7916">
        <ele>990.9</ele>
        <time>2016-05-21T06:51:01Z</time>
      </trkpt>
      <trkpt lat="45.32015" lon="5.79148">
        <ele>992</ele>
        <time>2016-05-21T06:51:04Z</time>
      </trkpt>
      <trkpt lat="45.32011" lon="5.79139">
        <ele>992.7</ele>
        <time>2016-05-21T06:51:06Z</time>
      </trkpt>
      <trkpt lat="45.32006" lon="5.7913">
        <ele>994</ele>
        <time>2016-05-21T06:51:08Z</time>
      </trkpt>
      <trkpt lat="45.32002" lon="5.79121">
        <ele>994.7</ele>
        <time>2016-05-21T06:51:10Z</time>
      </trkpt>
      <trkpt lat="45.31998" lon="5.79112">
        <ele>994.9</ele>
        <time>2016-05-21T06:51:12Z</time>
      </trkpt>
      <trkpt lat="45.31994" lon="5.79102">
        <ele>995.3</ele>
        <time>2016-05-21T06:51:14Z</time>
      </trkpt>
      <trkpt lat="45.31988" lon="5.79091">
        <ele>995.3</ele>
        <time>2016-05-21T06:51:17Z</time>
      </trkpt>
      <trkpt lat="45.31984" lon="5.79082">
        <ele>995.4</ele>
        <time>2016-05-21T06:51:20Z</time>
      </trkpt>
      <trkpt lat="45.3198" lon="5.79069">
        <ele>995.6</ele>
        <time>2016-05-21T06:51:25Z</time>
      </trkpt>
      <trkpt lat="45.31976" lon="5.7906">
        <ele>995.9</ele>
        <time>2016-05-21T06:51:28Z</time>
      </trkpt>
      <trkpt lat="45.31972" lon="5.79051">
        <ele>996.3</ele>
        <time>2016-05-21T06:51:31Z</time>
      </trkpt>
      <trkpt lat="45.31967" lon="5.7904">
        <ele>996.7</ele>
        <time>2016-05-21T06:51:34Z</time>
      </trkpt>
      <trkpt lat="45.31962" lon="5.7903">
        <ele>997.1</ele>
        <time>2016-05-21T06:51:37Z</time>
      </trkpt>
      <trkpt lat="45.31957" lon="5.79018">
        <ele>997.5</ele>
        <time>2016-05-21T06:51:40Z</time>
      </trkpt>
      <trkpt lat="45.31951" lon="5.79008">
        <ele>997.9</ele>
        <time>2016-05-21T06:51:43Z</time>
      </trkpt>
      <trkpt lat="45.31946" lon="5.78998">
        <ele>998.4</ele>
        <time>2016-05-21T06:51:46Z</time>
      </trkpt>
      <trkpt lat="45.31941" lon="5.78987">
        <ele>998.7</ele>
        <time>2016-05-21T06:51:49Z</time>
      </trkpt>
      <trkpt lat="45.31935" lon="5.78977">
        <ele>999.1</ele>
        <time>2016-05-21T06:51:52Z</time>
      </trkpt>
      <trkpt lat="45.31929" lon="5.78967">
        <ele>999.6</ele>
        <time>2016-05-21T06:51:55Z</time>
      </trkpt>
      <trkpt lat="45.31923" lon="5.78954">
        <ele>1000.1</ele>
        <time>2016-05-21T06:51:58Z</time>
      </trkpt>
      <trkpt lat="45.31919" lon="5.78945">
        <ele>1000.5</ele>
        <time>2016-05-21T06:52:01Z</time>
      </trkpt>
      <trkpt lat="45.31914" lon="5.78933">
        <ele>1001</ele>
        <time>2016-05-21T06:52:04Z</time>
      </trkpt>
      <trkpt lat="45.31908" lon="5.78923">
        <ele>1001.6</ele>
        <time>2016-05-21T06:52:07Z</time>
      </trkpt>
      <trkpt lat="45.31902" lon="5.78913">
        <ele>1002.1</ele>
        <time>2016-05-21T06:52:10Z</time>
      </trkpt>
      <trkpt lat="45.31896" lon="5.78901">
        <ele>1002.7</ele>
        <time>2016-05-21T06:52:13Z</time>
      </trkpt>
      <trkpt lat="45.31891" lon="5.78892">
        <ele>1003.1</ele>
        <time>2016-05-21T06:52:16Z</time>
      </trkpt>
      <trkpt lat="45.31884" lon="5.78883">
        <ele>1003.6</ele>
        <time>2016-05-21T06:52:19Z</time>
      </trkpt>
      <trkpt lat="45.31878" lon="5.78872">
        <ele>1004</ele>
        <time>2016-05-21T06:52:22Z</time>
      </trkpt>
      <trkpt lat="45.31872" lon="5.78863">
        <ele>1004.5</ele>
        <time>2016-05-21T06:52:25Z</time>
      </trkpt>
      <trkpt lat="45.31866" lon="5.78854">
        <ele>1005.1</ele>
        <time>2016-05-21T06:52:28Z</time>
      </trkpt>
      <trkpt lat="45.31858" lon="5.78843">
        <ele>1005.6</ele>
        <time>2016-05-21T06:52:31Z</time>
      </trkpt>
      <trkpt lat="45.31852" lon="5.78833">
        <ele>1006</ele>
        <time>2016-05-21T06:52:34Z</time>
      </trkpt>
      <trkpt lat="45.31846" lon="5.78822">
        <ele>1006.5</ele>
        <time>2016-05-21T06:52:37Z</time>
      </trkpt>
      <trkpt lat="45.31841" lon="5.78813">
        <ele>1006.8</ele>
        <time>2016-05-21T06:52:39Z</time>
      </trkpt>
      <trkpt lat="45.31837" lon="5.78801">
        <ele>1007.2</ele>
        <time>2016-05-21T06:52:42Z</time>
      </trkpt>
      <trkpt lat="45.31833" lon="5.7879">
        <ele>1007.6</ele>
        <time>2016-05-21T06:52:45Z</time>
      </trkpt>
      <trkpt lat="45.3183" lon="5.78777">
        <ele>1008.1</ele>
        <time>2016-05-21T06:52:48Z</time>
      </trkpt>
      <trkpt lat="45.31825" lon="5.78766">
        <ele>1008.5</ele>
        <time>2016-05-21T06:52:51Z</time>
      </trkpt>
      <trkpt lat="45.31817" lon="5.78757">
        <ele>1009.1</ele>
        <time>2016-05-21T06:52:54Z</time>
      </trkpt>
      <trkpt lat="45.31808" lon="5.78753">
        <ele>1009.6</ele>
        <time>2016-05-21T06:52:57Z</time>
      </trkpt>
      <trkpt lat="45.31798" lon="5.78754">
        <ele>1012.3</ele>
        <time>2016-05-21T06:53:00Z</time>
      </trkpt>
      <trkpt lat="45.3179" lon="5.78756">
        <ele>1013</ele>
        <time>2016-05-21T06:53:03Z</time>
      </trkpt>
      <trkpt lat="45.31783" lon="5.78754">
        <ele>1013.5</ele>
        <time>2016-05-21T06:53:05Z</time>
      </trkpt>
      <trkpt lat="45.31774" lon="5.78748">
        <ele>1014.2</ele>
        <time>2016-05-21T06:53:08Z</time>
      </trkpt>
      <trkpt lat="45.31767" lon="5.78739">
        <ele>1014.5</ele>
        <time>2016-05-21T06:53:11Z</time>
      </trkpt>
      <trkpt lat="45.3176" lon="5.7873">
        <ele>1015.1</ele>
        <time>2016-05-21T06:53:14Z</time>
      </trkpt>
      <trkpt lat="45.31753" lon="5.78719">
        <ele>1015.8</ele>
        <time>2016-05-21T06:53:17Z</time>
      </trkpt>
      <trkpt lat="45.31746" lon="5.7871">
        <ele>1016.5</ele>
        <time>2016-05-21T06:53:20Z</time>
      </trkpt>
      <trkpt lat="45.31742" lon="5.78701">
        <ele>1017</ele>
        <time>2016-05-21T06:53:22Z</time>
      </trkpt>
      <trkpt lat="45.31738" lon="5.78693">
        <ele>1017.5</ele>
        <time>2016-05-21T06:53:24Z</time>
      </trkpt>
      <trkpt lat="45.31732" lon="5.78681">
        <ele>1018.1</ele>
        <time>2016-05-21T06:53:27Z</time>
      </trkpt>
      <trkpt lat="45.31727" lon="5.78673">
        <ele>1018.6</ele>
        <time>2016-05-21T06:53:29Z</time>
      </trkpt>
      <trkpt lat="45.31721" lon="5.78663">
        <ele>1019.1</ele>
        <time>2016-05-21T06:53:32Z</time>
      </trkpt>
      <trkpt lat="45.31715" lon="5.78656">
        <ele>1019.4</ele>
        <time>2016-05-21T06:53:34Z</time>
      </trkpt>
      <trkpt lat="45.3171" lon="5.78646">
        <ele>1019.7</ele>
        <time>2016-05-21T06:53:37Z</time>
      </trkpt>
      <trkpt lat="45.31702" lon="5.78638">
        <ele>1020.2</ele>
        <time>2016-05-21T06:53:40Z</time>
      </trkpt>
      <trkpt lat="45.31696" lon="5.78628">
        <ele>1020.8</ele>
        <time>2016-05-21T06:53:43Z</time>
      </trkpt>
      <trkpt lat="45.31689" lon="5.78618">
        <ele>1021.5</ele>
        <time>2016-05-21T06:53:46Z</time>
      </trkpt>
      <trkpt lat="45.31681" lon="5.78609">
        <ele>1022.2</ele>
        <time>2016-05-21T06:53:49Z</time>
      </trkpt>
      <trkpt lat="45.31673" lon="5.786">
        <ele>1023</ele>
        <time>2016-05-21T06:53:52Z</time>
      </trkpt>
      <trkpt lat="45.31665" lon="5.7859">
        <ele>1023.9</ele>
        <time>2016-05-21T06:53:55Z</time>
      </trkpt>
      <trkpt lat="45.31658" lon="5.78581">
        <ele>1024.6</ele>
        <time>2016-05-21T06:53:58Z</time>
      </trkpt>
      <trkpt lat="45.31651" lon="5.78569">
        <ele>1025.3</ele>
        <time>2016-05-21T06:54:01Z</time>
      </trkpt>
      <trkpt lat="45.31645" lon="5.78557">
        <ele>1026.1</ele>
        <time>2016-05-21T06:54:04Z</time>
      </trkpt>
      <trkpt lat="45.31642" lon="5.78546">
        <ele>1027</ele>
        <time>2016-05-21T06:54:07Z</time>
      </trkpt>
      <trkpt lat="45.3164" lon="5.78533">
        <ele>1028</ele>
        <time>2016-05-21T06:54:10Z</time>
      </trkpt>
      <trkpt lat="45.31639" lon="5.78518">
        <ele>1028.9</ele>
        <time>2016-05-21T06:54:13Z</time>
      </trkpt>
      <trkpt lat="45.31638" lon="5.78504">
        <ele>1029.7</ele>
        <time>2016-05-21T06:54:16Z</time>
      </trkpt>
      <trkpt lat="45.31638" lon="5.78494">
        <ele>1030.3</ele>
        <time>2016-05-21T06:54:19Z</time>
      </trkpt>
      <trkpt lat="45.31638" lon="5.7848">
        <ele>1030.9</ele>
        <time>2016-05-21T06:54:22Z</time>
      </trkpt>
      <trkpt lat="45.31638" lon="5.78465">
        <ele>1031.8</ele>
        <time>2016-05-21T06:54:25Z</time>
      </trkpt>
      <trkpt lat="45.31636" lon="5.78454">
        <ele>1032.5</ele>
        <time>2016-05-21T06:54:28Z</time>
      </trkpt>
      <trkpt lat="45.31632" lon="5.78442">
        <ele>1033.2</ele>
        <time>2016-05-21T06:54:31Z</time>
      </trkpt>
      <trkpt lat="45.31628" lon="5.78433">
        <ele>1033.6</ele>
        <time>2016-05-21T06:54:33Z</time>
      </trkpt>
      <trkpt lat="45.31628" lon="5.78419">
        <ele>1034.3</ele>
        <time>2016-05-21T06:54:36Z</time>
      </trkpt>
      <trkpt lat="45.3163" lon="5.78407">
        <ele>1035</ele>
        <time>2016-05-21T06:54:39Z</time>
      </trkpt>
      <trkpt lat="45.31631" lon="5.78395">
        <ele>1035.8</ele>
        <time>2016-05-21T06:54:42Z</time>
      </trkpt>
      <trkpt lat="45.31633" lon="5.78385">
        <ele>1036.5</ele>
        <time>2016-05-21T06:54:45Z</time>
      </trkpt>
      <trkpt lat="45.31637" lon="5.78376">
        <ele>1037.1</ele>
        <time>2016-05-21T06:54:48Z</time>
      </trkpt>
      <trkpt lat="45.31645" lon="5.78376">
        <ele>1038.1</ele>
        <time>2016-05-21T06:54:53Z</time>
      </trkpt>
      <trkpt lat="45.31651" lon="5.78382">
        <ele>1038.8</ele>
        <time>2016-05-21T06:54:57Z</time>
      </trkpt>
      <trkpt lat="45.31653" lon="5.78395">
        <ele>1039.5</ele>
        <time>2016-05-21T06:55:02Z</time>
      </trkpt>
      <trkpt lat="45.31655" lon="5.78408">
        <ele>1039.4</ele>
        <time>2016-05-21T06:55:05Z</time>
      </trkpt>
      <trkpt lat="45.31658" lon="5.78419">
        <ele>1039.3</ele>
        <time>2016-05-21T06:55:08Z</time>
      </trkpt>
      <trkpt lat="45.31659" lon="5.7843">
        <ele>1039.2</ele>
        <time>2016-05-21T06:55:11Z</time>
      </trkpt>
      <trkpt lat="45.3166" lon="5.7844">
        <ele>1039.1</ele>
        <time>2016-05-21T06:55:14Z</time>
      </trkpt>
      <trkpt lat="45.3166" lon="5.78452">
        <ele>1039.3</ele>
        <time>2016-05-21T06:55:17Z</time>
      </trkpt>
      <trkpt lat="45.31661" lon="5.78463">
        <ele>1039.8</ele>
        <time>2016-05-21T06:55:20Z</time>
      </trkpt>
      <trkpt lat="45.31662" lon="5.78474">
        <ele>1040.2</ele>
        <time>2016-05-21T06:55:23Z</time>
      </trkpt>
      <trkpt lat="45.31663" lon="5.78485">
        <ele>1040.6</ele>
        <time>2016-05-21T06:55:26Z</time>
      </trkpt>
      <trkpt lat="45.31666" lon="5.78499">
        <ele>1040.8</ele>
        <time>2016-05-21T06:55:29Z</time>
      </trkpt>
      <trkpt lat="45.3167" lon="5.7851">
        <ele>1041</ele>
        <time>2016-05-21T06:55:32Z</time>
      </trkpt>
      <trkpt lat="45.31676" lon="5.78522">
        <ele>1041.5</ele>
        <time>2016-05-21T06:55:35Z</time>
      </trkpt>
      <trkpt lat="45.3168" lon="5.7853">
        <ele>1041.8</ele>
        <time>2016-05-21T06:55:37Z</time>
      </trkpt>
      <trkpt lat="45.31687" lon="5.78541">
        <ele>1042.3</ele>
        <time>2016-05-21T06:55:40Z</time>
      </trkpt>
      <trkpt lat="45.31694" lon="5.78549">
        <ele>1042.9</ele>
        <time>2016-05-21T06:55:43Z</time>
      </trkpt>
      <trkpt lat="45.31701" lon="5.78558">
        <ele>1043.6</ele>
        <time>2016-05-21T06:55:46Z</time>
      </trkpt>
      <trkpt lat="45.31707" lon="5.78566">
        <ele>1044.2</ele>
        <time>2016-05-21T06:55:49Z</time>
      </trkpt>
      <trkpt lat="45.31714" lon="5.78574">
        <ele>1044.7</ele>
        <time>2016-05-21T06:55:52Z</time>
      </trkpt>
      <trkpt lat="45.3172" lon="5.78582">
        <ele>1045.2</ele>
        <time>2016-05-21T06:55:55Z</time>
      </trkpt>
      <trkpt lat="45.31728" lon="5.78589">
        <ele>1045.5</ele>
        <time>2016-05-21T06:55:58Z</time>
      </trkpt>
      <trkpt lat="45.31736" lon="5.78594">
        <ele>1046</ele>
        <time>2016-05-21T06:56:01Z</time>
      </trkpt>
      <trkpt lat="45.31744" lon="5.78598">
        <ele>1046.7</ele>
        <time>2016-05-21T06:56:04Z</time>
      </trkpt>
      <trkpt lat="45.31752" lon="5.78598">
        <ele>1047.4</ele>
        <time>2016-05-21T06:56:07Z</time>
      </trkpt>
      <trkpt lat="45.3176" lon="5.78594">
        <ele>1048.3</ele>
        <time>2016-05-21T06:56:10Z</time>
      </trkpt>
      <trkpt lat="45.31766" lon="5.78586">
        <ele>1049.1</ele>
        <time>2016-05-21T06:56:13Z</time>
      </trkpt>
      <trkpt lat="45.31769" lon="5.78576">
        <ele>1050.1</ele>
        <time>2016-05-21T06:56:16Z</time>
      </trkpt>
      <trkpt lat="45.3177" lon="5.78566">
        <ele>1051.2</ele>
        <time>2016-05-21T06:56:19Z</time>
      </trkpt>
      <trkpt lat="45.31772" lon="5.78554">
        <ele>1052.1</ele>
        <time>2016-05-21T06:56:22Z</time>
      </trkpt>
      <trkpt lat="45.31771" lon="5.78543">
        <ele>1052.9</ele>
        <time>2016-05-21T06:56:25Z</time>
      </trkpt>
      <trkpt lat="45.31771" lon="5.78533">
        <ele>1053.4</ele>
        <time>2016-05-21T06:56:27Z</time>
      </trkpt>
      <trkpt lat="45.31772" lon="5.7852">
        <ele>1054</ele>
        <time>2016-05-21T06:56:30Z</time>
      </trkpt>
      <trkpt lat="45.31775" lon="5.78509">
        <ele>1054.6</ele>
        <time>2016-05-21T06:56:33Z</time>
      </trkpt>
      <trkpt lat="45.31778" lon="5.78497">
        <ele>1055.6</ele>
        <time>2016-05-21T06:56:37Z</time>
      </trkpt>
      <trkpt lat="45.3178" lon="5.78485">
        <ele>1056.3</ele>
        <time>2016-05-21T06:56:40Z</time>
      </trkpt>
      <trkpt lat="45.31784" lon="5.78475">
        <ele>1057.1</ele>
        <time>2016-05-21T06:56:43Z</time>
      </trkpt>
      <trkpt lat="45.31789" lon="5.78464">
        <ele>1057.7</ele>
        <time>2016-05-21T06:56:46Z</time>
      </trkpt>
      <trkpt lat="45.31795" lon="5.78455">
        <ele>1058.3</ele>
        <time>2016-05-21T06:56:49Z</time>
      </trkpt>
      <trkpt lat="45.31802" lon="5.78452">
        <ele>1059.1</ele>
        <time>2016-05-21T06:56:53Z</time>
      </trkpt>
      <trkpt lat="45.31809" lon="5.78459">
        <ele>1060</ele>
        <time>2016-05-21T06:56:57Z</time>
      </trkpt>
      <trkpt lat="45.31815" lon="5.78467">
        <ele>1060.6</ele>
        <time>2016-05-21T06:57:00Z</time>
      </trkpt>
      <trkpt lat="45.31823" lon="5.78477">
        <ele>1061</ele>
        <time>2016-05-21T06:57:03Z</time>
      </trkpt>
      <trkpt lat="45.3183" lon="5.78486">
        <ele>1061.5</ele>
        <time>2016-05-21T06:57:06Z</time>
      </trkpt>
      <trkpt lat="45.31837" lon="5.78495">
        <ele>1061.8</ele>
        <time>2016-05-21T06:57:09Z</time>
      </trkpt>
      <trkpt lat="45.31844" lon="5.78503">
        <ele>1062.1</ele>
        <time>2016-05-21T06:57:13Z</time>
      </trkpt>
      <trkpt lat="45.31849" lon="5.7851">
        <ele>1062.3</ele>
        <time>2016-05-21T06:57:16Z</time>
      </trkpt>
      <trkpt lat="45.31855" lon="5.78519">
        <ele>1062.4</ele>
        <time>2016-05-21T06:57:19Z</time>
      </trkpt>
      <trkpt lat="45.31861" lon="5.78527">
        <ele>1062.5</ele>
        <time>2016-05-21T06:57:22Z</time>
      </trkpt>
      <trkpt lat="45.31868" lon="5.78536">
        <ele>1062.7</ele>
        <time>2016-05-21T06:57:25Z</time>
      </trkpt>
      <trkpt lat="45.31875" lon="5.78545">
        <ele>1063.1</ele>
        <time>2016-05-21T06:57:28Z</time>
      </trkpt>
      <trkpt lat="45.3188" lon="5.78553">
        <ele>1063.6</ele>
        <time>2016-05-21T06:57:31Z</time>
      </trkpt>
      <trkpt lat="45.31885" lon="5.78563">
        <ele>1064.2</ele>
        <time>2016-05-21T06:57:35Z</time>
      </trkpt>
      <trkpt lat="45.31889" lon="5.78573">
        <ele>1064.5</ele>
        <time>2016-05-21T06:57:38Z</time>
      </trkpt>
      <trkpt lat="45.31893" lon="5.78585">
        <ele>1065</ele>
        <time>2016-05-21T06:57:42Z</time>
      </trkpt>
      <trkpt lat="45.31896" lon="5.78598">
        <ele>1065.7</ele>
        <time>2016-05-21T06:57:46Z</time>
      </trkpt>
      <trkpt lat="45.31901" lon="5.7861">
        <ele>1066.1</ele>
        <time>2016-05-21T06:57:50Z</time>
      </trkpt>
      <trkpt lat="45.31906" lon="5.78619">
        <ele>1066.5</ele>
        <time>2016-05-21T06:57:53Z</time>
      </trkpt>
      <trkpt lat="45.31912" lon="5.78631">
        <ele>1066.9</ele>
        <time>2016-05-21T06:57:57Z</time>
      </trkpt>
      <trkpt lat="45.31919" lon="5.78642">
        <ele>1067.5</ele>
        <time>2016-05-21T06:58:00Z</time>
      </trkpt>
      <trkpt lat="45.31926" lon="5.7865">
        <ele>1068.1</ele>
        <time>2016-05-21T06:58:03Z</time>
      </trkpt>
      <trkpt lat="45.31932" lon="5.78657">
        <ele>1068.7</ele>
        <time>2016-05-21T06:58:07Z</time>
      </trkpt>
      <trkpt lat="45.3194" lon="5.7866">
        <ele>1069.5</ele>
        <time>2016-05-21T06:58:10Z</time>
      </trkpt>
      <trkpt lat="45.31948" lon="5.78663">
        <ele>1070.3</ele>
        <time>2016-05-21T06:58:13Z</time>
      </trkpt>
      <trkpt lat="45.31956" lon="5.78667">
        <ele>1071</ele>
        <time>2016-05-21T06:58:15Z</time>
      </trkpt>
      <trkpt lat="45.31963" lon="5.78671">
        <ele>1071.6</ele>
        <time>2016-05-21T06:58:17Z</time>
      </trkpt>
      <trkpt lat="45.31971" lon="5.78673">
        <ele>1073</ele>
        <time>2016-05-21T06:58:21Z</time>
      </trkpt>
      <trkpt lat="45.3198" lon="5.78672">
        <ele>1074.6</ele>
        <time>2016-05-21T06:58:25Z</time>
      </trkpt>
      <trkpt lat="45.31987" lon="5.7867">
        <ele>1075.4</ele>
        <time>2016-05-21T06:58:28Z</time>
      </trkpt>
      <trkpt lat="45.31995" lon="5.7867">
        <ele>1076.2</ele>
        <time>2016-05-21T06:58:31Z</time>
      </trkpt>
      <trkpt lat="45.32003" lon="5.78669">
        <ele>1077.2</ele>
        <time>2016-05-21T06:58:34Z</time>
      </trkpt>
      <trkpt lat="45.32011" lon="5.78665">
        <ele>1078.1</ele>
        <time>2016-05-21T06:58:37Z</time>
      </trkpt>
      <trkpt lat="45.3202" lon="5.78663">
        <ele>1079.2</ele>
        <time>2016-05-21T06:58:40Z</time>
      </trkpt>
      <trkpt lat="45.32029" lon="5.78661">
        <ele>1080.2</ele>
        <time>2016-05-21T06:58:43Z</time>
      </trkpt>
      <trkpt lat="45.32036" lon="5.78659">
        <ele>1081.3</ele>
        <time>2016-05-21T06:58:46Z</time>
      </trkpt>
      <trkpt lat="45.32045" lon="5.78657">
        <ele>1082.4</ele>
        <time>2016-05-21T06:58:49Z</time>
      </trkpt>
      <trkpt lat="45.32053" lon="5.78657">
        <ele>1083.8</ele>
        <time>2016-05-21T06:58:53Z</time>
      </trkpt>
      <trkpt lat="45.32061" lon="5.78658">
        <ele>1085.6</ele>
        <time>2016-05-21T06:58:58Z</time>
      </trkpt>
      <trkpt lat="45.32067" lon="5.78665">
        <ele>1088.7</ele>
        <time>2016-05-21T06:59:05Z</time>
      </trkpt>
      <trkpt lat="45.32073" lon="5.78674">
        <ele>1091.5</ele>
        <time>2016-05-21T06:59:11Z</time>
      </trkpt>
      <trkpt lat="45.32081" lon="5.78682">
        <ele>1093.2</ele>
        <time>2016-05-21T06:59:14Z</time>
      </trkpt>
      <trkpt lat="45.32088" lon="5.78686">
        <ele>1094.2</ele>
        <time>2016-05-21T06:59:16Z</time>
      </trkpt>
      <trkpt lat="45.32098" lon="5.78689">
        <ele>1095.3</ele>
        <time>2016-05-21T06:59:18Z</time>
      </trkpt>
      <trkpt lat="45.32105" lon="5.78689">
        <ele>1095.9</ele>
        <time>2016-05-21T06:59:19Z</time>
      </trkpt>
      <trkpt lat="45.32112" lon="5.78687">
        <ele>1096.7</ele>
        <time>2016-05-21T06:59:21Z</time>
      </trkpt>
      <trkpt lat="45.32119" lon="5.78681">
        <ele>1097.9</ele>
        <time>2016-05-21T06:59:25Z</time>
      </trkpt>
      <trkpt lat="45.32119" lon="5.78671">
        <ele>1100</ele>
        <time>2016-05-21T06:59:30Z</time>
      </trkpt>
      <trkpt lat="45.32115" lon="5.78661">
        <ele>1102</ele>
        <time>2016-05-21T06:59:34Z</time>
      </trkpt>
      <trkpt lat="45.3211" lon="5.78652">
        <ele>1103.5</ele>
        <time>2016-05-21T06:59:37Z</time>
      </trkpt>
      <trkpt lat="45.32105" lon="5.78645">
        <ele>1105.1</ele>
        <time>2016-05-21T06:59:40Z</time>
      </trkpt>
      <trkpt lat="45.32101" lon="5.78635">
        <ele>1106.7</ele>
        <time>2016-05-21T06:59:43Z</time>
      </trkpt>
      <trkpt lat="45.32095" lon="5.78627">
        <ele>1108.3</ele>
        <time>2016-05-21T06:59:46Z</time>
      </trkpt>
      <trkpt lat="45.3209" lon="5.78618">
        <ele>1109.8</ele>
        <time>2016-05-21T06:59:49Z</time>
      </trkpt>
      <trkpt lat="45.32085" lon="5.78609">
        <ele>1110.9</ele>
        <time>2016-05-21T06:59:51Z</time>
      </trkpt>
      <trkpt lat="45.32081" lon="5.786">
        <ele>1111.9</ele>
        <time>2016-05-21T06:59:53Z</time>
      </trkpt>
      <trkpt lat="45.32077" lon="5.78587">
        <ele>1113.6</ele>
        <time>2016-05-21T06:59:57Z</time>
      </trkpt>
      <trkpt lat="45.3207" lon="5.7858">
        <ele>1114.7</ele>
        <time>2016-05-21T07:00:00Z</time>
      </trkpt>
      <trkpt lat="45.32063" lon="5.78578">
        <ele>1116.3</ele>
        <time>2016-05-21T07:00:04Z</time>
      </trkpt>
      <trkpt lat="45.32056" lon="5.78572">
        <ele>1117.6</ele>
        <time>2016-05-21T07:00:07Z</time>
      </trkpt>
      <trkpt lat="45.32047" lon="5.7857">
        <ele>1118.6</ele>
        <time>2016-05-21T07:00:09Z</time>
      </trkpt>
      <trkpt lat="45.32039" lon="5.78564">
        <ele>1120.4</ele>
        <time>2016-05-21T07:00:14Z</time>
      </trkpt>
      <trkpt lat="45.32032" lon="5.7856">
        <ele>1121.2</ele>
        <time>2016-05-21T07:00:17Z</time>
      </trkpt>
      <trkpt lat="45.32023" lon="5.78554">
        <ele>1122</ele>
        <time>2016-05-21T07:00:20Z</time>
      </trkpt>
      <trkpt lat="45.32016" lon="5.78549">
        <ele>1122.2</ele>
        <time>2016-05-21T07:00:22Z</time>
      </trkpt>
      <trkpt lat="45.3201" lon="5.78544">
        <ele>1122.4</ele>
        <time>2016-05-21T07:00:24Z</time>
      </trkpt>
      <trkpt lat="45.32002" lon="5.78539">
        <ele>1122.4</ele>
        <time>2016-05-21T07:00:26Z</time>
      </trkpt>
      <trkpt lat="45.31996" lon="5.78533">
        <ele>1122.3</ele>
        <time>2016-05-21T07:00:28Z</time>
      </trkpt>
      <trkpt lat="45.3199" lon="5.78527">
        <ele>1122.2</ele>
        <time>2016-05-21T07:00:30Z</time>
      </trkpt>
      <trkpt lat="45.31985" lon="5.7852">
        <ele>1122.1</ele>
        <time>2016-05-21T07:00:32Z</time>
      </trkpt>
      <trkpt lat="45.31979" lon="5.78511">
        <ele>1122</ele>
        <time>2016-05-21T07:00:35Z</time>
      </trkpt>
      <trkpt lat="45.31974" lon="5.78501">
        <ele>1122.1</ele>
        <time>2016-05-21T07:00:38Z</time>
      </trkpt>
      <trkpt lat="45.3197" lon="5.78488">
        <ele>1122.1</ele>
        <time>2016-05-21T07:00:41Z</time>
      </trkpt>
      <trkpt lat="45.31967" lon="5.78476">
        <ele>1122</ele>
        <time>2016-05-21T07:00:44Z</time>
      </trkpt>
      <trkpt lat="45.31965" lon="5.78466">
        <ele>1121.9</ele>
        <time>2016-05-21T07:00:47Z</time>
      </trkpt>
      <trkpt lat="45.31964" lon="5.78454">
        <ele>1121.8</ele>
        <time>2016-05-21T07:00:50Z</time>
      </trkpt>
      <trkpt lat="45.31963" lon="5.78443">
        <ele>1121.8</ele>
        <time>2016-05-21T07:00:53Z</time>
      </trkpt>
      <trkpt lat="45.31963" lon="5.78432">
        <ele>1121.8</ele>
        <time>2016-05-21T07:00:57Z</time>
      </trkpt>
      <trkpt lat="45.31962" lon="5.7842">
        <ele>1121.8</ele>
        <time>2016-05-21T07:01:00Z</time>
      </trkpt>
      <trkpt lat="45.31961" lon="5.78405">
        <ele>1122.1</ele>
        <time>2016-05-21T07:01:03Z</time>
      </trkpt>
      <trkpt lat="45.31961" lon="5.78393">
        <ele>1122.6</ele>
        <time>2016-05-21T07:01:06Z</time>
      </trkpt>
      <trkpt lat="45.31962" lon="5.78379">
        <ele>1123</ele>
        <time>2016-05-21T07:01:09Z</time>
      </trkpt>
      <trkpt lat="45.31963" lon="5.78368">
        <ele>1123.5</ele>
        <time>2016-05-21T07:01:12Z</time>
      </trkpt>
      <trkpt lat="45.31965" lon="5.78357">
        <ele>1124</ele>
        <time>2016-05-21T07:01:15Z</time>
      </trkpt>
      <trkpt lat="45.31968" lon="5.78345">
        <ele>1124.4</ele>
        <time>2016-05-21T07:01:18Z</time>
      </trkpt>
      <trkpt lat="45.31971" lon="5.78334">
        <ele>1124.9</ele>
        <time>2016-05-21T07:01:21Z</time>
      </trkpt>
      <trkpt lat="45.31973" lon="5.78323">
        <ele>1125.3</ele>
        <time>2016-05-21T07:01:24Z</time>
      </trkpt>
      <trkpt lat="45.31974" lon="5.78312">
        <ele>1125.9</ele>
        <time>2016-05-21T07:01:27Z</time>
      </trkpt>
      <trkpt lat="45.31973" lon="5.78299">
        <ele>1126.4</ele>
        <time>2016-05-21T07:01:30Z</time>
      </trkpt>
      <trkpt lat="45.31972" lon="5.78288">
        <ele>1127</ele>
        <time>2016-05-21T07:01:33Z</time>
      </trkpt>
      <trkpt lat="45.3197" lon="5.78276">
        <ele>1127.5</ele>
        <time>2016-05-21T07:01:36Z</time>
      </trkpt>
      <trkpt lat="45.3197" lon="5.78265">
        <ele>1128</ele>
        <time>2016-05-21T07:01:39Z</time>
      </trkpt>
      <trkpt lat="45.31971" lon="5.78253">
        <ele>1128.5</ele>
        <time>2016-05-21T07:01:42Z</time>
      </trkpt>
      <trkpt lat="45.31973" lon="5.78242">
        <ele>1129.1</ele>
        <time>2016-05-21T07:01:45Z</time>
      </trkpt>
      <trkpt lat="45.31976" lon="5.7823">
        <ele>1129.7</ele>
        <time>2016-05-21T07:01:48Z</time>
      </trkpt>
      <trkpt lat="45.31978" lon="5.78216">
        <ele>1130.3</ele>
        <time>2016-05-21T07:01:51Z</time>
      </trkpt>
      <trkpt lat="45.31978" lon="5.78201">
        <ele>1130.8</ele>
        <time>2016-05-21T07:01:54Z</time>
      </trkpt>
      <trkpt lat="45.31977" lon="5.78189">
        <ele>1131.3</ele>
        <time>2016-05-21T07:01:57Z</time>
      </trkpt>
      <trkpt lat="45.31972" lon="5.78177">
        <ele>1132</ele>
        <time>2016-05-21T07:02:01Z</time>
      </trkpt>
      <trkpt lat="45.3197" lon="5.78166">
        <ele>1132.6</ele>
        <time>2016-05-21T07:02:04Z</time>
      </trkpt>
      <trkpt lat="45.31967" lon="5.78154">
        <ele>1133.3</ele>
        <time>2016-05-21T07:02:07Z</time>
      </trkpt>
      <trkpt lat="45.31964" lon="5.78142">
        <ele>1134</ele>
        <time>2016-05-21T07:02:10Z</time>
      </trkpt>
      <trkpt lat="45.31962" lon="5.78131">
        <ele>1134.6</ele>
        <time>2016-05-21T07:02:13Z</time>
      </trkpt>
      <trkpt lat="45.3196" lon="5.78118">
        <ele>1135.3</ele>
        <time>2016-05-21T07:02:16Z</time>
      </trkpt>
      <trkpt lat="45.31956" lon="5.78107">
        <ele>1135.9</ele>
        <time>2016-05-21T07:02:19Z</time>
      </trkpt>
      <trkpt lat="45.31955" lon="5.78096">
        <ele>1136.5</ele>
        <time>2016-05-21T07:02:22Z</time>
      </trkpt>
      <trkpt lat="45.31952" lon="5.78084">
        <ele>1137.2</ele>
        <time>2016-05-21T07:02:26Z</time>
      </trkpt>
      <trkpt lat="45.3195" lon="5.78073">
        <ele>1138</ele>
        <time>2016-05-21T07:02:30Z</time>
      </trkpt>
      <trkpt lat="45.31947" lon="5.78062">
        <ele>1138.5</ele>
        <time>2016-05-21T07:02:34Z</time>
      </trkpt>
      <trkpt lat="45.31944" lon="5.78048">
        <ele>1138.7</ele>
        <time>2016-05-21T07:02:38Z</time>
      </trkpt>
      <trkpt lat="45.3194" lon="5.78036">
        <ele>1139</ele>
        <time>2016-05-21T07:02:41Z</time>
      </trkpt>
      <trkpt lat="45.31936" lon="5.78023">
        <ele>1139.2</ele>
        <time>2016-05-21T07:02:44Z</time>
      </trkpt>
      <trkpt lat="45.31931" lon="5.78013">
        <ele>1139.5</ele>
        <time>2016-05-21T07:02:47Z</time>
      </trkpt>
      <trkpt lat="45.31925" lon="5.78007">
        <ele>1139.7</ele>
        <time>2016-05-21T07:02:49Z</time>
      </trkpt>
      <trkpt lat="45.3192" lon="5.78">
        <ele>1139.9</ele>
        <time>2016-05-21T07:02:51Z</time>
      </trkpt>
      <trkpt lat="45.31913" lon="5.77995">
        <ele>1140.1</ele>
        <time>2016-05-21T07:02:54Z</time>
      </trkpt>
      <trkpt lat="45.31907" lon="5.77989">
        <ele>1140.3</ele>
        <time>2016-05-21T07:02:57Z</time>
      </trkpt>
      <trkpt lat="45.31899" lon="5.77983">
        <ele>1140.5</ele>
        <time>2016-05-21T07:03:00Z</time>
      </trkpt>
      <trkpt lat="45.31894" lon="5.77974">
        <ele>1140.7</ele>
        <time>2016-05-21T07:03:04Z</time>
      </trkpt>
      <trkpt lat="45.31889" lon="5.77966">
        <ele>1140.7</ele>
        <time>2016-05-21T07:03:09Z</time>
      </trkpt>
      <trkpt lat="45.31882" lon="5.77958">
        <ele>1141</ele>
        <time>2016-05-21T07:03:14Z</time>
      </trkpt>
      <trkpt lat="45.31876" lon="5.7795">
        <ele>1141.2</ele>
        <time>2016-05-21T07:03:17Z</time>
      </trkpt>
      <trkpt lat="45.31868" lon="5.77942">
        <ele>1141.3</ele>
        <time>2016-05-21T07:03:20Z</time>
      </trkpt>
      <trkpt lat="45.31859" lon="5.77935">
        <ele>1141.4</ele>
        <time>2016-05-21T07:03:23Z</time>
      </trkpt>
      <trkpt lat="45.31849" lon="5.77932">
        <ele>1141.7</ele>
        <time>2016-05-21T07:03:26Z</time>
      </trkpt>
      <trkpt lat="45.3184" lon="5.77933">
        <ele>1142.9</ele>
        <time>2016-05-21T07:03:28Z</time>
      </trkpt>
      <trkpt lat="45.3183" lon="5.77937">
        <ele>1143.2</ele>
        <time>2016-05-21T07:03:30Z</time>
      </trkpt>
      <trkpt lat="45.31817" lon="5.77944">
        <ele>1143.3</ele>
        <time>2016-05-21T07:03:32Z</time>
      </trkpt>
      <trkpt lat="45.31806" lon="5.77952">
        <ele>1143.1</ele>
        <time>2016-05-21T07:03:34Z</time>
      </trkpt>
      <trkpt lat="45.31793" lon="5.77961">
        <ele>1142.7</ele>
        <time>2016-05-21T07:03:36Z</time>
      </trkpt>
      <trkpt lat="45.31781" lon="5.7797">
        <ele>1142.3</ele>
        <time>2016-05-21T07:03:38Z</time>
      </trkpt>
      <trkpt lat="45.31769" lon="5.7798">
        <ele>1141.4</ele>
        <time>2016-05-21T07:03:40Z</time>
      </trkpt>
      <trkpt lat="45.3176" lon="5.7799">
        <ele>1140.4</ele>
        <time>2016-05-21T07:03:42Z</time>
      </trkpt>
      <trkpt lat="45.31756" lon="5.78005">
        <ele>1138.3</ele>
        <time>2016-05-21T07:03:44Z</time>
      </trkpt>
      <trkpt lat="45.31753" lon="5.7802">
        <ele>1136</ele>
        <time>2016-05-21T07:03:46Z</time>
      </trkpt>
      <trkpt lat="45.31748" lon="5.78029">
        <ele>1133.9</ele>
        <time>2016-05-21T07:03:48Z</time>
      </trkpt>
      <trkpt lat="45.31738" lon="5.78028">
        <ele>1131.9</ele>
        <time>2016-05-21T07:03:50Z</time>
      </trkpt>
      <trkpt lat="45.31729" lon="5.78015">
        <ele>1127.9</ele>
        <time>2016-05-21T07:03:53Z</time>
      </trkpt>
      <trkpt lat="45.31723" lon="5.77998">
        <ele>1125.9</ele>
        <time>2016-05-21T07:03:55Z</time>
      </trkpt>
      <trkpt lat="45.3172" lon="5.77987">
        <ele>1125.8</ele>
        <time>2016-05-21T07:03:56Z</time>
      </trkpt>
      <trkpt lat="45.31715" lon="5.77976">
        <ele>1125.2</ele>
        <time>2016-05-21T07:03:57Z</time>
      </trkpt>
      <trkpt lat="45.31712" lon="5.77965">
        <ele>1124.1</ele>
        <time>2016-05-21T07:03:58Z</time>
      </trkpt>
      <trkpt lat="45.31707" lon="5.77953">
        <ele>1122.6</ele>
        <time>2016-05-21T07:03:59Z</time>
      </trkpt>
      <trkpt lat="45.31702" lon="5.7794">
        <ele>1121.2</ele>
        <time>2016-05-21T07:04:00Z</time>
      </trkpt>
      <trkpt lat="45.31698" lon="5.77928">
        <ele>1120.1</ele>
        <time>2016-05-21T07:04:01Z</time>
      </trkpt>
      <trkpt lat="45.31693" lon="5.77916">
        <ele>1119.2</ele>
        <time>2016-05-21T07:04:02Z</time>
      </trkpt>
      <trkpt lat="45.31689" lon="5.77905">
        <ele>1118.5</ele>
        <time>2016-05-21T07:04:03Z</time>
      </trkpt>
      <trkpt lat="45.31685" lon="5.77894">
        <ele>1118.1</ele>
        <time>2016-05-21T07:04:04Z</time>
      </trkpt>
      <trkpt lat="45.31681" lon="5.77884">
        <ele>1117.9</ele>
        <time>2016-05-21T07:04:05Z</time>
      </trkpt>
      <trkpt lat="45.31678" lon="5.77874">
        <ele>1117.8</ele>
        <time>2016-05-21T07:04:06Z</time>
      </trkpt>
      <trkpt lat="45.31674" lon="5.77864">
        <ele>1117.9</ele>
        <time>2016-05-21T07:04:07Z</time>
      </trkpt>
      <trkpt lat="45.31666" lon="5.77848">
        <ele>1118.6</ele>
        <time>2016-05-21T07:04:09Z</time>
      </trkpt>
      <trkpt lat="45.3166" lon="5.77842">
        <ele>1119.1</ele>
        <time>2016-05-21T07:04:10Z</time>
      </trkpt>
      <trkpt lat="45.31653" lon="5.77838">
        <ele>1119.1</ele>
        <time>2016-05-21T07:04:11Z</time>
      </trkpt>
      <trkpt lat="45.3164" lon="5.77833">
        <ele>1119.8</ele>
        <time>2016-05-21T07:04:13Z</time>
      </trkpt>
      <trkpt lat="45.31628" lon="5.77836">
        <ele>1120.3</ele>
        <time>2016-05-21T07:04:15Z</time>
      </trkpt>
      <trkpt lat="45.31617" lon="5.77839">
        <ele>1121.8</ele>
        <time>2016-05-21T07:04:17Z</time>
      </trkpt>
      <trkpt lat="45.31606" lon="5.77842">
        <ele>1123.3</ele>
        <time>2016-05-21T07:04:19Z</time>
      </trkpt>
      <trkpt lat="45.31595" lon="5.77842">
        <ele>1124.3</ele>
        <time>2016-05-21T07:04:21Z</time>
      </trkpt>
      <trkpt lat="45.31585" lon="5.77839">
        <ele>1123.9</ele>
        <time>2016-05-21T07:04:23Z</time>
      </trkpt>
      <trkpt lat="45.31574" lon="5.77834">
        <ele>1124</ele>
        <time>2016-05-21T07:04:25Z</time>
      </trkpt>
      <trkpt lat="45.31566" lon="5.77826">
        <ele>1123.8</ele>
        <time>2016-05-21T07:04:27Z</time>
      </trkpt>
      <trkpt lat="45.31557" lon="5.77816">
        <ele>1122.5</ele>
        <time>2016-05-21T07:04:29Z</time>
      </trkpt>
      <trkpt lat="45.31549" lon="5.77806">
        <ele>1120.9</ele>
        <time>2016-05-21T07:04:31Z</time>
      </trkpt>
      <trkpt lat="45.31541" lon="5.77793">
        <ele>1119.8</ele>
        <time>2016-05-21T07:04:33Z</time>
      </trkpt>
      <trkpt lat="45.31534" lon="5.77779">
        <ele>1120</ele>
        <time>2016-05-21T07:04:35Z</time>
      </trkpt>
      <trkpt lat="45.31527" lon="5.77765">
        <ele>1120.7</ele>
        <time>2016-05-21T07:04:37Z</time>
      </trkpt>
      <trkpt lat="45.31519" lon="5.77753">
        <ele>1121.6</ele>
        <time>2016-05-21T07:04:39Z</time>
      </trkpt>
      <trkpt lat="45.31513" lon="5.77742">
        <ele>1122.8</ele>
        <time>2016-05-21T07:04:41Z</time>
      </trkpt>
      <trkpt lat="45.31507" lon="5.77732">
        <ele>1124.1</ele>
        <time>2016-05-21T07:04:43Z</time>
      </trkpt>
      <trkpt lat="45.315" lon="5.77723">
        <ele>1124.7</ele>
        <time>2016-05-21T07:04:45Z</time>
      </trkpt>
      <trkpt lat="45.31494" lon="5.77714">
        <ele>1124.9</ele>
        <time>2016-05-21T07:04:47Z</time>
      </trkpt>
      <trkpt lat="45.31487" lon="5.77704">
        <ele>1125.3</ele>
        <time>2016-05-21T07:04:50Z</time>
      </trkpt>
      <trkpt lat="45.31482" lon="5.77696">
        <ele>1126</ele>
        <time>2016-05-21T07:04:52Z</time>
      </trkpt>
      <trkpt lat="45.31473" lon="5.77691">
        <ele>1126.2</ele>
        <time>2016-05-21T07:04:55Z</time>
      </trkpt>
      <trkpt lat="45.31465" lon="5.77685">
        <ele>1126.6</ele>
        <time>2016-05-21T07:04:58Z</time>
      </trkpt>
      <trkpt lat="45.31458" lon="5.77681">
        <ele>1126.7</ele>
        <time>2016-05-21T07:05:00Z</time>
      </trkpt>
      <trkpt lat="45.31451" lon="5.77676">
        <ele>1127.5</ele>
        <time>2016-05-21T07:05:02Z</time>
      </trkpt>
      <trkpt lat="45.31443" lon="5.7767">
        <ele>1127.7</ele>
        <time>2016-05-21T07:05:04Z</time>
      </trkpt>
      <trkpt lat="45.31435" lon="5.77661">
        <ele>1128.1</ele>
        <time>2016-05-21T07:05:07Z</time>
      </trkpt>
      <trkpt lat="45.31429" lon="5.77654">
        <ele>1128.6</ele>
        <time>2016-05-21T07:05:09Z</time>
      </trkpt>
      <trkpt lat="45.31421" lon="5.77643">
        <ele>1129.2</ele>
        <time>2016-05-21T07:05:12Z</time>
      </trkpt>
      <trkpt lat="45.31416" lon="5.77637">
        <ele>1129.6</ele>
        <time>2016-05-21T07:05:14Z</time>
      </trkpt>
      <trkpt lat="45.31409" lon="5.7763">
        <ele>1131.3</ele>
        <time>2016-05-21T07:05:17Z</time>
      </trkpt>
      <trkpt lat="45.31402" lon="5.77625">
        <ele>1131.9</ele>
        <time>2016-05-21T07:05:19Z</time>
      </trkpt>
      <trkpt lat="45.31395" lon="5.77618">
        <ele>1132.2</ele>
        <time>2016-05-21T07:05:21Z</time>
      </trkpt>
      <trkpt lat="45.31392" lon="5.77608">
        <ele>1132.6</ele>
        <time>2016-05-21T07:05:23Z</time>
      </trkpt>
      <trkpt lat="45.3139" lon="5.77597">
        <ele>1133.2</ele>
        <time>2016-05-21T07:05:25Z</time>
      </trkpt>
      <trkpt lat="45.3139" lon="5.77584">
        <ele>1134.6</ele>
        <time>2016-05-21T07:05:27Z</time>
      </trkpt>
      <trkpt lat="45.31391" lon="5.77574">
        <ele>1135.3</ele>
        <time>2016-05-21T07:05:29Z</time>
      </trkpt>
      <trkpt lat="45.3139" lon="5.7756">
        <ele>1136.6</ele>
        <time>2016-05-21T07:05:32Z</time>
      </trkpt>
      <trkpt lat="45.31388" lon="5.77544">
        <ele>1136.8</ele>
        <time>2016-05-21T07:05:35Z</time>
      </trkpt>
      <trkpt lat="45.31384" lon="5.77534">
        <ele>1136.9</ele>
        <time>2016-05-21T07:05:37Z</time>
      </trkpt>
      <trkpt lat="45.3138" lon="5.77525">
        <ele>1137.2</ele>
        <time>2016-05-21T07:05:39Z</time>
      </trkpt>
      <trkpt lat="45.31375" lon="5.77512">
        <ele>1137.4</ele>
        <time>2016-05-21T07:05:42Z</time>
      </trkpt>
      <trkpt lat="45.3137" lon="5.77503">
        <ele>1138.3</ele>
        <time>2016-05-21T07:05:44Z</time>
      </trkpt>
      <trkpt lat="45.31366" lon="5.77493">
        <ele>1139.4</ele>
        <time>2016-05-21T07:05:46Z</time>
      </trkpt>
      <trkpt lat="45.3136" lon="5.7748">
        <ele>1140.2</ele>
        <time>2016-05-21T07:05:49Z</time>
      </trkpt>
      <trkpt lat="45.31353" lon="5.77467">
        <ele>1140.1</ele>
        <time>2016-05-21T07:05:51Z</time>
      </trkpt>
      <trkpt lat="45.31345" lon="5.77454">
        <ele>1140.2</ele>
        <time>2016-05-21T07:05:53Z</time>
      </trkpt>
      <trkpt lat="45.31336" lon="5.77439">
        <ele>1139.8</ele>
        <time>2016-05-21T07:05:55Z</time>
      </trkpt>
      <trkpt lat="45.31331" lon="5.77431">
        <ele>1139.1</ele>
        <time>2016-05-21T07:05:56Z</time>
      </trkpt>
      <trkpt lat="45.31325" lon="5.77422">
        <ele>1138.6</ele>
        <time>2016-05-21T07:05:57Z</time>
      </trkpt>
      <trkpt lat="45.3132" lon="5.77415">
        <ele>1138.2</ele>
        <time>2016-05-21T07:05:58Z</time>
      </trkpt>
      <trkpt lat="45.31314" lon="5.77406">
        <ele>1138</ele>
        <time>2016-05-21T07:05:59Z</time>
      </trkpt>
      <trkpt lat="45.31309" lon="5.77397">
        <ele>1138</ele>
        <time>2016-05-21T07:06:00Z</time>
      </trkpt>
      <trkpt lat="45.31304" lon="5.77389">
        <ele>1138</ele>
        <time>2016-05-21T07:06:01Z</time>
      </trkpt>
      <trkpt lat="45.31296" lon="5.77373">
        <ele>1138.2</ele>
        <time>2016-05-21T07:06:03Z</time>
      </trkpt>
      <trkpt lat="45.31291" lon="5.77364">
        <ele>1138.7</ele>
        <time>2016-05-21T07:06:04Z</time>
      </trkpt>
      <trkpt lat="45.31286" lon="5.77355">
        <ele>1139.3</ele>
        <time>2016-05-21T07:06:05Z</time>
      </trkpt>
      <trkpt lat="45.31281" lon="5.77346">
        <ele>1139.8</ele>
        <time>2016-05-21T07:06:06Z</time>
      </trkpt>
      <trkpt lat="45.31276" lon="5.77337">
        <ele>1139.9</ele>
        <time>2016-05-21T07:06:07Z</time>
      </trkpt>
      <trkpt lat="45.31272" lon="5.77329">
        <ele>1139.9</ele>
        <time>2016-05-21T07:06:08Z</time>
      </trkpt>
      <trkpt lat="45.31262" lon="5.77313">
        <ele>1140.1</ele>
        <time>2016-05-21T07:06:10Z</time>
      </trkpt>
      <trkpt lat="45.31254" lon="5.77298">
        <ele>1139.5</ele>
        <time>2016-05-21T07:06:12Z</time>
      </trkpt>
      <trkpt lat="45.31245" lon="5.77285">
        <ele>1139.1</ele>
        <time>2016-05-21T07:06:14Z</time>
      </trkpt>
      <trkpt lat="45.31237" lon="5.77274">
        <ele>1138.6</ele>
        <time>2016-05-21T07:06:16Z</time>
      </trkpt>
      <trkpt lat="45.31229" lon="5.77264">
        <ele>1138.2</ele>
        <time>2016-05-21T07:06:18Z</time>
      </trkpt>
      <trkpt lat="45.31221" lon="5.77255">
        <ele>1137.6</ele>
        <time>2016-05-21T07:06:20Z</time>
      </trkpt>
      <trkpt lat="45.31214" lon="5.77246">
        <ele>1137.6</ele>
        <time>2016-05-21T07:06:22Z</time>
      </trkpt>
      <trkpt lat="45.31208" lon="5.77239">
        <ele>1136.5</ele>
        <time>2016-05-21T07:06:24Z</time>
      </trkpt>
      <trkpt lat="45.31203" lon="5.7723">
        <ele>1135.9</ele>
        <time>2016-05-21T07:06:26Z</time>
      </trkpt>
      <trkpt lat="45.31196" lon="5.77223">
        <ele>1136.9</ele>
        <time>2016-05-21T07:06:28Z</time>
      </trkpt>
      <trkpt lat="45.31187" lon="5.77219">
        <ele>1137.2</ele>
        <time>2016-05-21T07:06:31Z</time>
      </trkpt>
      <trkpt lat="45.31179" lon="5.7722">
        <ele>1137.5</ele>
        <time>2016-05-21T07:06:34Z</time>
      </trkpt>
      <trkpt lat="45.31175" lon="5.77223">
        <ele>1138.1</ele>
        <time>2016-05-21T07:06:41Z</time>
      </trkpt>
      <trkpt lat="45.31179" lon="5.77232">
        <ele>1137.5</ele>
        <time>2016-05-21T07:08:17Z</time>
      </trkpt>
      <trkpt lat="45.31183" lon="5.77243">
        <ele>1136.9</ele>
        <time>2016-05-21T07:08:19Z</time>
      </trkpt>
      <trkpt lat="45.31189" lon="5.77258">
        <ele>1137.4</ele>
        <time>2016-05-21T07:08:21Z</time>
      </trkpt>
      <trkpt lat="45.31196" lon="5.77274">
        <ele>1137.5</ele>
        <time>2016-05-21T07:08:23Z</time>
      </trkpt>
      <trkpt lat="45.312" lon="5.77283">
        <ele>1137.5</ele>
        <time>2016-05-21T07:08:24Z</time>
      </trkpt>
      <trkpt lat="45.31204" lon="5.77293">
        <ele>1137.9</ele>
        <time>2016-05-21T07:08:25Z</time>
      </trkpt>
      <trkpt lat="45.31208" lon="5.77303">
        <ele>1138.2</ele>
        <time>2016-05-21T07:08:26Z</time>
      </trkpt>
      <trkpt lat="45.31212" lon="5.77314">
        <ele>1138.2</ele>
        <time>2016-05-21T07:08:27Z</time>
      </trkpt>
      <trkpt lat="45.31217" lon="5.77325">
        <ele>1138</ele>
        <time>2016-05-21T07:08:28Z</time>
      </trkpt>
      <trkpt lat="45.31221" lon="5.77336">
        <ele>1137.2</ele>
        <time>2016-05-21T07:08:29Z</time>
      </trkpt>
      <trkpt lat="45.31226" lon="5.77348">
        <ele>1136.5</ele>
        <time>2016-05-21T07:08:30Z</time>
      </trkpt>
      <trkpt lat="45.31231" lon="5.77361">
        <ele>1135.9</ele>
        <time>2016-05-21T07:08:31Z</time>
      </trkpt>
      <trkpt lat="45.31236" lon="5.77374">
        <ele>1134.9</ele>
        <time>2016-05-21T07:08:32Z</time>
      </trkpt>
      <trkpt lat="45.31241" lon="5.77387">
        <ele>1134.2</ele>
        <time>2016-05-21T07:08:33Z</time>
      </trkpt>
      <trkpt lat="45.31246" lon="5.774">
        <ele>1133.8</ele>
        <time>2016-05-21T07:08:34Z</time>
      </trkpt>
      <trkpt lat="45.3125" lon="5.77413">
        <ele>1133.3</ele>
        <time>2016-05-21T07:08:35Z</time>
      </trkpt>
      <trkpt lat="45.31254" lon="5.77426">
        <ele>1132.8</ele>
        <time>2016-05-21T07:08:36Z</time>
      </trkpt>
      <trkpt lat="45.31255" lon="5.77441">
        <ele>1131.4</ele>
        <time>2016-05-21T07:08:37Z</time>
      </trkpt>
      <trkpt lat="45.31255" lon="5.77455">
        <ele>1129.8</ele>
        <time>2016-05-21T07:08:38Z</time>
      </trkpt>
      <trkpt lat="45.31253" lon="5.77469">
        <ele>1128</ele>
        <time>2016-05-21T07:08:39Z</time>
      </trkpt>
      <trkpt lat="45.31247" lon="5.7748">
        <ele>1126.2</ele>
        <time>2016-05-21T07:08:40Z</time>
      </trkpt>
      <trkpt lat="45.31241" lon="5.77493">
        <ele>1124.6</ele>
        <time>2016-05-21T07:08:41Z</time>
      </trkpt>
      <trkpt lat="45.31232" lon="5.77502">
        <ele>1122.9</ele>
        <time>2016-05-21T07:08:42Z</time>
      </trkpt>
      <trkpt lat="45.31223" lon="5.77512">
        <ele>1121.9</ele>
        <time>2016-05-21T07:08:43Z</time>
      </trkpt>
      <trkpt lat="45.31214" lon="5.77521">
        <ele>1121</ele>
        <time>2016-05-21T07:08:44Z</time>
      </trkpt>
      <trkpt lat="45.31204" lon="5.77532">
        <ele>1119.6</ele>
        <time>2016-05-21T07:08:45Z</time>
      </trkpt>
      <trkpt lat="45.31194" lon="5.77542">
        <ele>1117.8</ele>
        <time>2016-05-21T07:08:46Z</time>
      </trkpt>
      <trkpt lat="45.31186" lon="5.77552">
        <ele>1115.8</ele>
        <time>2016-05-21T07:08:47Z</time>
      </trkpt>
      <trkpt lat="45.31178" lon="5.77563">
        <ele>1114.1</ele>
        <time>2016-05-21T07:08:48Z</time>
      </trkpt>
      <trkpt lat="45.31172" lon="5.77575">
        <ele>1113.2</ele>
        <time>2016-05-21T07:08:49Z</time>
      </trkpt>
      <trkpt lat="45.31166" lon="5.77587">
        <ele>1112</ele>
        <time>2016-05-21T07:08:50Z</time>
      </trkpt>
      <trkpt lat="45.31163" lon="5.77604">
        <ele>1110.8</ele>
        <time>2016-05-21T07:08:51Z</time>
      </trkpt>
      <trkpt lat="45.31161" lon="5.77622">
        <ele>1110.3</ele>
        <time>2016-05-21T07:08:52Z</time>
      </trkpt>
      <trkpt lat="45.3116" lon="5.77638">
        <ele>1109.9</ele>
        <time>2016-05-21T07:08:53Z</time>
      </trkpt>
      <trkpt lat="45.31158" lon="5.77654">
        <ele>1109.2</ele>
        <time>2016-05-21T07:08:54Z</time>
      </trkpt>
      <trkpt lat="45.31159" lon="5.77671">
        <ele>1108.8</ele>
        <time>2016-05-21T07:08:55Z</time>
      </trkpt>
      <trkpt lat="45.3116" lon="5.77687">
        <ele>1109.1</ele>
        <time>2016-05-21T07:08:56Z</time>
      </trkpt>
      <trkpt lat="45.31164" lon="5.77702">
        <ele>1109.2</ele>
        <time>2016-05-21T07:08:57Z</time>
      </trkpt>
      <trkpt lat="45.31169" lon="5.77716">
        <ele>1109.1</ele>
        <time>2016-05-21T07:08:58Z</time>
      </trkpt>
      <trkpt lat="45.31177" lon="5.77728">
        <ele>1108.3</ele>
        <time>2016-05-21T07:08:59Z</time>
      </trkpt>
      <trkpt lat="45.31185" lon="5.7774">
        <ele>1107.2</ele>
        <time>2016-05-21T07:09:00Z</time>
      </trkpt>
      <trkpt lat="45.31194" lon="5.77753">
        <ele>1105.7</ele>
        <time>2016-05-21T07:09:01Z</time>
      </trkpt>
      <trkpt lat="45.31204" lon="5.77767">
        <ele>1104.3</ele>
        <time>2016-05-21T07:09:02Z</time>
      </trkpt>
      <trkpt lat="45.31214" lon="5.77781">
        <ele>1102.5</ele>
        <time>2016-05-21T07:09:03Z</time>
      </trkpt>
      <trkpt lat="45.31224" lon="5.77795">
        <ele>1101.7</ele>
        <time>2016-05-21T07:09:04Z</time>
      </trkpt>
      <trkpt lat="45.31235" lon="5.77809">
        <ele>1100.4</ele>
        <time>2016-05-21T07:09:05Z</time>
      </trkpt>
      <trkpt lat="45.31246" lon="5.77821">
        <ele>1099.7</ele>
        <time>2016-05-21T07:09:06Z</time>
      </trkpt>
      <trkpt lat="45.31258" lon="5.77834">
        <ele>1098.8</ele>
        <time>2016-05-21T07:09:07Z</time>
      </trkpt>
      <trkpt lat="45.31271" lon="5.77846">
        <ele>1098.1</ele>
        <time>2016-05-21T07:09:08Z</time>
      </trkpt>
      <trkpt lat="45.31284" lon="5.77858">
        <ele>1098.1</ele>
        <time>2016-05-21T07:09:09Z</time>
      </trkpt>
      <trkpt lat="45.31297" lon="5.7787">
        <ele>1098.1</ele>
        <time>2016-05-21T07:09:10Z</time>
      </trkpt>
      <trkpt lat="45.31309" lon="5.77882">
        <ele>1097.4</ele>
        <time>2016-05-21T07:09:11Z</time>
      </trkpt>
      <trkpt lat="45.31322" lon="5.77895">
        <ele>1096.7</ele>
        <time>2016-05-21T07:09:12Z</time>
      </trkpt>
      <trkpt lat="45.31333" lon="5.77909">
        <ele>1095.3</ele>
        <time>2016-05-21T07:09:13Z</time>
      </trkpt>
      <trkpt lat="45.31342" lon="5.77926">
        <ele>1093.4</ele>
        <time>2016-05-21T07:09:14Z</time>
      </trkpt>
      <trkpt lat="45.31352" lon="5.77944">
        <ele>1090.8</ele>
        <time>2016-05-21T07:09:15Z</time>
      </trkpt>
      <trkpt lat="45.3136" lon="5.77961">
        <ele>1087.9</ele>
        <time>2016-05-21T07:09:16Z</time>
      </trkpt>
      <trkpt lat="45.31369" lon="5.77978">
        <ele>1085.5</ele>
        <time>2016-05-21T07:09:17Z</time>
      </trkpt>
      <trkpt lat="45.31376" lon="5.77995">
        <ele>1083.2</ele>
        <time>2016-05-21T07:09:18Z</time>
      </trkpt>
      <trkpt lat="45.31383" lon="5.78012">
        <ele>1081.1</ele>
        <time>2016-05-21T07:09:19Z</time>
      </trkpt>
      <trkpt lat="45.3139" lon="5.7803">
        <ele>1079</ele>
        <time>2016-05-21T07:09:20Z</time>
      </trkpt>
      <trkpt lat="45.31397" lon="5.78048">
        <ele>1077.2</ele>
        <time>2016-05-21T07:09:21Z</time>
      </trkpt>
      <trkpt lat="45.31403" lon="5.78065">
        <ele>1075.7</ele>
        <time>2016-05-21T07:09:22Z</time>
      </trkpt>
      <trkpt lat="45.31409" lon="5.78083">
        <ele>1074.5</ele>
        <time>2016-05-21T07:09:23Z</time>
      </trkpt>
      <trkpt lat="45.31415" lon="5.78101">
        <ele>1073.3</ele>
        <time>2016-05-21T07:09:24Z</time>
      </trkpt>
      <trkpt lat="45.31421" lon="5.78118">
        <ele>1072.8</ele>
        <time>2016-05-21T07:09:25Z</time>
      </trkpt>
      <trkpt lat="45.31428" lon="5.78136">
        <ele>1072.4</ele>
        <time>2016-05-21T07:09:26Z</time>
      </trkpt>
      <trkpt lat="45.31436" lon="5.78154">
        <ele>1071.8</ele>
        <time>2016-05-21T07:09:27Z</time>
      </trkpt>
      <trkpt lat="45.31442" lon="5.78173">
        <ele>1071.4</ele>
        <time>2016-05-21T07:09:28Z</time>
      </trkpt>
      <trkpt lat="45.31447" lon="5.78189">
        <ele>1071</ele>
        <time>2016-05-21T07:09:29Z</time>
      </trkpt>
      <trkpt lat="45.31449" lon="5.78208">
        <ele>1070.9</ele>
        <time>2016-05-21T07:09:30Z</time>
      </trkpt>
      <trkpt lat="45.31451" lon="5.78226">
        <ele>1070.5</ele>
        <time>2016-05-21T07:09:31Z</time>
      </trkpt>
      <trkpt lat="45.31454" lon="5.78245">
        <ele>1070.1</ele>
        <time>2016-05-21T07:09:32Z</time>
      </trkpt>
      <trkpt lat="45.31456" lon="5.78264">
        <ele>1069.8</ele>
        <time>2016-05-21T07:09:33Z</time>
      </trkpt>
      <trkpt lat="45.31459" lon="5.78284">
        <ele>1069.7</ele>
        <time>2016-05-21T07:09:34Z</time>
      </trkpt>
      <trkpt lat="45.31462" lon="5.78304">
        <ele>1070</ele>
        <time>2016-05-21T07:09:35Z</time>
      </trkpt>
      <trkpt lat="45.31465" lon="5.78323">
        <ele>1069.2</ele>
        <time>2016-05-21T07:09:36Z</time>
      </trkpt>
      <trkpt lat="45.31467" lon="5.78342">
        <ele>1068.3</ele>
        <time>2016-05-21T07:09:37Z</time>
      </trkpt>
      <trkpt lat="45.3147" lon="5.7836">
        <ele>1068</ele>
        <time>2016-05-21T07:09:38Z</time>
      </trkpt>
      <trkpt lat="45.31473" lon="5.78375">
        <ele>1068</ele>
        <time>2016-05-21T07:09:39Z</time>
      </trkpt>
      <trkpt lat="45.3148" lon="5.78389">
        <ele>1068.1</ele>
        <time>2016-05-21T07:09:40Z</time>
      </trkpt>
      <trkpt lat="45.31487" lon="5.78402">
        <ele>1068.3</ele>
        <time>2016-05-21T07:09:41Z</time>
      </trkpt>
      <trkpt lat="45.31494" lon="5.78414">
        <ele>1068.2</ele>
        <time>2016-05-21T07:09:42Z</time>
      </trkpt>
      <trkpt lat="45.31503" lon="5.78425">
        <ele>1067.8</ele>
        <time>2016-05-21T07:09:43Z</time>
      </trkpt>
      <trkpt lat="45.31512" lon="5.78436">
        <ele>1067.5</ele>
        <time>2016-05-21T07:09:44Z</time>
      </trkpt>
      <trkpt lat="45.31522" lon="5.78446">
        <ele>1066.9</ele>
        <time>2016-05-21T07:09:45Z</time>
      </trkpt>
      <trkpt lat="45.31532" lon="5.78455">
        <ele>1066.6</ele>
        <time>2016-05-21T07:09:46Z</time>
      </trkpt>
      <trkpt lat="45.31542" lon="5.78463">
        <ele>1065.8</ele>
        <time>2016-05-21T07:09:47Z</time>
      </trkpt>
      <trkpt lat="45.31553" lon="5.78467">
        <ele>1064.8</ele>
        <time>2016-05-21T07:09:48Z</time>
      </trkpt>
      <trkpt lat="45.31564" lon="5.78468">
        <ele>1063.6</ele>
        <time>2016-05-21T07:09:49Z</time>
      </trkpt>
      <trkpt lat="45.31575" lon="5.78465">
        <ele>1061.8</ele>
        <time>2016-05-21T07:09:50Z</time>
      </trkpt>
      <trkpt lat="45.31586" lon="5.78459">
        <ele>1059.8</ele>
        <time>2016-05-21T07:09:51Z</time>
      </trkpt>
      <trkpt lat="45.31594" lon="5.78453">
        <ele>1057.2</ele>
        <time>2016-05-21T07:09:52Z</time>
      </trkpt>
      <trkpt lat="45.31601" lon="5.78448">
        <ele>1054.2</ele>
        <time>2016-05-21T07:09:53Z</time>
      </trkpt>
      <trkpt lat="45.31613" lon="5.7844">
        <ele>1048.8</ele>
        <time>2016-05-21T07:09:55Z</time>
      </trkpt>
      <trkpt lat="45.31623" lon="5.78441">
        <ele>1044.2</ele>
        <time>2016-05-21T07:09:57Z</time>
      </trkpt>
      <trkpt lat="45.31623" lon="5.78452">
        <ele>1036</ele>
        <time>2016-05-21T07:10:01Z</time>
      </trkpt>
      <trkpt lat="45.31613" lon="5.78459">
        <ele>1033.7</ele>
        <time>2016-05-21T07:10:03Z</time>
      </trkpt>
      <trkpt lat="45.316" lon="5.78468">
        <ele>1032.9</ele>
        <time>2016-05-21T07:10:05Z</time>
      </trkpt>
      <trkpt lat="45.31593" lon="5.78475">
        <ele>1032.7</ele>
        <time>2016-05-21T07:10:06Z</time>
      </trkpt>
      <trkpt lat="45.31586" lon="5.78483">
        <ele>1032.3</ele>
        <time>2016-05-21T07:10:07Z</time>
      </trkpt>
      <trkpt lat="45.31577" lon="5.7849">
        <ele>1031.6</ele>
        <time>2016-05-21T07:10:08Z</time>
      </trkpt>
      <trkpt lat="45.31568" lon="5.78493">
        <ele>1031.1</ele>
        <time>2016-05-21T07:10:09Z</time>
      </trkpt>
      <trkpt lat="45.31558" lon="5.78492">
        <ele>1030.2</ele>
        <time>2016-05-21T07:10:10Z</time>
      </trkpt>
      <trkpt lat="45.31548" lon="5.7849">
        <ele>1029.5</ele>
        <time>2016-05-21T07:10:11Z</time>
      </trkpt>
      <trkpt lat="45.31538" lon="5.78488">
        <ele>1029.2</ele>
        <time>2016-05-21T07:10:12Z</time>
      </trkpt>
      <trkpt lat="45.31528" lon="5.78485">
        <ele>1028.6</ele>
        <time>2016-05-21T07:10:13Z</time>
      </trkpt>
      <trkpt lat="45.31517" lon="5.78482">
        <ele>1027.5</ele>
        <time>2016-05-21T07:10:14Z</time>
      </trkpt>
      <trkpt lat="45.31504" lon="5.78478">
        <ele>1026.8</ele>
        <time>2016-05-21T07:10:15Z</time>
      </trkpt>
      <trkpt lat="45.31493" lon="5.78474">
        <ele>1026.7</ele>
        <time>2016-05-21T07:10:16Z</time>
      </trkpt>
      <trkpt lat="45.31482" lon="5.78468">
        <ele>1026.8</ele>
        <time>2016-05-21T07:10:17Z</time>
      </trkpt>
      <trkpt lat="45.3147" lon="5.78462">
        <ele>1027.3</ele>
        <time>2016-05-21T07:10:18Z</time>
      </trkpt>
      <trkpt lat="45.31459" lon="5.78455">
        <ele>1027.6</ele>
        <time>2016-05-21T07:10:19Z</time>
      </trkpt>
      <trkpt lat="45.31449" lon="5.78446">
        <ele>1027.9</ele>
        <time>2016-05-21T07:10:20Z</time>
      </trkpt>
      <trkpt lat="45.3144" lon="5.78434">
        <ele>1027.8</ele>
        <time>2016-05-21T07:10:21Z</time>
      </trkpt>
      <trkpt lat="45.31432" lon="5.78421">
        <ele>1027</ele>
        <time>2016-05-21T07:10:22Z</time>
      </trkpt>
      <trkpt lat="45.31424" lon="5.78408">
        <ele>1025.9</ele>
        <time>2016-05-21T07:10:23Z</time>
      </trkpt>
      <trkpt lat="45.31419" lon="5.78393">
        <ele>1025</ele>
        <time>2016-05-21T07:10:24Z</time>
      </trkpt>
      <trkpt lat="45.31413" lon="5.78377">
        <ele>1024.2</ele>
        <time>2016-05-21T07:10:25Z</time>
      </trkpt>
      <trkpt lat="45.31407" lon="5.78362">
        <ele>1023.4</ele>
        <time>2016-05-21T07:10:26Z</time>
      </trkpt>
      <trkpt lat="45.31402" lon="5.78347">
        <ele>1023</ele>
        <time>2016-05-21T07:10:27Z</time>
      </trkpt>
      <trkpt lat="45.31397" lon="5.78333">
        <ele>1022.7</ele>
        <time>2016-05-21T07:10:28Z</time>
      </trkpt>
      <trkpt lat="45.3139" lon="5.78322">
        <ele>1022.2</ele>
        <time>2016-05-21T07:10:29Z</time>
      </trkpt>
      <trkpt lat="45.31382" lon="5.78312">
        <ele>1021.6</ele>
        <time>2016-05-21T07:10:30Z</time>
      </trkpt>
      <trkpt lat="45.31373" lon="5.78306">
        <ele>1020.6</ele>
        <time>2016-05-21T07:10:31Z</time>
      </trkpt>
      <trkpt lat="45.31364" lon="5.78303">
        <ele>1019.4</ele>
        <time>2016-05-21T07:10:32Z</time>
      </trkpt>
      <trkpt lat="45.31355" lon="5.78306">
        <ele>1018.8</ele>
        <time>2016-05-21T07:10:33Z</time>
      </trkpt>
      <trkpt lat="45.31349" lon="5.78312">
        <ele>1018.1</ele>
        <time>2016-05-21T07:10:34Z</time>
      </trkpt>
      <trkpt lat="45.31341" lon="5.78326">
        <ele>1016.6</ele>
        <time>2016-05-21T07:10:36Z</time>
      </trkpt>
      <trkpt lat="45.3134" lon="5.78338">
        <ele>1016.4</ele>
        <time>2016-05-21T07:10:37Z</time>
      </trkpt>
      <trkpt lat="45.31344" lon="5.78355">
        <ele>1015.5</ele>
        <time>2016-05-21T07:10:39Z</time>
      </trkpt>
      <trkpt lat="45.31345" lon="5.78366">
        <ele>1015</ele>
        <time>2016-05-21T07:10:40Z</time>
      </trkpt>
      <trkpt lat="45.31347" lon="5.78377">
        <ele>1014.5</ele>
        <time>2016-05-21T07:10:41Z</time>
      </trkpt>
      <trkpt lat="45.31348" lon="5.78388">
        <ele>1014.7</ele>
        <time>2016-05-21T07:10:42Z</time>
      </trkpt>
      <trkpt lat="45.3135" lon="5.78399">
        <ele>1014.9</ele>
        <time>2016-05-21T07:10:43Z</time>
      </trkpt>
      <trkpt lat="45.31351" lon="5.7841">
        <ele>1015.6</ele>
        <time>2016-05-21T07:10:44Z</time>
      </trkpt>
      <trkpt lat="45.31352" lon="5.78421">
        <ele>1015.7</ele>
        <time>2016-05-21T07:10:45Z</time>
      </trkpt>
      <trkpt lat="45.3135" lon="5.78433">
        <ele>1015.5</ele>
        <time>2016-05-21T07:10:46Z</time>
      </trkpt>
      <trkpt lat="45.31349" lon="5.78444">
        <ele>1014.9</ele>
        <time>2016-05-21T07:10:47Z</time>
      </trkpt>
      <trkpt lat="45.31346" lon="5.78454">
        <ele>1014.6</ele>
        <time>2016-05-21T07:10:48Z</time>
      </trkpt>
      <trkpt lat="45.31344" lon="5.78465">
        <ele>1014.2</ele>
        <time>2016-05-21T07:10:49Z</time>
      </trkpt>
      <trkpt lat="45.31338" lon="5.78483">
        <ele>1012.7</ele>
        <time>2016-05-21T07:10:51Z</time>
      </trkpt>
      <trkpt lat="45.31335" lon="5.78492">
        <ele>1012.2</ele>
        <time>2016-05-21T07:10:52Z</time>
      </trkpt>
      <trkpt lat="45.31327" lon="5.78509">
        <ele>1011.3</ele>
        <time>2016-05-21T07:10:54Z</time>
      </trkpt>
      <trkpt lat="45.31322" lon="5.78517">
        <ele>1010.8</ele>
        <time>2016-05-21T07:10:55Z</time>
      </trkpt>
      <trkpt lat="45.31317" lon="5.78526">
        <ele>1010.3</ele>
        <time>2016-05-21T07:10:56Z</time>
      </trkpt>
      <trkpt lat="45.3131" lon="5.78532">
        <ele>1009.8</ele>
        <time>2016-05-21T07:10:57Z</time>
      </trkpt>
      <trkpt lat="45.31304" lon="5.78538">
        <ele>1009.6</ele>
        <time>2016-05-21T07:10:58Z</time>
      </trkpt>
      <trkpt lat="45.31297" lon="5.78544">
        <ele>1009.4</ele>
        <time>2016-05-21T07:10:59Z</time>
      </trkpt>
      <trkpt lat="45.31291" lon="5.7855">
        <ele>1009.3</ele>
        <time>2016-05-21T07:11:00Z</time>
      </trkpt>
      <trkpt lat="45.31286" lon="5.78559">
        <ele>1009.2</ele>
        <time>2016-05-21T07:11:01Z</time>
      </trkpt>
      <trkpt lat="45.31284" lon="5.7857">
        <ele>1009</ele>
        <time>2016-05-21T07:11:02Z</time>
      </trkpt>
      <trkpt lat="45.31284" lon="5.78581">
        <ele>1008.8</ele>
        <time>2016-05-21T07:11:03Z</time>
      </trkpt>
      <trkpt lat="45.31284" lon="5.78592">
        <ele>1008.5</ele>
        <time>2016-05-21T07:11:04Z</time>
      </trkpt>
      <trkpt lat="45.31285" lon="5.78604">
        <ele>1008.2</ele>
        <time>2016-05-21T07:11:05Z</time>
      </trkpt>
      <trkpt lat="45.3129" lon="5.78614">
        <ele>1008.3</ele>
        <time>2016-05-21T07:11:06Z</time>
      </trkpt>
      <trkpt lat="45.31294" lon="5.78624">
        <ele>1007.8</ele>
        <time>2016-05-21T07:11:07Z</time>
      </trkpt>
      <trkpt lat="45.31299" lon="5.78636">
        <ele>1007.4</ele>
        <time>2016-05-21T07:11:08Z</time>
      </trkpt>
      <trkpt lat="45.31305" lon="5.78644">
        <ele>1007.2</ele>
        <time>2016-05-21T07:11:09Z</time>
      </trkpt>
      <trkpt lat="45.3131" lon="5.78652">
        <ele>1006.8</ele>
        <time>2016-05-21T07:11:10Z</time>
      </trkpt>
      <trkpt lat="45.31316" lon="5.78659">
        <ele>1006.3</ele>
        <time>2016-05-21T07:11:11Z</time>
      </trkpt>
      <trkpt lat="45.31322" lon="5.78667">
        <ele>1005.9</ele>
        <time>2016-05-21T07:11:12Z</time>
      </trkpt>
      <trkpt lat="45.31329" lon="5.78674">
        <ele>1005.5</ele>
        <time>2016-05-21T07:11:13Z</time>
      </trkpt>
      <trkpt lat="45.31337" lon="5.78681">
        <ele>1005.1</ele>
        <time>2016-05-21T07:11:14Z</time>
      </trkpt>
      <trkpt lat="45.31345" lon="5.78687">
        <ele>1004.6</ele>
        <time>2016-05-21T07:11:15Z</time>
      </trkpt>
      <trkpt lat="45.31352" lon="5.78694">
        <ele>1004.3</ele>
        <time>2016-05-21T07:11:16Z</time>
      </trkpt>
      <trkpt lat="45.3136" lon="5.787">
        <ele>1003.9</ele>
        <time>2016-05-21T07:11:17Z</time>
      </trkpt>
      <trkpt lat="45.31368" lon="5.78706">
        <ele>1003.6</ele>
        <time>2016-05-21T07:11:18Z</time>
      </trkpt>
      <trkpt lat="45.31377" lon="5.78713">
        <ele>1003.3</ele>
        <time>2016-05-21T07:11:19Z</time>
      </trkpt>
      <trkpt lat="45.31386" lon="5.78719">
        <ele>1003.2</ele>
        <time>2016-05-21T07:11:20Z</time>
      </trkpt>
      <trkpt lat="45.31395" lon="5.78725">
        <ele>1003.4</ele>
        <time>2016-05-21T07:11:21Z</time>
      </trkpt>
      <trkpt lat="45.31403" lon="5.78733">
        <ele>1003.8</ele>
        <time>2016-05-21T07:11:22Z</time>
      </trkpt>
      <trkpt lat="45.31411" lon="5.78743">
        <ele>1004.1</ele>
        <time>2016-05-21T07:11:23Z</time>
      </trkpt>
      <trkpt lat="45.31417" lon="5.78753">
        <ele>1004.7</ele>
        <time>2016-05-21T07:11:24Z</time>
      </trkpt>
      <trkpt lat="45.31424" lon="5.78765">
        <ele>1005.4</ele>
        <time>2016-05-21T07:11:25Z</time>
      </trkpt>
      <trkpt lat="45.31429" lon="5.78776">
        <ele>1005.8</ele>
        <time>2016-05-21T07:11:26Z</time>
      </trkpt>
      <trkpt lat="45.31435" lon="5.78788">
        <ele>1006.1</ele>
        <time>2016-05-21T07:11:27Z</time>
      </trkpt>
      <trkpt lat="45.3144" lon="5.788">
        <ele>1006.1</ele>
        <time>2016-05-21T07:11:28Z</time>
      </trkpt>
      <trkpt lat="45.31445" lon="5.78811">
        <ele>1006</ele>
        <time>2016-05-21T07:11:29Z</time>
      </trkpt>
      <trkpt lat="45.3145" lon="5.78824">
        <ele>1005.7</ele>
        <time>2016-05-21T07:11:30Z</time>
      </trkpt>
      <trkpt lat="45.31454" lon="5.78837">
        <ele>1005.1</ele>
        <time>2016-05-21T07:11:31Z</time>
      </trkpt>
      <trkpt lat="45.31459" lon="5.78849">
        <ele>1004.5</ele>
        <time>2016-05-21T07:11:32Z</time>
      </trkpt>
      <trkpt lat="45.31462" lon="5.78862">
        <ele>1003.9</ele>
        <time>2016-05-21T07:11:33Z</time>
      </trkpt>
      <trkpt lat="45.31466" lon="5.78875">
        <ele>1003.6</ele>
        <time>2016-05-21T07:11:34Z</time>
      </trkpt>
      <trkpt lat="45.31468" lon="5.78888">
        <ele>1003.3</ele>
        <time>2016-05-21T07:11:35Z</time>
      </trkpt>
      <trkpt lat="45.31471" lon="5.789">
        <ele>1002.7</ele>
        <time>2016-05-21T07:11:36Z</time>
      </trkpt>
      <trkpt lat="45.31473" lon="5.78914">
        <ele>1002.5</ele>
        <time>2016-05-21T07:11:37Z</time>
      </trkpt>
      <trkpt lat="45.31472" lon="5.78928">
        <ele>1002.1</ele>
        <time>2016-05-21T07:11:38Z</time>
      </trkpt>
      <trkpt lat="45.31471" lon="5.78942">
        <ele>1002</ele>
        <time>2016-05-21T07:11:39Z</time>
      </trkpt>
      <trkpt lat="45.3147" lon="5.78956">
        <ele>1001.9</ele>
        <time>2016-05-21T07:11:40Z</time>
      </trkpt>
      <trkpt lat="45.3147" lon="5.7897">
        <ele>1001.5</ele>
        <time>2016-05-21T07:11:41Z</time>
      </trkpt>
      <trkpt lat="45.31469" lon="5.78984">
        <ele>1001.2</ele>
        <time>2016-05-21T07:11:42Z</time>
      </trkpt>
      <trkpt lat="45.31468" lon="5.78998">
        <ele>1000.7</ele>
        <time>2016-05-21T07:11:43Z</time>
      </trkpt>
      <trkpt lat="45.3147" lon="5.79012">
        <ele>1000.3</ele>
        <time>2016-05-21T07:11:44Z</time>
      </trkpt>
      <trkpt lat="45.31472" lon="5.79024">
        <ele>1000</ele>
        <time>2016-05-21T07:11:45Z</time>
      </trkpt>
      <trkpt lat="45.31474" lon="5.79037">
        <ele>999.9</ele>
        <time>2016-05-21T07:11:46Z</time>
      </trkpt>
      <trkpt lat="45.31477" lon="5.79049">
        <ele>999.4</ele>
        <time>2016-05-21T07:11:47Z</time>
      </trkpt>
      <trkpt lat="45.31481" lon="5.79059">
        <ele>998.6</ele>
        <time>2016-05-21T07:11:48Z</time>
      </trkpt>
      <trkpt lat="45.31484" lon="5.79071">
        <ele>997.7</ele>
        <time>2016-05-21T07:11:49Z</time>
      </trkpt>
      <trkpt lat="45.31488" lon="5.79083">
        <ele>996.9</ele>
        <time>2016-05-21T07:11:50Z</time>
      </trkpt>
      <trkpt lat="45.31492" lon="5.79094">
        <ele>996.1</ele>
        <time>2016-05-21T07:11:51Z</time>
      </trkpt>
      <trkpt lat="45.31493" lon="5.79109">
        <ele>995.7</ele>
        <time>2016-05-21T07:11:52Z</time>
      </trkpt>
      <trkpt lat="45.31494" lon="5.79123">
        <ele>995.1</ele>
        <time>2016-05-21T07:11:53Z</time>
      </trkpt>
      <trkpt lat="45.31495" lon="5.79134">
        <ele>994.1</ele>
        <time>2016-05-21T07:11:54Z</time>
      </trkpt>
      <trkpt lat="45.31496" lon="5.79145">
        <ele>993</ele>
        <time>2016-05-21T07:11:55Z</time>
      </trkpt>
      <trkpt lat="45.315" lon="5.79164">
        <ele>991.5</ele>
        <time>2016-05-21T07:11:57Z</time>
      </trkpt>
      <trkpt lat="45.31504" lon="5.79173">
        <ele>990.9</ele>
        <time>2016-05-21T07:11:58Z</time>
      </trkpt>
      <trkpt lat="45.31514" lon="5.79188">
        <ele>991.4</ele>
        <time>2016-05-21T07:12:00Z</time>
      </trkpt>
      <trkpt lat="45.31519" lon="5.79195">
        <ele>992</ele>
        <time>2016-05-21T07:12:01Z</time>
      </trkpt>
      <trkpt lat="45.31525" lon="5.79202">
        <ele>992.6</ele>
        <time>2016-05-21T07:12:02Z</time>
      </trkpt>
      <trkpt lat="45.31531" lon="5.79209">
        <ele>993.8</ele>
        <time>2016-05-21T07:12:03Z</time>
      </trkpt>
      <trkpt lat="45.31537" lon="5.79216">
        <ele>995.3</ele>
        <time>2016-05-21T07:12:04Z</time>
      </trkpt>
      <trkpt lat="45.31544" lon="5.79222">
        <ele>996.7</ele>
        <time>2016-05-21T07:12:05Z</time>
      </trkpt>
      <trkpt lat="45.3155" lon="5.79228">
        <ele>997.7</ele>
        <time>2016-05-21T07:12:06Z</time>
      </trkpt>
      <trkpt lat="45.31556" lon="5.79233">
        <ele>998.5</ele>
        <time>2016-05-21T07:12:07Z</time>
      </trkpt>
      <trkpt lat="45.31562" lon="5.79238">
        <ele>999.1</ele>
        <time>2016-05-21T07:12:08Z</time>
      </trkpt>
      <trkpt lat="45.31569" lon="5.79244">
        <ele>999.5</ele>
        <time>2016-05-21T07:12:09Z</time>
      </trkpt>
      <trkpt lat="45.31579" lon="5.79257">
        <ele>999.7</ele>
        <time>2016-05-21T07:12:11Z</time>
      </trkpt>
      <trkpt lat="45.31584" lon="5.79265">
        <ele>999.6</ele>
        <time>2016-05-21T07:12:12Z</time>
      </trkpt>
      <trkpt lat="45.31588" lon="5.79285">
        <ele>999</ele>
        <time>2016-05-21T07:12:14Z</time>
      </trkpt>
      <trkpt lat="45.31588" lon="5.79295">
        <ele>998.9</ele>
        <time>2016-05-21T07:12:15Z</time>
      </trkpt>
      <trkpt lat="45.31587" lon="5.79306">
        <ele>998.8</ele>
        <time>2016-05-21T07:12:16Z</time>
      </trkpt>
      <trkpt lat="45.31587" lon="5.79318">
        <ele>998.6</ele>
        <time>2016-05-21T07:12:17Z</time>
      </trkpt>
      <trkpt lat="45.31586" lon="5.79329">
        <ele>998.6</ele>
        <time>2016-05-21T07:12:18Z</time>
      </trkpt>
      <trkpt lat="45.31584" lon="5.7934">
        <ele>998.6</ele>
        <time>2016-05-21T07:12:19Z</time>
      </trkpt>
      <trkpt lat="45.31583" lon="5.7935">
        <ele>998.4</ele>
        <time>2016-05-21T07:12:20Z</time>
      </trkpt>
      <trkpt lat="45.31583" lon="5.79361">
        <ele>998.1</ele>
        <time>2016-05-21T07:12:21Z</time>
      </trkpt>
      <trkpt lat="45.31584" lon="5.79381">
        <ele>998.3</ele>
        <time>2016-05-21T07:12:23Z</time>
      </trkpt>
      <trkpt lat="45.31587" lon="5.79391">
        <ele>999</ele>
        <time>2016-05-21T07:12:24Z</time>
      </trkpt>
      <trkpt lat="45.3159" lon="5.794">
        <ele>999.5</ele>
        <time>2016-05-21T07:12:25Z</time>
      </trkpt>
      <trkpt lat="45.31595" lon="5.7941">
        <ele>1000.1</ele>
        <time>2016-05-21T07:12:26Z</time>
      </trkpt>
      <trkpt lat="45.31601" lon="5.79418">
        <ele>1000.2</ele>
        <time>2016-05-21T07:12:27Z</time>
      </trkpt>
      <trkpt lat="45.31607" lon="5.79426">
        <ele>1000.2</ele>
        <time>2016-05-21T07:12:28Z</time>
      </trkpt>
      <trkpt lat="45.31613" lon="5.79433">
        <ele>1000</ele>
        <time>2016-05-21T07:12:29Z</time>
      </trkpt>
      <trkpt lat="45.31619" lon="5.7944">
        <ele>999.7</ele>
        <time>2016-05-21T07:12:30Z</time>
      </trkpt>
      <trkpt lat="45.31625" lon="5.79448">
        <ele>999.8</ele>
        <time>2016-05-21T07:12:31Z</time>
      </trkpt>
      <trkpt lat="45.31631" lon="5.79454">
        <ele>1000.3</ele>
        <time>2016-05-21T07:12:32Z</time>
      </trkpt>
      <trkpt lat="45.31641" lon="5.79469">
        <ele>1001.5</ele>
        <time>2016-05-21T07:12:34Z</time>
      </trkpt>
      <trkpt lat="45.31651" lon="5.79483">
        <ele>1001.7</ele>
        <time>2016-05-21T07:12:36Z</time>
      </trkpt>
      <trkpt lat="45.31659" lon="5.79494">
        <ele>1001.2</ele>
        <time>2016-05-21T07:12:38Z</time>
      </trkpt>
      <trkpt lat="45.31667" lon="5.79507">
        <ele>1001.8</ele>
        <time>2016-05-21T07:12:40Z</time>
      </trkpt>
      <trkpt lat="45.31675" lon="5.79519">
        <ele>1002.2</ele>
        <time>2016-05-21T07:12:42Z</time>
      </trkpt>
      <trkpt lat="45.31683" lon="5.79531">
        <ele>1001.1</ele>
        <time>2016-05-21T07:12:44Z</time>
      </trkpt>
      <trkpt lat="45.3169" lon="5.79542">
        <ele>1000.6</ele>
        <time>2016-05-21T07:12:46Z</time>
      </trkpt>
      <trkpt lat="45.31698" lon="5.79553">
        <ele>999.9</ele>
        <time>2016-05-21T07:12:48Z</time>
      </trkpt>
      <trkpt lat="45.31706" lon="5.79563">
        <ele>999</ele>
        <time>2016-05-21T07:12:50Z</time>
      </trkpt>
      <trkpt lat="45.31712" lon="5.79573">
        <ele>999.2</ele>
        <time>2016-05-21T07:12:52Z</time>
      </trkpt>
      <trkpt lat="45.31719" lon="5.79585">
        <ele>1000.1</ele>
        <time>2016-05-21T07:12:54Z</time>
      </trkpt>
      <trkpt lat="45.31725" lon="5.79597">
        <ele>999.4</ele>
        <time>2016-05-21T07:12:56Z</time>
      </trkpt>
      <trkpt lat="45.31729" lon="5.79611">
        <ele>999</ele>
        <time>2016-05-21T07:12:58Z</time>
      </trkpt>
      <trkpt lat="45.31733" lon="5.79623">
        <ele>998.4</ele>
        <time>2016-05-21T07:13:00Z</time>
      </trkpt>
      <trkpt lat="45.31737" lon="5.79638">
        <ele>997.9</ele>
        <time>2016-05-21T07:13:02Z</time>
      </trkpt>
      <trkpt lat="45.31741" lon="5.79655">
        <ele>997.2</ele>
        <time>2016-05-21T07:13:04Z</time>
      </trkpt>
      <trkpt lat="45.31743" lon="5.79674">
        <ele>997</ele>
        <time>2016-05-21T07:13:06Z</time>
      </trkpt>
      <trkpt lat="45.31743" lon="5.79693">
        <ele>997.3</ele>
        <time>2016-05-21T07:13:08Z</time>
      </trkpt>
      <trkpt lat="45.31741" lon="5.79712">
        <ele>997.2</ele>
        <time>2016-05-21T07:13:10Z</time>
      </trkpt>
      <trkpt lat="45.31739" lon="5.79722">
        <ele>996.9</ele>
        <time>2016-05-21T07:13:11Z</time>
      </trkpt>
      <trkpt lat="45.31736" lon="5.79741">
        <ele>995.7</ele>
        <time>2016-05-21T07:13:13Z</time>
      </trkpt>
      <trkpt lat="45.31733" lon="5.79759">
        <ele>994.6</ele>
        <time>2016-05-21T07:13:15Z</time>
      </trkpt>
      <trkpt lat="45.31732" lon="5.79777">
        <ele>993.7</ele>
        <time>2016-05-21T07:13:17Z</time>
      </trkpt>
      <trkpt lat="45.31731" lon="5.79795">
        <ele>993.2</ele>
        <time>2016-05-21T07:13:19Z</time>
      </trkpt>
      <trkpt lat="45.31732" lon="5.79811">
        <ele>993</ele>
        <time>2016-05-21T07:13:21Z</time>
      </trkpt>
      <trkpt lat="45.31734" lon="5.79828">
        <ele>993.1</ele>
        <time>2016-05-21T07:13:23Z</time>
      </trkpt>
      <trkpt lat="45.31736" lon="5.79844">
        <ele>993.2</ele>
        <time>2016-05-21T07:13:25Z</time>
      </trkpt>
      <trkpt lat="45.31739" lon="5.7986">
        <ele>993.4</ele>
        <time>2016-05-21T07:13:27Z</time>
      </trkpt>
      <trkpt lat="45.31742" lon="5.79875">
        <ele>993.7</ele>
        <time>2016-05-21T07:13:29Z</time>
      </trkpt>
      <trkpt lat="45.31745" lon="5.79891">
        <ele>994.3</ele>
        <time>2016-05-21T07:13:31Z</time>
      </trkpt>
      <trkpt lat="45.31746" lon="5.79906">
        <ele>995.7</ele>
        <time>2016-05-21T07:13:33Z</time>
      </trkpt>
      <trkpt lat="45.31743" lon="5.79919">
        <ele>997</ele>
        <time>2016-05-21T07:13:35Z</time>
      </trkpt>
      <trkpt lat="45.31736" lon="5.79925">
        <ele>998.4</ele>
        <time>2016-05-21T07:13:37Z</time>
      </trkpt>
      <trkpt lat="45.31727" lon="5.79924">
        <ele>1000.3</ele>
        <time>2016-05-21T07:13:39Z</time>
      </trkpt>
      <trkpt lat="45.31717" lon="5.79915">
        <ele>1002.6</ele>
        <time>2016-05-21T07:13:41Z</time>
      </trkpt>
      <trkpt lat="45.31705" lon="5.79902">
        <ele>1004.6</ele>
        <time>2016-05-21T07:13:43Z</time>
      </trkpt>
      <trkpt lat="45.31694" lon="5.79889">
        <ele>1006.6</ele>
        <time>2016-05-21T07:13:45Z</time>
      </trkpt>
      <trkpt lat="45.31687" lon="5.79885">
        <ele>1007.4</ele>
        <time>2016-05-21T07:13:46Z</time>
      </trkpt>
      <trkpt lat="45.3168" lon="5.79881">
        <ele>1007.9</ele>
        <time>2016-05-21T07:13:47Z</time>
      </trkpt>
      <trkpt lat="45.31667" lon="5.79885">
        <ele>1008.5</ele>
        <time>2016-05-21T07:13:49Z</time>
      </trkpt>
      <trkpt lat="45.31658" lon="5.79898">
        <ele>1009.3</ele>
        <time>2016-05-21T07:13:51Z</time>
      </trkpt>
      <trkpt lat="45.31651" lon="5.79918">
        <ele>1009.1</ele>
        <time>2016-05-21T07:13:53Z</time>
      </trkpt>
      <trkpt lat="45.31651" lon="5.7993">
        <ele>1008.6</ele>
        <time>2016-05-21T07:13:54Z</time>
      </trkpt>
      <trkpt lat="45.31651" lon="5.7994">
        <ele>1008.1</ele>
        <time>2016-05-21T07:13:55Z</time>
      </trkpt>
      <trkpt lat="45.31651" lon="5.79951">
        <ele>1007.4</ele>
        <time>2016-05-21T07:13:56Z</time>
      </trkpt>
      <trkpt lat="45.31654" lon="5.7997">
        <ele>1006</ele>
        <time>2016-05-21T07:13:58Z</time>
      </trkpt>
      <trkpt lat="45.31656" lon="5.7998">
        <ele>1005.6</ele>
        <time>2016-05-21T07:13:59Z</time>
      </trkpt>
      <trkpt lat="45.31658" lon="5.79991">
        <ele>1005.2</ele>
        <time>2016-05-21T07:14:00Z</time>
      </trkpt>
      <trkpt lat="45.31659" lon="5.80002">
        <ele>1004.9</ele>
        <time>2016-05-21T07:14:01Z</time>
      </trkpt>
      <trkpt lat="45.31661" lon="5.80014">
        <ele>1004.4</ele>
        <time>2016-05-21T07:14:02Z</time>
      </trkpt>
      <trkpt lat="45.3166" lon="5.80025">
        <ele>1004.1</ele>
        <time>2016-05-21T07:14:03Z</time>
      </trkpt>
      <trkpt lat="45.31659" lon="5.80037">
        <ele>1003.8</ele>
        <time>2016-05-21T07:14:04Z</time>
      </trkpt>
      <trkpt lat="45.31659" lon="5.80049">
        <ele>1003.4</ele>
        <time>2016-05-21T07:14:05Z</time>
      </trkpt>
      <trkpt lat="45.31658" lon="5.8006">
        <ele>1003.3</ele>
        <time>2016-05-21T07:14:06Z</time>
      </trkpt>
      <trkpt lat="45.31657" lon="5.80072">
        <ele>1003</ele>
        <time>2016-05-21T07:14:07Z</time>
      </trkpt>
      <trkpt lat="45.31656" lon="5.80083">
        <ele>1002.7</ele>
        <time>2016-05-21T07:14:08Z</time>
      </trkpt>
      <trkpt lat="45.31655" lon="5.80095">
        <ele>1002.3</ele>
        <time>2016-05-21T07:14:09Z</time>
      </trkpt>
      <trkpt lat="45.31654" lon="5.80106">
        <ele>1002.2</ele>
        <time>2016-05-21T07:14:10Z</time>
      </trkpt>
      <trkpt lat="45.31653" lon="5.80117">
        <ele>1002.4</ele>
        <time>2016-05-21T07:14:11Z</time>
      </trkpt>
      <trkpt lat="45.31652" lon="5.80127">
        <ele>1002.8</ele>
        <time>2016-05-21T07:14:12Z</time>
      </trkpt>
      <trkpt lat="45.31651" lon="5.80146">
        <ele>1003.7</ele>
        <time>2016-05-21T07:14:14Z</time>
      </trkpt>
      <trkpt lat="45.3165" lon="5.80157">
        <ele>1004</ele>
        <time>2016-05-21T07:14:15Z</time>
      </trkpt>
      <trkpt lat="45.3165" lon="5.80169">
        <ele>1004.1</ele>
        <time>2016-05-21T07:14:16Z</time>
      </trkpt>
      <trkpt lat="45.31649" lon="5.80181">
        <ele>1004.1</ele>
        <time>2016-05-21T07:14:17Z</time>
      </trkpt>
      <trkpt lat="45.31649" lon="5.80193">
        <ele>1003.9</ele>
        <time>2016-05-21T07:14:18Z</time>
      </trkpt>
      <trkpt lat="45.31649" lon="5.80206">
        <ele>1003.8</ele>
        <time>2016-05-21T07:14:19Z</time>
      </trkpt>
      <trkpt lat="45.31649" lon="5.80219">
        <ele>1003.5</ele>
        <time>2016-05-21T07:14:20Z</time>
      </trkpt>
      <trkpt lat="45.3165" lon="5.80232">
        <ele>1003.2</ele>
        <time>2016-05-21T07:14:21Z</time>
      </trkpt>
      <trkpt lat="45.31653" lon="5.80244">
        <ele>1002.9</ele>
        <time>2016-05-21T07:14:22Z</time>
      </trkpt>
      <trkpt lat="45.31659" lon="5.80255">
        <ele>1002.5</ele>
        <time>2016-05-21T07:14:23Z</time>
      </trkpt>
      <trkpt lat="45.31665" lon="5.80263">
        <ele>1002.1</ele>
        <time>2016-05-21T07:14:24Z</time>
      </trkpt>
      <trkpt lat="45.31671" lon="5.80273">
        <ele>1002</ele>
        <time>2016-05-21T07:14:25Z</time>
      </trkpt>
      <trkpt lat="45.31678" lon="5.80275">
        <ele>1002.1</ele>
        <time>2016-05-21T07:14:26Z</time>
      </trkpt>
      <trkpt lat="45.31687" lon="5.80276">
        <ele>1002.4</ele>
        <time>2016-05-21T07:14:27Z</time>
      </trkpt>
      <trkpt lat="45.31695" lon="5.80276">
        <ele>1002.8</ele>
        <time>2016-05-21T07:14:28Z</time>
      </trkpt>
      <trkpt lat="45.31704" lon="5.80276">
        <ele>1002.8</ele>
        <time>2016-05-21T07:14:29Z</time>
      </trkpt>
      <trkpt lat="45.31712" lon="5.80276">
        <ele>1002.8</ele>
        <time>2016-05-21T07:14:30Z</time>
      </trkpt>
      <trkpt lat="45.31721" lon="5.80277">
        <ele>1002.8</ele>
        <time>2016-05-21T07:14:31Z</time>
      </trkpt>
      <trkpt lat="45.31729" lon="5.80278">
        <ele>1002.9</ele>
        <time>2016-05-21T07:14:32Z</time>
      </trkpt>
      <trkpt lat="45.31738" lon="5.8028">
        <ele>1002.9</ele>
        <time>2016-05-21T07:14:33Z</time>
      </trkpt>
      <trkpt lat="45.31746" lon="5.80286">
        <ele>1002.5</ele>
        <time>2016-05-21T07:14:34Z</time>
      </trkpt>
      <trkpt lat="45.31753" lon="5.8029">
        <ele>1002</ele>
        <time>2016-05-21T07:14:35Z</time>
      </trkpt>
      <trkpt lat="45.31761" lon="5.80296">
        <ele>1001.7</ele>
        <time>2016-05-21T07:14:36Z</time>
      </trkpt>
      <trkpt lat="45.31769" lon="5.80302">
        <ele>1001.6</ele>
        <time>2016-05-21T07:14:37Z</time>
      </trkpt>
      <trkpt lat="45.31777" lon="5.80309">
        <ele>1001.4</ele>
        <time>2016-05-21T07:14:38Z</time>
      </trkpt>
      <trkpt lat="45.31785" lon="5.80316">
        <ele>1001</ele>
        <time>2016-05-21T07:14:39Z</time>
      </trkpt>
      <trkpt lat="45.31794" lon="5.80324">
        <ele>1000.4</ele>
        <time>2016-05-21T07:14:40Z</time>
      </trkpt>
      <trkpt lat="45.31803" lon="5.80332">
        <ele>999.9</ele>
        <time>2016-05-21T07:14:41Z</time>
      </trkpt>
      <trkpt lat="45.31812" lon="5.80341">
        <ele>999.7</ele>
        <time>2016-05-21T07:14:42Z</time>
      </trkpt>
      <trkpt lat="45.31821" lon="5.8035">
        <ele>999.3</ele>
        <time>2016-05-21T07:14:43Z</time>
      </trkpt>
      <trkpt lat="45.3183" lon="5.80359">
        <ele>999</ele>
        <time>2016-05-21T07:14:44Z</time>
      </trkpt>
      <trkpt lat="45.3184" lon="5.80368">
        <ele>998.7</ele>
        <time>2016-05-21T07:14:45Z</time>
      </trkpt>
      <trkpt lat="45.3185" lon="5.80378">
        <ele>998.1</ele>
        <time>2016-05-21T07:14:46Z</time>
      </trkpt>
      <trkpt lat="45.3186" lon="5.80388">
        <ele>997.3</ele>
        <time>2016-05-21T07:14:47Z</time>
      </trkpt>
      <trkpt lat="45.3187" lon="5.80398">
        <ele>996.3</ele>
        <time>2016-05-21T07:14:48Z</time>
      </trkpt>
      <trkpt lat="45.3188" lon="5.80406">
        <ele>995.2</ele>
        <time>2016-05-21T07:14:49Z</time>
      </trkpt>
      <trkpt lat="45.31891" lon="5.80415">
        <ele>993.9</ele>
        <time>2016-05-21T07:14:50Z</time>
      </trkpt>
      <trkpt lat="45.31903" lon="5.80422">
        <ele>992.5</ele>
        <time>2016-05-21T07:14:51Z</time>
      </trkpt>
      <trkpt lat="45.31914" lon="5.80429">
        <ele>990.9</ele>
        <time>2016-05-21T07:14:52Z</time>
      </trkpt>
      <trkpt lat="45.31926" lon="5.80435">
        <ele>989.2</ele>
        <time>2016-05-21T07:14:53Z</time>
      </trkpt>
      <trkpt lat="45.31937" lon="5.80441">
        <ele>987.3</ele>
        <time>2016-05-21T07:14:54Z</time>
      </trkpt>
      <trkpt lat="45.31948" lon="5.80446">
        <ele>985.6</ele>
        <time>2016-05-21T07:14:55Z</time>
      </trkpt>
      <trkpt lat="45.31959" lon="5.80449">
        <ele>984</ele>
        <time>2016-05-21T07:14:56Z</time>
      </trkpt>
      <trkpt lat="45.31969" lon="5.80448">
        <ele>982.7</ele>
        <time>2016-05-21T07:14:57Z</time>
      </trkpt>
      <trkpt lat="45.3198" lon="5.80443">
        <ele>981.5</ele>
        <time>2016-05-21T07:14:58Z</time>
      </trkpt>
      <trkpt lat="45.31989" lon="5.80435">
        <ele>980</ele>
        <time>2016-05-21T07:14:59Z</time>
      </trkpt>
      <trkpt lat="45.31999" lon="5.80426">
        <ele>979</ele>
        <time>2016-05-21T07:15:00Z</time>
      </trkpt>
      <trkpt lat="45.32008" lon="5.80416">
        <ele>977.8</ele>
        <time>2016-05-21T07:15:01Z</time>
      </trkpt>
      <trkpt lat="45.32017" lon="5.80404">
        <ele>976.6</ele>
        <time>2016-05-21T07:15:02Z</time>
      </trkpt>
      <trkpt lat="45.32026" lon="5.80392">
        <ele>975.6</ele>
        <time>2016-05-21T07:15:03Z</time>
      </trkpt>
      <trkpt lat="45.32035" lon="5.8038">
        <ele>974.7</ele>
        <time>2016-05-21T07:15:04Z</time>
      </trkpt>
      <trkpt lat="45.32046" lon="5.80371">
        <ele>974</ele>
        <time>2016-05-21T07:15:05Z</time>
      </trkpt>
      <trkpt lat="45.32057" lon="5.80364">
        <ele>973.2</ele>
        <time>2016-05-21T07:15:06Z</time>
      </trkpt>
      <trkpt lat="45.3207" lon="5.80362">
        <ele>972.8</ele>
        <time>2016-05-21T07:15:07Z</time>
      </trkpt>
      <trkpt lat="45.32083" lon="5.8036">
        <ele>972</ele>
        <time>2016-05-21T07:15:08Z</time>
      </trkpt>
      <trkpt lat="45.32097" lon="5.80359">
        <ele>970.8</ele>
        <time>2016-05-21T07:15:09Z</time>
      </trkpt>
      <trkpt lat="45.3211" lon="5.80359">
        <ele>969.2</ele>
        <time>2016-05-21T07:15:10Z</time>
      </trkpt>
      <trkpt lat="45.32124" lon="5.80359">
        <ele>967.4</ele>
        <time>2016-05-21T07:15:11Z</time>
      </trkpt>
      <trkpt lat="45.32138" lon="5.80359">
        <ele>965.2</ele>
        <time>2016-05-21T07:15:12Z</time>
      </trkpt>
      <trkpt lat="45.32151" lon="5.8036">
        <ele>963.1</ele>
        <time>2016-05-21T07:15:13Z</time>
      </trkpt>
      <trkpt lat="45.32163" lon="5.80361">
        <ele>961</ele>
        <time>2016-05-21T07:15:14Z</time>
      </trkpt>
      <trkpt lat="45.32175" lon="5.80362">
        <ele>959.3</ele>
        <time>2016-05-21T07:15:15Z</time>
      </trkpt>
      <trkpt lat="45.32185" lon="5.80364">
        <ele>957.8</ele>
        <time>2016-05-21T07:15:16Z</time>
      </trkpt>
      <trkpt lat="45.32195" lon="5.80367">
        <ele>956.2</ele>
        <time>2016-05-21T07:15:17Z</time>
      </trkpt>
      <trkpt lat="45.32204" lon="5.80373">
        <ele>954.6</ele>
        <time>2016-05-21T07:15:18Z</time>
      </trkpt>
      <trkpt lat="45.3221" lon="5.80382">
        <ele>953.2</ele>
        <time>2016-05-21T07:15:19Z</time>
      </trkpt>
      <trkpt lat="45.32215" lon="5.80393">
        <ele>951.8</ele>
        <time>2016-05-21T07:15:20Z</time>
      </trkpt>
      <trkpt lat="45.32218" lon="5.80404">
        <ele>950.5</ele>
        <time>2016-05-21T07:15:21Z</time>
      </trkpt>
      <trkpt lat="45.3222" lon="5.80417">
        <ele>949.8</ele>
        <time>2016-05-21T07:15:22Z</time>
      </trkpt>
      <trkpt lat="45.32221" lon="5.80431">
        <ele>949.2</ele>
        <time>2016-05-21T07:15:23Z</time>
      </trkpt>
      <trkpt lat="45.32222" lon="5.80445">
        <ele>948.6</ele>
        <time>2016-05-21T07:15:24Z</time>
      </trkpt>
      <trkpt lat="45.32223" lon="5.8046">
        <ele>948</ele>
        <time>2016-05-21T07:15:25Z</time>
      </trkpt>
      <trkpt lat="45.32223" lon="5.80475">
        <ele>947.4</ele>
        <time>2016-05-21T07:15:26Z</time>
      </trkpt>
      <trkpt lat="45.32223" lon="5.8049">
        <ele>946.7</ele>
        <time>2016-05-21T07:15:27Z</time>
      </trkpt>
      <trkpt lat="45.32223" lon="5.80504">
        <ele>946.1</ele>
        <time>2016-05-21T07:15:28Z</time>
      </trkpt>
      <trkpt lat="45.32223" lon="5.80517">
        <ele>945.6</ele>
        <time>2016-05-21T07:15:29Z</time>
      </trkpt>
      <trkpt lat="45.32223" lon="5.80531">
        <ele>945.1</ele>
        <time>2016-05-21T07:15:30Z</time>
      </trkpt>
      <trkpt lat="45.32223" lon="5.80545">
        <ele>944.6</ele>
        <time>2016-05-21T07:15:31Z</time>
      </trkpt>
      <trkpt lat="45.32224" lon="5.80559">
        <ele>944.1</ele>
        <time>2016-05-21T07:15:32Z</time>
      </trkpt>
      <trkpt lat="45.32224" lon="5.80572">
        <ele>943.4</ele>
        <time>2016-05-21T07:15:33Z</time>
      </trkpt>
      <trkpt lat="45.32224" lon="5.80584">
        <ele>942.8</ele>
        <time>2016-05-21T07:15:34Z</time>
      </trkpt>
      <trkpt lat="45.32224" lon="5.80597">
        <ele>942.3</ele>
        <time>2016-05-21T07:15:35Z</time>
      </trkpt>
      <trkpt lat="45.32224" lon="5.80607">
        <ele>941.7</ele>
        <time>2016-05-21T07:15:36Z</time>
      </trkpt>
      <trkpt lat="45.32224" lon="5.80622">
        <ele>941.1</ele>
        <time>2016-05-21T07:15:38Z</time>
      </trkpt>
      <trkpt lat="45.32224" lon="5.80635">
        <ele>940.6</ele>
        <time>2016-05-21T07:15:40Z</time>
      </trkpt>
      <trkpt lat="45.32222" lon="5.80646">
        <ele>940.3</ele>
        <time>2016-05-21T07:15:42Z</time>
      </trkpt>
      <trkpt lat="45.32216" lon="5.80651">
        <ele>939.3</ele>
        <time>2016-05-21T07:15:44Z</time>
      </trkpt>
      <trkpt lat="45.32208" lon="5.80652">
        <ele>939</ele>
        <time>2016-05-21T07:15:46Z</time>
      </trkpt>
      <trkpt lat="45.32197" lon="5.80652">
        <ele>939.4</ele>
        <time>2016-05-21T07:15:48Z</time>
      </trkpt>
      <trkpt lat="45.32187" lon="5.80652">
        <ele>938.9</ele>
        <time>2016-05-21T07:15:50Z</time>
      </trkpt>
      <trkpt lat="45.32178" lon="5.80653">
        <ele>938.6</ele>
        <time>2016-05-21T07:15:52Z</time>
      </trkpt>
      <trkpt lat="45.32169" lon="5.80654">
        <ele>939.5</ele>
        <time>2016-05-21T07:15:54Z</time>
      </trkpt>
      <trkpt lat="45.32159" lon="5.80653">
        <ele>940.3</ele>
        <time>2016-05-21T07:15:56Z</time>
      </trkpt>
      <trkpt lat="45.32148" lon="5.80652">
        <ele>940.6</ele>
        <time>2016-05-21T07:15:58Z</time>
      </trkpt>
      <trkpt lat="45.32138" lon="5.80652">
        <ele>941.2</ele>
        <time>2016-05-21T07:16:00Z</time>
      </trkpt>
      <trkpt lat="45.32128" lon="5.80651">
        <ele>941.9</ele>
        <time>2016-05-21T07:16:02Z</time>
      </trkpt>
      <trkpt lat="45.32117" lon="5.8065">
        <ele>942.2</ele>
        <time>2016-05-21T07:16:04Z</time>
      </trkpt>
      <trkpt lat="45.32106" lon="5.8065">
        <ele>942.4</ele>
        <time>2016-05-21T07:16:06Z</time>
      </trkpt>
      <trkpt lat="45.32095" lon="5.8065">
        <ele>943</ele>
        <time>2016-05-21T07:16:08Z</time>
      </trkpt>
      <trkpt lat="45.32086" lon="5.80649">
        <ele>942.9</ele>
        <time>2016-05-21T07:16:10Z</time>
      </trkpt>
      <trkpt lat="45.32076" lon="5.80649">
        <ele>942.8</ele>
        <time>2016-05-21T07:16:12Z</time>
      </trkpt>
      <trkpt lat="45.32066" lon="5.80649">
        <ele>942.9</ele>
        <time>2016-05-21T07:16:14Z</time>
      </trkpt>
      <trkpt lat="45.32055" lon="5.8065">
        <ele>942.9</ele>
        <time>2016-05-21T07:16:16Z</time>
      </trkpt>
      <trkpt lat="45.32044" lon="5.80651">
        <ele>943.4</ele>
        <time>2016-05-21T07:16:18Z</time>
      </trkpt>
      <trkpt lat="45.32035" lon="5.80652">
        <ele>943.3</ele>
        <time>2016-05-21T07:16:20Z</time>
      </trkpt>
      <trkpt lat="45.32024" lon="5.80653">
        <ele>943.6</ele>
        <time>2016-05-21T07:16:22Z</time>
      </trkpt>
      <trkpt lat="45.32014" lon="5.80653">
        <ele>944.3</ele>
        <time>2016-05-21T07:16:24Z</time>
      </trkpt>
      <trkpt lat="45.32002" lon="5.80654">
        <ele>945.3</ele>
        <time>2016-05-21T07:16:26Z</time>
      </trkpt>
      <trkpt lat="45.31991" lon="5.80653">
        <ele>945.4</ele>
        <time>2016-05-21T07:16:28Z</time>
      </trkpt>
      <trkpt lat="45.31981" lon="5.80653">
        <ele>945.4</ele>
        <time>2016-05-21T07:16:30Z</time>
      </trkpt>
      <trkpt lat="45.31972" lon="5.80653">
        <ele>945.3</ele>
        <time>2016-05-21T07:16:32Z</time>
      </trkpt>
      <trkpt lat="45.31958" lon="5.80653">
        <ele>945.2</ele>
        <time>2016-05-21T07:16:35Z</time>
      </trkpt>
      <trkpt lat="45.31945" lon="5.80655">
        <ele>943.5</ele>
        <time>2016-05-21T07:16:37Z</time>
      </trkpt>
      <trkpt lat="45.31934" lon="5.8066">
        <ele>941.3</ele>
        <time>2016-05-21T07:16:39Z</time>
      </trkpt>
      <trkpt lat="45.31924" lon="5.80665">
        <ele>940.4</ele>
        <time>2016-05-21T07:16:41Z</time>
      </trkpt>
      <trkpt lat="45.31915" lon="5.80669">
        <ele>939.3</ele>
        <time>2016-05-21T07:16:43Z</time>
      </trkpt>
      <trkpt lat="45.31905" lon="5.80672">
        <ele>938.9</ele>
        <time>2016-05-21T07:16:45Z</time>
      </trkpt>
      <trkpt lat="45.31894" lon="5.80673">
        <ele>939.5</ele>
        <time>2016-05-21T07:16:47Z</time>
      </trkpt>
      <trkpt lat="45.3188" lon="5.80675">
        <ele>940.1</ele>
        <time>2016-05-21T07:16:49Z</time>
      </trkpt>
      <trkpt lat="45.31867" lon="5.80676">
        <ele>940.4</ele>
        <time>2016-05-21T07:16:51Z</time>
      </trkpt>
      <trkpt lat="45.31854" lon="5.80679">
        <ele>940.1</ele>
        <time>2016-05-21T07:16:53Z</time>
      </trkpt>
      <trkpt lat="45.31843" lon="5.80683">
        <ele>940.3</ele>
        <time>2016-05-21T07:16:55Z</time>
      </trkpt>
      <trkpt lat="45.31833" lon="5.80693">
        <ele>939.8</ele>
        <time>2016-05-21T07:16:57Z</time>
      </trkpt>
      <trkpt lat="45.31825" lon="5.80706">
        <ele>939.9</ele>
        <time>2016-05-21T07:16:59Z</time>
      </trkpt>
      <trkpt lat="45.31819" lon="5.80718">
        <ele>940.2</ele>
        <time>2016-05-21T07:17:01Z</time>
      </trkpt>
      <trkpt lat="45.31812" lon="5.80724">
        <ele>940.3</ele>
        <time>2016-05-21T07:17:03Z</time>
      </trkpt>
      <trkpt lat="45.31804" lon="5.80728">
        <ele>940.4</ele>
        <time>2016-05-21T07:17:06Z</time>
      </trkpt>
      <trkpt lat="45.31803" lon="5.80736">
        <ele>940.4</ele>
        <time>2016-05-21T07:17:13Z</time>
      </trkpt>
      <trkpt lat="45.31811" lon="5.80738">
        <ele>940.5</ele>
        <time>2016-05-21T07:17:16Z</time>
      </trkpt>
      <trkpt lat="45.31816" lon="5.80748">
        <ele>940.7</ele>
        <time>2016-05-21T07:17:20Z</time>
      </trkpt>
      <trkpt lat="45.31818" lon="5.80761">
        <ele>942.2</ele>
        <time>2016-05-21T07:17:23Z</time>
      </trkpt>
      <trkpt lat="45.31816" lon="5.8077">
        <ele>944.3</ele>
        <time>2016-05-21T07:17:25Z</time>
      </trkpt>
      <trkpt lat="45.31815" lon="5.80782">
        <ele>945</ele>
        <time>2016-05-21T07:17:27Z</time>
      </trkpt>
      <trkpt lat="45.31814" lon="5.80796">
        <ele>944.7</ele>
        <time>2016-05-21T07:17:29Z</time>
      </trkpt>
      <trkpt lat="45.31813" lon="5.8081">
        <ele>944.9</ele>
        <time>2016-05-21T07:17:31Z</time>
      </trkpt>
      <trkpt lat="45.31815" lon="5.80824">
        <ele>944.7</ele>
        <time>2016-05-21T07:17:33Z</time>
      </trkpt>
      <trkpt lat="45.3182" lon="5.80838">
        <ele>944.2</ele>
        <time>2016-05-21T07:17:35Z</time>
      </trkpt>
      <trkpt lat="45.31828" lon="5.8085">
        <ele>943.3</ele>
        <time>2016-05-21T07:17:37Z</time>
      </trkpt>
      <trkpt lat="45.31837" lon="5.80859">
        <ele>942.2</ele>
        <time>2016-05-21T07:17:39Z</time>
      </trkpt>
      <trkpt lat="45.31847" lon="5.80866">
        <ele>942</ele>
        <time>2016-05-21T07:17:41Z</time>
      </trkpt>
      <trkpt lat="45.31857" lon="5.8087">
        <ele>941.9</ele>
        <time>2016-05-21T07:17:43Z</time>
      </trkpt>
      <trkpt lat="45.31868" lon="5.80875">
        <ele>941.7</ele>
        <time>2016-05-21T07:17:45Z</time>
      </trkpt>
      <trkpt lat="45.31879" lon="5.80879">
        <ele>942.2</ele>
        <time>2016-05-21T07:17:47Z</time>
      </trkpt>
      <trkpt lat="45.31888" lon="5.8088">
        <ele>942.6</ele>
        <time>2016-05-21T07:17:49Z</time>
      </trkpt>
      <trkpt lat="45.31899" lon="5.80882">
        <ele>943.2</ele>
        <time>2016-05-21T07:17:51Z</time>
      </trkpt>
      <trkpt lat="45.31912" lon="5.80883">
        <ele>943.2</ele>
        <time>2016-05-21T07:17:53Z</time>
      </trkpt>
      <trkpt lat="45.31923" lon="5.80885">
        <ele>942.8</ele>
        <time>2016-05-21T07:17:55Z</time>
      </trkpt>
      <trkpt lat="45.31932" lon="5.80893">
        <ele>942.9</ele>
        <time>2016-05-21T07:17:57Z</time>
      </trkpt>
      <trkpt lat="45.31939" lon="5.80905">
        <ele>942.6</ele>
        <time>2016-05-21T07:17:59Z</time>
      </trkpt>
      <trkpt lat="45.31949" lon="5.80913">
        <ele>942.6</ele>
        <time>2016-05-21T07:18:01Z</time>
      </trkpt>
      <trkpt lat="45.3196" lon="5.80918">
        <ele>942.7</ele>
        <time>2016-05-21T07:18:03Z</time>
      </trkpt>
      <trkpt lat="45.31974" lon="5.80922">
        <ele>942.3</ele>
        <time>2016-05-21T07:18:05Z</time>
      </trkpt>
      <trkpt lat="45.31987" lon="5.80924">
        <ele>941.6</ele>
        <time>2016-05-21T07:18:07Z</time>
      </trkpt>
      <trkpt lat="45.32001" lon="5.80924">
        <ele>941.1</ele>
        <time>2016-05-21T07:18:09Z</time>
      </trkpt>
      <trkpt lat="45.32016" lon="5.80923">
        <ele>939.7</ele>
        <time>2016-05-21T07:18:11Z</time>
      </trkpt>
      <trkpt lat="45.32029" lon="5.8092">
        <ele>938.6</ele>
        <time>2016-05-21T07:18:13Z</time>
      </trkpt>
      <trkpt lat="45.32043" lon="5.80917">
        <ele>938.7</ele>
        <time>2016-05-21T07:18:15Z</time>
      </trkpt>
      <trkpt lat="45.3205" lon="5.80916">
        <ele>939.3</ele>
        <time>2016-05-21T07:18:16Z</time>
      </trkpt>
      <trkpt lat="45.32063" lon="5.80916">
        <ele>940.7</ele>
        <time>2016-05-21T07:18:18Z</time>
      </trkpt>
      <trkpt lat="45.32077" lon="5.8092">
        <ele>942.8</ele>
        <time>2016-05-21T07:18:20Z</time>
      </trkpt>
      <trkpt lat="45.3209" lon="5.80925">
        <ele>945.4</ele>
        <time>2016-05-21T07:18:22Z</time>
      </trkpt>
      <trkpt lat="45.32097" lon="5.80928">
        <ele>946.1</ele>
        <time>2016-05-21T07:18:23Z</time>
      </trkpt>
      <trkpt lat="45.3211" lon="5.80932">
        <ele>946.7</ele>
        <time>2016-05-21T07:18:25Z</time>
      </trkpt>
      <trkpt lat="45.32123" lon="5.80933">
        <ele>947.5</ele>
        <time>2016-05-21T07:18:27Z</time>
      </trkpt>
      <trkpt lat="45.32137" lon="5.80934">
        <ele>947.8</ele>
        <time>2016-05-21T07:18:29Z</time>
      </trkpt>
      <trkpt lat="45.32145" lon="5.80935">
        <ele>948</ele>
        <time>2016-05-21T07:18:30Z</time>
      </trkpt>
      <trkpt lat="45.32152" lon="5.80936">
        <ele>948.3</ele>
        <time>2016-05-21T07:18:31Z</time>
      </trkpt>
      <trkpt lat="45.32167" lon="5.80937">
        <ele>948</ele>
        <time>2016-05-21T07:18:33Z</time>
      </trkpt>
      <trkpt lat="45.32175" lon="5.80937">
        <ele>948.2</ele>
        <time>2016-05-21T07:18:34Z</time>
      </trkpt>
      <trkpt lat="45.32183" lon="5.80937">
        <ele>948.5</ele>
        <time>2016-05-21T07:18:35Z</time>
      </trkpt>
      <trkpt lat="45.32191" lon="5.80937">
        <ele>947.8</ele>
        <time>2016-05-21T07:18:36Z</time>
      </trkpt>
      <trkpt lat="45.32198" lon="5.80936">
        <ele>947.2</ele>
        <time>2016-05-21T07:18:37Z</time>
      </trkpt>
      <trkpt lat="45.32211" lon="5.80937">
        <ele>946.8</ele>
        <time>2016-05-21T07:18:39Z</time>
      </trkpt>
      <trkpt lat="45.32223" lon="5.80938">
        <ele>946.1</ele>
        <time>2016-05-21T07:18:41Z</time>
      </trkpt>
      <trkpt lat="45.32237" lon="5.80942">
        <ele>946.2</ele>
        <time>2016-05-21T07:18:43Z</time>
      </trkpt>
      <trkpt lat="45.32244" lon="5.80943">
        <ele>946.3</ele>
        <time>2016-05-21T07:18:44Z</time>
      </trkpt>
      <trkpt lat="45.32251" lon="5.80945">
        <ele>946.1</ele>
        <time>2016-05-21T07:18:45Z</time>
      </trkpt>
      <trkpt lat="45.32263" lon="5.80946">
        <ele>946</ele>
        <time>2016-05-21T07:18:47Z</time>
      </trkpt>
      <trkpt lat="45.32275" lon="5.80948">
        <ele>945.3</ele>
        <time>2016-05-21T07:18:49Z</time>
      </trkpt>
      <trkpt lat="45.32287" lon="5.8095">
        <ele>944.5</ele>
        <time>2016-05-21T07:18:51Z</time>
      </trkpt>
      <trkpt lat="45.32302" lon="5.80954">
        <ele>945</ele>
        <time>2016-05-21T07:18:53Z</time>
      </trkpt>
      <trkpt lat="45.32311" lon="5.80957">
        <ele>945.3</ele>
        <time>2016-05-21T07:18:54Z</time>
      </trkpt>
      <trkpt lat="45.32319" lon="5.8096">
        <ele>945.9</ele>
        <time>2016-05-21T07:18:55Z</time>
      </trkpt>
      <trkpt lat="45.32327" lon="5.80963">
        <ele>946</ele>
        <time>2016-05-21T07:18:56Z</time>
      </trkpt>
      <trkpt lat="45.32335" lon="5.80967">
        <ele>945.3</ele>
        <time>2016-05-21T07:18:57Z</time>
      </trkpt>
      <trkpt lat="45.32343" lon="5.80971">
        <ele>944.6</ele>
        <time>2016-05-21T07:18:58Z</time>
      </trkpt>
      <trkpt lat="45.3235" lon="5.80973">
        <ele>943.2</ele>
        <time>2016-05-21T07:18:59Z</time>
      </trkpt>
      <trkpt lat="45.32358" lon="5.80976">
        <ele>942.3</ele>
        <time>2016-05-21T07:19:00Z</time>
      </trkpt>
      <trkpt lat="45.32365" lon="5.80978">
        <ele>942</ele>
        <time>2016-05-21T07:19:01Z</time>
      </trkpt>
      <trkpt lat="45.32374" lon="5.80981">
        <ele>941.4</ele>
        <time>2016-05-21T07:19:02Z</time>
      </trkpt>
      <trkpt lat="45.32383" lon="5.80984">
        <ele>940.6</ele>
        <time>2016-05-21T07:19:03Z</time>
      </trkpt>
      <trkpt lat="45.32393" lon="5.80987">
        <ele>940.1</ele>
        <time>2016-05-21T07:19:04Z</time>
      </trkpt>
      <trkpt lat="45.32403" lon="5.80989">
        <ele>939.6</ele>
        <time>2016-05-21T07:19:05Z</time>
      </trkpt>
      <trkpt lat="45.32413" lon="5.80992">
        <ele>938.8</ele>
        <time>2016-05-21T07:19:06Z</time>
      </trkpt>
      <trkpt lat="45.32423" lon="5.80994">
        <ele>938.2</ele>
        <time>2016-05-21T07:19:07Z</time>
      </trkpt>
      <trkpt lat="45.32433" lon="5.80997">
        <ele>937.6</ele>
        <time>2016-05-21T07:19:08Z</time>
      </trkpt>
      <trkpt lat="45.32442" lon="5.81">
        <ele>937.3</ele>
        <time>2016-05-21T07:19:09Z</time>
      </trkpt>
      <trkpt lat="45.32451" lon="5.81003">
        <ele>936.7</ele>
        <time>2016-05-21T07:19:10Z</time>
      </trkpt>
      <trkpt lat="45.3246" lon="5.81006">
        <ele>936.1</ele>
        <time>2016-05-21T07:19:11Z</time>
      </trkpt>
      <trkpt lat="45.32468" lon="5.81009">
        <ele>935.7</ele>
        <time>2016-05-21T07:19:12Z</time>
      </trkpt>
      <trkpt lat="45.32477" lon="5.81011">
        <ele>935.3</ele>
        <time>2016-05-21T07:19:13Z</time>
      </trkpt>
      <trkpt lat="45.32486" lon="5.81014">
        <ele>934.9</ele>
        <time>2016-05-21T07:19:14Z</time>
      </trkpt>
      <trkpt lat="45.32495" lon="5.81016">
        <ele>934.6</ele>
        <time>2016-05-21T07:19:15Z</time>
      </trkpt>
      <trkpt lat="45.32503" lon="5.81019">
        <ele>934.9</ele>
        <time>2016-05-21T07:19:16Z</time>
      </trkpt>
      <trkpt lat="45.32512" lon="5.81021">
        <ele>934.7</ele>
        <time>2016-05-21T07:19:17Z</time>
      </trkpt>
      <trkpt lat="45.3252" lon="5.81023">
        <ele>934.6</ele>
        <time>2016-05-21T07:19:18Z</time>
      </trkpt>
      <trkpt lat="45.32528" lon="5.81025">
        <ele>933.5</ele>
        <time>2016-05-21T07:19:19Z</time>
      </trkpt>
      <trkpt lat="45.32535" lon="5.81027">
        <ele>932.6</ele>
        <time>2016-05-21T07:19:20Z</time>
      </trkpt>
      <trkpt lat="45.32543" lon="5.81028">
        <ele>931.8</ele>
        <time>2016-05-21T07:19:21Z</time>
      </trkpt>
      <trkpt lat="45.32551" lon="5.81029">
        <ele>931.6</ele>
        <time>2016-05-21T07:19:22Z</time>
      </trkpt>
      <trkpt lat="45.32558" lon="5.81029">
        <ele>931.5</ele>
        <time>2016-05-21T07:19:23Z</time>
      </trkpt>
      <trkpt lat="45.32567" lon="5.81029">
        <ele>931.7</ele>
        <time>2016-05-21T07:19:24Z</time>
      </trkpt>
      <trkpt lat="45.32575" lon="5.8103">
        <ele>931.6</ele>
        <time>2016-05-21T07:19:25Z</time>
      </trkpt>
      <trkpt lat="45.32583" lon="5.8103">
        <ele>931.6</ele>
        <time>2016-05-21T07:19:26Z</time>
      </trkpt>
      <trkpt lat="45.32591" lon="5.8103">
        <ele>932</ele>
        <time>2016-05-21T07:19:27Z</time>
      </trkpt>
      <trkpt lat="45.32599" lon="5.81031">
        <ele>932</ele>
        <time>2016-05-21T07:19:28Z</time>
      </trkpt>
      <trkpt lat="45.32613" lon="5.81031">
        <ele>932.6</ele>
        <time>2016-05-21T07:19:30Z</time>
      </trkpt>
      <trkpt lat="45.32621" lon="5.81031">
        <ele>932.9</ele>
        <time>2016-05-21T07:19:31Z</time>
      </trkpt>
      <trkpt lat="45.32628" lon="5.8103">
        <ele>933.5</ele>
        <time>2016-05-21T07:19:32Z</time>
      </trkpt>
      <trkpt lat="45.32641" lon="5.81032">
        <ele>934.2</ele>
        <time>2016-05-21T07:19:34Z</time>
      </trkpt>
      <trkpt lat="45.32654" lon="5.81032">
        <ele>935.4</ele>
        <time>2016-05-21T07:19:36Z</time>
      </trkpt>
      <trkpt lat="45.32668" lon="5.81032">
        <ele>936.8</ele>
        <time>2016-05-21T07:19:38Z</time>
      </trkpt>
      <trkpt lat="45.32681" lon="5.81032">
        <ele>937.8</ele>
        <time>2016-05-21T07:19:40Z</time>
      </trkpt>
      <trkpt lat="45.32695" lon="5.81031">
        <ele>939.1</ele>
        <time>2016-05-21T07:19:42Z</time>
      </trkpt>
      <trkpt lat="45.32707" lon="5.81029">
        <ele>941</ele>
        <time>2016-05-21T07:19:44Z</time>
      </trkpt>
      <trkpt lat="45.32721" lon="5.81027">
        <ele>943.2</ele>
        <time>2016-05-21T07:19:46Z</time>
      </trkpt>
      <trkpt lat="45.32735" lon="5.81026">
        <ele>944.2</ele>
        <time>2016-05-21T07:19:48Z</time>
      </trkpt>
      <trkpt lat="45.32747" lon="5.81026">
        <ele>943</ele>
        <time>2016-05-21T07:19:50Z</time>
      </trkpt>
      <trkpt lat="45.32759" lon="5.81027">
        <ele>941.9</ele>
        <time>2016-05-21T07:19:52Z</time>
      </trkpt>
      <trkpt lat="45.3277" lon="5.81028">
        <ele>940.5</ele>
        <time>2016-05-21T07:19:54Z</time>
      </trkpt>
      <trkpt lat="45.32782" lon="5.81029">
        <ele>940.3</ele>
        <time>2016-05-21T07:19:56Z</time>
      </trkpt>
      <trkpt lat="45.32795" lon="5.81028">
        <ele>939.7</ele>
        <time>2016-05-21T07:19:58Z</time>
      </trkpt>
      <trkpt lat="45.32806" lon="5.81029">
        <ele>938.9</ele>
        <time>2016-05-21T07:20:00Z</time>
      </trkpt>
      <trkpt lat="45.32817" lon="5.81029">
        <ele>938.8</ele>
        <time>2016-05-21T07:20:02Z</time>
      </trkpt>
      <trkpt lat="45.32827" lon="5.81031">
        <ele>939.2</ele>
        <time>2016-05-21T07:20:04Z</time>
      </trkpt>
      <trkpt lat="45.32839" lon="5.81035">
        <ele>939.8</ele>
        <time>2016-05-21T07:20:06Z</time>
      </trkpt>
      <trkpt lat="45.32851" lon="5.81041">
        <ele>940.9</ele>
        <time>2016-05-21T07:20:08Z</time>
      </trkpt>
      <trkpt lat="45.32861" lon="5.81045">
        <ele>941.9</ele>
        <time>2016-05-21T07:20:10Z</time>
      </trkpt>
      <trkpt lat="45.32869" lon="5.81051">
        <ele>943.3</ele>
        <time>2016-05-21T07:20:12Z</time>
      </trkpt>
      <trkpt lat="45.32876" lon="5.81059">
        <ele>944.1</ele>
        <time>2016-05-21T07:20:14Z</time>
      </trkpt>
      <trkpt lat="45.32886" lon="5.8107">
        <ele>946</ele>
        <time>2016-05-21T07:20:17Z</time>
      </trkpt>
      <trkpt lat="45.32895" lon="5.81076">
        <ele>947.5</ele>
        <time>2016-05-21T07:20:19Z</time>
      </trkpt>
      <trkpt lat="45.32905" lon="5.81083">
        <ele>949.3</ele>
        <time>2016-05-21T07:20:21Z</time>
      </trkpt>
      <trkpt lat="45.32915" lon="5.81088">
        <ele>950.9</ele>
        <time>2016-05-21T07:20:23Z</time>
      </trkpt>
      <trkpt lat="45.32925" lon="5.81092">
        <ele>952.9</ele>
        <time>2016-05-21T07:20:25Z</time>
      </trkpt>
      <trkpt lat="45.32933" lon="5.81096">
        <ele>954.4</ele>
        <time>2016-05-21T07:20:27Z</time>
      </trkpt>
      <trkpt lat="45.32942" lon="5.81102">
        <ele>954.9</ele>
        <time>2016-05-21T07:20:29Z</time>
      </trkpt>
      <trkpt lat="45.32952" lon="5.81108">
        <ele>954.9</ele>
        <time>2016-05-21T07:20:31Z</time>
      </trkpt>
      <trkpt lat="45.32964" lon="5.81115">
        <ele>954.9</ele>
        <time>2016-05-21T07:20:33Z</time>
      </trkpt>
      <trkpt lat="45.32976" lon="5.81119">
        <ele>955.1</ele>
        <time>2016-05-21T07:20:35Z</time>
      </trkpt>
      <trkpt lat="45.32988" lon="5.81117">
        <ele>955.1</ele>
        <time>2016-05-21T07:20:37Z</time>
      </trkpt>
      <trkpt lat="45.32999" lon="5.81115">
        <ele>954.3</ele>
        <time>2016-05-21T07:20:39Z</time>
      </trkpt>
      <trkpt lat="45.3301" lon="5.81112">
        <ele>953.6</ele>
        <time>2016-05-21T07:20:41Z</time>
      </trkpt>
      <trkpt lat="45.33021" lon="5.81109">
        <ele>952</ele>
        <time>2016-05-21T07:20:43Z</time>
      </trkpt>
      <trkpt lat="45.33032" lon="5.81107">
        <ele>951</ele>
        <time>2016-05-21T07:20:45Z</time>
      </trkpt>
      <trkpt lat="45.33044" lon="5.81104">
        <ele>950.5</ele>
        <time>2016-05-21T07:20:47Z</time>
      </trkpt>
      <trkpt lat="45.33055" lon="5.81102">
        <ele>950.3</ele>
        <time>2016-05-21T07:20:49Z</time>
      </trkpt>
      <trkpt lat="45.33066" lon="5.811">
        <ele>950.9</ele>
        <time>2016-05-21T07:20:51Z</time>
      </trkpt>
      <trkpt lat="45.33079" lon="5.81096">
        <ele>950.9</ele>
        <time>2016-05-21T07:20:53Z</time>
      </trkpt>
      <trkpt lat="45.33092" lon="5.81094">
        <ele>950.2</ele>
        <time>2016-05-21T07:20:55Z</time>
      </trkpt>
      <trkpt lat="45.33103" lon="5.81091">
        <ele>950</ele>
        <time>2016-05-21T07:20:57Z</time>
      </trkpt>
      <trkpt lat="45.33113" lon="5.81088">
        <ele>949.6</ele>
        <time>2016-05-21T07:20:59Z</time>
      </trkpt>
      <trkpt lat="45.33121" lon="5.81088">
        <ele>949.8</ele>
        <time>2016-05-21T07:21:01Z</time>
      </trkpt>
      <trkpt lat="45.3313" lon="5.81088">
        <ele>950.4</ele>
        <time>2016-05-21T07:21:03Z</time>
      </trkpt>
      <trkpt lat="45.3314" lon="5.81089">
        <ele>950.2</ele>
        <time>2016-05-21T07:21:05Z</time>
      </trkpt>
      <trkpt lat="45.33148" lon="5.81093">
        <ele>950.1</ele>
        <time>2016-05-21T07:21:07Z</time>
      </trkpt>
      <trkpt lat="45.33156" lon="5.81096">
        <ele>949.4</ele>
        <time>2016-05-21T07:21:09Z</time>
      </trkpt>
      <trkpt lat="45.33165" lon="5.81099">
        <ele>950</ele>
        <time>2016-05-21T07:21:11Z</time>
      </trkpt>
      <trkpt lat="45.33174" lon="5.81102">
        <ele>951.1</ele>
        <time>2016-05-21T07:21:13Z</time>
      </trkpt>
      <trkpt lat="45.33183" lon="5.81105">
        <ele>953.4</ele>
        <time>2016-05-21T07:21:15Z</time>
      </trkpt>
      <trkpt lat="45.33194" lon="5.81108">
        <ele>954.8</ele>
        <time>2016-05-21T07:21:17Z</time>
      </trkpt>
      <trkpt lat="45.33205" lon="5.81113">
        <ele>955.9</ele>
        <time>2016-05-21T07:21:19Z</time>
      </trkpt>
      <trkpt lat="45.33216" lon="5.81119">
        <ele>956.8</ele>
        <time>2016-05-21T07:21:21Z</time>
      </trkpt>
      <trkpt lat="45.33224" lon="5.81127">
        <ele>957.5</ele>
        <time>2016-05-21T07:21:23Z</time>
      </trkpt>
      <trkpt lat="45.33234" lon="5.81136">
        <ele>957.8</ele>
        <time>2016-05-21T07:21:25Z</time>
      </trkpt>
      <trkpt lat="45.33243" lon="5.81143">
        <ele>958.6</ele>
        <time>2016-05-21T07:21:27Z</time>
      </trkpt>
      <trkpt lat="45.33252" lon="5.81149">
        <ele>960.9</ele>
        <time>2016-05-21T07:21:29Z</time>
      </trkpt>
      <trkpt lat="45.3326" lon="5.81152">
        <ele>961.6</ele>
        <time>2016-05-21T07:21:31Z</time>
      </trkpt>
      <trkpt lat="45.3327" lon="5.81157">
        <ele>961.2</ele>
        <time>2016-05-21T07:21:34Z</time>
      </trkpt>
      <trkpt lat="45.33282" lon="5.81162">
        <ele>960.6</ele>
        <time>2016-05-21T07:21:37Z</time>
      </trkpt>
      <trkpt lat="45.3329" lon="5.81167">
        <ele>960.7</ele>
        <time>2016-05-21T07:21:39Z</time>
      </trkpt>
      <trkpt lat="45.33301" lon="5.81172">
        <ele>961.4</ele>
        <time>2016-05-21T07:21:41Z</time>
      </trkpt>
      <trkpt lat="45.33311" lon="5.81176">
        <ele>961.4</ele>
        <time>2016-05-21T07:21:43Z</time>
      </trkpt>
      <trkpt lat="45.33324" lon="5.8118">
        <ele>961.6</ele>
        <time>2016-05-21T07:21:45Z</time>
      </trkpt>
      <trkpt lat="45.33334" lon="5.81183">
        <ele>961.9</ele>
        <time>2016-05-21T07:21:48Z</time>
      </trkpt>
      <trkpt lat="45.33343" lon="5.81184">
        <ele>962.9</ele>
        <time>2016-05-21T07:21:50Z</time>
      </trkpt>
      <trkpt lat="45.33351" lon="5.81186">
        <ele>963.4</ele>
        <time>2016-05-21T07:21:52Z</time>
      </trkpt>
      <trkpt lat="45.33358" lon="5.81188">
        <ele>963.5</ele>
        <time>2016-05-21T07:21:54Z</time>
      </trkpt>
      <trkpt lat="45.33366" lon="5.8119">
        <ele>963.3</ele>
        <time>2016-05-21T07:21:56Z</time>
      </trkpt>
      <trkpt lat="45.33375" lon="5.81193">
        <ele>962.6</ele>
        <time>2016-05-21T07:21:58Z</time>
      </trkpt>
      <trkpt lat="45.33384" lon="5.81196">
        <ele>963.3</ele>
        <time>2016-05-21T07:22:00Z</time>
      </trkpt>
      <trkpt lat="45.33395" lon="5.812">
        <ele>962.3</ele>
        <time>2016-05-21T07:22:02Z</time>
      </trkpt>
      <trkpt lat="45.33405" lon="5.81206">
        <ele>961.3</ele>
        <time>2016-05-21T07:22:04Z</time>
      </trkpt>
      <trkpt lat="45.33417" lon="5.81213">
        <ele>960.1</ele>
        <time>2016-05-21T07:22:06Z</time>
      </trkpt>
      <trkpt lat="45.33428" lon="5.81221">
        <ele>959.5</ele>
        <time>2016-05-21T07:22:08Z</time>
      </trkpt>
      <trkpt lat="45.3344" lon="5.81229">
        <ele>958.9</ele>
        <time>2016-05-21T07:22:10Z</time>
      </trkpt>
      <trkpt lat="45.33452" lon="5.81239">
        <ele>958.2</ele>
        <time>2016-05-21T07:22:12Z</time>
      </trkpt>
      <trkpt lat="45.33463" lon="5.81249">
        <ele>957.3</ele>
        <time>2016-05-21T07:22:14Z</time>
      </trkpt>
      <trkpt lat="45.33469" lon="5.81256">
        <ele>957.3</ele>
        <time>2016-05-21T07:22:15Z</time>
      </trkpt>
      <trkpt lat="45.33476" lon="5.81262">
        <ele>957.6</ele>
        <time>2016-05-21T07:22:16Z</time>
      </trkpt>
      <trkpt lat="45.33484" lon="5.8127">
        <ele>957.5</ele>
        <time>2016-05-21T07:22:17Z</time>
      </trkpt>
      <trkpt lat="45.33491" lon="5.81277">
        <ele>957.1</ele>
        <time>2016-05-21T07:22:18Z</time>
      </trkpt>
      <trkpt lat="45.33496" lon="5.81284">
        <ele>957</ele>
        <time>2016-05-21T07:22:19Z</time>
      </trkpt>
      <trkpt lat="45.33503" lon="5.81291">
        <ele>956.2</ele>
        <time>2016-05-21T07:22:20Z</time>
      </trkpt>
      <trkpt lat="45.33514" lon="5.81305">
        <ele>954.7</ele>
        <time>2016-05-21T07:22:22Z</time>
      </trkpt>
      <trkpt lat="45.33525" lon="5.81317">
        <ele>951.4</ele>
        <time>2016-05-21T07:22:24Z</time>
      </trkpt>
      <trkpt lat="45.3353" lon="5.81324">
        <ele>950.1</ele>
        <time>2016-05-21T07:22:25Z</time>
      </trkpt>
      <trkpt lat="45.33536" lon="5.81331">
        <ele>949.5</ele>
        <time>2016-05-21T07:22:26Z</time>
      </trkpt>
      <trkpt lat="45.33541" lon="5.81338">
        <ele>949</ele>
        <time>2016-05-21T07:22:27Z</time>
      </trkpt>
      <trkpt lat="45.33551" lon="5.8135">
        <ele>948.6</ele>
        <time>2016-05-21T07:22:29Z</time>
      </trkpt>
      <trkpt lat="45.33561" lon="5.81361">
        <ele>948.8</ele>
        <time>2016-05-21T07:22:31Z</time>
      </trkpt>
      <trkpt lat="45.3357" lon="5.81372">
        <ele>948.2</ele>
        <time>2016-05-21T07:22:33Z</time>
      </trkpt>
      <trkpt lat="45.33581" lon="5.8138">
        <ele>950.1</ele>
        <time>2016-05-21T07:22:35Z</time>
      </trkpt>
      <trkpt lat="45.33592" lon="5.8138">
        <ele>950.3</ele>
        <time>2016-05-21T07:22:37Z</time>
      </trkpt>
      <trkpt lat="45.33601" lon="5.81371">
        <ele>951</ele>
        <time>2016-05-21T07:22:39Z</time>
      </trkpt>
      <trkpt lat="45.33607" lon="5.81359">
        <ele>951.9</ele>
        <time>2016-05-21T07:22:41Z</time>
      </trkpt>
      <trkpt lat="45.33612" lon="5.81346">
        <ele>953.7</ele>
        <time>2016-05-21T07:22:43Z</time>
      </trkpt>
      <trkpt lat="45.33615" lon="5.81334">
        <ele>954.7</ele>
        <time>2016-05-21T07:22:45Z</time>
      </trkpt>
      <trkpt lat="45.33618" lon="5.81321">
        <ele>954.9</ele>
        <time>2016-05-21T07:22:47Z</time>
      </trkpt>
      <trkpt lat="45.3362" lon="5.8131">
        <ele>954.6</ele>
        <time>2016-05-21T07:22:49Z</time>
      </trkpt>
      <trkpt lat="45.33624" lon="5.813">
        <ele>954.3</ele>
        <time>2016-05-21T07:22:51Z</time>
      </trkpt>
      <trkpt lat="45.33631" lon="5.81295">
        <ele>954.4</ele>
        <time>2016-05-21T07:22:53Z</time>
      </trkpt>
      <trkpt lat="45.33639" lon="5.81295">
        <ele>955.2</ele>
        <time>2016-05-21T07:22:55Z</time>
      </trkpt>
      <trkpt lat="45.33647" lon="5.81297">
        <ele>956.8</ele>
        <time>2016-05-21T07:22:57Z</time>
      </trkpt>
      <trkpt lat="45.33655" lon="5.81301">
        <ele>959.3</ele>
        <time>2016-05-21T07:22:59Z</time>
      </trkpt>
      <trkpt lat="45.33663" lon="5.81307">
        <ele>961.8</ele>
        <time>2016-05-21T07:23:01Z</time>
      </trkpt>
      <trkpt lat="45.3367" lon="5.81312">
        <ele>964</ele>
        <time>2016-05-21T07:23:03Z</time>
      </trkpt>
      <trkpt lat="45.33677" lon="5.81317">
        <ele>965.7</ele>
        <time>2016-05-21T07:23:05Z</time>
      </trkpt>
      <trkpt lat="45.33684" lon="5.81322">
        <ele>966.3</ele>
        <time>2016-05-21T07:23:07Z</time>
      </trkpt>
      <trkpt lat="45.33692" lon="5.8133">
        <ele>966.8</ele>
        <time>2016-05-21T07:23:09Z</time>
      </trkpt>
      <trkpt lat="45.33699" lon="5.8134">
        <ele>966.7</ele>
        <time>2016-05-21T07:23:11Z</time>
      </trkpt>
      <trkpt lat="45.33702" lon="5.81349">
        <ele>967.2</ele>
        <time>2016-05-21T07:23:13Z</time>
      </trkpt>
      <trkpt lat="45.33707" lon="5.81361">
        <ele>967.6</ele>
        <time>2016-05-21T07:23:16Z</time>
      </trkpt>
      <trkpt lat="45.33712" lon="5.81375">
        <ele>967.7</ele>
        <time>2016-05-21T07:23:19Z</time>
      </trkpt>
      <trkpt lat="45.33714" lon="5.81386">
        <ele>968.2</ele>
        <time>2016-05-21T07:23:21Z</time>
      </trkpt>
      <trkpt lat="45.33716" lon="5.81396">
        <ele>968.7</ele>
        <time>2016-05-21T07:23:23Z</time>
      </trkpt>
      <trkpt lat="45.33717" lon="5.81407">
        <ele>970</ele>
        <time>2016-05-21T07:23:25Z</time>
      </trkpt>
      <trkpt lat="45.33717" lon="5.81422">
        <ele>972.2</ele>
        <time>2016-05-21T07:23:28Z</time>
      </trkpt>
      <trkpt lat="45.33717" lon="5.81434">
        <ele>971.9</ele>
        <time>2016-05-21T07:23:30Z</time>
      </trkpt>
      <trkpt lat="45.33717" lon="5.81445">
        <ele>971.6</ele>
        <time>2016-05-21T07:23:32Z</time>
      </trkpt>
      <trkpt lat="45.33717" lon="5.8146">
        <ele>971.6</ele>
        <time>2016-05-21T07:23:35Z</time>
      </trkpt>
      <trkpt lat="45.33718" lon="5.81474">
        <ele>971.7</ele>
        <time>2016-05-21T07:23:38Z</time>
      </trkpt>
      <trkpt lat="45.33719" lon="5.81488">
        <ele>973.3</ele>
        <time>2016-05-21T07:23:41Z</time>
      </trkpt>
      <trkpt lat="45.33719" lon="5.815">
        <ele>975.2</ele>
        <time>2016-05-21T07:23:43Z</time>
      </trkpt>
      <trkpt lat="45.33719" lon="5.81513">
        <ele>975.7</ele>
        <time>2016-05-21T07:23:45Z</time>
      </trkpt>
      <trkpt lat="45.33719" lon="5.81524">
        <ele>976.1</ele>
        <time>2016-05-21T07:23:47Z</time>
      </trkpt>
      <trkpt lat="45.33719" lon="5.81535">
        <ele>975.5</ele>
        <time>2016-05-21T07:23:49Z</time>
      </trkpt>
      <trkpt lat="45.33718" lon="5.81546">
        <ele>975.4</ele>
        <time>2016-05-21T07:23:51Z</time>
      </trkpt>
      <trkpt lat="45.33716" lon="5.81558">
        <ele>975.6</ele>
        <time>2016-05-21T07:23:53Z</time>
      </trkpt>
      <trkpt lat="45.33715" lon="5.81569">
        <ele>975.7</ele>
        <time>2016-05-21T07:23:55Z</time>
      </trkpt>
      <trkpt lat="45.33713" lon="5.81583">
        <ele>976.6</ele>
        <time>2016-05-21T07:23:58Z</time>
      </trkpt>
      <trkpt lat="45.33712" lon="5.81594">
        <ele>977.6</ele>
        <time>2016-05-21T07:24:00Z</time>
      </trkpt>
      <trkpt lat="45.33711" lon="5.81607">
        <ele>978.3</ele>
        <time>2016-05-21T07:24:02Z</time>
      </trkpt>
      <trkpt lat="45.3371" lon="5.81618">
        <ele>978.7</ele>
        <time>2016-05-21T07:24:04Z</time>
      </trkpt>
      <trkpt lat="45.33709" lon="5.81629">
        <ele>978.8</ele>
        <time>2016-05-21T07:24:06Z</time>
      </trkpt>
      <trkpt lat="45.33709" lon="5.81642">
        <ele>979.8</ele>
        <time>2016-05-21T07:24:08Z</time>
      </trkpt>
      <trkpt lat="45.33708" lon="5.81657">
        <ele>979.2</ele>
        <time>2016-05-21T07:24:10Z</time>
      </trkpt>
      <trkpt lat="45.33707" lon="5.81672">
        <ele>978.5</ele>
        <time>2016-05-21T07:24:12Z</time>
      </trkpt>
      <trkpt lat="45.33707" lon="5.81685">
        <ele>976.4</ele>
        <time>2016-05-21T07:24:14Z</time>
      </trkpt>
      <trkpt lat="45.33706" lon="5.81699">
        <ele>974.7</ele>
        <time>2016-05-21T07:24:16Z</time>
      </trkpt>
      <trkpt lat="45.33706" lon="5.81713">
        <ele>972.5</ele>
        <time>2016-05-21T07:24:18Z</time>
      </trkpt>
      <trkpt lat="45.33705" lon="5.81727">
        <ele>973.2</ele>
        <time>2016-05-21T07:24:20Z</time>
      </trkpt>
      <trkpt lat="45.33706" lon="5.81742">
        <ele>974.3</ele>
        <time>2016-05-21T07:24:22Z</time>
      </trkpt>
      <trkpt lat="45.33706" lon="5.81755">
        <ele>975.8</ele>
        <time>2016-05-21T07:24:24Z</time>
      </trkpt>
      <trkpt lat="45.33705" lon="5.81765">
        <ele>976</ele>
        <time>2016-05-21T07:24:26Z</time>
      </trkpt>
      <trkpt lat="45.33704" lon="5.81776">
        <ele>976.1</ele>
        <time>2016-05-21T07:24:28Z</time>
      </trkpt>
      <trkpt lat="45.33702" lon="5.81791">
        <ele>977.3</ele>
        <time>2016-05-21T07:24:31Z</time>
      </trkpt>
      <trkpt lat="45.33701" lon="5.81803">
        <ele>978.2</ele>
        <time>2016-05-21T07:24:33Z</time>
      </trkpt>
      <trkpt lat="45.33699" lon="5.81814">
        <ele>978.2</ele>
        <time>2016-05-21T07:24:35Z</time>
      </trkpt>
      <trkpt lat="45.33697" lon="5.81826">
        <ele>979.5</ele>
        <time>2016-05-21T07:24:37Z</time>
      </trkpt>
      <trkpt lat="45.33694" lon="5.81839">
        <ele>980.6</ele>
        <time>2016-05-21T07:24:39Z</time>
      </trkpt>
      <trkpt lat="45.33693" lon="5.81855">
        <ele>982.3</ele>
        <time>2016-05-21T07:24:41Z</time>
      </trkpt>
      <trkpt lat="45.33693" lon="5.81872">
        <ele>983.4</ele>
        <time>2016-05-21T07:24:43Z</time>
      </trkpt>
      <trkpt lat="45.33692" lon="5.81886">
        <ele>984.1</ele>
        <time>2016-05-21T07:24:45Z</time>
      </trkpt>
      <trkpt lat="45.33692" lon="5.81899">
        <ele>984.4</ele>
        <time>2016-05-21T07:24:47Z</time>
      </trkpt>
      <trkpt lat="45.33692" lon="5.81911">
        <ele>984.3</ele>
        <time>2016-05-21T07:24:49Z</time>
      </trkpt>
      <trkpt lat="45.33693" lon="5.81924">
        <ele>984.1</ele>
        <time>2016-05-21T07:24:51Z</time>
      </trkpt>
      <trkpt lat="45.33693" lon="5.81939">
        <ele>984</ele>
        <time>2016-05-21T07:24:53Z</time>
      </trkpt>
      <trkpt lat="45.33694" lon="5.81952">
        <ele>983.4</ele>
        <time>2016-05-21T07:24:55Z</time>
      </trkpt>
      <trkpt lat="45.33696" lon="5.81963">
        <ele>984.3</ele>
        <time>2016-05-21T07:24:57Z</time>
      </trkpt>
      <trkpt lat="45.33701" lon="5.81975">
        <ele>985.7</ele>
        <time>2016-05-21T07:24:59Z</time>
      </trkpt>
      <trkpt lat="45.33707" lon="5.81983">
        <ele>986.8</ele>
        <time>2016-05-21T07:25:01Z</time>
      </trkpt>
      <trkpt lat="45.33714" lon="5.81988">
        <ele>987.8</ele>
        <time>2016-05-21T07:25:03Z</time>
      </trkpt>
      <trkpt lat="45.33725" lon="5.81989">
        <ele>989.6</ele>
        <time>2016-05-21T07:25:06Z</time>
      </trkpt>
      <trkpt lat="45.33732" lon="5.81989">
        <ele>989.6</ele>
        <time>2016-05-21T07:25:08Z</time>
      </trkpt>
      <trkpt lat="45.3374" lon="5.81992">
        <ele>989.7</ele>
        <time>2016-05-21T07:25:10Z</time>
      </trkpt>
      <trkpt lat="45.33749" lon="5.81999">
        <ele>990.1</ele>
        <time>2016-05-21T07:25:12Z</time>
      </trkpt>
      <trkpt lat="45.33753" lon="5.82011">
        <ele>990.2</ele>
        <time>2016-05-21T07:25:14Z</time>
      </trkpt>
      <trkpt lat="45.33756" lon="5.82022">
        <ele>988.8</ele>
        <time>2016-05-21T07:25:16Z</time>
      </trkpt>
      <trkpt lat="45.33758" lon="5.82035">
        <ele>989</ele>
        <time>2016-05-21T07:25:18Z</time>
      </trkpt>
      <trkpt lat="45.33759" lon="5.82048">
        <ele>990</ele>
        <time>2016-05-21T07:25:20Z</time>
      </trkpt>
      <trkpt lat="45.3376" lon="5.82061">
        <ele>991.3</ele>
        <time>2016-05-21T07:25:22Z</time>
      </trkpt>
      <trkpt lat="45.33762" lon="5.82076">
        <ele>991.9</ele>
        <time>2016-05-21T07:25:24Z</time>
      </trkpt>
      <trkpt lat="45.33764" lon="5.8209">
        <ele>991.5</ele>
        <time>2016-05-21T07:25:26Z</time>
      </trkpt>
      <trkpt lat="45.33766" lon="5.82108">
        <ele>990.8</ele>
        <time>2016-05-21T07:25:28Z</time>
      </trkpt>
      <trkpt lat="45.33767" lon="5.82124">
        <ele>988.8</ele>
        <time>2016-05-21T07:25:30Z</time>
      </trkpt>
      <trkpt lat="45.33765" lon="5.82142">
        <ele>989.3</ele>
        <time>2016-05-21T07:25:32Z</time>
      </trkpt>
      <trkpt lat="45.33762" lon="5.8216">
        <ele>988.8</ele>
        <time>2016-05-21T07:25:34Z</time>
      </trkpt>
      <trkpt lat="45.3376" lon="5.8217">
        <ele>988.6</ele>
        <time>2016-05-21T07:25:35Z</time>
      </trkpt>
      <trkpt lat="45.33759" lon="5.82181">
        <ele>987.8</ele>
        <time>2016-05-21T07:25:36Z</time>
      </trkpt>
      <trkpt lat="45.33756" lon="5.822">
        <ele>985.9</ele>
        <time>2016-05-21T07:25:38Z</time>
      </trkpt>
      <trkpt lat="45.33752" lon="5.8222">
        <ele>984.5</ele>
        <time>2016-05-21T07:25:40Z</time>
      </trkpt>
      <trkpt lat="45.33749" lon="5.8224">
        <ele>982.6</ele>
        <time>2016-05-21T07:25:42Z</time>
      </trkpt>
      <trkpt lat="45.33747" lon="5.82251">
        <ele>981.8</ele>
        <time>2016-05-21T07:25:43Z</time>
      </trkpt>
      <trkpt lat="45.33747" lon="5.82269">
        <ele>980.2</ele>
        <time>2016-05-21T07:25:45Z</time>
      </trkpt>
      <trkpt lat="45.33747" lon="5.82285">
        <ele>980.3</ele>
        <time>2016-05-21T07:25:47Z</time>
      </trkpt>
      <trkpt lat="45.3375" lon="5.82303">
        <ele>979.3</ele>
        <time>2016-05-21T07:25:49Z</time>
      </trkpt>
      <trkpt lat="45.33751" lon="5.82313">
        <ele>979.4</ele>
        <time>2016-05-21T07:25:50Z</time>
      </trkpt>
      <trkpt lat="45.33751" lon="5.82331">
        <ele>980.1</ele>
        <time>2016-05-21T07:25:52Z</time>
      </trkpt>
      <trkpt lat="45.3375" lon="5.82343">
        <ele>980.5</ele>
        <time>2016-05-21T07:25:53Z</time>
      </trkpt>
      <trkpt lat="45.3375" lon="5.82355">
        <ele>980.4</ele>
        <time>2016-05-21T07:25:54Z</time>
      </trkpt>
      <trkpt lat="45.3375" lon="5.82367">
        <ele>980.2</ele>
        <time>2016-05-21T07:25:55Z</time>
      </trkpt>
      <trkpt lat="45.33749" lon="5.82381">
        <ele>980.5</ele>
        <time>2016-05-21T07:25:56Z</time>
      </trkpt>
      <trkpt lat="45.33747" lon="5.82393">
        <ele>981.1</ele>
        <time>2016-05-21T07:25:57Z</time>
      </trkpt>
      <trkpt lat="45.33747" lon="5.82405">
        <ele>981.7</ele>
        <time>2016-05-21T07:25:58Z</time>
      </trkpt>
      <trkpt lat="45.33748" lon="5.82417">
        <ele>982.4</ele>
        <time>2016-05-21T07:25:59Z</time>
      </trkpt>
      <trkpt lat="45.33749" lon="5.82427">
        <ele>983.7</ele>
        <time>2016-05-21T07:26:00Z</time>
      </trkpt>
      <trkpt lat="45.33749" lon="5.82438">
        <ele>984.7</ele>
        <time>2016-05-21T07:26:01Z</time>
      </trkpt>
      <trkpt lat="45.3375" lon="5.82456">
        <ele>984.7</ele>
        <time>2016-05-21T07:26:03Z</time>
      </trkpt>
      <trkpt lat="45.33751" lon="5.82475">
        <ele>983.1</ele>
        <time>2016-05-21T07:26:05Z</time>
      </trkpt>
      <trkpt lat="45.3375" lon="5.82487">
        <ele>981.2</ele>
        <time>2016-05-21T07:26:07Z</time>
      </trkpt>
      <trkpt lat="45.33746" lon="5.82507">
        <ele>981.3</ele>
        <time>2016-05-21T07:26:09Z</time>
      </trkpt>
      <trkpt lat="45.33745" lon="5.82518">
        <ele>981.4</ele>
        <time>2016-05-21T07:26:10Z</time>
      </trkpt>
      <trkpt lat="45.33744" lon="5.82529">
        <ele>981.9</ele>
        <time>2016-05-21T07:26:11Z</time>
      </trkpt>
      <trkpt lat="45.33743" lon="5.8254">
        <ele>981.9</ele>
        <time>2016-05-21T07:26:12Z</time>
      </trkpt>
      <trkpt lat="45.33742" lon="5.8255">
        <ele>982</ele>
        <time>2016-05-21T07:26:13Z</time>
      </trkpt>
      <trkpt lat="45.3374" lon="5.82571">
        <ele>980.6</ele>
        <time>2016-05-21T07:26:15Z</time>
      </trkpt>
      <trkpt lat="45.3374" lon="5.82589">
        <ele>980.4</ele>
        <time>2016-05-21T07:26:17Z</time>
      </trkpt>
      <trkpt lat="45.3374" lon="5.82608">
        <ele>980.1</ele>
        <time>2016-05-21T07:26:19Z</time>
      </trkpt>
      <trkpt lat="45.33739" lon="5.82619">
        <ele>979.9</ele>
        <time>2016-05-21T07:26:20Z</time>
      </trkpt>
      <trkpt lat="45.33739" lon="5.82629">
        <ele>979.8</ele>
        <time>2016-05-21T07:26:21Z</time>
      </trkpt>
      <trkpt lat="45.33737" lon="5.82648">
        <ele>980.2</ele>
        <time>2016-05-21T07:26:23Z</time>
      </trkpt>
      <trkpt lat="45.33737" lon="5.82658">
        <ele>980</ele>
        <time>2016-05-21T07:26:24Z</time>
      </trkpt>
      <trkpt lat="45.33736" lon="5.82669">
        <ele>980</ele>
        <time>2016-05-21T07:26:25Z</time>
      </trkpt>
      <trkpt lat="45.33736" lon="5.82681">
        <ele>979.8</ele>
        <time>2016-05-21T07:26:26Z</time>
      </trkpt>
      <trkpt lat="45.33738" lon="5.82692">
        <ele>979.7</ele>
        <time>2016-05-21T07:26:27Z</time>
      </trkpt>
      <trkpt lat="45.33741" lon="5.82703">
        <ele>979.1</ele>
        <time>2016-05-21T07:26:28Z</time>
      </trkpt>
      <trkpt lat="45.33743" lon="5.82714">
        <ele>978.1</ele>
        <time>2016-05-21T07:26:29Z</time>
      </trkpt>
      <trkpt lat="45.33745" lon="5.82725">
        <ele>976.8</ele>
        <time>2016-05-21T07:26:30Z</time>
      </trkpt>
      <trkpt lat="45.33745" lon="5.82737">
        <ele>975.4</ele>
        <time>2016-05-21T07:26:31Z</time>
      </trkpt>
      <trkpt lat="45.33745" lon="5.82749">
        <ele>974.9</ele>
        <time>2016-05-21T07:26:32Z</time>
      </trkpt>
      <trkpt lat="45.33745" lon="5.82761">
        <ele>974.5</ele>
        <time>2016-05-21T07:26:33Z</time>
      </trkpt>
      <trkpt lat="45.33743" lon="5.82772">
        <ele>974.3</ele>
        <time>2016-05-21T07:26:34Z</time>
      </trkpt>
      <trkpt lat="45.33742" lon="5.82782">
        <ele>974</ele>
        <time>2016-05-21T07:26:35Z</time>
      </trkpt>
      <trkpt lat="45.3374" lon="5.82792">
        <ele>973.5</ele>
        <time>2016-05-21T07:26:36Z</time>
      </trkpt>
      <trkpt lat="45.33737" lon="5.82801">
        <ele>972.8</ele>
        <time>2016-05-21T07:26:37Z</time>
      </trkpt>
      <trkpt lat="45.33738" lon="5.8282">
        <ele>970.9</ele>
        <time>2016-05-21T07:26:39Z</time>
      </trkpt>
      <trkpt lat="45.33741" lon="5.82831">
        <ele>969.6</ele>
        <time>2016-05-21T07:26:40Z</time>
      </trkpt>
      <trkpt lat="45.33746" lon="5.8284">
        <ele>968.2</ele>
        <time>2016-05-21T07:26:41Z</time>
      </trkpt>
      <trkpt lat="45.33757" lon="5.82844">
        <ele>966.6</ele>
        <time>2016-05-21T07:26:43Z</time>
      </trkpt>
      <trkpt lat="45.33767" lon="5.82836">
        <ele>966</ele>
        <time>2016-05-21T07:26:45Z</time>
      </trkpt>
      <trkpt lat="45.33775" lon="5.82821">
        <ele>966.3</ele>
        <time>2016-05-21T07:26:47Z</time>
      </trkpt>
      <trkpt lat="45.33781" lon="5.82803">
        <ele>966.3</ele>
        <time>2016-05-21T07:26:49Z</time>
      </trkpt>
      <trkpt lat="45.33783" lon="5.82792">
        <ele>966.5</ele>
        <time>2016-05-21T07:26:50Z</time>
      </trkpt>
      <trkpt lat="45.33788" lon="5.82775">
        <ele>966.4</ele>
        <time>2016-05-21T07:26:52Z</time>
      </trkpt>
      <trkpt lat="45.33791" lon="5.82765">
        <ele>966.9</ele>
        <time>2016-05-21T07:26:53Z</time>
      </trkpt>
      <trkpt lat="45.33797" lon="5.82746">
        <ele>968.2</ele>
        <time>2016-05-21T07:26:55Z</time>
      </trkpt>
      <trkpt lat="45.338" lon="5.82728">
        <ele>969.3</ele>
        <time>2016-05-21T07:26:57Z</time>
      </trkpt>
      <trkpt lat="45.33802" lon="5.82718">
        <ele>969.8</ele>
        <time>2016-05-21T07:26:58Z</time>
      </trkpt>
      <trkpt lat="45.33805" lon="5.827">
        <ele>970.7</ele>
        <time>2016-05-21T07:27:00Z</time>
      </trkpt>
      <trkpt lat="45.33809" lon="5.82691">
        <ele>972.2</ele>
        <time>2016-05-21T07:27:01Z</time>
      </trkpt>
      <trkpt lat="45.33811" lon="5.82681">
        <ele>973</ele>
        <time>2016-05-21T07:27:02Z</time>
      </trkpt>
      <trkpt lat="45.33813" lon="5.82671">
        <ele>974.1</ele>
        <time>2016-05-21T07:27:03Z</time>
      </trkpt>
      <trkpt lat="45.33812" lon="5.82648">
        <ele>975.4</ele>
        <time>2016-05-21T07:27:05Z</time>
      </trkpt>
      <trkpt lat="45.33812" lon="5.82634">
        <ele>976.2</ele>
        <time>2016-05-21T07:27:06Z</time>
      </trkpt>
      <trkpt lat="45.33812" lon="5.82623">
        <ele>976.7</ele>
        <time>2016-05-21T07:27:07Z</time>
      </trkpt>
      <trkpt lat="45.33812" lon="5.82608">
        <ele>977.5</ele>
        <time>2016-05-21T07:27:08Z</time>
      </trkpt>
      <trkpt lat="45.33812" lon="5.82592">
        <ele>978.2</ele>
        <time>2016-05-21T07:27:09Z</time>
      </trkpt>
      <trkpt lat="45.33812" lon="5.82579">
        <ele>978.8</ele>
        <time>2016-05-21T07:27:10Z</time>
      </trkpt>
      <trkpt lat="45.33812" lon="5.82564">
        <ele>979.3</ele>
        <time>2016-05-21T07:27:11Z</time>
      </trkpt>
      <trkpt lat="45.33813" lon="5.82549">
        <ele>979.5</ele>
        <time>2016-05-21T07:27:12Z</time>
      </trkpt>
      <trkpt lat="45.33815" lon="5.82534">
        <ele>979.9</ele>
        <time>2016-05-21T07:27:13Z</time>
      </trkpt>
      <trkpt lat="45.33819" lon="5.8252">
        <ele>980.4</ele>
        <time>2016-05-21T07:27:14Z</time>
      </trkpt>
      <trkpt lat="45.33823" lon="5.82509">
        <ele>980.4</ele>
        <time>2016-05-21T07:27:15Z</time>
      </trkpt>
      <trkpt lat="45.33827" lon="5.82497">
        <ele>980.7</ele>
        <time>2016-05-21T07:27:16Z</time>
      </trkpt>
      <trkpt lat="45.33831" lon="5.82485">
        <ele>981.2</ele>
        <time>2016-05-21T07:27:17Z</time>
      </trkpt>
      <trkpt lat="45.33833" lon="5.82471">
        <ele>981.3</ele>
        <time>2016-05-21T07:27:18Z</time>
      </trkpt>
      <trkpt lat="45.33835" lon="5.82457">
        <ele>981.2</ele>
        <time>2016-05-21T07:27:19Z</time>
      </trkpt>
      <trkpt lat="45.33836" lon="5.82444">
        <ele>981.2</ele>
        <time>2016-05-21T07:27:20Z</time>
      </trkpt>
      <trkpt lat="45.33837" lon="5.82431">
        <ele>981.2</ele>
        <time>2016-05-21T07:27:21Z</time>
      </trkpt>
      <trkpt lat="45.33838" lon="5.82416">
        <ele>981.5</ele>
        <time>2016-05-21T07:27:22Z</time>
      </trkpt>
      <trkpt lat="45.33838" lon="5.82402">
        <ele>981.5</ele>
        <time>2016-05-21T07:27:23Z</time>
      </trkpt>
      <trkpt lat="45.33838" lon="5.82388">
        <ele>981.9</ele>
        <time>2016-05-21T07:27:24Z</time>
      </trkpt>
      <trkpt lat="45.33839" lon="5.82374">
        <ele>982.2</ele>
        <time>2016-05-21T07:27:25Z</time>
      </trkpt>
      <trkpt lat="45.33841" lon="5.82359">
        <ele>982.3</ele>
        <time>2016-05-21T07:27:26Z</time>
      </trkpt>
      <trkpt lat="45.33846" lon="5.82346">
        <ele>982.4</ele>
        <time>2016-05-21T07:27:27Z</time>
      </trkpt>
      <trkpt lat="45.33851" lon="5.82332">
        <ele>982.6</ele>
        <time>2016-05-21T07:27:28Z</time>
      </trkpt>
      <trkpt lat="45.33856" lon="5.82318">
        <ele>983.1</ele>
        <time>2016-05-21T07:27:29Z</time>
      </trkpt>
      <trkpt lat="45.33861" lon="5.82305">
        <ele>983.2</ele>
        <time>2016-05-21T07:27:30Z</time>
      </trkpt>
      <trkpt lat="45.33867" lon="5.82293">
        <ele>982.2</ele>
        <time>2016-05-21T07:27:31Z</time>
      </trkpt>
      <trkpt lat="45.33873" lon="5.8228">
        <ele>982.1</ele>
        <time>2016-05-21T07:27:32Z</time>
      </trkpt>
      <trkpt lat="45.3388" lon="5.82269">
        <ele>981.6</ele>
        <time>2016-05-21T07:27:33Z</time>
      </trkpt>
      <trkpt lat="45.33889" lon="5.82259">
        <ele>981</ele>
        <time>2016-05-21T07:27:34Z</time>
      </trkpt>
      <trkpt lat="45.33898" lon="5.8225">
        <ele>980.3</ele>
        <time>2016-05-21T07:27:35Z</time>
      </trkpt>
      <trkpt lat="45.33907" lon="5.82241">
        <ele>978.9</ele>
        <time>2016-05-21T07:27:36Z</time>
      </trkpt>
      <trkpt lat="45.33917" lon="5.82232">
        <ele>976.6</ele>
        <time>2016-05-21T07:27:37Z</time>
      </trkpt>
      <trkpt lat="45.33925" lon="5.82223">
        <ele>974.1</ele>
        <time>2016-05-21T07:27:38Z</time>
      </trkpt>
      <trkpt lat="45.33933" lon="5.8221">
        <ele>971.4</ele>
        <time>2016-05-21T07:27:39Z</time>
      </trkpt>
      <trkpt lat="45.3394" lon="5.82198">
        <ele>970</ele>
        <time>2016-05-21T07:27:40Z</time>
      </trkpt>
      <trkpt lat="45.33947" lon="5.82187">
        <ele>968.1</ele>
        <time>2016-05-21T07:27:41Z</time>
      </trkpt>
      <trkpt lat="45.33953" lon="5.82175">
        <ele>965.8</ele>
        <time>2016-05-21T07:27:42Z</time>
      </trkpt>
      <trkpt lat="45.33959" lon="5.82165">
        <ele>963.6</ele>
        <time>2016-05-21T07:27:43Z</time>
      </trkpt>
      <trkpt lat="45.33964" lon="5.82155">
        <ele>961.6</ele>
        <time>2016-05-21T07:27:44Z</time>
      </trkpt>
      <trkpt lat="45.3397" lon="5.82145">
        <ele>959.3</ele>
        <time>2016-05-21T07:27:45Z</time>
      </trkpt>
      <trkpt lat="45.33976" lon="5.82137">
        <ele>956.8</ele>
        <time>2016-05-21T07:27:46Z</time>
      </trkpt>
      <trkpt lat="45.33982" lon="5.82129">
        <ele>954.9</ele>
        <time>2016-05-21T07:27:47Z</time>
      </trkpt>
      <trkpt lat="45.33988" lon="5.8212">
        <ele>953.8</ele>
        <time>2016-05-21T07:27:48Z</time>
      </trkpt>
      <trkpt lat="45.33994" lon="5.82111">
        <ele>952.5</ele>
        <time>2016-05-21T07:27:49Z</time>
      </trkpt>
      <trkpt lat="45.33999" lon="5.82102">
        <ele>950.9</ele>
        <time>2016-05-21T07:27:50Z</time>
      </trkpt>
      <trkpt lat="45.34003" lon="5.82091">
        <ele>949.4</ele>
        <time>2016-05-21T07:27:51Z</time>
      </trkpt>
      <trkpt lat="45.34007" lon="5.82081">
        <ele>947.8</ele>
        <time>2016-05-21T07:27:52Z</time>
      </trkpt>
      <trkpt lat="45.34011" lon="5.82071">
        <ele>946.8</ele>
        <time>2016-05-21T07:27:53Z</time>
      </trkpt>
      <trkpt lat="45.34015" lon="5.82062">
        <ele>946.2</ele>
        <time>2016-05-21T07:27:54Z</time>
      </trkpt>
      <trkpt lat="45.34021" lon="5.82054">
        <ele>945.5</ele>
        <time>2016-05-21T07:27:55Z</time>
      </trkpt>
      <trkpt lat="45.34027" lon="5.82046">
        <ele>945.5</ele>
        <time>2016-05-21T07:27:56Z</time>
      </trkpt>
      <trkpt lat="45.34033" lon="5.82037">
        <ele>945.5</ele>
        <time>2016-05-21T07:27:57Z</time>
      </trkpt>
      <trkpt lat="45.34039" lon="5.8203">
        <ele>945.5</ele>
        <time>2016-05-21T07:27:58Z</time>
      </trkpt>
      <trkpt lat="45.34045" lon="5.82022">
        <ele>945.2</ele>
        <time>2016-05-21T07:27:59Z</time>
      </trkpt>
      <trkpt lat="45.34051" lon="5.82015">
        <ele>944.7</ele>
        <time>2016-05-21T07:28:00Z</time>
      </trkpt>
      <trkpt lat="45.34056" lon="5.82007">
        <ele>943.8</ele>
        <time>2016-05-21T07:28:01Z</time>
      </trkpt>
      <trkpt lat="45.34061" lon="5.81999">
        <ele>942.7</ele>
        <time>2016-05-21T07:28:02Z</time>
      </trkpt>
      <trkpt lat="45.34065" lon="5.81991">
        <ele>942</ele>
        <time>2016-05-21T07:28:03Z</time>
      </trkpt>
      <trkpt lat="45.3407" lon="5.81982">
        <ele>940.6</ele>
        <time>2016-05-21T07:28:04Z</time>
      </trkpt>
      <trkpt lat="45.34077" lon="5.81964">
        <ele>938.2</ele>
        <time>2016-05-21T07:28:06Z</time>
      </trkpt>
      <trkpt lat="45.34084" lon="5.81947">
        <ele>937.4</ele>
        <time>2016-05-21T07:28:08Z</time>
      </trkpt>
      <trkpt lat="45.3409" lon="5.81929">
        <ele>938.5</ele>
        <time>2016-05-21T07:28:10Z</time>
      </trkpt>
      <trkpt lat="45.34093" lon="5.8191">
        <ele>939.7</ele>
        <time>2016-05-21T07:28:12Z</time>
      </trkpt>
      <trkpt lat="45.34095" lon="5.81893">
        <ele>940.2</ele>
        <time>2016-05-21T07:28:14Z</time>
      </trkpt>
      <trkpt lat="45.34097" lon="5.81877">
        <ele>939</ele>
        <time>2016-05-21T07:28:16Z</time>
      </trkpt>
      <trkpt lat="45.34098" lon="5.81862">
        <ele>937.8</ele>
        <time>2016-05-21T07:28:18Z</time>
      </trkpt>
      <trkpt lat="45.34099" lon="5.81844">
        <ele>936.4</ele>
        <time>2016-05-21T07:28:20Z</time>
      </trkpt>
      <trkpt lat="45.341" lon="5.81834">
        <ele>935.9</ele>
        <time>2016-05-21T07:28:21Z</time>
      </trkpt>
      <trkpt lat="45.34101" lon="5.81823">
        <ele>935.7</ele>
        <time>2016-05-21T07:28:22Z</time>
      </trkpt>
      <trkpt lat="45.34102" lon="5.81808">
        <ele>936.1</ele>
        <time>2016-05-21T07:28:24Z</time>
      </trkpt>
      <trkpt lat="45.34105" lon="5.81795">
        <ele>936.2</ele>
        <time>2016-05-21T07:28:26Z</time>
      </trkpt>
      <trkpt lat="45.34108" lon="5.81783">
        <ele>936.8</ele>
        <time>2016-05-21T07:28:28Z</time>
      </trkpt>
      <trkpt lat="45.34113" lon="5.81771">
        <ele>937.7</ele>
        <time>2016-05-21T07:28:30Z</time>
      </trkpt>
      <trkpt lat="45.34118" lon="5.81757">
        <ele>937.7</ele>
        <time>2016-05-21T07:28:32Z</time>
      </trkpt>
      <trkpt lat="45.34122" lon="5.81742">
        <ele>938.9</ele>
        <time>2016-05-21T07:28:34Z</time>
      </trkpt>
      <trkpt lat="45.34127" lon="5.81727">
        <ele>940.3</ele>
        <time>2016-05-21T07:28:36Z</time>
      </trkpt>
      <trkpt lat="45.34133" lon="5.81713">
        <ele>941.5</ele>
        <time>2016-05-21T07:28:38Z</time>
      </trkpt>
      <trkpt lat="45.34138" lon="5.81698">
        <ele>942.8</ele>
        <time>2016-05-21T07:28:40Z</time>
      </trkpt>
      <trkpt lat="45.34143" lon="5.81683">
        <ele>943</ele>
        <time>2016-05-21T07:28:42Z</time>
      </trkpt>
      <trkpt lat="45.34148" lon="5.81668">
        <ele>942.6</ele>
        <time>2016-05-21T07:28:44Z</time>
      </trkpt>
      <trkpt lat="45.34151" lon="5.81652">
        <ele>942</ele>
        <time>2016-05-21T07:28:46Z</time>
      </trkpt>
      <trkpt lat="45.34156" lon="5.81638">
        <ele>941.3</ele>
        <time>2016-05-21T07:28:48Z</time>
      </trkpt>
      <trkpt lat="45.3416" lon="5.81624">
        <ele>940.4</ele>
        <time>2016-05-21T07:28:50Z</time>
      </trkpt>
      <trkpt lat="45.34164" lon="5.81614">
        <ele>939.4</ele>
        <time>2016-05-21T07:28:52Z</time>
      </trkpt>
      <trkpt lat="45.34168" lon="5.81603">
        <ele>938.8</ele>
        <time>2016-05-21T07:28:54Z</time>
      </trkpt>
      <trkpt lat="45.34174" lon="5.81594">
        <ele>938.1</ele>
        <time>2016-05-21T07:28:56Z</time>
      </trkpt>
      <trkpt lat="45.34182" lon="5.81588">
        <ele>937.4</ele>
        <time>2016-05-21T07:28:58Z</time>
      </trkpt>
      <trkpt lat="45.3419" lon="5.81586">
        <ele>938</ele>
        <time>2016-05-21T07:29:00Z</time>
      </trkpt>
      <trkpt lat="45.34198" lon="5.81586">
        <ele>939.3</ele>
        <time>2016-05-21T07:29:02Z</time>
      </trkpt>
      <trkpt lat="45.34207" lon="5.81586">
        <ele>940.4</ele>
        <time>2016-05-21T07:29:04Z</time>
      </trkpt>
      <trkpt lat="45.34215" lon="5.81584">
        <ele>940.8</ele>
        <time>2016-05-21T07:29:06Z</time>
      </trkpt>
      <trkpt lat="45.34223" lon="5.81582">
        <ele>940.7</ele>
        <time>2016-05-21T07:29:08Z</time>
      </trkpt>
      <trkpt lat="45.34231" lon="5.8158">
        <ele>940.7</ele>
        <time>2016-05-21T07:29:10Z</time>
      </trkpt>
      <trkpt lat="45.34241" lon="5.81576">
        <ele>940.9</ele>
        <time>2016-05-21T07:29:13Z</time>
      </trkpt>
      <trkpt lat="45.34248" lon="5.81573">
        <ele>941</ele>
        <time>2016-05-21T07:29:15Z</time>
      </trkpt>
      <trkpt lat="45.34258" lon="5.81569">
        <ele>941.2</ele>
        <time>2016-05-21T07:29:18Z</time>
      </trkpt>
      <trkpt lat="45.34268" lon="5.81566">
        <ele>942</ele>
        <time>2016-05-21T07:29:21Z</time>
      </trkpt>
      <trkpt lat="45.34275" lon="5.81564">
        <ele>941.9</ele>
        <time>2016-05-21T07:29:23Z</time>
      </trkpt>
      <trkpt lat="45.34286" lon="5.81561">
        <ele>941.9</ele>
        <time>2016-05-21T07:29:26Z</time>
      </trkpt>
      <trkpt lat="45.34294" lon="5.8156">
        <ele>941.5</ele>
        <time>2016-05-21T07:29:28Z</time>
      </trkpt>
      <trkpt lat="45.34301" lon="5.81559">
        <ele>941.5</ele>
        <time>2016-05-21T07:29:30Z</time>
      </trkpt>
      <trkpt lat="45.34309" lon="5.81558">
        <ele>941.6</ele>
        <time>2016-05-21T07:29:32Z</time>
      </trkpt>
      <trkpt lat="45.34317" lon="5.81558">
        <ele>941.5</ele>
        <time>2016-05-21T07:29:34Z</time>
      </trkpt>
      <trkpt lat="45.34325" lon="5.81558">
        <ele>941.2</ele>
        <time>2016-05-21T07:29:36Z</time>
      </trkpt>
      <trkpt lat="45.34334" lon="5.8156">
        <ele>940.1</ele>
        <time>2016-05-21T07:29:38Z</time>
      </trkpt>
      <trkpt lat="45.34342" lon="5.81561">
        <ele>940</ele>
        <time>2016-05-21T07:29:40Z</time>
      </trkpt>
      <trkpt lat="45.34351" lon="5.81564">
        <ele>940</ele>
        <time>2016-05-21T07:29:43Z</time>
      </trkpt>
      <trkpt lat="45.34358" lon="5.81568">
        <ele>940.5</ele>
        <time>2016-05-21T07:29:45Z</time>
      </trkpt>
      <trkpt lat="45.34366" lon="5.81572">
        <ele>940.7</ele>
        <time>2016-05-21T07:29:47Z</time>
      </trkpt>
      <trkpt lat="45.34373" lon="5.81581">
        <ele>941.2</ele>
        <time>2016-05-21T07:29:50Z</time>
      </trkpt>
      <trkpt lat="45.34381" lon="5.81589">
        <ele>942.6</ele>
        <time>2016-05-21T07:29:53Z</time>
      </trkpt>
      <trkpt lat="45.34388" lon="5.81598">
        <ele>942.3</ele>
        <time>2016-05-21T07:29:55Z</time>
      </trkpt>
      <trkpt lat="45.34394" lon="5.81606">
        <ele>942.1</ele>
        <time>2016-05-21T07:29:57Z</time>
      </trkpt>
      <trkpt lat="45.344" lon="5.81612">
        <ele>943</ele>
        <time>2016-05-21T07:29:59Z</time>
      </trkpt>
      <trkpt lat="45.34406" lon="5.81618">
        <ele>944.4</ele>
        <time>2016-05-21T07:30:01Z</time>
      </trkpt>
      <trkpt lat="45.34413" lon="5.81625">
        <ele>945.9</ele>
        <time>2016-05-21T07:30:03Z</time>
      </trkpt>
      <trkpt lat="45.34419" lon="5.81632">
        <ele>946</ele>
        <time>2016-05-21T07:30:05Z</time>
      </trkpt>
      <trkpt lat="45.34425" lon="5.81639">
        <ele>945.8</ele>
        <time>2016-05-21T07:30:07Z</time>
      </trkpt>
      <trkpt lat="45.34432" lon="5.81645">
        <ele>945.8</ele>
        <time>2016-05-21T07:30:09Z</time>
      </trkpt>
      <trkpt lat="45.34438" lon="5.81652">
        <ele>946.1</ele>
        <time>2016-05-21T07:30:11Z</time>
      </trkpt>
      <trkpt lat="45.34444" lon="5.8166">
        <ele>946.5</ele>
        <time>2016-05-21T07:30:13Z</time>
      </trkpt>
      <trkpt lat="45.34449" lon="5.81668">
        <ele>947.6</ele>
        <time>2016-05-21T07:30:15Z</time>
      </trkpt>
      <trkpt lat="45.34455" lon="5.81675">
        <ele>948.1</ele>
        <time>2016-05-21T07:30:17Z</time>
      </trkpt>
      <trkpt lat="45.34461" lon="5.81681">
        <ele>950</ele>
        <time>2016-05-21T07:30:19Z</time>
      </trkpt>
      <trkpt lat="45.34471" lon="5.81686">
        <ele>953</ele>
        <time>2016-05-21T07:30:22Z</time>
      </trkpt>
      <trkpt lat="45.34482" lon="5.81684">
        <ele>954.4</ele>
        <time>2016-05-21T07:30:25Z</time>
      </trkpt>
      <trkpt lat="45.34489" lon="5.81683">
        <ele>954.6</ele>
        <time>2016-05-21T07:30:27Z</time>
      </trkpt>
      <trkpt lat="45.34497" lon="5.81683">
        <ele>954.8</ele>
        <time>2016-05-21T07:30:29Z</time>
      </trkpt>
      <trkpt lat="45.34506" lon="5.81682">
        <ele>955.5</ele>
        <time>2016-05-21T07:30:31Z</time>
      </trkpt>
      <trkpt lat="45.34514" lon="5.81681">
        <ele>956.5</ele>
        <time>2016-05-21T07:30:33Z</time>
      </trkpt>
      <trkpt lat="45.34521" lon="5.8168">
        <ele>956.9</ele>
        <time>2016-05-21T07:30:35Z</time>
      </trkpt>
      <trkpt lat="45.3453" lon="5.81681">
        <ele>956.9</ele>
        <time>2016-05-21T07:30:37Z</time>
      </trkpt>
      <trkpt lat="45.34538" lon="5.81682">
        <ele>956.9</ele>
        <time>2016-05-21T07:30:39Z</time>
      </trkpt>
      <trkpt lat="45.34546" lon="5.81683">
        <ele>956.5</ele>
        <time>2016-05-21T07:30:41Z</time>
      </trkpt>
      <trkpt lat="45.34554" lon="5.81686">
        <ele>956.7</ele>
        <time>2016-05-21T07:30:43Z</time>
      </trkpt>
      <trkpt lat="45.34562" lon="5.81688">
        <ele>956.2</ele>
        <time>2016-05-21T07:30:45Z</time>
      </trkpt>
      <trkpt lat="45.3457" lon="5.81691">
        <ele>956</ele>
        <time>2016-05-21T07:30:47Z</time>
      </trkpt>
      <trkpt lat="45.34577" lon="5.81694">
        <ele>956.4</ele>
        <time>2016-05-21T07:30:49Z</time>
      </trkpt>
      <trkpt lat="45.34586" lon="5.81696">
        <ele>955.9</ele>
        <time>2016-05-21T07:30:51Z</time>
      </trkpt>
      <trkpt lat="45.34596" lon="5.81696">
        <ele>954.7</ele>
        <time>2016-05-21T07:30:53Z</time>
      </trkpt>
      <trkpt lat="45.34604" lon="5.81695">
        <ele>954.3</ele>
        <time>2016-05-21T07:30:55Z</time>
      </trkpt>
      <trkpt lat="45.34612" lon="5.81693">
        <ele>953.7</ele>
        <time>2016-05-21T07:30:57Z</time>
      </trkpt>
      <trkpt lat="45.34622" lon="5.81691">
        <ele>953.5</ele>
        <time>2016-05-21T07:31:00Z</time>
      </trkpt>
      <trkpt lat="45.3463" lon="5.81689">
        <ele>953.5</ele>
        <time>2016-05-21T07:31:02Z</time>
      </trkpt>
      <trkpt lat="45.34639" lon="5.81687">
        <ele>954.2</ele>
        <time>2016-05-21T07:31:04Z</time>
      </trkpt>
      <trkpt lat="45.34646" lon="5.81686">
        <ele>955.2</ele>
        <time>2016-05-21T07:31:06Z</time>
      </trkpt>
      <trkpt lat="45.34656" lon="5.81687">
        <ele>955.9</ele>
        <time>2016-05-21T07:31:08Z</time>
      </trkpt>
      <trkpt lat="45.34664" lon="5.81688">
        <ele>956.7</ele>
        <time>2016-05-21T07:31:10Z</time>
      </trkpt>
      <trkpt lat="45.34673" lon="5.81689">
        <ele>957.5</ele>
        <time>2016-05-21T07:31:12Z</time>
      </trkpt>
      <trkpt lat="45.34681" lon="5.81692">
        <ele>957.8</ele>
        <time>2016-05-21T07:31:14Z</time>
      </trkpt>
      <trkpt lat="45.34688" lon="5.81694">
        <ele>958.8</ele>
        <time>2016-05-21T07:31:16Z</time>
      </trkpt>
      <trkpt lat="45.34696" lon="5.81697">
        <ele>960</ele>
        <time>2016-05-21T07:31:18Z</time>
      </trkpt>
      <trkpt lat="45.34704" lon="5.81699">
        <ele>960.9</ele>
        <time>2016-05-21T07:31:20Z</time>
      </trkpt>
      <trkpt lat="45.34714" lon="5.81703">
        <ele>961.1</ele>
        <time>2016-05-21T07:31:23Z</time>
      </trkpt>
      <trkpt lat="45.34724" lon="5.81706">
        <ele>961.5</ele>
        <time>2016-05-21T07:31:26Z</time>
      </trkpt>
      <trkpt lat="45.34732" lon="5.81709">
        <ele>962</ele>
        <time>2016-05-21T07:31:29Z</time>
      </trkpt>
      <trkpt lat="45.34742" lon="5.81712">
        <ele>962.3</ele>
        <time>2016-05-21T07:31:32Z</time>
      </trkpt>
      <trkpt lat="45.34749" lon="5.81715">
        <ele>962.6</ele>
        <time>2016-05-21T07:31:34Z</time>
      </trkpt>
      <trkpt lat="45.34758" lon="5.8172">
        <ele>963</ele>
        <time>2016-05-21T07:31:37Z</time>
      </trkpt>
      <trkpt lat="45.34765" lon="5.81728">
        <ele>963.3</ele>
        <time>2016-05-21T07:31:40Z</time>
      </trkpt>
      <trkpt lat="45.34772" lon="5.81736">
        <ele>963.6</ele>
        <time>2016-05-21T07:31:43Z</time>
      </trkpt>
      <trkpt lat="45.3478" lon="5.81744">
        <ele>963.9</ele>
        <time>2016-05-21T07:31:46Z</time>
      </trkpt>
      <trkpt lat="45.34785" lon="5.81753">
        <ele>964.1</ele>
        <time>2016-05-21T07:31:49Z</time>
      </trkpt>
      <trkpt lat="45.34792" lon="5.81762">
        <ele>964.3</ele>
        <time>2016-05-21T07:31:52Z</time>
      </trkpt>
      <trkpt lat="45.34798" lon="5.81771">
        <ele>964.6</ele>
        <time>2016-05-21T07:31:55Z</time>
      </trkpt>
      <trkpt lat="45.34804" lon="5.8178">
        <ele>965</ele>
        <time>2016-05-21T07:31:58Z</time>
      </trkpt>
      <trkpt lat="45.3481" lon="5.81788">
        <ele>965.5</ele>
        <time>2016-05-21T07:32:01Z</time>
      </trkpt>
      <trkpt lat="45.34815" lon="5.81798">
        <ele>966</ele>
        <time>2016-05-21T07:32:04Z</time>
      </trkpt>
      <trkpt lat="45.3482" lon="5.81807">
        <ele>966.3</ele>
        <time>2016-05-21T07:32:07Z</time>
      </trkpt>
      <trkpt lat="45.34825" lon="5.81818">
        <ele>966.6</ele>
        <time>2016-05-21T07:32:10Z</time>
      </trkpt>
      <trkpt lat="45.34831" lon="5.81829">
        <ele>966.8</ele>
        <time>2016-05-21T07:32:13Z</time>
      </trkpt>
      <trkpt lat="45.34836" lon="5.81841">
        <ele>966.9</ele>
        <time>2016-05-21T07:32:16Z</time>
      </trkpt>
      <trkpt lat="45.3484" lon="5.8185">
        <ele>967</ele>
        <time>2016-05-21T07:32:19Z</time>
      </trkpt>
      <trkpt lat="45.34845" lon="5.81861">
        <ele>967.1</ele>
        <time>2016-05-21T07:32:22Z</time>
      </trkpt>
      <trkpt lat="45.3485" lon="5.81873">
        <ele>967.2</ele>
        <time>2016-05-21T07:32:25Z</time>
      </trkpt>
      <trkpt lat="45.34857" lon="5.81884">
        <ele>967.5</ele>
        <time>2016-05-21T07:32:28Z</time>
      </trkpt>
      <trkpt lat="45.34863" lon="5.81891">
        <ele>968.1</ele>
        <time>2016-05-21T07:32:31Z</time>
      </trkpt>
      <trkpt lat="45.34872" lon="5.81898">
        <ele>968.7</ele>
        <time>2016-05-21T07:32:34Z</time>
      </trkpt>
      <trkpt lat="45.3488" lon="5.81906">
        <ele>969.4</ele>
        <time>2016-05-21T07:32:37Z</time>
      </trkpt>
      <trkpt lat="45.34889" lon="5.81912">
        <ele>970.3</ele>
        <time>2016-05-21T07:32:40Z</time>
      </trkpt>
      <trkpt lat="45.34899" lon="5.81917">
        <ele>971</ele>
        <time>2016-05-21T07:32:43Z</time>
      </trkpt>
      <trkpt lat="45.3491" lon="5.8192">
        <ele>971.7</ele>
        <time>2016-05-21T07:32:46Z</time>
      </trkpt>
      <trkpt lat="45.34921" lon="5.81924">
        <ele>972.6</ele>
        <time>2016-05-21T07:32:49Z</time>
      </trkpt>
      <trkpt lat="45.34929" lon="5.81927">
        <ele>973.5</ele>
        <time>2016-05-21T07:32:52Z</time>
      </trkpt>
      <trkpt lat="45.34939" lon="5.8193">
        <ele>974.6</ele>
        <time>2016-05-21T07:32:55Z</time>
      </trkpt>
      <trkpt lat="45.34948" lon="5.81934">
        <ele>975.7</ele>
        <time>2016-05-21T07:32:58Z</time>
      </trkpt>
      <trkpt lat="45.34957" lon="5.81938">
        <ele>976.5</ele>
        <time>2016-05-21T07:33:01Z</time>
      </trkpt>
      <trkpt lat="45.34966" lon="5.81943">
        <ele>977.2</ele>
        <time>2016-05-21T07:33:04Z</time>
      </trkpt>
      <trkpt lat="45.34976" lon="5.81947">
        <ele>977.8</ele>
        <time>2016-05-21T07:33:07Z</time>
      </trkpt>
      <trkpt lat="45.34984" lon="5.8195">
        <ele>978.6</ele>
        <time>2016-05-21T07:33:10Z</time>
      </trkpt>
      <trkpt lat="45.34992" lon="5.81951">
        <ele>979.4</ele>
        <time>2016-05-21T07:33:13Z</time>
      </trkpt>
      <trkpt lat="45.35" lon="5.81952">
        <ele>980.2</ele>
        <time>2016-05-21T07:33:16Z</time>
      </trkpt>
      <trkpt lat="45.35009" lon="5.81957">
        <ele>981.2</ele>
        <time>2016-05-21T07:33:21Z</time>
      </trkpt>
      <trkpt lat="45.35016" lon="5.8196">
        <ele>981.8</ele>
        <time>2016-05-21T07:33:24Z</time>
      </trkpt>
      <trkpt lat="45.35024" lon="5.81962">
        <ele>982.5</ele>
        <time>2016-05-21T07:33:27Z</time>
      </trkpt>
      <trkpt lat="45.35033" lon="5.81964">
        <ele>983.3</ele>
        <time>2016-05-21T07:33:30Z</time>
      </trkpt>
      <trkpt lat="45.35041" lon="5.81964">
        <ele>983.9</ele>
        <time>2016-05-21T07:33:32Z</time>
      </trkpt>
      <trkpt lat="45.3505" lon="5.81963">
        <ele>984.6</ele>
        <time>2016-05-21T07:33:34Z</time>
      </trkpt>
      <trkpt lat="45.35059" lon="5.81961">
        <ele>985.2</ele>
        <time>2016-05-21T07:33:37Z</time>
      </trkpt>
      <trkpt lat="45.35066" lon="5.8196">
        <ele>985.7</ele>
        <time>2016-05-21T07:33:38Z</time>
      </trkpt>
      <trkpt lat="45.35076" lon="5.81962">
        <ele>986.4</ele>
        <time>2016-05-21T07:33:41Z</time>
      </trkpt>
      <trkpt lat="45.35084" lon="5.81966">
        <ele>987.1</ele>
        <time>2016-05-21T07:33:44Z</time>
      </trkpt>
      <trkpt lat="45.3509" lon="5.81974">
        <ele>987.8</ele>
        <time>2016-05-21T07:33:47Z</time>
      </trkpt>
      <trkpt lat="45.35094" lon="5.81983">
        <ele>988.6</ele>
        <time>2016-05-21T07:33:50Z</time>
      </trkpt>
      <trkpt lat="45.351" lon="5.81994">
        <ele>990</ele>
        <time>2016-05-21T07:33:55Z</time>
      </trkpt>
      <trkpt lat="45.35105" lon="5.82004">
        <ele>990.7</ele>
        <time>2016-05-21T07:33:58Z</time>
      </trkpt>
      <trkpt lat="45.35111" lon="5.82016">
        <ele>991.2</ele>
        <time>2016-05-21T07:34:01Z</time>
      </trkpt>
      <trkpt lat="45.35116" lon="5.82027">
        <ele>991.8</ele>
        <time>2016-05-21T07:34:04Z</time>
      </trkpt>
      <trkpt lat="45.3512" lon="5.82039">
        <ele>992.2</ele>
        <time>2016-05-21T07:34:07Z</time>
      </trkpt>
      <trkpt lat="45.35125" lon="5.82049">
        <ele>992.6</ele>
        <time>2016-05-21T07:34:10Z</time>
      </trkpt>
      <trkpt lat="45.3513" lon="5.8206">
        <ele>993.3</ele>
        <time>2016-05-21T07:34:14Z</time>
      </trkpt>
      <trkpt lat="45.35135" lon="5.8207">
        <ele>994</ele>
        <time>2016-05-21T07:34:18Z</time>
      </trkpt>
      <trkpt lat="45.35141" lon="5.82079">
        <ele>994.9</ele>
        <time>2016-05-21T07:34:22Z</time>
      </trkpt>
      <trkpt lat="45.35145" lon="5.82088">
        <ele>995.6</ele>
        <time>2016-05-21T07:34:25Z</time>
      </trkpt>
      <trkpt lat="45.3515" lon="5.821">
        <ele>996.3</ele>
        <time>2016-05-21T07:34:29Z</time>
      </trkpt>
      <trkpt lat="45.35157" lon="5.82108">
        <ele>997</ele>
        <time>2016-05-21T07:34:33Z</time>
      </trkpt>
      <trkpt lat="45.35163" lon="5.82116">
        <ele>997.8</ele>
        <time>2016-05-21T07:34:37Z</time>
      </trkpt>
      <trkpt lat="45.3517" lon="5.82125">
        <ele>998.6</ele>
        <time>2016-05-21T07:34:41Z</time>
      </trkpt>
      <trkpt lat="45.35176" lon="5.82131">
        <ele>998.8</ele>
        <time>2016-05-21T07:34:44Z</time>
      </trkpt>
      <trkpt lat="45.35183" lon="5.82138">
        <ele>999.2</ele>
        <time>2016-05-21T07:34:48Z</time>
      </trkpt>
      <trkpt lat="45.35188" lon="5.82145">
        <ele>999.8</ele>
        <time>2016-05-21T07:34:51Z</time>
      </trkpt>
      <trkpt lat="45.35194" lon="5.82153">
        <ele>1000.3</ele>
        <time>2016-05-21T07:34:54Z</time>
      </trkpt>
      <trkpt lat="45.352" lon="5.82161">
        <ele>1001.2</ele>
        <time>2016-05-21T07:34:58Z</time>
      </trkpt>
      <trkpt lat="45.35206" lon="5.8217">
        <ele>1002.1</ele>
        <time>2016-05-21T07:35:01Z</time>
      </trkpt>
      <trkpt lat="45.35212" lon="5.82179">
        <ele>1003.4</ele>
        <time>2016-05-21T07:35:05Z</time>
      </trkpt>
      <trkpt lat="45.35218" lon="5.82187">
        <ele>1004.7</ele>
        <time>2016-05-21T07:35:09Z</time>
      </trkpt>
      <trkpt lat="45.35226" lon="5.82193">
        <ele>1006.2</ele>
        <time>2016-05-21T07:35:13Z</time>
      </trkpt>
      <trkpt lat="45.35233" lon="5.82198">
        <ele>1007.6</ele>
        <time>2016-05-21T07:35:17Z</time>
      </trkpt>
      <trkpt lat="45.35242" lon="5.82204">
        <ele>1009.5</ele>
        <time>2016-05-21T07:35:21Z</time>
      </trkpt>
      <trkpt lat="45.35249" lon="5.82211">
        <ele>1010.7</ele>
        <time>2016-05-21T07:35:24Z</time>
      </trkpt>
      <trkpt lat="45.35255" lon="5.82216">
        <ele>1012</ele>
        <time>2016-05-21T07:35:27Z</time>
      </trkpt>
      <trkpt lat="45.35262" lon="5.82224">
        <ele>1013.8</ele>
        <time>2016-05-21T07:35:31Z</time>
      </trkpt>
      <trkpt lat="45.35268" lon="5.82231">
        <ele>1015.3</ele>
        <time>2016-05-21T07:35:34Z</time>
      </trkpt>
      <trkpt lat="45.35273" lon="5.82237">
        <ele>1016.7</ele>
        <time>2016-05-21T07:35:37Z</time>
      </trkpt>
      <trkpt lat="45.35281" lon="5.82243">
        <ele>1018.6</ele>
        <time>2016-05-21T07:35:41Z</time>
      </trkpt>
      <trkpt lat="45.35291" lon="5.82245">
        <ele>1020.8</ele>
        <time>2016-05-21T07:35:45Z</time>
      </trkpt>
      <trkpt lat="45.35298" lon="5.82247">
        <ele>1022.3</ele>
        <time>2016-05-21T07:35:48Z</time>
      </trkpt>
      <trkpt lat="45.35305" lon="5.82251">
        <ele>1023.8</ele>
        <time>2016-05-21T07:35:51Z</time>
      </trkpt>
      <trkpt lat="45.35314" lon="5.82255">
        <ele>1025.3</ele>
        <time>2016-05-21T07:35:55Z</time>
      </trkpt>
      <trkpt lat="45.35322" lon="5.82256">
        <ele>1026.5</ele>
        <time>2016-05-21T07:35:58Z</time>
      </trkpt>
      <trkpt lat="45.35331" lon="5.82256">
        <ele>1027.6</ele>
        <time>2016-05-21T07:36:01Z</time>
      </trkpt>
      <trkpt lat="45.35339" lon="5.82257">
        <ele>1028.4</ele>
        <time>2016-05-21T07:36:04Z</time>
      </trkpt>
      <trkpt lat="45.35347" lon="5.82259">
        <ele>1029.2</ele>
        <time>2016-05-21T07:36:07Z</time>
      </trkpt>
      <trkpt lat="45.35354" lon="5.82262">
        <ele>1030</ele>
        <time>2016-05-21T07:36:10Z</time>
      </trkpt>
      <trkpt lat="45.35361" lon="5.82268">
        <ele>1031</ele>
        <time>2016-05-21T07:36:13Z</time>
      </trkpt>
      <trkpt lat="45.35367" lon="5.82275">
        <ele>1031.9</ele>
        <time>2016-05-21T07:36:16Z</time>
      </trkpt>
      <trkpt lat="45.35373" lon="5.82283">
        <ele>1033.1</ele>
        <time>2016-05-21T07:36:20Z</time>
      </trkpt>
      <trkpt lat="45.3538" lon="5.82291">
        <ele>1033.9</ele>
        <time>2016-05-21T07:36:24Z</time>
      </trkpt>
      <trkpt lat="45.35386" lon="5.82298">
        <ele>1034.3</ele>
        <time>2016-05-21T07:36:27Z</time>
      </trkpt>
      <trkpt lat="45.35391" lon="5.82306">
        <ele>1034.6</ele>
        <time>2016-05-21T07:36:30Z</time>
      </trkpt>
      <trkpt lat="45.35398" lon="5.82313">
        <ele>1035.6</ele>
        <time>2016-05-21T07:36:35Z</time>
      </trkpt>
      <trkpt lat="45.35402" lon="5.82322">
        <ele>1036.5</ele>
        <time>2016-05-21T07:36:40Z</time>
      </trkpt>
      <trkpt lat="45.35409" lon="5.82332">
        <ele>1037.6</ele>
        <time>2016-05-21T07:36:45Z</time>
      </trkpt>
      <trkpt lat="45.35414" lon="5.82339">
        <ele>1038.1</ele>
        <time>2016-05-21T07:36:48Z</time>
      </trkpt>
      <trkpt lat="45.35418" lon="5.82347">
        <ele>1038.5</ele>
        <time>2016-05-21T07:36:51Z</time>
      </trkpt>
      <trkpt lat="45.35423" lon="5.82356">
        <ele>1038.8</ele>
        <time>2016-05-21T07:36:54Z</time>
      </trkpt>
      <trkpt lat="45.35429" lon="5.82363">
        <ele>1039.2</ele>
        <time>2016-05-21T07:36:57Z</time>
      </trkpt>
      <trkpt lat="45.35434" lon="5.82371">
        <ele>1039.5</ele>
        <time>2016-05-21T07:37:00Z</time>
      </trkpt>
      <trkpt lat="45.35442" lon="5.82378">
        <ele>1039.8</ele>
        <time>2016-05-21T07:37:04Z</time>
      </trkpt>
      <trkpt lat="45.35448" lon="5.82384">
        <ele>1040.4</ele>
        <time>2016-05-21T07:37:07Z</time>
      </trkpt>
      <trkpt lat="45.35454" lon="5.8239">
        <ele>1040.9</ele>
        <time>2016-05-21T07:37:10Z</time>
      </trkpt>
      <trkpt lat="45.35461" lon="5.82397">
        <ele>1041.5</ele>
        <time>2016-05-21T07:37:14Z</time>
      </trkpt>
      <trkpt lat="45.35468" lon="5.82406">
        <ele>1042.3</ele>
        <time>2016-05-21T07:37:18Z</time>
      </trkpt>
      <trkpt lat="45.35474" lon="5.82412">
        <ele>1043.3</ele>
        <time>2016-05-21T07:37:22Z</time>
      </trkpt>
      <trkpt lat="45.35481" lon="5.82421">
        <ele>1044.9</ele>
        <time>2016-05-21T07:37:27Z</time>
      </trkpt>
      <trkpt lat="45.35487" lon="5.82428">
        <ele>1046.1</ele>
        <time>2016-05-21T07:37:30Z</time>
      </trkpt>
      <trkpt lat="45.35495" lon="5.82433">
        <ele>1048</ele>
        <time>2016-05-21T07:37:35Z</time>
      </trkpt>
      <trkpt lat="45.35502" lon="5.8244">
        <ele>1049.3</ele>
        <time>2016-05-21T07:37:38Z</time>
      </trkpt>
      <trkpt lat="45.35507" lon="5.82446">
        <ele>1050.3</ele>
        <time>2016-05-21T07:37:41Z</time>
      </trkpt>
      <trkpt lat="45.35513" lon="5.82451">
        <ele>1051.4</ele>
        <time>2016-05-21T07:37:44Z</time>
      </trkpt>
      <trkpt lat="45.3552" lon="5.82458">
        <ele>1052.9</ele>
        <time>2016-05-21T07:37:48Z</time>
      </trkpt>
      <trkpt lat="45.35526" lon="5.82463">
        <ele>1054.5</ele>
        <time>2016-05-21T07:37:52Z</time>
      </trkpt>
      <trkpt lat="45.35534" lon="5.82469">
        <ele>1056.1</ele>
        <time>2016-05-21T07:37:56Z</time>
      </trkpt>
      <trkpt lat="45.35542" lon="5.82476">
        <ele>1057.4</ele>
        <time>2016-05-21T07:37:59Z</time>
      </trkpt>
      <trkpt lat="45.3555" lon="5.82482">
        <ele>1058.7</ele>
        <time>2016-05-21T07:38:02Z</time>
      </trkpt>
      <trkpt lat="45.35558" lon="5.82485">
        <ele>1060</ele>
        <time>2016-05-21T07:38:05Z</time>
      </trkpt>
      <trkpt lat="45.35565" lon="5.82491">
        <ele>1061.3</ele>
        <time>2016-05-21T07:38:08Z</time>
      </trkpt>
      <trkpt lat="45.35573" lon="5.82498">
        <ele>1062.3</ele>
        <time>2016-05-21T07:38:11Z</time>
      </trkpt>
      <trkpt lat="45.35581" lon="5.82501">
        <ele>1063.2</ele>
        <time>2016-05-21T07:38:14Z</time>
      </trkpt>
      <trkpt lat="45.35589" lon="5.82506">
        <ele>1064</ele>
        <time>2016-05-21T07:38:17Z</time>
      </trkpt>
      <trkpt lat="45.35597" lon="5.82514">
        <ele>1064.5</ele>
        <time>2016-05-21T07:38:20Z</time>
      </trkpt>
      <trkpt lat="45.35604" lon="5.8252">
        <ele>1064.9</ele>
        <time>2016-05-21T07:38:23Z</time>
      </trkpt>
      <trkpt lat="45.3561" lon="5.82528">
        <ele>1065.2</ele>
        <time>2016-05-21T07:38:26Z</time>
      </trkpt>
      <trkpt lat="45.35618" lon="5.82533">
        <ele>1065.6</ele>
        <time>2016-05-21T07:38:29Z</time>
      </trkpt>
      <trkpt lat="45.35624" lon="5.82538">
        <ele>1066.2</ele>
        <time>2016-05-21T07:38:32Z</time>
      </trkpt>
      <trkpt lat="45.35631" lon="5.82544">
        <ele>1066.8</ele>
        <time>2016-05-21T07:38:35Z</time>
      </trkpt>
      <trkpt lat="45.35638" lon="5.82549">
        <ele>1067.3</ele>
        <time>2016-05-21T07:38:38Z</time>
      </trkpt>
      <trkpt lat="45.35646" lon="5.82553">
        <ele>1067.7</ele>
        <time>2016-05-21T07:38:41Z</time>
      </trkpt>
      <trkpt lat="45.35653" lon="5.82557">
        <ele>1067.7</ele>
        <time>2016-05-21T07:38:44Z</time>
      </trkpt>
      <trkpt lat="45.35661" lon="5.82559">
        <ele>1067.6</ele>
        <time>2016-05-21T07:38:47Z</time>
      </trkpt>
      <trkpt lat="45.35669" lon="5.8256">
        <ele>1067.6</ele>
        <time>2016-05-21T07:38:50Z</time>
      </trkpt>
      <trkpt lat="45.35677" lon="5.82559">
        <ele>1067.8</ele>
        <time>2016-05-21T07:38:53Z</time>
      </trkpt>
      <trkpt lat="45.35685" lon="5.8256">
        <ele>1068.1</ele>
        <time>2016-05-21T07:38:56Z</time>
      </trkpt>
      <trkpt lat="45.35692" lon="5.82567">
        <ele>1068.2</ele>
        <time>2016-05-21T07:38:59Z</time>
      </trkpt>
      <trkpt lat="45.35694" lon="5.82579">
        <ele>1068.2</ele>
        <time>2016-05-21T07:39:02Z</time>
      </trkpt>
      <trkpt lat="45.35694" lon="5.8259">
        <ele>1068.3</ele>
        <time>2016-05-21T07:39:05Z</time>
      </trkpt>
      <trkpt lat="45.35694" lon="5.82602">
        <ele>1068.7</ele>
        <time>2016-05-21T07:39:09Z</time>
      </trkpt>
      <trkpt lat="45.35694" lon="5.82615">
        <ele>1069.4</ele>
        <time>2016-05-21T07:39:13Z</time>
      </trkpt>
      <trkpt lat="45.35697" lon="5.82627">
        <ele>1070.2</ele>
        <time>2016-05-21T07:39:17Z</time>
      </trkpt>
      <trkpt lat="45.35701" lon="5.82636">
        <ele>1070.7</ele>
        <time>2016-05-21T07:39:20Z</time>
      </trkpt>
      <trkpt lat="45.35708" lon="5.82645">
        <ele>1071.4</ele>
        <time>2016-05-21T07:39:24Z</time>
      </trkpt>
      <trkpt lat="45.35715" lon="5.82654">
        <ele>1072.2</ele>
        <time>2016-05-21T07:39:28Z</time>
      </trkpt>
      <trkpt lat="45.35721" lon="5.8266">
        <ele>1073.2</ele>
        <time>2016-05-21T07:39:32Z</time>
      </trkpt>
      <trkpt lat="45.35726" lon="5.8267">
        <ele>1074.5</ele>
        <time>2016-05-21T07:39:36Z</time>
      </trkpt>
      <trkpt lat="45.35732" lon="5.82679">
        <ele>1075.8</ele>
        <time>2016-05-21T07:39:40Z</time>
      </trkpt>
      <trkpt lat="45.35737" lon="5.82689">
        <ele>1076.9</ele>
        <time>2016-05-21T07:39:44Z</time>
      </trkpt>
      <trkpt lat="45.35743" lon="5.82698">
        <ele>1077.7</ele>
        <time>2016-05-21T07:39:48Z</time>
      </trkpt>
      <trkpt lat="45.3575" lon="5.82708">
        <ele>1078.7</ele>
        <time>2016-05-21T07:39:52Z</time>
      </trkpt>
      <trkpt lat="45.35755" lon="5.82719">
        <ele>1079.8</ele>
        <time>2016-05-21T07:39:56Z</time>
      </trkpt>
      <trkpt lat="45.35759" lon="5.8273">
        <ele>1081</ele>
        <time>2016-05-21T07:40:00Z</time>
      </trkpt>
      <trkpt lat="45.35763" lon="5.8274">
        <ele>1082.3</ele>
        <time>2016-05-21T07:40:04Z</time>
      </trkpt>
      <trkpt lat="45.35768" lon="5.8275">
        <ele>1083.8</ele>
        <time>2016-05-21T07:40:08Z</time>
      </trkpt>
      <trkpt lat="45.3577" lon="5.82759">
        <ele>1085.3</ele>
        <time>2016-05-21T07:40:12Z</time>
      </trkpt>
      <trkpt lat="45.35772" lon="5.8277">
        <ele>1086.9</ele>
        <time>2016-05-21T07:40:16Z</time>
      </trkpt>
      <trkpt lat="45.35775" lon="5.82782">
        <ele>1088.6</ele>
        <time>2016-05-21T07:40:20Z</time>
      </trkpt>
      <trkpt lat="45.35778" lon="5.82792">
        <ele>1089.8</ele>
        <time>2016-05-21T07:40:24Z</time>
      </trkpt>
      <trkpt lat="45.35779" lon="5.82803">
        <ele>1090.8</ele>
        <time>2016-05-21T07:40:27Z</time>
      </trkpt>
      <trkpt lat="45.35781" lon="5.82813">
        <ele>1091.5</ele>
        <time>2016-05-21T07:40:30Z</time>
      </trkpt>
      <trkpt lat="45.35784" lon="5.82823">
        <ele>1092.3</ele>
        <time>2016-05-21T07:40:33Z</time>
      </trkpt>
      <trkpt lat="45.35786" lon="5.82835">
        <ele>1093.3</ele>
        <time>2016-05-21T07:40:37Z</time>
      </trkpt>
      <trkpt lat="45.35787" lon="5.82848">
        <ele>1094.3</ele>
        <time>2016-05-21T07:40:41Z</time>
      </trkpt>
      <trkpt lat="45.3579" lon="5.82861">
        <ele>1095.8</ele>
        <time>2016-05-21T07:40:45Z</time>
      </trkpt>
      <trkpt lat="45.35793" lon="5.82873">
        <ele>1097</ele>
        <time>2016-05-21T07:40:49Z</time>
      </trkpt>
      <trkpt lat="45.35796" lon="5.82884">
        <ele>1098.1</ele>
        <time>2016-05-21T07:40:53Z</time>
      </trkpt>
      <trkpt lat="45.358" lon="5.82895">
        <ele>1098.9</ele>
        <time>2016-05-21T07:40:56Z</time>
      </trkpt>
      <trkpt lat="45.35805" lon="5.82906">
        <ele>1099.9</ele>
        <time>2016-05-21T07:41:00Z</time>
      </trkpt>
      <trkpt lat="45.35809" lon="5.82917">
        <ele>1101.1</ele>
        <time>2016-05-21T07:41:04Z</time>
      </trkpt>
      <trkpt lat="45.35813" lon="5.82928">
        <ele>1102.2</ele>
        <time>2016-05-21T07:41:08Z</time>
      </trkpt>
      <trkpt lat="45.35819" lon="5.82936">
        <ele>1103.2</ele>
        <time>2016-05-21T07:41:12Z</time>
      </trkpt>
      <trkpt lat="45.35824" lon="5.82944">
        <ele>1104.2</ele>
        <time>2016-05-21T07:41:16Z</time>
      </trkpt>
      <trkpt lat="45.3583" lon="5.82954">
        <ele>1105.5</ele>
        <time>2016-05-21T07:41:20Z</time>
      </trkpt>
      <trkpt lat="45.35835" lon="5.82961">
        <ele>1106.6</ele>
        <time>2016-05-21T07:41:23Z</time>
      </trkpt>
      <trkpt lat="45.35842" lon="5.82971">
        <ele>1107.8</ele>
        <time>2016-05-21T07:41:27Z</time>
      </trkpt>
      <trkpt lat="45.35848" lon="5.82978">
        <ele>1109.6</ele>
        <time>2016-05-21T07:41:31Z</time>
      </trkpt>
      <trkpt lat="45.35853" lon="5.82987">
        <ele>1111.2</ele>
        <time>2016-05-21T07:41:35Z</time>
      </trkpt>
      <trkpt lat="45.35858" lon="5.82995">
        <ele>1112.1</ele>
        <time>2016-05-21T07:41:38Z</time>
      </trkpt>
      <trkpt lat="45.35864" lon="5.83002">
        <ele>1112.8</ele>
        <time>2016-05-21T07:41:41Z</time>
      </trkpt>
      <trkpt lat="45.35871" lon="5.83006">
        <ele>1113.5</ele>
        <time>2016-05-21T07:41:44Z</time>
      </trkpt>
      <trkpt lat="45.35879" lon="5.83008">
        <ele>1114</ele>
        <time>2016-05-21T07:41:48Z</time>
      </trkpt>
      <trkpt lat="45.35887" lon="5.83006">
        <ele>1114.9</ele>
        <time>2016-05-21T07:41:52Z</time>
      </trkpt>
      <trkpt lat="45.35895" lon="5.83">
        <ele>1116.4</ele>
        <time>2016-05-21T07:41:56Z</time>
      </trkpt>
      <trkpt lat="45.35902" lon="5.82996">
        <ele>1117.4</ele>
        <time>2016-05-21T07:41:59Z</time>
      </trkpt>
      <trkpt lat="45.3591" lon="5.82991">
        <ele>1118.6</ele>
        <time>2016-05-21T07:42:03Z</time>
      </trkpt>
      <trkpt lat="45.35918" lon="5.82987">
        <ele>1119.6</ele>
        <time>2016-05-21T07:42:07Z</time>
      </trkpt>
      <trkpt lat="45.35925" lon="5.82986">
        <ele>1120.4</ele>
        <time>2016-05-21T07:42:10Z</time>
      </trkpt>
      <trkpt lat="45.35933" lon="5.82986">
        <ele>1121.2</ele>
        <time>2016-05-21T07:42:13Z</time>
      </trkpt>
      <trkpt lat="45.35942" lon="5.82987">
        <ele>1122.3</ele>
        <time>2016-05-21T07:42:17Z</time>
      </trkpt>
      <trkpt lat="45.3595" lon="5.82988">
        <ele>1123.6</ele>
        <time>2016-05-21T07:42:21Z</time>
      </trkpt>
      <trkpt lat="45.35957" lon="5.82986">
        <ele>1124.7</ele>
        <time>2016-05-21T07:42:25Z</time>
      </trkpt>
      <trkpt lat="45.35964" lon="5.82984">
        <ele>1125.7</ele>
        <time>2016-05-21T07:42:28Z</time>
      </trkpt>
      <trkpt lat="45.35971" lon="5.82983">
        <ele>1126.5</ele>
        <time>2016-05-21T07:42:31Z</time>
      </trkpt>
      <trkpt lat="45.35979" lon="5.82984">
        <ele>1127.4</ele>
        <time>2016-05-21T07:42:34Z</time>
      </trkpt>
      <trkpt lat="45.35989" lon="5.82984">
        <ele>1128.2</ele>
        <time>2016-05-21T07:42:38Z</time>
      </trkpt>
      <trkpt lat="45.35998" lon="5.82984">
        <ele>1128.9</ele>
        <time>2016-05-21T07:42:41Z</time>
      </trkpt>
      <trkpt lat="45.36006" lon="5.82986">
        <ele>1129.5</ele>
        <time>2016-05-21T07:42:44Z</time>
      </trkpt>
      <trkpt lat="45.36014" lon="5.82987">
        <ele>1130.1</ele>
        <time>2016-05-21T07:42:48Z</time>
      </trkpt>
      <trkpt lat="45.36021" lon="5.82992">
        <ele>1131.4</ele>
        <time>2016-05-21T07:42:53Z</time>
      </trkpt>
      <trkpt lat="45.36028" lon="5.82994">
        <ele>1132.8</ele>
        <time>2016-05-21T07:42:57Z</time>
      </trkpt>
      <trkpt lat="45.36036" lon="5.82995">
        <ele>1134.6</ele>
        <time>2016-05-21T07:43:01Z</time>
      </trkpt>
      <trkpt lat="45.36045" lon="5.82995">
        <ele>1136.6</ele>
        <time>2016-05-21T07:43:05Z</time>
      </trkpt>
      <trkpt lat="45.36052" lon="5.82995">
        <ele>1139</ele>
        <time>2016-05-21T07:43:09Z</time>
      </trkpt>
      <trkpt lat="45.3606" lon="5.82994">
        <ele>1141.3</ele>
        <time>2016-05-21T07:43:13Z</time>
      </trkpt>
      <trkpt lat="45.36069" lon="5.82993">
        <ele>1143.3</ele>
        <time>2016-05-21T07:43:17Z</time>
      </trkpt>
      <trkpt lat="45.36077" lon="5.82992">
        <ele>1144.7</ele>
        <time>2016-05-21T07:43:20Z</time>
      </trkpt>
      <trkpt lat="45.36085" lon="5.82989">
        <ele>1146.1</ele>
        <time>2016-05-21T07:43:23Z</time>
      </trkpt>
      <trkpt lat="45.36094" lon="5.82989">
        <ele>1148</ele>
        <time>2016-05-21T07:43:27Z</time>
      </trkpt>
      <trkpt lat="45.36104" lon="5.82992">
        <ele>1149.9</ele>
        <time>2016-05-21T07:43:31Z</time>
      </trkpt>
      <trkpt lat="45.36111" lon="5.82995">
        <ele>1151.9</ele>
        <time>2016-05-21T07:43:35Z</time>
      </trkpt>
      <trkpt lat="45.36117" lon="5.83001">
        <ele>1153.5</ele>
        <time>2016-05-21T07:43:38Z</time>
      </trkpt>
      <trkpt lat="45.36124" lon="5.83007">
        <ele>1155.1</ele>
        <time>2016-05-21T07:43:41Z</time>
      </trkpt>
      <trkpt lat="45.36131" lon="5.83011">
        <ele>1156.8</ele>
        <time>2016-05-21T07:43:44Z</time>
      </trkpt>
      <trkpt lat="45.3614" lon="5.83016">
        <ele>1158.7</ele>
        <time>2016-05-21T07:43:48Z</time>
      </trkpt>
      <trkpt lat="45.36149" lon="5.83017">
        <ele>1160.9</ele>
        <time>2016-05-21T07:43:52Z</time>
      </trkpt>
      <trkpt lat="45.3616" lon="5.83016">
        <ele>1162</ele>
        <time>2016-05-21T07:43:55Z</time>
      </trkpt>
      <trkpt lat="45.36167" lon="5.83015">
        <ele>1162.5</ele>
        <time>2016-05-21T07:43:57Z</time>
      </trkpt>
      <trkpt lat="45.36174" lon="5.83014">
        <ele>1162.9</ele>
        <time>2016-05-21T07:43:59Z</time>
      </trkpt>
      <trkpt lat="45.36182" lon="5.83014">
        <ele>1163.2</ele>
        <time>2016-05-21T07:44:01Z</time>
      </trkpt>
      <trkpt lat="45.3619" lon="5.83014">
        <ele>1163.9</ele>
        <time>2016-05-21T07:44:04Z</time>
      </trkpt>
      <trkpt lat="45.36197" lon="5.83018">
        <ele>1164.7</ele>
        <time>2016-05-21T07:44:07Z</time>
      </trkpt>
      <trkpt lat="45.36204" lon="5.83026">
        <ele>1165.2</ele>
        <time>2016-05-21T07:44:10Z</time>
      </trkpt>
      <trkpt lat="45.36211" lon="5.83034">
        <ele>1165.4</ele>
        <time>2016-05-21T07:44:13Z</time>
      </trkpt>
      <trkpt lat="45.36216" lon="5.83042">
        <ele>1165.6</ele>
        <time>2016-05-21T07:44:16Z</time>
      </trkpt>
      <trkpt lat="45.36223" lon="5.83051">
        <ele>1165.9</ele>
        <time>2016-05-21T07:44:19Z</time>
      </trkpt>
      <trkpt lat="45.36231" lon="5.83057">
        <ele>1165.9</ele>
        <time>2016-05-21T07:44:22Z</time>
      </trkpt>
      <trkpt lat="45.36238" lon="5.83065">
        <ele>1166</ele>
        <time>2016-05-21T07:44:25Z</time>
      </trkpt>
      <trkpt lat="45.36245" lon="5.83073">
        <ele>1166</ele>
        <time>2016-05-21T07:44:28Z</time>
      </trkpt>
      <trkpt lat="45.36251" lon="5.83081">
        <ele>1166</ele>
        <time>2016-05-21T07:44:31Z</time>
      </trkpt>
      <trkpt lat="45.36258" lon="5.8309">
        <ele>1166.1</ele>
        <time>2016-05-21T07:44:34Z</time>
      </trkpt>
      <trkpt lat="45.36264" lon="5.83097">
        <ele>1166.3</ele>
        <time>2016-05-21T07:44:37Z</time>
      </trkpt>
      <trkpt lat="45.36271" lon="5.83105">
        <ele>1166.6</ele>
        <time>2016-05-21T07:44:40Z</time>
      </trkpt>
      <trkpt lat="45.36277" lon="5.83112">
        <ele>1167.1</ele>
        <time>2016-05-21T07:44:43Z</time>
      </trkpt>
      <trkpt lat="45.36284" lon="5.83119">
        <ele>1167.6</ele>
        <time>2016-05-21T07:44:46Z</time>
      </trkpt>
      <trkpt lat="45.36291" lon="5.83127">
        <ele>1168.1</ele>
        <time>2016-05-21T07:44:49Z</time>
      </trkpt>
      <trkpt lat="45.36298" lon="5.83135">
        <ele>1168.8</ele>
        <time>2016-05-21T07:44:52Z</time>
      </trkpt>
      <trkpt lat="45.36306" lon="5.83143">
        <ele>1169.4</ele>
        <time>2016-05-21T07:44:55Z</time>
      </trkpt>
      <trkpt lat="45.36314" lon="5.83152">
        <ele>1169.9</ele>
        <time>2016-05-21T07:44:58Z</time>
      </trkpt>
      <trkpt lat="45.36319" lon="5.83159">
        <ele>1170.5</ele>
        <time>2016-05-21T07:45:01Z</time>
      </trkpt>
      <trkpt lat="45.36326" lon="5.83166">
        <ele>1171.3</ele>
        <time>2016-05-21T07:45:04Z</time>
      </trkpt>
      <trkpt lat="45.36333" lon="5.83172">
        <ele>1171.9</ele>
        <time>2016-05-21T07:45:07Z</time>
      </trkpt>
      <trkpt lat="45.36341" lon="5.83177">
        <ele>1172.4</ele>
        <time>2016-05-21T07:45:10Z</time>
      </trkpt>
      <trkpt lat="45.36348" lon="5.83186">
        <ele>1172.7</ele>
        <time>2016-05-21T07:45:13Z</time>
      </trkpt>
      <trkpt lat="45.36355" lon="5.83194">
        <ele>1173</ele>
        <time>2016-05-21T07:45:16Z</time>
      </trkpt>
      <trkpt lat="45.36361" lon="5.83204">
        <ele>1173.2</ele>
        <time>2016-05-21T07:45:19Z</time>
      </trkpt>
      <trkpt lat="45.36367" lon="5.83214">
        <ele>1173.3</ele>
        <time>2016-05-21T07:45:22Z</time>
      </trkpt>
      <trkpt lat="45.36371" lon="5.83224">
        <ele>1173.6</ele>
        <time>2016-05-21T07:45:25Z</time>
      </trkpt>
      <trkpt lat="45.36376" lon="5.83236">
        <ele>1173.8</ele>
        <time>2016-05-21T07:45:28Z</time>
      </trkpt>
      <trkpt lat="45.3638" lon="5.83246">
        <ele>1174</ele>
        <time>2016-05-21T07:45:31Z</time>
      </trkpt>
      <trkpt lat="45.36384" lon="5.83256">
        <ele>1174.2</ele>
        <time>2016-05-21T07:45:34Z</time>
      </trkpt>
      <trkpt lat="45.3639" lon="5.83264">
        <ele>1174.4</ele>
        <time>2016-05-21T07:45:37Z</time>
      </trkpt>
      <trkpt lat="45.36397" lon="5.83272">
        <ele>1174.9</ele>
        <time>2016-05-21T07:45:40Z</time>
      </trkpt>
      <trkpt lat="45.36405" lon="5.83282">
        <ele>1177.4</ele>
        <time>2016-05-21T07:45:43Z</time>
      </trkpt>
      <trkpt lat="45.36412" lon="5.83289">
        <ele>1180.3</ele>
        <time>2016-05-21T07:45:45Z</time>
      </trkpt>
      <trkpt lat="45.36418" lon="5.83298">
        <ele>1181.9</ele>
        <time>2016-05-21T07:45:47Z</time>
      </trkpt>
      <trkpt lat="45.36426" lon="5.83307">
        <ele>1181.7</ele>
        <time>2016-05-21T07:45:49Z</time>
      </trkpt>
      <trkpt lat="45.36433" lon="5.83316">
        <ele>1182</ele>
        <time>2016-05-21T07:45:51Z</time>
      </trkpt>
      <trkpt lat="45.3644" lon="5.83325">
        <ele>1183.2</ele>
        <time>2016-05-21T07:45:53Z</time>
      </trkpt>
      <trkpt lat="45.36446" lon="5.8333">
        <ele>1184</ele>
        <time>2016-05-21T07:45:55Z</time>
      </trkpt>
      <trkpt lat="45.36453" lon="5.83338">
        <ele>1185.1</ele>
        <time>2016-05-21T07:45:57Z</time>
      </trkpt>
      <trkpt lat="45.3646" lon="5.83344">
        <ele>1186.2</ele>
        <time>2016-05-21T07:45:59Z</time>
      </trkpt>
      <trkpt lat="45.36466" lon="5.83352">
        <ele>1186.7</ele>
        <time>2016-05-21T07:46:01Z</time>
      </trkpt>
      <trkpt lat="45.36472" lon="5.83358">
        <ele>1187.6</ele>
        <time>2016-05-21T07:46:03Z</time>
      </trkpt>
      <trkpt lat="45.36481" lon="5.83364">
        <ele>1189</ele>
        <time>2016-05-21T07:46:06Z</time>
      </trkpt>
      <trkpt lat="45.36489" lon="5.83373">
        <ele>1189.3</ele>
        <time>2016-05-21T07:46:09Z</time>
      </trkpt>
      <trkpt lat="45.36495" lon="5.8338">
        <ele>1189.6</ele>
        <time>2016-05-21T07:46:11Z</time>
      </trkpt>
      <trkpt lat="45.36502" lon="5.83386">
        <ele>1190</ele>
        <time>2016-05-21T07:46:13Z</time>
      </trkpt>
      <trkpt lat="45.36508" lon="5.83392">
        <ele>1190.3</ele>
        <time>2016-05-21T07:46:15Z</time>
      </trkpt>
      <trkpt lat="45.36518" lon="5.83398">
        <ele>1190.8</ele>
        <time>2016-05-21T07:46:18Z</time>
      </trkpt>
      <trkpt lat="45.36524" lon="5.83404">
        <ele>1191</ele>
        <time>2016-05-21T07:46:20Z</time>
      </trkpt>
      <trkpt lat="45.36533" lon="5.83409">
        <ele>1191.2</ele>
        <time>2016-05-21T07:46:23Z</time>
      </trkpt>
      <trkpt lat="45.3654" lon="5.83418">
        <ele>1191.3</ele>
        <time>2016-05-21T07:46:27Z</time>
      </trkpt>
      <trkpt lat="45.36547" lon="5.83427">
        <ele>1191.2</ele>
        <time>2016-05-21T07:46:30Z</time>
      </trkpt>
      <trkpt lat="45.36549" lon="5.83431">
        <ele>1190.8</ele>
        <time>2016-05-21T07:46:37Z</time>
      </trkpt>
      <trkpt lat="45.36549" lon="5.83425">
        <ele>1190.8</ele>
        <time>2016-05-21T07:46:46Z</time>
      </trkpt>
      <trkpt lat="45.36549" lon="5.83417">
        <ele>1190.5</ele>
        <time>2016-05-21T07:47:12Z</time>
      </trkpt>
      <trkpt lat="45.36545" lon="5.83417">
        <ele>1190</ele>
        <time>2016-05-21T07:47:22Z</time>
      </trkpt>
      <trkpt lat="45.36542" lon="5.83418">
        <ele>1190.6</ele>
        <time>2016-05-21T07:48:18Z</time>
      </trkpt>
      <trkpt lat="45.36545" lon="5.83419">
        <ele>1190</ele>
        <time>2016-05-21T07:48:25Z</time>
      </trkpt>
      <trkpt lat="45.36548" lon="5.83418">
        <ele>1190.8</ele>
        <time>2016-05-21T07:48:35Z</time>
      </trkpt>
      <trkpt lat="45.36546" lon="5.83421">
        <ele>1190.3</ele>
        <time>2016-05-21T07:49:04Z</time>
      </trkpt>
      <trkpt lat="45.36554" lon="5.83425">
        <ele>1191.7</ele>
        <time>2016-05-21T07:49:20Z</time>
      </trkpt>
      <trkpt lat="45.36563" lon="5.8343">
        <ele>1194.3</ele>
        <time>2016-05-21T07:49:23Z</time>
      </trkpt>
      <trkpt lat="45.36569" lon="5.83434">
        <ele>1197.1</ele>
        <time>2016-05-21T07:49:25Z</time>
      </trkpt>
      <trkpt lat="45.36579" lon="5.83437">
        <ele>1197.7</ele>
        <time>2016-05-21T07:49:27Z</time>
      </trkpt>
      <trkpt lat="45.36592" lon="5.8344">
        <ele>1197.1</ele>
        <time>2016-05-21T07:49:29Z</time>
      </trkpt>
      <trkpt lat="45.366" lon="5.83441">
        <ele>1197</ele>
        <time>2016-05-21T07:49:30Z</time>
      </trkpt>
      <trkpt lat="45.36609" lon="5.83442">
        <ele>1195.9</ele>
        <time>2016-05-21T07:49:31Z</time>
      </trkpt>
      <trkpt lat="45.36619" lon="5.83444">
        <ele>1194.2</ele>
        <time>2016-05-21T07:49:32Z</time>
      </trkpt>
      <trkpt lat="45.36629" lon="5.83446">
        <ele>1192.6</ele>
        <time>2016-05-21T07:49:33Z</time>
      </trkpt>
      <trkpt lat="45.3664" lon="5.83449">
        <ele>1191.1</ele>
        <time>2016-05-21T07:49:34Z</time>
      </trkpt>
      <trkpt lat="45.3665" lon="5.83451">
        <ele>1189.8</ele>
        <time>2016-05-21T07:49:35Z</time>
      </trkpt>
      <trkpt lat="45.3666" lon="5.83453">
        <ele>1188.5</ele>
        <time>2016-05-21T07:49:36Z</time>
      </trkpt>
      <trkpt lat="45.36671" lon="5.83455">
        <ele>1187.2</ele>
        <time>2016-05-21T07:49:37Z</time>
      </trkpt>
      <trkpt lat="45.36682" lon="5.83458">
        <ele>1185.8</ele>
        <time>2016-05-21T07:49:38Z</time>
      </trkpt>
      <trkpt lat="45.36693" lon="5.83461">
        <ele>1184.5</ele>
        <time>2016-05-21T07:49:39Z</time>
      </trkpt>
      <trkpt lat="45.36705" lon="5.83464">
        <ele>1183.2</ele>
        <time>2016-05-21T07:49:40Z</time>
      </trkpt>
      <trkpt lat="45.36717" lon="5.83469">
        <ele>1182.1</ele>
        <time>2016-05-21T07:49:41Z</time>
      </trkpt>
      <trkpt lat="45.36728" lon="5.83474">
        <ele>1181.2</ele>
        <time>2016-05-21T07:49:42Z</time>
      </trkpt>
      <trkpt lat="45.3674" lon="5.8348">
        <ele>1180.4</ele>
        <time>2016-05-21T07:49:43Z</time>
      </trkpt>
      <trkpt lat="45.36751" lon="5.83488">
        <ele>1179.7</ele>
        <time>2016-05-21T07:49:44Z</time>
      </trkpt>
      <trkpt lat="45.36762" lon="5.83496">
        <ele>1178.9</ele>
        <time>2016-05-21T07:49:45Z</time>
      </trkpt>
      <trkpt lat="45.36771" lon="5.83508">
        <ele>1178.1</ele>
        <time>2016-05-21T07:49:46Z</time>
      </trkpt>
      <trkpt lat="45.3678" lon="5.8352">
        <ele>1177.4</ele>
        <time>2016-05-21T07:49:47Z</time>
      </trkpt>
      <trkpt lat="45.36786" lon="5.83536">
        <ele>1176.7</ele>
        <time>2016-05-21T07:49:48Z</time>
      </trkpt>
      <trkpt lat="45.36792" lon="5.8355">
        <ele>1176.2</ele>
        <time>2016-05-21T07:49:49Z</time>
      </trkpt>
      <trkpt lat="45.36796" lon="5.83565">
        <ele>1175.1</ele>
        <time>2016-05-21T07:49:50Z</time>
      </trkpt>
      <trkpt lat="45.36801" lon="5.83579">
        <ele>1173.6</ele>
        <time>2016-05-21T07:49:51Z</time>
      </trkpt>
      <trkpt lat="45.36807" lon="5.83592">
        <ele>1172</ele>
        <time>2016-05-21T07:49:52Z</time>
      </trkpt>
      <trkpt lat="45.36815" lon="5.83605">
        <ele>1170.7</ele>
        <time>2016-05-21T07:49:53Z</time>
      </trkpt>
      <trkpt lat="45.36825" lon="5.83615">
        <ele>1169.2</ele>
        <time>2016-05-21T07:49:54Z</time>
      </trkpt>
      <trkpt lat="45.36836" lon="5.83626">
        <ele>1167.5</ele>
        <time>2016-05-21T07:49:55Z</time>
      </trkpt>
      <trkpt lat="45.36847" lon="5.83636">
        <ele>1165.9</ele>
        <time>2016-05-21T07:49:56Z</time>
      </trkpt>
      <trkpt lat="45.36858" lon="5.83645">
        <ele>1164.2</ele>
        <time>2016-05-21T07:49:57Z</time>
      </trkpt>
      <trkpt lat="45.3687" lon="5.83654">
        <ele>1162.7</ele>
        <time>2016-05-21T07:49:58Z</time>
      </trkpt>
      <trkpt lat="45.36883" lon="5.83662">
        <ele>1161.2</ele>
        <time>2016-05-21T07:49:59Z</time>
      </trkpt>
      <trkpt lat="45.36896" lon="5.83668">
        <ele>1159.7</ele>
        <time>2016-05-21T07:50:00Z</time>
      </trkpt>
      <trkpt lat="45.3691" lon="5.83674">
        <ele>1158.2</ele>
        <time>2016-05-21T07:50:01Z</time>
      </trkpt>
      <trkpt lat="45.36925" lon="5.83679">
        <ele>1156.8</ele>
        <time>2016-05-21T07:50:02Z</time>
      </trkpt>
      <trkpt lat="45.36939" lon="5.83684">
        <ele>1155.4</ele>
        <time>2016-05-21T07:50:03Z</time>
      </trkpt>
      <trkpt lat="45.36952" lon="5.83689">
        <ele>1154.4</ele>
        <time>2016-05-21T07:50:04Z</time>
      </trkpt>
      <trkpt lat="45.36965" lon="5.837">
        <ele>1153.5</ele>
        <time>2016-05-21T07:50:05Z</time>
      </trkpt>
      <trkpt lat="45.36977" lon="5.83712">
        <ele>1152.6</ele>
        <time>2016-05-21T07:50:06Z</time>
      </trkpt>
      <trkpt lat="45.36989" lon="5.83724">
        <ele>1151.8</ele>
        <time>2016-05-21T07:50:07Z</time>
      </trkpt>
      <trkpt lat="45.37001" lon="5.83738">
        <ele>1150.8</ele>
        <time>2016-05-21T07:50:08Z</time>
      </trkpt>
      <trkpt lat="45.37013" lon="5.83753">
        <ele>1149.8</ele>
        <time>2016-05-21T07:50:09Z</time>
      </trkpt>
      <trkpt lat="45.37024" lon="5.83767">
        <ele>1148.6</ele>
        <time>2016-05-21T07:50:10Z</time>
      </trkpt>
      <trkpt lat="45.37034" lon="5.83782">
        <ele>1147.2</ele>
        <time>2016-05-21T07:50:11Z</time>
      </trkpt>
      <trkpt lat="45.37044" lon="5.83797">
        <ele>1145.9</ele>
        <time>2016-05-21T07:50:12Z</time>
      </trkpt>
      <trkpt lat="45.37052" lon="5.8381">
        <ele>1144.5</ele>
        <time>2016-05-21T07:50:13Z</time>
      </trkpt>
      <trkpt lat="45.3706" lon="5.83823">
        <ele>1143.1</ele>
        <time>2016-05-21T07:50:14Z</time>
      </trkpt>
      <trkpt lat="45.37067" lon="5.83834">
        <ele>1141.6</ele>
        <time>2016-05-21T07:50:15Z</time>
      </trkpt>
      <trkpt lat="45.37076" lon="5.83844">
        <ele>1140.1</ele>
        <time>2016-05-21T07:50:16Z</time>
      </trkpt>
      <trkpt lat="45.37084" lon="5.8385">
        <ele>1138.7</ele>
        <time>2016-05-21T07:50:17Z</time>
      </trkpt>
      <trkpt lat="45.37092" lon="5.83851">
        <ele>1137.5</ele>
        <time>2016-05-21T07:50:18Z</time>
      </trkpt>
      <trkpt lat="45.371" lon="5.83847">
        <ele>1136.5</ele>
        <time>2016-05-21T07:50:19Z</time>
      </trkpt>
      <trkpt lat="45.37107" lon="5.83842">
        <ele>1135.2</ele>
        <time>2016-05-21T07:50:20Z</time>
      </trkpt>
      <trkpt lat="45.37121" lon="5.83838">
        <ele>1132.7</ele>
        <time>2016-05-21T07:50:22Z</time>
      </trkpt>
      <trkpt lat="45.37129" lon="5.83841">
        <ele>1131.6</ele>
        <time>2016-05-21T07:50:23Z</time>
      </trkpt>
      <trkpt lat="45.37137" lon="5.83844">
        <ele>1130.5</ele>
        <time>2016-05-21T07:50:24Z</time>
      </trkpt>
      <trkpt lat="45.37146" lon="5.83848">
        <ele>1129.5</ele>
        <time>2016-05-21T07:50:25Z</time>
      </trkpt>
      <trkpt lat="45.37155" lon="5.83853">
        <ele>1128.3</ele>
        <time>2016-05-21T07:50:26Z</time>
      </trkpt>
      <trkpt lat="45.37164" lon="5.83859">
        <ele>1127.3</ele>
        <time>2016-05-21T07:50:27Z</time>
      </trkpt>
      <trkpt lat="45.37172" lon="5.83865">
        <ele>1126.5</ele>
        <time>2016-05-21T07:50:28Z</time>
      </trkpt>
      <trkpt lat="45.3718" lon="5.83873">
        <ele>1125.8</ele>
        <time>2016-05-21T07:50:29Z</time>
      </trkpt>
      <trkpt lat="45.37189" lon="5.83881">
        <ele>1125.4</ele>
        <time>2016-05-21T07:50:30Z</time>
      </trkpt>
      <trkpt lat="45.37197" lon="5.83891">
        <ele>1125.2</ele>
        <time>2016-05-21T07:50:31Z</time>
      </trkpt>
      <trkpt lat="45.37206" lon="5.83901">
        <ele>1124.8</ele>
        <time>2016-05-21T07:50:32Z</time>
      </trkpt>
      <trkpt lat="45.37215" lon="5.83911">
        <ele>1124.4</ele>
        <time>2016-05-21T07:50:33Z</time>
      </trkpt>
      <trkpt lat="45.37224" lon="5.83921">
        <ele>1123.8</ele>
        <time>2016-05-21T07:50:34Z</time>
      </trkpt>
      <trkpt lat="45.37233" lon="5.83932">
        <ele>1123</ele>
        <time>2016-05-21T07:50:35Z</time>
      </trkpt>
      <trkpt lat="45.37242" lon="5.83942">
        <ele>1121.7</ele>
        <time>2016-05-21T07:50:36Z</time>
      </trkpt>
      <trkpt lat="45.37253" lon="5.83954">
        <ele>1120</ele>
        <time>2016-05-21T07:50:37Z</time>
      </trkpt>
      <trkpt lat="45.37264" lon="5.83965">
        <ele>1118.3</ele>
        <time>2016-05-21T07:50:38Z</time>
      </trkpt>
      <trkpt lat="45.37275" lon="5.83975">
        <ele>1116.8</ele>
        <time>2016-05-21T07:50:39Z</time>
      </trkpt>
      <trkpt lat="45.37287" lon="5.83986">
        <ele>1115.6</ele>
        <time>2016-05-21T07:50:40Z</time>
      </trkpt>
      <trkpt lat="45.373" lon="5.83991">
        <ele>1114.4</ele>
        <time>2016-05-21T07:50:41Z</time>
      </trkpt>
      <trkpt lat="45.37313" lon="5.83997">
        <ele>1113.6</ele>
        <time>2016-05-21T07:50:42Z</time>
      </trkpt>
      <trkpt lat="45.37326" lon="5.84004">
        <ele>1112.9</ele>
        <time>2016-05-21T07:50:43Z</time>
      </trkpt>
      <trkpt lat="45.37339" lon="5.8401">
        <ele>1112.7</ele>
        <time>2016-05-21T07:50:44Z</time>
      </trkpt>
      <trkpt lat="45.37353" lon="5.84017">
        <ele>1112.5</ele>
        <time>2016-05-21T07:50:45Z</time>
      </trkpt>
      <trkpt lat="45.37367" lon="5.84023">
        <ele>1112.5</ele>
        <time>2016-05-21T07:50:46Z</time>
      </trkpt>
      <trkpt lat="45.3738" lon="5.84028">
        <ele>1112.3</ele>
        <time>2016-05-21T07:50:47Z</time>
      </trkpt>
      <trkpt lat="45.37393" lon="5.84034">
        <ele>1111.8</ele>
        <time>2016-05-21T07:50:48Z</time>
      </trkpt>
      <trkpt lat="45.37406" lon="5.8404">
        <ele>1111.1</ele>
        <time>2016-05-21T07:50:49Z</time>
      </trkpt>
      <trkpt lat="45.37419" lon="5.84044">
        <ele>1110.4</ele>
        <time>2016-05-21T07:50:50Z</time>
      </trkpt>
      <trkpt lat="45.37433" lon="5.84047">
        <ele>1109.9</ele>
        <time>2016-05-21T07:50:51Z</time>
      </trkpt>
      <trkpt lat="45.37447" lon="5.8405">
        <ele>1109.5</ele>
        <time>2016-05-21T07:50:52Z</time>
      </trkpt>
      <trkpt lat="45.3746" lon="5.84051">
        <ele>1109.4</ele>
        <time>2016-05-21T07:50:53Z</time>
      </trkpt>
      <trkpt lat="45.37473" lon="5.84053">
        <ele>1108.7</ele>
        <time>2016-05-21T07:50:54Z</time>
      </trkpt>
      <trkpt lat="45.37485" lon="5.84055">
        <ele>1107.8</ele>
        <time>2016-05-21T07:50:55Z</time>
      </trkpt>
      <trkpt lat="45.37497" lon="5.84062">
        <ele>1107</ele>
        <time>2016-05-21T07:50:56Z</time>
      </trkpt>
      <trkpt lat="45.37509" lon="5.84069">
        <ele>1105.1</ele>
        <time>2016-05-21T07:50:57Z</time>
      </trkpt>
      <trkpt lat="45.3752" lon="5.84077">
        <ele>1103.7</ele>
        <time>2016-05-21T07:50:58Z</time>
      </trkpt>
      <trkpt lat="45.37532" lon="5.84085">
        <ele>1101.8</ele>
        <time>2016-05-21T07:50:59Z</time>
      </trkpt>
      <trkpt lat="45.37544" lon="5.84094">
        <ele>1100</ele>
        <time>2016-05-21T07:51:00Z</time>
      </trkpt>
      <trkpt lat="45.37557" lon="5.84102">
        <ele>1098.6</ele>
        <time>2016-05-21T07:51:01Z</time>
      </trkpt>
      <trkpt lat="45.37569" lon="5.8411">
        <ele>1097.5</ele>
        <time>2016-05-21T07:51:02Z</time>
      </trkpt>
      <trkpt lat="45.37581" lon="5.84116">
        <ele>1096.3</ele>
        <time>2016-05-21T07:51:03Z</time>
      </trkpt>
      <trkpt lat="45.37593" lon="5.84122">
        <ele>1094.9</ele>
        <time>2016-05-21T07:51:04Z</time>
      </trkpt>
      <trkpt lat="45.37606" lon="5.8413">
        <ele>1094.1</ele>
        <time>2016-05-21T07:51:05Z</time>
      </trkpt>
      <trkpt lat="45.37619" lon="5.84139">
        <ele>1093.6</ele>
        <time>2016-05-21T07:51:06Z</time>
      </trkpt>
      <trkpt lat="45.37632" lon="5.8415">
        <ele>1092.4</ele>
        <time>2016-05-21T07:51:07Z</time>
      </trkpt>
      <trkpt lat="45.37645" lon="5.84161">
        <ele>1091</ele>
        <time>2016-05-21T07:51:08Z</time>
      </trkpt>
      <trkpt lat="45.37657" lon="5.84173">
        <ele>1089.6</ele>
        <time>2016-05-21T07:51:09Z</time>
      </trkpt>
      <trkpt lat="45.3767" lon="5.84185">
        <ele>1087.7</ele>
        <time>2016-05-21T07:51:10Z</time>
      </trkpt>
      <trkpt lat="45.37682" lon="5.84197">
        <ele>1086</ele>
        <time>2016-05-21T07:51:11Z</time>
      </trkpt>
      <trkpt lat="45.37693" lon="5.84209">
        <ele>1084.7</ele>
        <time>2016-05-21T07:51:12Z</time>
      </trkpt>
      <trkpt lat="45.37704" lon="5.84219">
        <ele>1083.6</ele>
        <time>2016-05-21T07:51:13Z</time>
      </trkpt>
      <trkpt lat="45.37715" lon="5.84228">
        <ele>1082.5</ele>
        <time>2016-05-21T07:51:14Z</time>
      </trkpt>
      <trkpt lat="45.37725" lon="5.84236">
        <ele>1081.4</ele>
        <time>2016-05-21T07:51:15Z</time>
      </trkpt>
      <trkpt lat="45.37737" lon="5.84244">
        <ele>1080.1</ele>
        <time>2016-05-21T07:51:16Z</time>
      </trkpt>
      <trkpt lat="45.37748" lon="5.84254">
        <ele>1079</ele>
        <time>2016-05-21T07:51:17Z</time>
      </trkpt>
      <trkpt lat="45.37759" lon="5.84263">
        <ele>1077.6</ele>
        <time>2016-05-21T07:51:18Z</time>
      </trkpt>
      <trkpt lat="45.37769" lon="5.84274">
        <ele>1076.1</ele>
        <time>2016-05-21T07:51:19Z</time>
      </trkpt>
      <trkpt lat="45.3778" lon="5.84284">
        <ele>1074.5</ele>
        <time>2016-05-21T07:51:20Z</time>
      </trkpt>
      <trkpt lat="45.3779" lon="5.84294">
        <ele>1073</ele>
        <time>2016-05-21T07:51:21Z</time>
      </trkpt>
      <trkpt lat="45.37801" lon="5.84303">
        <ele>1071.5</ele>
        <time>2016-05-21T07:51:22Z</time>
      </trkpt>
      <trkpt lat="45.37812" lon="5.8431">
        <ele>1069.9</ele>
        <time>2016-05-21T07:51:23Z</time>
      </trkpt>
      <trkpt lat="45.37822" lon="5.84317">
        <ele>1068.3</ele>
        <time>2016-05-21T07:51:24Z</time>
      </trkpt>
      <trkpt lat="45.37833" lon="5.84325">
        <ele>1066.9</ele>
        <time>2016-05-21T07:51:25Z</time>
      </trkpt>
      <trkpt lat="45.37844" lon="5.84331">
        <ele>1065.5</ele>
        <time>2016-05-21T07:51:26Z</time>
      </trkpt>
      <trkpt lat="45.37854" lon="5.84338">
        <ele>1064.5</ele>
        <time>2016-05-21T07:51:27Z</time>
      </trkpt>
      <trkpt lat="45.37865" lon="5.84344">
        <ele>1063.7</ele>
        <time>2016-05-21T07:51:28Z</time>
      </trkpt>
      <trkpt lat="45.37875" lon="5.8435">
        <ele>1063.2</ele>
        <time>2016-05-21T07:51:29Z</time>
      </trkpt>
      <trkpt lat="45.37884" lon="5.84356">
        <ele>1062.7</ele>
        <time>2016-05-21T07:51:30Z</time>
      </trkpt>
      <trkpt lat="45.37895" lon="5.84363">
        <ele>1062.1</ele>
        <time>2016-05-21T07:51:31Z</time>
      </trkpt>
      <trkpt lat="45.37906" lon="5.8437">
        <ele>1061.6</ele>
        <time>2016-05-21T07:51:32Z</time>
      </trkpt>
      <trkpt lat="45.37916" lon="5.84378">
        <ele>1060.9</ele>
        <time>2016-05-21T07:51:33Z</time>
      </trkpt>
      <trkpt lat="45.37927" lon="5.84386">
        <ele>1060.1</ele>
        <time>2016-05-21T07:51:34Z</time>
      </trkpt>
      <trkpt lat="45.37937" lon="5.84395">
        <ele>1059.1</ele>
        <time>2016-05-21T07:51:35Z</time>
      </trkpt>
      <trkpt lat="45.37947" lon="5.84404">
        <ele>1058</ele>
        <time>2016-05-21T07:51:36Z</time>
      </trkpt>
      <trkpt lat="45.37958" lon="5.84414">
        <ele>1057</ele>
        <time>2016-05-21T07:51:37Z</time>
      </trkpt>
      <trkpt lat="45.37968" lon="5.84422">
        <ele>1056.3</ele>
        <time>2016-05-21T07:51:38Z</time>
      </trkpt>
      <trkpt lat="45.37979" lon="5.8443">
        <ele>1055.7</ele>
        <time>2016-05-21T07:51:39Z</time>
      </trkpt>
      <trkpt lat="45.3799" lon="5.84436">
        <ele>1055.5</ele>
        <time>2016-05-21T07:51:40Z</time>
      </trkpt>
      <trkpt lat="45.38001" lon="5.84441">
        <ele>1055.3</ele>
        <time>2016-05-21T07:51:41Z</time>
      </trkpt>
      <trkpt lat="45.38012" lon="5.84446">
        <ele>1055.1</ele>
        <time>2016-05-21T07:51:42Z</time>
      </trkpt>
      <trkpt lat="45.38023" lon="5.84449">
        <ele>1054.9</ele>
        <time>2016-05-21T07:51:43Z</time>
      </trkpt>
      <trkpt lat="45.38035" lon="5.84452">
        <ele>1054.3</ele>
        <time>2016-05-21T07:51:44Z</time>
      </trkpt>
      <trkpt lat="45.38047" lon="5.84454">
        <ele>1053.6</ele>
        <time>2016-05-21T07:51:45Z</time>
      </trkpt>
      <trkpt lat="45.3806" lon="5.84455">
        <ele>1052.9</ele>
        <time>2016-05-21T07:51:46Z</time>
      </trkpt>
      <trkpt lat="45.38071" lon="5.84454">
        <ele>1052.1</ele>
        <time>2016-05-21T07:51:47Z</time>
      </trkpt>
      <trkpt lat="45.38082" lon="5.84451">
        <ele>1051.3</ele>
        <time>2016-05-21T07:51:48Z</time>
      </trkpt>
      <trkpt lat="45.38092" lon="5.84447">
        <ele>1050.5</ele>
        <time>2016-05-21T07:51:49Z</time>
      </trkpt>
      <trkpt lat="45.38102" lon="5.84442">
        <ele>1050</ele>
        <time>2016-05-21T07:51:50Z</time>
      </trkpt>
      <trkpt lat="45.38112" lon="5.84437">
        <ele>1049.2</ele>
        <time>2016-05-21T07:51:51Z</time>
      </trkpt>
      <trkpt lat="45.38123" lon="5.84431">
        <ele>1048.2</ele>
        <time>2016-05-21T07:51:52Z</time>
      </trkpt>
      <trkpt lat="45.38132" lon="5.84424">
        <ele>1047.4</ele>
        <time>2016-05-21T07:51:53Z</time>
      </trkpt>
      <trkpt lat="45.38142" lon="5.84417">
        <ele>1047.3</ele>
        <time>2016-05-21T07:51:54Z</time>
      </trkpt>
      <trkpt lat="45.38152" lon="5.8441">
        <ele>1047.4</ele>
        <time>2016-05-21T07:51:55Z</time>
      </trkpt>
      <trkpt lat="45.38163" lon="5.84408">
        <ele>1047.3</ele>
        <time>2016-05-21T07:51:56Z</time>
      </trkpt>
      <trkpt lat="45.38173" lon="5.84406">
        <ele>1047.3</ele>
        <time>2016-05-21T07:51:57Z</time>
      </trkpt>
      <trkpt lat="45.38184" lon="5.84404">
        <ele>1047.2</ele>
        <time>2016-05-21T07:51:58Z</time>
      </trkpt>
      <trkpt lat="45.38195" lon="5.84402">
        <ele>1046.9</ele>
        <time>2016-05-21T07:51:59Z</time>
      </trkpt>
      <trkpt lat="45.38206" lon="5.844">
        <ele>1046.9</ele>
        <time>2016-05-21T07:52:00Z</time>
      </trkpt>
      <trkpt lat="45.38216" lon="5.84398">
        <ele>1046.6</ele>
        <time>2016-05-21T07:52:01Z</time>
      </trkpt>
      <trkpt lat="45.38225" lon="5.84396">
        <ele>1046.3</ele>
        <time>2016-05-21T07:52:02Z</time>
      </trkpt>
      <trkpt lat="45.38235" lon="5.84396">
        <ele>1046.1</ele>
        <time>2016-05-21T07:52:03Z</time>
      </trkpt>
      <trkpt lat="45.38244" lon="5.84397">
        <ele>1045.5</ele>
        <time>2016-05-21T07:52:04Z</time>
      </trkpt>
      <trkpt lat="45.38253" lon="5.84401">
        <ele>1044.8</ele>
        <time>2016-05-21T07:52:05Z</time>
      </trkpt>
      <trkpt lat="45.38262" lon="5.84404">
        <ele>1044.2</ele>
        <time>2016-05-21T07:52:06Z</time>
      </trkpt>
      <trkpt lat="45.38272" lon="5.84408">
        <ele>1043.5</ele>
        <time>2016-05-21T07:52:07Z</time>
      </trkpt>
      <trkpt lat="45.38282" lon="5.84411">
        <ele>1042.9</ele>
        <time>2016-05-21T07:52:08Z</time>
      </trkpt>
      <trkpt lat="45.38293" lon="5.84416">
        <ele>1042.1</ele>
        <time>2016-05-21T07:52:09Z</time>
      </trkpt>
      <trkpt lat="45.38304" lon="5.84422">
        <ele>1041.4</ele>
        <time>2016-05-21T07:52:10Z</time>
      </trkpt>
      <trkpt lat="45.38314" lon="5.84429">
        <ele>1040.6</ele>
        <time>2016-05-21T07:52:11Z</time>
      </trkpt>
      <trkpt lat="45.38324" lon="5.84436">
        <ele>1039.9</ele>
        <time>2016-05-21T07:52:12Z</time>
      </trkpt>
      <trkpt lat="45.38334" lon="5.84443">
        <ele>1039.4</ele>
        <time>2016-05-21T07:52:13Z</time>
      </trkpt>
      <trkpt lat="45.38344" lon="5.84449">
        <ele>1038.8</ele>
        <time>2016-05-21T07:52:14Z</time>
      </trkpt>
      <trkpt lat="45.38356" lon="5.84451">
        <ele>1038.1</ele>
        <time>2016-05-21T07:52:15Z</time>
      </trkpt>
      <trkpt lat="45.38367" lon="5.84451">
        <ele>1037.2</ele>
        <time>2016-05-21T07:52:16Z</time>
      </trkpt>
      <trkpt lat="45.38379" lon="5.84452">
        <ele>1036.1</ele>
        <time>2016-05-21T07:52:17Z</time>
      </trkpt>
      <trkpt lat="45.3839" lon="5.84453">
        <ele>1035.1</ele>
        <time>2016-05-21T07:52:18Z</time>
      </trkpt>
      <trkpt lat="45.38402" lon="5.84454">
        <ele>1033.9</ele>
        <time>2016-05-21T07:52:19Z</time>
      </trkpt>
      <trkpt lat="45.38413" lon="5.84456">
        <ele>1032.7</ele>
        <time>2016-05-21T07:52:20Z</time>
      </trkpt>
      <trkpt lat="45.38424" lon="5.84458">
        <ele>1031.6</ele>
        <time>2016-05-21T07:52:21Z</time>
      </trkpt>
      <trkpt lat="45.38435" lon="5.84462">
        <ele>1030.1</ele>
        <time>2016-05-21T07:52:22Z</time>
      </trkpt>
      <trkpt lat="45.38445" lon="5.84465">
        <ele>1028.5</ele>
        <time>2016-05-21T07:52:23Z</time>
      </trkpt>
      <trkpt lat="45.38456" lon="5.84468">
        <ele>1027.1</ele>
        <time>2016-05-21T07:52:24Z</time>
      </trkpt>
      <trkpt lat="45.38467" lon="5.8447">
        <ele>1026</ele>
        <time>2016-05-21T07:52:25Z</time>
      </trkpt>
      <trkpt lat="45.38477" lon="5.84465">
        <ele>1024.8</ele>
        <time>2016-05-21T07:52:26Z</time>
      </trkpt>
      <trkpt lat="45.38488" lon="5.84458">
        <ele>1023.7</ele>
        <time>2016-05-21T07:52:27Z</time>
      </trkpt>
      <trkpt lat="45.38498" lon="5.84451">
        <ele>1023.6</ele>
        <time>2016-05-21T07:52:28Z</time>
      </trkpt>
      <trkpt lat="45.38508" lon="5.84443">
        <ele>1023.3</ele>
        <time>2016-05-21T07:52:29Z</time>
      </trkpt>
      <trkpt lat="45.38517" lon="5.84435">
        <ele>1022.9</ele>
        <time>2016-05-21T07:52:30Z</time>
      </trkpt>
      <trkpt lat="45.38524" lon="5.84428">
        <ele>1022.3</ele>
        <time>2016-05-21T07:52:31Z</time>
      </trkpt>
      <trkpt lat="45.3853" lon="5.84418">
        <ele>1021.4</ele>
        <time>2016-05-21T07:52:32Z</time>
      </trkpt>
      <trkpt lat="45.38537" lon="5.84406">
        <ele>1020.7</ele>
        <time>2016-05-21T07:52:33Z</time>
      </trkpt>
      <trkpt lat="45.38539" lon="5.84392">
        <ele>1020.1</ele>
        <time>2016-05-21T07:52:34Z</time>
      </trkpt>
      <trkpt lat="45.38542" lon="5.84377">
        <ele>1018.8</ele>
        <time>2016-05-21T07:52:35Z</time>
      </trkpt>
      <trkpt lat="45.38544" lon="5.84363">
        <ele>1018.4</ele>
        <time>2016-05-21T07:52:36Z</time>
      </trkpt>
      <trkpt lat="45.38546" lon="5.84349">
        <ele>1017.3</ele>
        <time>2016-05-21T07:52:37Z</time>
      </trkpt>
      <trkpt lat="45.38548" lon="5.84333">
        <ele>1016.7</ele>
        <time>2016-05-21T07:52:38Z</time>
      </trkpt>
      <trkpt lat="45.38551" lon="5.84318">
        <ele>1016.7</ele>
        <time>2016-05-21T07:52:39Z</time>
      </trkpt>
      <trkpt lat="45.38553" lon="5.84306">
        <ele>1016.5</ele>
        <time>2016-05-21T07:52:40Z</time>
      </trkpt>
      <trkpt lat="45.38559" lon="5.84295">
        <ele>1016.5</ele>
        <time>2016-05-21T07:52:41Z</time>
      </trkpt>
      <trkpt lat="45.38566" lon="5.84285">
        <ele>1016.4</ele>
        <time>2016-05-21T07:52:42Z</time>
      </trkpt>
      <trkpt lat="45.38578" lon="5.84284">
        <ele>1015.8</ele>
        <time>2016-05-21T07:52:44Z</time>
      </trkpt>
      <trkpt lat="45.38586" lon="5.84287">
        <ele>1015.3</ele>
        <time>2016-05-21T07:52:45Z</time>
      </trkpt>
      <trkpt lat="45.38589" lon="5.84298">
        <ele>1015.6</ele>
        <time>2016-05-21T07:52:46Z</time>
      </trkpt>
      <trkpt lat="45.3859" lon="5.84309">
        <ele>1016.1</ele>
        <time>2016-05-21T07:52:47Z</time>
      </trkpt>
      <trkpt lat="45.38589" lon="5.84327">
        <ele>1015.2</ele>
        <time>2016-05-21T07:52:49Z</time>
      </trkpt>
      <trkpt lat="45.38592" lon="5.84347">
        <ele>1013.6</ele>
        <time>2016-05-21T07:52:51Z</time>
      </trkpt>
      <trkpt lat="45.38594" lon="5.84357">
        <ele>1013.3</ele>
        <time>2016-05-21T07:52:52Z</time>
      </trkpt>
      <trkpt lat="45.38596" lon="5.84369">
        <ele>1013</ele>
        <time>2016-05-21T07:52:53Z</time>
      </trkpt>
      <trkpt lat="45.38599" lon="5.84381">
        <ele>1013</ele>
        <time>2016-05-21T07:52:54Z</time>
      </trkpt>
      <trkpt lat="45.38601" lon="5.84393">
        <ele>1013.1</ele>
        <time>2016-05-21T07:52:55Z</time>
      </trkpt>
      <trkpt lat="45.38604" lon="5.84404">
        <ele>1012.6</ele>
        <time>2016-05-21T07:52:56Z</time>
      </trkpt>
      <trkpt lat="45.38608" lon="5.84415">
        <ele>1012</ele>
        <time>2016-05-21T07:52:57Z</time>
      </trkpt>
      <trkpt lat="45.38611" lon="5.84425">
        <ele>1011.7</ele>
        <time>2016-05-21T07:52:58Z</time>
      </trkpt>
      <trkpt lat="45.38615" lon="5.84438">
        <ele>1012.5</ele>
        <time>2016-05-21T07:52:59Z</time>
      </trkpt>
      <trkpt lat="45.38622" lon="5.84449">
        <ele>1013.1</ele>
        <time>2016-05-21T07:53:00Z</time>
      </trkpt>
      <trkpt lat="45.38627" lon="5.84457">
        <ele>1013.8</ele>
        <time>2016-05-21T07:53:01Z</time>
      </trkpt>
      <trkpt lat="45.38635" lon="5.84466">
        <ele>1014</ele>
        <time>2016-05-21T07:53:02Z</time>
      </trkpt>
      <trkpt lat="45.38644" lon="5.84469">
        <ele>1013.9</ele>
        <time>2016-05-21T07:53:03Z</time>
      </trkpt>
      <trkpt lat="45.38654" lon="5.84468">
        <ele>1013.4</ele>
        <time>2016-05-21T07:53:04Z</time>
      </trkpt>
      <trkpt lat="45.38663" lon="5.84466">
        <ele>1012.8</ele>
        <time>2016-05-21T07:53:05Z</time>
      </trkpt>
      <trkpt lat="45.38672" lon="5.84463">
        <ele>1012.2</ele>
        <time>2016-05-21T07:53:06Z</time>
      </trkpt>
      <trkpt lat="45.38681" lon="5.8446">
        <ele>1011.5</ele>
        <time>2016-05-21T07:53:07Z</time>
      </trkpt>
      <trkpt lat="45.3869" lon="5.84456">
        <ele>1010.8</ele>
        <time>2016-05-21T07:53:08Z</time>
      </trkpt>
      <trkpt lat="45.387" lon="5.84452">
        <ele>1010.2</ele>
        <time>2016-05-21T07:53:09Z</time>
      </trkpt>
      <trkpt lat="45.3871" lon="5.84449">
        <ele>1009.3</ele>
        <time>2016-05-21T07:53:10Z</time>
      </trkpt>
      <trkpt lat="45.38719" lon="5.84446">
        <ele>1008.7</ele>
        <time>2016-05-21T07:53:11Z</time>
      </trkpt>
      <trkpt lat="45.38728" lon="5.84444">
        <ele>1008</ele>
        <time>2016-05-21T07:53:12Z</time>
      </trkpt>
      <trkpt lat="45.38738" lon="5.84443">
        <ele>1007.5</ele>
        <time>2016-05-21T07:53:13Z</time>
      </trkpt>
      <trkpt lat="45.38747" lon="5.84443">
        <ele>1007.1</ele>
        <time>2016-05-21T07:53:14Z</time>
      </trkpt>
      <trkpt lat="45.38756" lon="5.84444">
        <ele>1006.9</ele>
        <time>2016-05-21T07:53:15Z</time>
      </trkpt>
      <trkpt lat="45.38765" lon="5.84444">
        <ele>1006.8</ele>
        <time>2016-05-21T07:53:16Z</time>
      </trkpt>
      <trkpt lat="45.38774" lon="5.84444">
        <ele>1006.7</ele>
        <time>2016-05-21T07:53:17Z</time>
      </trkpt>
      <trkpt lat="45.38784" lon="5.84443">
        <ele>1006.4</ele>
        <time>2016-05-21T07:53:18Z</time>
      </trkpt>
      <trkpt lat="45.38792" lon="5.84439">
        <ele>1006.4</ele>
        <time>2016-05-21T07:53:19Z</time>
      </trkpt>
      <trkpt lat="45.38801" lon="5.84435">
        <ele>1006.2</ele>
        <time>2016-05-21T07:53:20Z</time>
      </trkpt>
      <trkpt lat="45.3881" lon="5.84431">
        <ele>1005.8</ele>
        <time>2016-05-21T07:53:21Z</time>
      </trkpt>
      <trkpt lat="45.38818" lon="5.84432">
        <ele>1005.7</ele>
        <time>2016-05-21T07:53:22Z</time>
      </trkpt>
      <trkpt lat="45.38827" lon="5.84434">
        <ele>1005.5</ele>
        <time>2016-05-21T07:53:23Z</time>
      </trkpt>
      <trkpt lat="45.38836" lon="5.84435">
        <ele>1005.2</ele>
        <time>2016-05-21T07:53:24Z</time>
      </trkpt>
      <trkpt lat="45.38845" lon="5.84439">
        <ele>1005.3</ele>
        <time>2016-05-21T07:53:25Z</time>
      </trkpt>
      <trkpt lat="45.38854" lon="5.84443">
        <ele>1005.4</ele>
        <time>2016-05-21T07:53:26Z</time>
      </trkpt>
      <trkpt lat="45.38863" lon="5.84447">
        <ele>1005.5</ele>
        <time>2016-05-21T07:53:27Z</time>
      </trkpt>
      <trkpt lat="45.38873" lon="5.84451">
        <ele>1005.3</ele>
        <time>2016-05-21T07:53:28Z</time>
      </trkpt>
      <trkpt lat="45.38881" lon="5.84458">
        <ele>1005.4</ele>
        <time>2016-05-21T07:53:29Z</time>
      </trkpt>
      <trkpt lat="45.3889" lon="5.84466">
        <ele>1005.2</ele>
        <time>2016-05-21T07:53:30Z</time>
      </trkpt>
      <trkpt lat="45.38897" lon="5.84475">
        <ele>1005.2</ele>
        <time>2016-05-21T07:53:31Z</time>
      </trkpt>
      <trkpt lat="45.38905" lon="5.84484">
        <ele>1005</ele>
        <time>2016-05-21T07:53:32Z</time>
      </trkpt>
      <trkpt lat="45.38912" lon="5.84494">
        <ele>1004.7</ele>
        <time>2016-05-21T07:53:33Z</time>
      </trkpt>
      <trkpt lat="45.38919" lon="5.84504">
        <ele>1004.4</ele>
        <time>2016-05-21T07:53:34Z</time>
      </trkpt>
      <trkpt lat="45.38927" lon="5.84515">
        <ele>1003.8</ele>
        <time>2016-05-21T07:53:35Z</time>
      </trkpt>
      <trkpt lat="45.38934" lon="5.84525">
        <ele>1003.2</ele>
        <time>2016-05-21T07:53:36Z</time>
      </trkpt>
      <trkpt lat="45.38944" lon="5.8453">
        <ele>1002.3</ele>
        <time>2016-05-21T07:53:37Z</time>
      </trkpt>
      <trkpt lat="45.38953" lon="5.84534">
        <ele>1001.8</ele>
        <time>2016-05-21T07:53:38Z</time>
      </trkpt>
      <trkpt lat="45.38964" lon="5.84532">
        <ele>1001.3</ele>
        <time>2016-05-21T07:53:39Z</time>
      </trkpt>
      <trkpt lat="45.38974" lon="5.84529">
        <ele>1000.9</ele>
        <time>2016-05-21T07:53:40Z</time>
      </trkpt>
      <trkpt lat="45.38984" lon="5.84526">
        <ele>1000.2</ele>
        <time>2016-05-21T07:53:41Z</time>
      </trkpt>
      <trkpt lat="45.38994" lon="5.84523">
        <ele>999.1</ele>
        <time>2016-05-21T07:53:42Z</time>
      </trkpt>
      <trkpt lat="45.39004" lon="5.8452">
        <ele>998.1</ele>
        <time>2016-05-21T07:53:43Z</time>
      </trkpt>
      <trkpt lat="45.39014" lon="5.84518">
        <ele>997.2</ele>
        <time>2016-05-21T07:53:44Z</time>
      </trkpt>
      <trkpt lat="45.39025" lon="5.84516">
        <ele>996</ele>
        <time>2016-05-21T07:53:45Z</time>
      </trkpt>
      <trkpt lat="45.39036" lon="5.84513">
        <ele>994.8</ele>
        <time>2016-05-21T07:53:46Z</time>
      </trkpt>
      <trkpt lat="45.39048" lon="5.84511">
        <ele>993.6</ele>
        <time>2016-05-21T07:53:47Z</time>
      </trkpt>
      <trkpt lat="45.39059" lon="5.84508">
        <ele>992.5</ele>
        <time>2016-05-21T07:53:48Z</time>
      </trkpt>
      <trkpt lat="45.3907" lon="5.84505">
        <ele>991.6</ele>
        <time>2016-05-21T07:53:49Z</time>
      </trkpt>
      <trkpt lat="45.39081" lon="5.84502">
        <ele>990.8</ele>
        <time>2016-05-21T07:53:50Z</time>
      </trkpt>
      <trkpt lat="45.39092" lon="5.845">
        <ele>990</ele>
        <time>2016-05-21T07:53:51Z</time>
      </trkpt>
      <trkpt lat="45.39103" lon="5.84497">
        <ele>989.6</ele>
        <time>2016-05-21T07:53:52Z</time>
      </trkpt>
      <trkpt lat="45.39114" lon="5.84494">
        <ele>988.6</ele>
        <time>2016-05-21T07:53:53Z</time>
      </trkpt>
      <trkpt lat="45.39125" lon="5.84492">
        <ele>987.1</ele>
        <time>2016-05-21T07:53:54Z</time>
      </trkpt>
      <trkpt lat="45.39137" lon="5.84488">
        <ele>985.4</ele>
        <time>2016-05-21T07:53:55Z</time>
      </trkpt>
      <trkpt lat="45.39148" lon="5.84484">
        <ele>983.8</ele>
        <time>2016-05-21T07:53:56Z</time>
      </trkpt>
      <trkpt lat="45.39158" lon="5.84479">
        <ele>982.5</ele>
        <time>2016-05-21T07:53:57Z</time>
      </trkpt>
      <trkpt lat="45.39166" lon="5.84472">
        <ele>981.3</ele>
        <time>2016-05-21T07:53:58Z</time>
      </trkpt>
      <trkpt lat="45.39172" lon="5.84463">
        <ele>980.9</ele>
        <time>2016-05-21T07:53:59Z</time>
      </trkpt>
      <trkpt lat="45.39177" lon="5.84451">
        <ele>980.6</ele>
        <time>2016-05-21T07:54:00Z</time>
      </trkpt>
      <trkpt lat="45.39178" lon="5.84439">
        <ele>980.6</ele>
        <time>2016-05-21T07:54:01Z</time>
      </trkpt>
      <trkpt lat="45.39173" lon="5.8442">
        <ele>979.5</ele>
        <time>2016-05-21T07:54:03Z</time>
      </trkpt>
      <trkpt lat="45.39173" lon="5.84408">
        <ele>979.3</ele>
        <time>2016-05-21T07:54:04Z</time>
      </trkpt>
      <trkpt lat="45.39172" lon="5.84395">
        <ele>979</ele>
        <time>2016-05-21T07:54:05Z</time>
      </trkpt>
      <trkpt lat="45.39173" lon="5.84381">
        <ele>978.7</ele>
        <time>2016-05-21T07:54:06Z</time>
      </trkpt>
      <trkpt lat="45.39175" lon="5.84366">
        <ele>978.3</ele>
        <time>2016-05-21T07:54:07Z</time>
      </trkpt>
      <trkpt lat="45.39178" lon="5.84352">
        <ele>978.2</ele>
        <time>2016-05-21T07:54:08Z</time>
      </trkpt>
      <trkpt lat="45.39184" lon="5.84339">
        <ele>977.7</ele>
        <time>2016-05-21T07:54:09Z</time>
      </trkpt>
      <trkpt lat="45.39191" lon="5.84331">
        <ele>977.7</ele>
        <time>2016-05-21T07:54:10Z</time>
      </trkpt>
      <trkpt lat="45.39199" lon="5.84323">
        <ele>978.1</ele>
        <time>2016-05-21T07:54:11Z</time>
      </trkpt>
      <trkpt lat="45.39207" lon="5.84317">
        <ele>978.9</ele>
        <time>2016-05-21T07:54:12Z</time>
      </trkpt>
      <trkpt lat="45.39215" lon="5.84323">
        <ele>979.8</ele>
        <time>2016-05-21T07:54:14Z</time>
      </trkpt>
      <trkpt lat="45.39221" lon="5.84333">
        <ele>980.1</ele>
        <time>2016-05-21T07:54:15Z</time>
      </trkpt>
      <trkpt lat="45.39227" lon="5.84344">
        <ele>980.6</ele>
        <time>2016-05-21T07:54:16Z</time>
      </trkpt>
      <trkpt lat="45.39234" lon="5.84355">
        <ele>981.3</ele>
        <time>2016-05-21T07:54:17Z</time>
      </trkpt>
      <trkpt lat="45.39242" lon="5.84367">
        <ele>982</ele>
        <time>2016-05-21T07:54:18Z</time>
      </trkpt>
      <trkpt lat="45.39249" lon="5.8438">
        <ele>982.8</ele>
        <time>2016-05-21T07:54:19Z</time>
      </trkpt>
      <trkpt lat="45.39256" lon="5.84394">
        <ele>983</ele>
        <time>2016-05-21T07:54:20Z</time>
      </trkpt>
      <trkpt lat="45.39264" lon="5.84405">
        <ele>982.7</ele>
        <time>2016-05-21T07:54:21Z</time>
      </trkpt>
      <trkpt lat="45.39274" lon="5.84413">
        <ele>982.8</ele>
        <time>2016-05-21T07:54:22Z</time>
      </trkpt>
      <trkpt lat="45.39285" lon="5.84415">
        <ele>982.3</ele>
        <time>2016-05-21T07:54:23Z</time>
      </trkpt>
      <trkpt lat="45.39297" lon="5.84417">
        <ele>981.1</ele>
        <time>2016-05-21T07:54:24Z</time>
      </trkpt>
      <trkpt lat="45.39309" lon="5.84414">
        <ele>979.5</ele>
        <time>2016-05-21T07:54:25Z</time>
      </trkpt>
      <trkpt lat="45.3932" lon="5.84411">
        <ele>978</ele>
        <time>2016-05-21T07:54:26Z</time>
      </trkpt>
      <trkpt lat="45.39331" lon="5.84407">
        <ele>976.7</ele>
        <time>2016-05-21T07:54:27Z</time>
      </trkpt>
      <trkpt lat="45.39341" lon="5.84403">
        <ele>975.6</ele>
        <time>2016-05-21T07:54:28Z</time>
      </trkpt>
      <trkpt lat="45.39349" lon="5.84398">
        <ele>974.7</ele>
        <time>2016-05-21T07:54:29Z</time>
      </trkpt>
      <trkpt lat="45.39357" lon="5.84395">
        <ele>974</ele>
        <time>2016-05-21T07:54:30Z</time>
      </trkpt>
      <trkpt lat="45.39366" lon="5.8439">
        <ele>972.9</ele>
        <time>2016-05-21T07:54:31Z</time>
      </trkpt>
      <trkpt lat="45.39374" lon="5.84386">
        <ele>972</ele>
        <time>2016-05-21T07:54:32Z</time>
      </trkpt>
      <trkpt lat="45.39381" lon="5.84378">
        <ele>970.9</ele>
        <time>2016-05-21T07:54:33Z</time>
      </trkpt>
      <trkpt lat="45.39388" lon="5.84371">
        <ele>969.7</ele>
        <time>2016-05-21T07:54:34Z</time>
      </trkpt>
      <trkpt lat="45.39396" lon="5.84363">
        <ele>968.4</ele>
        <time>2016-05-21T07:54:35Z</time>
      </trkpt>
      <trkpt lat="45.39406" lon="5.84361">
        <ele>967.4</ele>
        <time>2016-05-21T07:54:36Z</time>
      </trkpt>
      <trkpt lat="45.39415" lon="5.84361">
        <ele>966.6</ele>
        <time>2016-05-21T07:54:37Z</time>
      </trkpt>
      <trkpt lat="45.39424" lon="5.84362">
        <ele>965.9</ele>
        <time>2016-05-21T07:54:38Z</time>
      </trkpt>
      <trkpt lat="45.39433" lon="5.84363">
        <ele>965</ele>
        <time>2016-05-21T07:54:39Z</time>
      </trkpt>
      <trkpt lat="45.39442" lon="5.84363">
        <ele>964.1</ele>
        <time>2016-05-21T07:54:40Z</time>
      </trkpt>
      <trkpt lat="45.39451" lon="5.8436">
        <ele>963.3</ele>
        <time>2016-05-21T07:54:41Z</time>
      </trkpt>
      <trkpt lat="45.3946" lon="5.84355">
        <ele>962.6</ele>
        <time>2016-05-21T07:54:42Z</time>
      </trkpt>
      <trkpt lat="45.39467" lon="5.84348">
        <ele>962</ele>
        <time>2016-05-21T07:54:43Z</time>
      </trkpt>
      <trkpt lat="45.39472" lon="5.84339">
        <ele>961.5</ele>
        <time>2016-05-21T07:54:44Z</time>
      </trkpt>
      <trkpt lat="45.39478" lon="5.84327">
        <ele>961.1</ele>
        <time>2016-05-21T07:54:45Z</time>
      </trkpt>
      <trkpt lat="45.39484" lon="5.84317">
        <ele>960.5</ele>
        <time>2016-05-21T07:54:46Z</time>
      </trkpt>
      <trkpt lat="45.3949" lon="5.8431">
        <ele>959.8</ele>
        <time>2016-05-21T07:54:47Z</time>
      </trkpt>
      <trkpt lat="45.39498" lon="5.84308">
        <ele>959</ele>
        <time>2016-05-21T07:54:48Z</time>
      </trkpt>
      <trkpt lat="45.39508" lon="5.84307">
        <ele>958.5</ele>
        <time>2016-05-21T07:54:49Z</time>
      </trkpt>
      <trkpt lat="45.39516" lon="5.84307">
        <ele>958.3</ele>
        <time>2016-05-21T07:54:50Z</time>
      </trkpt>
      <trkpt lat="45.39526" lon="5.84308">
        <ele>957.6</ele>
        <time>2016-05-21T07:54:51Z</time>
      </trkpt>
      <trkpt lat="45.39536" lon="5.84309">
        <ele>956.2</ele>
        <time>2016-05-21T07:54:52Z</time>
      </trkpt>
      <trkpt lat="45.39546" lon="5.8431">
        <ele>954.8</ele>
        <time>2016-05-21T07:54:53Z</time>
      </trkpt>
      <trkpt lat="45.39557" lon="5.8431">
        <ele>953.1</ele>
        <time>2016-05-21T07:54:54Z</time>
      </trkpt>
      <trkpt lat="45.39567" lon="5.84309">
        <ele>951.3</ele>
        <time>2016-05-21T07:54:55Z</time>
      </trkpt>
      <trkpt lat="45.39579" lon="5.84308">
        <ele>949.7</ele>
        <time>2016-05-21T07:54:56Z</time>
      </trkpt>
      <trkpt lat="45.3959" lon="5.84307">
        <ele>948.3</ele>
        <time>2016-05-21T07:54:57Z</time>
      </trkpt>
      <trkpt lat="45.39599" lon="5.84307">
        <ele>947</ele>
        <time>2016-05-21T07:54:58Z</time>
      </trkpt>
      <trkpt lat="45.39606" lon="5.84314">
        <ele>946</ele>
        <time>2016-05-21T07:54:59Z</time>
      </trkpt>
      <trkpt lat="45.39612" lon="5.84324">
        <ele>944.9</ele>
        <time>2016-05-21T07:55:00Z</time>
      </trkpt>
      <trkpt lat="45.39617" lon="5.84334">
        <ele>943.6</ele>
        <time>2016-05-21T07:55:01Z</time>
      </trkpt>
      <trkpt lat="45.3962" lon="5.84345">
        <ele>942.7</ele>
        <time>2016-05-21T07:55:02Z</time>
      </trkpt>
      <trkpt lat="45.39624" lon="5.84355">
        <ele>942.1</ele>
        <time>2016-05-21T07:55:03Z</time>
      </trkpt>
      <trkpt lat="45.39628" lon="5.84365">
        <ele>941.9</ele>
        <time>2016-05-21T07:55:04Z</time>
      </trkpt>
      <trkpt lat="45.39635" lon="5.84371">
        <ele>941.8</ele>
        <time>2016-05-21T07:55:05Z</time>
      </trkpt>
      <trkpt lat="45.39642" lon="5.84374">
        <ele>942.2</ele>
        <time>2016-05-21T07:55:06Z</time>
      </trkpt>
      <trkpt lat="45.3965" lon="5.84372">
        <ele>942.8</ele>
        <time>2016-05-21T07:55:07Z</time>
      </trkpt>
      <trkpt lat="45.39657" lon="5.84366">
        <ele>943.7</ele>
        <time>2016-05-21T07:55:08Z</time>
      </trkpt>
      <trkpt lat="45.39664" lon="5.84358">
        <ele>944.1</ele>
        <time>2016-05-21T07:55:09Z</time>
      </trkpt>
      <trkpt lat="45.3967" lon="5.8435">
        <ele>944.4</ele>
        <time>2016-05-21T07:55:10Z</time>
      </trkpt>
      <trkpt lat="45.39679" lon="5.84344">
        <ele>944.6</ele>
        <time>2016-05-21T07:55:11Z</time>
      </trkpt>
      <trkpt lat="45.39688" lon="5.84342">
        <ele>944.3</ele>
        <time>2016-05-21T07:55:12Z</time>
      </trkpt>
      <trkpt lat="45.39698" lon="5.84344">
        <ele>943.7</ele>
        <time>2016-05-21T07:55:13Z</time>
      </trkpt>
      <trkpt lat="45.39705" lon="5.84347">
        <ele>943.4</ele>
        <time>2016-05-21T07:55:14Z</time>
      </trkpt>
      <trkpt lat="45.39714" lon="5.8435">
        <ele>943.1</ele>
        <time>2016-05-21T07:55:15Z</time>
      </trkpt>
      <trkpt lat="45.39723" lon="5.84352">
        <ele>942.3</ele>
        <time>2016-05-21T07:55:16Z</time>
      </trkpt>
      <trkpt lat="45.39733" lon="5.8435">
        <ele>941.6</ele>
        <time>2016-05-21T07:55:17Z</time>
      </trkpt>
      <trkpt lat="45.39743" lon="5.84348">
        <ele>940.9</ele>
        <time>2016-05-21T07:55:18Z</time>
      </trkpt>
      <trkpt lat="45.39753" lon="5.84348">
        <ele>940</ele>
        <time>2016-05-21T07:55:19Z</time>
      </trkpt>
      <trkpt lat="45.39763" lon="5.84348">
        <ele>939.1</ele>
        <time>2016-05-21T07:55:20Z</time>
      </trkpt>
      <trkpt lat="45.39773" lon="5.84349">
        <ele>938.1</ele>
        <time>2016-05-21T07:55:21Z</time>
      </trkpt>
      <trkpt lat="45.39783" lon="5.8435">
        <ele>937.1</ele>
        <time>2016-05-21T07:55:22Z</time>
      </trkpt>
      <trkpt lat="45.39793" lon="5.84352">
        <ele>936</ele>
        <time>2016-05-21T07:55:23Z</time>
      </trkpt>
      <trkpt lat="45.39802" lon="5.84355">
        <ele>934.8</ele>
        <time>2016-05-21T07:55:24Z</time>
      </trkpt>
      <trkpt lat="45.39811" lon="5.84359">
        <ele>934.2</ele>
        <time>2016-05-21T07:55:25Z</time>
      </trkpt>
      <trkpt lat="45.3982" lon="5.84362">
        <ele>933.9</ele>
        <time>2016-05-21T07:55:26Z</time>
      </trkpt>
      <trkpt lat="45.39829" lon="5.84366">
        <ele>933.9</ele>
        <time>2016-05-21T07:55:27Z</time>
      </trkpt>
      <trkpt lat="45.39838" lon="5.84369">
        <ele>934.1</ele>
        <time>2016-05-21T07:55:28Z</time>
      </trkpt>
      <trkpt lat="45.39847" lon="5.84373">
        <ele>934.4</ele>
        <time>2016-05-21T07:55:29Z</time>
      </trkpt>
      <trkpt lat="45.39855" lon="5.84377">
        <ele>934.7</ele>
        <time>2016-05-21T07:55:30Z</time>
      </trkpt>
      <trkpt lat="45.39864" lon="5.84381">
        <ele>935</ele>
        <time>2016-05-21T07:55:31Z</time>
      </trkpt>
      <trkpt lat="45.39871" lon="5.84385">
        <ele>935.4</ele>
        <time>2016-05-21T07:55:32Z</time>
      </trkpt>
      <trkpt lat="45.39884" lon="5.84387">
        <ele>936.1</ele>
        <time>2016-05-21T07:55:34Z</time>
      </trkpt>
      <trkpt lat="45.39894" lon="5.84387">
        <ele>935.4</ele>
        <time>2016-05-21T07:55:36Z</time>
      </trkpt>
      <trkpt lat="45.39905" lon="5.84387">
        <ele>934.6</ele>
        <time>2016-05-21T07:55:38Z</time>
      </trkpt>
      <trkpt lat="45.39916" lon="5.84386">
        <ele>934.2</ele>
        <time>2016-05-21T07:55:40Z</time>
      </trkpt>
      <trkpt lat="45.3993" lon="5.84384">
        <ele>934</ele>
        <time>2016-05-21T07:55:42Z</time>
      </trkpt>
      <trkpt lat="45.39938" lon="5.84382">
        <ele>934</ele>
        <time>2016-05-21T07:55:43Z</time>
      </trkpt>
      <trkpt lat="45.39946" lon="5.8438">
        <ele>934</ele>
        <time>2016-05-21T07:55:44Z</time>
      </trkpt>
      <trkpt lat="45.39954" lon="5.84378">
        <ele>934.2</ele>
        <time>2016-05-21T07:55:45Z</time>
      </trkpt>
      <trkpt lat="45.39963" lon="5.84376">
        <ele>934.3</ele>
        <time>2016-05-21T07:55:46Z</time>
      </trkpt>
      <trkpt lat="45.39972" lon="5.84374">
        <ele>934</ele>
        <time>2016-05-21T07:55:47Z</time>
      </trkpt>
      <trkpt lat="45.39983" lon="5.84371">
        <ele>933.3</ele>
        <time>2016-05-21T07:55:48Z</time>
      </trkpt>
      <trkpt lat="45.39993" lon="5.84369">
        <ele>932.5</ele>
        <time>2016-05-21T07:55:49Z</time>
      </trkpt>
      <trkpt lat="45.40004" lon="5.84366">
        <ele>931.7</ele>
        <time>2016-05-21T07:55:50Z</time>
      </trkpt>
      <trkpt lat="45.40014" lon="5.84363">
        <ele>930.9</ele>
        <time>2016-05-21T07:55:51Z</time>
      </trkpt>
      <trkpt lat="45.40024" lon="5.84361">
        <ele>930.2</ele>
        <time>2016-05-21T07:55:52Z</time>
      </trkpt>
      <trkpt lat="45.40034" lon="5.8436">
        <ele>929.6</ele>
        <time>2016-05-21T07:55:53Z</time>
      </trkpt>
      <trkpt lat="45.40044" lon="5.84363">
        <ele>928.8</ele>
        <time>2016-05-21T07:55:54Z</time>
      </trkpt>
      <trkpt lat="45.40055" lon="5.84366">
        <ele>928.1</ele>
        <time>2016-05-21T07:55:55Z</time>
      </trkpt>
      <trkpt lat="45.40065" lon="5.84368">
        <ele>927.6</ele>
        <time>2016-05-21T07:55:56Z</time>
      </trkpt>
      <trkpt lat="45.40077" lon="5.84371">
        <ele>926.8</ele>
        <time>2016-05-21T07:55:57Z</time>
      </trkpt>
      <trkpt lat="45.40088" lon="5.84374">
        <ele>925.9</ele>
        <time>2016-05-21T07:55:58Z</time>
      </trkpt>
      <trkpt lat="45.40099" lon="5.84378">
        <ele>925.1</ele>
        <time>2016-05-21T07:55:59Z</time>
      </trkpt>
      <trkpt lat="45.40109" lon="5.84383">
        <ele>924.3</ele>
        <time>2016-05-21T07:56:00Z</time>
      </trkpt>
      <trkpt lat="45.40121" lon="5.84389">
        <ele>923.5</ele>
        <time>2016-05-21T07:56:01Z</time>
      </trkpt>
      <trkpt lat="45.40132" lon="5.84396">
        <ele>922.8</ele>
        <time>2016-05-21T07:56:02Z</time>
      </trkpt>
      <trkpt lat="45.40142" lon="5.84403">
        <ele>922.3</ele>
        <time>2016-05-21T07:56:03Z</time>
      </trkpt>
      <trkpt lat="45.40153" lon="5.84409">
        <ele>921.9</ele>
        <time>2016-05-21T07:56:04Z</time>
      </trkpt>
      <trkpt lat="45.40162" lon="5.84416">
        <ele>921.7</ele>
        <time>2016-05-21T07:56:05Z</time>
      </trkpt>
      <trkpt lat="45.40172" lon="5.84422">
        <ele>921.4</ele>
        <time>2016-05-21T07:56:06Z</time>
      </trkpt>
      <trkpt lat="45.40183" lon="5.84424">
        <ele>921.1</ele>
        <time>2016-05-21T07:56:07Z</time>
      </trkpt>
      <trkpt lat="45.40193" lon="5.84425">
        <ele>921</ele>
        <time>2016-05-21T07:56:08Z</time>
      </trkpt>
      <trkpt lat="45.40203" lon="5.84423">
        <ele>921.1</ele>
        <time>2016-05-21T07:56:09Z</time>
      </trkpt>
      <trkpt lat="45.40215" lon="5.84422">
        <ele>921.1</ele>
        <time>2016-05-21T07:56:10Z</time>
      </trkpt>
      <trkpt lat="45.40227" lon="5.84418">
        <ele>921</ele>
        <time>2016-05-21T07:56:11Z</time>
      </trkpt>
      <trkpt lat="45.40238" lon="5.84415">
        <ele>920.6</ele>
        <time>2016-05-21T07:56:12Z</time>
      </trkpt>
      <trkpt lat="45.4025" lon="5.84411">
        <ele>919.6</ele>
        <time>2016-05-21T07:56:13Z</time>
      </trkpt>
      <trkpt lat="45.40262" lon="5.84406">
        <ele>918.3</ele>
        <time>2016-05-21T07:56:14Z</time>
      </trkpt>
      <trkpt lat="45.40274" lon="5.84402">
        <ele>917</ele>
        <time>2016-05-21T07:56:15Z</time>
      </trkpt>
      <trkpt lat="45.40286" lon="5.84398">
        <ele>915.6</ele>
        <time>2016-05-21T07:56:16Z</time>
      </trkpt>
      <trkpt lat="45.40297" lon="5.84395">
        <ele>914.1</ele>
        <time>2016-05-21T07:56:17Z</time>
      </trkpt>
      <trkpt lat="45.40307" lon="5.84393">
        <ele>912.5</ele>
        <time>2016-05-21T07:56:18Z</time>
      </trkpt>
      <trkpt lat="45.40316" lon="5.84387">
        <ele>910.7</ele>
        <time>2016-05-21T07:56:19Z</time>
      </trkpt>
      <trkpt lat="45.40326" lon="5.84381">
        <ele>908.4</ele>
        <time>2016-05-21T07:56:20Z</time>
      </trkpt>
      <trkpt lat="45.40335" lon="5.84374">
        <ele>906</ele>
        <time>2016-05-21T07:56:21Z</time>
      </trkpt>
      <trkpt lat="45.40344" lon="5.84366">
        <ele>904</ele>
        <time>2016-05-21T07:56:22Z</time>
      </trkpt>
      <trkpt lat="45.40353" lon="5.84365">
        <ele>902.5</ele>
        <time>2016-05-21T07:56:23Z</time>
      </trkpt>
      <trkpt lat="45.40364" lon="5.84367">
        <ele>900.9</ele>
        <time>2016-05-21T07:56:24Z</time>
      </trkpt>
      <trkpt lat="45.40373" lon="5.84371">
        <ele>899.7</ele>
        <time>2016-05-21T07:56:25Z</time>
      </trkpt>
      <trkpt lat="45.40382" lon="5.84375">
        <ele>898.6</ele>
        <time>2016-05-21T07:56:26Z</time>
      </trkpt>
      <trkpt lat="45.40391" lon="5.84381">
        <ele>897.7</ele>
        <time>2016-05-21T07:56:27Z</time>
      </trkpt>
      <trkpt lat="45.404" lon="5.84388">
        <ele>896.6</ele>
        <time>2016-05-21T07:56:28Z</time>
      </trkpt>
      <trkpt lat="45.4041" lon="5.84397">
        <ele>895.3</ele>
        <time>2016-05-21T07:56:29Z</time>
      </trkpt>
      <trkpt lat="45.40418" lon="5.84406">
        <ele>894</ele>
        <time>2016-05-21T07:56:30Z</time>
      </trkpt>
      <trkpt lat="45.40427" lon="5.84415">
        <ele>892.8</ele>
        <time>2016-05-21T07:56:31Z</time>
      </trkpt>
      <trkpt lat="45.40435" lon="5.84422">
        <ele>891.6</ele>
        <time>2016-05-21T07:56:32Z</time>
      </trkpt>
      <trkpt lat="45.40444" lon="5.84426">
        <ele>890.6</ele>
        <time>2016-05-21T07:56:33Z</time>
      </trkpt>
      <trkpt lat="45.40455" lon="5.84429">
        <ele>889.4</ele>
        <time>2016-05-21T07:56:34Z</time>
      </trkpt>
      <trkpt lat="45.40466" lon="5.84428">
        <ele>888.5</ele>
        <time>2016-05-21T07:56:35Z</time>
      </trkpt>
      <trkpt lat="45.40475" lon="5.84426">
        <ele>887.7</ele>
        <time>2016-05-21T07:56:36Z</time>
      </trkpt>
      <trkpt lat="45.40483" lon="5.84422">
        <ele>887.1</ele>
        <time>2016-05-21T07:56:37Z</time>
      </trkpt>
      <trkpt lat="45.40491" lon="5.84415">
        <ele>886.8</ele>
        <time>2016-05-21T07:56:38Z</time>
      </trkpt>
      <trkpt lat="45.40497" lon="5.84406">
        <ele>886.3</ele>
        <time>2016-05-21T07:56:39Z</time>
      </trkpt>
      <trkpt lat="45.40502" lon="5.84397">
        <ele>885.9</ele>
        <time>2016-05-21T07:56:40Z</time>
      </trkpt>
      <trkpt lat="45.40511" lon="5.84391">
        <ele>885.1</ele>
        <time>2016-05-21T07:56:42Z</time>
      </trkpt>
      <trkpt lat="45.40524" lon="5.84398">
        <ele>883.9</ele>
        <time>2016-05-21T07:56:44Z</time>
      </trkpt>
      <trkpt lat="45.40529" lon="5.84408">
        <ele>883.5</ele>
        <time>2016-05-21T07:56:45Z</time>
      </trkpt>
      <trkpt lat="45.40532" lon="5.84422">
        <ele>882.9</ele>
        <time>2016-05-21T07:56:46Z</time>
      </trkpt>
      <trkpt lat="45.40536" lon="5.84435">
        <ele>882.9</ele>
        <time>2016-05-21T07:56:47Z</time>
      </trkpt>
      <trkpt lat="45.40538" lon="5.8445">
        <ele>882.5</ele>
        <time>2016-05-21T07:56:48Z</time>
      </trkpt>
      <trkpt lat="45.40543" lon="5.84466">
        <ele>881.9</ele>
        <time>2016-05-21T07:56:49Z</time>
      </trkpt>
      <trkpt lat="45.4055" lon="5.84478">
        <ele>881.1</ele>
        <time>2016-05-21T07:56:50Z</time>
      </trkpt>
      <trkpt lat="45.40561" lon="5.84488">
        <ele>879.9</ele>
        <time>2016-05-21T07:56:51Z</time>
      </trkpt>
      <trkpt lat="45.40571" lon="5.84497">
        <ele>878.9</ele>
        <time>2016-05-21T07:56:52Z</time>
      </trkpt>
      <trkpt lat="45.40581" lon="5.84506">
        <ele>878.4</ele>
        <time>2016-05-21T07:56:53Z</time>
      </trkpt>
      <trkpt lat="45.40592" lon="5.84514">
        <ele>877.9</ele>
        <time>2016-05-21T07:56:54Z</time>
      </trkpt>
      <trkpt lat="45.40603" lon="5.84523">
        <ele>877.4</ele>
        <time>2016-05-21T07:56:55Z</time>
      </trkpt>
      <trkpt lat="45.40614" lon="5.84532">
        <ele>876.9</ele>
        <time>2016-05-21T07:56:56Z</time>
      </trkpt>
      <trkpt lat="45.40625" lon="5.8454">
        <ele>876.3</ele>
        <time>2016-05-21T07:56:57Z</time>
      </trkpt>
      <trkpt lat="45.40637" lon="5.84549">
        <ele>875.7</ele>
        <time>2016-05-21T07:56:58Z</time>
      </trkpt>
      <trkpt lat="45.40648" lon="5.8456">
        <ele>874.6</ele>
        <time>2016-05-21T07:56:59Z</time>
      </trkpt>
      <trkpt lat="45.4066" lon="5.84571">
        <ele>873.1</ele>
        <time>2016-05-21T07:57:00Z</time>
      </trkpt>
      <trkpt lat="45.40671" lon="5.84582">
        <ele>871.3</ele>
        <time>2016-05-21T07:57:01Z</time>
      </trkpt>
      <trkpt lat="45.40682" lon="5.84593">
        <ele>869.6</ele>
        <time>2016-05-21T07:57:02Z</time>
      </trkpt>
      <trkpt lat="45.40694" lon="5.84604">
        <ele>868.2</ele>
        <time>2016-05-21T07:57:03Z</time>
      </trkpt>
      <trkpt lat="45.40707" lon="5.84614">
        <ele>866.9</ele>
        <time>2016-05-21T07:57:04Z</time>
      </trkpt>
      <trkpt lat="45.4072" lon="5.84622">
        <ele>865.3</ele>
        <time>2016-05-21T07:57:05Z</time>
      </trkpt>
      <trkpt lat="45.40732" lon="5.8463">
        <ele>864.1</ele>
        <time>2016-05-21T07:57:06Z</time>
      </trkpt>
      <trkpt lat="45.40745" lon="5.84637">
        <ele>863</ele>
        <time>2016-05-21T07:57:07Z</time>
      </trkpt>
      <trkpt lat="45.40756" lon="5.84643">
        <ele>862.4</ele>
        <time>2016-05-21T07:57:08Z</time>
      </trkpt>
      <trkpt lat="45.40769" lon="5.84649">
        <ele>861.8</ele>
        <time>2016-05-21T07:57:09Z</time>
      </trkpt>
      <trkpt lat="45.40781" lon="5.84657">
        <ele>861.2</ele>
        <time>2016-05-21T07:57:10Z</time>
      </trkpt>
      <trkpt lat="45.40793" lon="5.84666">
        <ele>859.9</ele>
        <time>2016-05-21T07:57:11Z</time>
      </trkpt>
      <trkpt lat="45.40805" lon="5.84674">
        <ele>858.4</ele>
        <time>2016-05-21T07:57:12Z</time>
      </trkpt>
      <trkpt lat="45.40818" lon="5.84684">
        <ele>856.7</ele>
        <time>2016-05-21T07:57:13Z</time>
      </trkpt>
      <trkpt lat="45.40829" lon="5.84693">
        <ele>855.1</ele>
        <time>2016-05-21T07:57:14Z</time>
      </trkpt>
      <trkpt lat="45.40839" lon="5.84707">
        <ele>853.5</ele>
        <time>2016-05-21T07:57:15Z</time>
      </trkpt>
      <trkpt lat="45.40848" lon="5.84719">
        <ele>852.5</ele>
        <time>2016-05-21T07:57:16Z</time>
      </trkpt>
      <trkpt lat="45.40856" lon="5.8473">
        <ele>851.4</ele>
        <time>2016-05-21T07:57:17Z</time>
      </trkpt>
      <trkpt lat="45.40863" lon="5.8474">
        <ele>850.5</ele>
        <time>2016-05-21T07:57:18Z</time>
      </trkpt>
      <trkpt lat="45.40874" lon="5.84745">
        <ele>849.3</ele>
        <time>2016-05-21T07:57:19Z</time>
      </trkpt>
      <trkpt lat="45.40884" lon="5.84752">
        <ele>848</ele>
        <time>2016-05-21T07:57:20Z</time>
      </trkpt>
      <trkpt lat="45.40892" lon="5.84762">
        <ele>846.6</ele>
        <time>2016-05-21T07:57:21Z</time>
      </trkpt>
      <trkpt lat="45.409" lon="5.84775">
        <ele>845.3</ele>
        <time>2016-05-21T07:57:22Z</time>
      </trkpt>
      <trkpt lat="45.40908" lon="5.84788">
        <ele>843.5</ele>
        <time>2016-05-21T07:57:23Z</time>
      </trkpt>
      <trkpt lat="45.40917" lon="5.848">
        <ele>841.4</ele>
        <time>2016-05-21T07:57:24Z</time>
      </trkpt>
      <trkpt lat="45.40926" lon="5.84812">
        <ele>838.9</ele>
        <time>2016-05-21T07:57:25Z</time>
      </trkpt>
      <trkpt lat="45.40936" lon="5.84825">
        <ele>836.4</ele>
        <time>2016-05-21T07:57:26Z</time>
      </trkpt>
      <trkpt lat="45.40945" lon="5.84837">
        <ele>834.3</ele>
        <time>2016-05-21T07:57:27Z</time>
      </trkpt>
      <trkpt lat="45.40953" lon="5.84848">
        <ele>832.5</ele>
        <time>2016-05-21T07:57:28Z</time>
      </trkpt>
      <trkpt lat="45.40963" lon="5.84859">
        <ele>830.7</ele>
        <time>2016-05-21T07:57:29Z</time>
      </trkpt>
      <trkpt lat="45.40973" lon="5.8487">
        <ele>828.7</ele>
        <time>2016-05-21T07:57:30Z</time>
      </trkpt>
      <trkpt lat="45.40985" lon="5.84876">
        <ele>826.9</ele>
        <time>2016-05-21T07:57:31Z</time>
      </trkpt>
      <trkpt lat="45.40997" lon="5.84884">
        <ele>825</ele>
        <time>2016-05-21T07:57:32Z</time>
      </trkpt>
      <trkpt lat="45.41009" lon="5.84891">
        <ele>823.7</ele>
        <time>2016-05-21T07:57:33Z</time>
      </trkpt>
      <trkpt lat="45.41021" lon="5.84899">
        <ele>822.6</ele>
        <time>2016-05-21T07:57:34Z</time>
      </trkpt>
      <trkpt lat="45.41032" lon="5.84908">
        <ele>821.6</ele>
        <time>2016-05-21T07:57:35Z</time>
      </trkpt>
      <trkpt lat="45.41044" lon="5.84916">
        <ele>820.5</ele>
        <time>2016-05-21T07:57:36Z</time>
      </trkpt>
      <trkpt lat="45.41055" lon="5.84924">
        <ele>819.3</ele>
        <time>2016-05-21T07:57:37Z</time>
      </trkpt>
      <trkpt lat="45.41066" lon="5.84931">
        <ele>817.9</ele>
        <time>2016-05-21T07:57:38Z</time>
      </trkpt>
      <trkpt lat="45.41075" lon="5.84939">
        <ele>816.9</ele>
        <time>2016-05-21T07:57:39Z</time>
      </trkpt>
      <trkpt lat="45.41084" lon="5.8495">
        <ele>816.1</ele>
        <time>2016-05-21T07:57:40Z</time>
      </trkpt>
      <trkpt lat="45.41092" lon="5.84961">
        <ele>815.3</ele>
        <time>2016-05-21T07:57:41Z</time>
      </trkpt>
      <trkpt lat="45.411" lon="5.84972">
        <ele>814.1</ele>
        <time>2016-05-21T07:57:42Z</time>
      </trkpt>
      <trkpt lat="45.41108" lon="5.84983">
        <ele>813</ele>
        <time>2016-05-21T07:57:43Z</time>
      </trkpt>
      <trkpt lat="45.41117" lon="5.84992">
        <ele>811.7</ele>
        <time>2016-05-21T07:57:44Z</time>
      </trkpt>
      <trkpt lat="45.41124" lon="5.84999">
        <ele>810.5</ele>
        <time>2016-05-21T07:57:45Z</time>
      </trkpt>
      <trkpt lat="45.41133" lon="5.85005">
        <ele>809.5</ele>
        <time>2016-05-21T07:57:46Z</time>
      </trkpt>
      <trkpt lat="45.41141" lon="5.8501">
        <ele>808.7</ele>
        <time>2016-05-21T07:57:47Z</time>
      </trkpt>
      <trkpt lat="45.4115" lon="5.85016">
        <ele>807.9</ele>
        <time>2016-05-21T07:57:48Z</time>
      </trkpt>
      <trkpt lat="45.41157" lon="5.85026">
        <ele>806</ele>
        <time>2016-05-21T07:57:49Z</time>
      </trkpt>
      <trkpt lat="45.41163" lon="5.85035">
        <ele>803.6</ele>
        <time>2016-05-21T07:57:50Z</time>
      </trkpt>
      <trkpt lat="45.41168" lon="5.85054">
        <ele>799</ele>
        <time>2016-05-21T07:57:52Z</time>
      </trkpt>
      <trkpt lat="45.41172" lon="5.85064">
        <ele>797.2</ele>
        <time>2016-05-21T07:57:53Z</time>
      </trkpt>
      <trkpt lat="45.41181" lon="5.85073">
        <ele>795.6</ele>
        <time>2016-05-21T07:57:54Z</time>
      </trkpt>
      <trkpt lat="45.41189" lon="5.85082">
        <ele>793.8</ele>
        <time>2016-05-21T07:57:55Z</time>
      </trkpt>
      <trkpt lat="45.41198" lon="5.85091">
        <ele>792.3</ele>
        <time>2016-05-21T07:57:56Z</time>
      </trkpt>
      <trkpt lat="45.41208" lon="5.85098">
        <ele>790.9</ele>
        <time>2016-05-21T07:57:57Z</time>
      </trkpt>
      <trkpt lat="45.41219" lon="5.85105">
        <ele>789.4</ele>
        <time>2016-05-21T07:57:58Z</time>
      </trkpt>
      <trkpt lat="45.41229" lon="5.85113">
        <ele>787.8</ele>
        <time>2016-05-21T07:57:59Z</time>
      </trkpt>
      <trkpt lat="45.4124" lon="5.85119">
        <ele>786.1</ele>
        <time>2016-05-21T07:58:00Z</time>
      </trkpt>
      <trkpt lat="45.4125" lon="5.85123">
        <ele>784.5</ele>
        <time>2016-05-21T07:58:01Z</time>
      </trkpt>
      <trkpt lat="45.4126" lon="5.85124">
        <ele>782.7</ele>
        <time>2016-05-21T07:58:02Z</time>
      </trkpt>
      <trkpt lat="45.41269" lon="5.85124">
        <ele>780.7</ele>
        <time>2016-05-21T07:58:03Z</time>
      </trkpt>
      <trkpt lat="45.41277" lon="5.85124">
        <ele>778.9</ele>
        <time>2016-05-21T07:58:04Z</time>
      </trkpt>
      <trkpt lat="45.41285" lon="5.85126">
        <ele>777.6</ele>
        <time>2016-05-21T07:58:05Z</time>
      </trkpt>
      <trkpt lat="45.41291" lon="5.85134">
        <ele>776.4</ele>
        <time>2016-05-21T07:58:06Z</time>
      </trkpt>
      <trkpt lat="45.41298" lon="5.85143">
        <ele>775</ele>
        <time>2016-05-21T07:58:07Z</time>
      </trkpt>
      <trkpt lat="45.41305" lon="5.85153">
        <ele>773.7</ele>
        <time>2016-05-21T07:58:08Z</time>
      </trkpt>
      <trkpt lat="45.41312" lon="5.85162">
        <ele>772.2</ele>
        <time>2016-05-21T07:58:09Z</time>
      </trkpt>
      <trkpt lat="45.41319" lon="5.85172">
        <ele>770.7</ele>
        <time>2016-05-21T07:58:10Z</time>
      </trkpt>
      <trkpt lat="45.41326" lon="5.85181">
        <ele>769.3</ele>
        <time>2016-05-21T07:58:11Z</time>
      </trkpt>
      <trkpt lat="45.41333" lon="5.85189">
        <ele>767.8</ele>
        <time>2016-05-21T07:58:12Z</time>
      </trkpt>
      <trkpt lat="45.41338" lon="5.85206">
        <ele>765.6</ele>
        <time>2016-05-21T07:58:14Z</time>
      </trkpt>
      <trkpt lat="45.41332" lon="5.85217">
        <ele>761.9</ele>
        <time>2016-05-21T07:58:16Z</time>
      </trkpt>
      <trkpt lat="45.41317" lon="5.85225">
        <ele>759</ele>
        <time>2016-05-21T07:58:18Z</time>
      </trkpt>
      <trkpt lat="45.41309" lon="5.85228">
        <ele>758.3</ele>
        <time>2016-05-21T07:58:19Z</time>
      </trkpt>
      <trkpt lat="45.413" lon="5.8523">
        <ele>757.7</ele>
        <time>2016-05-21T07:58:20Z</time>
      </trkpt>
      <trkpt lat="45.4129" lon="5.85229">
        <ele>756.6</ele>
        <time>2016-05-21T07:58:21Z</time>
      </trkpt>
      <trkpt lat="45.41279" lon="5.85226">
        <ele>755.3</ele>
        <time>2016-05-21T07:58:22Z</time>
      </trkpt>
      <trkpt lat="45.41268" lon="5.85224">
        <ele>753.7</ele>
        <time>2016-05-21T07:58:23Z</time>
      </trkpt>
      <trkpt lat="45.41258" lon="5.85224">
        <ele>752.3</ele>
        <time>2016-05-21T07:58:24Z</time>
      </trkpt>
      <trkpt lat="45.41248" lon="5.85224">
        <ele>751.2</ele>
        <time>2016-05-21T07:58:25Z</time>
      </trkpt>
      <trkpt lat="45.4124" lon="5.85225">
        <ele>750.2</ele>
        <time>2016-05-21T07:58:26Z</time>
      </trkpt>
      <trkpt lat="45.4123" lon="5.85226">
        <ele>749.5</ele>
        <time>2016-05-21T07:58:27Z</time>
      </trkpt>
      <trkpt lat="45.41222" lon="5.85225">
        <ele>748.3</ele>
        <time>2016-05-21T07:58:28Z</time>
      </trkpt>
      <trkpt lat="45.41212" lon="5.85222">
        <ele>747</ele>
        <time>2016-05-21T07:58:29Z</time>
      </trkpt>
      <trkpt lat="45.412" lon="5.85219">
        <ele>745.9</ele>
        <time>2016-05-21T07:58:30Z</time>
      </trkpt>
      <trkpt lat="45.41189" lon="5.85216">
        <ele>744.6</ele>
        <time>2016-05-21T07:58:31Z</time>
      </trkpt>
      <trkpt lat="45.41179" lon="5.85214">
        <ele>743.4</ele>
        <time>2016-05-21T07:58:32Z</time>
      </trkpt>
      <trkpt lat="45.41168" lon="5.85212">
        <ele>742.2</ele>
        <time>2016-05-21T07:58:33Z</time>
      </trkpt>
      <trkpt lat="45.41157" lon="5.8521">
        <ele>740.8</ele>
        <time>2016-05-21T07:58:34Z</time>
      </trkpt>
      <trkpt lat="45.41148" lon="5.85209">
        <ele>739.6</ele>
        <time>2016-05-21T07:58:35Z</time>
      </trkpt>
      <trkpt lat="45.41139" lon="5.85206">
        <ele>738.5</ele>
        <time>2016-05-21T07:58:36Z</time>
      </trkpt>
      <trkpt lat="45.4113" lon="5.85204">
        <ele>737.5</ele>
        <time>2016-05-21T07:58:37Z</time>
      </trkpt>
      <trkpt lat="45.41122" lon="5.85203">
        <ele>736.6</ele>
        <time>2016-05-21T07:58:38Z</time>
      </trkpt>
      <trkpt lat="45.41115" lon="5.85205">
        <ele>735.6</ele>
        <time>2016-05-21T07:58:39Z</time>
      </trkpt>
      <trkpt lat="45.41109" lon="5.8521">
        <ele>734.6</ele>
        <time>2016-05-21T07:58:40Z</time>
      </trkpt>
      <trkpt lat="45.41102" lon="5.85226">
        <ele>733.1</ele>
        <time>2016-05-21T07:58:42Z</time>
      </trkpt>
      <trkpt lat="45.41103" lon="5.85246">
        <ele>731.8</ele>
        <time>2016-05-21T07:58:44Z</time>
      </trkpt>
      <trkpt lat="45.41104" lon="5.85258">
        <ele>731.3</ele>
        <time>2016-05-21T07:58:45Z</time>
      </trkpt>
      <trkpt lat="45.41107" lon="5.8527">
        <ele>730.7</ele>
        <time>2016-05-21T07:58:46Z</time>
      </trkpt>
      <trkpt lat="45.41112" lon="5.85281">
        <ele>729.9</ele>
        <time>2016-05-21T07:58:47Z</time>
      </trkpt>
      <trkpt lat="45.41118" lon="5.85289">
        <ele>729.2</ele>
        <time>2016-05-21T07:58:48Z</time>
      </trkpt>
      <trkpt lat="45.41125" lon="5.85295">
        <ele>728.7</ele>
        <time>2016-05-21T07:58:49Z</time>
      </trkpt>
      <trkpt lat="45.41132" lon="5.85298">
        <ele>728.5</ele>
        <time>2016-05-21T07:58:50Z</time>
      </trkpt>
      <trkpt lat="45.4114" lon="5.853">
        <ele>728.3</ele>
        <time>2016-05-21T07:58:51Z</time>
      </trkpt>
      <trkpt lat="45.41148" lon="5.85301">
        <ele>728.2</ele>
        <time>2016-05-21T07:58:52Z</time>
      </trkpt>
      <trkpt lat="45.41157" lon="5.85302">
        <ele>727.5</ele>
        <time>2016-05-21T07:58:53Z</time>
      </trkpt>
      <trkpt lat="45.41166" lon="5.85308">
        <ele>726.8</ele>
        <time>2016-05-21T07:58:54Z</time>
      </trkpt>
      <trkpt lat="45.41175" lon="5.85314">
        <ele>725.8</ele>
        <time>2016-05-21T07:58:55Z</time>
      </trkpt>
      <trkpt lat="45.41181" lon="5.85318">
        <ele>725</ele>
        <time>2016-05-21T07:58:56Z</time>
      </trkpt>
      <trkpt lat="45.4119" lon="5.85325">
        <ele>724</ele>
        <time>2016-05-21T07:58:57Z</time>
      </trkpt>
      <trkpt lat="45.41198" lon="5.85331">
        <ele>722.8</ele>
        <time>2016-05-21T07:58:58Z</time>
      </trkpt>
      <trkpt lat="45.41207" lon="5.85338">
        <ele>721.1</ele>
        <time>2016-05-21T07:58:59Z</time>
      </trkpt>
      <trkpt lat="45.41215" lon="5.85344">
        <ele>719.7</ele>
        <time>2016-05-21T07:59:00Z</time>
      </trkpt>
      <trkpt lat="45.41224" lon="5.8535">
        <ele>718.4</ele>
        <time>2016-05-21T07:59:01Z</time>
      </trkpt>
      <trkpt lat="45.41233" lon="5.85355">
        <ele>717.4</ele>
        <time>2016-05-21T07:59:02Z</time>
      </trkpt>
      <trkpt lat="45.41242" lon="5.85359">
        <ele>716.2</ele>
        <time>2016-05-21T07:59:03Z</time>
      </trkpt>
      <trkpt lat="45.41251" lon="5.85364">
        <ele>715.1</ele>
        <time>2016-05-21T07:59:04Z</time>
      </trkpt>
      <trkpt lat="45.4126" lon="5.85369">
        <ele>714</ele>
        <time>2016-05-21T07:59:05Z</time>
      </trkpt>
      <trkpt lat="45.4127" lon="5.85373">
        <ele>712.8</ele>
        <time>2016-05-21T07:59:06Z</time>
      </trkpt>
      <trkpt lat="45.41279" lon="5.85378">
        <ele>711.7</ele>
        <time>2016-05-21T07:59:07Z</time>
      </trkpt>
      <trkpt lat="45.41288" lon="5.85382">
        <ele>710.5</ele>
        <time>2016-05-21T07:59:08Z</time>
      </trkpt>
      <trkpt lat="45.41297" lon="5.85386">
        <ele>709.3</ele>
        <time>2016-05-21T07:59:09Z</time>
      </trkpt>
      <trkpt lat="45.41306" lon="5.8539">
        <ele>708.3</ele>
        <time>2016-05-21T07:59:10Z</time>
      </trkpt>
      <trkpt lat="45.41314" lon="5.85394">
        <ele>707.5</ele>
        <time>2016-05-21T07:59:11Z</time>
      </trkpt>
      <trkpt lat="45.41326" lon="5.85404">
        <ele>706.4</ele>
        <time>2016-05-21T07:59:13Z</time>
      </trkpt>
      <trkpt lat="45.41333" lon="5.8541">
        <ele>705.8</ele>
        <time>2016-05-21T07:59:14Z</time>
      </trkpt>
      <trkpt lat="45.4134" lon="5.85415">
        <ele>705.1</ele>
        <time>2016-05-21T07:59:15Z</time>
      </trkpt>
      <trkpt lat="45.41347" lon="5.85421">
        <ele>704.6</ele>
        <time>2016-05-21T07:59:16Z</time>
      </trkpt>
      <trkpt lat="45.41353" lon="5.85427">
        <ele>703.8</ele>
        <time>2016-05-21T07:59:17Z</time>
      </trkpt>
      <trkpt lat="45.41362" lon="5.85439">
        <ele>701.4</ele>
        <time>2016-05-21T07:59:19Z</time>
      </trkpt>
      <trkpt lat="45.4137" lon="5.85448">
        <ele>699.7</ele>
        <time>2016-05-21T07:59:21Z</time>
      </trkpt>
      <trkpt lat="45.41376" lon="5.85455">
        <ele>699.3</ele>
        <time>2016-05-21T07:59:24Z</time>
      </trkpt>
      <trkpt lat="45.41378" lon="5.85455">
        <ele>699</ele>
        <time>2016-05-21T07:59:31Z</time>
      </trkpt>
      <trkpt lat="45.41383" lon="5.85467">
        <ele>697.2</ele>
        <time>2016-05-21T08:04:37Z</time>
      </trkpt>
      <trkpt lat="45.41378" lon="5.85467">
        <ele>697.5</ele>
        <time>2016-05-21T08:06:25Z</time>
      </trkpt>
      <trkpt lat="45.41385" lon="5.8547">
        <ele>698.7</ele>
        <time>2016-05-21T08:10:07Z</time>
      </trkpt>
      <trkpt lat="45.41387" lon="5.85463">
        <ele>699.3</ele>
        <time>2016-05-21T08:11:26Z</time>
      </trkpt>
      <trkpt lat="45.41393" lon="5.85462">
        <ele>699.2</ele>
        <time>2016-05-21T08:12:31Z</time>
      </trkpt>
      <trkpt lat="45.41402" lon="5.85464">
        <ele>699.9</ele>
        <time>2016-05-21T08:12:34Z</time>
      </trkpt>
      <trkpt lat="45.41413" lon="5.85466">
        <ele>704.3</ele>
        <time>2016-05-21T08:12:37Z</time>
      </trkpt>
      <trkpt lat="45.41421" lon="5.85467">
        <ele>706.4</ele>
        <time>2016-05-21T08:12:39Z</time>
      </trkpt>
      <trkpt lat="45.41429" lon="5.85468">
        <ele>707.7</ele>
        <time>2016-05-21T08:12:41Z</time>
      </trkpt>
      <trkpt lat="45.41439" lon="5.8547">
        <ele>708.9</ele>
        <time>2016-05-21T08:12:44Z</time>
      </trkpt>
      <trkpt lat="45.41449" lon="5.85467">
        <ele>707.2</ele>
        <time>2016-05-21T08:12:46Z</time>
      </trkpt>
      <trkpt lat="45.41457" lon="5.85467">
        <ele>706.8</ele>
        <time>2016-05-21T08:12:48Z</time>
      </trkpt>
      <trkpt lat="45.41465" lon="5.85469">
        <ele>707.1</ele>
        <time>2016-05-21T08:12:50Z</time>
      </trkpt>
      <trkpt lat="45.41474" lon="5.8547">
        <ele>706.4</ele>
        <time>2016-05-21T08:12:52Z</time>
      </trkpt>
      <trkpt lat="45.41482" lon="5.85471">
        <ele>705.9</ele>
        <time>2016-05-21T08:12:54Z</time>
      </trkpt>
      <trkpt lat="45.4149" lon="5.85473">
        <ele>705.9</ele>
        <time>2016-05-21T08:12:56Z</time>
      </trkpt>
      <trkpt lat="45.41498" lon="5.85473">
        <ele>705.8</ele>
        <time>2016-05-21T08:12:58Z</time>
      </trkpt>
      <trkpt lat="45.41508" lon="5.85472">
        <ele>706.6</ele>
        <time>2016-05-21T08:13:01Z</time>
      </trkpt>
      <trkpt lat="45.41515" lon="5.85472">
        <ele>707</ele>
        <time>2016-05-21T08:13:03Z</time>
      </trkpt>
      <trkpt lat="45.41523" lon="5.85472">
        <ele>707.3</ele>
        <time>2016-05-21T08:13:05Z</time>
      </trkpt>
      <trkpt lat="45.41532" lon="5.8547">
        <ele>707.1</ele>
        <time>2016-05-21T08:13:07Z</time>
      </trkpt>
      <trkpt lat="45.41542" lon="5.85469">
        <ele>706</ele>
        <time>2016-05-21T08:13:09Z</time>
      </trkpt>
      <trkpt lat="45.41553" lon="5.85468">
        <ele>704.9</ele>
        <time>2016-05-21T08:13:11Z</time>
      </trkpt>
      <trkpt lat="45.41564" lon="5.85465">
        <ele>703.2</ele>
        <time>2016-05-21T08:13:13Z</time>
      </trkpt>
      <trkpt lat="45.41574" lon="5.85459">
        <ele>702.2</ele>
        <time>2016-05-21T08:13:15Z</time>
      </trkpt>
      <trkpt lat="45.41585" lon="5.85454">
        <ele>700.7</ele>
        <time>2016-05-21T08:13:17Z</time>
      </trkpt>
      <trkpt lat="45.41596" lon="5.85453">
        <ele>699.3</ele>
        <time>2016-05-21T08:13:19Z</time>
      </trkpt>
      <trkpt lat="45.41608" lon="5.85449">
        <ele>698</ele>
        <time>2016-05-21T08:13:21Z</time>
      </trkpt>
      <trkpt lat="45.41619" lon="5.85445">
        <ele>697.4</ele>
        <time>2016-05-21T08:13:23Z</time>
      </trkpt>
      <trkpt lat="45.41631" lon="5.85439">
        <ele>697.9</ele>
        <time>2016-05-21T08:13:25Z</time>
      </trkpt>
      <trkpt lat="45.41642" lon="5.85435">
        <ele>697.5</ele>
        <time>2016-05-21T08:13:27Z</time>
      </trkpt>
      <trkpt lat="45.41652" lon="5.8544">
        <ele>695.6</ele>
        <time>2016-05-21T08:13:29Z</time>
      </trkpt>
      <trkpt lat="45.41661" lon="5.85448">
        <ele>693.9</ele>
        <time>2016-05-21T08:13:31Z</time>
      </trkpt>
      <trkpt lat="45.41672" lon="5.85455">
        <ele>693.3</ele>
        <time>2016-05-21T08:13:33Z</time>
      </trkpt>
      <trkpt lat="45.41684" lon="5.85459">
        <ele>693.2</ele>
        <time>2016-05-21T08:13:35Z</time>
      </trkpt>
      <trkpt lat="45.41695" lon="5.85464">
        <ele>692.9</ele>
        <time>2016-05-21T08:13:37Z</time>
      </trkpt>
      <trkpt lat="45.41707" lon="5.85467">
        <ele>692.1</ele>
        <time>2016-05-21T08:13:39Z</time>
      </trkpt>
      <trkpt lat="45.41719" lon="5.85473">
        <ele>690</ele>
        <time>2016-05-21T08:13:41Z</time>
      </trkpt>
      <trkpt lat="45.41732" lon="5.85477">
        <ele>689.4</ele>
        <time>2016-05-21T08:13:43Z</time>
      </trkpt>
      <trkpt lat="45.41744" lon="5.8548">
        <ele>689.4</ele>
        <time>2016-05-21T08:13:45Z</time>
      </trkpt>
      <trkpt lat="45.41757" lon="5.85485">
        <ele>687.9</ele>
        <time>2016-05-21T08:13:47Z</time>
      </trkpt>
      <trkpt lat="45.4177" lon="5.8549">
        <ele>686</ele>
        <time>2016-05-21T08:13:49Z</time>
      </trkpt>
      <trkpt lat="45.41781" lon="5.85495">
        <ele>684.3</ele>
        <time>2016-05-21T08:13:51Z</time>
      </trkpt>
      <trkpt lat="45.41791" lon="5.85503">
        <ele>683.8</ele>
        <time>2016-05-21T08:13:53Z</time>
      </trkpt>
      <trkpt lat="45.418" lon="5.85514">
        <ele>683.4</ele>
        <time>2016-05-21T08:13:55Z</time>
      </trkpt>
      <trkpt lat="45.41807" lon="5.85525">
        <ele>683.5</ele>
        <time>2016-05-21T08:13:57Z</time>
      </trkpt>
      <trkpt lat="45.41814" lon="5.85537">
        <ele>683.1</ele>
        <time>2016-05-21T08:13:59Z</time>
      </trkpt>
      <trkpt lat="45.41821" lon="5.85551">
        <ele>683.6</ele>
        <time>2016-05-21T08:14:01Z</time>
      </trkpt>
      <trkpt lat="45.41828" lon="5.85563">
        <ele>685.5</ele>
        <time>2016-05-21T08:14:03Z</time>
      </trkpt>
      <trkpt lat="45.41834" lon="5.85575">
        <ele>687.1</ele>
        <time>2016-05-21T08:14:05Z</time>
      </trkpt>
      <trkpt lat="45.41841" lon="5.85587">
        <ele>687.6</ele>
        <time>2016-05-21T08:14:07Z</time>
      </trkpt>
      <trkpt lat="45.41847" lon="5.85601">
        <ele>686.6</ele>
        <time>2016-05-21T08:14:09Z</time>
      </trkpt>
      <trkpt lat="45.41855" lon="5.85614">
        <ele>686.5</ele>
        <time>2016-05-21T08:14:11Z</time>
      </trkpt>
      <trkpt lat="45.41863" lon="5.85626">
        <ele>687.6</ele>
        <time>2016-05-21T08:14:13Z</time>
      </trkpt>
      <trkpt lat="45.41872" lon="5.85637">
        <ele>689.1</ele>
        <time>2016-05-21T08:14:15Z</time>
      </trkpt>
      <trkpt lat="45.41881" lon="5.85648">
        <ele>690.5</ele>
        <time>2016-05-21T08:14:17Z</time>
      </trkpt>
      <trkpt lat="45.4189" lon="5.85661">
        <ele>691</ele>
        <time>2016-05-21T08:14:19Z</time>
      </trkpt>
      <trkpt lat="45.41897" lon="5.85673">
        <ele>692.1</ele>
        <time>2016-05-21T08:14:21Z</time>
      </trkpt>
      <trkpt lat="45.41905" lon="5.85685">
        <ele>694.3</ele>
        <time>2016-05-21T08:14:23Z</time>
      </trkpt>
      <trkpt lat="45.41913" lon="5.85698">
        <ele>695.7</ele>
        <time>2016-05-21T08:14:25Z</time>
      </trkpt>
      <trkpt lat="45.41921" lon="5.85712">
        <ele>696.3</ele>
        <time>2016-05-21T08:14:27Z</time>
      </trkpt>
      <trkpt lat="45.41929" lon="5.85727">
        <ele>696.2</ele>
        <time>2016-05-21T08:14:29Z</time>
      </trkpt>
      <trkpt lat="45.41937" lon="5.85742">
        <ele>695.7</ele>
        <time>2016-05-21T08:14:31Z</time>
      </trkpt>
      <trkpt lat="45.41945" lon="5.85756">
        <ele>694.9</ele>
        <time>2016-05-21T08:14:33Z</time>
      </trkpt>
      <trkpt lat="45.41955" lon="5.8577">
        <ele>694.1</ele>
        <time>2016-05-21T08:14:35Z</time>
      </trkpt>
      <trkpt lat="45.41964" lon="5.85782">
        <ele>693.1</ele>
        <time>2016-05-21T08:14:37Z</time>
      </trkpt>
      <trkpt lat="45.41974" lon="5.85792">
        <ele>692.1</ele>
        <time>2016-05-21T08:14:39Z</time>
      </trkpt>
      <trkpt lat="45.41985" lon="5.85801">
        <ele>691.1</ele>
        <time>2016-05-21T08:14:41Z</time>
      </trkpt>
      <trkpt lat="45.41997" lon="5.85807">
        <ele>690.8</ele>
        <time>2016-05-21T08:14:43Z</time>
      </trkpt>
      <trkpt lat="45.42008" lon="5.85813">
        <ele>690.8</ele>
        <time>2016-05-21T08:14:45Z</time>
      </trkpt>
      <trkpt lat="45.4202" lon="5.85819">
        <ele>690.8</ele>
        <time>2016-05-21T08:14:47Z</time>
      </trkpt>
      <trkpt lat="45.42033" lon="5.85825">
        <ele>690.7</ele>
        <time>2016-05-21T08:14:49Z</time>
      </trkpt>
      <trkpt lat="45.42044" lon="5.85831">
        <ele>690.6</ele>
        <time>2016-05-21T08:14:51Z</time>
      </trkpt>
      <trkpt lat="45.42054" lon="5.85836">
        <ele>690.4</ele>
        <time>2016-05-21T08:14:53Z</time>
      </trkpt>
      <trkpt lat="45.42064" lon="5.85842">
        <ele>690.8</ele>
        <time>2016-05-21T08:14:55Z</time>
      </trkpt>
      <trkpt lat="45.42074" lon="5.85847">
        <ele>691.5</ele>
        <time>2016-05-21T08:14:57Z</time>
      </trkpt>
      <trkpt lat="45.42083" lon="5.85852">
        <ele>692.2</ele>
        <time>2016-05-21T08:14:59Z</time>
      </trkpt>
      <trkpt lat="45.42094" lon="5.85858">
        <ele>692.7</ele>
        <time>2016-05-21T08:15:01Z</time>
      </trkpt>
      <trkpt lat="45.42104" lon="5.85866">
        <ele>693.2</ele>
        <time>2016-05-21T08:15:03Z</time>
      </trkpt>
      <trkpt lat="45.42111" lon="5.85877">
        <ele>694</ele>
        <time>2016-05-21T08:15:05Z</time>
      </trkpt>
      <trkpt lat="45.42116" lon="5.85892">
        <ele>694.8</ele>
        <time>2016-05-21T08:15:07Z</time>
      </trkpt>
      <trkpt lat="45.4212" lon="5.85908">
        <ele>695.5</ele>
        <time>2016-05-21T08:15:09Z</time>
      </trkpt>
      <trkpt lat="45.4212" lon="5.85923">
        <ele>696.1</ele>
        <time>2016-05-21T08:15:11Z</time>
      </trkpt>
      <trkpt lat="45.42119" lon="5.85939">
        <ele>696.7</ele>
        <time>2016-05-21T08:15:13Z</time>
      </trkpt>
      <trkpt lat="45.42118" lon="5.85955">
        <ele>697.3</ele>
        <time>2016-05-21T08:15:15Z</time>
      </trkpt>
      <trkpt lat="45.42119" lon="5.8597">
        <ele>697.9</ele>
        <time>2016-05-21T08:15:17Z</time>
      </trkpt>
      <trkpt lat="45.42118" lon="5.85986">
        <ele>698.5</ele>
        <time>2016-05-21T08:15:19Z</time>
      </trkpt>
      <trkpt lat="45.42117" lon="5.86001">
        <ele>699.7</ele>
        <time>2016-05-21T08:15:21Z</time>
      </trkpt>
      <trkpt lat="45.42115" lon="5.8602">
        <ele>700</ele>
        <time>2016-05-21T08:15:23Z</time>
      </trkpt>
      <trkpt lat="45.42113" lon="5.86037">
        <ele>699.9</ele>
        <time>2016-05-21T08:15:25Z</time>
      </trkpt>
      <trkpt lat="45.42112" lon="5.86053">
        <ele>699.8</ele>
        <time>2016-05-21T08:15:27Z</time>
      </trkpt>
      <trkpt lat="45.42113" lon="5.86068">
        <ele>701.2</ele>
        <time>2016-05-21T08:15:29Z</time>
      </trkpt>
      <trkpt lat="45.42114" lon="5.86085">
        <ele>701.8</ele>
        <time>2016-05-21T08:15:31Z</time>
      </trkpt>
      <trkpt lat="45.42121" lon="5.86102">
        <ele>701.8</ele>
        <time>2016-05-21T08:15:33Z</time>
      </trkpt>
      <trkpt lat="45.42128" lon="5.86115">
        <ele>702.3</ele>
        <time>2016-05-21T08:15:35Z</time>
      </trkpt>
      <trkpt lat="45.42138" lon="5.86125">
        <ele>703.1</ele>
        <time>2016-05-21T08:15:37Z</time>
      </trkpt>
      <trkpt lat="45.42148" lon="5.86134">
        <ele>703.8</ele>
        <time>2016-05-21T08:15:39Z</time>
      </trkpt>
      <trkpt lat="45.42158" lon="5.86138">
        <ele>704.3</ele>
        <time>2016-05-21T08:15:41Z</time>
      </trkpt>
      <trkpt lat="45.42169" lon="5.86142">
        <ele>704.5</ele>
        <time>2016-05-21T08:15:43Z</time>
      </trkpt>
      <trkpt lat="45.42179" lon="5.86147">
        <ele>705.1</ele>
        <time>2016-05-21T08:15:45Z</time>
      </trkpt>
      <trkpt lat="45.42189" lon="5.86151">
        <ele>706.3</ele>
        <time>2016-05-21T08:15:47Z</time>
      </trkpt>
      <trkpt lat="45.422" lon="5.86154">
        <ele>707</ele>
        <time>2016-05-21T08:15:49Z</time>
      </trkpt>
      <trkpt lat="45.42211" lon="5.86157">
        <ele>707.4</ele>
        <time>2016-05-21T08:15:51Z</time>
      </trkpt>
      <trkpt lat="45.42222" lon="5.86161">
        <ele>707.7</ele>
        <time>2016-05-21T08:15:53Z</time>
      </trkpt>
      <trkpt lat="45.42234" lon="5.86163">
        <ele>707.9</ele>
        <time>2016-05-21T08:15:55Z</time>
      </trkpt>
      <trkpt lat="45.42246" lon="5.86166">
        <ele>707.7</ele>
        <time>2016-05-21T08:15:57Z</time>
      </trkpt>
      <trkpt lat="45.42257" lon="5.8617">
        <ele>707</ele>
        <time>2016-05-21T08:15:59Z</time>
      </trkpt>
      <trkpt lat="45.42268" lon="5.86173">
        <ele>706.9</ele>
        <time>2016-05-21T08:16:01Z</time>
      </trkpt>
      <trkpt lat="45.42277" lon="5.86176">
        <ele>707.2</ele>
        <time>2016-05-21T08:16:03Z</time>
      </trkpt>
      <trkpt lat="45.42287" lon="5.86181">
        <ele>708.1</ele>
        <time>2016-05-21T08:16:05Z</time>
      </trkpt>
      <trkpt lat="45.42297" lon="5.86187">
        <ele>708.9</ele>
        <time>2016-05-21T08:16:07Z</time>
      </trkpt>
      <trkpt lat="45.42304" lon="5.86193">
        <ele>709.2</ele>
        <time>2016-05-21T08:16:09Z</time>
      </trkpt>
      <trkpt lat="45.42312" lon="5.86203">
        <ele>709.1</ele>
        <time>2016-05-21T08:16:11Z</time>
      </trkpt>
      <trkpt lat="45.4232" lon="5.8621">
        <ele>709.2</ele>
        <time>2016-05-21T08:16:13Z</time>
      </trkpt>
      <trkpt lat="45.42324" lon="5.86224">
        <ele>708.2</ele>
        <time>2016-05-21T08:16:16Z</time>
      </trkpt>
      <trkpt lat="45.42334" lon="5.86233">
        <ele>709.9</ele>
        <time>2016-05-21T08:16:18Z</time>
      </trkpt>
      <trkpt lat="45.42343" lon="5.86241">
        <ele>711</ele>
        <time>2016-05-21T08:16:20Z</time>
      </trkpt>
      <trkpt lat="45.42353" lon="5.86251">
        <ele>713.5</ele>
        <time>2016-05-21T08:16:22Z</time>
      </trkpt>
      <trkpt lat="45.42363" lon="5.86263">
        <ele>715.2</ele>
        <time>2016-05-21T08:16:24Z</time>
      </trkpt>
      <trkpt lat="45.42369" lon="5.86269">
        <ele>715.3</ele>
        <time>2016-05-21T08:16:25Z</time>
      </trkpt>
      <trkpt lat="45.42378" lon="5.8628">
        <ele>715.7</ele>
        <time>2016-05-21T08:16:27Z</time>
      </trkpt>
      <trkpt lat="45.42385" lon="5.86291">
        <ele>715.5</ele>
        <time>2016-05-21T08:16:29Z</time>
      </trkpt>
      <trkpt lat="45.42391" lon="5.86304">
        <ele>715.3</ele>
        <time>2016-05-21T08:16:31Z</time>
      </trkpt>
      <trkpt lat="45.42398" lon="5.86317">
        <ele>716.2</ele>
        <time>2016-05-21T08:16:33Z</time>
      </trkpt>
      <trkpt lat="45.42405" lon="5.86332">
        <ele>718.4</ele>
        <time>2016-05-21T08:16:35Z</time>
      </trkpt>
      <trkpt lat="45.42412" lon="5.86348">
        <ele>720.8</ele>
        <time>2016-05-21T08:16:37Z</time>
      </trkpt>
      <trkpt lat="45.42418" lon="5.86363">
        <ele>721.9</ele>
        <time>2016-05-21T08:16:39Z</time>
      </trkpt>
      <trkpt lat="45.42423" lon="5.86377">
        <ele>722.4</ele>
        <time>2016-05-21T08:16:41Z</time>
      </trkpt>
      <trkpt lat="45.42428" lon="5.86391">
        <ele>722.7</ele>
        <time>2016-05-21T08:16:43Z</time>
      </trkpt>
      <trkpt lat="45.42437" lon="5.86401">
        <ele>722.7</ele>
        <time>2016-05-21T08:16:45Z</time>
      </trkpt>
      <trkpt lat="45.42445" lon="5.86411">
        <ele>722.6</ele>
        <time>2016-05-21T08:16:47Z</time>
      </trkpt>
      <trkpt lat="45.42454" lon="5.8642">
        <ele>722</ele>
        <time>2016-05-21T08:16:49Z</time>
      </trkpt>
      <trkpt lat="45.42466" lon="5.86427">
        <ele>720.6</ele>
        <time>2016-05-21T08:16:51Z</time>
      </trkpt>
      <trkpt lat="45.42477" lon="5.86435">
        <ele>718.4</ele>
        <time>2016-05-21T08:16:53Z</time>
      </trkpt>
      <trkpt lat="45.42486" lon="5.86443">
        <ele>717.4</ele>
        <time>2016-05-21T08:16:55Z</time>
      </trkpt>
      <trkpt lat="45.42493" lon="5.86452">
        <ele>716.2</ele>
        <time>2016-05-21T08:16:57Z</time>
      </trkpt>
      <trkpt lat="45.42497" lon="5.86464">
        <ele>715</ele>
        <time>2016-05-21T08:16:59Z</time>
      </trkpt>
      <trkpt lat="45.42501" lon="5.86478">
        <ele>714.6</ele>
        <time>2016-05-21T08:17:01Z</time>
      </trkpt>
      <trkpt lat="45.42504" lon="5.8649">
        <ele>715.1</ele>
        <time>2016-05-21T08:17:03Z</time>
      </trkpt>
      <trkpt lat="45.42508" lon="5.86502">
        <ele>715.6</ele>
        <time>2016-05-21T08:17:05Z</time>
      </trkpt>
      <trkpt lat="45.42511" lon="5.86515">
        <ele>715.8</ele>
        <time>2016-05-21T08:17:07Z</time>
      </trkpt>
      <trkpt lat="45.42513" lon="5.86531">
        <ele>715.5</ele>
        <time>2016-05-21T08:17:09Z</time>
      </trkpt>
      <trkpt lat="45.42514" lon="5.86546">
        <ele>715.4</ele>
        <time>2016-05-21T08:17:11Z</time>
      </trkpt>
      <trkpt lat="45.42514" lon="5.86561">
        <ele>715.5</ele>
        <time>2016-05-21T08:17:13Z</time>
      </trkpt>
      <trkpt lat="45.42514" lon="5.86576">
        <ele>715.5</ele>
        <time>2016-05-21T08:17:15Z</time>
      </trkpt>
      <trkpt lat="45.42514" lon="5.8659">
        <ele>715.7</ele>
        <time>2016-05-21T08:17:17Z</time>
      </trkpt>
      <trkpt lat="45.42514" lon="5.86604">
        <ele>716.3</ele>
        <time>2016-05-21T08:17:19Z</time>
      </trkpt>
      <trkpt lat="45.42515" lon="5.86617">
        <ele>717</ele>
        <time>2016-05-21T08:17:21Z</time>
      </trkpt>
      <trkpt lat="45.42515" lon="5.8663">
        <ele>718</ele>
        <time>2016-05-21T08:17:23Z</time>
      </trkpt>
      <trkpt lat="45.42517" lon="5.86643">
        <ele>719.1</ele>
        <time>2016-05-21T08:17:25Z</time>
      </trkpt>
      <trkpt lat="45.4252" lon="5.86654">
        <ele>719.6</ele>
        <time>2016-05-21T08:17:27Z</time>
      </trkpt>
      <trkpt lat="45.42525" lon="5.86664">
        <ele>720.3</ele>
        <time>2016-05-21T08:17:29Z</time>
      </trkpt>
      <trkpt lat="45.42533" lon="5.86674">
        <ele>721.6</ele>
        <time>2016-05-21T08:17:31Z</time>
      </trkpt>
      <trkpt lat="45.42542" lon="5.86683">
        <ele>722.4</ele>
        <time>2016-05-21T08:17:33Z</time>
      </trkpt>
      <trkpt lat="45.42551" lon="5.86687">
        <ele>723</ele>
        <time>2016-05-21T08:17:35Z</time>
      </trkpt>
      <trkpt lat="45.4256" lon="5.86692">
        <ele>723.2</ele>
        <time>2016-05-21T08:17:37Z</time>
      </trkpt>
      <trkpt lat="45.42569" lon="5.86689">
        <ele>723.6</ele>
        <time>2016-05-21T08:17:39Z</time>
      </trkpt>
      <trkpt lat="45.4258" lon="5.86686">
        <ele>723.3</ele>
        <time>2016-05-21T08:17:41Z</time>
      </trkpt>
      <trkpt lat="45.42592" lon="5.86683">
        <ele>722.3</ele>
        <time>2016-05-21T08:17:43Z</time>
      </trkpt>
      <trkpt lat="45.426" lon="5.86686">
        <ele>721.5</ele>
        <time>2016-05-21T08:17:45Z</time>
      </trkpt>
      <trkpt lat="45.42611" lon="5.86692">
        <ele>720.1</ele>
        <time>2016-05-21T08:17:47Z</time>
      </trkpt>
      <trkpt lat="45.42622" lon="5.86695">
        <ele>717.5</ele>
        <time>2016-05-21T08:17:49Z</time>
      </trkpt>
      <trkpt lat="45.42633" lon="5.86699">
        <ele>715</ele>
        <time>2016-05-21T08:17:51Z</time>
      </trkpt>
      <trkpt lat="45.42643" lon="5.86701">
        <ele>713.5</ele>
        <time>2016-05-21T08:17:53Z</time>
      </trkpt>
      <trkpt lat="45.42652" lon="5.86703">
        <ele>712.4</ele>
        <time>2016-05-21T08:17:55Z</time>
      </trkpt>
      <trkpt lat="45.4266" lon="5.86705">
        <ele>712</ele>
        <time>2016-05-21T08:17:57Z</time>
      </trkpt>
      <trkpt lat="45.4267" lon="5.86706">
        <ele>712.7</ele>
        <time>2016-05-21T08:18:00Z</time>
      </trkpt>
      <trkpt lat="45.42679" lon="5.86706">
        <ele>714</ele>
        <time>2016-05-21T08:18:02Z</time>
      </trkpt>
      <trkpt lat="45.42687" lon="5.86708">
        <ele>715.4</ele>
        <time>2016-05-21T08:18:04Z</time>
      </trkpt>
      <trkpt lat="45.42694" lon="5.8671">
        <ele>717.5</ele>
        <time>2016-05-21T08:18:06Z</time>
      </trkpt>
      <trkpt lat="45.42703" lon="5.86713">
        <ele>718.9</ele>
        <time>2016-05-21T08:18:09Z</time>
      </trkpt>
      <trkpt lat="45.42714" lon="5.86717">
        <ele>720.7</ele>
        <time>2016-05-21T08:18:12Z</time>
      </trkpt>
      <trkpt lat="45.42721" lon="5.86719">
        <ele>722.2</ele>
        <time>2016-05-21T08:18:14Z</time>
      </trkpt>
      <trkpt lat="45.4273" lon="5.86725">
        <ele>726</ele>
        <time>2016-05-21T08:18:17Z</time>
      </trkpt>
      <trkpt lat="45.42737" lon="5.86729">
        <ele>729.2</ele>
        <time>2016-05-21T08:18:19Z</time>
      </trkpt>
      <trkpt lat="45.42744" lon="5.86732">
        <ele>732.4</ele>
        <time>2016-05-21T08:18:21Z</time>
      </trkpt>
      <trkpt lat="45.42754" lon="5.86736">
        <ele>736.7</ele>
        <time>2016-05-21T08:18:24Z</time>
      </trkpt>
      <trkpt lat="45.42761" lon="5.8674">
        <ele>737.4</ele>
        <time>2016-05-21T08:18:26Z</time>
      </trkpt>
      <trkpt lat="45.42768" lon="5.86746">
        <ele>738.1</ele>
        <time>2016-05-21T08:18:28Z</time>
      </trkpt>
      <trkpt lat="45.42775" lon="5.86752">
        <ele>738.6</ele>
        <time>2016-05-21T08:18:30Z</time>
      </trkpt>
      <trkpt lat="45.42779" lon="5.8676">
        <ele>738.9</ele>
        <time>2016-05-21T08:18:33Z</time>
      </trkpt>
      <trkpt lat="45.42786" lon="5.86767">
        <ele>739.4</ele>
        <time>2016-05-21T08:18:35Z</time>
      </trkpt>
      <trkpt lat="45.42794" lon="5.86773">
        <ele>739.7</ele>
        <time>2016-05-21T08:18:37Z</time>
      </trkpt>
      <trkpt lat="45.42801" lon="5.86779">
        <ele>739.9</ele>
        <time>2016-05-21T08:18:40Z</time>
      </trkpt>
      <trkpt lat="45.42805" lon="5.86794">
        <ele>739.2</ele>
        <time>2016-05-21T08:18:43Z</time>
      </trkpt>
      <trkpt lat="45.42808" lon="5.86806">
        <ele>738.5</ele>
        <time>2016-05-21T08:18:45Z</time>
      </trkpt>
      <trkpt lat="45.4281" lon="5.86817">
        <ele>738.5</ele>
        <time>2016-05-21T08:18:47Z</time>
      </trkpt>
      <trkpt lat="45.42812" lon="5.86828">
        <ele>739</ele>
        <time>2016-05-21T08:18:49Z</time>
      </trkpt>
      <trkpt lat="45.42814" lon="5.86839">
        <ele>739.6</ele>
        <time>2016-05-21T08:18:51Z</time>
      </trkpt>
      <trkpt lat="45.42816" lon="5.86851">
        <ele>738.8</ele>
        <time>2016-05-21T08:18:53Z</time>
      </trkpt>
      <trkpt lat="45.42817" lon="5.86862">
        <ele>738.8</ele>
        <time>2016-05-21T08:18:55Z</time>
      </trkpt>
      <trkpt lat="45.4282" lon="5.86876">
        <ele>739.3</ele>
        <time>2016-05-21T08:18:58Z</time>
      </trkpt>
      <trkpt lat="45.42822" lon="5.86885">
        <ele>741.1</ele>
        <time>2016-05-21T08:19:00Z</time>
      </trkpt>
      <trkpt lat="45.42825" lon="5.86896">
        <ele>741.4</ele>
        <time>2016-05-21T08:19:02Z</time>
      </trkpt>
      <trkpt lat="45.42828" lon="5.86905">
        <ele>741.5</ele>
        <time>2016-05-21T08:19:04Z</time>
      </trkpt>
      <trkpt lat="45.42833" lon="5.86914">
        <ele>742.6</ele>
        <time>2016-05-21T08:19:06Z</time>
      </trkpt>
      <trkpt lat="45.42838" lon="5.86921">
        <ele>742.8</ele>
        <time>2016-05-21T08:19:08Z</time>
      </trkpt>
      <trkpt lat="45.42843" lon="5.8693">
        <ele>742.8</ele>
        <time>2016-05-21T08:19:10Z</time>
      </trkpt>
      <trkpt lat="45.42848" lon="5.86938">
        <ele>742.9</ele>
        <time>2016-05-21T08:19:12Z</time>
      </trkpt>
      <trkpt lat="45.42857" lon="5.86947">
        <ele>743.6</ele>
        <time>2016-05-21T08:19:15Z</time>
      </trkpt>
      <trkpt lat="45.42865" lon="5.86951">
        <ele>744.5</ele>
        <time>2016-05-21T08:19:18Z</time>
      </trkpt>
      <trkpt lat="45.42872" lon="5.86954">
        <ele>746.3</ele>
        <time>2016-05-21T08:19:21Z</time>
      </trkpt>
      <trkpt lat="45.4288" lon="5.86959">
        <ele>746.8</ele>
        <time>2016-05-21T08:19:24Z</time>
      </trkpt>
      <trkpt lat="45.42891" lon="5.8696">
        <ele>748.3</ele>
        <time>2016-05-21T08:19:27Z</time>
      </trkpt>
      <trkpt lat="45.429" lon="5.8696">
        <ele>748.3</ele>
        <time>2016-05-21T08:19:29Z</time>
      </trkpt>
      <trkpt lat="45.42907" lon="5.86961">
        <ele>748.4</ele>
        <time>2016-05-21T08:19:31Z</time>
      </trkpt>
      <trkpt lat="45.42915" lon="5.86963">
        <ele>748.7</ele>
        <time>2016-05-21T08:19:33Z</time>
      </trkpt>
      <trkpt lat="45.42923" lon="5.86964">
        <ele>750.1</ele>
        <time>2016-05-21T08:19:35Z</time>
      </trkpt>
      <trkpt lat="45.42933" lon="5.86964">
        <ele>750.7</ele>
        <time>2016-05-21T08:19:37Z</time>
      </trkpt>
      <trkpt lat="45.42941" lon="5.86963">
        <ele>750.9</ele>
        <time>2016-05-21T08:19:39Z</time>
      </trkpt>
      <trkpt lat="45.4295" lon="5.86962">
        <ele>751.1</ele>
        <time>2016-05-21T08:19:42Z</time>
      </trkpt>
      <trkpt lat="45.42958" lon="5.8696">
        <ele>752.7</ele>
        <time>2016-05-21T08:19:44Z</time>
      </trkpt>
      <trkpt lat="45.42967" lon="5.8696">
        <ele>752.9</ele>
        <time>2016-05-21T08:19:47Z</time>
      </trkpt>
      <trkpt lat="45.42985" lon="5.86964">
        <ele>754.3</ele>
        <time>2016-05-21T08:19:52Z</time>
      </trkpt>
      <trkpt lat="45.42995" lon="5.86969">
        <ele>754.6</ele>
        <time>2016-05-21T08:19:55Z</time>
      </trkpt>
      <trkpt lat="45.43002" lon="5.86978">
        <ele>755</ele>
        <time>2016-05-21T08:19:58Z</time>
      </trkpt>
      <trkpt lat="45.43008" lon="5.86985">
        <ele>755.5</ele>
        <time>2016-05-21T08:20:01Z</time>
      </trkpt>
      <trkpt lat="45.43016" lon="5.86987">
        <ele>755.7</ele>
        <time>2016-05-21T08:20:04Z</time>
      </trkpt>
      <trkpt lat="45.43025" lon="5.86994">
        <ele>756.3</ele>
        <time>2016-05-21T08:20:07Z</time>
      </trkpt>
      <trkpt lat="45.43034" lon="5.87001">
        <ele>756.8</ele>
        <time>2016-05-21T08:20:10Z</time>
      </trkpt>
      <trkpt lat="45.43042" lon="5.87005">
        <ele>757</ele>
        <time>2016-05-21T08:20:13Z</time>
      </trkpt>
      <trkpt lat="45.43049" lon="5.87011">
        <ele>756.9</ele>
        <time>2016-05-21T08:20:16Z</time>
      </trkpt>
      <trkpt lat="45.43058" lon="5.87017">
        <ele>757</ele>
        <time>2016-05-21T08:20:20Z</time>
      </trkpt>
      <trkpt lat="45.43065" lon="5.87022">
        <ele>757</ele>
        <time>2016-05-21T08:20:23Z</time>
      </trkpt>
      <trkpt lat="45.43071" lon="5.87027">
        <ele>757.3</ele>
        <time>2016-05-21T08:20:26Z</time>
      </trkpt>
      <trkpt lat="45.43079" lon="5.87032">
        <ele>757.5</ele>
        <time>2016-05-21T08:20:29Z</time>
      </trkpt>
      <trkpt lat="45.43086" lon="5.87034">
        <ele>757.6</ele>
        <time>2016-05-21T08:20:32Z</time>
      </trkpt>
      <trkpt lat="45.43094" lon="5.87041">
        <ele>757.7</ele>
        <time>2016-05-21T08:20:35Z</time>
      </trkpt>
      <trkpt lat="45.43101" lon="5.8705">
        <ele>757.7</ele>
        <time>2016-05-21T08:20:38Z</time>
      </trkpt>
      <trkpt lat="45.43108" lon="5.87056">
        <ele>757.8</ele>
        <time>2016-05-21T08:20:41Z</time>
      </trkpt>
      <trkpt lat="45.43115" lon="5.87061">
        <ele>758.1</ele>
        <time>2016-05-21T08:20:44Z</time>
      </trkpt>
      <trkpt lat="45.43122" lon="5.87066">
        <ele>758.7</ele>
        <time>2016-05-21T08:20:47Z</time>
      </trkpt>
      <trkpt lat="45.43129" lon="5.87069">
        <ele>759.3</ele>
        <time>2016-05-21T08:20:50Z</time>
      </trkpt>
      <trkpt lat="45.43137" lon="5.87074">
        <ele>759.8</ele>
        <time>2016-05-21T08:20:53Z</time>
      </trkpt>
      <trkpt lat="45.43144" lon="5.8708">
        <ele>760.4</ele>
        <time>2016-05-21T08:20:56Z</time>
      </trkpt>
      <trkpt lat="45.43151" lon="5.87085">
        <ele>761</ele>
        <time>2016-05-21T08:20:59Z</time>
      </trkpt>
      <trkpt lat="45.43159" lon="5.87089">
        <ele>761.7</ele>
        <time>2016-05-21T08:21:02Z</time>
      </trkpt>
      <trkpt lat="45.43168" lon="5.87092">
        <ele>762.4</ele>
        <time>2016-05-21T08:21:05Z</time>
      </trkpt>
      <trkpt lat="45.43176" lon="5.87094">
        <ele>763</ele>
        <time>2016-05-21T08:21:08Z</time>
      </trkpt>
      <trkpt lat="45.43187" lon="5.87098">
        <ele>763.9</ele>
        <time>2016-05-21T08:21:12Z</time>
      </trkpt>
      <trkpt lat="45.43194" lon="5.87103">
        <ele>764.7</ele>
        <time>2016-05-21T08:21:15Z</time>
      </trkpt>
      <trkpt lat="45.432" lon="5.8711">
        <ele>765.3</ele>
        <time>2016-05-21T08:21:18Z</time>
      </trkpt>
      <trkpt lat="45.43206" lon="5.87116">
        <ele>766.1</ele>
        <time>2016-05-21T08:21:21Z</time>
      </trkpt>
      <trkpt lat="45.43213" lon="5.8712">
        <ele>767.1</ele>
        <time>2016-05-21T08:21:25Z</time>
      </trkpt>
      <trkpt lat="45.43221" lon="5.87127">
        <ele>768.2</ele>
        <time>2016-05-21T08:21:29Z</time>
      </trkpt>
      <trkpt lat="45.43226" lon="5.87137">
        <ele>768.8</ele>
        <time>2016-05-21T08:21:32Z</time>
      </trkpt>
      <trkpt lat="45.43232" lon="5.87146">
        <ele>769.5</ele>
        <time>2016-05-21T08:21:35Z</time>
      </trkpt>
      <trkpt lat="45.43238" lon="5.87155">
        <ele>770.2</ele>
        <time>2016-05-21T08:21:38Z</time>
      </trkpt>
      <trkpt lat="45.43243" lon="5.87164">
        <ele>770.9</ele>
        <time>2016-05-21T08:21:41Z</time>
      </trkpt>
      <trkpt lat="45.43249" lon="5.87173">
        <ele>771.6</ele>
        <time>2016-05-21T08:21:44Z</time>
      </trkpt>
      <trkpt lat="45.43256" lon="5.87181">
        <ele>772.1</ele>
        <time>2016-05-21T08:21:47Z</time>
      </trkpt>
      <trkpt lat="45.43264" lon="5.87191">
        <ele>772.5</ele>
        <time>2016-05-21T08:21:50Z</time>
      </trkpt>
      <trkpt lat="45.43272" lon="5.87199">
        <ele>772.6</ele>
        <time>2016-05-21T08:21:53Z</time>
      </trkpt>
      <trkpt lat="45.43282" lon="5.87204">
        <ele>772.9</ele>
        <time>2016-05-21T08:21:56Z</time>
      </trkpt>
      <trkpt lat="45.43292" lon="5.87208">
        <ele>773.1</ele>
        <time>2016-05-21T08:21:59Z</time>
      </trkpt>
      <trkpt lat="45.43299" lon="5.87212">
        <ele>774.1</ele>
        <time>2016-05-21T08:22:01Z</time>
      </trkpt>
      <trkpt lat="45.43307" lon="5.87215">
        <ele>774.5</ele>
        <time>2016-05-21T08:22:03Z</time>
      </trkpt>
      <trkpt lat="45.43315" lon="5.87218">
        <ele>774.9</ele>
        <time>2016-05-21T08:22:05Z</time>
      </trkpt>
      <trkpt lat="45.43322" lon="5.87224">
        <ele>776</ele>
        <time>2016-05-21T08:22:07Z</time>
      </trkpt>
      <trkpt lat="45.43329" lon="5.87229">
        <ele>777.6</ele>
        <time>2016-05-21T08:22:09Z</time>
      </trkpt>
      <trkpt lat="45.43338" lon="5.87236">
        <ele>780.2</ele>
        <time>2016-05-21T08:22:12Z</time>
      </trkpt>
      <trkpt lat="45.43345" lon="5.87243">
        <ele>781.6</ele>
        <time>2016-05-21T08:22:14Z</time>
      </trkpt>
      <trkpt lat="45.4335" lon="5.87252">
        <ele>783.1</ele>
        <time>2016-05-21T08:22:16Z</time>
      </trkpt>
      <trkpt lat="45.43355" lon="5.87262">
        <ele>784.3</ele>
        <time>2016-05-21T08:22:18Z</time>
      </trkpt>
      <trkpt lat="45.43359" lon="5.87274">
        <ele>784.9</ele>
        <time>2016-05-21T08:22:20Z</time>
      </trkpt>
      <trkpt lat="45.43362" lon="5.87286">
        <ele>785.5</ele>
        <time>2016-05-21T08:22:22Z</time>
      </trkpt>
      <trkpt lat="45.43365" lon="5.87298">
        <ele>786</ele>
        <time>2016-05-21T08:22:24Z</time>
      </trkpt>
      <trkpt lat="45.43366" lon="5.87311">
        <ele>786.1</ele>
        <time>2016-05-21T08:22:26Z</time>
      </trkpt>
      <trkpt lat="45.43369" lon="5.87324">
        <ele>786.2</ele>
        <time>2016-05-21T08:22:28Z</time>
      </trkpt>
      <trkpt lat="45.43371" lon="5.87337">
        <ele>786.9</ele>
        <time>2016-05-21T08:22:30Z</time>
      </trkpt>
      <trkpt lat="45.43372" lon="5.8735">
        <ele>787.1</ele>
        <time>2016-05-21T08:22:32Z</time>
      </trkpt>
      <trkpt lat="45.43373" lon="5.87363">
        <ele>787</ele>
        <time>2016-05-21T08:22:34Z</time>
      </trkpt>
      <trkpt lat="45.43375" lon="5.87375">
        <ele>787.1</ele>
        <time>2016-05-21T08:22:36Z</time>
      </trkpt>
      <trkpt lat="45.43379" lon="5.87385">
        <ele>787.7</ele>
        <time>2016-05-21T08:22:38Z</time>
      </trkpt>
      <trkpt lat="45.43384" lon="5.87396">
        <ele>787.5</ele>
        <time>2016-05-21T08:22:40Z</time>
      </trkpt>
      <trkpt lat="45.4339" lon="5.87405">
        <ele>788.1</ele>
        <time>2016-05-21T08:22:42Z</time>
      </trkpt>
      <trkpt lat="45.43395" lon="5.87413">
        <ele>788.9</ele>
        <time>2016-05-21T08:22:44Z</time>
      </trkpt>
      <trkpt lat="45.43399" lon="5.87423">
        <ele>788.9</ele>
        <time>2016-05-21T08:22:46Z</time>
      </trkpt>
      <trkpt lat="45.43401" lon="5.87433">
        <ele>789.1</ele>
        <time>2016-05-21T08:22:48Z</time>
      </trkpt>
      <trkpt lat="45.43401" lon="5.87447">
        <ele>789.1</ele>
        <time>2016-05-21T08:22:50Z</time>
      </trkpt>
      <trkpt lat="45.43401" lon="5.87458">
        <ele>789.4</ele>
        <time>2016-05-21T08:22:52Z</time>
      </trkpt>
      <trkpt lat="45.43403" lon="5.87472">
        <ele>789.9</ele>
        <time>2016-05-21T08:22:55Z</time>
      </trkpt>
      <trkpt lat="45.43403" lon="5.87483">
        <ele>791</ele>
        <time>2016-05-21T08:22:57Z</time>
      </trkpt>
      <trkpt lat="45.43405" lon="5.87493">
        <ele>791.5</ele>
        <time>2016-05-21T08:22:59Z</time>
      </trkpt>
      <trkpt lat="45.43411" lon="5.87506">
        <ele>792.4</ele>
        <time>2016-05-21T08:23:02Z</time>
      </trkpt>
      <trkpt lat="45.43416" lon="5.87518">
        <ele>792.7</ele>
        <time>2016-05-21T08:23:05Z</time>
      </trkpt>
      <trkpt lat="45.43419" lon="5.87527">
        <ele>792.8</ele>
        <time>2016-05-21T08:23:07Z</time>
      </trkpt>
      <trkpt lat="45.43422" lon="5.87538">
        <ele>793</ele>
        <time>2016-05-21T08:23:09Z</time>
      </trkpt>
      <trkpt lat="45.43426" lon="5.87548">
        <ele>793</ele>
        <time>2016-05-21T08:23:11Z</time>
      </trkpt>
      <trkpt lat="45.43428" lon="5.87561">
        <ele>793.1</ele>
        <time>2016-05-21T08:23:14Z</time>
      </trkpt>
      <trkpt lat="45.43433" lon="5.87576">
        <ele>792.9</ele>
        <time>2016-05-21T08:23:17Z</time>
      </trkpt>
      <trkpt lat="45.43436" lon="5.87588">
        <ele>792.3</ele>
        <time>2016-05-21T08:23:19Z</time>
      </trkpt>
      <trkpt lat="45.43439" lon="5.87599">
        <ele>792.1</ele>
        <time>2016-05-21T08:23:21Z</time>
      </trkpt>
      <trkpt lat="45.43443" lon="5.87611">
        <ele>791.9</ele>
        <time>2016-05-21T08:23:23Z</time>
      </trkpt>
      <trkpt lat="45.43446" lon="5.87621">
        <ele>791.7</ele>
        <time>2016-05-21T08:23:25Z</time>
      </trkpt>
      <trkpt lat="45.4345" lon="5.87631">
        <ele>791.5</ele>
        <time>2016-05-21T08:23:27Z</time>
      </trkpt>
      <trkpt lat="45.43454" lon="5.8764">
        <ele>790.2</ele>
        <time>2016-05-21T08:23:29Z</time>
      </trkpt>
      <trkpt lat="45.43462" lon="5.87649">
        <ele>790</ele>
        <time>2016-05-21T08:23:32Z</time>
      </trkpt>
      <trkpt lat="45.4347" lon="5.87656">
        <ele>789.7</ele>
        <time>2016-05-21T08:23:34Z</time>
      </trkpt>
      <trkpt lat="45.43477" lon="5.87661">
        <ele>789.8</ele>
        <time>2016-05-21T08:23:36Z</time>
      </trkpt>
      <trkpt lat="45.43484" lon="5.87665">
        <ele>789.7</ele>
        <time>2016-05-21T08:23:38Z</time>
      </trkpt>
      <trkpt lat="45.43491" lon="5.87674">
        <ele>789.7</ele>
        <time>2016-05-21T08:23:41Z</time>
      </trkpt>
      <trkpt lat="45.43497" lon="5.87681">
        <ele>789.6</ele>
        <time>2016-05-21T08:23:43Z</time>
      </trkpt>
      <trkpt lat="45.43506" lon="5.87689">
        <ele>789.8</ele>
        <time>2016-05-21T08:23:46Z</time>
      </trkpt>
      <trkpt lat="45.43512" lon="5.87694">
        <ele>790.2</ele>
        <time>2016-05-21T08:23:48Z</time>
      </trkpt>
      <trkpt lat="45.43522" lon="5.87697">
        <ele>790.8</ele>
        <time>2016-05-21T08:23:50Z</time>
      </trkpt>
      <trkpt lat="45.43531" lon="5.87701">
        <ele>793.9</ele>
        <time>2016-05-21T08:23:52Z</time>
      </trkpt>
      <trkpt lat="45.4354" lon="5.87703">
        <ele>794.3</ele>
        <time>2016-05-21T08:23:54Z</time>
      </trkpt>
      <trkpt lat="45.43547" lon="5.87705">
        <ele>794.6</ele>
        <time>2016-05-21T08:23:56Z</time>
      </trkpt>
      <trkpt lat="45.43554" lon="5.87709">
        <ele>794.9</ele>
        <time>2016-05-21T08:23:58Z</time>
      </trkpt>
      <trkpt lat="45.43562" lon="5.87707">
        <ele>795.1</ele>
        <time>2016-05-21T08:24:00Z</time>
      </trkpt>
      <trkpt lat="45.4357" lon="5.8771">
        <ele>795.4</ele>
        <time>2016-05-21T08:24:02Z</time>
      </trkpt>
      <trkpt lat="45.43578" lon="5.8771">
        <ele>795.8</ele>
        <time>2016-05-21T08:24:04Z</time>
      </trkpt>
      <trkpt lat="45.43586" lon="5.87709">
        <ele>796.2</ele>
        <time>2016-05-21T08:24:06Z</time>
      </trkpt>
      <trkpt lat="45.43594" lon="5.87707">
        <ele>796.7</ele>
        <time>2016-05-21T08:24:08Z</time>
      </trkpt>
      <trkpt lat="45.43601" lon="5.87709">
        <ele>797</ele>
        <time>2016-05-21T08:24:10Z</time>
      </trkpt>
      <trkpt lat="45.43609" lon="5.8771">
        <ele>797.1</ele>
        <time>2016-05-21T08:24:12Z</time>
      </trkpt>
      <trkpt lat="45.43618" lon="5.87709">
        <ele>797.3</ele>
        <time>2016-05-21T08:24:14Z</time>
      </trkpt>
      <trkpt lat="45.43626" lon="5.87711">
        <ele>797.5</ele>
        <time>2016-05-21T08:24:16Z</time>
      </trkpt>
      <trkpt lat="45.43634" lon="5.87713">
        <ele>797.7</ele>
        <time>2016-05-21T08:24:18Z</time>
      </trkpt>
      <trkpt lat="45.43641" lon="5.87718">
        <ele>797.9</ele>
        <time>2016-05-21T08:24:20Z</time>
      </trkpt>
      <trkpt lat="45.43647" lon="5.87725">
        <ele>799.7</ele>
        <time>2016-05-21T08:24:22Z</time>
      </trkpt>
      <trkpt lat="45.43653" lon="5.87731">
        <ele>800.8</ele>
        <time>2016-05-21T08:24:24Z</time>
      </trkpt>
      <trkpt lat="45.43661" lon="5.87735">
        <ele>801</ele>
        <time>2016-05-21T08:24:27Z</time>
      </trkpt>
      <trkpt lat="45.43667" lon="5.87739">
        <ele>803.1</ele>
        <time>2016-05-21T08:24:29Z</time>
      </trkpt>
      <trkpt lat="45.43675" lon="5.87741">
        <ele>806.6</ele>
        <time>2016-05-21T08:24:31Z</time>
      </trkpt>
      <trkpt lat="45.43682" lon="5.87742">
        <ele>809.5</ele>
        <time>2016-05-21T08:24:33Z</time>
      </trkpt>
      <trkpt lat="45.4369" lon="5.87745">
        <ele>812.1</ele>
        <time>2016-05-21T08:24:35Z</time>
      </trkpt>
      <trkpt lat="45.43699" lon="5.87742">
        <ele>813.4</ele>
        <time>2016-05-21T08:24:37Z</time>
      </trkpt>
      <trkpt lat="45.43708" lon="5.87744">
        <ele>814.9</ele>
        <time>2016-05-21T08:24:39Z</time>
      </trkpt>
      <trkpt lat="45.43716" lon="5.87742">
        <ele>816.1</ele>
        <time>2016-05-21T08:24:41Z</time>
      </trkpt>
      <trkpt lat="45.43724" lon="5.87743">
        <ele>817.3</ele>
        <time>2016-05-21T08:24:43Z</time>
      </trkpt>
      <trkpt lat="45.43734" lon="5.87743">
        <ele>818.7</ele>
        <time>2016-05-21T08:24:46Z</time>
      </trkpt>
      <trkpt lat="45.43742" lon="5.87742">
        <ele>819.5</ele>
        <time>2016-05-21T08:24:48Z</time>
      </trkpt>
      <trkpt lat="45.4375" lon="5.87743">
        <ele>821.8</ele>
        <time>2016-05-21T08:24:50Z</time>
      </trkpt>
      <trkpt lat="45.43758" lon="5.87743">
        <ele>823.5</ele>
        <time>2016-05-21T08:24:52Z</time>
      </trkpt>
      <trkpt lat="45.4377" lon="5.87745">
        <ele>824.3</ele>
        <time>2016-05-21T08:24:55Z</time>
      </trkpt>
      <trkpt lat="45.43777" lon="5.87746">
        <ele>824.4</ele>
        <time>2016-05-21T08:24:57Z</time>
      </trkpt>
      <trkpt lat="45.43786" lon="5.87748">
        <ele>824.5</ele>
        <time>2016-05-21T08:24:59Z</time>
      </trkpt>
      <trkpt lat="45.43793" lon="5.87751">
        <ele>825.3</ele>
        <time>2016-05-21T08:25:01Z</time>
      </trkpt>
      <trkpt lat="45.43803" lon="5.87754">
        <ele>826.2</ele>
        <time>2016-05-21T08:25:04Z</time>
      </trkpt>
      <trkpt lat="45.43811" lon="5.87756">
        <ele>826.4</ele>
        <time>2016-05-21T08:25:06Z</time>
      </trkpt>
      <trkpt lat="45.43818" lon="5.87762">
        <ele>827.9</ele>
        <time>2016-05-21T08:25:08Z</time>
      </trkpt>
      <trkpt lat="45.43825" lon="5.87766">
        <ele>829.1</ele>
        <time>2016-05-21T08:25:10Z</time>
      </trkpt>
      <trkpt lat="45.43832" lon="5.87771">
        <ele>829.3</ele>
        <time>2016-05-21T08:25:12Z</time>
      </trkpt>
      <trkpt lat="45.4384" lon="5.87783">
        <ele>831.8</ele>
        <time>2016-05-21T08:25:15Z</time>
      </trkpt>
      <trkpt lat="45.43848" lon="5.87791">
        <ele>832.5</ele>
        <time>2016-05-21T08:25:18Z</time>
      </trkpt>
      <trkpt lat="45.43855" lon="5.87796">
        <ele>832.8</ele>
        <time>2016-05-21T08:25:21Z</time>
      </trkpt>
      <trkpt lat="45.43863" lon="5.87802">
        <ele>833.1</ele>
        <time>2016-05-21T08:25:23Z</time>
      </trkpt>
      <trkpt lat="45.43869" lon="5.87808">
        <ele>833.2</ele>
        <time>2016-05-21T08:25:25Z</time>
      </trkpt>
      <trkpt lat="45.4388" lon="5.87815">
        <ele>833.9</ele>
        <time>2016-05-21T08:25:28Z</time>
      </trkpt>
      <trkpt lat="45.43886" lon="5.87822">
        <ele>835.3</ele>
        <time>2016-05-21T08:25:30Z</time>
      </trkpt>
      <trkpt lat="45.43894" lon="5.87827">
        <ele>837.1</ele>
        <time>2016-05-21T08:25:32Z</time>
      </trkpt>
      <trkpt lat="45.43903" lon="5.87831">
        <ele>837.3</ele>
        <time>2016-05-21T08:25:35Z</time>
      </trkpt>
      <trkpt lat="45.43912" lon="5.87834">
        <ele>837.7</ele>
        <time>2016-05-21T08:25:38Z</time>
      </trkpt>
      <trkpt lat="45.43919" lon="5.87839">
        <ele>838.1</ele>
        <time>2016-05-21T08:25:40Z</time>
      </trkpt>
      <trkpt lat="45.43928" lon="5.87843">
        <ele>840.4</ele>
        <time>2016-05-21T08:25:42Z</time>
      </trkpt>
      <trkpt lat="45.43938" lon="5.87847">
        <ele>840.9</ele>
        <time>2016-05-21T08:25:45Z</time>
      </trkpt>
      <trkpt lat="45.43945" lon="5.87852">
        <ele>843.3</ele>
        <time>2016-05-21T08:25:47Z</time>
      </trkpt>
      <trkpt lat="45.43951" lon="5.87857">
        <ele>843.4</ele>
        <time>2016-05-21T08:25:49Z</time>
      </trkpt>
      <trkpt lat="45.43958" lon="5.87862">
        <ele>843.4</ele>
        <time>2016-05-21T08:25:51Z</time>
      </trkpt>
      <trkpt lat="45.43966" lon="5.87866">
        <ele>843.5</ele>
        <time>2016-05-21T08:25:53Z</time>
      </trkpt>
      <trkpt lat="45.43976" lon="5.87869">
        <ele>843.3</ele>
        <time>2016-05-21T08:25:56Z</time>
      </trkpt>
      <trkpt lat="45.43984" lon="5.87873">
        <ele>843.4</ele>
        <time>2016-05-21T08:25:58Z</time>
      </trkpt>
      <trkpt lat="45.43992" lon="5.87877">
        <ele>843.3</ele>
        <time>2016-05-21T08:26:00Z</time>
      </trkpt>
      <trkpt lat="45.43999" lon="5.87883">
        <ele>843.3</ele>
        <time>2016-05-21T08:26:02Z</time>
      </trkpt>
      <trkpt lat="45.44006" lon="5.87888">
        <ele>844.3</ele>
        <time>2016-05-21T08:26:04Z</time>
      </trkpt>
      <trkpt lat="45.44015" lon="5.87895">
        <ele>844.4</ele>
        <time>2016-05-21T08:26:07Z</time>
      </trkpt>
      <trkpt lat="45.44022" lon="5.879">
        <ele>844.7</ele>
        <time>2016-05-21T08:26:09Z</time>
      </trkpt>
      <trkpt lat="45.4403" lon="5.87907">
        <ele>845</ele>
        <time>2016-05-21T08:26:12Z</time>
      </trkpt>
      <trkpt lat="45.44037" lon="5.87915">
        <ele>846.1</ele>
        <time>2016-05-21T08:26:14Z</time>
      </trkpt>
      <trkpt lat="45.44046" lon="5.87923">
        <ele>846.2</ele>
        <time>2016-05-21T08:26:17Z</time>
      </trkpt>
      <trkpt lat="45.44053" lon="5.87928">
        <ele>846.4</ele>
        <time>2016-05-21T08:26:19Z</time>
      </trkpt>
      <trkpt lat="45.4406" lon="5.87935">
        <ele>846.7</ele>
        <time>2016-05-21T08:26:22Z</time>
      </trkpt>
      <trkpt lat="45.44066" lon="5.87942">
        <ele>847</ele>
        <time>2016-05-21T08:26:25Z</time>
      </trkpt>
      <trkpt lat="45.44073" lon="5.87949">
        <ele>847.3</ele>
        <time>2016-05-21T08:26:28Z</time>
      </trkpt>
      <trkpt lat="45.44081" lon="5.87954">
        <ele>847.7</ele>
        <time>2016-05-21T08:26:31Z</time>
      </trkpt>
      <trkpt lat="45.44091" lon="5.8796">
        <ele>848</ele>
        <time>2016-05-21T08:26:34Z</time>
      </trkpt>
      <trkpt lat="45.44098" lon="5.87961">
        <ele>848.1</ele>
        <time>2016-05-21T08:26:36Z</time>
      </trkpt>
      <trkpt lat="45.44106" lon="5.87963">
        <ele>848.3</ele>
        <time>2016-05-21T08:26:38Z</time>
      </trkpt>
      <trkpt lat="45.44115" lon="5.87963">
        <ele>848.4</ele>
        <time>2016-05-21T08:26:41Z</time>
      </trkpt>
      <trkpt lat="45.44125" lon="5.87965">
        <ele>848.5</ele>
        <time>2016-05-21T08:26:44Z</time>
      </trkpt>
      <trkpt lat="45.44133" lon="5.87968">
        <ele>848.6</ele>
        <time>2016-05-21T08:26:47Z</time>
      </trkpt>
      <trkpt lat="45.44142" lon="5.8797">
        <ele>848.8</ele>
        <time>2016-05-21T08:26:50Z</time>
      </trkpt>
      <trkpt lat="45.44152" lon="5.87974">
        <ele>849</ele>
        <time>2016-05-21T08:26:53Z</time>
      </trkpt>
      <trkpt lat="45.4416" lon="5.87976">
        <ele>849.2</ele>
        <time>2016-05-21T08:26:56Z</time>
      </trkpt>
      <trkpt lat="45.44167" lon="5.87977">
        <ele>849.6</ele>
        <time>2016-05-21T08:26:59Z</time>
      </trkpt>
      <trkpt lat="45.44175" lon="5.87982">
        <ele>850.1</ele>
        <time>2016-05-21T08:27:02Z</time>
      </trkpt>
      <trkpt lat="45.44184" lon="5.87985">
        <ele>850.7</ele>
        <time>2016-05-21T08:27:05Z</time>
      </trkpt>
      <trkpt lat="45.44192" lon="5.87986">
        <ele>851.2</ele>
        <time>2016-05-21T08:27:08Z</time>
      </trkpt>
      <trkpt lat="45.44201" lon="5.87989">
        <ele>851.6</ele>
        <time>2016-05-21T08:27:11Z</time>
      </trkpt>
      <trkpt lat="45.44209" lon="5.87991">
        <ele>851.8</ele>
        <time>2016-05-21T08:27:14Z</time>
      </trkpt>
      <trkpt lat="45.44218" lon="5.87995">
        <ele>852.1</ele>
        <time>2016-05-21T08:27:17Z</time>
      </trkpt>
      <trkpt lat="45.44226" lon="5.87999">
        <ele>852.4</ele>
        <time>2016-05-21T08:27:20Z</time>
      </trkpt>
      <trkpt lat="45.44233" lon="5.88002">
        <ele>852.8</ele>
        <time>2016-05-21T08:27:23Z</time>
      </trkpt>
      <trkpt lat="45.44241" lon="5.88006">
        <ele>853.1</ele>
        <time>2016-05-21T08:27:26Z</time>
      </trkpt>
      <trkpt lat="45.44248" lon="5.88009">
        <ele>853.5</ele>
        <time>2016-05-21T08:27:29Z</time>
      </trkpt>
      <trkpt lat="45.44256" lon="5.88012">
        <ele>853.8</ele>
        <time>2016-05-21T08:27:32Z</time>
      </trkpt>
      <trkpt lat="45.44264" lon="5.88012">
        <ele>854.3</ele>
        <time>2016-05-21T08:27:35Z</time>
      </trkpt>
      <trkpt lat="45.44271" lon="5.88014">
        <ele>855</ele>
        <time>2016-05-21T08:27:38Z</time>
      </trkpt>
      <trkpt lat="45.44279" lon="5.88016">
        <ele>855.4</ele>
        <time>2016-05-21T08:27:41Z</time>
      </trkpt>
      <trkpt lat="45.44287" lon="5.88018">
        <ele>856.2</ele>
        <time>2016-05-21T08:27:44Z</time>
      </trkpt>
      <trkpt lat="45.44296" lon="5.8802">
        <ele>857.6</ele>
        <time>2016-05-21T08:27:48Z</time>
      </trkpt>
      <trkpt lat="45.44304" lon="5.88021">
        <ele>858.7</ele>
        <time>2016-05-21T08:27:51Z</time>
      </trkpt>
      <trkpt lat="45.44313" lon="5.88024">
        <ele>859.8</ele>
        <time>2016-05-21T08:27:55Z</time>
      </trkpt>
      <trkpt lat="45.44322" lon="5.88026">
        <ele>860.9</ele>
        <time>2016-05-21T08:27:58Z</time>
      </trkpt>
      <trkpt lat="45.44331" lon="5.8803">
        <ele>862.1</ele>
        <time>2016-05-21T08:28:01Z</time>
      </trkpt>
      <trkpt lat="45.44339" lon="5.88034">
        <ele>863.2</ele>
        <time>2016-05-21T08:28:04Z</time>
      </trkpt>
      <trkpt lat="45.44346" lon="5.88038">
        <ele>863.8</ele>
        <time>2016-05-21T08:28:07Z</time>
      </trkpt>
      <trkpt lat="45.44355" lon="5.8804">
        <ele>864.5</ele>
        <time>2016-05-21T08:28:10Z</time>
      </trkpt>
      <trkpt lat="45.44362" lon="5.88045">
        <ele>865.7</ele>
        <time>2016-05-21T08:28:14Z</time>
      </trkpt>
      <trkpt lat="45.44369" lon="5.88046">
        <ele>866.4</ele>
        <time>2016-05-21T08:28:17Z</time>
      </trkpt>
      <trkpt lat="45.44378" lon="5.88046">
        <ele>867.2</ele>
        <time>2016-05-21T08:28:20Z</time>
      </trkpt>
      <trkpt lat="45.44386" lon="5.88047">
        <ele>867.9</ele>
        <time>2016-05-21T08:28:22Z</time>
      </trkpt>
      <trkpt lat="45.44393" lon="5.88046">
        <ele>868.7</ele>
        <time>2016-05-21T08:28:24Z</time>
      </trkpt>
      <trkpt lat="45.44402" lon="5.88042">
        <ele>869.7</ele>
        <time>2016-05-21T08:28:27Z</time>
      </trkpt>
      <trkpt lat="45.4441" lon="5.88039">
        <ele>870.2</ele>
        <time>2016-05-21T08:28:30Z</time>
      </trkpt>
      <trkpt lat="45.44418" lon="5.88036">
        <ele>870.3</ele>
        <time>2016-05-21T08:28:33Z</time>
      </trkpt>
      <trkpt lat="45.44426" lon="5.8803">
        <ele>870.2</ele>
        <time>2016-05-21T08:28:36Z</time>
      </trkpt>
      <trkpt lat="45.44432" lon="5.88023">
        <ele>870</ele>
        <time>2016-05-21T08:28:38Z</time>
      </trkpt>
      <trkpt lat="45.44441" lon="5.88015">
        <ele>869.6</ele>
        <time>2016-05-21T08:28:41Z</time>
      </trkpt>
      <trkpt lat="45.44449" lon="5.8801">
        <ele>869.3</ele>
        <time>2016-05-21T08:28:43Z</time>
      </trkpt>
      <trkpt lat="45.44459" lon="5.88006">
        <ele>869.1</ele>
        <time>2016-05-21T08:28:46Z</time>
      </trkpt>
      <trkpt lat="45.44466" lon="5.88003">
        <ele>869.1</ele>
        <time>2016-05-21T08:28:48Z</time>
      </trkpt>
      <trkpt lat="45.44474" lon="5.88">
        <ele>869.2</ele>
        <time>2016-05-21T08:28:50Z</time>
      </trkpt>
      <trkpt lat="45.44485" lon="5.88">
        <ele>869.3</ele>
        <time>2016-05-21T08:28:53Z</time>
      </trkpt>
      <trkpt lat="45.44495" lon="5.87998">
        <ele>869.6</ele>
        <time>2016-05-21T08:28:56Z</time>
      </trkpt>
      <trkpt lat="45.44505" lon="5.87996">
        <ele>869.9</ele>
        <time>2016-05-21T08:28:59Z</time>
      </trkpt>
      <trkpt lat="45.44515" lon="5.87998">
        <ele>870.3</ele>
        <time>2016-05-21T08:29:02Z</time>
      </trkpt>
      <trkpt lat="45.44525" lon="5.88001">
        <ele>874.6</ele>
        <time>2016-05-21T08:29:05Z</time>
      </trkpt>
      <trkpt lat="45.44533" lon="5.88004">
        <ele>876.3</ele>
        <time>2016-05-21T08:29:07Z</time>
      </trkpt>
      <trkpt lat="45.44542" lon="5.88007">
        <ele>877.1</ele>
        <time>2016-05-21T08:29:09Z</time>
      </trkpt>
      <trkpt lat="45.4455" lon="5.8801">
        <ele>877.3</ele>
        <time>2016-05-21T08:29:11Z</time>
      </trkpt>
      <trkpt lat="45.44558" lon="5.88014">
        <ele>877.4</ele>
        <time>2016-05-21T08:29:13Z</time>
      </trkpt>
      <trkpt lat="45.44568" lon="5.88018">
        <ele>878.6</ele>
        <time>2016-05-21T08:29:16Z</time>
      </trkpt>
      <trkpt lat="45.44576" lon="5.88022">
        <ele>880.1</ele>
        <time>2016-05-21T08:29:18Z</time>
      </trkpt>
      <trkpt lat="45.44585" lon="5.88026">
        <ele>881.6</ele>
        <time>2016-05-21T08:29:20Z</time>
      </trkpt>
      <trkpt lat="45.44594" lon="5.88028">
        <ele>883.1</ele>
        <time>2016-05-21T08:29:22Z</time>
      </trkpt>
      <trkpt lat="45.44603" lon="5.88029">
        <ele>883.1</ele>
        <time>2016-05-21T08:29:24Z</time>
      </trkpt>
      <trkpt lat="45.44612" lon="5.8803">
        <ele>882.4</ele>
        <time>2016-05-21T08:29:26Z</time>
      </trkpt>
      <trkpt lat="45.44622" lon="5.88029">
        <ele>882.3</ele>
        <time>2016-05-21T08:29:28Z</time>
      </trkpt>
      <trkpt lat="45.44631" lon="5.88028">
        <ele>882.3</ele>
        <time>2016-05-21T08:29:30Z</time>
      </trkpt>
      <trkpt lat="45.44641" lon="5.88027">
        <ele>882.5</ele>
        <time>2016-05-21T08:29:32Z</time>
      </trkpt>
      <trkpt lat="45.4465" lon="5.88027">
        <ele>881.6</ele>
        <time>2016-05-21T08:29:34Z</time>
      </trkpt>
      <trkpt lat="45.4466" lon="5.88026">
        <ele>881.2</ele>
        <time>2016-05-21T08:29:36Z</time>
      </trkpt>
      <trkpt lat="45.4467" lon="5.88025">
        <ele>881.2</ele>
        <time>2016-05-21T08:29:38Z</time>
      </trkpt>
      <trkpt lat="45.44677" lon="5.88026">
        <ele>881.4</ele>
        <time>2016-05-21T08:29:40Z</time>
      </trkpt>
      <trkpt lat="45.44686" lon="5.88028">
        <ele>881.4</ele>
        <time>2016-05-21T08:29:42Z</time>
      </trkpt>
      <trkpt lat="45.44696" lon="5.88029">
        <ele>880.5</ele>
        <time>2016-05-21T08:29:44Z</time>
      </trkpt>
      <trkpt lat="45.44708" lon="5.8803">
        <ele>880.4</ele>
        <time>2016-05-21T08:29:46Z</time>
      </trkpt>
      <trkpt lat="45.4472" lon="5.88033">
        <ele>881.1</ele>
        <time>2016-05-21T08:29:48Z</time>
      </trkpt>
      <trkpt lat="45.4473" lon="5.88035">
        <ele>880.9</ele>
        <time>2016-05-21T08:29:50Z</time>
      </trkpt>
      <trkpt lat="45.44737" lon="5.88039">
        <ele>881</ele>
        <time>2016-05-21T08:29:52Z</time>
      </trkpt>
      <trkpt lat="45.44746" lon="5.88046">
        <ele>881.1</ele>
        <time>2016-05-21T08:29:54Z</time>
      </trkpt>
      <trkpt lat="45.44755" lon="5.88053">
        <ele>881.3</ele>
        <time>2016-05-21T08:29:56Z</time>
      </trkpt>
      <trkpt lat="45.44765" lon="5.8806">
        <ele>881.7</ele>
        <time>2016-05-21T08:29:58Z</time>
      </trkpt>
      <trkpt lat="45.44774" lon="5.88068">
        <ele>882.1</ele>
        <time>2016-05-21T08:30:00Z</time>
      </trkpt>
      <trkpt lat="45.44782" lon="5.88076">
        <ele>882.4</ele>
        <time>2016-05-21T08:30:02Z</time>
      </trkpt>
      <trkpt lat="45.4479" lon="5.88083">
        <ele>883</ele>
        <time>2016-05-21T08:30:04Z</time>
      </trkpt>
      <trkpt lat="45.44798" lon="5.88091">
        <ele>883.7</ele>
        <time>2016-05-21T08:30:06Z</time>
      </trkpt>
      <trkpt lat="45.44806" lon="5.88099">
        <ele>885</ele>
        <time>2016-05-21T08:30:08Z</time>
      </trkpt>
      <trkpt lat="45.44814" lon="5.88107">
        <ele>886.3</ele>
        <time>2016-05-21T08:30:10Z</time>
      </trkpt>
      <trkpt lat="45.44823" lon="5.88116">
        <ele>887.3</ele>
        <time>2016-05-21T08:30:12Z</time>
      </trkpt>
      <trkpt lat="45.44831" lon="5.88123">
        <ele>888.3</ele>
        <time>2016-05-21T08:30:14Z</time>
      </trkpt>
      <trkpt lat="45.44841" lon="5.88132">
        <ele>888.8</ele>
        <time>2016-05-21T08:30:16Z</time>
      </trkpt>
      <trkpt lat="45.4485" lon="5.88141">
        <ele>888.7</ele>
        <time>2016-05-21T08:30:18Z</time>
      </trkpt>
      <trkpt lat="45.44858" lon="5.88149">
        <ele>888.2</ele>
        <time>2016-05-21T08:30:20Z</time>
      </trkpt>
      <trkpt lat="45.44866" lon="5.88159">
        <ele>888.1</ele>
        <time>2016-05-21T08:30:22Z</time>
      </trkpt>
      <trkpt lat="45.44875" lon="5.88169">
        <ele>888.2</ele>
        <time>2016-05-21T08:30:24Z</time>
      </trkpt>
      <trkpt lat="45.44883" lon="5.88179">
        <ele>888.3</ele>
        <time>2016-05-21T08:30:26Z</time>
      </trkpt>
      <trkpt lat="45.44891" lon="5.88189">
        <ele>888.5</ele>
        <time>2016-05-21T08:30:28Z</time>
      </trkpt>
      <trkpt lat="45.44899" lon="5.88199">
        <ele>888.8</ele>
        <time>2016-05-21T08:30:30Z</time>
      </trkpt>
      <trkpt lat="45.44908" lon="5.88208">
        <ele>889.1</ele>
        <time>2016-05-21T08:30:32Z</time>
      </trkpt>
      <trkpt lat="45.44917" lon="5.88217">
        <ele>889.3</ele>
        <time>2016-05-21T08:30:34Z</time>
      </trkpt>
      <trkpt lat="45.44927" lon="5.88225">
        <ele>889.6</ele>
        <time>2016-05-21T08:30:36Z</time>
      </trkpt>
      <trkpt lat="45.44939" lon="5.88234">
        <ele>889.7</ele>
        <time>2016-05-21T08:30:38Z</time>
      </trkpt>
      <trkpt lat="45.44949" lon="5.88244">
        <ele>889.7</ele>
        <time>2016-05-21T08:30:40Z</time>
      </trkpt>
      <trkpt lat="45.44958" lon="5.88252">
        <ele>889.8</ele>
        <time>2016-05-21T08:30:42Z</time>
      </trkpt>
      <trkpt lat="45.44968" lon="5.8826">
        <ele>890</ele>
        <time>2016-05-21T08:30:44Z</time>
      </trkpt>
      <trkpt lat="45.44979" lon="5.88268">
        <ele>890.3</ele>
        <time>2016-05-21T08:30:46Z</time>
      </trkpt>
      <trkpt lat="45.4499" lon="5.88276">
        <ele>890.1</ele>
        <time>2016-05-21T08:30:48Z</time>
      </trkpt>
      <trkpt lat="45.45" lon="5.88287">
        <ele>890.1</ele>
        <time>2016-05-21T08:30:50Z</time>
      </trkpt>
      <trkpt lat="45.4501" lon="5.88299">
        <ele>890.4</ele>
        <time>2016-05-21T08:30:52Z</time>
      </trkpt>
      <trkpt lat="45.45019" lon="5.88312">
        <ele>890.3</ele>
        <time>2016-05-21T08:30:54Z</time>
      </trkpt>
      <trkpt lat="45.45029" lon="5.88321">
        <ele>890.1</ele>
        <time>2016-05-21T08:30:56Z</time>
      </trkpt>
      <trkpt lat="45.4504" lon="5.88329">
        <ele>890.1</ele>
        <time>2016-05-21T08:30:58Z</time>
      </trkpt>
      <trkpt lat="45.45051" lon="5.88336">
        <ele>890.1</ele>
        <time>2016-05-21T08:31:00Z</time>
      </trkpt>
      <trkpt lat="45.45062" lon="5.88341">
        <ele>890.2</ele>
        <time>2016-05-21T08:31:02Z</time>
      </trkpt>
      <trkpt lat="45.45071" lon="5.88346">
        <ele>890.2</ele>
        <time>2016-05-21T08:31:04Z</time>
      </trkpt>
      <trkpt lat="45.45081" lon="5.8835">
        <ele>890.8</ele>
        <time>2016-05-21T08:31:06Z</time>
      </trkpt>
      <trkpt lat="45.45091" lon="5.88352">
        <ele>890.9</ele>
        <time>2016-05-21T08:31:09Z</time>
      </trkpt>
      <trkpt lat="45.451" lon="5.88357">
        <ele>890.9</ele>
        <time>2016-05-21T08:31:12Z</time>
      </trkpt>
      <trkpt lat="45.45107" lon="5.88359">
        <ele>890.8</ele>
        <time>2016-05-21T08:31:15Z</time>
      </trkpt>
      <trkpt lat="45.45112" lon="5.88358">
        <ele>890.2</ele>
        <time>2016-05-21T08:31:22Z</time>
      </trkpt>
      <trkpt lat="45.45116" lon="5.88333">
        <ele>899.1</ele>
        <time>2016-05-21T08:34:13Z</time>
      </trkpt>
      <trkpt lat="45.45128" lon="5.88329">
        <ele>896.9</ele>
        <time>2016-05-21T08:34:15Z</time>
      </trkpt>
      <trkpt lat="45.45139" lon="5.88324">
        <ele>893.5</ele>
        <time>2016-05-21T08:34:17Z</time>
      </trkpt>
      <trkpt lat="45.45151" lon="5.8832">
        <ele>891.4</ele>
        <time>2016-05-21T08:34:19Z</time>
      </trkpt>
      <trkpt lat="45.45163" lon="5.88317">
        <ele>890</ele>
        <time>2016-05-21T08:34:21Z</time>
      </trkpt>
      <trkpt lat="45.45172" lon="5.88316">
        <ele>889.3</ele>
        <time>2016-05-21T08:34:22Z</time>
      </trkpt>
      <trkpt lat="45.45184" lon="5.88319">
        <ele>888</ele>
        <time>2016-05-21T08:34:24Z</time>
      </trkpt>
      <trkpt lat="45.45196" lon="5.88325">
        <ele>886.5</ele>
        <time>2016-05-21T08:34:26Z</time>
      </trkpt>
      <trkpt lat="45.45205" lon="5.88333">
        <ele>885.6</ele>
        <time>2016-05-21T08:34:28Z</time>
      </trkpt>
      <trkpt lat="45.45214" lon="5.88342">
        <ele>885.7</ele>
        <time>2016-05-21T08:34:30Z</time>
      </trkpt>
      <trkpt lat="45.45224" lon="5.88345">
        <ele>887.2</ele>
        <time>2016-05-21T08:34:32Z</time>
      </trkpt>
      <trkpt lat="45.45235" lon="5.88341">
        <ele>888.4</ele>
        <time>2016-05-21T08:34:34Z</time>
      </trkpt>
      <trkpt lat="45.45245" lon="5.88327">
        <ele>889.6</ele>
        <time>2016-05-21T08:34:36Z</time>
      </trkpt>
      <trkpt lat="45.4525" lon="5.88319">
        <ele>889.3</ele>
        <time>2016-05-21T08:34:37Z</time>
      </trkpt>
      <trkpt lat="45.45256" lon="5.88311">
        <ele>888.7</ele>
        <time>2016-05-21T08:34:38Z</time>
      </trkpt>
      <trkpt lat="45.45262" lon="5.88302">
        <ele>888.5</ele>
        <time>2016-05-21T08:34:39Z</time>
      </trkpt>
      <trkpt lat="45.45266" lon="5.88293">
        <ele>887.8</ele>
        <time>2016-05-21T08:34:40Z</time>
      </trkpt>
      <trkpt lat="45.45269" lon="5.88284">
        <ele>886.6</ele>
        <time>2016-05-21T08:34:41Z</time>
      </trkpt>
      <trkpt lat="45.45273" lon="5.88273">
        <ele>885.3</ele>
        <time>2016-05-21T08:34:42Z</time>
      </trkpt>
      <trkpt lat="45.45276" lon="5.88263">
        <ele>884.1</ele>
        <time>2016-05-21T08:34:43Z</time>
      </trkpt>
      <trkpt lat="45.45278" lon="5.88253">
        <ele>882.8</ele>
        <time>2016-05-21T08:34:44Z</time>
      </trkpt>
      <trkpt lat="45.45283" lon="5.88234">
        <ele>880.2</ele>
        <time>2016-05-21T08:34:46Z</time>
      </trkpt>
      <trkpt lat="45.45288" lon="5.8822">
        <ele>878.3</ele>
        <time>2016-05-21T08:34:48Z</time>
      </trkpt>
      <trkpt lat="45.45299" lon="5.88213">
        <ele>877.5</ele>
        <time>2016-05-21T08:34:50Z</time>
      </trkpt>
      <trkpt lat="45.45307" lon="5.88213">
        <ele>877.4</ele>
        <time>2016-05-21T08:34:52Z</time>
      </trkpt>
      <trkpt lat="45.45315" lon="5.88217">
        <ele>878.5</ele>
        <time>2016-05-21T08:34:54Z</time>
      </trkpt>
      <trkpt lat="45.45324" lon="5.88223">
        <ele>879.4</ele>
        <time>2016-05-21T08:34:57Z</time>
      </trkpt>
      <trkpt lat="45.45333" lon="5.8823">
        <ele>880.6</ele>
        <time>2016-05-21T08:35:00Z</time>
      </trkpt>
      <trkpt lat="45.45343" lon="5.88234">
        <ele>880.7</ele>
        <time>2016-05-21T08:35:03Z</time>
      </trkpt>
      <trkpt lat="45.45353" lon="5.88234">
        <ele>880.9</ele>
        <time>2016-05-21T08:35:06Z</time>
      </trkpt>
      <trkpt lat="45.45361" lon="5.88228">
        <ele>881.3</ele>
        <time>2016-05-21T08:35:09Z</time>
      </trkpt>
      <trkpt lat="45.45366" lon="5.88218">
        <ele>881.8</ele>
        <time>2016-05-21T08:35:12Z</time>
      </trkpt>
      <trkpt lat="45.4537" lon="5.88206">
        <ele>882.4</ele>
        <time>2016-05-21T08:35:15Z</time>
      </trkpt>
      <trkpt lat="45.4537" lon="5.88196">
        <ele>882.9</ele>
        <time>2016-05-21T08:35:18Z</time>
      </trkpt>
      <trkpt lat="45.45368" lon="5.88185">
        <ele>883.4</ele>
        <time>2016-05-21T08:35:21Z</time>
      </trkpt>
      <trkpt lat="45.45364" lon="5.88176">
        <ele>884</ele>
        <time>2016-05-21T08:35:24Z</time>
      </trkpt>
      <trkpt lat="45.45361" lon="5.88166">
        <ele>884.7</ele>
        <time>2016-05-21T08:35:27Z</time>
      </trkpt>
      <trkpt lat="45.45355" lon="5.88159">
        <ele>885.3</ele>
        <time>2016-05-21T08:35:30Z</time>
      </trkpt>
      <trkpt lat="45.45349" lon="5.88152">
        <ele>886.4</ele>
        <time>2016-05-21T08:35:34Z</time>
      </trkpt>
      <trkpt lat="45.45342" lon="5.88145">
        <ele>887.1</ele>
        <time>2016-05-21T08:35:37Z</time>
      </trkpt>
      <trkpt lat="45.45334" lon="5.88138">
        <ele>887.9</ele>
        <time>2016-05-21T08:35:41Z</time>
      </trkpt>
      <trkpt lat="45.45326" lon="5.88132">
        <ele>888.9</ele>
        <time>2016-05-21T08:35:45Z</time>
      </trkpt>
      <trkpt lat="45.45318" lon="5.88127">
        <ele>889.8</ele>
        <time>2016-05-21T08:35:49Z</time>
      </trkpt>
      <trkpt lat="45.45309" lon="5.88125">
        <ele>890.9</ele>
        <time>2016-05-21T08:35:53Z</time>
      </trkpt>
      <trkpt lat="45.45302" lon="5.88123">
        <ele>891.7</ele>
        <time>2016-05-21T08:35:56Z</time>
      </trkpt>
      <trkpt lat="45.45295" lon="5.88119">
        <ele>892.5</ele>
        <time>2016-05-21T08:35:59Z</time>
      </trkpt>
      <trkpt lat="45.45289" lon="5.88113">
        <ele>893.2</ele>
        <time>2016-05-21T08:36:02Z</time>
      </trkpt>
      <trkpt lat="45.45285" lon="5.88104">
        <ele>893.9</ele>
        <time>2016-05-21T08:36:05Z</time>
      </trkpt>
      <trkpt lat="45.45282" lon="5.88095">
        <ele>894.4</ele>
        <time>2016-05-21T08:36:08Z</time>
      </trkpt>
      <trkpt lat="45.45279" lon="5.88084">
        <ele>894.7</ele>
        <time>2016-05-21T08:36:11Z</time>
      </trkpt>
      <trkpt lat="45.45277" lon="5.88073">
        <ele>895.1</ele>
        <time>2016-05-21T08:36:14Z</time>
      </trkpt>
      <trkpt lat="45.45276" lon="5.8806">
        <ele>895.5</ele>
        <time>2016-05-21T08:36:17Z</time>
      </trkpt>
      <trkpt lat="45.45275" lon="5.88048">
        <ele>896</ele>
        <time>2016-05-21T08:36:20Z</time>
      </trkpt>
      <trkpt lat="45.45274" lon="5.88037">
        <ele>896.5</ele>
        <time>2016-05-21T08:36:23Z</time>
      </trkpt>
      <trkpt lat="45.45275" lon="5.88023">
        <ele>897.1</ele>
        <time>2016-05-21T08:36:27Z</time>
      </trkpt>
      <trkpt lat="45.45278" lon="5.8801">
        <ele>897.6</ele>
        <time>2016-05-21T08:36:30Z</time>
      </trkpt>
      <trkpt lat="45.4528" lon="5.87998">
        <ele>898.3</ele>
        <time>2016-05-21T08:36:34Z</time>
      </trkpt>
      <trkpt lat="45.45283" lon="5.87987">
        <ele>898.8</ele>
        <time>2016-05-21T08:36:37Z</time>
      </trkpt>
      <trkpt lat="45.45285" lon="5.87976">
        <ele>899.6</ele>
        <time>2016-05-21T08:36:40Z</time>
      </trkpt>
      <trkpt lat="45.45286" lon="5.87964">
        <ele>900.2</ele>
        <time>2016-05-21T08:36:43Z</time>
      </trkpt>
      <trkpt lat="45.45286" lon="5.87951">
        <ele>900.8</ele>
        <time>2016-05-21T08:36:46Z</time>
      </trkpt>
      <trkpt lat="45.45285" lon="5.87938">
        <ele>901.5</ele>
        <time>2016-05-21T08:36:49Z</time>
      </trkpt>
      <trkpt lat="45.45284" lon="5.87925">
        <ele>902.3</ele>
        <time>2016-05-21T08:36:52Z</time>
      </trkpt>
      <trkpt lat="45.45282" lon="5.87913">
        <ele>903.1</ele>
        <time>2016-05-21T08:36:55Z</time>
      </trkpt>
      <trkpt lat="45.45278" lon="5.87901">
        <ele>903.7</ele>
        <time>2016-05-21T08:36:58Z</time>
      </trkpt>
      <trkpt lat="45.45273" lon="5.8789">
        <ele>904.6</ele>
        <time>2016-05-21T08:37:01Z</time>
      </trkpt>
      <trkpt lat="45.45268" lon="5.8788">
        <ele>905.4</ele>
        <time>2016-05-21T08:37:04Z</time>
      </trkpt>
      <trkpt lat="45.45261" lon="5.87868">
        <ele>906.3</ele>
        <time>2016-05-21T08:37:07Z</time>
      </trkpt>
      <trkpt lat="45.45256" lon="5.8786">
        <ele>907.1</ele>
        <time>2016-05-21T08:37:09Z</time>
      </trkpt>
      <trkpt lat="45.4525" lon="5.8785">
        <ele>908</ele>
        <time>2016-05-21T08:37:12Z</time>
      </trkpt>
      <trkpt lat="45.45244" lon="5.87839">
        <ele>908.9</ele>
        <time>2016-05-21T08:37:15Z</time>
      </trkpt>
      <trkpt lat="45.45238" lon="5.87827">
        <ele>909.9</ele>
        <time>2016-05-21T08:37:18Z</time>
      </trkpt>
      <trkpt lat="45.45233" lon="5.8782">
        <ele>910.6</ele>
        <time>2016-05-21T08:37:20Z</time>
      </trkpt>
      <trkpt lat="45.45226" lon="5.87809">
        <ele>911.8</ele>
        <time>2016-05-21T08:37:23Z</time>
      </trkpt>
      <trkpt lat="45.4522" lon="5.87798">
        <ele>912.9</ele>
        <time>2016-05-21T08:37:26Z</time>
      </trkpt>
      <trkpt lat="45.45215" lon="5.8779">
        <ele>913.4</ele>
        <time>2016-05-21T08:37:28Z</time>
      </trkpt>
      <trkpt lat="45.45208" lon="5.8778">
        <ele>914.2</ele>
        <time>2016-05-21T08:37:31Z</time>
      </trkpt>
      <trkpt lat="45.45201" lon="5.87777">
        <ele>914.8</ele>
        <time>2016-05-21T08:37:33Z</time>
      </trkpt>
      <trkpt lat="45.45192" lon="5.87775">
        <ele>918.1</ele>
        <time>2016-05-21T08:37:35Z</time>
      </trkpt>
      <trkpt lat="45.45183" lon="5.87777">
        <ele>918.6</ele>
        <time>2016-05-21T08:37:37Z</time>
      </trkpt>
      <trkpt lat="45.45174" lon="5.8778">
        <ele>919.1</ele>
        <time>2016-05-21T08:37:39Z</time>
      </trkpt>
      <trkpt lat="45.45166" lon="5.87782">
        <ele>923.7</ele>
        <time>2016-05-21T08:37:41Z</time>
      </trkpt>
      <trkpt lat="45.45157" lon="5.87781">
        <ele>927.2</ele>
        <time>2016-05-21T08:37:43Z</time>
      </trkpt>
      <trkpt lat="45.4515" lon="5.87777">
        <ele>928.8</ele>
        <time>2016-05-21T08:37:45Z</time>
      </trkpt>
      <trkpt lat="45.45142" lon="5.87769">
        <ele>929</ele>
        <time>2016-05-21T08:37:48Z</time>
      </trkpt>
      <trkpt lat="45.45136" lon="5.87762">
        <ele>929.3</ele>
        <time>2016-05-21T08:37:51Z</time>
      </trkpt>
      <trkpt lat="45.4513" lon="5.87753">
        <ele>930.6</ele>
        <time>2016-05-21T08:37:54Z</time>
      </trkpt>
      <trkpt lat="45.45123" lon="5.87745">
        <ele>931</ele>
        <time>2016-05-21T08:37:57Z</time>
      </trkpt>
      <trkpt lat="45.45118" lon="5.87739">
        <ele>931.3</ele>
        <time>2016-05-21T08:38:00Z</time>
      </trkpt>
      <trkpt lat="45.45112" lon="5.87731">
        <ele>931.8</ele>
        <time>2016-05-21T08:38:03Z</time>
      </trkpt>
      <trkpt lat="45.45103" lon="5.87726">
        <ele>932.3</ele>
        <time>2016-05-21T08:38:06Z</time>
      </trkpt>
      <trkpt lat="45.45093" lon="5.87728">
        <ele>934.8</ele>
        <time>2016-05-21T08:38:09Z</time>
      </trkpt>
      <trkpt lat="45.45085" lon="5.87731">
        <ele>935.1</ele>
        <time>2016-05-21T08:38:11Z</time>
      </trkpt>
      <trkpt lat="45.45076" lon="5.87736">
        <ele>935.3</ele>
        <time>2016-05-21T08:38:14Z</time>
      </trkpt>
      <trkpt lat="45.45068" lon="5.87743">
        <ele>935.6</ele>
        <time>2016-05-21T08:38:17Z</time>
      </trkpt>
      <trkpt lat="45.45063" lon="5.87752">
        <ele>935.9</ele>
        <time>2016-05-21T08:38:20Z</time>
      </trkpt>
      <trkpt lat="45.45058" lon="5.87762">
        <ele>935.8</ele>
        <time>2016-05-21T08:38:23Z</time>
      </trkpt>
      <trkpt lat="45.45053" lon="5.87772">
        <ele>935.8</ele>
        <time>2016-05-21T08:38:26Z</time>
      </trkpt>
      <trkpt lat="45.45045" lon="5.87782">
        <ele>935.7</ele>
        <time>2016-05-21T08:38:29Z</time>
      </trkpt>
      <trkpt lat="45.45038" lon="5.8779">
        <ele>935.7</ele>
        <time>2016-05-21T08:38:32Z</time>
      </trkpt>
      <trkpt lat="45.4503" lon="5.87797">
        <ele>935.6</ele>
        <time>2016-05-21T08:38:35Z</time>
      </trkpt>
      <trkpt lat="45.45022" lon="5.87802">
        <ele>935.6</ele>
        <time>2016-05-21T08:38:38Z</time>
      </trkpt>
      <trkpt lat="45.45015" lon="5.87805">
        <ele>935.8</ele>
        <time>2016-05-21T08:38:41Z</time>
      </trkpt>
      <trkpt lat="45.45007" lon="5.87808">
        <ele>936.1</ele>
        <time>2016-05-21T08:38:44Z</time>
      </trkpt>
      <trkpt lat="45.44999" lon="5.87811">
        <ele>936.7</ele>
        <time>2016-05-21T08:38:48Z</time>
      </trkpt>
      <trkpt lat="45.4499" lon="5.87814">
        <ele>937.5</ele>
        <time>2016-05-21T08:38:52Z</time>
      </trkpt>
      <trkpt lat="45.44981" lon="5.87815">
        <ele>938.2</ele>
        <time>2016-05-21T08:38:55Z</time>
      </trkpt>
      <trkpt lat="45.44973" lon="5.87814">
        <ele>938.8</ele>
        <time>2016-05-21T08:38:58Z</time>
      </trkpt>
      <trkpt lat="45.44965" lon="5.87812">
        <ele>939.4</ele>
        <time>2016-05-21T08:39:02Z</time>
      </trkpt>
      <trkpt lat="45.44957" lon="5.87804">
        <ele>940.3</ele>
        <time>2016-05-21T08:39:07Z</time>
      </trkpt>
      <trkpt lat="45.44949" lon="5.87796">
        <ele>940.6</ele>
        <time>2016-05-21T08:39:10Z</time>
      </trkpt>
      <trkpt lat="45.44944" lon="5.87789">
        <ele>941.1</ele>
        <time>2016-05-21T08:39:13Z</time>
      </trkpt>
      <trkpt lat="45.44939" lon="5.8778">
        <ele>941.6</ele>
        <time>2016-05-21T08:39:16Z</time>
      </trkpt>
      <trkpt lat="45.44934" lon="5.87769">
        <ele>941.9</ele>
        <time>2016-05-21T08:39:19Z</time>
      </trkpt>
      <trkpt lat="45.44929" lon="5.87761">
        <ele>942.2</ele>
        <time>2016-05-21T08:39:22Z</time>
      </trkpt>
      <trkpt lat="45.44924" lon="5.8775">
        <ele>942.5</ele>
        <time>2016-05-21T08:39:25Z</time>
      </trkpt>
      <trkpt lat="45.44921" lon="5.87741">
        <ele>942.9</ele>
        <time>2016-05-21T08:39:28Z</time>
      </trkpt>
      <trkpt lat="45.44917" lon="5.8773">
        <ele>943.2</ele>
        <time>2016-05-21T08:39:31Z</time>
      </trkpt>
      <trkpt lat="45.44913" lon="5.87716">
        <ele>943.3</ele>
        <time>2016-05-21T08:39:35Z</time>
      </trkpt>
      <trkpt lat="45.4491" lon="5.87705">
        <ele>943.6</ele>
        <time>2016-05-21T08:39:38Z</time>
      </trkpt>
      <trkpt lat="45.44907" lon="5.87695">
        <ele>944</ele>
        <time>2016-05-21T08:39:41Z</time>
      </trkpt>
      <trkpt lat="45.44903" lon="5.87683">
        <ele>944.4</ele>
        <time>2016-05-21T08:39:44Z</time>
      </trkpt>
      <trkpt lat="45.44899" lon="5.87672">
        <ele>944.9</ele>
        <time>2016-05-21T08:39:47Z</time>
      </trkpt>
      <trkpt lat="45.44896" lon="5.8766">
        <ele>945.5</ele>
        <time>2016-05-21T08:39:50Z</time>
      </trkpt>
      <trkpt lat="45.44894" lon="5.87647">
        <ele>946.4</ele>
        <time>2016-05-21T08:39:54Z</time>
      </trkpt>
      <trkpt lat="45.44894" lon="5.87636">
        <ele>946.7</ele>
        <time>2016-05-21T08:39:57Z</time>
      </trkpt>
      <trkpt lat="45.44894" lon="5.87622">
        <ele>947</ele>
        <time>2016-05-21T08:40:00Z</time>
      </trkpt>
      <trkpt lat="45.44895" lon="5.87611">
        <ele>947.4</ele>
        <time>2016-05-21T08:40:03Z</time>
      </trkpt>
      <trkpt lat="45.44898" lon="5.87601">
        <ele>947.7</ele>
        <time>2016-05-21T08:40:06Z</time>
      </trkpt>
      <trkpt lat="45.449" lon="5.87591">
        <ele>948.2</ele>
        <time>2016-05-21T08:40:09Z</time>
      </trkpt>
      <trkpt lat="45.44903" lon="5.87581">
        <ele>948.7</ele>
        <time>2016-05-21T08:40:12Z</time>
      </trkpt>
      <trkpt lat="45.44904" lon="5.87571">
        <ele>949.4</ele>
        <time>2016-05-21T08:40:15Z</time>
      </trkpt>
      <trkpt lat="45.44903" lon="5.87558">
        <ele>950.2</ele>
        <time>2016-05-21T08:40:18Z</time>
      </trkpt>
      <trkpt lat="45.44899" lon="5.87546">
        <ele>950.9</ele>
        <time>2016-05-21T08:40:21Z</time>
      </trkpt>
      <trkpt lat="45.44894" lon="5.87536">
        <ele>951.6</ele>
        <time>2016-05-21T08:40:24Z</time>
      </trkpt>
      <trkpt lat="45.44888" lon="5.87527">
        <ele>952.4</ele>
        <time>2016-05-21T08:40:27Z</time>
      </trkpt>
      <trkpt lat="45.44882" lon="5.87518">
        <ele>953.1</ele>
        <time>2016-05-21T08:40:30Z</time>
      </trkpt>
      <trkpt lat="45.44877" lon="5.8751">
        <ele>953.9</ele>
        <time>2016-05-21T08:40:33Z</time>
      </trkpt>
      <trkpt lat="45.44872" lon="5.87501">
        <ele>954.7</ele>
        <time>2016-05-21T08:40:36Z</time>
      </trkpt>
      <trkpt lat="45.44867" lon="5.87493">
        <ele>955.5</ele>
        <time>2016-05-21T08:40:39Z</time>
      </trkpt>
      <trkpt lat="45.44861" lon="5.87483">
        <ele>956.2</ele>
        <time>2016-05-21T08:40:42Z</time>
      </trkpt>
      <trkpt lat="45.44857" lon="5.87473">
        <ele>956.8</ele>
        <time>2016-05-21T08:40:45Z</time>
      </trkpt>
      <trkpt lat="45.44852" lon="5.87463">
        <ele>957.2</ele>
        <time>2016-05-21T08:40:48Z</time>
      </trkpt>
      <trkpt lat="45.44848" lon="5.87451">
        <ele>957.8</ele>
        <time>2016-05-21T08:40:51Z</time>
      </trkpt>
      <trkpt lat="45.44848" lon="5.87438">
        <ele>958.3</ele>
        <time>2016-05-21T08:40:54Z</time>
      </trkpt>
      <trkpt lat="45.44845" lon="5.87428">
        <ele>959.1</ele>
        <time>2016-05-21T08:40:58Z</time>
      </trkpt>
      <trkpt lat="45.44839" lon="5.87417">
        <ele>960.1</ele>
        <time>2016-05-21T08:41:02Z</time>
      </trkpt>
      <trkpt lat="45.44829" lon="5.87411">
        <ele>960.9</ele>
        <time>2016-05-21T08:41:05Z</time>
      </trkpt>
      <trkpt lat="45.4482" lon="5.87406">
        <ele>961.7</ele>
        <time>2016-05-21T08:41:08Z</time>
      </trkpt>
      <trkpt lat="45.44811" lon="5.87402">
        <ele>962.3</ele>
        <time>2016-05-21T08:41:11Z</time>
      </trkpt>
      <trkpt lat="45.44803" lon="5.87398">
        <ele>962.9</ele>
        <time>2016-05-21T08:41:14Z</time>
      </trkpt>
      <trkpt lat="45.44795" lon="5.87395">
        <ele>963.6</ele>
        <time>2016-05-21T08:41:17Z</time>
      </trkpt>
      <trkpt lat="45.44788" lon="5.87393">
        <ele>964.3</ele>
        <time>2016-05-21T08:41:20Z</time>
      </trkpt>
      <trkpt lat="45.4478" lon="5.8739">
        <ele>965.1</ele>
        <time>2016-05-21T08:41:23Z</time>
      </trkpt>
      <trkpt lat="45.44772" lon="5.87385">
        <ele>966</ele>
        <time>2016-05-21T08:41:26Z</time>
      </trkpt>
      <trkpt lat="45.44764" lon="5.87382">
        <ele>966.8</ele>
        <time>2016-05-21T08:41:29Z</time>
      </trkpt>
      <trkpt lat="45.44756" lon="5.87381">
        <ele>967.5</ele>
        <time>2016-05-21T08:41:32Z</time>
      </trkpt>
      <trkpt lat="45.44747" lon="5.87378">
        <ele>968.2</ele>
        <time>2016-05-21T08:41:35Z</time>
      </trkpt>
      <trkpt lat="45.44739" lon="5.87377">
        <ele>968.8</ele>
        <time>2016-05-21T08:41:38Z</time>
      </trkpt>
      <trkpt lat="45.44732" lon="5.87373">
        <ele>969.2</ele>
        <time>2016-05-21T08:41:41Z</time>
      </trkpt>
      <trkpt lat="45.44725" lon="5.87367">
        <ele>969.5</ele>
        <time>2016-05-21T08:41:44Z</time>
      </trkpt>
      <trkpt lat="45.44717" lon="5.87361">
        <ele>969.8</ele>
        <time>2016-05-21T08:41:48Z</time>
      </trkpt>
      <trkpt lat="45.44711" lon="5.87356">
        <ele>970.5</ele>
        <time>2016-05-21T08:41:51Z</time>
      </trkpt>
      <trkpt lat="45.44703" lon="5.87349">
        <ele>971.2</ele>
        <time>2016-05-21T08:41:54Z</time>
      </trkpt>
      <trkpt lat="45.44697" lon="5.87342">
        <ele>971.9</ele>
        <time>2016-05-21T08:41:57Z</time>
      </trkpt>
      <trkpt lat="45.44695" lon="5.87329">
        <ele>972</ele>
        <time>2016-05-21T08:42:01Z</time>
      </trkpt>
      <trkpt lat="45.44694" lon="5.8732">
        <ele>971.8</ele>
        <time>2016-05-21T08:42:04Z</time>
      </trkpt>
      <trkpt lat="45.44689" lon="5.8731">
        <ele>971.8</ele>
        <time>2016-05-21T08:42:07Z</time>
      </trkpt>
      <trkpt lat="45.44683" lon="5.873">
        <ele>971.9</ele>
        <time>2016-05-21T08:42:10Z</time>
      </trkpt>
      <trkpt lat="45.44684" lon="5.87286">
        <ele>971.9</ele>
        <time>2016-05-21T08:42:13Z</time>
      </trkpt>
      <trkpt lat="45.44682" lon="5.87273">
        <ele>971.6</ele>
        <time>2016-05-21T08:42:16Z</time>
      </trkpt>
      <trkpt lat="45.44674" lon="5.87265">
        <ele>971.6</ele>
        <time>2016-05-21T08:42:19Z</time>
      </trkpt>
      <trkpt lat="45.44665" lon="5.87258">
        <ele>971.9</ele>
        <time>2016-05-21T08:42:22Z</time>
      </trkpt>
      <trkpt lat="45.44656" lon="5.87252">
        <ele>972.4</ele>
        <time>2016-05-21T08:42:25Z</time>
      </trkpt>
      <trkpt lat="45.44651" lon="5.87242">
        <ele>973.1</ele>
        <time>2016-05-21T08:42:28Z</time>
      </trkpt>
      <trkpt lat="45.4465" lon="5.87231">
        <ele>974.3</ele>
        <time>2016-05-21T08:42:32Z</time>
      </trkpt>
      <trkpt lat="45.44651" lon="5.87218">
        <ele>975.4</ele>
        <time>2016-05-21T08:42:36Z</time>
      </trkpt>
      <trkpt lat="45.44654" lon="5.87207">
        <ele>976.2</ele>
        <time>2016-05-21T08:42:39Z</time>
      </trkpt>
      <trkpt lat="45.44654" lon="5.87195">
        <ele>976.8</ele>
        <time>2016-05-21T08:42:42Z</time>
      </trkpt>
      <trkpt lat="45.44655" lon="5.87182">
        <ele>977.5</ele>
        <time>2016-05-21T08:42:45Z</time>
      </trkpt>
      <trkpt lat="45.44655" lon="5.87171">
        <ele>978.3</ele>
        <time>2016-05-21T08:42:48Z</time>
      </trkpt>
      <trkpt lat="45.44653" lon="5.8716">
        <ele>979.1</ele>
        <time>2016-05-21T08:42:51Z</time>
      </trkpt>
      <trkpt lat="45.44651" lon="5.87148">
        <ele>979.9</ele>
        <time>2016-05-21T08:42:54Z</time>
      </trkpt>
      <trkpt lat="45.44648" lon="5.87136">
        <ele>980.8</ele>
        <time>2016-05-21T08:42:57Z</time>
      </trkpt>
      <trkpt lat="45.44649" lon="5.87125">
        <ele>981.7</ele>
        <time>2016-05-21T08:43:00Z</time>
      </trkpt>
      <trkpt lat="45.4465" lon="5.87113">
        <ele>982.6</ele>
        <time>2016-05-21T08:43:03Z</time>
      </trkpt>
      <trkpt lat="45.44651" lon="5.87102">
        <ele>983.6</ele>
        <time>2016-05-21T08:43:06Z</time>
      </trkpt>
      <trkpt lat="45.44649" lon="5.8709">
        <ele>984.6</ele>
        <time>2016-05-21T08:43:09Z</time>
      </trkpt>
      <trkpt lat="45.44646" lon="5.87079">
        <ele>985.6</ele>
        <time>2016-05-21T08:43:12Z</time>
      </trkpt>
      <trkpt lat="45.44642" lon="5.87069">
        <ele>986.6</ele>
        <time>2016-05-21T08:43:15Z</time>
      </trkpt>
      <trkpt lat="45.44638" lon="5.87059">
        <ele>987.5</ele>
        <time>2016-05-21T08:43:18Z</time>
      </trkpt>
      <trkpt lat="45.44634" lon="5.87049">
        <ele>988.4</ele>
        <time>2016-05-21T08:43:21Z</time>
      </trkpt>
      <trkpt lat="45.4463" lon="5.87039">
        <ele>989.2</ele>
        <time>2016-05-21T08:43:24Z</time>
      </trkpt>
      <trkpt lat="45.44627" lon="5.87027">
        <ele>990.1</ele>
        <time>2016-05-21T08:43:27Z</time>
      </trkpt>
      <trkpt lat="45.44625" lon="5.87017">
        <ele>990.9</ele>
        <time>2016-05-21T08:43:30Z</time>
      </trkpt>
      <trkpt lat="45.44626" lon="5.87006">
        <ele>991.7</ele>
        <time>2016-05-21T08:43:33Z</time>
      </trkpt>
      <trkpt lat="45.4463" lon="5.86995">
        <ele>992.8</ele>
        <time>2016-05-21T08:43:37Z</time>
      </trkpt>
      <trkpt lat="45.44635" lon="5.86985">
        <ele>994</ele>
        <time>2016-05-21T08:43:41Z</time>
      </trkpt>
      <trkpt lat="45.44641" lon="5.86977">
        <ele>995.4</ele>
        <time>2016-05-21T08:43:45Z</time>
      </trkpt>
      <trkpt lat="45.44645" lon="5.86967">
        <ele>996.4</ele>
        <time>2016-05-21T08:43:48Z</time>
      </trkpt>
      <trkpt lat="45.44649" lon="5.86957">
        <ele>997.4</ele>
        <time>2016-05-21T08:43:51Z</time>
      </trkpt>
      <trkpt lat="45.44655" lon="5.86949">
        <ele>998.4</ele>
        <time>2016-05-21T08:43:54Z</time>
      </trkpt>
      <trkpt lat="45.44662" lon="5.86943">
        <ele>1002.1</ele>
        <time>2016-05-21T08:43:57Z</time>
      </trkpt>
      <trkpt lat="45.4467" lon="5.86942">
        <ele>1003.1</ele>
        <time>2016-05-21T08:44:00Z</time>
      </trkpt>
      <trkpt lat="45.44678" lon="5.86946">
        <ele>1004.3</ele>
        <time>2016-05-21T08:44:04Z</time>
      </trkpt>
      <trkpt lat="45.44684" lon="5.86951">
        <ele>1005.2</ele>
        <time>2016-05-21T08:44:08Z</time>
      </trkpt>
      <trkpt lat="45.44692" lon="5.86957">
        <ele>1006.1</ele>
        <time>2016-05-21T08:44:12Z</time>
      </trkpt>
      <trkpt lat="45.44699" lon="5.86961">
        <ele>1007</ele>
        <time>2016-05-21T08:44:15Z</time>
      </trkpt>
      <trkpt lat="45.44706" lon="5.86965">
        <ele>1007.8</ele>
        <time>2016-05-21T08:44:18Z</time>
      </trkpt>
      <trkpt lat="45.44714" lon="5.8697">
        <ele>1008.7</ele>
        <time>2016-05-21T08:44:21Z</time>
      </trkpt>
      <trkpt lat="45.44723" lon="5.86975">
        <ele>1009.7</ele>
        <time>2016-05-21T08:44:24Z</time>
      </trkpt>
      <trkpt lat="45.4473" lon="5.86978">
        <ele>1010.7</ele>
        <time>2016-05-21T08:44:27Z</time>
      </trkpt>
      <trkpt lat="45.4474" lon="5.86977">
        <ele>1011.6</ele>
        <time>2016-05-21T08:44:30Z</time>
      </trkpt>
      <trkpt lat="45.44748" lon="5.86975">
        <ele>1012.3</ele>
        <time>2016-05-21T08:44:33Z</time>
      </trkpt>
      <trkpt lat="45.44757" lon="5.86972">
        <ele>1013</ele>
        <time>2016-05-21T08:44:36Z</time>
      </trkpt>
      <trkpt lat="45.44765" lon="5.8697">
        <ele>1013.7</ele>
        <time>2016-05-21T08:44:39Z</time>
      </trkpt>
      <trkpt lat="45.44772" lon="5.86968">
        <ele>1014.2</ele>
        <time>2016-05-21T08:44:42Z</time>
      </trkpt>
      <trkpt lat="45.44779" lon="5.86966">
        <ele>1014.9</ele>
        <time>2016-05-21T08:44:45Z</time>
      </trkpt>
      <trkpt lat="45.44788" lon="5.86964">
        <ele>1016.1</ele>
        <time>2016-05-21T08:44:49Z</time>
      </trkpt>
      <trkpt lat="45.44797" lon="5.8696">
        <ele>1017.5</ele>
        <time>2016-05-21T08:44:53Z</time>
      </trkpt>
      <trkpt lat="45.44805" lon="5.86957">
        <ele>1019</ele>
        <time>2016-05-21T08:44:57Z</time>
      </trkpt>
      <trkpt lat="45.44814" lon="5.86955">
        <ele>1020.3</ele>
        <time>2016-05-21T08:45:01Z</time>
      </trkpt>
      <trkpt lat="45.44823" lon="5.86954">
        <ele>1021.3</ele>
        <time>2016-05-21T08:45:05Z</time>
      </trkpt>
      <trkpt lat="45.44831" lon="5.86954">
        <ele>1021.8</ele>
        <time>2016-05-21T08:45:08Z</time>
      </trkpt>
      <trkpt lat="45.44839" lon="5.86956">
        <ele>1022.3</ele>
        <time>2016-05-21T08:45:11Z</time>
      </trkpt>
      <trkpt lat="45.44846" lon="5.86961">
        <ele>1022.5</ele>
        <time>2016-05-21T08:45:14Z</time>
      </trkpt>
      <trkpt lat="45.44853" lon="5.8697">
        <ele>1023.2</ele>
        <time>2016-05-21T08:45:17Z</time>
      </trkpt>
      <trkpt lat="45.44858" lon="5.86977">
        <ele>1023.9</ele>
        <time>2016-05-21T08:45:19Z</time>
      </trkpt>
      <trkpt lat="45.44865" lon="5.86984">
        <ele>1025.1</ele>
        <time>2016-05-21T08:45:22Z</time>
      </trkpt>
      <trkpt lat="45.44872" lon="5.86991">
        <ele>1026.2</ele>
        <time>2016-05-21T08:45:25Z</time>
      </trkpt>
      <trkpt lat="45.44878" lon="5.86998">
        <ele>1027.3</ele>
        <time>2016-05-21T08:45:28Z</time>
      </trkpt>
      <trkpt lat="45.44884" lon="5.87002">
        <ele>1028.4</ele>
        <time>2016-05-21T08:45:31Z</time>
      </trkpt>
      <trkpt lat="45.44892" lon="5.87007">
        <ele>1029.4</ele>
        <time>2016-05-21T08:45:34Z</time>
      </trkpt>
      <trkpt lat="45.44901" lon="5.87011">
        <ele>1030.5</ele>
        <time>2016-05-21T08:45:37Z</time>
      </trkpt>
      <trkpt lat="45.44908" lon="5.87016">
        <ele>1031.4</ele>
        <time>2016-05-21T08:45:40Z</time>
      </trkpt>
      <trkpt lat="45.44916" lon="5.87019">
        <ele>1032.3</ele>
        <time>2016-05-21T08:45:43Z</time>
      </trkpt>
      <trkpt lat="45.44927" lon="5.87022">
        <ele>1032.9</ele>
        <time>2016-05-21T08:45:46Z</time>
      </trkpt>
      <trkpt lat="45.44936" lon="5.87024">
        <ele>1033.5</ele>
        <time>2016-05-21T08:45:49Z</time>
      </trkpt>
      <trkpt lat="45.44944" lon="5.87024">
        <ele>1034</ele>
        <time>2016-05-21T08:45:52Z</time>
      </trkpt>
      <trkpt lat="45.44952" lon="5.87024">
        <ele>1034.7</ele>
        <time>2016-05-21T08:45:55Z</time>
      </trkpt>
      <trkpt lat="45.44961" lon="5.87025">
        <ele>1035.3</ele>
        <time>2016-05-21T08:45:58Z</time>
      </trkpt>
      <trkpt lat="45.44968" lon="5.87026">
        <ele>1036</ele>
        <time>2016-05-21T08:46:01Z</time>
      </trkpt>
      <trkpt lat="45.44976" lon="5.87027">
        <ele>1037</ele>
        <time>2016-05-21T08:46:05Z</time>
      </trkpt>
      <trkpt lat="45.44985" lon="5.87027">
        <ele>1037.8</ele>
        <time>2016-05-21T08:46:08Z</time>
      </trkpt>
      <trkpt lat="45.44994" lon="5.87026">
        <ele>1038.5</ele>
        <time>2016-05-21T08:46:11Z</time>
      </trkpt>
      <trkpt lat="45.45003" lon="5.87024">
        <ele>1039.4</ele>
        <time>2016-05-21T08:46:14Z</time>
      </trkpt>
      <trkpt lat="45.45012" lon="5.87023">
        <ele>1040.2</ele>
        <time>2016-05-21T08:46:17Z</time>
      </trkpt>
      <trkpt lat="45.45022" lon="5.87024">
        <ele>1040.8</ele>
        <time>2016-05-21T08:46:20Z</time>
      </trkpt>
      <trkpt lat="45.4503" lon="5.87022">
        <ele>1041.5</ele>
        <time>2016-05-21T08:46:23Z</time>
      </trkpt>
      <trkpt lat="45.45038" lon="5.8702">
        <ele>1042.2</ele>
        <time>2016-05-21T08:46:26Z</time>
      </trkpt>
      <trkpt lat="45.45045" lon="5.87016">
        <ele>1042.8</ele>
        <time>2016-05-21T08:46:29Z</time>
      </trkpt>
      <trkpt lat="45.45055" lon="5.87013">
        <ele>1043.4</ele>
        <time>2016-05-21T08:46:33Z</time>
      </trkpt>
      <trkpt lat="45.45062" lon="5.87013">
        <ele>1044.1</ele>
        <time>2016-05-21T08:46:36Z</time>
      </trkpt>
      <trkpt lat="45.45071" lon="5.87011">
        <ele>1044.9</ele>
        <time>2016-05-21T08:46:40Z</time>
      </trkpt>
      <trkpt lat="45.45079" lon="5.87009">
        <ele>1045.2</ele>
        <time>2016-05-21T08:46:43Z</time>
      </trkpt>
      <trkpt lat="45.45088" lon="5.87008">
        <ele>1045.7</ele>
        <time>2016-05-21T08:46:47Z</time>
      </trkpt>
      <trkpt lat="45.45096" lon="5.87008">
        <ele>1046.2</ele>
        <time>2016-05-21T08:46:50Z</time>
      </trkpt>
      <trkpt lat="45.45103" lon="5.87008">
        <ele>1046.7</ele>
        <time>2016-05-21T08:46:53Z</time>
      </trkpt>
      <trkpt lat="45.45111" lon="5.8701">
        <ele>1047.3</ele>
        <time>2016-05-21T08:46:56Z</time>
      </trkpt>
      <trkpt lat="45.4512" lon="5.87011">
        <ele>1048.2</ele>
        <time>2016-05-21T08:47:00Z</time>
      </trkpt>
      <trkpt lat="45.45128" lon="5.87012">
        <ele>1049</ele>
        <time>2016-05-21T08:47:03Z</time>
      </trkpt>
      <trkpt lat="45.45135" lon="5.87014">
        <ele>1049.8</ele>
        <time>2016-05-21T08:47:06Z</time>
      </trkpt>
      <trkpt lat="45.45143" lon="5.87016">
        <ele>1050.8</ele>
        <time>2016-05-21T08:47:09Z</time>
      </trkpt>
      <trkpt lat="45.4515" lon="5.87017">
        <ele>1051.7</ele>
        <time>2016-05-21T08:47:12Z</time>
      </trkpt>
      <trkpt lat="45.45159" lon="5.8702">
        <ele>1052.9</ele>
        <time>2016-05-21T08:47:16Z</time>
      </trkpt>
      <trkpt lat="45.45167" lon="5.87022">
        <ele>1054</ele>
        <time>2016-05-21T08:47:19Z</time>
      </trkpt>
      <trkpt lat="45.45175" lon="5.8702">
        <ele>1054.9</ele>
        <time>2016-05-21T08:47:22Z</time>
      </trkpt>
      <trkpt lat="45.45183" lon="5.87016">
        <ele>1055.6</ele>
        <time>2016-05-21T08:47:25Z</time>
      </trkpt>
      <trkpt lat="45.45193" lon="5.87011">
        <ele>1056</ele>
        <time>2016-05-21T08:47:28Z</time>
      </trkpt>
      <trkpt lat="45.45201" lon="5.87008">
        <ele>1056.5</ele>
        <time>2016-05-21T08:47:31Z</time>
      </trkpt>
      <trkpt lat="45.4521" lon="5.87007">
        <ele>1056.8</ele>
        <time>2016-05-21T08:47:34Z</time>
      </trkpt>
      <trkpt lat="45.45217" lon="5.87005">
        <ele>1057.2</ele>
        <time>2016-05-21T08:47:38Z</time>
      </trkpt>
      <trkpt lat="45.45225" lon="5.87003">
        <ele>1058.1</ele>
        <time>2016-05-21T08:47:42Z</time>
      </trkpt>
      <trkpt lat="45.45233" lon="5.86998">
        <ele>1058.7</ele>
        <time>2016-05-21T08:47:45Z</time>
      </trkpt>
      <trkpt lat="45.45242" lon="5.86993">
        <ele>1059.1</ele>
        <time>2016-05-21T08:47:48Z</time>
      </trkpt>
      <trkpt lat="45.4525" lon="5.86987">
        <ele>1059.5</ele>
        <time>2016-05-21T08:47:51Z</time>
      </trkpt>
      <trkpt lat="45.45257" lon="5.86979">
        <ele>1059.8</ele>
        <time>2016-05-21T08:47:54Z</time>
      </trkpt>
      <trkpt lat="45.45265" lon="5.86973">
        <ele>1060.3</ele>
        <time>2016-05-21T08:47:57Z</time>
      </trkpt>
      <trkpt lat="45.4527" lon="5.86966">
        <ele>1061</ele>
        <time>2016-05-21T08:48:00Z</time>
      </trkpt>
      <trkpt lat="45.45277" lon="5.8696">
        <ele>1061.7</ele>
        <time>2016-05-21T08:48:03Z</time>
      </trkpt>
      <trkpt lat="45.45285" lon="5.86955">
        <ele>1062.2</ele>
        <time>2016-05-21T08:48:06Z</time>
      </trkpt>
      <trkpt lat="45.45292" lon="5.86951">
        <ele>1062.7</ele>
        <time>2016-05-21T08:48:09Z</time>
      </trkpt>
      <trkpt lat="45.45302" lon="5.86953">
        <ele>1063.3</ele>
        <time>2016-05-21T08:48:12Z</time>
      </trkpt>
      <trkpt lat="45.45311" lon="5.86954">
        <ele>1063.9</ele>
        <time>2016-05-21T08:48:15Z</time>
      </trkpt>
      <trkpt lat="45.45321" lon="5.86951">
        <ele>1064.4</ele>
        <time>2016-05-21T08:48:18Z</time>
      </trkpt>
      <trkpt lat="45.45328" lon="5.86946">
        <ele>1064.7</ele>
        <time>2016-05-21T08:48:21Z</time>
      </trkpt>
      <trkpt lat="45.45334" lon="5.86941">
        <ele>1065.2</ele>
        <time>2016-05-21T08:48:24Z</time>
      </trkpt>
      <trkpt lat="45.4534" lon="5.86933">
        <ele>1065.6</ele>
        <time>2016-05-21T08:48:27Z</time>
      </trkpt>
      <trkpt lat="45.45348" lon="5.86925">
        <ele>1066.4</ele>
        <time>2016-05-21T08:48:31Z</time>
      </trkpt>
      <trkpt lat="45.45356" lon="5.86919">
        <ele>1067.1</ele>
        <time>2016-05-21T08:48:34Z</time>
      </trkpt>
      <trkpt lat="45.45363" lon="5.86911">
        <ele>1067.9</ele>
        <time>2016-05-21T08:48:37Z</time>
      </trkpt>
      <trkpt lat="45.4537" lon="5.86904">
        <ele>1068.9</ele>
        <time>2016-05-21T08:48:40Z</time>
      </trkpt>
      <trkpt lat="45.45377" lon="5.86897">
        <ele>1069.8</ele>
        <time>2016-05-21T08:48:43Z</time>
      </trkpt>
      <trkpt lat="45.45384" lon="5.86889">
        <ele>1070.5</ele>
        <time>2016-05-21T08:48:46Z</time>
      </trkpt>
      <trkpt lat="45.45391" lon="5.86883">
        <ele>1071.1</ele>
        <time>2016-05-21T08:48:49Z</time>
      </trkpt>
      <trkpt lat="45.45397" lon="5.86877">
        <ele>1071.8</ele>
        <time>2016-05-21T08:48:52Z</time>
      </trkpt>
      <trkpt lat="45.45402" lon="5.8687">
        <ele>1072.4</ele>
        <time>2016-05-21T08:48:55Z</time>
      </trkpt>
      <trkpt lat="45.45408" lon="5.86863">
        <ele>1073.2</ele>
        <time>2016-05-21T08:48:58Z</time>
      </trkpt>
      <trkpt lat="45.45414" lon="5.86858">
        <ele>1074.2</ele>
        <time>2016-05-21T08:49:01Z</time>
      </trkpt>
      <trkpt lat="45.45423" lon="5.86852">
        <ele>1075.1</ele>
        <time>2016-05-21T08:49:04Z</time>
      </trkpt>
      <trkpt lat="45.45432" lon="5.86847">
        <ele>1076</ele>
        <time>2016-05-21T08:49:07Z</time>
      </trkpt>
      <trkpt lat="45.45439" lon="5.8684">
        <ele>1076.6</ele>
        <time>2016-05-21T08:49:10Z</time>
      </trkpt>
      <trkpt lat="45.45446" lon="5.86835">
        <ele>1077.2</ele>
        <time>2016-05-21T08:49:13Z</time>
      </trkpt>
      <trkpt lat="45.45454" lon="5.86828">
        <ele>1078.1</ele>
        <time>2016-05-21T08:49:17Z</time>
      </trkpt>
      <trkpt lat="45.45463" lon="5.86823">
        <ele>1078.8</ele>
        <time>2016-05-21T08:49:20Z</time>
      </trkpt>
      <trkpt lat="45.45473" lon="5.86819">
        <ele>1079.6</ele>
        <time>2016-05-21T08:49:23Z</time>
      </trkpt>
      <trkpt lat="45.45482" lon="5.86816">
        <ele>1080.5</ele>
        <time>2016-05-21T08:49:26Z</time>
      </trkpt>
      <trkpt lat="45.45489" lon="5.86811">
        <ele>1081.3</ele>
        <time>2016-05-21T08:49:29Z</time>
      </trkpt>
      <trkpt lat="45.45496" lon="5.86808">
        <ele>1082.2</ele>
        <time>2016-05-21T08:49:32Z</time>
      </trkpt>
      <trkpt lat="45.45502" lon="5.86803">
        <ele>1083.1</ele>
        <time>2016-05-21T08:49:35Z</time>
      </trkpt>
      <trkpt lat="45.45508" lon="5.86795">
        <ele>1084.2</ele>
        <time>2016-05-21T08:49:38Z</time>
      </trkpt>
      <trkpt lat="45.45514" lon="5.86787">
        <ele>1085.2</ele>
        <time>2016-05-21T08:49:41Z</time>
      </trkpt>
      <trkpt lat="45.4552" lon="5.86777">
        <ele>1086.1</ele>
        <time>2016-05-21T08:49:44Z</time>
      </trkpt>
      <trkpt lat="45.45525" lon="5.86767">
        <ele>1086.7</ele>
        <time>2016-05-21T08:49:47Z</time>
      </trkpt>
      <trkpt lat="45.45529" lon="5.86757">
        <ele>1087.4</ele>
        <time>2016-05-21T08:49:50Z</time>
      </trkpt>
      <trkpt lat="45.45535" lon="5.8675">
        <ele>1087.9</ele>
        <time>2016-05-21T08:49:53Z</time>
      </trkpt>
      <trkpt lat="45.4554" lon="5.8674">
        <ele>1088.5</ele>
        <time>2016-05-21T08:49:56Z</time>
      </trkpt>
      <trkpt lat="45.45546" lon="5.86731">
        <ele>1089.1</ele>
        <time>2016-05-21T08:49:59Z</time>
      </trkpt>
      <trkpt lat="45.45553" lon="5.86725">
        <ele>1089.8</ele>
        <time>2016-05-21T08:50:02Z</time>
      </trkpt>
      <trkpt lat="45.4556" lon="5.86717">
        <ele>1090.6</ele>
        <time>2016-05-21T08:50:05Z</time>
      </trkpt>
      <trkpt lat="45.45566" lon="5.86709">
        <ele>1091.4</ele>
        <time>2016-05-21T08:50:08Z</time>
      </trkpt>
      <trkpt lat="45.45572" lon="5.867">
        <ele>1092</ele>
        <time>2016-05-21T08:50:11Z</time>
      </trkpt>
      <trkpt lat="45.45578" lon="5.86693">
        <ele>1092.7</ele>
        <time>2016-05-21T08:50:14Z</time>
      </trkpt>
      <trkpt lat="45.45584" lon="5.86687">
        <ele>1093.7</ele>
        <time>2016-05-21T08:50:17Z</time>
      </trkpt>
      <trkpt lat="45.45591" lon="5.86679">
        <ele>1094.6</ele>
        <time>2016-05-21T08:50:21Z</time>
      </trkpt>
      <trkpt lat="45.45598" lon="5.86671">
        <ele>1096</ele>
        <time>2016-05-21T08:50:25Z</time>
      </trkpt>
      <trkpt lat="45.45605" lon="5.86663">
        <ele>1097.1</ele>
        <time>2016-05-21T08:50:28Z</time>
      </trkpt>
      <trkpt lat="45.45611" lon="5.86655">
        <ele>1098.5</ele>
        <time>2016-05-21T08:50:31Z</time>
      </trkpt>
      <trkpt lat="45.45616" lon="5.86649">
        <ele>1099.6</ele>
        <time>2016-05-21T08:50:34Z</time>
      </trkpt>
      <trkpt lat="45.45621" lon="5.86641">
        <ele>1100.9</ele>
        <time>2016-05-21T08:50:37Z</time>
      </trkpt>
      <trkpt lat="45.45629" lon="5.86638">
        <ele>1102.1</ele>
        <time>2016-05-21T08:50:40Z</time>
      </trkpt>
      <trkpt lat="45.45636" lon="5.86634">
        <ele>1103.3</ele>
        <time>2016-05-21T08:50:43Z</time>
      </trkpt>
      <trkpt lat="45.45644" lon="5.86633">
        <ele>1104.2</ele>
        <time>2016-05-21T08:50:46Z</time>
      </trkpt>
      <trkpt lat="45.45653" lon="5.8663">
        <ele>1105.1</ele>
        <time>2016-05-21T08:50:49Z</time>
      </trkpt>
      <trkpt lat="45.45662" lon="5.86626">
        <ele>1106</ele>
        <time>2016-05-21T08:50:52Z</time>
      </trkpt>
      <trkpt lat="45.45671" lon="5.86622">
        <ele>1106.5</ele>
        <time>2016-05-21T08:50:55Z</time>
      </trkpt>
      <trkpt lat="45.4568" lon="5.86616">
        <ele>1106.8</ele>
        <time>2016-05-21T08:50:58Z</time>
      </trkpt>
      <trkpt lat="45.45689" lon="5.86611">
        <ele>1107</ele>
        <time>2016-05-21T08:51:01Z</time>
      </trkpt>
      <trkpt lat="45.45698" lon="5.86608">
        <ele>1107.5</ele>
        <time>2016-05-21T08:51:04Z</time>
      </trkpt>
      <trkpt lat="45.45705" lon="5.86603">
        <ele>1108.1</ele>
        <time>2016-05-21T08:51:07Z</time>
      </trkpt>
      <trkpt lat="45.45713" lon="5.86598">
        <ele>1108.7</ele>
        <time>2016-05-21T08:51:10Z</time>
      </trkpt>
      <trkpt lat="45.4572" lon="5.86592">
        <ele>1109.4</ele>
        <time>2016-05-21T08:51:13Z</time>
      </trkpt>
      <trkpt lat="45.45726" lon="5.86584">
        <ele>1110</ele>
        <time>2016-05-21T08:51:16Z</time>
      </trkpt>
      <trkpt lat="45.45731" lon="5.86574">
        <ele>1110.7</ele>
        <time>2016-05-21T08:51:20Z</time>
      </trkpt>
      <trkpt lat="45.45738" lon="5.86566">
        <ele>1111.4</ele>
        <time>2016-05-21T08:51:24Z</time>
      </trkpt>
      <trkpt lat="45.45744" lon="5.8656">
        <ele>1112</ele>
        <time>2016-05-21T08:51:27Z</time>
      </trkpt>
      <trkpt lat="45.4575" lon="5.86552">
        <ele>1112.6</ele>
        <time>2016-05-21T08:51:30Z</time>
      </trkpt>
      <trkpt lat="45.45756" lon="5.86545">
        <ele>1113.1</ele>
        <time>2016-05-21T08:51:33Z</time>
      </trkpt>
      <trkpt lat="45.45761" lon="5.86537">
        <ele>1113.6</ele>
        <time>2016-05-21T08:51:36Z</time>
      </trkpt>
      <trkpt lat="45.45767" lon="5.86529">
        <ele>1114.1</ele>
        <time>2016-05-21T08:51:39Z</time>
      </trkpt>
      <trkpt lat="45.45771" lon="5.8652">
        <ele>1114.6</ele>
        <time>2016-05-21T08:51:42Z</time>
      </trkpt>
      <trkpt lat="45.45776" lon="5.86511">
        <ele>1115.1</ele>
        <time>2016-05-21T08:51:45Z</time>
      </trkpt>
      <trkpt lat="45.45782" lon="5.86503">
        <ele>1115.7</ele>
        <time>2016-05-21T08:51:48Z</time>
      </trkpt>
      <trkpt lat="45.45789" lon="5.86499">
        <ele>1116.3</ele>
        <time>2016-05-21T08:51:51Z</time>
      </trkpt>
      <trkpt lat="45.45798" lon="5.86496">
        <ele>1117</ele>
        <time>2016-05-21T08:51:54Z</time>
      </trkpt>
      <trkpt lat="45.45807" lon="5.86495">
        <ele>1117.6</ele>
        <time>2016-05-21T08:51:57Z</time>
      </trkpt>
      <trkpt lat="45.45815" lon="5.86497">
        <ele>1118.2</ele>
        <time>2016-05-21T08:52:00Z</time>
      </trkpt>
      <trkpt lat="45.45823" lon="5.86496">
        <ele>1118.7</ele>
        <time>2016-05-21T08:52:03Z</time>
      </trkpt>
      <trkpt lat="45.45831" lon="5.86496">
        <ele>1119.3</ele>
        <time>2016-05-21T08:52:06Z</time>
      </trkpt>
      <trkpt lat="45.45839" lon="5.86495">
        <ele>1119.7</ele>
        <time>2016-05-21T08:52:09Z</time>
      </trkpt>
      <trkpt lat="45.45846" lon="5.86496">
        <ele>1120.3</ele>
        <time>2016-05-21T08:52:12Z</time>
      </trkpt>
      <trkpt lat="45.45854" lon="5.86499">
        <ele>1121</ele>
        <time>2016-05-21T08:52:15Z</time>
      </trkpt>
      <trkpt lat="45.45862" lon="5.865">
        <ele>1122.1</ele>
        <time>2016-05-21T08:52:19Z</time>
      </trkpt>
      <trkpt lat="45.4587" lon="5.86503">
        <ele>1123.7</ele>
        <time>2016-05-21T08:52:24Z</time>
      </trkpt>
      <trkpt lat="45.45876" lon="5.86512">
        <ele>1124.8</ele>
        <time>2016-05-21T08:52:28Z</time>
      </trkpt>
      <trkpt lat="45.45882" lon="5.86523">
        <ele>1125.9</ele>
        <time>2016-05-21T08:52:32Z</time>
      </trkpt>
      <trkpt lat="45.45885" lon="5.86533">
        <ele>1126.9</ele>
        <time>2016-05-21T08:52:35Z</time>
      </trkpt>
      <trkpt lat="45.45887" lon="5.86544">
        <ele>1127.9</ele>
        <time>2016-05-21T08:52:38Z</time>
      </trkpt>
      <trkpt lat="45.45886" lon="5.86557">
        <ele>1129</ele>
        <time>2016-05-21T08:52:41Z</time>
      </trkpt>
      <trkpt lat="45.45885" lon="5.86569">
        <ele>1129.8</ele>
        <time>2016-05-21T08:52:44Z</time>
      </trkpt>
      <trkpt lat="45.45884" lon="5.86581">
        <ele>1130.5</ele>
        <time>2016-05-21T08:52:47Z</time>
      </trkpt>
      <trkpt lat="45.45886" lon="5.86592">
        <ele>1131.2</ele>
        <time>2016-05-21T08:52:50Z</time>
      </trkpt>
      <trkpt lat="45.45894" lon="5.86598">
        <ele>1132</ele>
        <time>2016-05-21T08:52:53Z</time>
      </trkpt>
      <trkpt lat="45.45901" lon="5.86591">
        <ele>1133</ele>
        <time>2016-05-21T08:52:57Z</time>
      </trkpt>
      <trkpt lat="45.45906" lon="5.86582">
        <ele>1133.6</ele>
        <time>2016-05-21T08:53:00Z</time>
      </trkpt>
      <trkpt lat="45.45913" lon="5.86574">
        <ele>1134.3</ele>
        <time>2016-05-21T08:53:03Z</time>
      </trkpt>
      <trkpt lat="45.45919" lon="5.86566">
        <ele>1134.9</ele>
        <time>2016-05-21T08:53:06Z</time>
      </trkpt>
      <trkpt lat="45.45924" lon="5.86558">
        <ele>1135.4</ele>
        <time>2016-05-21T08:53:09Z</time>
      </trkpt>
      <trkpt lat="45.4593" lon="5.86551">
        <ele>1136</ele>
        <time>2016-05-21T08:53:12Z</time>
      </trkpt>
      <trkpt lat="45.45936" lon="5.86543">
        <ele>1136.5</ele>
        <time>2016-05-21T08:53:15Z</time>
      </trkpt>
      <trkpt lat="45.4594" lon="5.86535">
        <ele>1137.1</ele>
        <time>2016-05-21T08:53:18Z</time>
      </trkpt>
      <trkpt lat="45.45947" lon="5.86525">
        <ele>1137.9</ele>
        <time>2016-05-21T08:53:22Z</time>
      </trkpt>
      <trkpt lat="45.45952" lon="5.86518">
        <ele>1138.5</ele>
        <time>2016-05-21T08:53:25Z</time>
      </trkpt>
      <trkpt lat="45.45959" lon="5.8651">
        <ele>1139.4</ele>
        <time>2016-05-21T08:53:29Z</time>
      </trkpt>
      <trkpt lat="45.45967" lon="5.86502">
        <ele>1140.1</ele>
        <time>2016-05-21T08:53:33Z</time>
      </trkpt>
      <trkpt lat="45.45973" lon="5.86496">
        <ele>1140.8</ele>
        <time>2016-05-21T08:53:36Z</time>
      </trkpt>
      <trkpt lat="45.45982" lon="5.8649">
        <ele>1141.5</ele>
        <time>2016-05-21T08:53:40Z</time>
      </trkpt>
      <trkpt lat="45.45989" lon="5.86486">
        <ele>1142.1</ele>
        <time>2016-05-21T08:53:43Z</time>
      </trkpt>
      <trkpt lat="45.45997" lon="5.86482">
        <ele>1142.8</ele>
        <time>2016-05-21T08:53:47Z</time>
      </trkpt>
      <trkpt lat="45.46005" lon="5.86477">
        <ele>1143.6</ele>
        <time>2016-05-21T08:53:51Z</time>
      </trkpt>
      <trkpt lat="45.46013" lon="5.8647">
        <ele>1144.4</ele>
        <time>2016-05-21T08:53:55Z</time>
      </trkpt>
      <trkpt lat="45.4602" lon="5.86465">
        <ele>1145</ele>
        <time>2016-05-21T08:53:58Z</time>
      </trkpt>
      <trkpt lat="45.46027" lon="5.86457">
        <ele>1145.8</ele>
        <time>2016-05-21T08:54:02Z</time>
      </trkpt>
      <trkpt lat="45.46031" lon="5.86447">
        <ele>1146.4</ele>
        <time>2016-05-21T08:54:05Z</time>
      </trkpt>
      <trkpt lat="45.46034" lon="5.86437">
        <ele>1147</ele>
        <time>2016-05-21T08:54:08Z</time>
      </trkpt>
      <trkpt lat="45.46036" lon="5.86425">
        <ele>1147.8</ele>
        <time>2016-05-21T08:54:12Z</time>
      </trkpt>
      <trkpt lat="45.46038" lon="5.86412">
        <ele>1148.7</ele>
        <time>2016-05-21T08:54:16Z</time>
      </trkpt>
      <trkpt lat="45.46039" lon="5.864">
        <ele>1149.7</ele>
        <time>2016-05-21T08:54:20Z</time>
      </trkpt>
      <trkpt lat="45.46039" lon="5.86389">
        <ele>1150.5</ele>
        <time>2016-05-21T08:54:23Z</time>
      </trkpt>
      <trkpt lat="45.4604" lon="5.86377">
        <ele>1151.6</ele>
        <time>2016-05-21T08:54:27Z</time>
      </trkpt>
      <trkpt lat="45.46044" lon="5.86368">
        <ele>1152.4</ele>
        <time>2016-05-21T08:54:30Z</time>
      </trkpt>
      <trkpt lat="45.46053" lon="5.86367">
        <ele>1153.8</ele>
        <time>2016-05-21T08:54:35Z</time>
      </trkpt>
      <trkpt lat="45.46058" lon="5.86373">
        <ele>1154.7</ele>
        <time>2016-05-21T08:54:38Z</time>
      </trkpt>
      <trkpt lat="45.46064" lon="5.86382">
        <ele>1155.9</ele>
        <time>2016-05-21T08:54:41Z</time>
      </trkpt>
      <trkpt lat="45.46071" lon="5.86395">
        <ele>1156.9</ele>
        <time>2016-05-21T08:54:44Z</time>
      </trkpt>
      <trkpt lat="45.46076" lon="5.86409">
        <ele>1164.2</ele>
        <time>2016-05-21T08:54:47Z</time>
      </trkpt>
      <trkpt lat="45.46078" lon="5.8642">
        <ele>1166.6</ele>
        <time>2016-05-21T08:54:49Z</time>
      </trkpt>
      <trkpt lat="45.4608" lon="5.86432">
        <ele>1168.3</ele>
        <time>2016-05-21T08:54:51Z</time>
      </trkpt>
      <trkpt lat="45.46082" lon="5.86445">
        <ele>1168.8</ele>
        <time>2016-05-21T08:54:53Z</time>
      </trkpt>
      <trkpt lat="45.46083" lon="5.86456">
        <ele>1168.8</ele>
        <time>2016-05-21T08:54:55Z</time>
      </trkpt>
      <trkpt lat="45.46085" lon="5.86467">
        <ele>1169.8</ele>
        <time>2016-05-21T08:54:57Z</time>
      </trkpt>
      <trkpt lat="45.46085" lon="5.86478">
        <ele>1169.9</ele>
        <time>2016-05-21T08:54:59Z</time>
      </trkpt>
      <trkpt lat="45.46083" lon="5.86488">
        <ele>1170.3</ele>
        <time>2016-05-21T08:55:02Z</time>
      </trkpt>
      <trkpt lat="45.46079" lon="5.86498">
        <ele>1170.3</ele>
        <time>2016-05-21T08:55:05Z</time>
      </trkpt>
      <trkpt lat="45.46076" lon="5.86511">
        <ele>1170.4</ele>
        <time>2016-05-21T08:55:09Z</time>
      </trkpt>
      <trkpt lat="45.46074" lon="5.86522">
        <ele>1170.7</ele>
        <time>2016-05-21T08:55:12Z</time>
      </trkpt>
      <trkpt lat="45.46071" lon="5.86533">
        <ele>1170.9</ele>
        <time>2016-05-21T08:55:16Z</time>
      </trkpt>
      <trkpt lat="45.4607" lon="5.86544">
        <ele>1170.9</ele>
        <time>2016-05-21T08:55:19Z</time>
      </trkpt>
      <trkpt lat="45.4607" lon="5.86556">
        <ele>1171.2</ele>
        <time>2016-05-21T08:55:22Z</time>
      </trkpt>
      <trkpt lat="45.46071" lon="5.86571">
        <ele>1171.5</ele>
        <time>2016-05-21T08:55:25Z</time>
      </trkpt>
      <trkpt lat="45.46073" lon="5.86581">
        <ele>1171.6</ele>
        <time>2016-05-21T08:55:27Z</time>
      </trkpt>
      <trkpt lat="45.4608" lon="5.8659">
        <ele>1171.8</ele>
        <time>2016-05-21T08:55:30Z</time>
      </trkpt>
      <trkpt lat="45.46088" lon="5.86593">
        <ele>1172</ele>
        <time>2016-05-21T08:55:33Z</time>
      </trkpt>
      <trkpt lat="45.46097" lon="5.86597">
        <ele>1172.5</ele>
        <time>2016-05-21T08:55:36Z</time>
      </trkpt>
      <trkpt lat="45.46107" lon="5.866">
        <ele>1173</ele>
        <time>2016-05-21T08:55:39Z</time>
      </trkpt>
      <trkpt lat="45.46116" lon="5.86602">
        <ele>1173.4</ele>
        <time>2016-05-21T08:55:42Z</time>
      </trkpt>
      <trkpt lat="45.46124" lon="5.86602">
        <ele>1173.8</ele>
        <time>2016-05-21T08:55:45Z</time>
      </trkpt>
      <trkpt lat="45.46132" lon="5.86602">
        <ele>1174.2</ele>
        <time>2016-05-21T08:55:48Z</time>
      </trkpt>
      <trkpt lat="45.4614" lon="5.86603">
        <ele>1174.7</ele>
        <time>2016-05-21T08:55:51Z</time>
      </trkpt>
      <trkpt lat="45.46147" lon="5.86604">
        <ele>1175.1</ele>
        <time>2016-05-21T08:55:54Z</time>
      </trkpt>
      <trkpt lat="45.46156" lon="5.86608">
        <ele>1175.7</ele>
        <time>2016-05-21T08:55:58Z</time>
      </trkpt>
      <trkpt lat="45.46165" lon="5.86611">
        <ele>1176.3</ele>
        <time>2016-05-21T08:56:02Z</time>
      </trkpt>
      <trkpt lat="45.46174" lon="5.86614">
        <ele>1176.9</ele>
        <time>2016-05-21T08:56:06Z</time>
      </trkpt>
      <trkpt lat="45.46184" lon="5.86616">
        <ele>1177.5</ele>
        <time>2016-05-21T08:56:10Z</time>
      </trkpt>
      <trkpt lat="45.46192" lon="5.86617">
        <ele>1178.1</ele>
        <time>2016-05-21T08:56:14Z</time>
      </trkpt>
      <trkpt lat="45.46199" lon="5.86619">
        <ele>1178.6</ele>
        <time>2016-05-21T08:56:17Z</time>
      </trkpt>
      <trkpt lat="45.46207" lon="5.86622">
        <ele>1179.2</ele>
        <time>2016-05-21T08:56:20Z</time>
      </trkpt>
      <trkpt lat="45.46215" lon="5.86621">
        <ele>1179.9</ele>
        <time>2016-05-21T08:56:23Z</time>
      </trkpt>
      <trkpt lat="45.46223" lon="5.86619">
        <ele>1180.6</ele>
        <time>2016-05-21T08:56:27Z</time>
      </trkpt>
      <trkpt lat="45.46231" lon="5.86619">
        <ele>1181.3</ele>
        <time>2016-05-21T08:56:30Z</time>
      </trkpt>
      <trkpt lat="45.46239" lon="5.86619">
        <ele>1182.1</ele>
        <time>2016-05-21T08:56:34Z</time>
      </trkpt>
      <trkpt lat="45.46248" lon="5.86616">
        <ele>1183</ele>
        <time>2016-05-21T08:56:39Z</time>
      </trkpt>
      <trkpt lat="45.46257" lon="5.86612">
        <ele>1183.9</ele>
        <time>2016-05-21T08:56:43Z</time>
      </trkpt>
      <trkpt lat="45.46265" lon="5.86609">
        <ele>1184.9</ele>
        <time>2016-05-21T08:56:47Z</time>
      </trkpt>
      <trkpt lat="45.46274" lon="5.86604">
        <ele>1185.7</ele>
        <time>2016-05-21T08:56:50Z</time>
      </trkpt>
      <trkpt lat="45.46281" lon="5.86598">
        <ele>1186.4</ele>
        <time>2016-05-21T08:56:53Z</time>
      </trkpt>
      <trkpt lat="45.46289" lon="5.86589">
        <ele>1187.3</ele>
        <time>2016-05-21T08:56:57Z</time>
      </trkpt>
      <trkpt lat="45.46295" lon="5.86584">
        <ele>1187.9</ele>
        <time>2016-05-21T08:57:00Z</time>
      </trkpt>
      <trkpt lat="45.46303" lon="5.86578">
        <ele>1188.7</ele>
        <time>2016-05-21T08:57:04Z</time>
      </trkpt>
      <trkpt lat="45.46311" lon="5.86572">
        <ele>1189.3</ele>
        <time>2016-05-21T08:57:07Z</time>
      </trkpt>
      <trkpt lat="45.46319" lon="5.86566">
        <ele>1190.1</ele>
        <time>2016-05-21T08:57:11Z</time>
      </trkpt>
      <trkpt lat="45.46327" lon="5.8656">
        <ele>1190.9</ele>
        <time>2016-05-21T08:57:15Z</time>
      </trkpt>
      <trkpt lat="45.46336" lon="5.86554">
        <ele>1191.9</ele>
        <time>2016-05-21T08:57:19Z</time>
      </trkpt>
      <trkpt lat="45.46343" lon="5.86546">
        <ele>1192.8</ele>
        <time>2016-05-21T08:57:23Z</time>
      </trkpt>
      <trkpt lat="45.46349" lon="5.86539">
        <ele>1193.5</ele>
        <time>2016-05-21T08:57:26Z</time>
      </trkpt>
      <trkpt lat="45.46356" lon="5.86532">
        <ele>1194.2</ele>
        <time>2016-05-21T08:57:29Z</time>
      </trkpt>
      <trkpt lat="45.46363" lon="5.86525">
        <ele>1194.9</ele>
        <time>2016-05-21T08:57:32Z</time>
      </trkpt>
      <trkpt lat="45.4637" lon="5.86519">
        <ele>1195.7</ele>
        <time>2016-05-21T08:57:36Z</time>
      </trkpt>
      <trkpt lat="45.46376" lon="5.86512">
        <ele>1196.4</ele>
        <time>2016-05-21T08:57:39Z</time>
      </trkpt>
      <trkpt lat="45.46384" lon="5.86503">
        <ele>1197.3</ele>
        <time>2016-05-21T08:57:43Z</time>
      </trkpt>
      <trkpt lat="45.46391" lon="5.86495">
        <ele>1198.3</ele>
        <time>2016-05-21T08:57:47Z</time>
      </trkpt>
      <trkpt lat="45.46398" lon="5.86488">
        <ele>1199</ele>
        <time>2016-05-21T08:57:50Z</time>
      </trkpt>
      <trkpt lat="45.46403" lon="5.86481">
        <ele>1199.8</ele>
        <time>2016-05-21T08:57:53Z</time>
      </trkpt>
      <trkpt lat="45.4641" lon="5.86474">
        <ele>1200.5</ele>
        <time>2016-05-21T08:57:56Z</time>
      </trkpt>
      <trkpt lat="45.46416" lon="5.86467">
        <ele>1201.2</ele>
        <time>2016-05-21T08:57:59Z</time>
      </trkpt>
      <trkpt lat="45.46423" lon="5.8646">
        <ele>1201.9</ele>
        <time>2016-05-21T08:58:02Z</time>
      </trkpt>
      <trkpt lat="45.46429" lon="5.86453">
        <ele>1202.6</ele>
        <time>2016-05-21T08:58:05Z</time>
      </trkpt>
      <trkpt lat="45.46434" lon="5.86445">
        <ele>1203.2</ele>
        <time>2016-05-21T08:58:08Z</time>
      </trkpt>
      <trkpt lat="45.46441" lon="5.86436">
        <ele>1204.2</ele>
        <time>2016-05-21T08:58:12Z</time>
      </trkpt>
      <trkpt lat="45.46447" lon="5.8643">
        <ele>1205</ele>
        <time>2016-05-21T08:58:15Z</time>
      </trkpt>
      <trkpt lat="45.46454" lon="5.86425">
        <ele>1205.8</ele>
        <time>2016-05-21T08:58:18Z</time>
      </trkpt>
      <trkpt lat="45.46464" lon="5.86421">
        <ele>1206.4</ele>
        <time>2016-05-21T08:58:21Z</time>
      </trkpt>
      <trkpt lat="45.46473" lon="5.86417">
        <ele>1206.9</ele>
        <time>2016-05-21T08:58:24Z</time>
      </trkpt>
      <trkpt lat="45.46482" lon="5.86414">
        <ele>1207.7</ele>
        <time>2016-05-21T08:58:27Z</time>
      </trkpt>
      <trkpt lat="45.4649" lon="5.86411">
        <ele>1208.5</ele>
        <time>2016-05-21T08:58:30Z</time>
      </trkpt>
      <trkpt lat="45.46497" lon="5.86408">
        <ele>1209</ele>
        <time>2016-05-21T08:58:32Z</time>
      </trkpt>
      <trkpt lat="45.46505" lon="5.86406">
        <ele>1209.3</ele>
        <time>2016-05-21T08:58:34Z</time>
      </trkpt>
      <trkpt lat="45.46512" lon="5.86404">
        <ele>1209.7</ele>
        <time>2016-05-21T08:58:36Z</time>
      </trkpt>
      <trkpt lat="45.46522" lon="5.864">
        <ele>1210.2</ele>
        <time>2016-05-21T08:58:39Z</time>
      </trkpt>
      <trkpt lat="45.46531" lon="5.86395">
        <ele>1210.7</ele>
        <time>2016-05-21T08:58:42Z</time>
      </trkpt>
      <trkpt lat="45.46538" lon="5.86392">
        <ele>1211.2</ele>
        <time>2016-05-21T08:58:45Z</time>
      </trkpt>
      <trkpt lat="45.46548" lon="5.86389">
        <ele>1211.7</ele>
        <time>2016-05-21T08:58:48Z</time>
      </trkpt>
      <trkpt lat="45.46556" lon="5.86384">
        <ele>1212.2</ele>
        <time>2016-05-21T08:58:51Z</time>
      </trkpt>
      <trkpt lat="45.46565" lon="5.86379">
        <ele>1212.7</ele>
        <time>2016-05-21T08:58:54Z</time>
      </trkpt>
      <trkpt lat="45.46572" lon="5.8637">
        <ele>1213.2</ele>
        <time>2016-05-21T08:58:57Z</time>
      </trkpt>
      <trkpt lat="45.46575" lon="5.8636">
        <ele>1213.8</ele>
        <time>2016-05-21T08:59:00Z</time>
      </trkpt>
      <trkpt lat="45.46573" lon="5.8635">
        <ele>1214.4</ele>
        <time>2016-05-21T08:59:03Z</time>
      </trkpt>
      <trkpt lat="45.46567" lon="5.86341">
        <ele>1214.9</ele>
        <time>2016-05-21T08:59:06Z</time>
      </trkpt>
      <trkpt lat="45.46561" lon="5.8633">
        <ele>1215.4</ele>
        <time>2016-05-21T08:59:09Z</time>
      </trkpt>
      <trkpt lat="45.46554" lon="5.86323">
        <ele>1215.9</ele>
        <time>2016-05-21T08:59:12Z</time>
      </trkpt>
      <trkpt lat="45.46547" lon="5.86315">
        <ele>1216.6</ele>
        <time>2016-05-21T08:59:15Z</time>
      </trkpt>
      <trkpt lat="45.46541" lon="5.86308">
        <ele>1217.2</ele>
        <time>2016-05-21T08:59:18Z</time>
      </trkpt>
      <trkpt lat="45.46535" lon="5.86301">
        <ele>1218</ele>
        <time>2016-05-21T08:59:21Z</time>
      </trkpt>
      <trkpt lat="45.46529" lon="5.86293">
        <ele>1218.8</ele>
        <time>2016-05-21T08:59:24Z</time>
      </trkpt>
      <trkpt lat="45.46522" lon="5.86287">
        <ele>1219.5</ele>
        <time>2016-05-21T08:59:27Z</time>
      </trkpt>
      <trkpt lat="45.46514" lon="5.8628">
        <ele>1220.2</ele>
        <time>2016-05-21T08:59:30Z</time>
      </trkpt>
      <trkpt lat="45.46507" lon="5.86273">
        <ele>1220.9</ele>
        <time>2016-05-21T08:59:33Z</time>
      </trkpt>
      <trkpt lat="45.46502" lon="5.86267">
        <ele>1221.6</ele>
        <time>2016-05-21T08:59:36Z</time>
      </trkpt>
      <trkpt lat="45.46493" lon="5.86262">
        <ele>1222.2</ele>
        <time>2016-05-21T08:59:39Z</time>
      </trkpt>
      <trkpt lat="45.46486" lon="5.86258">
        <ele>1223</ele>
        <time>2016-05-21T08:59:42Z</time>
      </trkpt>
      <trkpt lat="45.46477" lon="5.86254">
        <ele>1223.6</ele>
        <time>2016-05-21T08:59:45Z</time>
      </trkpt>
      <trkpt lat="45.46469" lon="5.86251">
        <ele>1224.4</ele>
        <time>2016-05-21T08:59:48Z</time>
      </trkpt>
      <trkpt lat="45.46461" lon="5.86248">
        <ele>1225</ele>
        <time>2016-05-21T08:59:51Z</time>
      </trkpt>
      <trkpt lat="45.46451" lon="5.86248">
        <ele>1225.7</ele>
        <time>2016-05-21T08:59:54Z</time>
      </trkpt>
      <trkpt lat="45.46444" lon="5.86247">
        <ele>1226.1</ele>
        <time>2016-05-21T08:59:56Z</time>
      </trkpt>
      <trkpt lat="45.46434" lon="5.86245">
        <ele>1226.8</ele>
        <time>2016-05-21T08:59:59Z</time>
      </trkpt>
      <trkpt lat="45.46424" lon="5.86245">
        <ele>1227.4</ele>
        <time>2016-05-21T09:00:02Z</time>
      </trkpt>
      <trkpt lat="45.46414" lon="5.86243">
        <ele>1228.1</ele>
        <time>2016-05-21T09:00:05Z</time>
      </trkpt>
      <trkpt lat="45.46406" lon="5.86241">
        <ele>1228.9</ele>
        <time>2016-05-21T09:00:08Z</time>
      </trkpt>
      <trkpt lat="45.46396" lon="5.86238">
        <ele>1229.6</ele>
        <time>2016-05-21T09:00:11Z</time>
      </trkpt>
      <trkpt lat="45.46388" lon="5.86236">
        <ele>1230.3</ele>
        <time>2016-05-21T09:00:14Z</time>
      </trkpt>
      <trkpt lat="45.46379" lon="5.86233">
        <ele>1231</ele>
        <time>2016-05-21T09:00:17Z</time>
      </trkpt>
      <trkpt lat="45.46372" lon="5.86228">
        <ele>1231.8</ele>
        <time>2016-05-21T09:00:20Z</time>
      </trkpt>
      <trkpt lat="45.46366" lon="5.86222">
        <ele>1232.6</ele>
        <time>2016-05-21T09:00:23Z</time>
      </trkpt>
      <trkpt lat="45.46361" lon="5.86215">
        <ele>1233.4</ele>
        <time>2016-05-21T09:00:26Z</time>
      </trkpt>
      <trkpt lat="45.46355" lon="5.86208">
        <ele>1234.2</ele>
        <time>2016-05-21T09:00:29Z</time>
      </trkpt>
      <trkpt lat="45.46349" lon="5.86199">
        <ele>1235.1</ele>
        <time>2016-05-21T09:00:32Z</time>
      </trkpt>
      <trkpt lat="45.46343" lon="5.86191">
        <ele>1236</ele>
        <time>2016-05-21T09:00:35Z</time>
      </trkpt>
      <trkpt lat="45.46338" lon="5.86181">
        <ele>1237</ele>
        <time>2016-05-21T09:00:38Z</time>
      </trkpt>
      <trkpt lat="45.46333" lon="5.86173">
        <ele>1237.9</ele>
        <time>2016-05-21T09:00:41Z</time>
      </trkpt>
      <trkpt lat="45.46326" lon="5.86162">
        <ele>1238.8</ele>
        <time>2016-05-21T09:00:44Z</time>
      </trkpt>
      <trkpt lat="45.46321" lon="5.86149">
        <ele>1239.5</ele>
        <time>2016-05-21T09:00:47Z</time>
      </trkpt>
      <trkpt lat="45.46318" lon="5.86135">
        <ele>1242</ele>
        <time>2016-05-21T09:00:50Z</time>
      </trkpt>
      <trkpt lat="45.46317" lon="5.86123">
        <ele>1245.1</ele>
        <time>2016-05-21T09:00:52Z</time>
      </trkpt>
      <trkpt lat="45.46318" lon="5.86111">
        <ele>1246.5</ele>
        <time>2016-05-21T09:00:54Z</time>
      </trkpt>
      <trkpt lat="45.46318" lon="5.86098">
        <ele>1247</ele>
        <time>2016-05-21T09:00:56Z</time>
      </trkpt>
      <trkpt lat="45.46318" lon="5.86085">
        <ele>1247.6</ele>
        <time>2016-05-21T09:00:58Z</time>
      </trkpt>
      <trkpt lat="45.46318" lon="5.86073">
        <ele>1248.3</ele>
        <time>2016-05-21T09:01:00Z</time>
      </trkpt>
      <trkpt lat="45.46318" lon="5.8606">
        <ele>1248.4</ele>
        <time>2016-05-21T09:01:02Z</time>
      </trkpt>
      <trkpt lat="45.46316" lon="5.86045">
        <ele>1249</ele>
        <time>2016-05-21T09:01:04Z</time>
      </trkpt>
      <trkpt lat="45.46312" lon="5.86034">
        <ele>1250</ele>
        <time>2016-05-21T09:01:06Z</time>
      </trkpt>
      <trkpt lat="45.46308" lon="5.86024">
        <ele>1251.4</ele>
        <time>2016-05-21T09:01:08Z</time>
      </trkpt>
      <trkpt lat="45.46302" lon="5.86013">
        <ele>1252.6</ele>
        <time>2016-05-21T09:01:10Z</time>
      </trkpt>
      <trkpt lat="45.46297" lon="5.86002">
        <ele>1253.7</ele>
        <time>2016-05-21T09:01:12Z</time>
      </trkpt>
      <trkpt lat="45.46294" lon="5.85993">
        <ele>1255.1</ele>
        <time>2016-05-21T09:01:14Z</time>
      </trkpt>
      <trkpt lat="45.4629" lon="5.85984">
        <ele>1255.2</ele>
        <time>2016-05-21T09:01:16Z</time>
      </trkpt>
      <trkpt lat="45.46286" lon="5.85975">
        <ele>1255.5</ele>
        <time>2016-05-21T09:01:18Z</time>
      </trkpt>
      <trkpt lat="45.46281" lon="5.85962">
        <ele>1255.6</ele>
        <time>2016-05-21T09:01:21Z</time>
      </trkpt>
      <trkpt lat="45.46274" lon="5.85953">
        <ele>1255.7</ele>
        <time>2016-05-21T09:01:24Z</time>
      </trkpt>
      <trkpt lat="45.46267" lon="5.85945">
        <ele>1255.9</ele>
        <time>2016-05-21T09:01:27Z</time>
      </trkpt>
      <trkpt lat="45.46259" lon="5.85938">
        <ele>1256.2</ele>
        <time>2016-05-21T09:01:30Z</time>
      </trkpt>
      <trkpt lat="45.46254" lon="5.85929">
        <ele>1256.6</ele>
        <time>2016-05-21T09:01:33Z</time>
      </trkpt>
      <trkpt lat="45.46245" lon="5.85919">
        <ele>1257.7</ele>
        <time>2016-05-21T09:01:37Z</time>
      </trkpt>
      <trkpt lat="45.46239" lon="5.85912">
        <ele>1258.7</ele>
        <time>2016-05-21T09:01:39Z</time>
      </trkpt>
      <trkpt lat="45.46231" lon="5.85905">
        <ele>1258.5</ele>
        <time>2016-05-21T09:01:41Z</time>
      </trkpt>
      <trkpt lat="45.46222" lon="5.85896">
        <ele>1257.9</ele>
        <time>2016-05-21T09:01:43Z</time>
      </trkpt>
      <trkpt lat="45.46213" lon="5.85885">
        <ele>1257.4</ele>
        <time>2016-05-21T09:01:45Z</time>
      </trkpt>
      <trkpt lat="45.46204" lon="5.85873">
        <ele>1256.8</ele>
        <time>2016-05-21T09:01:47Z</time>
      </trkpt>
      <trkpt lat="45.46194" lon="5.85864">
        <ele>1255.6</ele>
        <time>2016-05-21T09:01:49Z</time>
      </trkpt>
      <trkpt lat="45.4618" lon="5.85865">
        <ele>1255</ele>
        <time>2016-05-21T09:01:51Z</time>
      </trkpt>
      <trkpt lat="45.46166" lon="5.85868">
        <ele>1255.4</ele>
        <time>2016-05-21T09:01:53Z</time>
      </trkpt>
      <trkpt lat="45.46158" lon="5.8587">
        <ele>1255.4</ele>
        <time>2016-05-21T09:01:54Z</time>
      </trkpt>
      <trkpt lat="45.46151" lon="5.85872">
        <ele>1255.4</ele>
        <time>2016-05-21T09:01:55Z</time>
      </trkpt>
      <trkpt lat="45.46143" lon="5.85874">
        <ele>1255.5</ele>
        <time>2016-05-21T09:01:56Z</time>
      </trkpt>
      <trkpt lat="45.46129" lon="5.85878">
        <ele>1255.7</ele>
        <time>2016-05-21T09:01:58Z</time>
      </trkpt>
      <trkpt lat="45.46115" lon="5.8588">
        <ele>1256</ele>
        <time>2016-05-21T09:02:00Z</time>
      </trkpt>
      <trkpt lat="45.46102" lon="5.8588">
        <ele>1256.1</ele>
        <time>2016-05-21T09:02:02Z</time>
      </trkpt>
      <trkpt lat="45.46088" lon="5.85879">
        <ele>1256</ele>
        <time>2016-05-21T09:02:04Z</time>
      </trkpt>
      <trkpt lat="45.46075" lon="5.85875">
        <ele>1255.6</ele>
        <time>2016-05-21T09:02:06Z</time>
      </trkpt>
      <trkpt lat="45.46067" lon="5.85872">
        <ele>1255.2</ele>
        <time>2016-05-21T09:02:07Z</time>
      </trkpt>
      <trkpt lat="45.46054" lon="5.85864">
        <ele>1254.5</ele>
        <time>2016-05-21T09:02:09Z</time>
      </trkpt>
      <trkpt lat="45.46041" lon="5.85856">
        <ele>1254.1</ele>
        <time>2016-05-21T09:02:11Z</time>
      </trkpt>
      <trkpt lat="45.46034" lon="5.85852">
        <ele>1254</ele>
        <time>2016-05-21T09:02:12Z</time>
      </trkpt>
      <trkpt lat="45.46028" lon="5.85847">
        <ele>1253.8</ele>
        <time>2016-05-21T09:02:13Z</time>
      </trkpt>
      <trkpt lat="45.46015" lon="5.85838">
        <ele>1253.9</ele>
        <time>2016-05-21T09:02:15Z</time>
      </trkpt>
      <trkpt lat="45.46002" lon="5.85831">
        <ele>1254.2</ele>
        <time>2016-05-21T09:02:17Z</time>
      </trkpt>
      <trkpt lat="45.45989" lon="5.85823">
        <ele>1254.5</ele>
        <time>2016-05-21T09:02:19Z</time>
      </trkpt>
      <trkpt lat="45.45978" lon="5.85818">
        <ele>1254.6</ele>
        <time>2016-05-21T09:02:21Z</time>
      </trkpt>
      <trkpt lat="45.45968" lon="5.85813">
        <ele>1254.3</ele>
        <time>2016-05-21T09:02:23Z</time>
      </trkpt>
      <trkpt lat="45.45959" lon="5.8581">
        <ele>1253.5</ele>
        <time>2016-05-21T09:02:25Z</time>
      </trkpt>
      <trkpt lat="45.45952" lon="5.85807">
        <ele>1253.4</ele>
        <time>2016-05-21T09:02:27Z</time>
      </trkpt>
      <trkpt lat="45.45944" lon="5.85804">
        <ele>1253.2</ele>
        <time>2016-05-21T09:02:30Z</time>
      </trkpt>
      <trkpt lat="45.45942" lon="5.85803">
        <ele>1252.9</ele>
        <time>2016-05-21T09:02:37Z</time>
      </trkpt>
      <trkpt lat="45.45933" lon="5.85803">
        <ele>1247.4</ele>
        <time>2016-05-21T09:11:53Z</time>
      </trkpt>
      <trkpt lat="45.45925" lon="5.85801">
        <ele>1247.4</ele>
        <time>2016-05-21T09:11:56Z</time>
      </trkpt>
      <trkpt lat="45.45917" lon="5.85799">
        <ele>1246.8</ele>
        <time>2016-05-21T09:11:58Z</time>
      </trkpt>
      <trkpt lat="45.45907" lon="5.85798">
        <ele>1246.8</ele>
        <time>2016-05-21T09:12:00Z</time>
      </trkpt>
      <trkpt lat="45.45898" lon="5.85796">
        <ele>1246.9</ele>
        <time>2016-05-21T09:12:02Z</time>
      </trkpt>
      <trkpt lat="45.45889" lon="5.85794">
        <ele>1246.8</ele>
        <time>2016-05-21T09:12:04Z</time>
      </trkpt>
      <trkpt lat="45.4588" lon="5.85793">
        <ele>1246.8</ele>
        <time>2016-05-21T09:12:06Z</time>
      </trkpt>
      <trkpt lat="45.45871" lon="5.85791">
        <ele>1246.5</ele>
        <time>2016-05-21T09:12:08Z</time>
      </trkpt>
      <trkpt lat="45.45861" lon="5.85789">
        <ele>1246.4</ele>
        <time>2016-05-21T09:12:10Z</time>
      </trkpt>
      <trkpt lat="45.45851" lon="5.85786">
        <ele>1246.1</ele>
        <time>2016-05-21T09:12:12Z</time>
      </trkpt>
      <trkpt lat="45.4584" lon="5.85783">
        <ele>1246.5</ele>
        <time>2016-05-21T09:12:14Z</time>
      </trkpt>
      <trkpt lat="45.45828" lon="5.85781">
        <ele>1246.5</ele>
        <time>2016-05-21T09:12:16Z</time>
      </trkpt>
      <trkpt lat="45.45814" lon="5.8578">
        <ele>1246.3</ele>
        <time>2016-05-21T09:12:18Z</time>
      </trkpt>
      <trkpt lat="45.458" lon="5.85777">
        <ele>1245.6</ele>
        <time>2016-05-21T09:12:20Z</time>
      </trkpt>
      <trkpt lat="45.45793" lon="5.85775">
        <ele>1245.3</ele>
        <time>2016-05-21T09:12:21Z</time>
      </trkpt>
      <trkpt lat="45.45785" lon="5.85773">
        <ele>1244.9</ele>
        <time>2016-05-21T09:12:22Z</time>
      </trkpt>
      <trkpt lat="45.45778" lon="5.85772">
        <ele>1244.7</ele>
        <time>2016-05-21T09:12:23Z</time>
      </trkpt>
      <trkpt lat="45.45771" lon="5.8577">
        <ele>1244.3</ele>
        <time>2016-05-21T09:12:24Z</time>
      </trkpt>
      <trkpt lat="45.45763" lon="5.85768">
        <ele>1244</ele>
        <time>2016-05-21T09:12:25Z</time>
      </trkpt>
      <trkpt lat="45.45755" lon="5.85766">
        <ele>1243.8</ele>
        <time>2016-05-21T09:12:26Z</time>
      </trkpt>
      <trkpt lat="45.45747" lon="5.85763">
        <ele>1243.6</ele>
        <time>2016-05-21T09:12:27Z</time>
      </trkpt>
      <trkpt lat="45.45739" lon="5.85761">
        <ele>1243.3</ele>
        <time>2016-05-21T09:12:28Z</time>
      </trkpt>
      <trkpt lat="45.45731" lon="5.85759">
        <ele>1243.3</ele>
        <time>2016-05-21T09:12:29Z</time>
      </trkpt>
      <trkpt lat="45.45723" lon="5.85758">
        <ele>1243.7</ele>
        <time>2016-05-21T09:12:30Z</time>
      </trkpt>
      <trkpt lat="45.45714" lon="5.85757">
        <ele>1243.8</ele>
        <time>2016-05-21T09:12:31Z</time>
      </trkpt>
      <trkpt lat="45.45704" lon="5.85761">
        <ele>1244</ele>
        <time>2016-05-21T09:12:32Z</time>
      </trkpt>
      <trkpt lat="45.45695" lon="5.85766">
        <ele>1243.9</ele>
        <time>2016-05-21T09:12:33Z</time>
      </trkpt>
      <trkpt lat="45.45685" lon="5.8577">
        <ele>1243.8</ele>
        <time>2016-05-21T09:12:34Z</time>
      </trkpt>
      <trkpt lat="45.45675" lon="5.85776">
        <ele>1244.5</ele>
        <time>2016-05-21T09:12:35Z</time>
      </trkpt>
      <trkpt lat="45.45665" lon="5.85783">
        <ele>1244.9</ele>
        <time>2016-05-21T09:12:36Z</time>
      </trkpt>
      <trkpt lat="45.45654" lon="5.85791">
        <ele>1245.1</ele>
        <time>2016-05-21T09:12:37Z</time>
      </trkpt>
      <trkpt lat="45.45643" lon="5.858">
        <ele>1244.8</ele>
        <time>2016-05-21T09:12:38Z</time>
      </trkpt>
      <trkpt lat="45.45633" lon="5.8581">
        <ele>1244</ele>
        <time>2016-05-21T09:12:39Z</time>
      </trkpt>
      <trkpt lat="45.45622" lon="5.85821">
        <ele>1242.8</ele>
        <time>2016-05-21T09:12:40Z</time>
      </trkpt>
      <trkpt lat="45.45612" lon="5.85833">
        <ele>1241.5</ele>
        <time>2016-05-21T09:12:41Z</time>
      </trkpt>
      <trkpt lat="45.45602" lon="5.85843">
        <ele>1240.3</ele>
        <time>2016-05-21T09:12:42Z</time>
      </trkpt>
      <trkpt lat="45.45591" lon="5.85853">
        <ele>1239.7</ele>
        <time>2016-05-21T09:12:43Z</time>
      </trkpt>
      <trkpt lat="45.4558" lon="5.85861">
        <ele>1239.1</ele>
        <time>2016-05-21T09:12:44Z</time>
      </trkpt>
      <trkpt lat="45.45568" lon="5.85867">
        <ele>1237.8</ele>
        <time>2016-05-21T09:12:45Z</time>
      </trkpt>
      <trkpt lat="45.45556" lon="5.85873">
        <ele>1236.3</ele>
        <time>2016-05-21T09:12:46Z</time>
      </trkpt>
      <trkpt lat="45.45545" lon="5.85878">
        <ele>1234.9</ele>
        <time>2016-05-21T09:12:47Z</time>
      </trkpt>
      <trkpt lat="45.45534" lon="5.85882">
        <ele>1233.8</ele>
        <time>2016-05-21T09:12:48Z</time>
      </trkpt>
      <trkpt lat="45.45522" lon="5.85882">
        <ele>1232.5</ele>
        <time>2016-05-21T09:12:49Z</time>
      </trkpt>
      <trkpt lat="45.45512" lon="5.85882">
        <ele>1231.4</ele>
        <time>2016-05-21T09:12:50Z</time>
      </trkpt>
      <trkpt lat="45.45501" lon="5.85882">
        <ele>1230.3</ele>
        <time>2016-05-21T09:12:51Z</time>
      </trkpt>
      <trkpt lat="45.45491" lon="5.8588">
        <ele>1229.5</ele>
        <time>2016-05-21T09:12:52Z</time>
      </trkpt>
      <trkpt lat="45.45481" lon="5.85878">
        <ele>1228.6</ele>
        <time>2016-05-21T09:12:53Z</time>
      </trkpt>
      <trkpt lat="45.4547" lon="5.85876">
        <ele>1227.8</ele>
        <time>2016-05-21T09:12:54Z</time>
      </trkpt>
      <trkpt lat="45.45461" lon="5.85874">
        <ele>1227.2</ele>
        <time>2016-05-21T09:12:55Z</time>
      </trkpt>
      <trkpt lat="45.4545" lon="5.85871">
        <ele>1226.7</ele>
        <time>2016-05-21T09:12:56Z</time>
      </trkpt>
      <trkpt lat="45.4544" lon="5.85867">
        <ele>1225.7</ele>
        <time>2016-05-21T09:12:57Z</time>
      </trkpt>
      <trkpt lat="45.45431" lon="5.8586">
        <ele>1224.6</ele>
        <time>2016-05-21T09:12:58Z</time>
      </trkpt>
      <trkpt lat="45.45421" lon="5.85853">
        <ele>1223.6</ele>
        <time>2016-05-21T09:12:59Z</time>
      </trkpt>
      <trkpt lat="45.45412" lon="5.85846">
        <ele>1222.7</ele>
        <time>2016-05-21T09:13:00Z</time>
      </trkpt>
      <trkpt lat="45.45403" lon="5.85839">
        <ele>1221.6</ele>
        <time>2016-05-21T09:13:01Z</time>
      </trkpt>
      <trkpt lat="45.45394" lon="5.85833">
        <ele>1220.6</ele>
        <time>2016-05-21T09:13:02Z</time>
      </trkpt>
      <trkpt lat="45.45386" lon="5.85827">
        <ele>1219.9</ele>
        <time>2016-05-21T09:13:03Z</time>
      </trkpt>
      <trkpt lat="45.45377" lon="5.8582">
        <ele>1219.4</ele>
        <time>2016-05-21T09:13:04Z</time>
      </trkpt>
      <trkpt lat="45.45369" lon="5.85814">
        <ele>1219.7</ele>
        <time>2016-05-21T09:13:05Z</time>
      </trkpt>
      <trkpt lat="45.45359" lon="5.85807">
        <ele>1219.8</ele>
        <time>2016-05-21T09:13:06Z</time>
      </trkpt>
      <trkpt lat="45.4535" lon="5.858">
        <ele>1220</ele>
        <time>2016-05-21T09:13:07Z</time>
      </trkpt>
      <trkpt lat="45.45342" lon="5.85792">
        <ele>1220</ele>
        <time>2016-05-21T09:13:08Z</time>
      </trkpt>
      <trkpt lat="45.45333" lon="5.85784">
        <ele>1220.4</ele>
        <time>2016-05-21T09:13:09Z</time>
      </trkpt>
      <trkpt lat="45.45323" lon="5.85774">
        <ele>1220</ele>
        <time>2016-05-21T09:13:10Z</time>
      </trkpt>
      <trkpt lat="45.45313" lon="5.85763">
        <ele>1217.8</ele>
        <time>2016-05-21T09:13:11Z</time>
      </trkpt>
      <trkpt lat="45.45308" lon="5.8575">
        <ele>1216.1</ele>
        <time>2016-05-21T09:13:12Z</time>
      </trkpt>
      <trkpt lat="45.45302" lon="5.85737">
        <ele>1215.1</ele>
        <time>2016-05-21T09:13:13Z</time>
      </trkpt>
      <trkpt lat="45.45296" lon="5.85724">
        <ele>1214.1</ele>
        <time>2016-05-21T09:13:14Z</time>
      </trkpt>
      <trkpt lat="45.45289" lon="5.85711">
        <ele>1213.2</ele>
        <time>2016-05-21T09:13:15Z</time>
      </trkpt>
      <trkpt lat="45.45283" lon="5.85698">
        <ele>1211.3</ele>
        <time>2016-05-21T09:13:16Z</time>
      </trkpt>
      <trkpt lat="45.45276" lon="5.85684">
        <ele>1208.8</ele>
        <time>2016-05-21T09:13:17Z</time>
      </trkpt>
      <trkpt lat="45.45271" lon="5.85671">
        <ele>1206.9</ele>
        <time>2016-05-21T09:13:18Z</time>
      </trkpt>
      <trkpt lat="45.45269" lon="5.85655">
        <ele>1205.7</ele>
        <time>2016-05-21T09:13:19Z</time>
      </trkpt>
      <trkpt lat="45.45267" lon="5.85639">
        <ele>1205.3</ele>
        <time>2016-05-21T09:13:20Z</time>
      </trkpt>
      <trkpt lat="45.45265" lon="5.85622">
        <ele>1205.1</ele>
        <time>2016-05-21T09:13:21Z</time>
      </trkpt>
      <trkpt lat="45.45262" lon="5.85606">
        <ele>1204.8</ele>
        <time>2016-05-21T09:13:22Z</time>
      </trkpt>
      <trkpt lat="45.45261" lon="5.8559">
        <ele>1204.6</ele>
        <time>2016-05-21T09:13:23Z</time>
      </trkpt>
      <trkpt lat="45.45261" lon="5.85572">
        <ele>1204.6</ele>
        <time>2016-05-21T09:13:24Z</time>
      </trkpt>
      <trkpt lat="45.45261" lon="5.85555">
        <ele>1205.3</ele>
        <time>2016-05-21T09:13:25Z</time>
      </trkpt>
      <trkpt lat="45.45261" lon="5.85538">
        <ele>1206.5</ele>
        <time>2016-05-21T09:13:26Z</time>
      </trkpt>
      <trkpt lat="45.45262" lon="5.85521">
        <ele>1207.6</ele>
        <time>2016-05-21T09:13:27Z</time>
      </trkpt>
      <trkpt lat="45.45263" lon="5.85504">
        <ele>1208.2</ele>
        <time>2016-05-21T09:13:28Z</time>
      </trkpt>
      <trkpt lat="45.45264" lon="5.85487">
        <ele>1208.5</ele>
        <time>2016-05-21T09:13:29Z</time>
      </trkpt>
      <trkpt lat="45.45266" lon="5.85472">
        <ele>1207.9</ele>
        <time>2016-05-21T09:13:30Z</time>
      </trkpt>
      <trkpt lat="45.45273" lon="5.85458">
        <ele>1207.7</ele>
        <time>2016-05-21T09:13:31Z</time>
      </trkpt>
      <trkpt lat="45.45282" lon="5.85455">
        <ele>1207.4</ele>
        <time>2016-05-21T09:13:32Z</time>
      </trkpt>
      <trkpt lat="45.4529" lon="5.85453">
        <ele>1207.2</ele>
        <time>2016-05-21T09:13:33Z</time>
      </trkpt>
      <trkpt lat="45.45299" lon="5.85452">
        <ele>1207</ele>
        <time>2016-05-21T09:13:35Z</time>
      </trkpt>
      <trkpt lat="45.45311" lon="5.85447">
        <ele>1207.6</ele>
        <time>2016-05-21T09:13:37Z</time>
      </trkpt>
      <trkpt lat="45.45318" lon="5.8544">
        <ele>1207.5</ele>
        <time>2016-05-21T09:13:38Z</time>
      </trkpt>
      <trkpt lat="45.45328" lon="5.85431">
        <ele>1206.3</ele>
        <time>2016-05-21T09:13:39Z</time>
      </trkpt>
      <trkpt lat="45.45344" lon="5.85409">
        <ele>1204.2</ele>
        <time>2016-05-21T09:13:41Z</time>
      </trkpt>
      <trkpt lat="45.4535" lon="5.85395">
        <ele>1203.4</ele>
        <time>2016-05-21T09:13:42Z</time>
      </trkpt>
      <trkpt lat="45.45356" lon="5.85383">
        <ele>1202.5</ele>
        <time>2016-05-21T09:13:43Z</time>
      </trkpt>
      <trkpt lat="45.45363" lon="5.85369">
        <ele>1202.4</ele>
        <time>2016-05-21T09:13:44Z</time>
      </trkpt>
      <trkpt lat="45.45366" lon="5.85353">
        <ele>1201.1</ele>
        <time>2016-05-21T09:13:45Z</time>
      </trkpt>
      <trkpt lat="45.45369" lon="5.85336">
        <ele>1199.9</ele>
        <time>2016-05-21T09:13:46Z</time>
      </trkpt>
      <trkpt lat="45.45371" lon="5.85318">
        <ele>1199.5</ele>
        <time>2016-05-21T09:13:47Z</time>
      </trkpt>
      <trkpt lat="45.45375" lon="5.85302">
        <ele>1198.9</ele>
        <time>2016-05-21T09:13:48Z</time>
      </trkpt>
      <trkpt lat="45.45378" lon="5.85284">
        <ele>1197.4</ele>
        <time>2016-05-21T09:13:49Z</time>
      </trkpt>
      <trkpt lat="45.45381" lon="5.85267">
        <ele>1196.5</ele>
        <time>2016-05-21T09:13:50Z</time>
      </trkpt>
      <trkpt lat="45.45385" lon="5.85251">
        <ele>1196.2</ele>
        <time>2016-05-21T09:13:51Z</time>
      </trkpt>
      <trkpt lat="45.45387" lon="5.85234">
        <ele>1195.1</ele>
        <time>2016-05-21T09:13:52Z</time>
      </trkpt>
      <trkpt lat="45.45391" lon="5.85216">
        <ele>1193.6</ele>
        <time>2016-05-21T09:13:53Z</time>
      </trkpt>
      <trkpt lat="45.45394" lon="5.85198">
        <ele>1192.7</ele>
        <time>2016-05-21T09:13:54Z</time>
      </trkpt>
      <trkpt lat="45.45394" lon="5.85179">
        <ele>1191.2</ele>
        <time>2016-05-21T09:13:55Z</time>
      </trkpt>
      <trkpt lat="45.45394" lon="5.8516">
        <ele>1190</ele>
        <time>2016-05-21T09:13:56Z</time>
      </trkpt>
      <trkpt lat="45.45396" lon="5.85142">
        <ele>1189</ele>
        <time>2016-05-21T09:13:57Z</time>
      </trkpt>
      <trkpt lat="45.45396" lon="5.85124">
        <ele>1188.3</ele>
        <time>2016-05-21T09:13:58Z</time>
      </trkpt>
      <trkpt lat="45.45396" lon="5.85106">
        <ele>1187.3</ele>
        <time>2016-05-21T09:13:59Z</time>
      </trkpt>
      <trkpt lat="45.45399" lon="5.85089">
        <ele>1186.8</ele>
        <time>2016-05-21T09:14:00Z</time>
      </trkpt>
      <trkpt lat="45.45403" lon="5.85072">
        <ele>1186.4</ele>
        <time>2016-05-21T09:14:01Z</time>
      </trkpt>
      <trkpt lat="45.45404" lon="5.85053">
        <ele>1185.9</ele>
        <time>2016-05-21T09:14:02Z</time>
      </trkpt>
      <trkpt lat="45.45406" lon="5.85035">
        <ele>1185.6</ele>
        <time>2016-05-21T09:14:03Z</time>
      </trkpt>
      <trkpt lat="45.45409" lon="5.85018">
        <ele>1185</ele>
        <time>2016-05-21T09:14:04Z</time>
      </trkpt>
      <trkpt lat="45.45411" lon="5.85001">
        <ele>1184.4</ele>
        <time>2016-05-21T09:14:05Z</time>
      </trkpt>
      <trkpt lat="45.45409" lon="5.84985">
        <ele>1182.7</ele>
        <time>2016-05-21T09:14:06Z</time>
      </trkpt>
      <trkpt lat="45.45408" lon="5.84969">
        <ele>1181.6</ele>
        <time>2016-05-21T09:14:07Z</time>
      </trkpt>
      <trkpt lat="45.45406" lon="5.84952">
        <ele>1180.9</ele>
        <time>2016-05-21T09:14:08Z</time>
      </trkpt>
      <trkpt lat="45.45404" lon="5.84937">
        <ele>1180.2</ele>
        <time>2016-05-21T09:14:09Z</time>
      </trkpt>
      <trkpt lat="45.45401" lon="5.84921">
        <ele>1179.7</ele>
        <time>2016-05-21T09:14:10Z</time>
      </trkpt>
      <trkpt lat="45.45399" lon="5.84902">
        <ele>1179.2</ele>
        <time>2016-05-21T09:14:11Z</time>
      </trkpt>
      <trkpt lat="45.45399" lon="5.84887">
        <ele>1178.3</ele>
        <time>2016-05-21T09:14:12Z</time>
      </trkpt>
      <trkpt lat="45.45397" lon="5.84873">
        <ele>1177.2</ele>
        <time>2016-05-21T09:14:13Z</time>
      </trkpt>
      <trkpt lat="45.45394" lon="5.84861">
        <ele>1175.8</ele>
        <time>2016-05-21T09:14:14Z</time>
      </trkpt>
      <trkpt lat="45.45388" lon="5.84845">
        <ele>1174.7</ele>
        <time>2016-05-21T09:14:15Z</time>
      </trkpt>
      <trkpt lat="45.45381" lon="5.84826">
        <ele>1174</ele>
        <time>2016-05-21T09:14:16Z</time>
      </trkpt>
      <trkpt lat="45.45371" lon="5.8481">
        <ele>1173.4</ele>
        <time>2016-05-21T09:14:17Z</time>
      </trkpt>
      <trkpt lat="45.4536" lon="5.84796">
        <ele>1173.4</ele>
        <time>2016-05-21T09:14:18Z</time>
      </trkpt>
      <trkpt lat="45.4535" lon="5.84781">
        <ele>1172.4</ele>
        <time>2016-05-21T09:14:19Z</time>
      </trkpt>
      <trkpt lat="45.45341" lon="5.84768">
        <ele>1171.5</ele>
        <time>2016-05-21T09:14:20Z</time>
      </trkpt>
      <trkpt lat="45.45332" lon="5.84752">
        <ele>1170.8</ele>
        <time>2016-05-21T09:14:21Z</time>
      </trkpt>
      <trkpt lat="45.45324" lon="5.84732">
        <ele>1171.2</ele>
        <time>2016-05-21T09:14:22Z</time>
      </trkpt>
      <trkpt lat="45.45314" lon="5.84716">
        <ele>1171</ele>
        <time>2016-05-21T09:14:23Z</time>
      </trkpt>
      <trkpt lat="45.45304" lon="5.84703">
        <ele>1169.9</ele>
        <time>2016-05-21T09:14:24Z</time>
      </trkpt>
      <trkpt lat="45.45294" lon="5.84688">
        <ele>1168.1</ele>
        <time>2016-05-21T09:14:25Z</time>
      </trkpt>
      <trkpt lat="45.45285" lon="5.84672">
        <ele>1167.6</ele>
        <time>2016-05-21T09:14:26Z</time>
      </trkpt>
      <trkpt lat="45.45276" lon="5.84656">
        <ele>1166.2</ele>
        <time>2016-05-21T09:14:27Z</time>
      </trkpt>
      <trkpt lat="45.45266" lon="5.84641">
        <ele>1164.5</ele>
        <time>2016-05-21T09:14:28Z</time>
      </trkpt>
      <trkpt lat="45.45256" lon="5.84625">
        <ele>1163.4</ele>
        <time>2016-05-21T09:14:29Z</time>
      </trkpt>
      <trkpt lat="45.45246" lon="5.84609">
        <ele>1162.1</ele>
        <time>2016-05-21T09:14:30Z</time>
      </trkpt>
      <trkpt lat="45.45238" lon="5.84593">
        <ele>1160</ele>
        <time>2016-05-21T09:14:31Z</time>
      </trkpt>
      <trkpt lat="45.45229" lon="5.84575">
        <ele>1158.4</ele>
        <time>2016-05-21T09:14:32Z</time>
      </trkpt>
      <trkpt lat="45.45221" lon="5.84559">
        <ele>1156.3</ele>
        <time>2016-05-21T09:14:33Z</time>
      </trkpt>
      <trkpt lat="45.45212" lon="5.84542">
        <ele>1154.5</ele>
        <time>2016-05-21T09:14:34Z</time>
      </trkpt>
      <trkpt lat="45.45204" lon="5.84525">
        <ele>1152.7</ele>
        <time>2016-05-21T09:14:35Z</time>
      </trkpt>
      <trkpt lat="45.45196" lon="5.84511">
        <ele>1151.5</ele>
        <time>2016-05-21T09:14:36Z</time>
      </trkpt>
      <trkpt lat="45.45188" lon="5.84499">
        <ele>1151.3</ele>
        <time>2016-05-21T09:14:37Z</time>
      </trkpt>
      <trkpt lat="45.4518" lon="5.84489">
        <ele>1149.9</ele>
        <time>2016-05-21T09:14:38Z</time>
      </trkpt>
      <trkpt lat="45.45172" lon="5.84481">
        <ele>1147.4</ele>
        <time>2016-05-21T09:14:39Z</time>
      </trkpt>
      <trkpt lat="45.45163" lon="5.84474">
        <ele>1145.5</ele>
        <time>2016-05-21T09:14:40Z</time>
      </trkpt>
      <trkpt lat="45.45154" lon="5.84473">
        <ele>1143.6</ele>
        <time>2016-05-21T09:14:41Z</time>
      </trkpt>
      <trkpt lat="45.45147" lon="5.84479">
        <ele>1142.2</ele>
        <time>2016-05-21T09:14:42Z</time>
      </trkpt>
      <trkpt lat="45.4514" lon="5.84486">
        <ele>1141.4</ele>
        <time>2016-05-21T09:14:43Z</time>
      </trkpt>
      <trkpt lat="45.45136" lon="5.84495">
        <ele>1140.8</ele>
        <time>2016-05-21T09:14:44Z</time>
      </trkpt>
      <trkpt lat="45.4514" lon="5.84516">
        <ele>1138.6</ele>
        <time>2016-05-21T09:14:46Z</time>
      </trkpt>
      <trkpt lat="45.45145" lon="5.84526">
        <ele>1137.4</ele>
        <time>2016-05-21T09:14:47Z</time>
      </trkpt>
      <trkpt lat="45.45151" lon="5.84539">
        <ele>1136.3</ele>
        <time>2016-05-21T09:14:48Z</time>
      </trkpt>
      <trkpt lat="45.45157" lon="5.84551">
        <ele>1135</ele>
        <time>2016-05-21T09:14:49Z</time>
      </trkpt>
      <trkpt lat="45.45164" lon="5.84564">
        <ele>1133.6</ele>
        <time>2016-05-21T09:14:50Z</time>
      </trkpt>
      <trkpt lat="45.45169" lon="5.84577">
        <ele>1132.5</ele>
        <time>2016-05-21T09:14:51Z</time>
      </trkpt>
      <trkpt lat="45.45173" lon="5.8459">
        <ele>1130.5</ele>
        <time>2016-05-21T09:14:52Z</time>
      </trkpt>
      <trkpt lat="45.45176" lon="5.84601">
        <ele>1128.8</ele>
        <time>2016-05-21T09:14:53Z</time>
      </trkpt>
      <trkpt lat="45.45169" lon="5.84624">
        <ele>1125.5</ele>
        <time>2016-05-21T09:14:55Z</time>
      </trkpt>
      <trkpt lat="45.45159" lon="5.84633">
        <ele>1124.3</ele>
        <time>2016-05-21T09:14:56Z</time>
      </trkpt>
      <trkpt lat="45.45149" lon="5.84636">
        <ele>1123.7</ele>
        <time>2016-05-21T09:14:57Z</time>
      </trkpt>
      <trkpt lat="45.45138" lon="5.84631">
        <ele>1123.7</ele>
        <time>2016-05-21T09:14:58Z</time>
      </trkpt>
      <trkpt lat="45.45128" lon="5.84622">
        <ele>1124.1</ele>
        <time>2016-05-21T09:14:59Z</time>
      </trkpt>
      <trkpt lat="45.45119" lon="5.84612">
        <ele>1124.3</ele>
        <time>2016-05-21T09:15:00Z</time>
      </trkpt>
      <trkpt lat="45.4511" lon="5.84601">
        <ele>1125</ele>
        <time>2016-05-21T09:15:01Z</time>
      </trkpt>
      <trkpt lat="45.451" lon="5.84591">
        <ele>1124.9</ele>
        <time>2016-05-21T09:15:02Z</time>
      </trkpt>
      <trkpt lat="45.4509" lon="5.84579">
        <ele>1124.3</ele>
        <time>2016-05-21T09:15:03Z</time>
      </trkpt>
      <trkpt lat="45.4508" lon="5.84567">
        <ele>1123.6</ele>
        <time>2016-05-21T09:15:04Z</time>
      </trkpt>
      <trkpt lat="45.45073" lon="5.8456">
        <ele>1121.6</ele>
        <time>2016-05-21T09:15:05Z</time>
      </trkpt>
      <trkpt lat="45.45066" lon="5.84552">
        <ele>1119.5</ele>
        <time>2016-05-21T09:15:06Z</time>
      </trkpt>
      <trkpt lat="45.45057" lon="5.84542">
        <ele>1117.1</ele>
        <time>2016-05-21T09:15:07Z</time>
      </trkpt>
      <trkpt lat="45.45046" lon="5.84531">
        <ele>1115.1</ele>
        <time>2016-05-21T09:15:08Z</time>
      </trkpt>
      <trkpt lat="45.45035" lon="5.8452">
        <ele>1113.7</ele>
        <time>2016-05-21T09:15:09Z</time>
      </trkpt>
      <trkpt lat="45.45025" lon="5.84508">
        <ele>1112.4</ele>
        <time>2016-05-21T09:15:10Z</time>
      </trkpt>
      <trkpt lat="45.45016" lon="5.84496">
        <ele>1110.7</ele>
        <time>2016-05-21T09:15:11Z</time>
      </trkpt>
      <trkpt lat="45.45011" lon="5.8448">
        <ele>1109.2</ele>
        <time>2016-05-21T09:15:12Z</time>
      </trkpt>
      <trkpt lat="45.45007" lon="5.84465">
        <ele>1107.6</ele>
        <time>2016-05-21T09:15:13Z</time>
      </trkpt>
      <trkpt lat="45.45004" lon="5.84448">
        <ele>1105.8</ele>
        <time>2016-05-21T09:15:14Z</time>
      </trkpt>
      <trkpt lat="45.45002" lon="5.84432">
        <ele>1104.6</ele>
        <time>2016-05-21T09:15:15Z</time>
      </trkpt>
      <trkpt lat="45.45" lon="5.84416">
        <ele>1103.9</ele>
        <time>2016-05-21T09:15:16Z</time>
      </trkpt>
      <trkpt lat="45.44999" lon="5.84401">
        <ele>1103.3</ele>
        <time>2016-05-21T09:15:17Z</time>
      </trkpt>
      <trkpt lat="45.44997" lon="5.84385">
        <ele>1103</ele>
        <time>2016-05-21T09:15:18Z</time>
      </trkpt>
      <trkpt lat="45.44993" lon="5.8437">
        <ele>1102.6</ele>
        <time>2016-05-21T09:15:19Z</time>
      </trkpt>
      <trkpt lat="45.44987" lon="5.84355">
        <ele>1102</ele>
        <time>2016-05-21T09:15:20Z</time>
      </trkpt>
      <trkpt lat="45.44979" lon="5.84342">
        <ele>1101.6</ele>
        <time>2016-05-21T09:15:21Z</time>
      </trkpt>
      <trkpt lat="45.44971" lon="5.84329">
        <ele>1100.8</ele>
        <time>2016-05-21T09:15:22Z</time>
      </trkpt>
      <trkpt lat="45.44962" lon="5.84315">
        <ele>1100.4</ele>
        <time>2016-05-21T09:15:23Z</time>
      </trkpt>
      <trkpt lat="45.44953" lon="5.84303">
        <ele>1099.1</ele>
        <time>2016-05-21T09:15:24Z</time>
      </trkpt>
      <trkpt lat="45.44944" lon="5.84289">
        <ele>1098.1</ele>
        <time>2016-05-21T09:15:25Z</time>
      </trkpt>
      <trkpt lat="45.44935" lon="5.84275">
        <ele>1096.9</ele>
        <time>2016-05-21T09:15:26Z</time>
      </trkpt>
      <trkpt lat="45.44925" lon="5.84262">
        <ele>1095.5</ele>
        <time>2016-05-21T09:15:27Z</time>
      </trkpt>
      <trkpt lat="45.44916" lon="5.84247">
        <ele>1093.8</ele>
        <time>2016-05-21T09:15:28Z</time>
      </trkpt>
      <trkpt lat="45.44907" lon="5.84233">
        <ele>1092.7</ele>
        <time>2016-05-21T09:15:29Z</time>
      </trkpt>
      <trkpt lat="45.44897" lon="5.84218">
        <ele>1091.9</ele>
        <time>2016-05-21T09:15:30Z</time>
      </trkpt>
      <trkpt lat="45.44889" lon="5.84204">
        <ele>1091.2</ele>
        <time>2016-05-21T09:15:31Z</time>
      </trkpt>
      <trkpt lat="45.4488" lon="5.84189">
        <ele>1090.4</ele>
        <time>2016-05-21T09:15:32Z</time>
      </trkpt>
      <trkpt lat="45.44871" lon="5.84174">
        <ele>1089.7</ele>
        <time>2016-05-21T09:15:33Z</time>
      </trkpt>
      <trkpt lat="45.44862" lon="5.84159">
        <ele>1089.2</ele>
        <time>2016-05-21T09:15:34Z</time>
      </trkpt>
      <trkpt lat="45.44852" lon="5.84143">
        <ele>1088.3</ele>
        <time>2016-05-21T09:15:35Z</time>
      </trkpt>
      <trkpt lat="45.44842" lon="5.84129">
        <ele>1086.5</ele>
        <time>2016-05-21T09:15:36Z</time>
      </trkpt>
      <trkpt lat="45.44832" lon="5.84114">
        <ele>1085.1</ele>
        <time>2016-05-21T09:15:37Z</time>
      </trkpt>
      <trkpt lat="45.44822" lon="5.84099">
        <ele>1083.9</ele>
        <time>2016-05-21T09:15:38Z</time>
      </trkpt>
      <trkpt lat="45.44813" lon="5.84085">
        <ele>1082.1</ele>
        <time>2016-05-21T09:15:39Z</time>
      </trkpt>
      <trkpt lat="45.44803" lon="5.84071">
        <ele>1081.1</ele>
        <time>2016-05-21T09:15:40Z</time>
      </trkpt>
      <trkpt lat="45.44794" lon="5.84057">
        <ele>1079.6</ele>
        <time>2016-05-21T09:15:41Z</time>
      </trkpt>
      <trkpt lat="45.44785" lon="5.84043">
        <ele>1079.1</ele>
        <time>2016-05-21T09:15:42Z</time>
      </trkpt>
      <trkpt lat="45.44773" lon="5.84028">
        <ele>1078.6</ele>
        <time>2016-05-21T09:15:43Z</time>
      </trkpt>
      <trkpt lat="45.44763" lon="5.84015">
        <ele>1077.9</ele>
        <time>2016-05-21T09:15:44Z</time>
      </trkpt>
      <trkpt lat="45.44753" lon="5.84004">
        <ele>1077.1</ele>
        <time>2016-05-21T09:15:45Z</time>
      </trkpt>
      <trkpt lat="45.44743" lon="5.83992">
        <ele>1075.5</ele>
        <time>2016-05-21T09:15:46Z</time>
      </trkpt>
      <trkpt lat="45.44731" lon="5.83981">
        <ele>1074.9</ele>
        <time>2016-05-21T09:15:47Z</time>
      </trkpt>
      <trkpt lat="45.44718" lon="5.83972">
        <ele>1075.2</ele>
        <time>2016-05-21T09:15:48Z</time>
      </trkpt>
      <trkpt lat="45.44705" lon="5.83964">
        <ele>1075.1</ele>
        <time>2016-05-21T09:15:49Z</time>
      </trkpt>
      <trkpt lat="45.44692" lon="5.83957">
        <ele>1074.9</ele>
        <time>2016-05-21T09:15:50Z</time>
      </trkpt>
      <trkpt lat="45.4468" lon="5.83951">
        <ele>1074.8</ele>
        <time>2016-05-21T09:15:51Z</time>
      </trkpt>
      <trkpt lat="45.44669" lon="5.83945">
        <ele>1074.5</ele>
        <time>2016-05-21T09:15:52Z</time>
      </trkpt>
      <trkpt lat="45.44657" lon="5.83939">
        <ele>1074.1</ele>
        <time>2016-05-21T09:15:53Z</time>
      </trkpt>
      <trkpt lat="45.44645" lon="5.83931">
        <ele>1073.7</ele>
        <time>2016-05-21T09:15:54Z</time>
      </trkpt>
      <trkpt lat="45.44634" lon="5.83922">
        <ele>1072.4</ele>
        <time>2016-05-21T09:15:55Z</time>
      </trkpt>
      <trkpt lat="45.44621" lon="5.83912">
        <ele>1071.8</ele>
        <time>2016-05-21T09:15:56Z</time>
      </trkpt>
      <trkpt lat="45.44609" lon="5.83902">
        <ele>1070.9</ele>
        <time>2016-05-21T09:15:57Z</time>
      </trkpt>
      <trkpt lat="45.44598" lon="5.83892">
        <ele>1070</ele>
        <time>2016-05-21T09:15:58Z</time>
      </trkpt>
      <trkpt lat="45.4459" lon="5.83879">
        <ele>1068.9</ele>
        <time>2016-05-21T09:15:59Z</time>
      </trkpt>
      <trkpt lat="45.44582" lon="5.83866">
        <ele>1068.2</ele>
        <time>2016-05-21T09:16:00Z</time>
      </trkpt>
      <trkpt lat="45.44574" lon="5.83854">
        <ele>1066.6</ele>
        <time>2016-05-21T09:16:01Z</time>
      </trkpt>
      <trkpt lat="45.44566" lon="5.83842">
        <ele>1065.4</ele>
        <time>2016-05-21T09:16:02Z</time>
      </trkpt>
      <trkpt lat="45.44558" lon="5.83828">
        <ele>1064.6</ele>
        <time>2016-05-21T09:16:03Z</time>
      </trkpt>
      <trkpt lat="45.44552" lon="5.83812">
        <ele>1063.8</ele>
        <time>2016-05-21T09:16:04Z</time>
      </trkpt>
      <trkpt lat="45.44546" lon="5.83796">
        <ele>1062.6</ele>
        <time>2016-05-21T09:16:05Z</time>
      </trkpt>
      <trkpt lat="45.44541" lon="5.8378">
        <ele>1061</ele>
        <time>2016-05-21T09:16:06Z</time>
      </trkpt>
      <trkpt lat="45.44536" lon="5.83766">
        <ele>1059.9</ele>
        <time>2016-05-21T09:16:07Z</time>
      </trkpt>
      <trkpt lat="45.4453" lon="5.83748">
        <ele>1059</ele>
        <time>2016-05-21T09:16:08Z</time>
      </trkpt>
      <trkpt lat="45.44526" lon="5.83732">
        <ele>1058.1</ele>
        <time>2016-05-21T09:16:09Z</time>
      </trkpt>
      <trkpt lat="45.44521" lon="5.83716">
        <ele>1057.8</ele>
        <time>2016-05-21T09:16:10Z</time>
      </trkpt>
      <trkpt lat="45.44516" lon="5.83699">
        <ele>1057.6</ele>
        <time>2016-05-21T09:16:11Z</time>
      </trkpt>
      <trkpt lat="45.44512" lon="5.83682">
        <ele>1056.6</ele>
        <time>2016-05-21T09:16:12Z</time>
      </trkpt>
      <trkpt lat="45.44507" lon="5.83666">
        <ele>1056.1</ele>
        <time>2016-05-21T09:16:13Z</time>
      </trkpt>
      <trkpt lat="45.44502" lon="5.83651">
        <ele>1055.8</ele>
        <time>2016-05-21T09:16:14Z</time>
      </trkpt>
      <trkpt lat="45.44497" lon="5.83634">
        <ele>1055.6</ele>
        <time>2016-05-21T09:16:15Z</time>
      </trkpt>
      <trkpt lat="45.44492" lon="5.83618">
        <ele>1054.7</ele>
        <time>2016-05-21T09:16:16Z</time>
      </trkpt>
      <trkpt lat="45.44488" lon="5.83602">
        <ele>1053.9</ele>
        <time>2016-05-21T09:16:17Z</time>
      </trkpt>
      <trkpt lat="45.44483" lon="5.83586">
        <ele>1052.5</ele>
        <time>2016-05-21T09:16:18Z</time>
      </trkpt>
      <trkpt lat="45.44479" lon="5.83571">
        <ele>1051.5</ele>
        <time>2016-05-21T09:16:19Z</time>
      </trkpt>
      <trkpt lat="45.44475" lon="5.83557">
        <ele>1050.3</ele>
        <time>2016-05-21T09:16:20Z</time>
      </trkpt>
      <trkpt lat="45.44471" lon="5.83543">
        <ele>1049.6</ele>
        <time>2016-05-21T09:16:21Z</time>
      </trkpt>
      <trkpt lat="45.44468" lon="5.83531">
        <ele>1048.7</ele>
        <time>2016-05-21T09:16:22Z</time>
      </trkpt>
      <trkpt lat="45.44464" lon="5.83519">
        <ele>1047.7</ele>
        <time>2016-05-21T09:16:23Z</time>
      </trkpt>
      <trkpt lat="45.44462" lon="5.83509">
        <ele>1047.2</ele>
        <time>2016-05-21T09:16:24Z</time>
      </trkpt>
      <trkpt lat="45.44447" lon="5.83501">
        <ele>1047.5</ele>
        <time>2016-05-21T09:16:26Z</time>
      </trkpt>
      <trkpt lat="45.44435" lon="5.83512">
        <ele>1047.3</ele>
        <time>2016-05-21T09:16:28Z</time>
      </trkpt>
      <trkpt lat="45.44432" lon="5.83523">
        <ele>1046.5</ele>
        <time>2016-05-21T09:16:29Z</time>
      </trkpt>
      <trkpt lat="45.4443" lon="5.83535">
        <ele>1045.8</ele>
        <time>2016-05-21T09:16:30Z</time>
      </trkpt>
      <trkpt lat="45.44428" lon="5.83548">
        <ele>1044.9</ele>
        <time>2016-05-21T09:16:31Z</time>
      </trkpt>
      <trkpt lat="45.44427" lon="5.83561">
        <ele>1043.9</ele>
        <time>2016-05-21T09:16:32Z</time>
      </trkpt>
      <trkpt lat="45.44426" lon="5.83576">
        <ele>1043.3</ele>
        <time>2016-05-21T09:16:33Z</time>
      </trkpt>
      <trkpt lat="45.44424" lon="5.8359">
        <ele>1042.5</ele>
        <time>2016-05-21T09:16:34Z</time>
      </trkpt>
      <trkpt lat="45.44424" lon="5.83604">
        <ele>1041.7</ele>
        <time>2016-05-21T09:16:35Z</time>
      </trkpt>
      <trkpt lat="45.44424" lon="5.83618">
        <ele>1040.9</ele>
        <time>2016-05-21T09:16:36Z</time>
      </trkpt>
      <trkpt lat="45.44423" lon="5.83633">
        <ele>1040.3</ele>
        <time>2016-05-21T09:16:37Z</time>
      </trkpt>
      <trkpt lat="45.44423" lon="5.83647">
        <ele>1039.9</ele>
        <time>2016-05-21T09:16:38Z</time>
      </trkpt>
      <trkpt lat="45.44422" lon="5.83659">
        <ele>1039.5</ele>
        <time>2016-05-21T09:16:39Z</time>
      </trkpt>
      <trkpt lat="45.44422" lon="5.83673">
        <ele>1039</ele>
        <time>2016-05-21T09:16:40Z</time>
      </trkpt>
      <trkpt lat="45.44421" lon="5.83686">
        <ele>1038.4</ele>
        <time>2016-05-21T09:16:41Z</time>
      </trkpt>
      <trkpt lat="45.44421" lon="5.83697">
        <ele>1037.9</ele>
        <time>2016-05-21T09:16:42Z</time>
      </trkpt>
      <trkpt lat="45.44416" lon="5.83711">
        <ele>1035.4</ele>
        <time>2016-05-21T09:16:44Z</time>
      </trkpt>
      <trkpt lat="45.44404" lon="5.83718">
        <ele>1033.7</ele>
        <time>2016-05-21T09:16:46Z</time>
      </trkpt>
      <trkpt lat="45.44391" lon="5.83706">
        <ele>1033.3</ele>
        <time>2016-05-21T09:16:48Z</time>
      </trkpt>
      <trkpt lat="45.44385" lon="5.83698">
        <ele>1032.7</ele>
        <time>2016-05-21T09:16:49Z</time>
      </trkpt>
      <trkpt lat="45.44381" lon="5.83685">
        <ele>1032</ele>
        <time>2016-05-21T09:16:50Z</time>
      </trkpt>
      <trkpt lat="45.44378" lon="5.83672">
        <ele>1030.5</ele>
        <time>2016-05-21T09:16:51Z</time>
      </trkpt>
      <trkpt lat="45.44373" lon="5.83656">
        <ele>1028.9</ele>
        <time>2016-05-21T09:16:52Z</time>
      </trkpt>
      <trkpt lat="45.44366" lon="5.83641">
        <ele>1027.7</ele>
        <time>2016-05-21T09:16:53Z</time>
      </trkpt>
      <trkpt lat="45.44358" lon="5.83624">
        <ele>1026.3</ele>
        <time>2016-05-21T09:16:54Z</time>
      </trkpt>
      <trkpt lat="45.44349" lon="5.83608">
        <ele>1025.6</ele>
        <time>2016-05-21T09:16:55Z</time>
      </trkpt>
      <trkpt lat="45.4434" lon="5.83591">
        <ele>1024.8</ele>
        <time>2016-05-21T09:16:56Z</time>
      </trkpt>
      <trkpt lat="45.44331" lon="5.83575">
        <ele>1023.3</ele>
        <time>2016-05-21T09:16:57Z</time>
      </trkpt>
      <trkpt lat="45.44322" lon="5.83558">
        <ele>1021.9</ele>
        <time>2016-05-21T09:16:58Z</time>
      </trkpt>
      <trkpt lat="45.44312" lon="5.83543">
        <ele>1020.7</ele>
        <time>2016-05-21T09:16:59Z</time>
      </trkpt>
      <trkpt lat="45.44303" lon="5.83528">
        <ele>1019.5</ele>
        <time>2016-05-21T09:17:00Z</time>
      </trkpt>
      <trkpt lat="45.44294" lon="5.83513">
        <ele>1018.3</ele>
        <time>2016-05-21T09:17:01Z</time>
      </trkpt>
      <trkpt lat="45.44285" lon="5.835">
        <ele>1017</ele>
        <time>2016-05-21T09:17:02Z</time>
      </trkpt>
      <trkpt lat="45.44276" lon="5.8349">
        <ele>1015.7</ele>
        <time>2016-05-21T09:17:03Z</time>
      </trkpt>
      <trkpt lat="45.44267" lon="5.83482">
        <ele>1014.8</ele>
        <time>2016-05-21T09:17:04Z</time>
      </trkpt>
      <trkpt lat="45.44254" lon="5.83474">
        <ele>1013.9</ele>
        <time>2016-05-21T09:17:05Z</time>
      </trkpt>
      <trkpt lat="45.44241" lon="5.83467">
        <ele>1012.1</ele>
        <time>2016-05-21T09:17:06Z</time>
      </trkpt>
      <trkpt lat="45.44227" lon="5.8346">
        <ele>1010.2</ele>
        <time>2016-05-21T09:17:07Z</time>
      </trkpt>
      <trkpt lat="45.44213" lon="5.83456">
        <ele>1008.9</ele>
        <time>2016-05-21T09:17:08Z</time>
      </trkpt>
      <trkpt lat="45.442" lon="5.83451">
        <ele>1007.8</ele>
        <time>2016-05-21T09:17:09Z</time>
      </trkpt>
      <trkpt lat="45.44188" lon="5.83448">
        <ele>1006.6</ele>
        <time>2016-05-21T09:17:10Z</time>
      </trkpt>
      <trkpt lat="45.44176" lon="5.83444">
        <ele>1005.4</ele>
        <time>2016-05-21T09:17:11Z</time>
      </trkpt>
      <trkpt lat="45.44163" lon="5.8344">
        <ele>1004.2</ele>
        <time>2016-05-21T09:17:12Z</time>
      </trkpt>
      <trkpt lat="45.4415" lon="5.83437">
        <ele>1002.7</ele>
        <time>2016-05-21T09:17:13Z</time>
      </trkpt>
      <trkpt lat="45.44136" lon="5.83435">
        <ele>1001.1</ele>
        <time>2016-05-21T09:17:14Z</time>
      </trkpt>
      <trkpt lat="45.44123" lon="5.83434">
        <ele>1000.2</ele>
        <time>2016-05-21T09:17:15Z</time>
      </trkpt>
      <trkpt lat="45.44111" lon="5.83434">
        <ele>999</ele>
        <time>2016-05-21T09:17:16Z</time>
      </trkpt>
      <trkpt lat="45.441" lon="5.83434">
        <ele>998</ele>
        <time>2016-05-21T09:17:17Z</time>
      </trkpt>
      <trkpt lat="45.44089" lon="5.83433">
        <ele>997.1</ele>
        <time>2016-05-21T09:17:18Z</time>
      </trkpt>
      <trkpt lat="45.4408" lon="5.83434">
        <ele>996.2</ele>
        <time>2016-05-21T09:17:19Z</time>
      </trkpt>
      <trkpt lat="45.4407" lon="5.83433">
        <ele>994.4</ele>
        <time>2016-05-21T09:17:20Z</time>
      </trkpt>
      <trkpt lat="45.44062" lon="5.83428">
        <ele>992.5</ele>
        <time>2016-05-21T09:17:21Z</time>
      </trkpt>
      <trkpt lat="45.44056" lon="5.83421">
        <ele>991.4</ele>
        <time>2016-05-21T09:17:22Z</time>
      </trkpt>
      <trkpt lat="45.44048" lon="5.83412">
        <ele>989.4</ele>
        <time>2016-05-21T09:17:23Z</time>
      </trkpt>
      <trkpt lat="45.44041" lon="5.83402">
        <ele>988.7</ele>
        <time>2016-05-21T09:17:24Z</time>
      </trkpt>
      <trkpt lat="45.44035" lon="5.83391">
        <ele>987.3</ele>
        <time>2016-05-21T09:17:25Z</time>
      </trkpt>
      <trkpt lat="45.44027" lon="5.8338">
        <ele>986.3</ele>
        <time>2016-05-21T09:17:26Z</time>
      </trkpt>
      <trkpt lat="45.44018" lon="5.83367">
        <ele>985.3</ele>
        <time>2016-05-21T09:17:27Z</time>
      </trkpt>
      <trkpt lat="45.44007" lon="5.83355">
        <ele>984</ele>
        <time>2016-05-21T09:17:28Z</time>
      </trkpt>
      <trkpt lat="45.43997" lon="5.83345">
        <ele>982.3</ele>
        <time>2016-05-21T09:17:29Z</time>
      </trkpt>
      <trkpt lat="45.43985" lon="5.83335">
        <ele>980.8</ele>
        <time>2016-05-21T09:17:30Z</time>
      </trkpt>
      <trkpt lat="45.43976" lon="5.83326">
        <ele>979</ele>
        <time>2016-05-21T09:17:31Z</time>
      </trkpt>
      <trkpt lat="45.43967" lon="5.83315">
        <ele>977.1</ele>
        <time>2016-05-21T09:17:32Z</time>
      </trkpt>
      <trkpt lat="45.43958" lon="5.83306">
        <ele>975.3</ele>
        <time>2016-05-21T09:17:33Z</time>
      </trkpt>
      <trkpt lat="45.4395" lon="5.83295">
        <ele>973.6</ele>
        <time>2016-05-21T09:17:34Z</time>
      </trkpt>
      <trkpt lat="45.43941" lon="5.83288">
        <ele>971.9</ele>
        <time>2016-05-21T09:17:35Z</time>
      </trkpt>
      <trkpt lat="45.43931" lon="5.83281">
        <ele>970.5</ele>
        <time>2016-05-21T09:17:36Z</time>
      </trkpt>
      <trkpt lat="45.43922" lon="5.83275">
        <ele>969.5</ele>
        <time>2016-05-21T09:17:37Z</time>
      </trkpt>
      <trkpt lat="45.43912" lon="5.8327">
        <ele>969.1</ele>
        <time>2016-05-21T09:17:38Z</time>
      </trkpt>
      <trkpt lat="45.439" lon="5.83264">
        <ele>967.3</ele>
        <time>2016-05-21T09:17:39Z</time>
      </trkpt>
      <trkpt lat="45.43889" lon="5.83257">
        <ele>966.2</ele>
        <time>2016-05-21T09:17:40Z</time>
      </trkpt>
      <trkpt lat="45.4388" lon="5.83248">
        <ele>964.4</ele>
        <time>2016-05-21T09:17:41Z</time>
      </trkpt>
      <trkpt lat="45.43871" lon="5.83238">
        <ele>962.4</ele>
        <time>2016-05-21T09:17:42Z</time>
      </trkpt>
      <trkpt lat="45.43861" lon="5.83228">
        <ele>960.8</ele>
        <time>2016-05-21T09:17:43Z</time>
      </trkpt>
      <trkpt lat="45.43851" lon="5.83218">
        <ele>960.9</ele>
        <time>2016-05-21T09:17:44Z</time>
      </trkpt>
      <trkpt lat="45.4384" lon="5.83208">
        <ele>960.9</ele>
        <time>2016-05-21T09:17:45Z</time>
      </trkpt>
      <trkpt lat="45.4383" lon="5.83198">
        <ele>959.9</ele>
        <time>2016-05-21T09:17:46Z</time>
      </trkpt>
      <trkpt lat="45.4382" lon="5.83188">
        <ele>958.7</ele>
        <time>2016-05-21T09:17:47Z</time>
      </trkpt>
      <trkpt lat="45.43809" lon="5.83178">
        <ele>957.7</ele>
        <time>2016-05-21T09:17:48Z</time>
      </trkpt>
      <trkpt lat="45.43798" lon="5.83167">
        <ele>956.9</ele>
        <time>2016-05-21T09:17:49Z</time>
      </trkpt>
      <trkpt lat="45.43787" lon="5.83157">
        <ele>956</ele>
        <time>2016-05-21T09:17:50Z</time>
      </trkpt>
      <trkpt lat="45.43777" lon="5.83146">
        <ele>954.7</ele>
        <time>2016-05-21T09:17:51Z</time>
      </trkpt>
      <trkpt lat="45.43767" lon="5.83135">
        <ele>953.2</ele>
        <time>2016-05-21T09:17:52Z</time>
      </trkpt>
      <trkpt lat="45.43757" lon="5.83125">
        <ele>952.2</ele>
        <time>2016-05-21T09:17:53Z</time>
      </trkpt>
      <trkpt lat="45.43749" lon="5.83115">
        <ele>951.9</ele>
        <time>2016-05-21T09:17:54Z</time>
      </trkpt>
      <trkpt lat="45.43739" lon="5.83104">
        <ele>951.8</ele>
        <time>2016-05-21T09:17:55Z</time>
      </trkpt>
      <trkpt lat="45.43728" lon="5.83094">
        <ele>951.8</ele>
        <time>2016-05-21T09:17:56Z</time>
      </trkpt>
      <trkpt lat="45.43718" lon="5.83085">
        <ele>951.8</ele>
        <time>2016-05-21T09:17:57Z</time>
      </trkpt>
      <trkpt lat="45.43706" lon="5.83076">
        <ele>951.2</ele>
        <time>2016-05-21T09:17:58Z</time>
      </trkpt>
      <trkpt lat="45.43694" lon="5.83066">
        <ele>951.5</ele>
        <time>2016-05-21T09:17:59Z</time>
      </trkpt>
      <trkpt lat="45.43681" lon="5.83058">
        <ele>951.3</ele>
        <time>2016-05-21T09:18:00Z</time>
      </trkpt>
      <trkpt lat="45.43669" lon="5.83049">
        <ele>950.8</ele>
        <time>2016-05-21T09:18:01Z</time>
      </trkpt>
      <trkpt lat="45.43656" lon="5.83041">
        <ele>950.8</ele>
        <time>2016-05-21T09:18:02Z</time>
      </trkpt>
      <trkpt lat="45.43643" lon="5.83033">
        <ele>950.3</ele>
        <time>2016-05-21T09:18:03Z</time>
      </trkpt>
      <trkpt lat="45.4363" lon="5.83024">
        <ele>949.8</ele>
        <time>2016-05-21T09:18:04Z</time>
      </trkpt>
      <trkpt lat="45.43617" lon="5.83015">
        <ele>949</ele>
        <time>2016-05-21T09:18:05Z</time>
      </trkpt>
      <trkpt lat="45.43604" lon="5.83005">
        <ele>947.1</ele>
        <time>2016-05-21T09:18:06Z</time>
      </trkpt>
      <trkpt lat="45.43591" lon="5.82997">
        <ele>945.5</ele>
        <time>2016-05-21T09:18:07Z</time>
      </trkpt>
      <trkpt lat="45.43579" lon="5.82989">
        <ele>943.3</ele>
        <time>2016-05-21T09:18:08Z</time>
      </trkpt>
      <trkpt lat="45.43565" lon="5.82982">
        <ele>941.6</ele>
        <time>2016-05-21T09:18:09Z</time>
      </trkpt>
      <trkpt lat="45.43552" lon="5.82977">
        <ele>940.2</ele>
        <time>2016-05-21T09:18:10Z</time>
      </trkpt>
      <trkpt lat="45.43538" lon="5.82971">
        <ele>938.5</ele>
        <time>2016-05-21T09:18:11Z</time>
      </trkpt>
      <trkpt lat="45.43522" lon="5.82966">
        <ele>936.4</ele>
        <time>2016-05-21T09:18:12Z</time>
      </trkpt>
      <trkpt lat="45.43509" lon="5.82959">
        <ele>933.9</ele>
        <time>2016-05-21T09:18:13Z</time>
      </trkpt>
      <trkpt lat="45.43496" lon="5.82951">
        <ele>932.4</ele>
        <time>2016-05-21T09:18:14Z</time>
      </trkpt>
      <trkpt lat="45.43482" lon="5.82942">
        <ele>930.8</ele>
        <time>2016-05-21T09:18:15Z</time>
      </trkpt>
      <trkpt lat="45.43469" lon="5.82932">
        <ele>929.2</ele>
        <time>2016-05-21T09:18:16Z</time>
      </trkpt>
      <trkpt lat="45.43457" lon="5.82921">
        <ele>927.4</ele>
        <time>2016-05-21T09:18:17Z</time>
      </trkpt>
      <trkpt lat="45.43444" lon="5.82909">
        <ele>925.6</ele>
        <time>2016-05-21T09:18:18Z</time>
      </trkpt>
      <trkpt lat="45.43432" lon="5.82897">
        <ele>924.2</ele>
        <time>2016-05-21T09:18:19Z</time>
      </trkpt>
      <trkpt lat="45.43421" lon="5.82887">
        <ele>923.2</ele>
        <time>2016-05-21T09:18:20Z</time>
      </trkpt>
      <trkpt lat="45.4341" lon="5.82876">
        <ele>922.2</ele>
        <time>2016-05-21T09:18:21Z</time>
      </trkpt>
      <trkpt lat="45.43399" lon="5.82865">
        <ele>920.3</ele>
        <time>2016-05-21T09:18:22Z</time>
      </trkpt>
      <trkpt lat="45.43389" lon="5.82854">
        <ele>918.7</ele>
        <time>2016-05-21T09:18:23Z</time>
      </trkpt>
      <trkpt lat="45.43378" lon="5.82842">
        <ele>918.4</ele>
        <time>2016-05-21T09:18:24Z</time>
      </trkpt>
      <trkpt lat="45.43367" lon="5.82831">
        <ele>917.7</ele>
        <time>2016-05-21T09:18:25Z</time>
      </trkpt>
      <trkpt lat="45.43355" lon="5.8282">
        <ele>917.2</ele>
        <time>2016-05-21T09:18:26Z</time>
      </trkpt>
      <trkpt lat="45.43344" lon="5.8281">
        <ele>917</ele>
        <time>2016-05-21T09:18:27Z</time>
      </trkpt>
      <trkpt lat="45.43332" lon="5.828">
        <ele>916.6</ele>
        <time>2016-05-21T09:18:28Z</time>
      </trkpt>
      <trkpt lat="45.43321" lon="5.82792">
        <ele>915.2</ele>
        <time>2016-05-21T09:18:29Z</time>
      </trkpt>
      <trkpt lat="45.43309" lon="5.82783">
        <ele>914.8</ele>
        <time>2016-05-21T09:18:30Z</time>
      </trkpt>
      <trkpt lat="45.43296" lon="5.82774">
        <ele>913.9</ele>
        <time>2016-05-21T09:18:31Z</time>
      </trkpt>
      <trkpt lat="45.43284" lon="5.82766">
        <ele>913</ele>
        <time>2016-05-21T09:18:32Z</time>
      </trkpt>
      <trkpt lat="45.43272" lon="5.82757">
        <ele>911.6</ele>
        <time>2016-05-21T09:18:33Z</time>
      </trkpt>
      <trkpt lat="45.4326" lon="5.82749">
        <ele>910</ele>
        <time>2016-05-21T09:18:34Z</time>
      </trkpt>
      <trkpt lat="45.43248" lon="5.82741">
        <ele>908.3</ele>
        <time>2016-05-21T09:18:35Z</time>
      </trkpt>
      <trkpt lat="45.43237" lon="5.82733">
        <ele>906.3</ele>
        <time>2016-05-21T09:18:36Z</time>
      </trkpt>
      <trkpt lat="45.43226" lon="5.82726">
        <ele>905.4</ele>
        <time>2016-05-21T09:18:37Z</time>
      </trkpt>
      <trkpt lat="45.43214" lon="5.82719">
        <ele>904.5</ele>
        <time>2016-05-21T09:18:38Z</time>
      </trkpt>
      <trkpt lat="45.43202" lon="5.82711">
        <ele>903.6</ele>
        <time>2016-05-21T09:18:39Z</time>
      </trkpt>
      <trkpt lat="45.43189" lon="5.82703">
        <ele>902.1</ele>
        <time>2016-05-21T09:18:40Z</time>
      </trkpt>
      <trkpt lat="45.43177" lon="5.82696">
        <ele>901.4</ele>
        <time>2016-05-21T09:18:41Z</time>
      </trkpt>
      <trkpt lat="45.43166" lon="5.82688">
        <ele>899.9</ele>
        <time>2016-05-21T09:18:42Z</time>
      </trkpt>
      <trkpt lat="45.43157" lon="5.82681">
        <ele>898.3</ele>
        <time>2016-05-21T09:18:43Z</time>
      </trkpt>
      <trkpt lat="45.43147" lon="5.82673">
        <ele>896.9</ele>
        <time>2016-05-21T09:18:44Z</time>
      </trkpt>
      <trkpt lat="45.43136" lon="5.82665">
        <ele>895.8</ele>
        <time>2016-05-21T09:18:45Z</time>
      </trkpt>
      <trkpt lat="45.43125" lon="5.82657">
        <ele>894.8</ele>
        <time>2016-05-21T09:18:46Z</time>
      </trkpt>
      <trkpt lat="45.43113" lon="5.82648">
        <ele>893.6</ele>
        <time>2016-05-21T09:18:47Z</time>
      </trkpt>
      <trkpt lat="45.43101" lon="5.8264">
        <ele>892.7</ele>
        <time>2016-05-21T09:18:48Z</time>
      </trkpt>
      <trkpt lat="45.43091" lon="5.82632">
        <ele>891.7</ele>
        <time>2016-05-21T09:18:49Z</time>
      </trkpt>
      <trkpt lat="45.43081" lon="5.82623">
        <ele>890.9</ele>
        <time>2016-05-21T09:18:50Z</time>
      </trkpt>
      <trkpt lat="45.43072" lon="5.82613">
        <ele>889.5</ele>
        <time>2016-05-21T09:18:51Z</time>
      </trkpt>
      <trkpt lat="45.43064" lon="5.826">
        <ele>888.7</ele>
        <time>2016-05-21T09:18:52Z</time>
      </trkpt>
      <trkpt lat="45.43058" lon="5.82587">
        <ele>888.2</ele>
        <time>2016-05-21T09:18:53Z</time>
      </trkpt>
      <trkpt lat="45.43052" lon="5.82576">
        <ele>888.1</ele>
        <time>2016-05-21T09:18:54Z</time>
      </trkpt>
      <trkpt lat="45.43047" lon="5.82567">
        <ele>887.1</ele>
        <time>2016-05-21T09:18:55Z</time>
      </trkpt>
      <trkpt lat="45.4304" lon="5.82562">
        <ele>885.5</ele>
        <time>2016-05-21T09:18:56Z</time>
      </trkpt>
      <trkpt lat="45.43032" lon="5.82557">
        <ele>884.6</ele>
        <time>2016-05-21T09:18:57Z</time>
      </trkpt>
      <trkpt lat="45.43026" lon="5.8255">
        <ele>884.2</ele>
        <time>2016-05-21T09:18:58Z</time>
      </trkpt>
      <trkpt lat="45.43019" lon="5.82544">
        <ele>884.2</ele>
        <time>2016-05-21T09:18:59Z</time>
      </trkpt>
      <trkpt lat="45.43007" lon="5.82536">
        <ele>884.3</ele>
        <time>2016-05-21T09:19:01Z</time>
      </trkpt>
      <trkpt lat="45.42996" lon="5.82527">
        <ele>883.9</ele>
        <time>2016-05-21T09:19:03Z</time>
      </trkpt>
      <trkpt lat="45.42987" lon="5.8252">
        <ele>884</ele>
        <time>2016-05-21T09:19:05Z</time>
      </trkpt>
      <trkpt lat="45.42976" lon="5.82512">
        <ele>886</ele>
        <time>2016-05-21T09:19:07Z</time>
      </trkpt>
      <trkpt lat="45.42965" lon="5.82502">
        <ele>887.5</ele>
        <time>2016-05-21T09:19:09Z</time>
      </trkpt>
      <trkpt lat="45.42956" lon="5.82493">
        <ele>888.1</ele>
        <time>2016-05-21T09:19:11Z</time>
      </trkpt>
      <trkpt lat="45.42944" lon="5.82481">
        <ele>887</ele>
        <time>2016-05-21T09:19:13Z</time>
      </trkpt>
      <trkpt lat="45.42933" lon="5.8247">
        <ele>886.2</ele>
        <time>2016-05-21T09:19:15Z</time>
      </trkpt>
      <trkpt lat="45.42922" lon="5.82459">
        <ele>885.1</ele>
        <time>2016-05-21T09:19:17Z</time>
      </trkpt>
      <trkpt lat="45.42918" lon="5.82444">
        <ele>883.8</ele>
        <time>2016-05-21T09:19:19Z</time>
      </trkpt>
      <trkpt lat="45.42915" lon="5.82429">
        <ele>883.8</ele>
        <time>2016-05-21T09:19:21Z</time>
      </trkpt>
      <trkpt lat="45.42915" lon="5.82414">
        <ele>883.3</ele>
        <time>2016-05-21T09:19:23Z</time>
      </trkpt>
      <trkpt lat="45.42915" lon="5.82399">
        <ele>883.1</ele>
        <time>2016-05-21T09:19:25Z</time>
      </trkpt>
      <trkpt lat="45.42915" lon="5.82388">
        <ele>884</ele>
        <time>2016-05-21T09:19:27Z</time>
      </trkpt>
      <trkpt lat="45.42916" lon="5.82377">
        <ele>884.5</ele>
        <time>2016-05-21T09:19:29Z</time>
      </trkpt>
      <trkpt lat="45.42915" lon="5.82365">
        <ele>886.2</ele>
        <time>2016-05-21T09:19:31Z</time>
      </trkpt>
      <trkpt lat="45.42915" lon="5.8235">
        <ele>886.5</ele>
        <time>2016-05-21T09:19:34Z</time>
      </trkpt>
      <trkpt lat="45.42915" lon="5.82335">
        <ele>887</ele>
        <time>2016-05-21T09:19:37Z</time>
      </trkpt>
      <trkpt lat="45.42915" lon="5.82325">
        <ele>887.3</ele>
        <time>2016-05-21T09:19:39Z</time>
      </trkpt>
      <trkpt lat="45.42915" lon="5.82313">
        <ele>887.6</ele>
        <time>2016-05-21T09:19:41Z</time>
      </trkpt>
      <trkpt lat="45.42914" lon="5.82302">
        <ele>889.1</ele>
        <time>2016-05-21T09:19:43Z</time>
      </trkpt>
      <trkpt lat="45.42913" lon="5.82287">
        <ele>890.2</ele>
        <time>2016-05-21T09:19:46Z</time>
      </trkpt>
      <trkpt lat="45.42913" lon="5.82271">
        <ele>890.6</ele>
        <time>2016-05-21T09:19:49Z</time>
      </trkpt>
      <trkpt lat="45.42914" lon="5.82261">
        <ele>890.8</ele>
        <time>2016-05-21T09:19:51Z</time>
      </trkpt>
      <trkpt lat="45.42915" lon="5.8225">
        <ele>891.3</ele>
        <time>2016-05-21T09:19:54Z</time>
      </trkpt>
      <trkpt lat="45.42917" lon="5.82238">
        <ele>892.1</ele>
        <time>2016-05-21T09:19:57Z</time>
      </trkpt>
      <trkpt lat="45.42919" lon="5.82224">
        <ele>893.1</ele>
        <time>2016-05-21T09:20:00Z</time>
      </trkpt>
      <trkpt lat="45.42917" lon="5.82211">
        <ele>893.8</ele>
        <time>2016-05-21T09:20:02Z</time>
      </trkpt>
      <trkpt lat="45.42911" lon="5.822">
        <ele>894.4</ele>
        <time>2016-05-21T09:20:04Z</time>
      </trkpt>
      <trkpt lat="45.42904" lon="5.8219">
        <ele>895.1</ele>
        <time>2016-05-21T09:20:06Z</time>
      </trkpt>
      <trkpt lat="45.429" lon="5.82181">
        <ele>895.8</ele>
        <time>2016-05-21T09:20:08Z</time>
      </trkpt>
      <trkpt lat="45.42897" lon="5.82168">
        <ele>896.7</ele>
        <time>2016-05-21T09:20:11Z</time>
      </trkpt>
      <trkpt lat="45.42895" lon="5.82155">
        <ele>897.6</ele>
        <time>2016-05-21T09:20:14Z</time>
      </trkpt>
      <trkpt lat="45.42897" lon="5.82144">
        <ele>898.5</ele>
        <time>2016-05-21T09:20:18Z</time>
      </trkpt>
      <trkpt lat="45.42901" lon="5.82131">
        <ele>899.8</ele>
        <time>2016-05-21T09:20:22Z</time>
      </trkpt>
      <trkpt lat="45.42909" lon="5.82123">
        <ele>900.5</ele>
        <time>2016-05-21T09:20:25Z</time>
      </trkpt>
      <trkpt lat="45.42914" lon="5.82114">
        <ele>901.3</ele>
        <time>2016-05-21T09:20:28Z</time>
      </trkpt>
      <trkpt lat="45.42919" lon="5.82106">
        <ele>901.9</ele>
        <time>2016-05-21T09:20:30Z</time>
      </trkpt>
      <trkpt lat="45.42925" lon="5.82096">
        <ele>902.9</ele>
        <time>2016-05-21T09:20:34Z</time>
      </trkpt>
      <trkpt lat="45.42931" lon="5.82086">
        <ele>904.1</ele>
        <time>2016-05-21T09:20:38Z</time>
      </trkpt>
      <trkpt lat="45.42938" lon="5.82078">
        <ele>905.3</ele>
        <time>2016-05-21T09:20:42Z</time>
      </trkpt>
      <trkpt lat="45.42945" lon="5.82068">
        <ele>906.2</ele>
        <time>2016-05-21T09:20:45Z</time>
      </trkpt>
      <trkpt lat="45.4295" lon="5.8206">
        <ele>907</ele>
        <time>2016-05-21T09:20:47Z</time>
      </trkpt>
      <trkpt lat="45.42959" lon="5.82053">
        <ele>907.8</ele>
        <time>2016-05-21T09:20:49Z</time>
      </trkpt>
      <trkpt lat="45.42966" lon="5.82049">
        <ele>912.3</ele>
        <time>2016-05-21T09:20:51Z</time>
      </trkpt>
      <trkpt lat="45.42975" lon="5.82046">
        <ele>913.2</ele>
        <time>2016-05-21T09:20:53Z</time>
      </trkpt>
      <trkpt lat="45.42985" lon="5.8204">
        <ele>916.8</ele>
        <time>2016-05-21T09:20:55Z</time>
      </trkpt>
      <trkpt lat="45.42992" lon="5.82036">
        <ele>917.3</ele>
        <time>2016-05-21T09:20:58Z</time>
      </trkpt>
      <trkpt lat="45.43" lon="5.8203">
        <ele>917.9</ele>
        <time>2016-05-21T09:21:00Z</time>
      </trkpt>
      <trkpt lat="45.4301" lon="5.82018">
        <ele>921.9</ele>
        <time>2016-05-21T09:21:02Z</time>
      </trkpt>
      <trkpt lat="45.43014" lon="5.82007">
        <ele>923.2</ele>
        <time>2016-05-21T09:21:03Z</time>
      </trkpt>
      <trkpt lat="45.43016" lon="5.81992">
        <ele>923.2</ele>
        <time>2016-05-21T09:21:05Z</time>
      </trkpt>
      <trkpt lat="45.43014" lon="5.8198">
        <ele>923.2</ele>
        <time>2016-05-21T09:21:07Z</time>
      </trkpt>
      <trkpt lat="45.43015" lon="5.81969">
        <ele>923.2</ele>
        <time>2016-05-21T09:21:09Z</time>
      </trkpt>
      <trkpt lat="45.43016" lon="5.81957">
        <ele>923.3</ele>
        <time>2016-05-21T09:21:11Z</time>
      </trkpt>
      <trkpt lat="45.4302" lon="5.81945">
        <ele>923.7</ele>
        <time>2016-05-21T09:21:13Z</time>
      </trkpt>
      <trkpt lat="45.43023" lon="5.81936">
        <ele>923.6</ele>
        <time>2016-05-21T09:21:15Z</time>
      </trkpt>
      <trkpt lat="45.43028" lon="5.81926">
        <ele>922.7</ele>
        <time>2016-05-21T09:21:17Z</time>
      </trkpt>
      <trkpt lat="45.43034" lon="5.81919">
        <ele>922</ele>
        <time>2016-05-21T09:21:19Z</time>
      </trkpt>
      <trkpt lat="45.4304" lon="5.81913">
        <ele>921.6</ele>
        <time>2016-05-21T09:21:21Z</time>
      </trkpt>
      <trkpt lat="45.43047" lon="5.81907">
        <ele>921.5</ele>
        <time>2016-05-21T09:21:23Z</time>
      </trkpt>
      <trkpt lat="45.43054" lon="5.81901">
        <ele>921.8</ele>
        <time>2016-05-21T09:21:26Z</time>
      </trkpt>
      <trkpt lat="45.43065" lon="5.81896">
        <ele>924.8</ele>
        <time>2016-05-21T09:21:28Z</time>
      </trkpt>
      <trkpt lat="45.43074" lon="5.81887">
        <ele>925.1</ele>
        <time>2016-05-21T09:21:30Z</time>
      </trkpt>
      <trkpt lat="45.43083" lon="5.81879">
        <ele>925.6</ele>
        <time>2016-05-21T09:21:32Z</time>
      </trkpt>
      <trkpt lat="45.43093" lon="5.81868">
        <ele>926.4</ele>
        <time>2016-05-21T09:21:34Z</time>
      </trkpt>
      <trkpt lat="45.43099" lon="5.81859">
        <ele>927</ele>
        <time>2016-05-21T09:21:35Z</time>
      </trkpt>
      <trkpt lat="45.4311" lon="5.81848">
        <ele>926.8</ele>
        <time>2016-05-21T09:21:37Z</time>
      </trkpt>
      <trkpt lat="45.43121" lon="5.81837">
        <ele>925.2</ele>
        <time>2016-05-21T09:21:39Z</time>
      </trkpt>
      <trkpt lat="45.43135" lon="5.81831">
        <ele>925.9</ele>
        <time>2016-05-21T09:21:41Z</time>
      </trkpt>
      <trkpt lat="45.43143" lon="5.81818">
        <ele>924.7</ele>
        <time>2016-05-21T09:21:43Z</time>
      </trkpt>
      <trkpt lat="45.43144" lon="5.81802">
        <ele>924.8</ele>
        <time>2016-05-21T09:21:45Z</time>
      </trkpt>
      <trkpt lat="45.43146" lon="5.81786">
        <ele>924.5</ele>
        <time>2016-05-21T09:21:47Z</time>
      </trkpt>
      <trkpt lat="45.43149" lon="5.81771">
        <ele>924.5</ele>
        <time>2016-05-21T09:21:49Z</time>
      </trkpt>
      <trkpt lat="45.43153" lon="5.81758">
        <ele>923.2</ele>
        <time>2016-05-21T09:21:51Z</time>
      </trkpt>
      <trkpt lat="45.43159" lon="5.81747">
        <ele>923.3</ele>
        <time>2016-05-21T09:21:53Z</time>
      </trkpt>
      <trkpt lat="45.43167" lon="5.81738">
        <ele>924.4</ele>
        <time>2016-05-21T09:21:55Z</time>
      </trkpt>
      <trkpt lat="45.43174" lon="5.81728">
        <ele>925.9</ele>
        <time>2016-05-21T09:21:58Z</time>
      </trkpt>
      <trkpt lat="45.43181" lon="5.81715">
        <ele>927.9</ele>
        <time>2016-05-21T09:22:01Z</time>
      </trkpt>
      <trkpt lat="45.43189" lon="5.81704">
        <ele>929.8</ele>
        <time>2016-05-21T09:22:03Z</time>
      </trkpt>
      <trkpt lat="45.43198" lon="5.81692">
        <ele>930.4</ele>
        <time>2016-05-21T09:22:05Z</time>
      </trkpt>
      <trkpt lat="45.43206" lon="5.81682">
        <ele>930.6</ele>
        <time>2016-05-21T09:22:07Z</time>
      </trkpt>
      <trkpt lat="45.43214" lon="5.81672">
        <ele>931</ele>
        <time>2016-05-21T09:22:09Z</time>
      </trkpt>
      <trkpt lat="45.43219" lon="5.81665">
        <ele>930.7</ele>
        <time>2016-05-21T09:22:11Z</time>
      </trkpt>
      <trkpt lat="45.43227" lon="5.81659">
        <ele>928.3</ele>
        <time>2016-05-21T09:22:13Z</time>
      </trkpt>
      <trkpt lat="45.43236" lon="5.81664">
        <ele>928.2</ele>
        <time>2016-05-21T09:22:18Z</time>
      </trkpt>
      <trkpt lat="45.43241" lon="5.81672">
        <ele>930.6</ele>
        <time>2016-05-21T09:22:20Z</time>
      </trkpt>
      <trkpt lat="45.43247" lon="5.81678">
        <ele>931.2</ele>
        <time>2016-05-21T09:22:24Z</time>
      </trkpt>
      <trkpt lat="45.43258" lon="5.81671">
        <ele>936.1</ele>
        <time>2016-05-21T09:22:27Z</time>
      </trkpt>
      <trkpt lat="45.43267" lon="5.81658">
        <ele>940</ele>
        <time>2016-05-21T09:22:29Z</time>
      </trkpt>
      <trkpt lat="45.43273" lon="5.81648">
        <ele>940.3</ele>
        <time>2016-05-21T09:22:30Z</time>
      </trkpt>
      <trkpt lat="45.4328" lon="5.81641">
        <ele>943.9</ele>
        <time>2016-05-21T09:22:31Z</time>
      </trkpt>
      <trkpt lat="45.43291" lon="5.81636">
        <ele>946.6</ele>
        <time>2016-05-21T09:22:33Z</time>
      </trkpt>
      <trkpt lat="45.43305" lon="5.81633">
        <ele>947.1</ele>
        <time>2016-05-21T09:22:35Z</time>
      </trkpt>
      <trkpt lat="45.43317" lon="5.81634">
        <ele>946.9</ele>
        <time>2016-05-21T09:22:37Z</time>
      </trkpt>
      <trkpt lat="45.43328" lon="5.81637">
        <ele>945.6</ele>
        <time>2016-05-21T09:22:39Z</time>
      </trkpt>
      <trkpt lat="45.43339" lon="5.81645">
        <ele>942.8</ele>
        <time>2016-05-21T09:22:41Z</time>
      </trkpt>
      <trkpt lat="45.43352" lon="5.81648">
        <ele>942.8</ele>
        <time>2016-05-21T09:22:44Z</time>
      </trkpt>
      <trkpt lat="45.43363" lon="5.8164">
        <ele>944</ele>
        <time>2016-05-21T09:22:46Z</time>
      </trkpt>
      <trkpt lat="45.43374" lon="5.81636">
        <ele>944</ele>
        <time>2016-05-21T09:22:48Z</time>
      </trkpt>
      <trkpt lat="45.43384" lon="5.81635">
        <ele>942.5</ele>
        <time>2016-05-21T09:22:50Z</time>
      </trkpt>
      <trkpt lat="45.43391" lon="5.81635">
        <ele>941.6</ele>
        <time>2016-05-21T09:22:51Z</time>
      </trkpt>
      <trkpt lat="45.43404" lon="5.81635">
        <ele>942.5</ele>
        <time>2016-05-21T09:22:53Z</time>
      </trkpt>
      <trkpt lat="45.43412" lon="5.8164">
        <ele>944.3</ele>
        <time>2016-05-21T09:22:55Z</time>
      </trkpt>
      <trkpt lat="45.43423" lon="5.81646">
        <ele>944.4</ele>
        <time>2016-05-21T09:22:57Z</time>
      </trkpt>
      <trkpt lat="45.43436" lon="5.8165">
        <ele>944.6</ele>
        <time>2016-05-21T09:22:59Z</time>
      </trkpt>
      <trkpt lat="45.43445" lon="5.81653">
        <ele>946.5</ele>
        <time>2016-05-21T09:23:01Z</time>
      </trkpt>
      <trkpt lat="45.43458" lon="5.81654">
        <ele>949.6</ele>
        <time>2016-05-21T09:23:03Z</time>
      </trkpt>
      <trkpt lat="45.4347" lon="5.81655">
        <ele>952.9</ele>
        <time>2016-05-21T09:23:05Z</time>
      </trkpt>
      <trkpt lat="45.4348" lon="5.81654">
        <ele>957.9</ele>
        <time>2016-05-21T09:23:07Z</time>
      </trkpt>
      <trkpt lat="45.4349" lon="5.81649">
        <ele>962.3</ele>
        <time>2016-05-21T09:23:09Z</time>
      </trkpt>
      <trkpt lat="45.43498" lon="5.81644">
        <ele>965.7</ele>
        <time>2016-05-21T09:23:10Z</time>
      </trkpt>
      <trkpt lat="45.43507" lon="5.8164">
        <ele>968.4</ele>
        <time>2016-05-21T09:23:11Z</time>
      </trkpt>
      <trkpt lat="45.43517" lon="5.81633">
        <ele>971</ele>
        <time>2016-05-21T09:23:12Z</time>
      </trkpt>
      <trkpt lat="45.43526" lon="5.81627">
        <ele>973</ele>
        <time>2016-05-21T09:23:13Z</time>
      </trkpt>
      <trkpt lat="45.43536" lon="5.81615">
        <ele>976.5</ele>
        <time>2016-05-21T09:23:15Z</time>
      </trkpt>
      <trkpt lat="45.43542" lon="5.81609">
        <ele>976.9</ele>
        <time>2016-05-21T09:23:16Z</time>
      </trkpt>
      <trkpt lat="45.4355" lon="5.81604">
        <ele>976.4</ele>
        <time>2016-05-21T09:23:17Z</time>
      </trkpt>
      <trkpt lat="45.43557" lon="5.81598">
        <ele>973.1</ele>
        <time>2016-05-21T09:23:18Z</time>
      </trkpt>
      <trkpt lat="45.43558" lon="5.81588">
        <ele>968.8</ele>
        <time>2016-05-21T09:23:19Z</time>
      </trkpt>
      <trkpt lat="45.43558" lon="5.81574">
        <ele>964.1</ele>
        <time>2016-05-21T09:23:20Z</time>
      </trkpt>
      <trkpt lat="45.43556" lon="5.81561">
        <ele>958.9</ele>
        <time>2016-05-21T09:23:21Z</time>
      </trkpt>
      <trkpt lat="45.43555" lon="5.81549">
        <ele>953.9</ele>
        <time>2016-05-21T09:23:22Z</time>
      </trkpt>
      <trkpt lat="45.43555" lon="5.81532">
        <ele>950.2</ele>
        <time>2016-05-21T09:23:23Z</time>
      </trkpt>
      <trkpt lat="45.43557" lon="5.81518">
        <ele>946</ele>
        <time>2016-05-21T09:23:24Z</time>
      </trkpt>
      <trkpt lat="45.43561" lon="5.81507">
        <ele>943.7</ele>
        <time>2016-05-21T09:23:25Z</time>
      </trkpt>
      <trkpt lat="45.43565" lon="5.81498">
        <ele>941.2</ele>
        <time>2016-05-21T09:23:26Z</time>
      </trkpt>
      <trkpt lat="45.43569" lon="5.81489">
        <ele>939.2</ele>
        <time>2016-05-21T09:23:27Z</time>
      </trkpt>
      <trkpt lat="45.43575" lon="5.81478">
        <ele>937</ele>
        <time>2016-05-21T09:23:28Z</time>
      </trkpt>
      <trkpt lat="45.43583" lon="5.81472">
        <ele>935.7</ele>
        <time>2016-05-21T09:23:29Z</time>
      </trkpt>
      <trkpt lat="45.4359" lon="5.81465">
        <ele>934.2</ele>
        <time>2016-05-21T09:23:30Z</time>
      </trkpt>
      <trkpt lat="45.436" lon="5.81461">
        <ele>933.3</ele>
        <time>2016-05-21T09:23:31Z</time>
      </trkpt>
      <trkpt lat="45.43611" lon="5.81458">
        <ele>932.7</ele>
        <time>2016-05-21T09:23:32Z</time>
      </trkpt>
      <trkpt lat="45.43623" lon="5.81453">
        <ele>932.8</ele>
        <time>2016-05-21T09:23:33Z</time>
      </trkpt>
      <trkpt lat="45.43634" lon="5.81451">
        <ele>933.2</ele>
        <time>2016-05-21T09:23:34Z</time>
      </trkpt>
      <trkpt lat="45.43647" lon="5.81448">
        <ele>933.9</ele>
        <time>2016-05-21T09:23:35Z</time>
      </trkpt>
      <trkpt lat="45.43661" lon="5.81447">
        <ele>935.5</ele>
        <time>2016-05-21T09:23:36Z</time>
      </trkpt>
      <trkpt lat="45.43674" lon="5.81444">
        <ele>936.7</ele>
        <time>2016-05-21T09:23:37Z</time>
      </trkpt>
      <trkpt lat="45.43685" lon="5.81443">
        <ele>937.6</ele>
        <time>2016-05-21T09:23:38Z</time>
      </trkpt>
      <trkpt lat="45.43682" lon="5.81428">
        <ele>945.6</ele>
        <time>2016-05-21T09:23:40Z</time>
      </trkpt>
      <trkpt lat="45.43677" lon="5.81416">
        <ele>948.7</ele>
        <time>2016-05-21T09:23:41Z</time>
      </trkpt>
      <trkpt lat="45.43662" lon="5.81401">
        <ele>951.3</ele>
        <time>2016-05-21T09:23:42Z</time>
      </trkpt>
      <trkpt lat="45.43648" lon="5.81387">
        <ele>951.5</ele>
        <time>2016-05-21T09:23:43Z</time>
      </trkpt>
      <trkpt lat="45.43634" lon="5.81363">
        <ele>951.6</ele>
        <time>2016-05-21T09:23:44Z</time>
      </trkpt>
      <trkpt lat="45.43616" lon="5.81343">
        <ele>952.7</ele>
        <time>2016-05-21T09:23:45Z</time>
      </trkpt>
      <trkpt lat="45.43598" lon="5.81327">
        <ele>952.9</ele>
        <time>2016-05-21T09:23:46Z</time>
      </trkpt>
      <trkpt lat="45.43581" lon="5.81314">
        <ele>952</ele>
        <time>2016-05-21T09:23:47Z</time>
      </trkpt>
      <trkpt lat="45.43568" lon="5.81303">
        <ele>950.6</ele>
        <time>2016-05-21T09:23:48Z</time>
      </trkpt>
      <trkpt lat="45.43558" lon="5.81293">
        <ele>947.6</ele>
        <time>2016-05-21T09:23:49Z</time>
      </trkpt>
      <trkpt lat="45.4355" lon="5.81284">
        <ele>944.9</ele>
        <time>2016-05-21T09:23:50Z</time>
      </trkpt>
      <trkpt lat="45.43543" lon="5.81275">
        <ele>941.6</ele>
        <time>2016-05-21T09:23:51Z</time>
      </trkpt>
      <trkpt lat="45.43536" lon="5.81267">
        <ele>938.9</ele>
        <time>2016-05-21T09:23:52Z</time>
      </trkpt>
      <trkpt lat="45.4353" lon="5.81254">
        <ele>935.9</ele>
        <time>2016-05-21T09:23:54Z</time>
      </trkpt>
      <trkpt lat="45.4353" lon="5.81242">
        <ele>935.6</ele>
        <time>2016-05-21T09:23:57Z</time>
      </trkpt>
      <trkpt lat="45.43535" lon="5.81234">
        <ele>934.8</ele>
        <time>2016-05-21T09:24:03Z</time>
      </trkpt>
      <trkpt lat="45.43541" lon="5.81226">
        <ele>935</ele>
        <time>2016-05-21T09:24:08Z</time>
      </trkpt>
      <trkpt lat="45.43549" lon="5.81218">
        <ele>935.3</ele>
        <time>2016-05-21T09:24:11Z</time>
      </trkpt>
      <trkpt lat="45.43555" lon="5.81211">
        <ele>935.6</ele>
        <time>2016-05-21T09:24:13Z</time>
      </trkpt>
      <trkpt lat="45.43564" lon="5.81205">
        <ele>936.2</ele>
        <time>2016-05-21T09:24:16Z</time>
      </trkpt>
      <trkpt lat="45.43573" lon="5.81201">
        <ele>936.8</ele>
        <time>2016-05-21T09:24:19Z</time>
      </trkpt>
      <trkpt lat="45.43565" lon="5.81177">
        <ele>938.2</ele>
        <time>2016-05-21T09:24:24Z</time>
      </trkpt>
      <trkpt lat="45.43562" lon="5.81166">
        <ele>938.3</ele>
        <time>2016-05-21T09:24:25Z</time>
      </trkpt>
      <trkpt lat="45.43558" lon="5.81154">
        <ele>938.6</ele>
        <time>2016-05-21T09:24:27Z</time>
      </trkpt>
      <trkpt lat="45.43551" lon="5.81145">
        <ele>939</ele>
        <time>2016-05-21T09:24:30Z</time>
      </trkpt>
      <trkpt lat="45.43546" lon="5.81134">
        <ele>939.3</ele>
        <time>2016-05-21T09:24:32Z</time>
      </trkpt>
      <trkpt lat="45.43542" lon="5.81125">
        <ele>939.6</ele>
        <time>2016-05-21T09:24:34Z</time>
      </trkpt>
      <trkpt lat="45.43538" lon="5.81117">
        <ele>940.1</ele>
        <time>2016-05-21T09:24:36Z</time>
      </trkpt>
      <trkpt lat="45.43531" lon="5.81104">
        <ele>940.3</ele>
        <time>2016-05-21T09:24:38Z</time>
      </trkpt>
      <trkpt lat="45.43526" lon="5.81094">
        <ele>940.2</ele>
        <time>2016-05-21T09:24:40Z</time>
      </trkpt>
      <trkpt lat="45.43521" lon="5.81086">
        <ele>940.1</ele>
        <time>2016-05-21T09:24:42Z</time>
      </trkpt>
      <trkpt lat="45.43515" lon="5.81079">
        <ele>939.9</ele>
        <time>2016-05-21T09:24:44Z</time>
      </trkpt>
      <trkpt lat="45.43506" lon="5.81073">
        <ele>939.5</ele>
        <time>2016-05-21T09:24:47Z</time>
      </trkpt>
      <trkpt lat="45.435" lon="5.81065">
        <ele>939.7</ele>
        <time>2016-05-21T09:24:50Z</time>
      </trkpt>
      <trkpt lat="45.43498" lon="5.81055">
        <ele>939.8</ele>
        <time>2016-05-21T09:24:53Z</time>
      </trkpt>
      <trkpt lat="45.43497" lon="5.81043">
        <ele>939.8</ele>
        <time>2016-05-21T09:24:56Z</time>
      </trkpt>
      <trkpt lat="45.43497" lon="5.81031">
        <ele>939.7</ele>
        <time>2016-05-21T09:24:59Z</time>
      </trkpt>
      <trkpt lat="45.43495" lon="5.81017">
        <ele>939.6</ele>
        <time>2016-05-21T09:25:02Z</time>
      </trkpt>
      <trkpt lat="45.43498" lon="5.81004">
        <ele>940.1</ele>
        <time>2016-05-21T09:25:05Z</time>
      </trkpt>
      <trkpt lat="45.43503" lon="5.80992">
        <ele>940.2</ele>
        <time>2016-05-21T09:25:08Z</time>
      </trkpt>
      <trkpt lat="45.43508" lon="5.80983">
        <ele>940.1</ele>
        <time>2016-05-21T09:25:11Z</time>
      </trkpt>
      <trkpt lat="45.43514" lon="5.80974">
        <ele>939.8</ele>
        <time>2016-05-21T09:25:14Z</time>
      </trkpt>
      <trkpt lat="45.4352" lon="5.80964">
        <ele>939.9</ele>
        <time>2016-05-21T09:25:17Z</time>
      </trkpt>
      <trkpt lat="45.43526" lon="5.80955">
        <ele>940.3</ele>
        <time>2016-05-21T09:25:20Z</time>
      </trkpt>
      <trkpt lat="45.43532" lon="5.80947">
        <ele>941</ele>
        <time>2016-05-21T09:25:23Z</time>
      </trkpt>
      <trkpt lat="45.43539" lon="5.80939">
        <ele>941.6</ele>
        <time>2016-05-21T09:25:26Z</time>
      </trkpt>
      <trkpt lat="45.43546" lon="5.80931">
        <ele>943.3</ele>
        <time>2016-05-21T09:25:29Z</time>
      </trkpt>
      <trkpt lat="45.43554" lon="5.8093">
        <ele>943.5</ele>
        <time>2016-05-21T09:25:32Z</time>
      </trkpt>
      <trkpt lat="45.43562" lon="5.80932">
        <ele>943.7</ele>
        <time>2016-05-21T09:25:35Z</time>
      </trkpt>
      <trkpt lat="45.43572" lon="5.80935">
        <ele>943.8</ele>
        <time>2016-05-21T09:25:38Z</time>
      </trkpt>
      <trkpt lat="45.43581" lon="5.80937">
        <ele>944</ele>
        <time>2016-05-21T09:25:41Z</time>
      </trkpt>
      <trkpt lat="45.43591" lon="5.80938">
        <ele>944.1</ele>
        <time>2016-05-21T09:25:44Z</time>
      </trkpt>
      <trkpt lat="45.43598" lon="5.80943">
        <ele>943.7</ele>
        <time>2016-05-21T09:25:49Z</time>
      </trkpt>
      <trkpt lat="45.43607" lon="5.80944">
        <ele>943.7</ele>
        <time>2016-05-21T09:25:52Z</time>
      </trkpt>
      <trkpt lat="45.43616" lon="5.80945">
        <ele>943.8</ele>
        <time>2016-05-21T09:25:55Z</time>
      </trkpt>
      <trkpt lat="45.43624" lon="5.80949">
        <ele>943.9</ele>
        <time>2016-05-21T09:25:58Z</time>
      </trkpt>
      <trkpt lat="45.43633" lon="5.80952">
        <ele>943.9</ele>
        <time>2016-05-21T09:26:01Z</time>
      </trkpt>
      <trkpt lat="45.43641" lon="5.8095">
        <ele>943.9</ele>
        <time>2016-05-21T09:26:04Z</time>
      </trkpt>
      <trkpt lat="45.4365" lon="5.80951">
        <ele>944</ele>
        <time>2016-05-21T09:26:07Z</time>
      </trkpt>
      <trkpt lat="45.43658" lon="5.8095">
        <ele>944.1</ele>
        <time>2016-05-21T09:26:10Z</time>
      </trkpt>
      <trkpt lat="45.43668" lon="5.80949">
        <ele>944.6</ele>
        <time>2016-05-21T09:26:13Z</time>
      </trkpt>
      <trkpt lat="45.43678" lon="5.80949">
        <ele>945.4</ele>
        <time>2016-05-21T09:26:16Z</time>
      </trkpt>
      <trkpt lat="45.43686" lon="5.80949">
        <ele>946.3</ele>
        <time>2016-05-21T09:26:19Z</time>
      </trkpt>
      <trkpt lat="45.43694" lon="5.80947">
        <ele>947</ele>
        <time>2016-05-21T09:26:22Z</time>
      </trkpt>
      <trkpt lat="45.43701" lon="5.80943">
        <ele>947.5</ele>
        <time>2016-05-21T09:26:25Z</time>
      </trkpt>
      <trkpt lat="45.4371" lon="5.8094">
        <ele>948</ele>
        <time>2016-05-21T09:26:28Z</time>
      </trkpt>
      <trkpt lat="45.43718" lon="5.80941">
        <ele>948.5</ele>
        <time>2016-05-21T09:26:31Z</time>
      </trkpt>
      <trkpt lat="45.43725" lon="5.80943">
        <ele>949</ele>
        <time>2016-05-21T09:26:34Z</time>
      </trkpt>
      <trkpt lat="45.43734" lon="5.80948">
        <ele>949.5</ele>
        <time>2016-05-21T09:26:37Z</time>
      </trkpt>
      <trkpt lat="45.43742" lon="5.80953">
        <ele>949.8</ele>
        <time>2016-05-21T09:26:40Z</time>
      </trkpt>
      <trkpt lat="45.43749" lon="5.80958">
        <ele>950.2</ele>
        <time>2016-05-21T09:26:43Z</time>
      </trkpt>
      <trkpt lat="45.43757" lon="5.80963">
        <ele>950.7</ele>
        <time>2016-05-21T09:26:46Z</time>
      </trkpt>
      <trkpt lat="45.43764" lon="5.80967">
        <ele>951.2</ele>
        <time>2016-05-21T09:26:49Z</time>
      </trkpt>
      <trkpt lat="45.43772" lon="5.80969">
        <ele>951.8</ele>
        <time>2016-05-21T09:26:52Z</time>
      </trkpt>
      <trkpt lat="45.4378" lon="5.8097">
        <ele>952.4</ele>
        <time>2016-05-21T09:26:55Z</time>
      </trkpt>
      <trkpt lat="45.43787" lon="5.8097">
        <ele>952.9</ele>
        <time>2016-05-21T09:26:58Z</time>
      </trkpt>
      <trkpt lat="45.43796" lon="5.80968">
        <ele>954.1</ele>
        <time>2016-05-21T09:27:02Z</time>
      </trkpt>
      <trkpt lat="45.43806" lon="5.80965">
        <ele>955.4</ele>
        <time>2016-05-21T09:27:06Z</time>
      </trkpt>
      <trkpt lat="45.43814" lon="5.80965">
        <ele>956.3</ele>
        <time>2016-05-21T09:27:09Z</time>
      </trkpt>
      <trkpt lat="45.43822" lon="5.80965">
        <ele>957.3</ele>
        <time>2016-05-21T09:27:12Z</time>
      </trkpt>
      <trkpt lat="45.43831" lon="5.80966">
        <ele>958.1</ele>
        <time>2016-05-21T09:27:15Z</time>
      </trkpt>
      <trkpt lat="45.43839" lon="5.80967">
        <ele>958.4</ele>
        <time>2016-05-21T09:27:17Z</time>
      </trkpt>
      <trkpt lat="45.43849" lon="5.80968">
        <ele>958.8</ele>
        <time>2016-05-21T09:27:20Z</time>
      </trkpt>
      <trkpt lat="45.43858" lon="5.80967">
        <ele>959</ele>
        <time>2016-05-21T09:27:23Z</time>
      </trkpt>
      <trkpt lat="45.43865" lon="5.80965">
        <ele>959.4</ele>
        <time>2016-05-21T09:27:26Z</time>
      </trkpt>
      <trkpt lat="45.43875" lon="5.80963">
        <ele>959.7</ele>
        <time>2016-05-21T09:27:28Z</time>
      </trkpt>
      <trkpt lat="45.43885" lon="5.80962">
        <ele>960.2</ele>
        <time>2016-05-21T09:27:31Z</time>
      </trkpt>
      <trkpt lat="45.43892" lon="5.80961">
        <ele>960.6</ele>
        <time>2016-05-21T09:27:33Z</time>
      </trkpt>
      <trkpt lat="45.43902" lon="5.8096">
        <ele>961.2</ele>
        <time>2016-05-21T09:27:36Z</time>
      </trkpt>
      <trkpt lat="45.43912" lon="5.8096">
        <ele>961.5</ele>
        <time>2016-05-21T09:27:39Z</time>
      </trkpt>
      <trkpt lat="45.4392" lon="5.80963">
        <ele>961.7</ele>
        <time>2016-05-21T09:27:42Z</time>
      </trkpt>
      <trkpt lat="45.43928" lon="5.80965">
        <ele>962</ele>
        <time>2016-05-21T09:27:45Z</time>
      </trkpt>
      <trkpt lat="45.43936" lon="5.80967">
        <ele>962.4</ele>
        <time>2016-05-21T09:27:48Z</time>
      </trkpt>
      <trkpt lat="45.43944" lon="5.80969">
        <ele>962.8</ele>
        <time>2016-05-21T09:27:51Z</time>
      </trkpt>
      <trkpt lat="45.43952" lon="5.80972">
        <ele>963.3</ele>
        <time>2016-05-21T09:27:54Z</time>
      </trkpt>
      <trkpt lat="45.43962" lon="5.80976">
        <ele>963.8</ele>
        <time>2016-05-21T09:27:58Z</time>
      </trkpt>
      <trkpt lat="45.43971" lon="5.8098">
        <ele>964.3</ele>
        <time>2016-05-21T09:28:01Z</time>
      </trkpt>
      <trkpt lat="45.43979" lon="5.80984">
        <ele>964.8</ele>
        <time>2016-05-21T09:28:04Z</time>
      </trkpt>
      <trkpt lat="45.43987" lon="5.80987">
        <ele>965.2</ele>
        <time>2016-05-21T09:28:07Z</time>
      </trkpt>
      <trkpt lat="45.43996" lon="5.80989">
        <ele>966.2</ele>
        <time>2016-05-21T09:28:11Z</time>
      </trkpt>
      <trkpt lat="45.44005" lon="5.80993">
        <ele>967.3</ele>
        <time>2016-05-21T09:28:14Z</time>
      </trkpt>
      <trkpt lat="45.44013" lon="5.80997">
        <ele>968.1</ele>
        <time>2016-05-21T09:28:17Z</time>
      </trkpt>
      <trkpt lat="45.4402" lon="5.81002">
        <ele>968.5</ele>
        <time>2016-05-21T09:28:20Z</time>
      </trkpt>
      <trkpt lat="45.44027" lon="5.81007">
        <ele>968.9</ele>
        <time>2016-05-21T09:28:23Z</time>
      </trkpt>
      <trkpt lat="45.44035" lon="5.8101">
        <ele>969.3</ele>
        <time>2016-05-21T09:28:26Z</time>
      </trkpt>
      <trkpt lat="45.44044" lon="5.81011">
        <ele>970.1</ele>
        <time>2016-05-21T09:28:29Z</time>
      </trkpt>
      <trkpt lat="45.44051" lon="5.81012">
        <ele>970.7</ele>
        <time>2016-05-21T09:28:32Z</time>
      </trkpt>
      <trkpt lat="45.4406" lon="5.81013">
        <ele>971.6</ele>
        <time>2016-05-21T09:28:36Z</time>
      </trkpt>
      <trkpt lat="45.44068" lon="5.81014">
        <ele>972.3</ele>
        <time>2016-05-21T09:28:39Z</time>
      </trkpt>
      <trkpt lat="45.44076" lon="5.81016">
        <ele>973.1</ele>
        <time>2016-05-21T09:28:42Z</time>
      </trkpt>
      <trkpt lat="45.44083" lon="5.81018">
        <ele>973.7</ele>
        <time>2016-05-21T09:28:45Z</time>
      </trkpt>
      <trkpt lat="45.44091" lon="5.81019">
        <ele>974.1</ele>
        <time>2016-05-21T09:28:48Z</time>
      </trkpt>
      <trkpt lat="45.44098" lon="5.81021">
        <ele>974.5</ele>
        <time>2016-05-21T09:28:51Z</time>
      </trkpt>
      <trkpt lat="45.44106" lon="5.81023">
        <ele>975</ele>
        <time>2016-05-21T09:28:54Z</time>
      </trkpt>
      <trkpt lat="45.44113" lon="5.81025">
        <ele>975.7</ele>
        <time>2016-05-21T09:28:57Z</time>
      </trkpt>
      <trkpt lat="45.44121" lon="5.81027">
        <ele>976.3</ele>
        <time>2016-05-21T09:29:00Z</time>
      </trkpt>
      <trkpt lat="45.44129" lon="5.81028">
        <ele>977.1</ele>
        <time>2016-05-21T09:29:03Z</time>
      </trkpt>
      <trkpt lat="45.44138" lon="5.81029">
        <ele>978</ele>
        <time>2016-05-21T09:29:06Z</time>
      </trkpt>
      <trkpt lat="45.44145" lon="5.81032">
        <ele>979</ele>
        <time>2016-05-21T09:29:09Z</time>
      </trkpt>
      <trkpt lat="45.44153" lon="5.81036">
        <ele>979.8</ele>
        <time>2016-05-21T09:29:12Z</time>
      </trkpt>
      <trkpt lat="45.4416" lon="5.8104">
        <ele>981</ele>
        <time>2016-05-21T09:29:16Z</time>
      </trkpt>
      <trkpt lat="45.44167" lon="5.81043">
        <ele>981.7</ele>
        <time>2016-05-21T09:29:19Z</time>
      </trkpt>
      <trkpt lat="45.44177" lon="5.81046">
        <ele>982.4</ele>
        <time>2016-05-21T09:29:22Z</time>
      </trkpt>
      <trkpt lat="45.44185" lon="5.81048">
        <ele>983.2</ele>
        <time>2016-05-21T09:29:25Z</time>
      </trkpt>
      <trkpt lat="45.44194" lon="5.81051">
        <ele>984.7</ele>
        <time>2016-05-21T09:29:29Z</time>
      </trkpt>
      <trkpt lat="45.44203" lon="5.81052">
        <ele>986</ele>
        <time>2016-05-21T09:29:33Z</time>
      </trkpt>
      <trkpt lat="45.4421" lon="5.81055">
        <ele>986.5</ele>
        <time>2016-05-21T09:29:35Z</time>
      </trkpt>
      <trkpt lat="45.44219" lon="5.81059">
        <ele>987.3</ele>
        <time>2016-05-21T09:29:38Z</time>
      </trkpt>
      <trkpt lat="45.44228" lon="5.81061">
        <ele>988.2</ele>
        <time>2016-05-21T09:29:41Z</time>
      </trkpt>
      <trkpt lat="45.44236" lon="5.81064">
        <ele>989.3</ele>
        <time>2016-05-21T09:29:44Z</time>
      </trkpt>
      <trkpt lat="45.44245" lon="5.81067">
        <ele>990.4</ele>
        <time>2016-05-21T09:29:47Z</time>
      </trkpt>
      <trkpt lat="45.44254" lon="5.8107">
        <ele>991</ele>
        <time>2016-05-21T09:29:50Z</time>
      </trkpt>
      <trkpt lat="45.44263" lon="5.81076">
        <ele>991.6</ele>
        <time>2016-05-21T09:29:53Z</time>
      </trkpt>
      <trkpt lat="45.44272" lon="5.81081">
        <ele>992.2</ele>
        <time>2016-05-21T09:29:56Z</time>
      </trkpt>
      <trkpt lat="45.4428" lon="5.81084">
        <ele>992.5</ele>
        <time>2016-05-21T09:29:59Z</time>
      </trkpt>
      <trkpt lat="45.4429" lon="5.81087">
        <ele>992.8</ele>
        <time>2016-05-21T09:30:02Z</time>
      </trkpt>
      <trkpt lat="45.44299" lon="5.81091">
        <ele>993.4</ele>
        <time>2016-05-21T09:30:05Z</time>
      </trkpt>
      <trkpt lat="45.44309" lon="5.81093">
        <ele>994.1</ele>
        <time>2016-05-21T09:30:08Z</time>
      </trkpt>
      <trkpt lat="45.44319" lon="5.81097">
        <ele>994.7</ele>
        <time>2016-05-21T09:30:11Z</time>
      </trkpt>
      <trkpt lat="45.44328" lon="5.81102">
        <ele>995.3</ele>
        <time>2016-05-21T09:30:14Z</time>
      </trkpt>
      <trkpt lat="45.44336" lon="5.8111">
        <ele>995.3</ele>
        <time>2016-05-21T09:30:17Z</time>
      </trkpt>
      <trkpt lat="45.44345" lon="5.81117">
        <ele>995.4</ele>
        <time>2016-05-21T09:30:20Z</time>
      </trkpt>
      <trkpt lat="45.44354" lon="5.81123">
        <ele>995.6</ele>
        <time>2016-05-21T09:30:23Z</time>
      </trkpt>
      <trkpt lat="45.44362" lon="5.81131">
        <ele>996</ele>
        <time>2016-05-21T09:30:26Z</time>
      </trkpt>
      <trkpt lat="45.4437" lon="5.81139">
        <ele>996.6</ele>
        <time>2016-05-21T09:30:29Z</time>
      </trkpt>
      <trkpt lat="45.44377" lon="5.81146">
        <ele>997.2</ele>
        <time>2016-05-21T09:30:33Z</time>
      </trkpt>
      <trkpt lat="45.44381" lon="5.81156">
        <ele>997.8</ele>
        <time>2016-05-21T09:30:36Z</time>
      </trkpt>
      <trkpt lat="45.44387" lon="5.81164">
        <ele>998.2</ele>
        <time>2016-05-21T09:30:39Z</time>
      </trkpt>
      <trkpt lat="45.44392" lon="5.81167">
        <ele>998.9</ele>
        <time>2016-05-21T09:30:46Z</time>
      </trkpt>
      <trkpt lat="45.444" lon="5.81173">
        <ele>1001.3</ele>
        <time>2016-05-21T09:31:05Z</time>
      </trkpt>
      <trkpt lat="45.44409" lon="5.8118">
        <ele>1004</ele>
        <time>2016-05-21T09:31:08Z</time>
      </trkpt>
      <trkpt lat="45.44416" lon="5.81185">
        <ele>1005</ele>
        <time>2016-05-21T09:31:10Z</time>
      </trkpt>
      <trkpt lat="45.44425" lon="5.81191">
        <ele>1005.9</ele>
        <time>2016-05-21T09:31:12Z</time>
      </trkpt>
      <trkpt lat="45.44433" lon="5.81197">
        <ele>1006.2</ele>
        <time>2016-05-21T09:31:14Z</time>
      </trkpt>
      <trkpt lat="45.44442" lon="5.81203">
        <ele>1006.2</ele>
        <time>2016-05-21T09:31:16Z</time>
      </trkpt>
      <trkpt lat="45.44451" lon="5.81209">
        <ele>1006.6</ele>
        <time>2016-05-21T09:31:18Z</time>
      </trkpt>
      <trkpt lat="45.44459" lon="5.81215">
        <ele>1008</ele>
        <time>2016-05-21T09:31:20Z</time>
      </trkpt>
      <trkpt lat="45.44468" lon="5.81222">
        <ele>1009.1</ele>
        <time>2016-05-21T09:31:22Z</time>
      </trkpt>
      <trkpt lat="45.44479" lon="5.81229">
        <ele>1009.5</ele>
        <time>2016-05-21T09:31:24Z</time>
      </trkpt>
      <trkpt lat="45.4449" lon="5.81237">
        <ele>1009.1</ele>
        <time>2016-05-21T09:31:26Z</time>
      </trkpt>
      <trkpt lat="45.44501" lon="5.81245">
        <ele>1008.2</ele>
        <time>2016-05-21T09:31:28Z</time>
      </trkpt>
      <trkpt lat="45.44513" lon="5.81252">
        <ele>1007.8</ele>
        <time>2016-05-21T09:31:30Z</time>
      </trkpt>
      <trkpt lat="45.44525" lon="5.81261">
        <ele>1007.1</ele>
        <time>2016-05-21T09:31:32Z</time>
      </trkpt>
      <trkpt lat="45.44537" lon="5.81269">
        <ele>1006.4</ele>
        <time>2016-05-21T09:31:34Z</time>
      </trkpt>
      <trkpt lat="45.44549" lon="5.81277">
        <ele>1005.9</ele>
        <time>2016-05-21T09:31:36Z</time>
      </trkpt>
      <trkpt lat="45.44561" lon="5.81285">
        <ele>1005.1</ele>
        <time>2016-05-21T09:31:38Z</time>
      </trkpt>
      <trkpt lat="45.44573" lon="5.81294">
        <ele>1004.4</ele>
        <time>2016-05-21T09:31:40Z</time>
      </trkpt>
      <trkpt lat="45.44586" lon="5.81303">
        <ele>1003.8</ele>
        <time>2016-05-21T09:31:42Z</time>
      </trkpt>
      <trkpt lat="45.44598" lon="5.81313">
        <ele>1003.9</ele>
        <time>2016-05-21T09:31:44Z</time>
      </trkpt>
      <trkpt lat="45.4461" lon="5.81324">
        <ele>1003.9</ele>
        <time>2016-05-21T09:31:46Z</time>
      </trkpt>
      <trkpt lat="45.44621" lon="5.81336">
        <ele>1004.5</ele>
        <time>2016-05-21T09:31:48Z</time>
      </trkpt>
      <trkpt lat="45.44632" lon="5.81349">
        <ele>1004.8</ele>
        <time>2016-05-21T09:31:50Z</time>
      </trkpt>
      <trkpt lat="45.44638" lon="5.81356">
        <ele>1004.8</ele>
        <time>2016-05-21T09:31:51Z</time>
      </trkpt>
      <trkpt lat="45.44644" lon="5.81363">
        <ele>1004.5</ele>
        <time>2016-05-21T09:31:52Z</time>
      </trkpt>
      <trkpt lat="45.4465" lon="5.81371">
        <ele>1004.3</ele>
        <time>2016-05-21T09:31:53Z</time>
      </trkpt>
      <trkpt lat="45.44655" lon="5.81378">
        <ele>1004.1</ele>
        <time>2016-05-21T09:31:54Z</time>
      </trkpt>
      <trkpt lat="45.44661" lon="5.81385">
        <ele>1003.9</ele>
        <time>2016-05-21T09:31:55Z</time>
      </trkpt>
      <trkpt lat="45.44667" lon="5.81391">
        <ele>1003.8</ele>
        <time>2016-05-21T09:31:56Z</time>
      </trkpt>
      <trkpt lat="45.44673" lon="5.81398">
        <ele>1003.9</ele>
        <time>2016-05-21T09:31:57Z</time>
      </trkpt>
      <trkpt lat="45.44678" lon="5.81406">
        <ele>1004</ele>
        <time>2016-05-21T09:31:58Z</time>
      </trkpt>
      <trkpt lat="45.44684" lon="5.81413">
        <ele>1004</ele>
        <time>2016-05-21T09:31:59Z</time>
      </trkpt>
      <trkpt lat="45.4469" lon="5.8142">
        <ele>1003.9</ele>
        <time>2016-05-21T09:32:00Z</time>
      </trkpt>
      <trkpt lat="45.44696" lon="5.81428">
        <ele>1003.7</ele>
        <time>2016-05-21T09:32:01Z</time>
      </trkpt>
      <trkpt lat="45.44701" lon="5.81435">
        <ele>1003.7</ele>
        <time>2016-05-21T09:32:02Z</time>
      </trkpt>
      <trkpt lat="45.44707" lon="5.81442">
        <ele>1003.4</ele>
        <time>2016-05-21T09:32:03Z</time>
      </trkpt>
      <trkpt lat="45.44713" lon="5.8145">
        <ele>1003.1</ele>
        <time>2016-05-21T09:32:04Z</time>
      </trkpt>
      <trkpt lat="45.44718" lon="5.81458">
        <ele>1002.6</ele>
        <time>2016-05-21T09:32:05Z</time>
      </trkpt>
      <trkpt lat="45.44724" lon="5.81465">
        <ele>1002.2</ele>
        <time>2016-05-21T09:32:06Z</time>
      </trkpt>
      <trkpt lat="45.4473" lon="5.81472">
        <ele>1001.7</ele>
        <time>2016-05-21T09:32:07Z</time>
      </trkpt>
      <trkpt lat="45.44735" lon="5.8148">
        <ele>1001.2</ele>
        <time>2016-05-21T09:32:08Z</time>
      </trkpt>
      <trkpt lat="45.44741" lon="5.81487">
        <ele>1000.9</ele>
        <time>2016-05-21T09:32:09Z</time>
      </trkpt>
      <trkpt lat="45.44747" lon="5.81494">
        <ele>1000.7</ele>
        <time>2016-05-21T09:32:10Z</time>
      </trkpt>
      <trkpt lat="45.44752" lon="5.81501">
        <ele>1000.3</ele>
        <time>2016-05-21T09:32:11Z</time>
      </trkpt>
      <trkpt lat="45.44758" lon="5.81508">
        <ele>999.7</ele>
        <time>2016-05-21T09:32:12Z</time>
      </trkpt>
      <trkpt lat="45.44763" lon="5.81515">
        <ele>999.3</ele>
        <time>2016-05-21T09:32:13Z</time>
      </trkpt>
      <trkpt lat="45.4477" lon="5.81521">
        <ele>998.8</ele>
        <time>2016-05-21T09:32:14Z</time>
      </trkpt>
      <trkpt lat="45.44776" lon="5.81527">
        <ele>998.4</ele>
        <time>2016-05-21T09:32:15Z</time>
      </trkpt>
      <trkpt lat="45.44783" lon="5.81533">
        <ele>998</ele>
        <time>2016-05-21T09:32:16Z</time>
      </trkpt>
      <trkpt lat="45.44791" lon="5.81535">
        <ele>997.8</ele>
        <time>2016-05-21T09:32:17Z</time>
      </trkpt>
      <trkpt lat="45.44799" lon="5.81539">
        <ele>997.5</ele>
        <time>2016-05-21T09:32:18Z</time>
      </trkpt>
      <trkpt lat="45.44807" lon="5.81542">
        <ele>997.1</ele>
        <time>2016-05-21T09:32:19Z</time>
      </trkpt>
      <trkpt lat="45.44815" lon="5.81545">
        <ele>996.9</ele>
        <time>2016-05-21T09:32:20Z</time>
      </trkpt>
      <trkpt lat="45.44823" lon="5.81548">
        <ele>996.8</ele>
        <time>2016-05-21T09:32:21Z</time>
      </trkpt>
      <trkpt lat="45.44831" lon="5.81551">
        <ele>996.3</ele>
        <time>2016-05-21T09:32:22Z</time>
      </trkpt>
      <trkpt lat="45.44838" lon="5.81553">
        <ele>995.9</ele>
        <time>2016-05-21T09:32:23Z</time>
      </trkpt>
      <trkpt lat="45.44847" lon="5.81556">
        <ele>995.7</ele>
        <time>2016-05-21T09:32:24Z</time>
      </trkpt>
      <trkpt lat="45.44855" lon="5.8156">
        <ele>995.5</ele>
        <time>2016-05-21T09:32:25Z</time>
      </trkpt>
      <trkpt lat="45.44863" lon="5.81563">
        <ele>995.2</ele>
        <time>2016-05-21T09:32:26Z</time>
      </trkpt>
      <trkpt lat="45.44871" lon="5.81566">
        <ele>995.2</ele>
        <time>2016-05-21T09:32:27Z</time>
      </trkpt>
      <trkpt lat="45.44879" lon="5.8157">
        <ele>995.1</ele>
        <time>2016-05-21T09:32:28Z</time>
      </trkpt>
      <trkpt lat="45.44889" lon="5.81575">
        <ele>995</ele>
        <time>2016-05-21T09:32:29Z</time>
      </trkpt>
      <trkpt lat="45.44898" lon="5.8158">
        <ele>994.7</ele>
        <time>2016-05-21T09:32:30Z</time>
      </trkpt>
      <trkpt lat="45.44908" lon="5.81586">
        <ele>994.5</ele>
        <time>2016-05-21T09:32:31Z</time>
      </trkpt>
      <trkpt lat="45.44917" lon="5.81591">
        <ele>994</ele>
        <time>2016-05-21T09:32:32Z</time>
      </trkpt>
      <trkpt lat="45.44928" lon="5.81597">
        <ele>993.5</ele>
        <time>2016-05-21T09:32:33Z</time>
      </trkpt>
      <trkpt lat="45.44938" lon="5.81602">
        <ele>992.9</ele>
        <time>2016-05-21T09:32:34Z</time>
      </trkpt>
      <trkpt lat="45.44949" lon="5.81609">
        <ele>992.3</ele>
        <time>2016-05-21T09:32:35Z</time>
      </trkpt>
      <trkpt lat="45.4496" lon="5.81615">
        <ele>991</ele>
        <time>2016-05-21T09:32:36Z</time>
      </trkpt>
      <trkpt lat="45.44971" lon="5.81621">
        <ele>990.2</ele>
        <time>2016-05-21T09:32:37Z</time>
      </trkpt>
      <trkpt lat="45.44983" lon="5.81628">
        <ele>989</ele>
        <time>2016-05-21T09:32:38Z</time>
      </trkpt>
      <trkpt lat="45.44995" lon="5.81635">
        <ele>988.1</ele>
        <time>2016-05-21T09:32:39Z</time>
      </trkpt>
      <trkpt lat="45.45006" lon="5.81641">
        <ele>987.3</ele>
        <time>2016-05-21T09:32:40Z</time>
      </trkpt>
      <trkpt lat="45.45017" lon="5.81648">
        <ele>986.7</ele>
        <time>2016-05-21T09:32:41Z</time>
      </trkpt>
      <trkpt lat="45.45028" lon="5.81655">
        <ele>986.5</ele>
        <time>2016-05-21T09:32:42Z</time>
      </trkpt>
      <trkpt lat="45.45039" lon="5.81661">
        <ele>985.7</ele>
        <time>2016-05-21T09:32:43Z</time>
      </trkpt>
      <trkpt lat="45.45051" lon="5.81667">
        <ele>984.5</ele>
        <time>2016-05-21T09:32:44Z</time>
      </trkpt>
      <trkpt lat="45.45062" lon="5.81673">
        <ele>983.2</ele>
        <time>2016-05-21T09:32:45Z</time>
      </trkpt>
      <trkpt lat="45.45074" lon="5.81679">
        <ele>981.6</ele>
        <time>2016-05-21T09:32:46Z</time>
      </trkpt>
      <trkpt lat="45.45086" lon="5.81686">
        <ele>980.1</ele>
        <time>2016-05-21T09:32:47Z</time>
      </trkpt>
      <trkpt lat="45.45098" lon="5.81695">
        <ele>978.8</ele>
        <time>2016-05-21T09:32:48Z</time>
      </trkpt>
      <trkpt lat="45.4511" lon="5.81705">
        <ele>977.6</ele>
        <time>2016-05-21T09:32:49Z</time>
      </trkpt>
      <trkpt lat="45.45121" lon="5.81715">
        <ele>976.5</ele>
        <time>2016-05-21T09:32:50Z</time>
      </trkpt>
      <trkpt lat="45.45133" lon="5.81728">
        <ele>975.6</ele>
        <time>2016-05-21T09:32:51Z</time>
      </trkpt>
      <trkpt lat="45.45144" lon="5.8174">
        <ele>974.7</ele>
        <time>2016-05-21T09:32:52Z</time>
      </trkpt>
      <trkpt lat="45.45155" lon="5.81752">
        <ele>973.9</ele>
        <time>2016-05-21T09:32:53Z</time>
      </trkpt>
      <trkpt lat="45.45166" lon="5.81765">
        <ele>973.2</ele>
        <time>2016-05-21T09:32:54Z</time>
      </trkpt>
      <trkpt lat="45.45176" lon="5.81778">
        <ele>972.6</ele>
        <time>2016-05-21T09:32:55Z</time>
      </trkpt>
      <trkpt lat="45.45186" lon="5.81791">
        <ele>971.9</ele>
        <time>2016-05-21T09:32:56Z</time>
      </trkpt>
      <trkpt lat="45.45196" lon="5.81803">
        <ele>971.5</ele>
        <time>2016-05-21T09:32:57Z</time>
      </trkpt>
      <trkpt lat="45.45207" lon="5.81815">
        <ele>971.4</ele>
        <time>2016-05-21T09:32:58Z</time>
      </trkpt>
      <trkpt lat="45.45218" lon="5.81826">
        <ele>970.9</ele>
        <time>2016-05-21T09:32:59Z</time>
      </trkpt>
      <trkpt lat="45.45229" lon="5.81838">
        <ele>970.3</ele>
        <time>2016-05-21T09:33:00Z</time>
      </trkpt>
      <trkpt lat="45.45239" lon="5.81848">
        <ele>969.8</ele>
        <time>2016-05-21T09:33:01Z</time>
      </trkpt>
      <trkpt lat="45.45249" lon="5.81858">
        <ele>968.8</ele>
        <time>2016-05-21T09:33:02Z</time>
      </trkpt>
      <trkpt lat="45.45259" lon="5.81867">
        <ele>967.6</ele>
        <time>2016-05-21T09:33:03Z</time>
      </trkpt>
      <trkpt lat="45.45268" lon="5.81874">
        <ele>967.2</ele>
        <time>2016-05-21T09:33:04Z</time>
      </trkpt>
      <trkpt lat="45.45276" lon="5.8188">
        <ele>966.5</ele>
        <time>2016-05-21T09:33:05Z</time>
      </trkpt>
      <trkpt lat="45.45285" lon="5.81886">
        <ele>965.1</ele>
        <time>2016-05-21T09:33:06Z</time>
      </trkpt>
      <trkpt lat="45.45293" lon="5.81891">
        <ele>964.4</ele>
        <time>2016-05-21T09:33:07Z</time>
      </trkpt>
      <trkpt lat="45.45302" lon="5.81896">
        <ele>963.8</ele>
        <time>2016-05-21T09:33:08Z</time>
      </trkpt>
      <trkpt lat="45.45311" lon="5.81903">
        <ele>963.2</ele>
        <time>2016-05-21T09:33:09Z</time>
      </trkpt>
      <trkpt lat="45.4532" lon="5.81914">
        <ele>963.3</ele>
        <time>2016-05-21T09:33:10Z</time>
      </trkpt>
      <trkpt lat="45.45329" lon="5.81925">
        <ele>963</ele>
        <time>2016-05-21T09:33:11Z</time>
      </trkpt>
      <trkpt lat="45.45337" lon="5.81935">
        <ele>963.1</ele>
        <time>2016-05-21T09:33:12Z</time>
      </trkpt>
      <trkpt lat="45.45345" lon="5.81945">
        <ele>962.7</ele>
        <time>2016-05-21T09:33:13Z</time>
      </trkpt>
      <trkpt lat="45.45354" lon="5.81955">
        <ele>962.4</ele>
        <time>2016-05-21T09:33:14Z</time>
      </trkpt>
      <trkpt lat="45.45361" lon="5.81967">
        <ele>963</ele>
        <time>2016-05-21T09:33:15Z</time>
      </trkpt>
      <trkpt lat="45.45371" lon="5.81977">
        <ele>962.8</ele>
        <time>2016-05-21T09:33:16Z</time>
      </trkpt>
      <trkpt lat="45.45379" lon="5.81985">
        <ele>963</ele>
        <time>2016-05-21T09:33:17Z</time>
      </trkpt>
      <trkpt lat="45.45388" lon="5.81994">
        <ele>963.5</ele>
        <time>2016-05-21T09:33:18Z</time>
      </trkpt>
      <trkpt lat="45.45399" lon="5.81998">
        <ele>963.6</ele>
        <time>2016-05-21T09:33:19Z</time>
      </trkpt>
      <trkpt lat="45.4541" lon="5.82001">
        <ele>964.6</ele>
        <time>2016-05-21T09:33:20Z</time>
      </trkpt>
      <trkpt lat="45.4542" lon="5.82006">
        <ele>965.7</ele>
        <time>2016-05-21T09:33:21Z</time>
      </trkpt>
      <trkpt lat="45.4543" lon="5.82012">
        <ele>965.5</ele>
        <time>2016-05-21T09:33:22Z</time>
      </trkpt>
      <trkpt lat="45.4544" lon="5.82018">
        <ele>965.1</ele>
        <time>2016-05-21T09:33:23Z</time>
      </trkpt>
      <trkpt lat="45.45451" lon="5.82025">
        <ele>964.4</ele>
        <time>2016-05-21T09:33:24Z</time>
      </trkpt>
      <trkpt lat="45.4546" lon="5.82033">
        <ele>963.8</ele>
        <time>2016-05-21T09:33:25Z</time>
      </trkpt>
      <trkpt lat="45.45469" lon="5.82043">
        <ele>963.3</ele>
        <time>2016-05-21T09:33:26Z</time>
      </trkpt>
      <trkpt lat="45.45478" lon="5.82054">
        <ele>962.7</ele>
        <time>2016-05-21T09:33:27Z</time>
      </trkpt>
      <trkpt lat="45.45487" lon="5.82062">
        <ele>962.5</ele>
        <time>2016-05-21T09:33:28Z</time>
      </trkpt>
      <trkpt lat="45.45495" lon="5.82071">
        <ele>963</ele>
        <time>2016-05-21T09:33:29Z</time>
      </trkpt>
      <trkpt lat="45.45505" lon="5.82081">
        <ele>962.3</ele>
        <time>2016-05-21T09:33:30Z</time>
      </trkpt>
      <trkpt lat="45.45514" lon="5.82093">
        <ele>961.2</ele>
        <time>2016-05-21T09:33:31Z</time>
      </trkpt>
      <trkpt lat="45.45525" lon="5.82105">
        <ele>960.5</ele>
        <time>2016-05-21T09:33:32Z</time>
      </trkpt>
      <trkpt lat="45.45538" lon="5.82119">
        <ele>958.8</ele>
        <time>2016-05-21T09:33:33Z</time>
      </trkpt>
      <trkpt lat="45.45549" lon="5.82131">
        <ele>956.1</ele>
        <time>2016-05-21T09:33:34Z</time>
      </trkpt>
      <trkpt lat="45.45558" lon="5.82142">
        <ele>953.4</ele>
        <time>2016-05-21T09:33:35Z</time>
      </trkpt>
      <trkpt lat="45.45568" lon="5.82153">
        <ele>950.9</ele>
        <time>2016-05-21T09:33:36Z</time>
      </trkpt>
      <trkpt lat="45.45579" lon="5.82165">
        <ele>948.9</ele>
        <time>2016-05-21T09:33:37Z</time>
      </trkpt>
      <trkpt lat="45.45589" lon="5.82175">
        <ele>947.7</ele>
        <time>2016-05-21T09:33:38Z</time>
      </trkpt>
      <trkpt lat="45.45598" lon="5.82186">
        <ele>947.1</ele>
        <time>2016-05-21T09:33:39Z</time>
      </trkpt>
      <trkpt lat="45.4561" lon="5.82194">
        <ele>946</ele>
        <time>2016-05-21T09:33:40Z</time>
      </trkpt>
      <trkpt lat="45.45619" lon="5.82201">
        <ele>944.9</ele>
        <time>2016-05-21T09:33:41Z</time>
      </trkpt>
      <trkpt lat="45.45627" lon="5.82208">
        <ele>944.2</ele>
        <time>2016-05-21T09:33:42Z</time>
      </trkpt>
      <trkpt lat="45.45637" lon="5.82214">
        <ele>943.5</ele>
        <time>2016-05-21T09:33:43Z</time>
      </trkpt>
      <trkpt lat="45.45646" lon="5.82221">
        <ele>942.4</ele>
        <time>2016-05-21T09:33:44Z</time>
      </trkpt>
      <trkpt lat="45.45658" lon="5.8223">
        <ele>941.2</ele>
        <time>2016-05-21T09:33:45Z</time>
      </trkpt>
      <trkpt lat="45.45667" lon="5.82242">
        <ele>940</ele>
        <time>2016-05-21T09:33:46Z</time>
      </trkpt>
      <trkpt lat="45.45674" lon="5.82254">
        <ele>938.5</ele>
        <time>2016-05-21T09:33:47Z</time>
      </trkpt>
      <trkpt lat="45.45685" lon="5.82263">
        <ele>937.8</ele>
        <time>2016-05-21T09:33:48Z</time>
      </trkpt>
      <trkpt lat="45.45696" lon="5.82273">
        <ele>937.2</ele>
        <time>2016-05-21T09:33:49Z</time>
      </trkpt>
      <trkpt lat="45.45707" lon="5.82284">
        <ele>936.1</ele>
        <time>2016-05-21T09:33:50Z</time>
      </trkpt>
      <trkpt lat="45.45719" lon="5.82295">
        <ele>936.2</ele>
        <time>2016-05-21T09:33:51Z</time>
      </trkpt>
      <trkpt lat="45.45732" lon="5.82305">
        <ele>935.6</ele>
        <time>2016-05-21T09:33:52Z</time>
      </trkpt>
      <trkpt lat="45.45743" lon="5.8231">
        <ele>934.3</ele>
        <time>2016-05-21T09:33:53Z</time>
      </trkpt>
      <trkpt lat="45.45754" lon="5.82316">
        <ele>933.7</ele>
        <time>2016-05-21T09:33:54Z</time>
      </trkpt>
      <trkpt lat="45.45764" lon="5.82321">
        <ele>932.9</ele>
        <time>2016-05-21T09:33:55Z</time>
      </trkpt>
      <trkpt lat="45.45774" lon="5.82325">
        <ele>932.2</ele>
        <time>2016-05-21T09:33:56Z</time>
      </trkpt>
      <trkpt lat="45.45786" lon="5.8233">
        <ele>931.6</ele>
        <time>2016-05-21T09:33:57Z</time>
      </trkpt>
      <trkpt lat="45.45798" lon="5.82339">
        <ele>930.7</ele>
        <time>2016-05-21T09:33:58Z</time>
      </trkpt>
      <trkpt lat="45.45808" lon="5.82348">
        <ele>929.8</ele>
        <time>2016-05-21T09:33:59Z</time>
      </trkpt>
      <trkpt lat="45.4582" lon="5.82358">
        <ele>928.5</ele>
        <time>2016-05-21T09:34:00Z</time>
      </trkpt>
      <trkpt lat="45.45833" lon="5.82363">
        <ele>926.6</ele>
        <time>2016-05-21T09:34:01Z</time>
      </trkpt>
      <trkpt lat="45.45845" lon="5.82369">
        <ele>925</ele>
        <time>2016-05-21T09:34:02Z</time>
      </trkpt>
      <trkpt lat="45.45857" lon="5.82376">
        <ele>922.9</ele>
        <time>2016-05-21T09:34:03Z</time>
      </trkpt>
      <trkpt lat="45.45867" lon="5.82382">
        <ele>921.7</ele>
        <time>2016-05-21T09:34:04Z</time>
      </trkpt>
      <trkpt lat="45.45877" lon="5.82389">
        <ele>920.9</ele>
        <time>2016-05-21T09:34:05Z</time>
      </trkpt>
      <trkpt lat="45.45888" lon="5.82397">
        <ele>920.1</ele>
        <time>2016-05-21T09:34:06Z</time>
      </trkpt>
      <trkpt lat="45.45899" lon="5.82406">
        <ele>918.5</ele>
        <time>2016-05-21T09:34:07Z</time>
      </trkpt>
      <trkpt lat="45.45909" lon="5.82416">
        <ele>916.7</ele>
        <time>2016-05-21T09:34:08Z</time>
      </trkpt>
      <trkpt lat="45.4592" lon="5.82425">
        <ele>915.2</ele>
        <time>2016-05-21T09:34:09Z</time>
      </trkpt>
      <trkpt lat="45.45929" lon="5.82432">
        <ele>913.5</ele>
        <time>2016-05-21T09:34:10Z</time>
      </trkpt>
      <trkpt lat="45.45939" lon="5.82436">
        <ele>911.3</ele>
        <time>2016-05-21T09:34:11Z</time>
      </trkpt>
      <trkpt lat="45.45952" lon="5.82441">
        <ele>909.5</ele>
        <time>2016-05-21T09:34:12Z</time>
      </trkpt>
      <trkpt lat="45.45963" lon="5.82443">
        <ele>908.2</ele>
        <time>2016-05-21T09:34:13Z</time>
      </trkpt>
      <trkpt lat="45.45973" lon="5.82446">
        <ele>906.8</ele>
        <time>2016-05-21T09:34:14Z</time>
      </trkpt>
      <trkpt lat="45.45984" lon="5.8245">
        <ele>905.4</ele>
        <time>2016-05-21T09:34:15Z</time>
      </trkpt>
      <trkpt lat="45.45992" lon="5.82455">
        <ele>904.6</ele>
        <time>2016-05-21T09:34:16Z</time>
      </trkpt>
      <trkpt lat="45.46001" lon="5.82459">
        <ele>903.3</ele>
        <time>2016-05-21T09:34:17Z</time>
      </trkpt>
      <trkpt lat="45.46012" lon="5.8247">
        <ele>900.7</ele>
        <time>2016-05-21T09:34:18Z</time>
      </trkpt>
      <trkpt lat="45.4602" lon="5.82485">
        <ele>897.8</ele>
        <time>2016-05-21T09:34:19Z</time>
      </trkpt>
      <trkpt lat="45.46028" lon="5.825">
        <ele>895.2</ele>
        <time>2016-05-21T09:34:20Z</time>
      </trkpt>
      <trkpt lat="45.46039" lon="5.82513">
        <ele>893.2</ele>
        <time>2016-05-21T09:34:21Z</time>
      </trkpt>
      <trkpt lat="45.46048" lon="5.82524">
        <ele>892.2</ele>
        <time>2016-05-21T09:34:22Z</time>
      </trkpt>
      <trkpt lat="45.46058" lon="5.82534">
        <ele>890.8</ele>
        <time>2016-05-21T09:34:23Z</time>
      </trkpt>
      <trkpt lat="45.46068" lon="5.82544">
        <ele>889.6</ele>
        <time>2016-05-21T09:34:24Z</time>
      </trkpt>
      <trkpt lat="45.46079" lon="5.82553">
        <ele>888.2</ele>
        <time>2016-05-21T09:34:25Z</time>
      </trkpt>
      <trkpt lat="45.46089" lon="5.82561">
        <ele>887.3</ele>
        <time>2016-05-21T09:34:26Z</time>
      </trkpt>
      <trkpt lat="45.46097" lon="5.82568">
        <ele>886.8</ele>
        <time>2016-05-21T09:34:27Z</time>
      </trkpt>
      <trkpt lat="45.46108" lon="5.82571">
        <ele>886.9</ele>
        <time>2016-05-21T09:34:28Z</time>
      </trkpt>
      <trkpt lat="45.46119" lon="5.82575">
        <ele>887</ele>
        <time>2016-05-21T09:34:29Z</time>
      </trkpt>
      <trkpt lat="45.46131" lon="5.82578">
        <ele>886.9</ele>
        <time>2016-05-21T09:34:30Z</time>
      </trkpt>
      <trkpt lat="45.46144" lon="5.82575">
        <ele>886.3</ele>
        <time>2016-05-21T09:34:31Z</time>
      </trkpt>
      <trkpt lat="45.46155" lon="5.82573">
        <ele>886</ele>
        <time>2016-05-21T09:34:32Z</time>
      </trkpt>
      <trkpt lat="45.46167" lon="5.82576">
        <ele>885.7</ele>
        <time>2016-05-21T09:34:33Z</time>
      </trkpt>
      <trkpt lat="45.46179" lon="5.82579">
        <ele>884.9</ele>
        <time>2016-05-21T09:34:34Z</time>
      </trkpt>
      <trkpt lat="45.4619" lon="5.82581">
        <ele>884.7</ele>
        <time>2016-05-21T09:34:35Z</time>
      </trkpt>
      <trkpt lat="45.46202" lon="5.82582">
        <ele>884.4</ele>
        <time>2016-05-21T09:34:36Z</time>
      </trkpt>
      <trkpt lat="45.46213" lon="5.82585">
        <ele>884.6</ele>
        <time>2016-05-21T09:34:37Z</time>
      </trkpt>
      <trkpt lat="45.46224" lon="5.82594">
        <ele>883</ele>
        <time>2016-05-21T09:34:38Z</time>
      </trkpt>
      <trkpt lat="45.46235" lon="5.82602">
        <ele>881.8</ele>
        <time>2016-05-21T09:34:39Z</time>
      </trkpt>
      <trkpt lat="45.46246" lon="5.82611">
        <ele>879.7</ele>
        <time>2016-05-21T09:34:40Z</time>
      </trkpt>
      <trkpt lat="45.46257" lon="5.82619">
        <ele>877.8</ele>
        <time>2016-05-21T09:34:41Z</time>
      </trkpt>
      <trkpt lat="45.46269" lon="5.82626">
        <ele>875.9</ele>
        <time>2016-05-21T09:34:42Z</time>
      </trkpt>
      <trkpt lat="45.46281" lon="5.82633">
        <ele>874.2</ele>
        <time>2016-05-21T09:34:43Z</time>
      </trkpt>
      <trkpt lat="45.46293" lon="5.82639">
        <ele>873.1</ele>
        <time>2016-05-21T09:34:44Z</time>
      </trkpt>
      <trkpt lat="45.46304" lon="5.82644">
        <ele>872.2</ele>
        <time>2016-05-21T09:34:45Z</time>
      </trkpt>
      <trkpt lat="45.46316" lon="5.82648">
        <ele>871.7</ele>
        <time>2016-05-21T09:34:46Z</time>
      </trkpt>
      <trkpt lat="45.46327" lon="5.82652">
        <ele>871.1</ele>
        <time>2016-05-21T09:34:47Z</time>
      </trkpt>
      <trkpt lat="45.46337" lon="5.82655">
        <ele>871</ele>
        <time>2016-05-21T09:34:48Z</time>
      </trkpt>
      <trkpt lat="45.46346" lon="5.82658">
        <ele>871.6</ele>
        <time>2016-05-21T09:34:49Z</time>
      </trkpt>
      <trkpt lat="45.46358" lon="5.82661">
        <ele>871.9</ele>
        <time>2016-05-21T09:34:50Z</time>
      </trkpt>
      <trkpt lat="45.46369" lon="5.82666">
        <ele>871.8</ele>
        <time>2016-05-21T09:34:51Z</time>
      </trkpt>
      <trkpt lat="45.46379" lon="5.82672">
        <ele>871.3</ele>
        <time>2016-05-21T09:34:52Z</time>
      </trkpt>
      <trkpt lat="45.46388" lon="5.82678">
        <ele>870.5</ele>
        <time>2016-05-21T09:34:53Z</time>
      </trkpt>
      <trkpt lat="45.46398" lon="5.82684">
        <ele>867.8</ele>
        <time>2016-05-21T09:34:54Z</time>
      </trkpt>
      <trkpt lat="45.46408" lon="5.82691">
        <ele>864.3</ele>
        <time>2016-05-21T09:34:55Z</time>
      </trkpt>
      <trkpt lat="45.46416" lon="5.82698">
        <ele>860.6</ele>
        <time>2016-05-21T09:34:56Z</time>
      </trkpt>
      <trkpt lat="45.46427" lon="5.8271">
        <ele>856.3</ele>
        <time>2016-05-21T09:34:57Z</time>
      </trkpt>
      <trkpt lat="45.4644" lon="5.82722">
        <ele>850.8</ele>
        <time>2016-05-21T09:34:58Z</time>
      </trkpt>
      <trkpt lat="45.46447" lon="5.82729">
        <ele>848.1</ele>
        <time>2016-05-21T09:34:59Z</time>
      </trkpt>
      <trkpt lat="45.46455" lon="5.82729">
        <ele>846.3</ele>
        <time>2016-05-21T09:35:00Z</time>
      </trkpt>
      <trkpt lat="45.46456" lon="5.82712">
        <ele>843.3</ele>
        <time>2016-05-21T09:35:02Z</time>
      </trkpt>
      <trkpt lat="45.46453" lon="5.82699">
        <ele>841.8</ele>
        <time>2016-05-21T09:35:03Z</time>
      </trkpt>
      <trkpt lat="45.46448" lon="5.82687">
        <ele>839.7</ele>
        <time>2016-05-21T09:35:04Z</time>
      </trkpt>
      <trkpt lat="45.46442" lon="5.82676">
        <ele>838.5</ele>
        <time>2016-05-21T09:35:05Z</time>
      </trkpt>
      <trkpt lat="45.46436" lon="5.82664">
        <ele>837.7</ele>
        <time>2016-05-21T09:35:06Z</time>
      </trkpt>
      <trkpt lat="45.4643" lon="5.82649">
        <ele>837.1</ele>
        <time>2016-05-21T09:35:07Z</time>
      </trkpt>
      <trkpt lat="45.46426" lon="5.82634">
        <ele>836.4</ele>
        <time>2016-05-21T09:35:08Z</time>
      </trkpt>
      <trkpt lat="45.46423" lon="5.82618">
        <ele>835.7</ele>
        <time>2016-05-21T09:35:09Z</time>
      </trkpt>
      <trkpt lat="45.4642" lon="5.82599">
        <ele>835</ele>
        <time>2016-05-21T09:35:10Z</time>
      </trkpt>
      <trkpt lat="45.46417" lon="5.82584">
        <ele>833.8</ele>
        <time>2016-05-21T09:35:11Z</time>
      </trkpt>
      <trkpt lat="45.46414" lon="5.82569">
        <ele>832.5</ele>
        <time>2016-05-21T09:35:12Z</time>
      </trkpt>
      <trkpt lat="45.46412" lon="5.82553">
        <ele>831.6</ele>
        <time>2016-05-21T09:35:13Z</time>
      </trkpt>
      <trkpt lat="45.4641" lon="5.82538">
        <ele>830.5</ele>
        <time>2016-05-21T09:35:14Z</time>
      </trkpt>
      <trkpt lat="45.46411" lon="5.82522">
        <ele>829.6</ele>
        <time>2016-05-21T09:35:15Z</time>
      </trkpt>
      <trkpt lat="45.46412" lon="5.82507">
        <ele>829.4</ele>
        <time>2016-05-21T09:35:16Z</time>
      </trkpt>
      <trkpt lat="45.46413" lon="5.82494">
        <ele>828.9</ele>
        <time>2016-05-21T09:35:17Z</time>
      </trkpt>
      <trkpt lat="45.46415" lon="5.8248">
        <ele>829.4</ele>
        <time>2016-05-21T09:35:18Z</time>
      </trkpt>
      <trkpt lat="45.46414" lon="5.82466">
        <ele>830.2</ele>
        <time>2016-05-21T09:35:19Z</time>
      </trkpt>
      <trkpt lat="45.46413" lon="5.82452">
        <ele>830.3</ele>
        <time>2016-05-21T09:35:20Z</time>
      </trkpt>
      <trkpt lat="45.4641" lon="5.82438">
        <ele>829.6</ele>
        <time>2016-05-21T09:35:21Z</time>
      </trkpt>
      <trkpt lat="45.46408" lon="5.82425">
        <ele>828.4</ele>
        <time>2016-05-21T09:35:22Z</time>
      </trkpt>
      <trkpt lat="45.46404" lon="5.8241">
        <ele>827.8</ele>
        <time>2016-05-21T09:35:23Z</time>
      </trkpt>
      <trkpt lat="45.46399" lon="5.82395">
        <ele>827.5</ele>
        <time>2016-05-21T09:35:24Z</time>
      </trkpt>
      <trkpt lat="45.46394" lon="5.82381">
        <ele>827.2</ele>
        <time>2016-05-21T09:35:25Z</time>
      </trkpt>
      <trkpt lat="45.46389" lon="5.82366">
        <ele>826.4</ele>
        <time>2016-05-21T09:35:26Z</time>
      </trkpt>
      <trkpt lat="45.46381" lon="5.82353">
        <ele>825</ele>
        <time>2016-05-21T09:35:27Z</time>
      </trkpt>
      <trkpt lat="45.46373" lon="5.82341">
        <ele>824.1</ele>
        <time>2016-05-21T09:35:28Z</time>
      </trkpt>
      <trkpt lat="45.46364" lon="5.82328">
        <ele>822.1</ele>
        <time>2016-05-21T09:35:29Z</time>
      </trkpt>
      <trkpt lat="45.46353" lon="5.82315">
        <ele>820.2</ele>
        <time>2016-05-21T09:35:30Z</time>
      </trkpt>
      <trkpt lat="45.46341" lon="5.82303">
        <ele>818.4</ele>
        <time>2016-05-21T09:35:31Z</time>
      </trkpt>
      <trkpt lat="45.46331" lon="5.8229">
        <ele>817.2</ele>
        <time>2016-05-21T09:35:32Z</time>
      </trkpt>
      <trkpt lat="45.4632" lon="5.82279">
        <ele>815.6</ele>
        <time>2016-05-21T09:35:33Z</time>
      </trkpt>
      <trkpt lat="45.4631" lon="5.82267">
        <ele>813</ele>
        <time>2016-05-21T09:35:34Z</time>
      </trkpt>
      <trkpt lat="45.46301" lon="5.82256">
        <ele>811</ele>
        <time>2016-05-21T09:35:35Z</time>
      </trkpt>
      <trkpt lat="45.4629" lon="5.82245">
        <ele>808.8</ele>
        <time>2016-05-21T09:35:36Z</time>
      </trkpt>
      <trkpt lat="45.4628" lon="5.82233">
        <ele>806.7</ele>
        <time>2016-05-21T09:35:37Z</time>
      </trkpt>
      <trkpt lat="45.4627" lon="5.8222">
        <ele>804.7</ele>
        <time>2016-05-21T09:35:38Z</time>
      </trkpt>
      <trkpt lat="45.4626" lon="5.82209">
        <ele>802.5</ele>
        <time>2016-05-21T09:35:39Z</time>
      </trkpt>
      <trkpt lat="45.46249" lon="5.82196">
        <ele>800.1</ele>
        <time>2016-05-21T09:35:40Z</time>
      </trkpt>
      <trkpt lat="45.46238" lon="5.82184">
        <ele>798.7</ele>
        <time>2016-05-21T09:35:41Z</time>
      </trkpt>
      <trkpt lat="45.46228" lon="5.82173">
        <ele>797.3</ele>
        <time>2016-05-21T09:35:42Z</time>
      </trkpt>
      <trkpt lat="45.46218" lon="5.82162">
        <ele>796.7</ele>
        <time>2016-05-21T09:35:43Z</time>
      </trkpt>
      <trkpt lat="45.46208" lon="5.8215">
        <ele>795.7</ele>
        <time>2016-05-21T09:35:44Z</time>
      </trkpt>
      <trkpt lat="45.46197" lon="5.8214">
        <ele>794.5</ele>
        <time>2016-05-21T09:35:45Z</time>
      </trkpt>
      <trkpt lat="45.46187" lon="5.82131">
        <ele>793.1</ele>
        <time>2016-05-21T09:35:46Z</time>
      </trkpt>
      <trkpt lat="45.46177" lon="5.82122">
        <ele>792.7</ele>
        <time>2016-05-21T09:35:47Z</time>
      </trkpt>
      <trkpt lat="45.46166" lon="5.82112">
        <ele>792.3</ele>
        <time>2016-05-21T09:35:48Z</time>
      </trkpt>
      <trkpt lat="45.46153" lon="5.82104">
        <ele>792</ele>
        <time>2016-05-21T09:35:49Z</time>
      </trkpt>
      <trkpt lat="45.4614" lon="5.82096">
        <ele>791.1</ele>
        <time>2016-05-21T09:35:50Z</time>
      </trkpt>
      <trkpt lat="45.46127" lon="5.82087">
        <ele>789.5</ele>
        <time>2016-05-21T09:35:51Z</time>
      </trkpt>
      <trkpt lat="45.46114" lon="5.82079">
        <ele>788.4</ele>
        <time>2016-05-21T09:35:52Z</time>
      </trkpt>
      <trkpt lat="45.46103" lon="5.82071">
        <ele>786.9</ele>
        <time>2016-05-21T09:35:53Z</time>
      </trkpt>
      <trkpt lat="45.46089" lon="5.82063">
        <ele>785.9</ele>
        <time>2016-05-21T09:35:54Z</time>
      </trkpt>
      <trkpt lat="45.46074" lon="5.82055">
        <ele>784.2</ele>
        <time>2016-05-21T09:35:55Z</time>
      </trkpt>
      <trkpt lat="45.46061" lon="5.82048">
        <ele>783.9</ele>
        <time>2016-05-21T09:35:56Z</time>
      </trkpt>
      <trkpt lat="45.46049" lon="5.82042">
        <ele>783.2</ele>
        <time>2016-05-21T09:35:57Z</time>
      </trkpt>
      <trkpt lat="45.46035" lon="5.82035">
        <ele>782.8</ele>
        <time>2016-05-21T09:35:58Z</time>
      </trkpt>
      <trkpt lat="45.46021" lon="5.82027">
        <ele>781.8</ele>
        <time>2016-05-21T09:35:59Z</time>
      </trkpt>
      <trkpt lat="45.46009" lon="5.82017">
        <ele>780.7</ele>
        <time>2016-05-21T09:36:00Z</time>
      </trkpt>
      <trkpt lat="45.45995" lon="5.82007">
        <ele>779.8</ele>
        <time>2016-05-21T09:36:01Z</time>
      </trkpt>
      <trkpt lat="45.45984" lon="5.81996">
        <ele>778</ele>
        <time>2016-05-21T09:36:02Z</time>
      </trkpt>
      <trkpt lat="45.45973" lon="5.81986">
        <ele>776.3</ele>
        <time>2016-05-21T09:36:03Z</time>
      </trkpt>
      <trkpt lat="45.45963" lon="5.81976">
        <ele>775.1</ele>
        <time>2016-05-21T09:36:04Z</time>
      </trkpt>
      <trkpt lat="45.45953" lon="5.81966">
        <ele>773.5</ele>
        <time>2016-05-21T09:36:05Z</time>
      </trkpt>
      <trkpt lat="45.45944" lon="5.81957">
        <ele>771.7</ele>
        <time>2016-05-21T09:36:06Z</time>
      </trkpt>
      <trkpt lat="45.45935" lon="5.81949">
        <ele>769.9</ele>
        <time>2016-05-21T09:36:07Z</time>
      </trkpt>
      <trkpt lat="45.45928" lon="5.81941">
        <ele>768.5</ele>
        <time>2016-05-21T09:36:08Z</time>
      </trkpt>
      <trkpt lat="45.45917" lon="5.81933">
        <ele>767.2</ele>
        <time>2016-05-21T09:36:10Z</time>
      </trkpt>
      <trkpt lat="45.45909" lon="5.81927">
        <ele>766.2</ele>
        <time>2016-05-21T09:36:11Z</time>
      </trkpt>
      <trkpt lat="45.45902" lon="5.8192">
        <ele>765.3</ele>
        <time>2016-05-21T09:36:12Z</time>
      </trkpt>
      <trkpt lat="45.45896" lon="5.81912">
        <ele>764.3</ele>
        <time>2016-05-21T09:36:13Z</time>
      </trkpt>
      <trkpt lat="45.45892" lon="5.81903">
        <ele>762.9</ele>
        <time>2016-05-21T09:36:14Z</time>
      </trkpt>
      <trkpt lat="45.45893" lon="5.81889">
        <ele>761.9</ele>
        <time>2016-05-21T09:36:15Z</time>
      </trkpt>
      <trkpt lat="45.45899" lon="5.81882">
        <ele>761.1</ele>
        <time>2016-05-21T09:36:16Z</time>
      </trkpt>
      <trkpt lat="45.45907" lon="5.81874">
        <ele>760.8</ele>
        <time>2016-05-21T09:36:17Z</time>
      </trkpt>
      <trkpt lat="45.45915" lon="5.8187">
        <ele>759.8</ele>
        <time>2016-05-21T09:36:18Z</time>
      </trkpt>
      <trkpt lat="45.45924" lon="5.81871">
        <ele>759.3</ele>
        <time>2016-05-21T09:36:19Z</time>
      </trkpt>
      <trkpt lat="45.45933" lon="5.81877">
        <ele>759.6</ele>
        <time>2016-05-21T09:36:20Z</time>
      </trkpt>
      <trkpt lat="45.45943" lon="5.81882">
        <ele>759</ele>
        <time>2016-05-21T09:36:21Z</time>
      </trkpt>
      <trkpt lat="45.45952" lon="5.81888">
        <ele>757.2</ele>
        <time>2016-05-21T09:36:22Z</time>
      </trkpt>
      <trkpt lat="45.45961" lon="5.81895">
        <ele>755.7</ele>
        <time>2016-05-21T09:36:23Z</time>
      </trkpt>
      <trkpt lat="45.4597" lon="5.81902">
        <ele>754.1</ele>
        <time>2016-05-21T09:36:24Z</time>
      </trkpt>
      <trkpt lat="45.4598" lon="5.81909">
        <ele>752.7</ele>
        <time>2016-05-21T09:36:25Z</time>
      </trkpt>
      <trkpt lat="45.4599" lon="5.81916">
        <ele>751.9</ele>
        <time>2016-05-21T09:36:26Z</time>
      </trkpt>
      <trkpt lat="45.45999" lon="5.81923">
        <ele>751.1</ele>
        <time>2016-05-21T09:36:27Z</time>
      </trkpt>
      <trkpt lat="45.46008" lon="5.81931">
        <ele>750.2</ele>
        <time>2016-05-21T09:36:28Z</time>
      </trkpt>
      <trkpt lat="45.46017" lon="5.8194">
        <ele>749.2</ele>
        <time>2016-05-21T09:36:29Z</time>
      </trkpt>
      <trkpt lat="45.46026" lon="5.81948">
        <ele>748.5</ele>
        <time>2016-05-21T09:36:30Z</time>
      </trkpt>
      <trkpt lat="45.46035" lon="5.81956">
        <ele>747.7</ele>
        <time>2016-05-21T09:36:31Z</time>
      </trkpt>
      <trkpt lat="45.46045" lon="5.81964">
        <ele>746.9</ele>
        <time>2016-05-21T09:36:32Z</time>
      </trkpt>
      <trkpt lat="45.46056" lon="5.81969">
        <ele>746.5</ele>
        <time>2016-05-21T09:36:33Z</time>
      </trkpt>
      <trkpt lat="45.46065" lon="5.81974">
        <ele>745.8</ele>
        <time>2016-05-21T09:36:34Z</time>
      </trkpt>
      <trkpt lat="45.46074" lon="5.81979">
        <ele>745.7</ele>
        <time>2016-05-21T09:36:35Z</time>
      </trkpt>
      <trkpt lat="45.46082" lon="5.81985">
        <ele>745.4</ele>
        <time>2016-05-21T09:36:36Z</time>
      </trkpt>
      <trkpt lat="45.46091" lon="5.81991">
        <ele>745.1</ele>
        <time>2016-05-21T09:36:37Z</time>
      </trkpt>
      <trkpt lat="45.46101" lon="5.81996">
        <ele>744.8</ele>
        <time>2016-05-21T09:36:38Z</time>
      </trkpt>
      <trkpt lat="45.46113" lon="5.81998">
        <ele>744.8</ele>
        <time>2016-05-21T09:36:39Z</time>
      </trkpt>
      <trkpt lat="45.46123" lon="5.82">
        <ele>745</ele>
        <time>2016-05-21T09:36:40Z</time>
      </trkpt>
      <trkpt lat="45.46134" lon="5.82002">
        <ele>745.4</ele>
        <time>2016-05-21T09:36:41Z</time>
      </trkpt>
      <trkpt lat="45.46145" lon="5.82004">
        <ele>745.6</ele>
        <time>2016-05-21T09:36:42Z</time>
      </trkpt>
      <trkpt lat="45.46155" lon="5.82006">
        <ele>745.9</ele>
        <time>2016-05-21T09:36:43Z</time>
      </trkpt>
      <trkpt lat="45.46164" lon="5.82009">
        <ele>746</ele>
        <time>2016-05-21T09:36:44Z</time>
      </trkpt>
      <trkpt lat="45.46173" lon="5.82013">
        <ele>746.6</ele>
        <time>2016-05-21T09:36:45Z</time>
      </trkpt>
      <trkpt lat="45.46188" lon="5.82018">
        <ele>748.9</ele>
        <time>2016-05-21T09:36:47Z</time>
      </trkpt>
      <trkpt lat="45.46196" lon="5.82018">
        <ele>749.7</ele>
        <time>2016-05-21T09:36:48Z</time>
      </trkpt>
      <trkpt lat="45.46206" lon="5.82013">
        <ele>750.3</ele>
        <time>2016-05-21T09:36:49Z</time>
      </trkpt>
      <trkpt lat="45.46219" lon="5.82012">
        <ele>751.2</ele>
        <time>2016-05-21T09:36:50Z</time>
      </trkpt>
      <trkpt lat="45.46231" lon="5.82015">
        <ele>751.2</ele>
        <time>2016-05-21T09:36:51Z</time>
      </trkpt>
      <trkpt lat="45.46243" lon="5.82018">
        <ele>749.7</ele>
        <time>2016-05-21T09:36:52Z</time>
      </trkpt>
      <trkpt lat="45.46254" lon="5.8202">
        <ele>748.6</ele>
        <time>2016-05-21T09:36:53Z</time>
      </trkpt>
      <trkpt lat="45.46264" lon="5.82023">
        <ele>747.9</ele>
        <time>2016-05-21T09:36:54Z</time>
      </trkpt>
      <trkpt lat="45.46275" lon="5.82025">
        <ele>747.2</ele>
        <time>2016-05-21T09:36:55Z</time>
      </trkpt>
      <trkpt lat="45.46286" lon="5.82028">
        <ele>746.5</ele>
        <time>2016-05-21T09:36:56Z</time>
      </trkpt>
      <trkpt lat="45.46298" lon="5.8203">
        <ele>745.1</ele>
        <time>2016-05-21T09:36:57Z</time>
      </trkpt>
      <trkpt lat="45.46311" lon="5.82031">
        <ele>743.8</ele>
        <time>2016-05-21T09:36:58Z</time>
      </trkpt>
      <trkpt lat="45.46325" lon="5.82029">
        <ele>741.7</ele>
        <time>2016-05-21T09:36:59Z</time>
      </trkpt>
      <trkpt lat="45.46337" lon="5.82027">
        <ele>740.4</ele>
        <time>2016-05-21T09:37:00Z</time>
      </trkpt>
      <trkpt lat="45.46348" lon="5.82027">
        <ele>739.6</ele>
        <time>2016-05-21T09:37:01Z</time>
      </trkpt>
      <trkpt lat="45.46356" lon="5.82027">
        <ele>739.2</ele>
        <time>2016-05-21T09:37:02Z</time>
      </trkpt>
      <trkpt lat="45.46366" lon="5.82028">
        <ele>739.5</ele>
        <time>2016-05-21T09:37:03Z</time>
      </trkpt>
      <trkpt lat="45.46375" lon="5.82028">
        <ele>738.7</ele>
        <time>2016-05-21T09:37:04Z</time>
      </trkpt>
      <trkpt lat="45.46385" lon="5.82033">
        <ele>737.4</ele>
        <time>2016-05-21T09:37:05Z</time>
      </trkpt>
      <trkpt lat="45.46395" lon="5.82038">
        <ele>737.3</ele>
        <time>2016-05-21T09:37:06Z</time>
      </trkpt>
      <trkpt lat="45.46405" lon="5.82044">
        <ele>737.1</ele>
        <time>2016-05-21T09:37:07Z</time>
      </trkpt>
      <trkpt lat="45.46415" lon="5.8205">
        <ele>736.2</ele>
        <time>2016-05-21T09:37:08Z</time>
      </trkpt>
      <trkpt lat="45.46424" lon="5.82056">
        <ele>735.7</ele>
        <time>2016-05-21T09:37:09Z</time>
      </trkpt>
      <trkpt lat="45.46434" lon="5.82063">
        <ele>735</ele>
        <time>2016-05-21T09:37:10Z</time>
      </trkpt>
      <trkpt lat="45.46443" lon="5.8207">
        <ele>734</ele>
        <time>2016-05-21T09:37:11Z</time>
      </trkpt>
      <trkpt lat="45.46453" lon="5.82077">
        <ele>733.1</ele>
        <time>2016-05-21T09:37:12Z</time>
      </trkpt>
      <trkpt lat="45.46464" lon="5.82083">
        <ele>732.1</ele>
        <time>2016-05-21T09:37:13Z</time>
      </trkpt>
      <trkpt lat="45.46474" lon="5.82088">
        <ele>731.3</ele>
        <time>2016-05-21T09:37:14Z</time>
      </trkpt>
      <trkpt lat="45.46483" lon="5.82093">
        <ele>730.4</ele>
        <time>2016-05-21T09:37:15Z</time>
      </trkpt>
      <trkpt lat="45.46491" lon="5.82098">
        <ele>729.4</ele>
        <time>2016-05-21T09:37:16Z</time>
      </trkpt>
      <trkpt lat="45.46499" lon="5.82104">
        <ele>728.8</ele>
        <time>2016-05-21T09:37:17Z</time>
      </trkpt>
      <trkpt lat="45.46507" lon="5.82109">
        <ele>728</ele>
        <time>2016-05-21T09:37:18Z</time>
      </trkpt>
      <trkpt lat="45.46515" lon="5.82115">
        <ele>727.3</ele>
        <time>2016-05-21T09:37:19Z</time>
      </trkpt>
      <trkpt lat="45.46523" lon="5.8212">
        <ele>726.5</ele>
        <time>2016-05-21T09:37:20Z</time>
      </trkpt>
      <trkpt lat="45.4653" lon="5.82126">
        <ele>725.7</ele>
        <time>2016-05-21T09:37:21Z</time>
      </trkpt>
      <trkpt lat="45.46541" lon="5.82137">
        <ele>724.2</ele>
        <time>2016-05-21T09:37:23Z</time>
      </trkpt>
      <trkpt lat="45.4655" lon="5.82147">
        <ele>721.5</ele>
        <time>2016-05-21T09:37:25Z</time>
      </trkpt>
      <trkpt lat="45.46562" lon="5.82149">
        <ele>720.9</ele>
        <time>2016-05-21T09:37:28Z</time>
      </trkpt>
      <trkpt lat="45.46571" lon="5.82144">
        <ele>720.8</ele>
        <time>2016-05-21T09:37:29Z</time>
      </trkpt>
      <trkpt lat="45.46576" lon="5.82134">
        <ele>719.7</ele>
        <time>2016-05-21T09:37:30Z</time>
      </trkpt>
      <trkpt lat="45.46581" lon="5.82124">
        <ele>719.3</ele>
        <time>2016-05-21T09:37:31Z</time>
      </trkpt>
      <trkpt lat="45.46586" lon="5.82115">
        <ele>718</ele>
        <time>2016-05-21T09:37:32Z</time>
      </trkpt>
      <trkpt lat="45.46591" lon="5.82106">
        <ele>715.3</ele>
        <time>2016-05-21T09:37:33Z</time>
      </trkpt>
      <trkpt lat="45.46597" lon="5.82096">
        <ele>712.7</ele>
        <time>2016-05-21T09:37:34Z</time>
      </trkpt>
      <trkpt lat="45.46602" lon="5.82086">
        <ele>710</ele>
        <time>2016-05-21T09:37:35Z</time>
      </trkpt>
      <trkpt lat="45.46607" lon="5.82074">
        <ele>707.2</ele>
        <time>2016-05-21T09:37:36Z</time>
      </trkpt>
      <trkpt lat="45.46613" lon="5.82064">
        <ele>705</ele>
        <time>2016-05-21T09:37:37Z</time>
      </trkpt>
      <trkpt lat="45.46619" lon="5.82053">
        <ele>702.8</ele>
        <time>2016-05-21T09:37:38Z</time>
      </trkpt>
      <trkpt lat="45.46625" lon="5.82041">
        <ele>701.4</ele>
        <time>2016-05-21T09:37:39Z</time>
      </trkpt>
      <trkpt lat="45.46631" lon="5.82029">
        <ele>700.1</ele>
        <time>2016-05-21T09:37:40Z</time>
      </trkpt>
      <trkpt lat="45.46637" lon="5.82018">
        <ele>699.6</ele>
        <time>2016-05-21T09:37:41Z</time>
      </trkpt>
      <trkpt lat="45.46643" lon="5.82008">
        <ele>698.8</ele>
        <time>2016-05-21T09:37:42Z</time>
      </trkpt>
      <trkpt lat="45.46649" lon="5.81998">
        <ele>697.8</ele>
        <time>2016-05-21T09:37:43Z</time>
      </trkpt>
      <trkpt lat="45.46656" lon="5.81988">
        <ele>696.8</ele>
        <time>2016-05-21T09:37:44Z</time>
      </trkpt>
      <trkpt lat="45.46663" lon="5.81978">
        <ele>696.2</ele>
        <time>2016-05-21T09:37:45Z</time>
      </trkpt>
      <trkpt lat="45.46669" lon="5.81968">
        <ele>696</ele>
        <time>2016-05-21T09:37:46Z</time>
      </trkpt>
      <trkpt lat="45.46675" lon="5.81957">
        <ele>696</ele>
        <time>2016-05-21T09:37:47Z</time>
      </trkpt>
      <trkpt lat="45.46681" lon="5.81947">
        <ele>696.1</ele>
        <time>2016-05-21T09:37:48Z</time>
      </trkpt>
      <trkpt lat="45.46687" lon="5.81935">
        <ele>695.5</ele>
        <time>2016-05-21T09:37:49Z</time>
      </trkpt>
      <trkpt lat="45.46693" lon="5.81923">
        <ele>694.7</ele>
        <time>2016-05-21T09:37:50Z</time>
      </trkpt>
      <trkpt lat="45.46698" lon="5.81911">
        <ele>694</ele>
        <time>2016-05-21T09:37:51Z</time>
      </trkpt>
      <trkpt lat="45.46704" lon="5.81899">
        <ele>693.4</ele>
        <time>2016-05-21T09:37:52Z</time>
      </trkpt>
      <trkpt lat="45.4671" lon="5.81888">
        <ele>692.9</ele>
        <time>2016-05-21T09:37:53Z</time>
      </trkpt>
      <trkpt lat="45.46719" lon="5.81877">
        <ele>692.3</ele>
        <time>2016-05-21T09:37:54Z</time>
      </trkpt>
      <trkpt lat="45.46728" lon="5.8187">
        <ele>692.2</ele>
        <time>2016-05-21T09:37:55Z</time>
      </trkpt>
      <trkpt lat="45.46738" lon="5.81863">
        <ele>692.5</ele>
        <time>2016-05-21T09:37:56Z</time>
      </trkpt>
      <trkpt lat="45.46747" lon="5.81859">
        <ele>692.4</ele>
        <time>2016-05-21T09:37:57Z</time>
      </trkpt>
      <trkpt lat="45.46756" lon="5.81855">
        <ele>692.1</ele>
        <time>2016-05-21T09:37:58Z</time>
      </trkpt>
      <trkpt lat="45.46765" lon="5.8185">
        <ele>691.9</ele>
        <time>2016-05-21T09:37:59Z</time>
      </trkpt>
      <trkpt lat="45.46774" lon="5.81846">
        <ele>691.7</ele>
        <time>2016-05-21T09:38:00Z</time>
      </trkpt>
      <trkpt lat="45.46784" lon="5.81842">
        <ele>691</ele>
        <time>2016-05-21T09:38:01Z</time>
      </trkpt>
      <trkpt lat="45.46794" lon="5.81838">
        <ele>690.3</ele>
        <time>2016-05-21T09:38:02Z</time>
      </trkpt>
      <trkpt lat="45.46804" lon="5.81833">
        <ele>689.6</ele>
        <time>2016-05-21T09:38:03Z</time>
      </trkpt>
      <trkpt lat="45.46814" lon="5.81828">
        <ele>689.1</ele>
        <time>2016-05-21T09:38:04Z</time>
      </trkpt>
      <trkpt lat="45.46824" lon="5.81823">
        <ele>688.5</ele>
        <time>2016-05-21T09:38:05Z</time>
      </trkpt>
      <trkpt lat="45.46833" lon="5.81819">
        <ele>687.8</ele>
        <time>2016-05-21T09:38:06Z</time>
      </trkpt>
      <trkpt lat="45.46843" lon="5.81814">
        <ele>687.6</ele>
        <time>2016-05-21T09:38:07Z</time>
      </trkpt>
      <trkpt lat="45.46852" lon="5.8181">
        <ele>687.2</ele>
        <time>2016-05-21T09:38:08Z</time>
      </trkpt>
      <trkpt lat="45.4686" lon="5.81806">
        <ele>686.6</ele>
        <time>2016-05-21T09:38:09Z</time>
      </trkpt>
      <trkpt lat="45.46868" lon="5.81802">
        <ele>686.1</ele>
        <time>2016-05-21T09:38:10Z</time>
      </trkpt>
      <trkpt lat="45.46876" lon="5.81797">
        <ele>685.7</ele>
        <time>2016-05-21T09:38:11Z</time>
      </trkpt>
      <trkpt lat="45.46884" lon="5.81791">
        <ele>685.4</ele>
        <time>2016-05-21T09:38:12Z</time>
      </trkpt>
      <trkpt lat="45.46891" lon="5.81785">
        <ele>684.8</ele>
        <time>2016-05-21T09:38:13Z</time>
      </trkpt>
      <trkpt lat="45.46897" lon="5.81779">
        <ele>684.2</ele>
        <time>2016-05-21T09:38:14Z</time>
      </trkpt>
      <trkpt lat="45.46903" lon="5.81773">
        <ele>684.1</ele>
        <time>2016-05-21T09:38:15Z</time>
      </trkpt>
      <trkpt lat="45.46913" lon="5.81762">
        <ele>684.2</ele>
        <time>2016-05-21T09:38:17Z</time>
      </trkpt>
      <trkpt lat="45.46921" lon="5.81753">
        <ele>684.1</ele>
        <time>2016-05-21T09:38:19Z</time>
      </trkpt>
      <trkpt lat="45.46927" lon="5.81746">
        <ele>684.2</ele>
        <time>2016-05-21T09:38:21Z</time>
      </trkpt>
      <trkpt lat="45.46932" lon="5.81741">
        <ele>684</ele>
        <time>2016-05-21T09:38:28Z</time>
      </trkpt>
      <trkpt lat="45.46938" lon="5.8173">
        <ele>682.3</ele>
        <time>2016-05-21T09:38:38Z</time>
      </trkpt>
      <trkpt lat="45.46937" lon="5.81725">
        <ele>681.5</ele>
        <time>2016-05-21T09:38:45Z</time>
      </trkpt>
      <trkpt lat="45.46935" lon="5.81714">
        <ele>680.9</ele>
        <time>2016-05-21T09:38:57Z</time>
      </trkpt>
      <trkpt lat="45.46932" lon="5.81705">
        <ele>680.3</ele>
        <time>2016-05-21T09:38:59Z</time>
      </trkpt>
      <trkpt lat="45.46927" lon="5.81691">
        <ele>679.4</ele>
        <time>2016-05-21T09:39:02Z</time>
      </trkpt>
      <trkpt lat="45.46922" lon="5.81682">
        <ele>676.5</ele>
        <time>2016-05-21T09:39:04Z</time>
      </trkpt>
      <trkpt lat="45.46917" lon="5.81674">
        <ele>673.2</ele>
        <time>2016-05-21T09:39:06Z</time>
      </trkpt>
      <trkpt lat="45.46909" lon="5.81666">
        <ele>671.4</ele>
        <time>2016-05-21T09:39:08Z</time>
      </trkpt>
      <trkpt lat="45.46902" lon="5.81658">
        <ele>670.5</ele>
        <time>2016-05-21T09:39:10Z</time>
      </trkpt>
      <trkpt lat="45.46894" lon="5.81648">
        <ele>670.9</ele>
        <time>2016-05-21T09:39:12Z</time>
      </trkpt>
      <trkpt lat="45.46887" lon="5.81637">
        <ele>671.1</ele>
        <time>2016-05-21T09:39:14Z</time>
      </trkpt>
      <trkpt lat="45.46878" lon="5.81628">
        <ele>671</ele>
        <time>2016-05-21T09:39:16Z</time>
      </trkpt>
      <trkpt lat="45.46868" lon="5.81618">
        <ele>670.1</ele>
        <time>2016-05-21T09:39:18Z</time>
      </trkpt>
      <trkpt lat="45.46858" lon="5.81607">
        <ele>670.5</ele>
        <time>2016-05-21T09:39:20Z</time>
      </trkpt>
      <trkpt lat="45.46852" lon="5.81602">
        <ele>669.6</ele>
        <time>2016-05-21T09:39:21Z</time>
      </trkpt>
      <trkpt lat="45.46846" lon="5.81597">
        <ele>668.8</ele>
        <time>2016-05-21T09:39:22Z</time>
      </trkpt>
      <trkpt lat="45.46834" lon="5.81586">
        <ele>667.9</ele>
        <time>2016-05-21T09:39:24Z</time>
      </trkpt>
      <trkpt lat="45.46824" lon="5.81577">
        <ele>668.6</ele>
        <time>2016-05-21T09:39:26Z</time>
      </trkpt>
      <trkpt lat="45.46814" lon="5.81568">
        <ele>671.4</ele>
        <time>2016-05-21T09:39:28Z</time>
      </trkpt>
      <trkpt lat="45.46803" lon="5.81562">
        <ele>675.5</ele>
        <time>2016-05-21T09:39:30Z</time>
      </trkpt>
      <trkpt lat="45.46794" lon="5.81556">
        <ele>678.9</ele>
        <time>2016-05-21T09:39:32Z</time>
      </trkpt>
      <trkpt lat="45.46787" lon="5.81546">
        <ele>682.4</ele>
        <time>2016-05-21T09:39:34Z</time>
      </trkpt>
      <trkpt lat="45.4678" lon="5.81541">
        <ele>683.4</ele>
        <time>2016-05-21T09:39:35Z</time>
      </trkpt>
      <trkpt lat="45.46773" lon="5.81537">
        <ele>683.5</ele>
        <time>2016-05-21T09:39:36Z</time>
      </trkpt>
      <trkpt lat="45.46766" lon="5.81535">
        <ele>683.9</ele>
        <time>2016-05-21T09:39:37Z</time>
      </trkpt>
      <trkpt lat="45.46758" lon="5.81532">
        <ele>683</ele>
        <time>2016-05-21T09:39:38Z</time>
      </trkpt>
      <trkpt lat="45.46751" lon="5.8153">
        <ele>682.4</ele>
        <time>2016-05-21T09:39:39Z</time>
      </trkpt>
      <trkpt lat="45.46743" lon="5.81527">
        <ele>681.5</ele>
        <time>2016-05-21T09:39:40Z</time>
      </trkpt>
      <trkpt lat="45.46735" lon="5.81524">
        <ele>681.6</ele>
        <time>2016-05-21T09:39:41Z</time>
      </trkpt>
      <trkpt lat="45.46726" lon="5.81521">
        <ele>681.4</ele>
        <time>2016-05-21T09:39:42Z</time>
      </trkpt>
      <trkpt lat="45.46715" lon="5.81519">
        <ele>682</ele>
        <time>2016-05-21T09:39:43Z</time>
      </trkpt>
      <trkpt lat="45.46705" lon="5.81516">
        <ele>683.2</ele>
        <time>2016-05-21T09:39:44Z</time>
      </trkpt>
      <trkpt lat="45.46695" lon="5.81511">
        <ele>683.1</ele>
        <time>2016-05-21T09:39:45Z</time>
      </trkpt>
      <trkpt lat="45.46685" lon="5.81508">
        <ele>683.4</ele>
        <time>2016-05-21T09:39:46Z</time>
      </trkpt>
      <trkpt lat="45.46677" lon="5.81504">
        <ele>683</ele>
        <time>2016-05-21T09:39:47Z</time>
      </trkpt>
      <trkpt lat="45.46667" lon="5.81499">
        <ele>682.8</ele>
        <time>2016-05-21T09:39:48Z</time>
      </trkpt>
      <trkpt lat="45.46658" lon="5.81495">
        <ele>681.6</ele>
        <time>2016-05-21T09:39:49Z</time>
      </trkpt>
      <trkpt lat="45.46649" lon="5.8149">
        <ele>680.4</ele>
        <time>2016-05-21T09:39:50Z</time>
      </trkpt>
      <trkpt lat="45.4664" lon="5.81485">
        <ele>679.6</ele>
        <time>2016-05-21T09:39:51Z</time>
      </trkpt>
      <trkpt lat="45.46631" lon="5.81481">
        <ele>679.1</ele>
        <time>2016-05-21T09:39:52Z</time>
      </trkpt>
      <trkpt lat="45.46621" lon="5.81476">
        <ele>678.3</ele>
        <time>2016-05-21T09:39:53Z</time>
      </trkpt>
      <trkpt lat="45.46613" lon="5.81471">
        <ele>678.1</ele>
        <time>2016-05-21T09:39:54Z</time>
      </trkpt>
      <trkpt lat="45.46604" lon="5.81467">
        <ele>678.2</ele>
        <time>2016-05-21T09:39:55Z</time>
      </trkpt>
      <trkpt lat="45.46595" lon="5.81461">
        <ele>677.7</ele>
        <time>2016-05-21T09:39:56Z</time>
      </trkpt>
      <trkpt lat="45.46586" lon="5.81456">
        <ele>677</ele>
        <time>2016-05-21T09:39:57Z</time>
      </trkpt>
      <trkpt lat="45.46576" lon="5.8145">
        <ele>676.6</ele>
        <time>2016-05-21T09:39:58Z</time>
      </trkpt>
      <trkpt lat="45.46566" lon="5.81445">
        <ele>676.9</ele>
        <time>2016-05-21T09:39:59Z</time>
      </trkpt>
      <trkpt lat="45.46557" lon="5.81442">
        <ele>676.9</ele>
        <time>2016-05-21T09:40:00Z</time>
      </trkpt>
      <trkpt lat="45.46548" lon="5.81437">
        <ele>677.2</ele>
        <time>2016-05-21T09:40:01Z</time>
      </trkpt>
      <trkpt lat="45.46538" lon="5.81434">
        <ele>678</ele>
        <time>2016-05-21T09:40:02Z</time>
      </trkpt>
      <trkpt lat="45.46528" lon="5.81429">
        <ele>678.1</ele>
        <time>2016-05-21T09:40:03Z</time>
      </trkpt>
      <trkpt lat="45.46519" lon="5.81424">
        <ele>678.5</ele>
        <time>2016-05-21T09:40:04Z</time>
      </trkpt>
      <trkpt lat="45.46509" lon="5.81418">
        <ele>679.1</ele>
        <time>2016-05-21T09:40:05Z</time>
      </trkpt>
      <trkpt lat="45.46499" lon="5.81413">
        <ele>677.9</ele>
        <time>2016-05-21T09:40:06Z</time>
      </trkpt>
      <trkpt lat="45.46488" lon="5.81407">
        <ele>676.8</ele>
        <time>2016-05-21T09:40:07Z</time>
      </trkpt>
      <trkpt lat="45.46477" lon="5.814">
        <ele>675.9</ele>
        <time>2016-05-21T09:40:08Z</time>
      </trkpt>
      <trkpt lat="45.46467" lon="5.81394">
        <ele>674.9</ele>
        <time>2016-05-21T09:40:09Z</time>
      </trkpt>
      <trkpt lat="45.46457" lon="5.81388">
        <ele>673.4</ele>
        <time>2016-05-21T09:40:10Z</time>
      </trkpt>
      <trkpt lat="45.46447" lon="5.81382">
        <ele>673.3</ele>
        <time>2016-05-21T09:40:11Z</time>
      </trkpt>
      <trkpt lat="45.46436" lon="5.81376">
        <ele>672.7</ele>
        <time>2016-05-21T09:40:12Z</time>
      </trkpt>
      <trkpt lat="45.46427" lon="5.8137">
        <ele>671.8</ele>
        <time>2016-05-21T09:40:13Z</time>
      </trkpt>
      <trkpt lat="45.46418" lon="5.81363">
        <ele>671.1</ele>
        <time>2016-05-21T09:40:14Z</time>
      </trkpt>
      <trkpt lat="45.4641" lon="5.81354">
        <ele>670.9</ele>
        <time>2016-05-21T09:40:15Z</time>
      </trkpt>
      <trkpt lat="45.46401" lon="5.81347">
        <ele>671</ele>
        <time>2016-05-21T09:40:16Z</time>
      </trkpt>
      <trkpt lat="45.46392" lon="5.8134">
        <ele>670.8</ele>
        <time>2016-05-21T09:40:17Z</time>
      </trkpt>
      <trkpt lat="45.46383" lon="5.81334">
        <ele>671.1</ele>
        <time>2016-05-21T09:40:18Z</time>
      </trkpt>
      <trkpt lat="45.46374" lon="5.81327">
        <ele>671.4</ele>
        <time>2016-05-21T09:40:19Z</time>
      </trkpt>
      <trkpt lat="45.46365" lon="5.81321">
        <ele>671.1</ele>
        <time>2016-05-21T09:40:20Z</time>
      </trkpt>
      <trkpt lat="45.46356" lon="5.81314">
        <ele>671.2</ele>
        <time>2016-05-21T09:40:21Z</time>
      </trkpt>
      <trkpt lat="45.46348" lon="5.81306">
        <ele>670.9</ele>
        <time>2016-05-21T09:40:22Z</time>
      </trkpt>
      <trkpt lat="45.46339" lon="5.81299">
        <ele>671</ele>
        <time>2016-05-21T09:40:23Z</time>
      </trkpt>
      <trkpt lat="45.46331" lon="5.81293">
        <ele>670.8</ele>
        <time>2016-05-21T09:40:24Z</time>
      </trkpt>
      <trkpt lat="45.46323" lon="5.81286">
        <ele>671</ele>
        <time>2016-05-21T09:40:25Z</time>
      </trkpt>
      <trkpt lat="45.46315" lon="5.81279">
        <ele>671.1</ele>
        <time>2016-05-21T09:40:26Z</time>
      </trkpt>
      <trkpt lat="45.46307" lon="5.81273">
        <ele>670.8</ele>
        <time>2016-05-21T09:40:27Z</time>
      </trkpt>
      <trkpt lat="45.46299" lon="5.81266">
        <ele>670.5</ele>
        <time>2016-05-21T09:40:28Z</time>
      </trkpt>
      <trkpt lat="45.46291" lon="5.81259">
        <ele>669.7</ele>
        <time>2016-05-21T09:40:29Z</time>
      </trkpt>
      <trkpt lat="45.46282" lon="5.81252">
        <ele>669.6</ele>
        <time>2016-05-21T09:40:30Z</time>
      </trkpt>
      <trkpt lat="45.46273" lon="5.81245">
        <ele>669.3</ele>
        <time>2016-05-21T09:40:31Z</time>
      </trkpt>
      <trkpt lat="45.46264" lon="5.81238">
        <ele>668.7</ele>
        <time>2016-05-21T09:40:32Z</time>
      </trkpt>
      <trkpt lat="45.46255" lon="5.81232">
        <ele>667.7</ele>
        <time>2016-05-21T09:40:33Z</time>
      </trkpt>
      <trkpt lat="45.46246" lon="5.81224">
        <ele>666.8</ele>
        <time>2016-05-21T09:40:34Z</time>
      </trkpt>
      <trkpt lat="45.46236" lon="5.81217">
        <ele>666.8</ele>
        <time>2016-05-21T09:40:35Z</time>
      </trkpt>
      <trkpt lat="45.46226" lon="5.8121">
        <ele>666.5</ele>
        <time>2016-05-21T09:40:36Z</time>
      </trkpt>
      <trkpt lat="45.46217" lon="5.81202">
        <ele>664.8</ele>
        <time>2016-05-21T09:40:37Z</time>
      </trkpt>
      <trkpt lat="45.46209" lon="5.81195">
        <ele>663.4</ele>
        <time>2016-05-21T09:40:38Z</time>
      </trkpt>
      <trkpt lat="45.462" lon="5.81188">
        <ele>662.4</ele>
        <time>2016-05-21T09:40:39Z</time>
      </trkpt>
      <trkpt lat="45.46191" lon="5.81181">
        <ele>662.2</ele>
        <time>2016-05-21T09:40:40Z</time>
      </trkpt>
      <trkpt lat="45.46182" lon="5.81174">
        <ele>661.4</ele>
        <time>2016-05-21T09:40:41Z</time>
      </trkpt>
      <trkpt lat="45.46173" lon="5.81168">
        <ele>661.1</ele>
        <time>2016-05-21T09:40:42Z</time>
      </trkpt>
      <trkpt lat="45.46165" lon="5.81163">
        <ele>660.5</ele>
        <time>2016-05-21T09:40:43Z</time>
      </trkpt>
      <trkpt lat="45.46157" lon="5.81157">
        <ele>660.5</ele>
        <time>2016-05-21T09:40:44Z</time>
      </trkpt>
      <trkpt lat="45.46149" lon="5.81151">
        <ele>660.9</ele>
        <time>2016-05-21T09:40:45Z</time>
      </trkpt>
      <trkpt lat="45.46141" lon="5.81147">
        <ele>661.7</ele>
        <time>2016-05-21T09:40:46Z</time>
      </trkpt>
      <trkpt lat="45.46132" lon="5.81142">
        <ele>662</ele>
        <time>2016-05-21T09:40:47Z</time>
      </trkpt>
      <trkpt lat="45.46122" lon="5.81136">
        <ele>662.4</ele>
        <time>2016-05-21T09:40:48Z</time>
      </trkpt>
      <trkpt lat="45.46114" lon="5.8113">
        <ele>662.6</ele>
        <time>2016-05-21T09:40:49Z</time>
      </trkpt>
      <trkpt lat="45.46106" lon="5.81124">
        <ele>662.8</ele>
        <time>2016-05-21T09:40:50Z</time>
      </trkpt>
      <trkpt lat="45.46098" lon="5.81118">
        <ele>663.6</ele>
        <time>2016-05-21T09:40:51Z</time>
      </trkpt>
      <trkpt lat="45.4609" lon="5.81113">
        <ele>664.2</ele>
        <time>2016-05-21T09:40:52Z</time>
      </trkpt>
      <trkpt lat="45.46082" lon="5.81105">
        <ele>664.7</ele>
        <time>2016-05-21T09:40:53Z</time>
      </trkpt>
      <trkpt lat="45.46074" lon="5.81099">
        <ele>665.5</ele>
        <time>2016-05-21T09:40:54Z</time>
      </trkpt>
      <trkpt lat="45.46065" lon="5.81091">
        <ele>665.2</ele>
        <time>2016-05-21T09:40:55Z</time>
      </trkpt>
      <trkpt lat="45.46056" lon="5.81085">
        <ele>663.8</ele>
        <time>2016-05-21T09:40:56Z</time>
      </trkpt>
      <trkpt lat="45.46047" lon="5.81079">
        <ele>663.2</ele>
        <time>2016-05-21T09:40:57Z</time>
      </trkpt>
      <trkpt lat="45.46038" lon="5.81072">
        <ele>662.8</ele>
        <time>2016-05-21T09:40:58Z</time>
      </trkpt>
      <trkpt lat="45.46028" lon="5.81066">
        <ele>661.1</ele>
        <time>2016-05-21T09:40:59Z</time>
      </trkpt>
      <trkpt lat="45.46019" lon="5.81058">
        <ele>659.8</ele>
        <time>2016-05-21T09:41:00Z</time>
      </trkpt>
      <trkpt lat="45.4601" lon="5.81049">
        <ele>658.4</ele>
        <time>2016-05-21T09:41:01Z</time>
      </trkpt>
      <trkpt lat="45.46001" lon="5.81039">
        <ele>656.1</ele>
        <time>2016-05-21T09:41:02Z</time>
      </trkpt>
      <trkpt lat="45.45992" lon="5.81028">
        <ele>655.2</ele>
        <time>2016-05-21T09:41:03Z</time>
      </trkpt>
      <trkpt lat="45.45984" lon="5.81017">
        <ele>654.4</ele>
        <time>2016-05-21T09:41:04Z</time>
      </trkpt>
      <trkpt lat="45.45977" lon="5.81006">
        <ele>653.5</ele>
        <time>2016-05-21T09:41:05Z</time>
      </trkpt>
      <trkpt lat="45.4597" lon="5.80995">
        <ele>652.7</ele>
        <time>2016-05-21T09:41:06Z</time>
      </trkpt>
      <trkpt lat="45.45963" lon="5.80984">
        <ele>652.6</ele>
        <time>2016-05-21T09:41:07Z</time>
      </trkpt>
      <trkpt lat="45.45957" lon="5.80972">
        <ele>653.1</ele>
        <time>2016-05-21T09:41:08Z</time>
      </trkpt>
      <trkpt lat="45.4595" lon="5.8096">
        <ele>653.2</ele>
        <time>2016-05-21T09:41:09Z</time>
      </trkpt>
      <trkpt lat="45.45944" lon="5.80948">
        <ele>653.4</ele>
        <time>2016-05-21T09:41:10Z</time>
      </trkpt>
      <trkpt lat="45.45938" lon="5.80937">
        <ele>653.8</ele>
        <time>2016-05-21T09:41:11Z</time>
      </trkpt>
      <trkpt lat="45.45932" lon="5.80924">
        <ele>654.5</ele>
        <time>2016-05-21T09:41:12Z</time>
      </trkpt>
      <trkpt lat="45.45926" lon="5.80913">
        <ele>654</ele>
        <time>2016-05-21T09:41:13Z</time>
      </trkpt>
      <trkpt lat="45.4592" lon="5.80902">
        <ele>654.2</ele>
        <time>2016-05-21T09:41:14Z</time>
      </trkpt>
      <trkpt lat="45.45914" lon="5.8089">
        <ele>653.9</ele>
        <time>2016-05-21T09:41:15Z</time>
      </trkpt>
      <trkpt lat="45.45908" lon="5.80879">
        <ele>653.6</ele>
        <time>2016-05-21T09:41:16Z</time>
      </trkpt>
      <trkpt lat="45.45902" lon="5.80869">
        <ele>653.3</ele>
        <time>2016-05-21T09:41:17Z</time>
      </trkpt>
      <trkpt lat="45.45896" lon="5.80857">
        <ele>653.5</ele>
        <time>2016-05-21T09:41:18Z</time>
      </trkpt>
      <trkpt lat="45.45891" lon="5.80847">
        <ele>653.4</ele>
        <time>2016-05-21T09:41:19Z</time>
      </trkpt>
      <trkpt lat="45.45885" lon="5.80834">
        <ele>653.5</ele>
        <time>2016-05-21T09:41:20Z</time>
      </trkpt>
      <trkpt lat="45.45882" lon="5.80819">
        <ele>654.2</ele>
        <time>2016-05-21T09:41:21Z</time>
      </trkpt>
      <trkpt lat="45.45879" lon="5.80805">
        <ele>654.9</ele>
        <time>2016-05-21T09:41:22Z</time>
      </trkpt>
      <trkpt lat="45.45879" lon="5.8079">
        <ele>655.5</ele>
        <time>2016-05-21T09:41:23Z</time>
      </trkpt>
      <trkpt lat="45.45879" lon="5.80776">
        <ele>655.4</ele>
        <time>2016-05-21T09:41:24Z</time>
      </trkpt>
      <trkpt lat="45.45879" lon="5.80761">
        <ele>656.3</ele>
        <time>2016-05-21T09:41:25Z</time>
      </trkpt>
      <trkpt lat="45.45881" lon="5.80746">
        <ele>657.9</ele>
        <time>2016-05-21T09:41:26Z</time>
      </trkpt>
      <trkpt lat="45.45885" lon="5.80733">
        <ele>658.9</ele>
        <time>2016-05-21T09:41:27Z</time>
      </trkpt>
      <trkpt lat="45.4589" lon="5.80719">
        <ele>659.2</ele>
        <time>2016-05-21T09:41:28Z</time>
      </trkpt>
      <trkpt lat="45.45893" lon="5.80705">
        <ele>659.6</ele>
        <time>2016-05-21T09:41:29Z</time>
      </trkpt>
      <trkpt lat="45.45895" lon="5.8069">
        <ele>659.1</ele>
        <time>2016-05-21T09:41:30Z</time>
      </trkpt>
      <trkpt lat="45.45896" lon="5.80673">
        <ele>659.2</ele>
        <time>2016-05-21T09:41:31Z</time>
      </trkpt>
      <trkpt lat="45.45895" lon="5.80659">
        <ele>658.5</ele>
        <time>2016-05-21T09:41:32Z</time>
      </trkpt>
      <trkpt lat="45.45894" lon="5.80644">
        <ele>657.9</ele>
        <time>2016-05-21T09:41:33Z</time>
      </trkpt>
      <trkpt lat="45.45892" lon="5.8063">
        <ele>657.6</ele>
        <time>2016-05-21T09:41:34Z</time>
      </trkpt>
      <trkpt lat="45.4589" lon="5.80615">
        <ele>658.1</ele>
        <time>2016-05-21T09:41:35Z</time>
      </trkpt>
      <trkpt lat="45.45888" lon="5.80601">
        <ele>658.5</ele>
        <time>2016-05-21T09:41:36Z</time>
      </trkpt>
      <trkpt lat="45.45886" lon="5.80588">
        <ele>658.7</ele>
        <time>2016-05-21T09:41:37Z</time>
      </trkpt>
      <trkpt lat="45.45882" lon="5.80575">
        <ele>658.9</ele>
        <time>2016-05-21T09:41:38Z</time>
      </trkpt>
      <trkpt lat="45.45877" lon="5.80561">
        <ele>659</ele>
        <time>2016-05-21T09:41:39Z</time>
      </trkpt>
      <trkpt lat="45.45873" lon="5.80549">
        <ele>658.9</ele>
        <time>2016-05-21T09:41:40Z</time>
      </trkpt>
      <trkpt lat="45.45867" lon="5.80537">
        <ele>659.6</ele>
        <time>2016-05-21T09:41:41Z</time>
      </trkpt>
      <trkpt lat="45.45861" lon="5.80523">
        <ele>660.8</ele>
        <time>2016-05-21T09:41:42Z</time>
      </trkpt>
      <trkpt lat="45.45855" lon="5.80511">
        <ele>661.8</ele>
        <time>2016-05-21T09:41:43Z</time>
      </trkpt>
      <trkpt lat="45.45848" lon="5.80498">
        <ele>662.5</ele>
        <time>2016-05-21T09:41:44Z</time>
      </trkpt>
      <trkpt lat="45.45842" lon="5.80486">
        <ele>663</ele>
        <time>2016-05-21T09:41:45Z</time>
      </trkpt>
      <trkpt lat="45.45835" lon="5.80473">
        <ele>663.7</ele>
        <time>2016-05-21T09:41:46Z</time>
      </trkpt>
      <trkpt lat="45.45829" lon="5.80461">
        <ele>663.5</ele>
        <time>2016-05-21T09:41:47Z</time>
      </trkpt>
      <trkpt lat="45.45822" lon="5.80449">
        <ele>663.2</ele>
        <time>2016-05-21T09:41:48Z</time>
      </trkpt>
      <trkpt lat="45.45815" lon="5.80436">
        <ele>661.7</ele>
        <time>2016-05-21T09:41:49Z</time>
      </trkpt>
      <trkpt lat="45.45808" lon="5.80423">
        <ele>659.9</ele>
        <time>2016-05-21T09:41:50Z</time>
      </trkpt>
      <trkpt lat="45.45801" lon="5.80409">
        <ele>657.7</ele>
        <time>2016-05-21T09:41:51Z</time>
      </trkpt>
      <trkpt lat="45.45794" lon="5.80395">
        <ele>655.3</ele>
        <time>2016-05-21T09:41:52Z</time>
      </trkpt>
      <trkpt lat="45.45787" lon="5.80382">
        <ele>652.6</ele>
        <time>2016-05-21T09:41:53Z</time>
      </trkpt>
      <trkpt lat="45.45779" lon="5.80369">
        <ele>650.1</ele>
        <time>2016-05-21T09:41:54Z</time>
      </trkpt>
      <trkpt lat="45.45771" lon="5.80356">
        <ele>647.6</ele>
        <time>2016-05-21T09:41:55Z</time>
      </trkpt>
      <trkpt lat="45.45763" lon="5.80345">
        <ele>645.7</ele>
        <time>2016-05-21T09:41:56Z</time>
      </trkpt>
      <trkpt lat="45.45755" lon="5.80333">
        <ele>644.5</ele>
        <time>2016-05-21T09:41:57Z</time>
      </trkpt>
      <trkpt lat="45.45747" lon="5.80322">
        <ele>643.2</ele>
        <time>2016-05-21T09:41:58Z</time>
      </trkpt>
      <trkpt lat="45.45739" lon="5.80311">
        <ele>642.2</ele>
        <time>2016-05-21T09:41:59Z</time>
      </trkpt>
      <trkpt lat="45.45731" lon="5.80298">
        <ele>641.3</ele>
        <time>2016-05-21T09:42:00Z</time>
      </trkpt>
      <trkpt lat="45.45723" lon="5.80287">
        <ele>640.8</ele>
        <time>2016-05-21T09:42:01Z</time>
      </trkpt>
      <trkpt lat="45.45715" lon="5.80275">
        <ele>640.1</ele>
        <time>2016-05-21T09:42:02Z</time>
      </trkpt>
      <trkpt lat="45.45708" lon="5.80263">
        <ele>639.7</ele>
        <time>2016-05-21T09:42:03Z</time>
      </trkpt>
      <trkpt lat="45.457" lon="5.80251">
        <ele>639.6</ele>
        <time>2016-05-21T09:42:04Z</time>
      </trkpt>
      <trkpt lat="45.45693" lon="5.8024">
        <ele>638.8</ele>
        <time>2016-05-21T09:42:05Z</time>
      </trkpt>
      <trkpt lat="45.45687" lon="5.80228">
        <ele>637.9</ele>
        <time>2016-05-21T09:42:06Z</time>
      </trkpt>
      <trkpt lat="45.45679" lon="5.80219">
        <ele>637.8</ele>
        <time>2016-05-21T09:42:07Z</time>
      </trkpt>
      <trkpt lat="45.45669" lon="5.80212">
        <ele>637.3</ele>
        <time>2016-05-21T09:42:08Z</time>
      </trkpt>
      <trkpt lat="45.45658" lon="5.80209">
        <ele>637.1</ele>
        <time>2016-05-21T09:42:09Z</time>
      </trkpt>
      <trkpt lat="45.45646" lon="5.80206">
        <ele>637.3</ele>
        <time>2016-05-21T09:42:10Z</time>
      </trkpt>
      <trkpt lat="45.45634" lon="5.80202">
        <ele>637.8</ele>
        <time>2016-05-21T09:42:11Z</time>
      </trkpt>
      <trkpt lat="45.4562" lon="5.80199">
        <ele>638.6</ele>
        <time>2016-05-21T09:42:12Z</time>
      </trkpt>
      <trkpt lat="45.45607" lon="5.80197">
        <ele>639.6</ele>
        <time>2016-05-21T09:42:13Z</time>
      </trkpt>
      <trkpt lat="45.45593" lon="5.80195">
        <ele>640.3</ele>
        <time>2016-05-21T09:42:14Z</time>
      </trkpt>
      <trkpt lat="45.45579" lon="5.80195">
        <ele>640.5</ele>
        <time>2016-05-21T09:42:15Z</time>
      </trkpt>
      <trkpt lat="45.45565" lon="5.80197">
        <ele>640.6</ele>
        <time>2016-05-21T09:42:16Z</time>
      </trkpt>
      <trkpt lat="45.45551" lon="5.80202">
        <ele>641.2</ele>
        <time>2016-05-21T09:42:17Z</time>
      </trkpt>
      <trkpt lat="45.45541" lon="5.80206">
        <ele>642.2</ele>
        <time>2016-05-21T09:42:18Z</time>
      </trkpt>
      <trkpt lat="45.45529" lon="5.80207">
        <ele>643.2</ele>
        <time>2016-05-21T09:42:19Z</time>
      </trkpt>
      <trkpt lat="45.4552" lon="5.80208">
        <ele>643.8</ele>
        <time>2016-05-21T09:42:20Z</time>
      </trkpt>
      <trkpt lat="45.45511" lon="5.80211">
        <ele>644.7</ele>
        <time>2016-05-21T09:42:21Z</time>
      </trkpt>
      <trkpt lat="45.45501" lon="5.80213">
        <ele>645.6</ele>
        <time>2016-05-21T09:42:22Z</time>
      </trkpt>
      <trkpt lat="45.45492" lon="5.80217">
        <ele>645.8</ele>
        <time>2016-05-21T09:42:23Z</time>
      </trkpt>
      <trkpt lat="45.45482" lon="5.80218">
        <ele>645.6</ele>
        <time>2016-05-21T09:42:24Z</time>
      </trkpt>
      <trkpt lat="45.45471" lon="5.80219">
        <ele>645.2</ele>
        <time>2016-05-21T09:42:25Z</time>
      </trkpt>
      <trkpt lat="45.45459" lon="5.80217">
        <ele>644.3</ele>
        <time>2016-05-21T09:42:26Z</time>
      </trkpt>
      <trkpt lat="45.45446" lon="5.80216">
        <ele>641.6</ele>
        <time>2016-05-21T09:42:27Z</time>
      </trkpt>
      <trkpt lat="45.45433" lon="5.80212">
        <ele>638.8</ele>
        <time>2016-05-21T09:42:28Z</time>
      </trkpt>
      <trkpt lat="45.4542" lon="5.80208">
        <ele>635.8</ele>
        <time>2016-05-21T09:42:29Z</time>
      </trkpt>
      <trkpt lat="45.45408" lon="5.80203">
        <ele>632.3</ele>
        <time>2016-05-21T09:42:30Z</time>
      </trkpt>
      <trkpt lat="45.45397" lon="5.80197">
        <ele>628.2</ele>
        <time>2016-05-21T09:42:31Z</time>
      </trkpt>
      <trkpt lat="45.45386" lon="5.80189">
        <ele>624.4</ele>
        <time>2016-05-21T09:42:32Z</time>
      </trkpt>
      <trkpt lat="45.45376" lon="5.80179">
        <ele>621.8</ele>
        <time>2016-05-21T09:42:33Z</time>
      </trkpt>
      <trkpt lat="45.45367" lon="5.80168">
        <ele>620.1</ele>
        <time>2016-05-21T09:42:34Z</time>
      </trkpt>
      <trkpt lat="45.45358" lon="5.80158">
        <ele>617.8</ele>
        <time>2016-05-21T09:42:35Z</time>
      </trkpt>
      <trkpt lat="45.45349" lon="5.80146">
        <ele>616.1</ele>
        <time>2016-05-21T09:42:36Z</time>
      </trkpt>
      <trkpt lat="45.45341" lon="5.80133">
        <ele>614.5</ele>
        <time>2016-05-21T09:42:37Z</time>
      </trkpt>
      <trkpt lat="45.45333" lon="5.8012">
        <ele>613.8</ele>
        <time>2016-05-21T09:42:38Z</time>
      </trkpt>
      <trkpt lat="45.45326" lon="5.80107">
        <ele>613.3</ele>
        <time>2016-05-21T09:42:39Z</time>
      </trkpt>
      <trkpt lat="45.45322" lon="5.80092">
        <ele>613.8</ele>
        <time>2016-05-21T09:42:40Z</time>
      </trkpt>
      <trkpt lat="45.45317" lon="5.80076">
        <ele>613.9</ele>
        <time>2016-05-21T09:42:41Z</time>
      </trkpt>
      <trkpt lat="45.45312" lon="5.80061">
        <ele>613.9</ele>
        <time>2016-05-21T09:42:42Z</time>
      </trkpt>
      <trkpt lat="45.45308" lon="5.80046">
        <ele>614.2</ele>
        <time>2016-05-21T09:42:43Z</time>
      </trkpt>
      <trkpt lat="45.45304" lon="5.80031">
        <ele>614.9</ele>
        <time>2016-05-21T09:42:44Z</time>
      </trkpt>
      <trkpt lat="45.45301" lon="5.80015">
        <ele>615.4</ele>
        <time>2016-05-21T09:42:45Z</time>
      </trkpt>
      <trkpt lat="45.45299" lon="5.79999">
        <ele>616.2</ele>
        <time>2016-05-21T09:42:46Z</time>
      </trkpt>
      <trkpt lat="45.45297" lon="5.79983">
        <ele>617.1</ele>
        <time>2016-05-21T09:42:47Z</time>
      </trkpt>
      <trkpt lat="45.45296" lon="5.79967">
        <ele>617.6</ele>
        <time>2016-05-21T09:42:48Z</time>
      </trkpt>
      <trkpt lat="45.45296" lon="5.7995">
        <ele>618.3</ele>
        <time>2016-05-21T09:42:49Z</time>
      </trkpt>
      <trkpt lat="45.45299" lon="5.79933">
        <ele>618.8</ele>
        <time>2016-05-21T09:42:50Z</time>
      </trkpt>
      <trkpt lat="45.45301" lon="5.79916">
        <ele>618.9</ele>
        <time>2016-05-21T09:42:51Z</time>
      </trkpt>
      <trkpt lat="45.45304" lon="5.799">
        <ele>619.2</ele>
        <time>2016-05-21T09:42:52Z</time>
      </trkpt>
      <trkpt lat="45.45308" lon="5.79883">
        <ele>618.9</ele>
        <time>2016-05-21T09:42:53Z</time>
      </trkpt>
      <trkpt lat="45.45313" lon="5.79867">
        <ele>618.3</ele>
        <time>2016-05-21T09:42:54Z</time>
      </trkpt>
      <trkpt lat="45.4532" lon="5.79853">
        <ele>617.8</ele>
        <time>2016-05-21T09:42:55Z</time>
      </trkpt>
      <trkpt lat="45.45326" lon="5.79839">
        <ele>617.2</ele>
        <time>2016-05-21T09:42:56Z</time>
      </trkpt>
      <trkpt lat="45.45333" lon="5.79825">
        <ele>616.2</ele>
        <time>2016-05-21T09:42:57Z</time>
      </trkpt>
      <trkpt lat="45.45339" lon="5.79811">
        <ele>616.1</ele>
        <time>2016-05-21T09:42:58Z</time>
      </trkpt>
      <trkpt lat="45.45346" lon="5.79798">
        <ele>615.6</ele>
        <time>2016-05-21T09:42:59Z</time>
      </trkpt>
      <trkpt lat="45.45353" lon="5.79784">
        <ele>615</ele>
        <time>2016-05-21T09:43:00Z</time>
      </trkpt>
      <trkpt lat="45.45361" lon="5.79771">
        <ele>613.5</ele>
        <time>2016-05-21T09:43:01Z</time>
      </trkpt>
      <trkpt lat="45.45369" lon="5.79758">
        <ele>612.4</ele>
        <time>2016-05-21T09:43:02Z</time>
      </trkpt>
      <trkpt lat="45.45376" lon="5.79745">
        <ele>611.7</ele>
        <time>2016-05-21T09:43:03Z</time>
      </trkpt>
      <trkpt lat="45.45384" lon="5.79732">
        <ele>611.1</ele>
        <time>2016-05-21T09:43:04Z</time>
      </trkpt>
      <trkpt lat="45.45392" lon="5.7972">
        <ele>610.3</ele>
        <time>2016-05-21T09:43:05Z</time>
      </trkpt>
      <trkpt lat="45.454" lon="5.79707">
        <ele>608.8</ele>
        <time>2016-05-21T09:43:06Z</time>
      </trkpt>
      <trkpt lat="45.45407" lon="5.79694">
        <ele>607.1</ele>
        <time>2016-05-21T09:43:07Z</time>
      </trkpt>
      <trkpt lat="45.45414" lon="5.79681">
        <ele>605.6</ele>
        <time>2016-05-21T09:43:08Z</time>
      </trkpt>
      <trkpt lat="45.45421" lon="5.79667">
        <ele>604.2</ele>
        <time>2016-05-21T09:43:09Z</time>
      </trkpt>
      <trkpt lat="45.45425" lon="5.79651">
        <ele>603.3</ele>
        <time>2016-05-21T09:43:10Z</time>
      </trkpt>
      <trkpt lat="45.45429" lon="5.79636">
        <ele>603.7</ele>
        <time>2016-05-21T09:43:11Z</time>
      </trkpt>
      <trkpt lat="45.45432" lon="5.79621">
        <ele>603.8</ele>
        <time>2016-05-21T09:43:12Z</time>
      </trkpt>
      <trkpt lat="45.45435" lon="5.79605">
        <ele>604.2</ele>
        <time>2016-05-21T09:43:13Z</time>
      </trkpt>
      <trkpt lat="45.45437" lon="5.7959">
        <ele>604.8</ele>
        <time>2016-05-21T09:43:14Z</time>
      </trkpt>
      <trkpt lat="45.45439" lon="5.79574">
        <ele>604.8</ele>
        <time>2016-05-21T09:43:15Z</time>
      </trkpt>
      <trkpt lat="45.45441" lon="5.79557">
        <ele>605.1</ele>
        <time>2016-05-21T09:43:16Z</time>
      </trkpt>
      <trkpt lat="45.45439" lon="5.79542">
        <ele>604.6</ele>
        <time>2016-05-21T09:43:17Z</time>
      </trkpt>
      <trkpt lat="45.45437" lon="5.79526">
        <ele>604.8</ele>
        <time>2016-05-21T09:43:18Z</time>
      </trkpt>
      <trkpt lat="45.45434" lon="5.79509">
        <ele>605.3</ele>
        <time>2016-05-21T09:43:19Z</time>
      </trkpt>
      <trkpt lat="45.45431" lon="5.79493">
        <ele>605.3</ele>
        <time>2016-05-21T09:43:20Z</time>
      </trkpt>
      <trkpt lat="45.45428" lon="5.7948">
        <ele>605.5</ele>
        <time>2016-05-21T09:43:21Z</time>
      </trkpt>
      <trkpt lat="45.45424" lon="5.79465">
        <ele>605.5</ele>
        <time>2016-05-21T09:43:22Z</time>
      </trkpt>
      <trkpt lat="45.4542" lon="5.79449">
        <ele>604.9</ele>
        <time>2016-05-21T09:43:23Z</time>
      </trkpt>
      <trkpt lat="45.45416" lon="5.79435">
        <ele>603.9</ele>
        <time>2016-05-21T09:43:24Z</time>
      </trkpt>
      <trkpt lat="45.4541" lon="5.79421">
        <ele>603.7</ele>
        <time>2016-05-21T09:43:25Z</time>
      </trkpt>
      <trkpt lat="45.45405" lon="5.79409">
        <ele>603.4</ele>
        <time>2016-05-21T09:43:26Z</time>
      </trkpt>
      <trkpt lat="45.45399" lon="5.79397">
        <ele>603.1</ele>
        <time>2016-05-21T09:43:27Z</time>
      </trkpt>
      <trkpt lat="45.45396" lon="5.79383">
        <ele>603</ele>
        <time>2016-05-21T09:43:28Z</time>
      </trkpt>
      <trkpt lat="45.45393" lon="5.79368">
        <ele>602.9</ele>
        <time>2016-05-21T09:43:29Z</time>
      </trkpt>
      <trkpt lat="45.4539" lon="5.79353">
        <ele>602.6</ele>
        <time>2016-05-21T09:43:30Z</time>
      </trkpt>
      <trkpt lat="45.45386" lon="5.79338">
        <ele>602.9</ele>
        <time>2016-05-21T09:43:31Z</time>
      </trkpt>
      <trkpt lat="45.45382" lon="5.79323">
        <ele>602.5</ele>
        <time>2016-05-21T09:43:32Z</time>
      </trkpt>
      <trkpt lat="45.4538" lon="5.79309">
        <ele>602.3</ele>
        <time>2016-05-21T09:43:33Z</time>
      </trkpt>
      <trkpt lat="45.45378" lon="5.79294">
        <ele>602.5</ele>
        <time>2016-05-21T09:43:34Z</time>
      </trkpt>
      <trkpt lat="45.45376" lon="5.7928">
        <ele>603.2</ele>
        <time>2016-05-21T09:43:35Z</time>
      </trkpt>
      <trkpt lat="45.45374" lon="5.79266">
        <ele>604</ele>
        <time>2016-05-21T09:43:36Z</time>
      </trkpt>
      <trkpt lat="45.45372" lon="5.79251">
        <ele>605.2</ele>
        <time>2016-05-21T09:43:37Z</time>
      </trkpt>
      <trkpt lat="45.45371" lon="5.79235">
        <ele>606.4</ele>
        <time>2016-05-21T09:43:38Z</time>
      </trkpt>
      <trkpt lat="45.45369" lon="5.7922">
        <ele>607</ele>
        <time>2016-05-21T09:43:39Z</time>
      </trkpt>
      <trkpt lat="45.45367" lon="5.79205">
        <ele>606.2</ele>
        <time>2016-05-21T09:43:40Z</time>
      </trkpt>
      <trkpt lat="45.45365" lon="5.79189">
        <ele>605.5</ele>
        <time>2016-05-21T09:43:41Z</time>
      </trkpt>
      <trkpt lat="45.45361" lon="5.79176">
        <ele>604.5</ele>
        <time>2016-05-21T09:43:42Z</time>
      </trkpt>
      <trkpt lat="45.45405" lon="5.78808">
        <ele>593.4</ele>
        <time>2016-05-21T09:44:08Z</time>
      </trkpt>
      <trkpt lat="45.45413" lon="5.78821">
        <ele>589.8</ele>
        <time>2016-05-21T09:44:09Z</time>
      </trkpt>
      <trkpt lat="45.45424" lon="5.78815">
        <ele>587.5</ele>
        <time>2016-05-21T09:44:10Z</time>
      </trkpt>
      <trkpt lat="45.45436" lon="5.78817">
        <ele>586.9</ele>
        <time>2016-05-21T09:44:11Z</time>
      </trkpt>
      <trkpt lat="45.45449" lon="5.78822">
        <ele>586.2</ele>
        <time>2016-05-21T09:44:12Z</time>
      </trkpt>
      <trkpt lat="45.45464" lon="5.7883">
        <ele>584.9</ele>
        <time>2016-05-21T09:44:13Z</time>
      </trkpt>
      <trkpt lat="45.45477" lon="5.78833">
        <ele>584.3</ele>
        <time>2016-05-21T09:44:14Z</time>
      </trkpt>
      <trkpt lat="45.45494" lon="5.78837">
        <ele>583.4</ele>
        <time>2016-05-21T09:44:15Z</time>
      </trkpt>
      <trkpt lat="45.4551" lon="5.78835">
        <ele>581.3</ele>
        <time>2016-05-21T09:44:16Z</time>
      </trkpt>
      <trkpt lat="45.45525" lon="5.78828">
        <ele>579.4</ele>
        <time>2016-05-21T09:44:17Z</time>
      </trkpt>
      <trkpt lat="45.45537" lon="5.78816">
        <ele>577.9</ele>
        <time>2016-05-21T09:44:18Z</time>
      </trkpt>
      <trkpt lat="45.45549" lon="5.78807">
        <ele>576.3</ele>
        <time>2016-05-21T09:44:19Z</time>
      </trkpt>
      <trkpt lat="45.4556" lon="5.78795">
        <ele>575.1</ele>
        <time>2016-05-21T09:44:20Z</time>
      </trkpt>
      <trkpt lat="45.45573" lon="5.78781">
        <ele>573.4</ele>
        <time>2016-05-21T09:44:21Z</time>
      </trkpt>
      <trkpt lat="45.45584" lon="5.7877">
        <ele>571.5</ele>
        <time>2016-05-21T09:44:22Z</time>
      </trkpt>
      <trkpt lat="45.45595" lon="5.78761">
        <ele>570.4</ele>
        <time>2016-05-21T09:44:23Z</time>
      </trkpt>
      <trkpt lat="45.45606" lon="5.78754">
        <ele>569.2</ele>
        <time>2016-05-21T09:44:24Z</time>
      </trkpt>
      <trkpt lat="45.45616" lon="5.78747">
        <ele>567.7</ele>
        <time>2016-05-21T09:44:25Z</time>
      </trkpt>
      <trkpt lat="45.45629" lon="5.78741">
        <ele>566.5</ele>
        <time>2016-05-21T09:44:26Z</time>
      </trkpt>
      <trkpt lat="45.4564" lon="5.78741">
        <ele>565.1</ele>
        <time>2016-05-21T09:44:27Z</time>
      </trkpt>
      <trkpt lat="45.45652" lon="5.78732">
        <ele>564</ele>
        <time>2016-05-21T09:44:28Z</time>
      </trkpt>
      <trkpt lat="45.45662" lon="5.78716">
        <ele>563.2</ele>
        <time>2016-05-21T09:44:29Z</time>
      </trkpt>
      <trkpt lat="45.45673" lon="5.78698">
        <ele>562.6</ele>
        <time>2016-05-21T09:44:30Z</time>
      </trkpt>
      <trkpt lat="45.45684" lon="5.78679">
        <ele>562.1</ele>
        <time>2016-05-21T09:44:31Z</time>
      </trkpt>
      <trkpt lat="45.4569" lon="5.78659">
        <ele>561.3</ele>
        <time>2016-05-21T09:44:32Z</time>
      </trkpt>
      <trkpt lat="45.45695" lon="5.78642">
        <ele>561</ele>
        <time>2016-05-21T09:44:33Z</time>
      </trkpt>
      <trkpt lat="45.45698" lon="5.78622">
        <ele>560.6</ele>
        <time>2016-05-21T09:44:34Z</time>
      </trkpt>
      <trkpt lat="45.457" lon="5.78603">
        <ele>560.2</ele>
        <time>2016-05-21T09:44:35Z</time>
      </trkpt>
      <trkpt lat="45.45699" lon="5.78585">
        <ele>560.2</ele>
        <time>2016-05-21T09:44:36Z</time>
      </trkpt>
      <trkpt lat="45.45697" lon="5.78567">
        <ele>559.6</ele>
        <time>2016-05-21T09:44:37Z</time>
      </trkpt>
      <trkpt lat="45.45692" lon="5.7855">
        <ele>558.9</ele>
        <time>2016-05-21T09:44:38Z</time>
      </trkpt>
      <trkpt lat="45.45688" lon="5.78533">
        <ele>557.6</ele>
        <time>2016-05-21T09:44:39Z</time>
      </trkpt>
      <trkpt lat="45.45682" lon="5.78516">
        <ele>556.4</ele>
        <time>2016-05-21T09:44:40Z</time>
      </trkpt>
      <trkpt lat="45.45676" lon="5.785">
        <ele>555.8</ele>
        <time>2016-05-21T09:44:41Z</time>
      </trkpt>
      <trkpt lat="45.4567" lon="5.78483">
        <ele>554.8</ele>
        <time>2016-05-21T09:44:42Z</time>
      </trkpt>
      <trkpt lat="45.45663" lon="5.78466">
        <ele>554.4</ele>
        <time>2016-05-21T09:44:43Z</time>
      </trkpt>
      <trkpt lat="45.45656" lon="5.78449">
        <ele>554.2</ele>
        <time>2016-05-21T09:44:44Z</time>
      </trkpt>
      <trkpt lat="45.45649" lon="5.78431">
        <ele>553.1</ele>
        <time>2016-05-21T09:44:45Z</time>
      </trkpt>
      <trkpt lat="45.45644" lon="5.78416">
        <ele>551.7</ele>
        <time>2016-05-21T09:44:46Z</time>
      </trkpt>
      <trkpt lat="45.45638" lon="5.78398">
        <ele>550.3</ele>
        <time>2016-05-21T09:44:47Z</time>
      </trkpt>
      <trkpt lat="45.45632" lon="5.78379">
        <ele>549.6</ele>
        <time>2016-05-21T09:44:48Z</time>
      </trkpt>
      <trkpt lat="45.45627" lon="5.7836">
        <ele>548.9</ele>
        <time>2016-05-21T09:44:49Z</time>
      </trkpt>
      <trkpt lat="45.45622" lon="5.78344">
        <ele>548.1</ele>
        <time>2016-05-21T09:44:50Z</time>
      </trkpt>
      <trkpt lat="45.45618" lon="5.78326">
        <ele>547.3</ele>
        <time>2016-05-21T09:44:51Z</time>
      </trkpt>
      <trkpt lat="45.45613" lon="5.78306">
        <ele>547</ele>
        <time>2016-05-21T09:44:52Z</time>
      </trkpt>
      <trkpt lat="45.45609" lon="5.78289">
        <ele>546.7</ele>
        <time>2016-05-21T09:44:53Z</time>
      </trkpt>
      <trkpt lat="45.45605" lon="5.7827">
        <ele>545.8</ele>
        <time>2016-05-21T09:44:54Z</time>
      </trkpt>
      <trkpt lat="45.45601" lon="5.78251">
        <ele>545</ele>
        <time>2016-05-21T09:44:55Z</time>
      </trkpt>
      <trkpt lat="45.45597" lon="5.78232">
        <ele>543.9</ele>
        <time>2016-05-21T09:44:56Z</time>
      </trkpt>
      <trkpt lat="45.45592" lon="5.78212">
        <ele>542.8</ele>
        <time>2016-05-21T09:44:57Z</time>
      </trkpt>
      <trkpt lat="45.45588" lon="5.78193">
        <ele>541.7</ele>
        <time>2016-05-21T09:44:58Z</time>
      </trkpt>
      <trkpt lat="45.45584" lon="5.78174">
        <ele>540.9</ele>
        <time>2016-05-21T09:44:59Z</time>
      </trkpt>
      <trkpt lat="45.4558" lon="5.78156">
        <ele>540.6</ele>
        <time>2016-05-21T09:45:00Z</time>
      </trkpt>
      <trkpt lat="45.45576" lon="5.78136">
        <ele>540</ele>
        <time>2016-05-21T09:45:01Z</time>
      </trkpt>
      <trkpt lat="45.45572" lon="5.78119">
        <ele>538.9</ele>
        <time>2016-05-21T09:45:02Z</time>
      </trkpt>
      <trkpt lat="45.45568" lon="5.78102">
        <ele>538</ele>
        <time>2016-05-21T09:45:03Z</time>
      </trkpt>
      <trkpt lat="45.45564" lon="5.78084">
        <ele>536.9</ele>
        <time>2016-05-21T09:45:04Z</time>
      </trkpt>
      <trkpt lat="45.4556" lon="5.78067">
        <ele>535.9</ele>
        <time>2016-05-21T09:45:05Z</time>
      </trkpt>
      <trkpt lat="45.45557" lon="5.7805">
        <ele>534.7</ele>
        <time>2016-05-21T09:45:06Z</time>
      </trkpt>
      <trkpt lat="45.45553" lon="5.78032">
        <ele>534</ele>
        <time>2016-05-21T09:45:07Z</time>
      </trkpt>
      <trkpt lat="45.4555" lon="5.78015">
        <ele>533</ele>
        <time>2016-05-21T09:45:08Z</time>
      </trkpt>
      <trkpt lat="45.45547" lon="5.77996">
        <ele>532.3</ele>
        <time>2016-05-21T09:45:09Z</time>
      </trkpt>
      <trkpt lat="45.45544" lon="5.77977">
        <ele>531.4</ele>
        <time>2016-05-21T09:45:10Z</time>
      </trkpt>
      <trkpt lat="45.45542" lon="5.77958">
        <ele>530.9</ele>
        <time>2016-05-21T09:45:11Z</time>
      </trkpt>
      <trkpt lat="45.4554" lon="5.77938">
        <ele>530.5</ele>
        <time>2016-05-21T09:45:12Z</time>
      </trkpt>
      <trkpt lat="45.45539" lon="5.77919">
        <ele>530.3</ele>
        <time>2016-05-21T09:45:13Z</time>
      </trkpt>
      <trkpt lat="45.45538" lon="5.77898">
        <ele>529.8</ele>
        <time>2016-05-21T09:45:14Z</time>
      </trkpt>
      <trkpt lat="45.45537" lon="5.77877">
        <ele>529.6</ele>
        <time>2016-05-21T09:45:15Z</time>
      </trkpt>
      <trkpt lat="45.45537" lon="5.7786">
        <ele>529.1</ele>
        <time>2016-05-21T09:45:16Z</time>
      </trkpt>
      <trkpt lat="45.45536" lon="5.77842">
        <ele>528.6</ele>
        <time>2016-05-21T09:45:17Z</time>
      </trkpt>
      <trkpt lat="45.45536" lon="5.77825">
        <ele>528.4</ele>
        <time>2016-05-21T09:45:18Z</time>
      </trkpt>
      <trkpt lat="45.45536" lon="5.77808">
        <ele>527.6</ele>
        <time>2016-05-21T09:45:19Z</time>
      </trkpt>
      <trkpt lat="45.45536" lon="5.7779">
        <ele>526.2</ele>
        <time>2016-05-21T09:45:20Z</time>
      </trkpt>
      <trkpt lat="45.45535" lon="5.77772">
        <ele>524.8</ele>
        <time>2016-05-21T09:45:21Z</time>
      </trkpt>
      <trkpt lat="45.45531" lon="5.77754">
        <ele>523.3</ele>
        <time>2016-05-21T09:45:22Z</time>
      </trkpt>
      <trkpt lat="45.45527" lon="5.77737">
        <ele>521.9</ele>
        <time>2016-05-21T09:45:23Z</time>
      </trkpt>
      <trkpt lat="45.45521" lon="5.77719">
        <ele>521.1</ele>
        <time>2016-05-21T09:45:24Z</time>
      </trkpt>
      <trkpt lat="45.45516" lon="5.77702">
        <ele>520.8</ele>
        <time>2016-05-21T09:45:25Z</time>
      </trkpt>
      <trkpt lat="45.45512" lon="5.77684">
        <ele>520.7</ele>
        <time>2016-05-21T09:45:26Z</time>
      </trkpt>
      <trkpt lat="45.45507" lon="5.77667">
        <ele>520.4</ele>
        <time>2016-05-21T09:45:27Z</time>
      </trkpt>
      <trkpt lat="45.45505" lon="5.77651">
        <ele>520</ele>
        <time>2016-05-21T09:45:28Z</time>
      </trkpt>
      <trkpt lat="45.45504" lon="5.77636">
        <ele>519</ele>
        <time>2016-05-21T09:45:29Z</time>
      </trkpt>
      <trkpt lat="45.45506" lon="5.7762">
        <ele>518.1</ele>
        <time>2016-05-21T09:45:30Z</time>
      </trkpt>
      <trkpt lat="45.45508" lon="5.77604">
        <ele>516.8</ele>
        <time>2016-05-21T09:45:31Z</time>
      </trkpt>
      <trkpt lat="45.45511" lon="5.77587">
        <ele>515.5</ele>
        <time>2016-05-21T09:45:32Z</time>
      </trkpt>
      <trkpt lat="45.45515" lon="5.77569">
        <ele>514.8</ele>
        <time>2016-05-21T09:45:33Z</time>
      </trkpt>
      <trkpt lat="45.45519" lon="5.77551">
        <ele>514.5</ele>
        <time>2016-05-21T09:45:34Z</time>
      </trkpt>
      <trkpt lat="45.45523" lon="5.77534">
        <ele>514.6</ele>
        <time>2016-05-21T09:45:35Z</time>
      </trkpt>
      <trkpt lat="45.45527" lon="5.77519">
        <ele>515.2</ele>
        <time>2016-05-21T09:45:36Z</time>
      </trkpt>
      <trkpt lat="45.45531" lon="5.77503">
        <ele>515.4</ele>
        <time>2016-05-21T09:45:37Z</time>
      </trkpt>
      <trkpt lat="45.45535" lon="5.7749">
        <ele>515.5</ele>
        <time>2016-05-21T09:45:38Z</time>
      </trkpt>
      <trkpt lat="45.45538" lon="5.77476">
        <ele>515.2</ele>
        <time>2016-05-21T09:45:39Z</time>
      </trkpt>
      <trkpt lat="45.45541" lon="5.77461">
        <ele>514.7</ele>
        <time>2016-05-21T09:45:40Z</time>
      </trkpt>
      <trkpt lat="45.45544" lon="5.77445">
        <ele>514.4</ele>
        <time>2016-05-21T09:45:41Z</time>
      </trkpt>
      <trkpt lat="45.45546" lon="5.77429">
        <ele>514.2</ele>
        <time>2016-05-21T09:45:42Z</time>
      </trkpt>
      <trkpt lat="45.45546" lon="5.77414">
        <ele>513.4</ele>
        <time>2016-05-21T09:45:43Z</time>
      </trkpt>
      <trkpt lat="45.45546" lon="5.77398">
        <ele>512.3</ele>
        <time>2016-05-21T09:45:44Z</time>
      </trkpt>
      <trkpt lat="45.45545" lon="5.77383">
        <ele>511.2</ele>
        <time>2016-05-21T09:45:45Z</time>
      </trkpt>
      <trkpt lat="45.45542" lon="5.7737">
        <ele>510.1</ele>
        <time>2016-05-21T09:45:46Z</time>
      </trkpt>
      <trkpt lat="45.45539" lon="5.77359">
        <ele>508.7</ele>
        <time>2016-05-21T09:45:47Z</time>
      </trkpt>
      <trkpt lat="45.45532" lon="5.77339">
        <ele>508.9</ele>
        <time>2016-05-21T09:45:49Z</time>
      </trkpt>
      <trkpt lat="45.45528" lon="5.77329">
        <ele>509</ele>
        <time>2016-05-21T09:45:50Z</time>
      </trkpt>
      <trkpt lat="45.45524" lon="5.77318">
        <ele>508.9</ele>
        <time>2016-05-21T09:45:51Z</time>
      </trkpt>
      <trkpt lat="45.4552" lon="5.77308">
        <ele>508.1</ele>
        <time>2016-05-21T09:45:52Z</time>
      </trkpt>
      <trkpt lat="45.45516" lon="5.77298">
        <ele>507.1</ele>
        <time>2016-05-21T09:45:53Z</time>
      </trkpt>
      <trkpt lat="45.45512" lon="5.77286">
        <ele>506.2</ele>
        <time>2016-05-21T09:45:54Z</time>
      </trkpt>
      <trkpt lat="45.45508" lon="5.77276">
        <ele>505.8</ele>
        <time>2016-05-21T09:45:55Z</time>
      </trkpt>
      <trkpt lat="45.45504" lon="5.77264">
        <ele>505.4</ele>
        <time>2016-05-21T09:45:56Z</time>
      </trkpt>
      <trkpt lat="45.45499" lon="5.77251">
        <ele>505.5</ele>
        <time>2016-05-21T09:45:57Z</time>
      </trkpt>
      <trkpt lat="45.45495" lon="5.77239">
        <ele>505</ele>
        <time>2016-05-21T09:45:58Z</time>
      </trkpt>
      <trkpt lat="45.45491" lon="5.77228">
        <ele>504.6</ele>
        <time>2016-05-21T09:45:59Z</time>
      </trkpt>
      <trkpt lat="45.45487" lon="5.77215">
        <ele>504.4</ele>
        <time>2016-05-21T09:46:00Z</time>
      </trkpt>
      <trkpt lat="45.45482" lon="5.77202">
        <ele>504.3</ele>
        <time>2016-05-21T09:46:01Z</time>
      </trkpt>
      <trkpt lat="45.45477" lon="5.77189">
        <ele>504.4</ele>
        <time>2016-05-21T09:46:02Z</time>
      </trkpt>
      <trkpt lat="45.45473" lon="5.77177">
        <ele>504.5</ele>
        <time>2016-05-21T09:46:03Z</time>
      </trkpt>
      <trkpt lat="45.45468" lon="5.77163">
        <ele>504.4</ele>
        <time>2016-05-21T09:46:04Z</time>
      </trkpt>
      <trkpt lat="45.45464" lon="5.7715">
        <ele>502.9</ele>
        <time>2016-05-21T09:46:05Z</time>
      </trkpt>
      <trkpt lat="45.45459" lon="5.77137">
        <ele>500.8</ele>
        <time>2016-05-21T09:46:06Z</time>
      </trkpt>
      <trkpt lat="45.45454" lon="5.77125">
        <ele>498.3</ele>
        <time>2016-05-21T09:46:07Z</time>
      </trkpt>
      <trkpt lat="45.45448" lon="5.77113">
        <ele>495.9</ele>
        <time>2016-05-21T09:46:08Z</time>
      </trkpt>
      <trkpt lat="45.45442" lon="5.77102">
        <ele>493.8</ele>
        <time>2016-05-21T09:46:09Z</time>
      </trkpt>
      <trkpt lat="45.45435" lon="5.77089">
        <ele>492.4</ele>
        <time>2016-05-21T09:46:10Z</time>
      </trkpt>
      <trkpt lat="45.45427" lon="5.77079">
        <ele>491.7</ele>
        <time>2016-05-21T09:46:11Z</time>
      </trkpt>
      <trkpt lat="45.45419" lon="5.77067">
        <ele>491.4</ele>
        <time>2016-05-21T09:46:12Z</time>
      </trkpt>
      <trkpt lat="45.4541" lon="5.77057">
        <ele>491.1</ele>
        <time>2016-05-21T09:46:13Z</time>
      </trkpt>
      <trkpt lat="45.45402" lon="5.77048">
        <ele>490.6</ele>
        <time>2016-05-21T09:46:14Z</time>
      </trkpt>
      <trkpt lat="45.45393" lon="5.77038">
        <ele>491</ele>
        <time>2016-05-21T09:46:15Z</time>
      </trkpt>
      <trkpt lat="45.45384" lon="5.77028">
        <ele>490.9</ele>
        <time>2016-05-21T09:46:16Z</time>
      </trkpt>
      <trkpt lat="45.45375" lon="5.77019">
        <ele>490.7</ele>
        <time>2016-05-21T09:46:17Z</time>
      </trkpt>
      <trkpt lat="45.45366" lon="5.77009">
        <ele>490.1</ele>
        <time>2016-05-21T09:46:18Z</time>
      </trkpt>
      <trkpt lat="45.45356" lon="5.76999">
        <ele>489.5</ele>
        <time>2016-05-21T09:46:19Z</time>
      </trkpt>
      <trkpt lat="45.45348" lon="5.7699">
        <ele>488.9</ele>
        <time>2016-05-21T09:46:20Z</time>
      </trkpt>
      <trkpt lat="45.45337" lon="5.76979">
        <ele>488.5</ele>
        <time>2016-05-21T09:46:21Z</time>
      </trkpt>
      <trkpt lat="45.45327" lon="5.76969">
        <ele>488.2</ele>
        <time>2016-05-21T09:46:22Z</time>
      </trkpt>
      <trkpt lat="45.45316" lon="5.76958">
        <ele>487.9</ele>
        <time>2016-05-21T09:46:23Z</time>
      </trkpt>
      <trkpt lat="45.45306" lon="5.76947">
        <ele>487.6</ele>
        <time>2016-05-21T09:46:24Z</time>
      </trkpt>
      <trkpt lat="45.45295" lon="5.76937">
        <ele>487.6</ele>
        <time>2016-05-21T09:46:25Z</time>
      </trkpt>
      <trkpt lat="45.45286" lon="5.76927">
        <ele>487.4</ele>
        <time>2016-05-21T09:46:26Z</time>
      </trkpt>
      <trkpt lat="45.45274" lon="5.76916">
        <ele>486.4</ele>
        <time>2016-05-21T09:46:27Z</time>
      </trkpt>
      <trkpt lat="45.45264" lon="5.76906">
        <ele>484.9</ele>
        <time>2016-05-21T09:46:28Z</time>
      </trkpt>
      <trkpt lat="45.45253" lon="5.76896">
        <ele>484.1</ele>
        <time>2016-05-21T09:46:29Z</time>
      </trkpt>
      <trkpt lat="45.45243" lon="5.76885">
        <ele>483.8</ele>
        <time>2016-05-21T09:46:30Z</time>
      </trkpt>
      <trkpt lat="45.45234" lon="5.76875">
        <ele>483.5</ele>
        <time>2016-05-21T09:46:31Z</time>
      </trkpt>
      <trkpt lat="45.45223" lon="5.76865">
        <ele>483</ele>
        <time>2016-05-21T09:46:32Z</time>
      </trkpt>
      <trkpt lat="45.45214" lon="5.76854">
        <ele>482.2</ele>
        <time>2016-05-21T09:46:33Z</time>
      </trkpt>
      <trkpt lat="45.45204" lon="5.76844">
        <ele>481.2</ele>
        <time>2016-05-21T09:46:34Z</time>
      </trkpt>
      <trkpt lat="45.45194" lon="5.76834">
        <ele>480.2</ele>
        <time>2016-05-21T09:46:35Z</time>
      </trkpt>
      <trkpt lat="45.45184" lon="5.76824">
        <ele>479.4</ele>
        <time>2016-05-21T09:46:36Z</time>
      </trkpt>
      <trkpt lat="45.45174" lon="5.76814">
        <ele>478.6</ele>
        <time>2016-05-21T09:46:37Z</time>
      </trkpt>
      <trkpt lat="45.45166" lon="5.76805">
        <ele>478.2</ele>
        <time>2016-05-21T09:46:38Z</time>
      </trkpt>
      <trkpt lat="45.45157" lon="5.76795">
        <ele>478</ele>
        <time>2016-05-21T09:46:39Z</time>
      </trkpt>
      <trkpt lat="45.45147" lon="5.76786">
        <ele>477.6</ele>
        <time>2016-05-21T09:46:40Z</time>
      </trkpt>
      <trkpt lat="45.45138" lon="5.76776">
        <ele>477.3</ele>
        <time>2016-05-21T09:46:41Z</time>
      </trkpt>
      <trkpt lat="45.45128" lon="5.76767">
        <ele>476.4</ele>
        <time>2016-05-21T09:46:42Z</time>
      </trkpt>
      <trkpt lat="45.45119" lon="5.76757">
        <ele>475.1</ele>
        <time>2016-05-21T09:46:43Z</time>
      </trkpt>
      <trkpt lat="45.4511" lon="5.76749">
        <ele>474.5</ele>
        <time>2016-05-21T09:46:44Z</time>
      </trkpt>
      <trkpt lat="45.45102" lon="5.76741">
        <ele>474.4</ele>
        <time>2016-05-21T09:46:45Z</time>
      </trkpt>
      <trkpt lat="45.45092" lon="5.76731">
        <ele>474.1</ele>
        <time>2016-05-21T09:46:46Z</time>
      </trkpt>
      <trkpt lat="45.45083" lon="5.76722">
        <ele>473.7</ele>
        <time>2016-05-21T09:46:47Z</time>
      </trkpt>
      <trkpt lat="45.45074" lon="5.76713">
        <ele>473.3</ele>
        <time>2016-05-21T09:46:48Z</time>
      </trkpt>
      <trkpt lat="45.45065" lon="5.76703">
        <ele>473</ele>
        <time>2016-05-21T09:46:49Z</time>
      </trkpt>
      <trkpt lat="45.45056" lon="5.76694">
        <ele>472.7</ele>
        <time>2016-05-21T09:46:50Z</time>
      </trkpt>
      <trkpt lat="45.45045" lon="5.76685">
        <ele>472.6</ele>
        <time>2016-05-21T09:46:51Z</time>
      </trkpt>
      <trkpt lat="45.45036" lon="5.76676">
        <ele>472.5</ele>
        <time>2016-05-21T09:46:52Z</time>
      </trkpt>
      <trkpt lat="45.45027" lon="5.76668">
        <ele>472.2</ele>
        <time>2016-05-21T09:46:53Z</time>
      </trkpt>
      <trkpt lat="45.45018" lon="5.7666">
        <ele>471.8</ele>
        <time>2016-05-21T09:46:54Z</time>
      </trkpt>
      <trkpt lat="45.4501" lon="5.76652">
        <ele>471.2</ele>
        <time>2016-05-21T09:46:55Z</time>
      </trkpt>
      <trkpt lat="45.45001" lon="5.76645">
        <ele>471.1</ele>
        <time>2016-05-21T09:46:56Z</time>
      </trkpt>
      <trkpt lat="45.44993" lon="5.76638">
        <ele>471</ele>
        <time>2016-05-21T09:46:57Z</time>
      </trkpt>
      <trkpt lat="45.44985" lon="5.76631">
        <ele>471.3</ele>
        <time>2016-05-21T09:46:58Z</time>
      </trkpt>
      <trkpt lat="45.44975" lon="5.76622">
        <ele>471.9</ele>
        <time>2016-05-21T09:46:59Z</time>
      </trkpt>
      <trkpt lat="45.44966" lon="5.76615">
        <ele>471.6</ele>
        <time>2016-05-21T09:47:00Z</time>
      </trkpt>
      <trkpt lat="45.44955" lon="5.76608">
        <ele>471</ele>
        <time>2016-05-21T09:47:01Z</time>
      </trkpt>
      <trkpt lat="45.44945" lon="5.766">
        <ele>469.8</ele>
        <time>2016-05-21T09:47:02Z</time>
      </trkpt>
      <trkpt lat="45.44935" lon="5.76592">
        <ele>469</ele>
        <time>2016-05-21T09:47:03Z</time>
      </trkpt>
      <trkpt lat="45.44924" lon="5.76584">
        <ele>468.7</ele>
        <time>2016-05-21T09:47:04Z</time>
      </trkpt>
      <trkpt lat="45.44913" lon="5.76576">
        <ele>468.1</ele>
        <time>2016-05-21T09:47:05Z</time>
      </trkpt>
      <trkpt lat="45.44903" lon="5.76568">
        <ele>467.3</ele>
        <time>2016-05-21T09:47:06Z</time>
      </trkpt>
      <trkpt lat="45.44893" lon="5.76562">
        <ele>466.3</ele>
        <time>2016-05-21T09:47:07Z</time>
      </trkpt>
      <trkpt lat="45.44883" lon="5.76555">
        <ele>465.2</ele>
        <time>2016-05-21T09:47:08Z</time>
      </trkpt>
      <trkpt lat="45.44873" lon="5.76549">
        <ele>464.4</ele>
        <time>2016-05-21T09:47:09Z</time>
      </trkpt>
      <trkpt lat="45.44863" lon="5.76541">
        <ele>463.8</ele>
        <time>2016-05-21T09:47:10Z</time>
      </trkpt>
      <trkpt lat="45.44852" lon="5.76534">
        <ele>463.4</ele>
        <time>2016-05-21T09:47:11Z</time>
      </trkpt>
      <trkpt lat="45.44841" lon="5.76527">
        <ele>463.3</ele>
        <time>2016-05-21T09:47:12Z</time>
      </trkpt>
      <trkpt lat="45.44829" lon="5.76519">
        <ele>463.3</ele>
        <time>2016-05-21T09:47:13Z</time>
      </trkpt>
      <trkpt lat="45.44818" lon="5.76512">
        <ele>463.4</ele>
        <time>2016-05-21T09:47:14Z</time>
      </trkpt>
      <trkpt lat="45.44807" lon="5.76504">
        <ele>463.3</ele>
        <time>2016-05-21T09:47:15Z</time>
      </trkpt>
      <trkpt lat="45.44797" lon="5.76497">
        <ele>463.4</ele>
        <time>2016-05-21T09:47:16Z</time>
      </trkpt>
      <trkpt lat="45.44785" lon="5.76489">
        <ele>463.6</ele>
        <time>2016-05-21T09:47:17Z</time>
      </trkpt>
      <trkpt lat="45.44773" lon="5.7648">
        <ele>463.7</ele>
        <time>2016-05-21T09:47:18Z</time>
      </trkpt>
      <trkpt lat="45.44763" lon="5.76472">
        <ele>463.3</ele>
        <time>2016-05-21T09:47:19Z</time>
      </trkpt>
      <trkpt lat="45.44751" lon="5.76463">
        <ele>462.9</ele>
        <time>2016-05-21T09:47:20Z</time>
      </trkpt>
      <trkpt lat="45.44739" lon="5.76454">
        <ele>462.1</ele>
        <time>2016-05-21T09:47:21Z</time>
      </trkpt>
      <trkpt lat="45.44728" lon="5.76446">
        <ele>461.3</ele>
        <time>2016-05-21T09:47:22Z</time>
      </trkpt>
      <trkpt lat="45.44718" lon="5.76437">
        <ele>460.4</ele>
        <time>2016-05-21T09:47:23Z</time>
      </trkpt>
      <trkpt lat="45.44708" lon="5.76429">
        <ele>460.5</ele>
        <time>2016-05-21T09:47:24Z</time>
      </trkpt>
      <trkpt lat="45.44697" lon="5.76422">
        <ele>460.3</ele>
        <time>2016-05-21T09:47:25Z</time>
      </trkpt>
      <trkpt lat="45.44688" lon="5.76415">
        <ele>459.8</ele>
        <time>2016-05-21T09:47:26Z</time>
      </trkpt>
      <trkpt lat="45.44679" lon="5.76409">
        <ele>459.5</ele>
        <time>2016-05-21T09:47:27Z</time>
      </trkpt>
      <trkpt lat="45.4467" lon="5.76403">
        <ele>459.5</ele>
        <time>2016-05-21T09:47:28Z</time>
      </trkpt>
      <trkpt lat="45.44661" lon="5.76397">
        <ele>459.3</ele>
        <time>2016-05-21T09:47:29Z</time>
      </trkpt>
      <trkpt lat="45.44651" lon="5.76392">
        <ele>459.1</ele>
        <time>2016-05-21T09:47:30Z</time>
      </trkpt>
      <trkpt lat="45.44642" lon="5.76387">
        <ele>458.9</ele>
        <time>2016-05-21T09:47:31Z</time>
      </trkpt>
      <trkpt lat="45.44632" lon="5.76383">
        <ele>459.2</ele>
        <time>2016-05-21T09:47:32Z</time>
      </trkpt>
      <trkpt lat="45.44622" lon="5.76379">
        <ele>459.4</ele>
        <time>2016-05-21T09:47:33Z</time>
      </trkpt>
      <trkpt lat="45.44613" lon="5.76373">
        <ele>459.4</ele>
        <time>2016-05-21T09:47:34Z</time>
      </trkpt>
      <trkpt lat="45.44605" lon="5.76368">
        <ele>459.5</ele>
        <time>2016-05-21T09:47:35Z</time>
      </trkpt>
      <trkpt lat="45.44598" lon="5.76364">
        <ele>458.9</ele>
        <time>2016-05-21T09:47:36Z</time>
      </trkpt>
      <trkpt lat="45.4459" lon="5.76366">
        <ele>458.4</ele>
        <time>2016-05-21T09:47:37Z</time>
      </trkpt>
      <trkpt lat="45.44583" lon="5.76371">
        <ele>458.6</ele>
        <time>2016-05-21T09:47:38Z</time>
      </trkpt>
      <trkpt lat="45.44575" lon="5.76378">
        <ele>458.4</ele>
        <time>2016-05-21T09:47:39Z</time>
      </trkpt>
      <trkpt lat="45.44566" lon="5.76382">
        <ele>458.4</ele>
        <time>2016-05-21T09:47:40Z</time>
      </trkpt>
      <trkpt lat="45.44557" lon="5.76385">
        <ele>458.6</ele>
        <time>2016-05-21T09:47:41Z</time>
      </trkpt>
      <trkpt lat="45.44547" lon="5.76387">
        <ele>458.7</ele>
        <time>2016-05-21T09:47:42Z</time>
      </trkpt>
      <trkpt lat="45.44537" lon="5.76387">
        <ele>458.8</ele>
        <time>2016-05-21T09:47:43Z</time>
      </trkpt>
      <trkpt lat="45.44528" lon="5.76387">
        <ele>458.7</ele>
        <time>2016-05-21T09:47:44Z</time>
      </trkpt>
      <trkpt lat="45.44516" lon="5.76386">
        <ele>458.5</ele>
        <time>2016-05-21T09:47:45Z</time>
      </trkpt>
      <trkpt lat="45.44506" lon="5.76385">
        <ele>457.8</ele>
        <time>2016-05-21T09:47:46Z</time>
      </trkpt>
      <trkpt lat="45.44495" lon="5.76385">
        <ele>457.5</ele>
        <time>2016-05-21T09:47:47Z</time>
      </trkpt>
      <trkpt lat="45.44484" lon="5.76384">
        <ele>456.9</ele>
        <time>2016-05-21T09:47:48Z</time>
      </trkpt>
      <trkpt lat="45.44472" lon="5.76384">
        <ele>456.2</ele>
        <time>2016-05-21T09:47:49Z</time>
      </trkpt>
      <trkpt lat="45.44461" lon="5.76383">
        <ele>455.1</ele>
        <time>2016-05-21T09:47:50Z</time>
      </trkpt>
      <trkpt lat="45.4445" lon="5.76383">
        <ele>453.9</ele>
        <time>2016-05-21T09:47:51Z</time>
      </trkpt>
      <trkpt lat="45.44439" lon="5.76383">
        <ele>452.8</ele>
        <time>2016-05-21T09:47:52Z</time>
      </trkpt>
      <trkpt lat="45.44427" lon="5.76383">
        <ele>451.8</ele>
        <time>2016-05-21T09:47:53Z</time>
      </trkpt>
      <trkpt lat="45.44415" lon="5.76384">
        <ele>450.9</ele>
        <time>2016-05-21T09:47:54Z</time>
      </trkpt>
      <trkpt lat="45.44404" lon="5.76385">
        <ele>450.3</ele>
        <time>2016-05-21T09:47:55Z</time>
      </trkpt>
      <trkpt lat="45.44392" lon="5.76387">
        <ele>449.8</ele>
        <time>2016-05-21T09:47:56Z</time>
      </trkpt>
      <trkpt lat="45.44381" lon="5.76388">
        <ele>449.4</ele>
        <time>2016-05-21T09:47:57Z</time>
      </trkpt>
      <trkpt lat="45.4437" lon="5.7639">
        <ele>449.1</ele>
        <time>2016-05-21T09:47:58Z</time>
      </trkpt>
      <trkpt lat="45.44359" lon="5.76392">
        <ele>448.9</ele>
        <time>2016-05-21T09:47:59Z</time>
      </trkpt>
      <trkpt lat="45.44349" lon="5.76394">
        <ele>448.7</ele>
        <time>2016-05-21T09:48:00Z</time>
      </trkpt>
      <trkpt lat="45.44339" lon="5.76396">
        <ele>448.6</ele>
        <time>2016-05-21T09:48:01Z</time>
      </trkpt>
      <trkpt lat="45.44328" lon="5.76399">
        <ele>448.5</ele>
        <time>2016-05-21T09:48:02Z</time>
      </trkpt>
      <trkpt lat="45.44317" lon="5.76402">
        <ele>448.5</ele>
        <time>2016-05-21T09:48:03Z</time>
      </trkpt>
      <trkpt lat="45.44307" lon="5.76406">
        <ele>448.5</ele>
        <time>2016-05-21T09:48:04Z</time>
      </trkpt>
      <trkpt lat="45.44296" lon="5.76409">
        <ele>448.4</ele>
        <time>2016-05-21T09:48:05Z</time>
      </trkpt>
      <trkpt lat="45.44286" lon="5.76413">
        <ele>448.2</ele>
        <time>2016-05-21T09:48:06Z</time>
      </trkpt>
      <trkpt lat="45.44276" lon="5.76416">
        <ele>448.1</ele>
        <time>2016-05-21T09:48:07Z</time>
      </trkpt>
      <trkpt lat="45.44266" lon="5.7642">
        <ele>448.1</ele>
        <time>2016-05-21T09:48:08Z</time>
      </trkpt>
      <trkpt lat="45.44256" lon="5.76424">
        <ele>447.9</ele>
        <time>2016-05-21T09:48:09Z</time>
      </trkpt>
      <trkpt lat="45.44246" lon="5.76428">
        <ele>447.5</ele>
        <time>2016-05-21T09:48:10Z</time>
      </trkpt>
      <trkpt lat="45.44236" lon="5.76432">
        <ele>447.2</ele>
        <time>2016-05-21T09:48:11Z</time>
      </trkpt>
      <trkpt lat="45.44226" lon="5.76436">
        <ele>446.8</ele>
        <time>2016-05-21T09:48:12Z</time>
      </trkpt>
      <trkpt lat="45.44217" lon="5.7644">
        <ele>446.4</ele>
        <time>2016-05-21T09:48:13Z</time>
      </trkpt>
      <trkpt lat="45.44206" lon="5.76444">
        <ele>446.1</ele>
        <time>2016-05-21T09:48:14Z</time>
      </trkpt>
      <trkpt lat="45.44196" lon="5.76448">
        <ele>445.9</ele>
        <time>2016-05-21T09:48:15Z</time>
      </trkpt>
      <trkpt lat="45.44186" lon="5.76451">
        <ele>445.8</ele>
        <time>2016-05-21T09:48:16Z</time>
      </trkpt>
      <trkpt lat="45.44178" lon="5.76455">
        <ele>445.2</ele>
        <time>2016-05-21T09:48:17Z</time>
      </trkpt>
      <trkpt lat="45.44168" lon="5.76458">
        <ele>445</ele>
        <time>2016-05-21T09:48:18Z</time>
      </trkpt>
      <trkpt lat="45.4416" lon="5.76462">
        <ele>444.8</ele>
        <time>2016-05-21T09:48:19Z</time>
      </trkpt>
      <trkpt lat="45.4415" lon="5.76466">
        <ele>444.7</ele>
        <time>2016-05-21T09:48:20Z</time>
      </trkpt>
      <trkpt lat="45.4414" lon="5.7647">
        <ele>444.5</ele>
        <time>2016-05-21T09:48:21Z</time>
      </trkpt>
      <trkpt lat="45.44131" lon="5.76473">
        <ele>444.4</ele>
        <time>2016-05-21T09:48:22Z</time>
      </trkpt>
      <trkpt lat="45.44122" lon="5.76476">
        <ele>444.1</ele>
        <time>2016-05-21T09:48:23Z</time>
      </trkpt>
      <trkpt lat="45.44113" lon="5.7648">
        <ele>443.8</ele>
        <time>2016-05-21T09:48:24Z</time>
      </trkpt>
      <trkpt lat="45.44105" lon="5.76483">
        <ele>443.8</ele>
        <time>2016-05-21T09:48:25Z</time>
      </trkpt>
      <trkpt lat="45.44096" lon="5.76486">
        <ele>444</ele>
        <time>2016-05-21T09:48:26Z</time>
      </trkpt>
      <trkpt lat="45.44087" lon="5.76489">
        <ele>444.3</ele>
        <time>2016-05-21T09:48:27Z</time>
      </trkpt>
      <trkpt lat="45.44078" lon="5.76493">
        <ele>444.5</ele>
        <time>2016-05-21T09:48:28Z</time>
      </trkpt>
      <trkpt lat="45.44068" lon="5.76497">
        <ele>445.1</ele>
        <time>2016-05-21T09:48:29Z</time>
      </trkpt>
      <trkpt lat="45.44058" lon="5.765">
        <ele>445.7</ele>
        <time>2016-05-21T09:48:30Z</time>
      </trkpt>
      <trkpt lat="45.44048" lon="5.76504">
        <ele>446.1</ele>
        <time>2016-05-21T09:48:31Z</time>
      </trkpt>
      <trkpt lat="45.44037" lon="5.76507">
        <ele>446.2</ele>
        <time>2016-05-21T09:48:32Z</time>
      </trkpt>
      <trkpt lat="45.44027" lon="5.7651">
        <ele>445.7</ele>
        <time>2016-05-21T09:48:33Z</time>
      </trkpt>
      <trkpt lat="45.44016" lon="5.76513">
        <ele>445.1</ele>
        <time>2016-05-21T09:48:34Z</time>
      </trkpt>
      <trkpt lat="45.44007" lon="5.76516">
        <ele>444.7</ele>
        <time>2016-05-21T09:48:35Z</time>
      </trkpt>
      <trkpt lat="45.43998" lon="5.76518">
        <ele>444</ele>
        <time>2016-05-21T09:48:36Z</time>
      </trkpt>
      <trkpt lat="45.43989" lon="5.76521">
        <ele>443.4</ele>
        <time>2016-05-21T09:48:37Z</time>
      </trkpt>
      <trkpt lat="45.4398" lon="5.76523">
        <ele>442.8</ele>
        <time>2016-05-21T09:48:38Z</time>
      </trkpt>
      <trkpt lat="45.43971" lon="5.76525">
        <ele>442.6</ele>
        <time>2016-05-21T09:48:39Z</time>
      </trkpt>
      <trkpt lat="45.43963" lon="5.76526">
        <ele>442.8</ele>
        <time>2016-05-21T09:48:40Z</time>
      </trkpt>
      <trkpt lat="45.43954" lon="5.76528">
        <ele>443.2</ele>
        <time>2016-05-21T09:48:41Z</time>
      </trkpt>
      <trkpt lat="45.43945" lon="5.7653">
        <ele>443.5</ele>
        <time>2016-05-21T09:48:42Z</time>
      </trkpt>
      <trkpt lat="45.43936" lon="5.7653">
        <ele>444</ele>
        <time>2016-05-21T09:48:43Z</time>
      </trkpt>
      <trkpt lat="45.43926" lon="5.76532">
        <ele>444.4</ele>
        <time>2016-05-21T09:48:44Z</time>
      </trkpt>
      <trkpt lat="45.43917" lon="5.76533">
        <ele>444.7</ele>
        <time>2016-05-21T09:48:45Z</time>
      </trkpt>
      <trkpt lat="45.43908" lon="5.76535">
        <ele>444.8</ele>
        <time>2016-05-21T09:48:46Z</time>
      </trkpt>
      <trkpt lat="45.439" lon="5.76536">
        <ele>444.7</ele>
        <time>2016-05-21T09:48:47Z</time>
      </trkpt>
      <trkpt lat="45.43891" lon="5.76537">
        <ele>444.7</ele>
        <time>2016-05-21T09:48:48Z</time>
      </trkpt>
      <trkpt lat="45.43883" lon="5.76538">
        <ele>444.5</ele>
        <time>2016-05-21T09:48:49Z</time>
      </trkpt>
      <trkpt lat="45.43866" lon="5.76539">
        <ele>443.3</ele>
        <time>2016-05-21T09:48:51Z</time>
      </trkpt>
      <trkpt lat="45.43856" lon="5.76539">
        <ele>442.7</ele>
        <time>2016-05-21T09:48:52Z</time>
      </trkpt>
      <trkpt lat="45.43848" lon="5.7654">
        <ele>442.4</ele>
        <time>2016-05-21T09:48:53Z</time>
      </trkpt>
      <trkpt lat="45.4384" lon="5.7654">
        <ele>442</ele>
        <time>2016-05-21T09:48:54Z</time>
      </trkpt>
      <trkpt lat="45.43831" lon="5.76541">
        <ele>441.7</ele>
        <time>2016-05-21T09:48:55Z</time>
      </trkpt>
      <trkpt lat="45.43822" lon="5.76542">
        <ele>441.5</ele>
        <time>2016-05-21T09:48:56Z</time>
      </trkpt>
      <trkpt lat="45.43814" lon="5.76542">
        <ele>441.5</ele>
        <time>2016-05-21T09:48:57Z</time>
      </trkpt>
      <trkpt lat="45.43806" lon="5.76544">
        <ele>441.5</ele>
        <time>2016-05-21T09:48:58Z</time>
      </trkpt>
      <trkpt lat="45.43797" lon="5.76545">
        <ele>441.3</ele>
        <time>2016-05-21T09:48:59Z</time>
      </trkpt>
      <trkpt lat="45.43788" lon="5.76545">
        <ele>441.1</ele>
        <time>2016-05-21T09:49:00Z</time>
      </trkpt>
      <trkpt lat="45.4378" lon="5.76546">
        <ele>440.9</ele>
        <time>2016-05-21T09:49:01Z</time>
      </trkpt>
      <trkpt lat="45.43773" lon="5.76546">
        <ele>440.9</ele>
        <time>2016-05-21T09:49:02Z</time>
      </trkpt>
      <trkpt lat="45.43765" lon="5.76547">
        <ele>440.6</ele>
        <time>2016-05-21T09:49:03Z</time>
      </trkpt>
      <trkpt lat="45.43756" lon="5.76548">
        <ele>441.2</ele>
        <time>2016-05-21T09:49:04Z</time>
      </trkpt>
      <trkpt lat="45.43742" lon="5.76549">
        <ele>442.6</ele>
        <time>2016-05-21T09:49:06Z</time>
      </trkpt>
      <trkpt lat="45.43733" lon="5.76549">
        <ele>443.1</ele>
        <time>2016-05-21T09:49:07Z</time>
      </trkpt>
      <trkpt lat="45.43724" lon="5.76549">
        <ele>443.1</ele>
        <time>2016-05-21T09:49:08Z</time>
      </trkpt>
      <trkpt lat="45.43716" lon="5.76549">
        <ele>442.8</ele>
        <time>2016-05-21T09:49:09Z</time>
      </trkpt>
      <trkpt lat="45.43708" lon="5.76549">
        <ele>442</ele>
        <time>2016-05-21T09:49:10Z</time>
      </trkpt>
      <trkpt lat="45.437" lon="5.76549">
        <ele>442.3</ele>
        <time>2016-05-21T09:49:11Z</time>
      </trkpt>
      <trkpt lat="45.43691" lon="5.76549">
        <ele>443.1</ele>
        <time>2016-05-21T09:49:12Z</time>
      </trkpt>
      <trkpt lat="45.43683" lon="5.7655">
        <ele>443.7</ele>
        <time>2016-05-21T09:49:13Z</time>
      </trkpt>
      <trkpt lat="45.43675" lon="5.7655">
        <ele>445.3</ele>
        <time>2016-05-21T09:49:14Z</time>
      </trkpt>
      <trkpt lat="45.43667" lon="5.7655">
        <ele>446.8</ele>
        <time>2016-05-21T09:49:15Z</time>
      </trkpt>
      <trkpt lat="45.43659" lon="5.76551">
        <ele>448</ele>
        <time>2016-05-21T09:49:16Z</time>
      </trkpt>
      <trkpt lat="45.43652" lon="5.76551">
        <ele>447.3</ele>
        <time>2016-05-21T09:49:17Z</time>
      </trkpt>
      <trkpt lat="45.43644" lon="5.76551">
        <ele>446.4</ele>
        <time>2016-05-21T09:49:18Z</time>
      </trkpt>
      <trkpt lat="45.43629" lon="5.76551">
        <ele>445.6</ele>
        <time>2016-05-21T09:49:20Z</time>
      </trkpt>
      <trkpt lat="45.43617" lon="5.76552">
        <ele>445.9</ele>
        <time>2016-05-21T09:49:22Z</time>
      </trkpt>
      <trkpt lat="45.43603" lon="5.76554">
        <ele>445.5</ele>
        <time>2016-05-21T09:49:24Z</time>
      </trkpt>
      <trkpt lat="45.4359" lon="5.76556">
        <ele>444.5</ele>
        <time>2016-05-21T09:49:26Z</time>
      </trkpt>
      <trkpt lat="45.43576" lon="5.76556">
        <ele>444.3</ele>
        <time>2016-05-21T09:49:28Z</time>
      </trkpt>
      <trkpt lat="45.43564" lon="5.76556">
        <ele>444.3</ele>
        <time>2016-05-21T09:49:30Z</time>
      </trkpt>
      <trkpt lat="45.43553" lon="5.76553">
        <ele>444.6</ele>
        <time>2016-05-21T09:49:32Z</time>
      </trkpt>
      <trkpt lat="45.43544" lon="5.76545">
        <ele>444.9</ele>
        <time>2016-05-21T09:49:34Z</time>
      </trkpt>
      <trkpt lat="45.43537" lon="5.76531">
        <ele>444</ele>
        <time>2016-05-21T09:49:36Z</time>
      </trkpt>
      <trkpt lat="45.43534" lon="5.76513">
        <ele>443.7</ele>
        <time>2016-05-21T09:49:38Z</time>
      </trkpt>
      <trkpt lat="45.43537" lon="5.76495">
        <ele>443.2</ele>
        <time>2016-05-21T09:49:40Z</time>
      </trkpt>
      <trkpt lat="45.43544" lon="5.76481">
        <ele>442.9</ele>
        <time>2016-05-21T09:49:42Z</time>
      </trkpt>
      <trkpt lat="45.43552" lon="5.76469">
        <ele>443.1</ele>
        <time>2016-05-21T09:49:44Z</time>
      </trkpt>
      <trkpt lat="45.43562" lon="5.76457">
        <ele>443.8</ele>
        <time>2016-05-21T09:49:46Z</time>
      </trkpt>
      <trkpt lat="45.4357" lon="5.76449">
        <ele>444.5</ele>
        <time>2016-05-21T09:49:48Z</time>
      </trkpt>
      <trkpt lat="45.43578" lon="5.76441">
        <ele>445</ele>
        <time>2016-05-21T09:49:50Z</time>
      </trkpt>
      <trkpt lat="45.43585" lon="5.76433">
        <ele>445.2</ele>
        <time>2016-05-21T09:49:52Z</time>
      </trkpt>
      <trkpt lat="45.43592" lon="5.76422">
        <ele>445.3</ele>
        <time>2016-05-21T09:49:54Z</time>
      </trkpt>
      <trkpt lat="45.4359" lon="5.7641">
        <ele>445.4</ele>
        <time>2016-05-21T09:49:56Z</time>
      </trkpt>
      <trkpt lat="45.43585" lon="5.76402">
        <ele>446.2</ele>
        <time>2016-05-21T09:49:58Z</time>
      </trkpt>
      <trkpt lat="45.43578" lon="5.76391">
        <ele>447.2</ele>
        <time>2016-05-21T09:50:00Z</time>
      </trkpt>
      <trkpt lat="45.43571" lon="5.76379">
        <ele>448.1</ele>
        <time>2016-05-21T09:50:02Z</time>
      </trkpt>
      <trkpt lat="45.43564" lon="5.76366">
        <ele>448.9</ele>
        <time>2016-05-21T09:50:04Z</time>
      </trkpt>
      <trkpt lat="45.43556" lon="5.76352">
        <ele>449</ele>
        <time>2016-05-21T09:50:06Z</time>
      </trkpt>
      <trkpt lat="45.43548" lon="5.76337">
        <ele>448.9</ele>
        <time>2016-05-21T09:50:08Z</time>
      </trkpt>
      <trkpt lat="45.43543" lon="5.76328">
        <ele>449.2</ele>
        <time>2016-05-21T09:50:09Z</time>
      </trkpt>
      <trkpt lat="45.43534" lon="5.76313">
        <ele>448.8</ele>
        <time>2016-05-21T09:50:11Z</time>
      </trkpt>
      <trkpt lat="45.43529" lon="5.76304">
        <ele>448.3</ele>
        <time>2016-05-21T09:50:12Z</time>
      </trkpt>
      <trkpt lat="45.43524" lon="5.76295">
        <ele>448</ele>
        <time>2016-05-21T09:50:13Z</time>
      </trkpt>
      <trkpt lat="45.43519" lon="5.76286">
        <ele>447.7</ele>
        <time>2016-05-21T09:50:14Z</time>
      </trkpt>
      <trkpt lat="45.43515" lon="5.76276">
        <ele>447.2</ele>
        <time>2016-05-21T09:50:15Z</time>
      </trkpt>
      <trkpt lat="45.43512" lon="5.76266">
        <ele>446.8</ele>
        <time>2016-05-21T09:50:16Z</time>
      </trkpt>
      <trkpt lat="45.4351" lon="5.76255">
        <ele>446.4</ele>
        <time>2016-05-21T09:50:17Z</time>
      </trkpt>
      <trkpt lat="45.43508" lon="5.76244">
        <ele>446.2</ele>
        <time>2016-05-21T09:50:18Z</time>
      </trkpt>
      <trkpt lat="45.43507" lon="5.76233">
        <ele>445.8</ele>
        <time>2016-05-21T09:50:19Z</time>
      </trkpt>
      <trkpt lat="45.43505" lon="5.76221">
        <ele>445.3</ele>
        <time>2016-05-21T09:50:20Z</time>
      </trkpt>
      <trkpt lat="45.43504" lon="5.76208">
        <ele>445.2</ele>
        <time>2016-05-21T09:50:21Z</time>
      </trkpt>
      <trkpt lat="45.43503" lon="5.76196">
        <ele>445.5</ele>
        <time>2016-05-21T09:50:23Z</time>
      </trkpt>
      <trkpt lat="45.43502" lon="5.76186">
        <ele>445.7</ele>
        <time>2016-05-21T09:50:23Z</time>
      </trkpt>
      <trkpt lat="45.43501" lon="5.76174">
        <ele>446.1</ele>
        <time>2016-05-21T09:50:24Z</time>
      </trkpt>
      <trkpt lat="45.435" lon="5.76163">
        <ele>446.4</ele>
        <time>2016-05-21T09:50:25Z</time>
      </trkpt>
      <trkpt lat="45.435" lon="5.76151">
        <ele>446.7</ele>
        <time>2016-05-21T09:50:26Z</time>
      </trkpt>
      <trkpt lat="45.43499" lon="5.76138">
        <ele>447.3</ele>
        <time>2016-05-21T09:50:27Z</time>
      </trkpt>
      <trkpt lat="45.43499" lon="5.76125">
        <ele>447.3</ele>
        <time>2016-05-21T09:50:28Z</time>
      </trkpt>
      <trkpt lat="45.43498" lon="5.76115">
        <ele>447.4</ele>
        <time>2016-05-21T09:50:29Z</time>
      </trkpt>
      <trkpt lat="45.43497" lon="5.76104">
        <ele>447.6</ele>
        <time>2016-05-21T09:50:30Z</time>
      </trkpt>
      <trkpt lat="45.43496" lon="5.76093">
        <ele>447.2</ele>
        <time>2016-05-21T09:50:31Z</time>
      </trkpt>
      <trkpt lat="45.43494" lon="5.76081">
        <ele>446.8</ele>
        <time>2016-05-21T09:50:32Z</time>
      </trkpt>
      <trkpt lat="45.43491" lon="5.7607">
        <ele>446.2</ele>
        <time>2016-05-21T09:50:33Z</time>
      </trkpt>
      <trkpt lat="45.43489" lon="5.76059">
        <ele>446</ele>
        <time>2016-05-21T09:50:34Z</time>
      </trkpt>
      <trkpt lat="45.43484" lon="5.7604">
        <ele>445.9</ele>
        <time>2016-05-21T09:50:36Z</time>
      </trkpt>
      <trkpt lat="45.43481" lon="5.76029">
        <ele>446.3</ele>
        <time>2016-05-21T09:50:37Z</time>
      </trkpt>
      <trkpt lat="45.43479" lon="5.7602">
        <ele>446</ele>
        <time>2016-05-21T09:50:38Z</time>
      </trkpt>
      <trkpt lat="45.43475" lon="5.76009">
        <ele>446.2</ele>
        <time>2016-05-21T09:50:39Z</time>
      </trkpt>
      <trkpt lat="45.43472" lon="5.75998">
        <ele>446.8</ele>
        <time>2016-05-21T09:50:40Z</time>
      </trkpt>
      <trkpt lat="45.43469" lon="5.75987">
        <ele>447.8</ele>
        <time>2016-05-21T09:50:41Z</time>
      </trkpt>
      <trkpt lat="45.43468" lon="5.75975">
        <ele>448.6</ele>
        <time>2016-05-21T09:50:42Z</time>
      </trkpt>
      <trkpt lat="45.43466" lon="5.75965">
        <ele>448.8</ele>
        <time>2016-05-21T09:50:43Z</time>
      </trkpt>
      <trkpt lat="45.43465" lon="5.75953">
        <ele>449</ele>
        <time>2016-05-21T09:50:44Z</time>
      </trkpt>
      <trkpt lat="45.43464" lon="5.75942">
        <ele>449.5</ele>
        <time>2016-05-21T09:50:45Z</time>
      </trkpt>
      <trkpt lat="45.43462" lon="5.75931">
        <ele>449.8</ele>
        <time>2016-05-21T09:50:46Z</time>
      </trkpt>
      <trkpt lat="45.43461" lon="5.7592">
        <ele>449.9</ele>
        <time>2016-05-21T09:50:47Z</time>
      </trkpt>
      <trkpt lat="45.43459" lon="5.75907">
        <ele>449.9</ele>
        <time>2016-05-21T09:50:48Z</time>
      </trkpt>
      <trkpt lat="45.43456" lon="5.75895">
        <ele>449.7</ele>
        <time>2016-05-21T09:50:49Z</time>
      </trkpt>
      <trkpt lat="45.43452" lon="5.75885">
        <ele>449.4</ele>
        <time>2016-05-21T09:50:50Z</time>
      </trkpt>
      <trkpt lat="45.43448" lon="5.75875">
        <ele>449.6</ele>
        <time>2016-05-21T09:50:51Z</time>
      </trkpt>
      <trkpt lat="45.43443" lon="5.75866">
        <ele>450</ele>
        <time>2016-05-21T09:50:52Z</time>
      </trkpt>
      <trkpt lat="45.43439" lon="5.75858">
        <ele>450.1</ele>
        <time>2016-05-21T09:50:53Z</time>
      </trkpt>
      <trkpt lat="45.43429" lon="5.75841">
        <ele>449.1</ele>
        <time>2016-05-21T09:50:55Z</time>
      </trkpt>
      <trkpt lat="45.43424" lon="5.75833">
        <ele>448</ele>
        <time>2016-05-21T09:50:56Z</time>
      </trkpt>
      <trkpt lat="45.4342" lon="5.75823">
        <ele>447.6</ele>
        <time>2016-05-21T09:50:57Z</time>
      </trkpt>
      <trkpt lat="45.43417" lon="5.75813">
        <ele>446.8</ele>
        <time>2016-05-21T09:50:58Z</time>
      </trkpt>
      <trkpt lat="45.43415" lon="5.75803">
        <ele>446.4</ele>
        <time>2016-05-21T09:50:59Z</time>
      </trkpt>
      <trkpt lat="45.43414" lon="5.75791">
        <ele>446.4</ele>
        <time>2016-05-21T09:51:00Z</time>
      </trkpt>
      <trkpt lat="45.43412" lon="5.75779">
        <ele>446.9</ele>
        <time>2016-05-21T09:51:01Z</time>
      </trkpt>
      <trkpt lat="45.43411" lon="5.75767">
        <ele>447.2</ele>
        <time>2016-05-21T09:51:02Z</time>
      </trkpt>
      <trkpt lat="45.43408" lon="5.75756">
        <ele>446.8</ele>
        <time>2016-05-21T09:51:03Z</time>
      </trkpt>
      <trkpt lat="45.43405" lon="5.75745">
        <ele>446.1</ele>
        <time>2016-05-21T09:51:04Z</time>
      </trkpt>
      <trkpt lat="45.43402" lon="5.75734">
        <ele>445.6</ele>
        <time>2016-05-21T09:51:05Z</time>
      </trkpt>
      <trkpt lat="45.43399" lon="5.75723">
        <ele>445.5</ele>
        <time>2016-05-21T09:51:06Z</time>
      </trkpt>
      <trkpt lat="45.43396" lon="5.75713">
        <ele>445</ele>
        <time>2016-05-21T09:51:07Z</time>
      </trkpt>
      <trkpt lat="45.43392" lon="5.75702">
        <ele>444.3</ele>
        <time>2016-05-21T09:51:08Z</time>
      </trkpt>
      <trkpt lat="45.43388" lon="5.7569">
        <ele>444.5</ele>
        <time>2016-05-21T09:51:09Z</time>
      </trkpt>
      <trkpt lat="45.43381" lon="5.75672">
        <ele>444</ele>
        <time>2016-05-21T09:51:11Z</time>
      </trkpt>
      <trkpt lat="45.43377" lon="5.75662">
        <ele>444.4</ele>
        <time>2016-05-21T09:51:12Z</time>
      </trkpt>
      <trkpt lat="45.43373" lon="5.7565">
        <ele>444.8</ele>
        <time>2016-05-21T09:51:13Z</time>
      </trkpt>
      <trkpt lat="45.43369" lon="5.7564">
        <ele>445.8</ele>
        <time>2016-05-21T09:51:14Z</time>
      </trkpt>
      <trkpt lat="45.43363" lon="5.75625">
        <ele>445.8</ele>
        <time>2016-05-21T09:51:16Z</time>
      </trkpt>
      <trkpt lat="45.43361" lon="5.75608">
        <ele>445.8</ele>
        <time>2016-05-21T09:51:18Z</time>
      </trkpt>
      <trkpt lat="45.43362" lon="5.75591">
        <ele>445.5</ele>
        <time>2016-05-21T09:51:20Z</time>
      </trkpt>
      <trkpt lat="45.43365" lon="5.75582">
        <ele>445.5</ele>
        <time>2016-05-21T09:51:21Z</time>
      </trkpt>
      <trkpt lat="45.43369" lon="5.75564">
        <ele>444.9</ele>
        <time>2016-05-21T09:51:23Z</time>
      </trkpt>
      <trkpt lat="45.43366" lon="5.75553">
        <ele>444.9</ele>
        <time>2016-05-21T09:51:28Z</time>
      </trkpt>
      <trkpt lat="45.43361" lon="5.75541">
        <ele>445</ele>
        <time>2016-05-21T09:51:32Z</time>
      </trkpt>
      <trkpt lat="45.43359" lon="5.7553">
        <ele>444.6</ele>
        <time>2016-05-21T09:51:34Z</time>
      </trkpt>
      <trkpt lat="45.43355" lon="5.75518">
        <ele>444.9</ele>
        <time>2016-05-21T09:51:36Z</time>
      </trkpt>
      <trkpt lat="45.43355" lon="5.75505">
        <ele>444.8</ele>
        <time>2016-05-21T09:51:38Z</time>
      </trkpt>
      <trkpt lat="45.4335" lon="5.75494">
        <ele>445.3</ele>
        <time>2016-05-21T09:51:40Z</time>
      </trkpt>
      <trkpt lat="45.43345" lon="5.7548">
        <ele>444.7</ele>
        <time>2016-05-21T09:51:42Z</time>
      </trkpt>
      <trkpt lat="45.4334" lon="5.75467">
        <ele>442.4</ele>
        <time>2016-05-21T09:51:44Z</time>
      </trkpt>
      <trkpt lat="45.43337" lon="5.75453">
        <ele>439.7</ele>
        <time>2016-05-21T09:51:46Z</time>
      </trkpt>
      <trkpt lat="45.43333" lon="5.7544">
        <ele>438.3</ele>
        <time>2016-05-21T09:51:48Z</time>
      </trkpt>
      <trkpt lat="45.43328" lon="5.75426">
        <ele>438.6</ele>
        <time>2016-05-21T09:51:50Z</time>
      </trkpt>
      <trkpt lat="45.43323" lon="5.75412">
        <ele>440.3</ele>
        <time>2016-05-21T09:51:52Z</time>
      </trkpt>
      <trkpt lat="45.43318" lon="5.75397">
        <ele>439.8</ele>
        <time>2016-05-21T09:51:54Z</time>
      </trkpt>
      <trkpt lat="45.43312" lon="5.75381">
        <ele>440</ele>
        <time>2016-05-21T09:51:56Z</time>
      </trkpt>
      <trkpt lat="45.43306" lon="5.75367">
        <ele>439.4</ele>
        <time>2016-05-21T09:51:58Z</time>
      </trkpt>
      <trkpt lat="45.433" lon="5.75351">
        <ele>439.8</ele>
        <time>2016-05-21T09:52:00Z</time>
      </trkpt>
      <trkpt lat="45.43294" lon="5.75337">
        <ele>440.7</ele>
        <time>2016-05-21T09:52:02Z</time>
      </trkpt>
      <trkpt lat="45.43296" lon="5.75323">
        <ele>441.5</ele>
        <time>2016-05-21T09:52:04Z</time>
      </trkpt>
      <trkpt lat="45.433" lon="5.75308">
        <ele>441.3</ele>
        <time>2016-05-21T09:52:06Z</time>
      </trkpt>
      <trkpt lat="45.43299" lon="5.75296">
        <ele>441.1</ele>
        <time>2016-05-21T09:52:08Z</time>
      </trkpt>
      <trkpt lat="45.43299" lon="5.75284">
        <ele>441</ele>
        <time>2016-05-21T09:52:10Z</time>
      </trkpt>
      <trkpt lat="45.43299" lon="5.75273">
        <ele>440.7</ele>
        <time>2016-05-21T09:52:17Z</time>
      </trkpt>
      <trkpt lat="45.433" lon="5.75261">
        <ele>440.6</ele>
        <time>2016-05-21T09:52:35Z</time>
      </trkpt>
      <trkpt lat="45.433" lon="5.75247">
        <ele>439.9</ele>
        <time>2016-05-21T09:52:37Z</time>
      </trkpt>
      <trkpt lat="45.43302" lon="5.75231">
        <ele>438.5</ele>
        <time>2016-05-21T09:52:39Z</time>
      </trkpt>
      <trkpt lat="45.43302" lon="5.75215">
        <ele>437.4</ele>
        <time>2016-05-21T09:52:41Z</time>
      </trkpt>
      <trkpt lat="45.43302" lon="5.75196">
        <ele>438</ele>
        <time>2016-05-21T09:52:43Z</time>
      </trkpt>
      <trkpt lat="45.43303" lon="5.7518">
        <ele>437.4</ele>
        <time>2016-05-21T09:52:45Z</time>
      </trkpt>
      <trkpt lat="45.43305" lon="5.75166">
        <ele>436.1</ele>
        <time>2016-05-21T09:52:47Z</time>
      </trkpt>
      <trkpt lat="45.43307" lon="5.75156">
        <ele>435.3</ele>
        <time>2016-05-21T09:52:49Z</time>
      </trkpt>
      <trkpt lat="45.43313" lon="5.75144">
        <ele>435.3</ele>
        <time>2016-05-21T09:52:52Z</time>
      </trkpt>
      <trkpt lat="45.43318" lon="5.75137">
        <ele>435.6</ele>
        <time>2016-05-21T09:52:55Z</time>
      </trkpt>
      <trkpt lat="45.43331" lon="5.75129">
        <ele>436.8</ele>
        <time>2016-05-21T09:53:00Z</time>
      </trkpt>
      <trkpt lat="45.43336" lon="5.75116">
        <ele>437.1</ele>
        <time>2016-05-21T09:53:02Z</time>
      </trkpt>
      <trkpt lat="45.43342" lon="5.75107">
        <ele>436.8</ele>
        <time>2016-05-21T09:53:11Z</time>
      </trkpt>
      <trkpt lat="45.43344" lon="5.75103">
        <ele>440.3</ele>
        <time>2016-05-21T09:57:22Z</time>
      </trkpt>
      <trkpt lat="45.43345" lon="5.75107">
        <ele>438</ele>
        <time>2016-05-21T09:57:44Z</time>
      </trkpt>
      <trkpt lat="45.43348" lon="5.75099">
        <ele>436.2</ele>
        <time>2016-05-21T10:03:06Z</time>
      </trkpt>
      <trkpt lat="45.43349" lon="5.7509">
        <ele>436.1</ele>
        <time>2016-05-21T10:03:13Z</time>
      </trkpt>
      <trkpt lat="45.43343" lon="5.75085">
        <ele>433.8</ele>
        <time>2016-05-21T10:04:10Z</time>
      </trkpt>
      <trkpt lat="45.4334" lon="5.75082">
        <ele>433.5</ele>
        <time>2016-05-21T10:04:17Z</time>
      </trkpt>
      <trkpt lat="45.43344" lon="5.75071">
        <ele>434.7</ele>
        <time>2016-05-21T10:04:26Z</time>
      </trkpt>
      <trkpt lat="45.43346" lon="5.75059">
        <ele>435</ele>
        <time>2016-05-21T10:04:29Z</time>
      </trkpt>
      <trkpt lat="45.43348" lon="5.75047">
        <ele>435.1</ele>
        <time>2016-05-21T10:04:32Z</time>
      </trkpt>
      <trkpt lat="45.4335" lon="5.75037">
        <ele>435.6</ele>
        <time>2016-05-21T10:04:34Z</time>
      </trkpt>
      <trkpt lat="45.43352" lon="5.75026">
        <ele>437.1</ele>
        <time>2016-05-21T10:04:36Z</time>
      </trkpt>
      <trkpt lat="45.43354" lon="5.75013">
        <ele>438.1</ele>
        <time>2016-05-21T10:04:38Z</time>
      </trkpt>
      <trkpt lat="45.43355" lon="5.74999">
        <ele>438.1</ele>
        <time>2016-05-21T10:04:40Z</time>
      </trkpt>
      <trkpt lat="45.43357" lon="5.74986">
        <ele>436.9</ele>
        <time>2016-05-21T10:04:42Z</time>
      </trkpt>
      <trkpt lat="45.43357" lon="5.74973">
        <ele>436.2</ele>
        <time>2016-05-21T10:04:44Z</time>
      </trkpt>
      <trkpt lat="45.43358" lon="5.74958">
        <ele>436.1</ele>
        <time>2016-05-21T10:04:46Z</time>
      </trkpt>
      <trkpt lat="45.43358" lon="5.74943">
        <ele>436</ele>
        <time>2016-05-21T10:04:48Z</time>
      </trkpt>
      <trkpt lat="45.43358" lon="5.74928">
        <ele>435.9</ele>
        <time>2016-05-21T10:04:50Z</time>
      </trkpt>
      <trkpt lat="45.43358" lon="5.74911">
        <ele>435.3</ele>
        <time>2016-05-21T10:04:52Z</time>
      </trkpt>
      <trkpt lat="45.43358" lon="5.74895">
        <ele>434.2</ele>
        <time>2016-05-21T10:04:54Z</time>
      </trkpt>
      <trkpt lat="45.43357" lon="5.74878">
        <ele>433.1</ele>
        <time>2016-05-21T10:04:56Z</time>
      </trkpt>
      <trkpt lat="45.43357" lon="5.74862">
        <ele>433.3</ele>
        <time>2016-05-21T10:04:58Z</time>
      </trkpt>
      <trkpt lat="45.43357" lon="5.74844">
        <ele>433.2</ele>
        <time>2016-05-21T10:05:00Z</time>
      </trkpt>
      <trkpt lat="45.43358" lon="5.74827">
        <ele>433.3</ele>
        <time>2016-05-21T10:05:02Z</time>
      </trkpt>
      <trkpt lat="45.43358" lon="5.74808">
        <ele>433</ele>
        <time>2016-05-21T10:05:04Z</time>
      </trkpt>
      <trkpt lat="45.43358" lon="5.7479">
        <ele>432.7</ele>
        <time>2016-05-21T10:05:06Z</time>
      </trkpt>
      <trkpt lat="45.43358" lon="5.74771">
        <ele>431.9</ele>
        <time>2016-05-21T10:05:08Z</time>
      </trkpt>
      <trkpt lat="45.43359" lon="5.74753">
        <ele>431.7</ele>
        <time>2016-05-21T10:05:10Z</time>
      </trkpt>
      <trkpt lat="45.4336" lon="5.74735">
        <ele>432.5</ele>
        <time>2016-05-21T10:05:12Z</time>
      </trkpt>
      <trkpt lat="45.43361" lon="5.74718">
        <ele>433.5</ele>
        <time>2016-05-21T10:05:14Z</time>
      </trkpt>
      <trkpt lat="45.43361" lon="5.747">
        <ele>434.3</ele>
        <time>2016-05-21T10:05:16Z</time>
      </trkpt>
      <trkpt lat="45.43361" lon="5.74682">
        <ele>433.3</ele>
        <time>2016-05-21T10:05:18Z</time>
      </trkpt>
      <trkpt lat="45.43361" lon="5.74665">
        <ele>431</ele>
        <time>2016-05-21T10:05:20Z</time>
      </trkpt>
      <trkpt lat="45.4336" lon="5.74647">
        <ele>429.6</ele>
        <time>2016-05-21T10:05:22Z</time>
      </trkpt>
      <trkpt lat="45.4336" lon="5.74629">
        <ele>429.1</ele>
        <time>2016-05-21T10:05:24Z</time>
      </trkpt>
      <trkpt lat="45.4336" lon="5.74611">
        <ele>429.2</ele>
        <time>2016-05-21T10:05:26Z</time>
      </trkpt>
      <trkpt lat="45.4336" lon="5.74592">
        <ele>428.7</ele>
        <time>2016-05-21T10:05:28Z</time>
      </trkpt>
      <trkpt lat="45.4336" lon="5.74574">
        <ele>428</ele>
        <time>2016-05-21T10:05:30Z</time>
      </trkpt>
      <trkpt lat="45.4336" lon="5.74556">
        <ele>428.2</ele>
        <time>2016-05-21T10:05:32Z</time>
      </trkpt>
      <trkpt lat="45.4336" lon="5.74539">
        <ele>428.8</ele>
        <time>2016-05-21T10:05:34Z</time>
      </trkpt>
      <trkpt lat="45.4336" lon="5.74525">
        <ele>429.1</ele>
        <time>2016-05-21T10:05:36Z</time>
      </trkpt>
      <trkpt lat="45.4336" lon="5.74508">
        <ele>429.1</ele>
        <time>2016-05-21T10:05:38Z</time>
      </trkpt>
      <trkpt lat="45.4336" lon="5.7449">
        <ele>428.2</ele>
        <time>2016-05-21T10:05:40Z</time>
      </trkpt>
      <trkpt lat="45.4336" lon="5.74471">
        <ele>427.1</ele>
        <time>2016-05-21T10:05:42Z</time>
      </trkpt>
      <trkpt lat="45.43359" lon="5.74454">
        <ele>427</ele>
        <time>2016-05-21T10:05:44Z</time>
      </trkpt>
      <trkpt lat="45.43359" lon="5.74436">
        <ele>428</ele>
        <time>2016-05-21T10:05:46Z</time>
      </trkpt>
      <trkpt lat="45.43359" lon="5.74416">
        <ele>429.1</ele>
        <time>2016-05-21T10:05:48Z</time>
      </trkpt>
      <trkpt lat="45.43359" lon="5.74399">
        <ele>429.7</ele>
        <time>2016-05-21T10:05:50Z</time>
      </trkpt>
      <trkpt lat="45.4336" lon="5.74381">
        <ele>429.1</ele>
        <time>2016-05-21T10:05:52Z</time>
      </trkpt>
      <trkpt lat="45.43361" lon="5.74365">
        <ele>429.1</ele>
        <time>2016-05-21T10:05:54Z</time>
      </trkpt>
      <trkpt lat="45.43361" lon="5.74351">
        <ele>429.7</ele>
        <time>2016-05-21T10:05:56Z</time>
      </trkpt>
      <trkpt lat="45.43361" lon="5.74335">
        <ele>429.9</ele>
        <time>2016-05-21T10:05:58Z</time>
      </trkpt>
      <trkpt lat="45.43361" lon="5.74317">
        <ele>429.8</ele>
        <time>2016-05-21T10:06:00Z</time>
      </trkpt>
      <trkpt lat="45.43361" lon="5.74302">
        <ele>429.6</ele>
        <time>2016-05-21T10:06:02Z</time>
      </trkpt>
      <trkpt lat="45.43361" lon="5.74287">
        <ele>429.2</ele>
        <time>2016-05-21T10:06:04Z</time>
      </trkpt>
      <trkpt lat="45.43362" lon="5.74273">
        <ele>428.1</ele>
        <time>2016-05-21T10:06:06Z</time>
      </trkpt>
      <trkpt lat="45.43362" lon="5.74259">
        <ele>427.7</ele>
        <time>2016-05-21T10:06:08Z</time>
      </trkpt>
      <trkpt lat="45.43363" lon="5.74243">
        <ele>427.9</ele>
        <time>2016-05-21T10:06:10Z</time>
      </trkpt>
      <trkpt lat="45.43363" lon="5.7423">
        <ele>428.5</ele>
        <time>2016-05-21T10:06:12Z</time>
      </trkpt>
      <trkpt lat="45.43363" lon="5.74215">
        <ele>427.9</ele>
        <time>2016-05-21T10:06:14Z</time>
      </trkpt>
      <trkpt lat="45.43366" lon="5.74201">
        <ele>427.1</ele>
        <time>2016-05-21T10:06:16Z</time>
      </trkpt>
      <trkpt lat="45.43371" lon="5.74187">
        <ele>426.1</ele>
        <time>2016-05-21T10:06:18Z</time>
      </trkpt>
      <trkpt lat="45.43378" lon="5.74171">
        <ele>425.2</ele>
        <time>2016-05-21T10:06:20Z</time>
      </trkpt>
      <trkpt lat="45.43384" lon="5.74157">
        <ele>425.5</ele>
        <time>2016-05-21T10:06:22Z</time>
      </trkpt>
      <trkpt lat="45.43393" lon="5.74143">
        <ele>425.8</ele>
        <time>2016-05-21T10:06:24Z</time>
      </trkpt>
      <trkpt lat="45.434" lon="5.7413">
        <ele>426</ele>
        <time>2016-05-21T10:06:26Z</time>
      </trkpt>
      <trkpt lat="45.43408" lon="5.74117">
        <ele>426</ele>
        <time>2016-05-21T10:06:28Z</time>
      </trkpt>
      <trkpt lat="45.43416" lon="5.74102">
        <ele>426.1</ele>
        <time>2016-05-21T10:06:30Z</time>
      </trkpt>
      <trkpt lat="45.4342" lon="5.74093">
        <ele>426.1</ele>
        <time>2016-05-21T10:06:31Z</time>
      </trkpt>
      <trkpt lat="45.43431" lon="5.74081">
        <ele>425.2</ele>
        <time>2016-05-21T10:06:33Z</time>
      </trkpt>
      <trkpt lat="45.43442" lon="5.74069">
        <ele>423.4</ele>
        <time>2016-05-21T10:06:35Z</time>
      </trkpt>
      <trkpt lat="45.43452" lon="5.74059">
        <ele>421.9</ele>
        <time>2016-05-21T10:06:37Z</time>
      </trkpt>
      <trkpt lat="45.43464" lon="5.74055">
        <ele>420.5</ele>
        <time>2016-05-21T10:06:39Z</time>
      </trkpt>
      <trkpt lat="45.43474" lon="5.7405">
        <ele>420.2</ele>
        <time>2016-05-21T10:06:41Z</time>
      </trkpt>
      <trkpt lat="45.43484" lon="5.74043">
        <ele>421.5</ele>
        <time>2016-05-21T10:06:43Z</time>
      </trkpt>
      <trkpt lat="45.43493" lon="5.74037">
        <ele>424.3</ele>
        <time>2016-05-21T10:06:45Z</time>
      </trkpt>
      <trkpt lat="45.43504" lon="5.7403">
        <ele>426.2</ele>
        <time>2016-05-21T10:06:47Z</time>
      </trkpt>
      <trkpt lat="45.43514" lon="5.74023">
        <ele>428.4</ele>
        <time>2016-05-21T10:06:49Z</time>
      </trkpt>
      <trkpt lat="45.43525" lon="5.74016">
        <ele>428.7</ele>
        <time>2016-05-21T10:06:51Z</time>
      </trkpt>
      <trkpt lat="45.43536" lon="5.7401">
        <ele>428.9</ele>
        <time>2016-05-21T10:06:53Z</time>
      </trkpt>
      <trkpt lat="45.43545" lon="5.74004">
        <ele>429.5</ele>
        <time>2016-05-21T10:06:55Z</time>
      </trkpt>
      <trkpt lat="45.43555" lon="5.73998">
        <ele>429.9</ele>
        <time>2016-05-21T10:06:57Z</time>
      </trkpt>
      <trkpt lat="45.43566" lon="5.73993">
        <ele>429.9</ele>
        <time>2016-05-21T10:06:59Z</time>
      </trkpt>
      <trkpt lat="45.43576" lon="5.73989">
        <ele>429.8</ele>
        <time>2016-05-21T10:07:01Z</time>
      </trkpt>
      <trkpt lat="45.43586" lon="5.73985">
        <ele>430.1</ele>
        <time>2016-05-21T10:07:03Z</time>
      </trkpt>
      <trkpt lat="45.43598" lon="5.7398">
        <ele>430.7</ele>
        <time>2016-05-21T10:07:05Z</time>
      </trkpt>
      <trkpt lat="45.43609" lon="5.73976">
        <ele>431.5</ele>
        <time>2016-05-21T10:07:07Z</time>
      </trkpt>
      <trkpt lat="45.43621" lon="5.73972">
        <ele>432.2</ele>
        <time>2016-05-21T10:07:09Z</time>
      </trkpt>
      <trkpt lat="45.43632" lon="5.73968">
        <ele>432.7</ele>
        <time>2016-05-21T10:07:11Z</time>
      </trkpt>
      <trkpt lat="45.43643" lon="5.73964">
        <ele>433</ele>
        <time>2016-05-21T10:07:13Z</time>
      </trkpt>
      <trkpt lat="45.43655" lon="5.73959">
        <ele>434.3</ele>
        <time>2016-05-21T10:07:15Z</time>
      </trkpt>
      <trkpt lat="45.43666" lon="5.73955">
        <ele>436.2</ele>
        <time>2016-05-21T10:07:17Z</time>
      </trkpt>
      <trkpt lat="45.43677" lon="5.7395">
        <ele>438.6</ele>
        <time>2016-05-21T10:07:19Z</time>
      </trkpt>
      <trkpt lat="45.43688" lon="5.73947">
        <ele>439.7</ele>
        <time>2016-05-21T10:07:21Z</time>
      </trkpt>
      <trkpt lat="45.437" lon="5.73943">
        <ele>439.8</ele>
        <time>2016-05-21T10:07:23Z</time>
      </trkpt>
      <trkpt lat="45.43712" lon="5.73941">
        <ele>438.9</ele>
        <time>2016-05-21T10:07:25Z</time>
      </trkpt>
      <trkpt lat="45.43725" lon="5.73939">
        <ele>438.1</ele>
        <time>2016-05-21T10:07:27Z</time>
      </trkpt>
      <trkpt lat="45.43738" lon="5.73937">
        <ele>438.1</ele>
        <time>2016-05-21T10:07:29Z</time>
      </trkpt>
      <trkpt lat="45.4375" lon="5.73931">
        <ele>438.3</ele>
        <time>2016-05-21T10:07:31Z</time>
      </trkpt>
      <trkpt lat="45.43761" lon="5.73922">
        <ele>438.8</ele>
        <time>2016-05-21T10:07:33Z</time>
      </trkpt>
      <trkpt lat="45.43769" lon="5.73908">
        <ele>438.6</ele>
        <time>2016-05-21T10:07:35Z</time>
      </trkpt>
      <trkpt lat="45.43773" lon="5.7389">
        <ele>439.6</ele>
        <time>2016-05-21T10:07:37Z</time>
      </trkpt>
      <trkpt lat="45.43775" lon="5.73871">
        <ele>438.8</ele>
        <time>2016-05-21T10:07:39Z</time>
      </trkpt>
      <trkpt lat="45.43775" lon="5.73851">
        <ele>437.7</ele>
        <time>2016-05-21T10:07:41Z</time>
      </trkpt>
      <trkpt lat="45.43774" lon="5.73831">
        <ele>435.8</ele>
        <time>2016-05-21T10:07:43Z</time>
      </trkpt>
      <trkpt lat="45.43772" lon="5.73813">
        <ele>433.5</ele>
        <time>2016-05-21T10:07:45Z</time>
      </trkpt>
      <trkpt lat="45.4377" lon="5.73796">
        <ele>432.6</ele>
        <time>2016-05-21T10:07:47Z</time>
      </trkpt>
      <trkpt lat="45.43767" lon="5.73779">
        <ele>432.8</ele>
        <time>2016-05-21T10:07:49Z</time>
      </trkpt>
      <trkpt lat="45.43765" lon="5.7376">
        <ele>433</ele>
        <time>2016-05-21T10:07:51Z</time>
      </trkpt>
      <trkpt lat="45.43763" lon="5.7374">
        <ele>434.5</ele>
        <time>2016-05-21T10:07:53Z</time>
      </trkpt>
      <trkpt lat="45.43761" lon="5.73721">
        <ele>435.2</ele>
        <time>2016-05-21T10:07:55Z</time>
      </trkpt>
      <trkpt lat="45.43758" lon="5.73702">
        <ele>435.8</ele>
        <time>2016-05-21T10:07:57Z</time>
      </trkpt>
      <trkpt lat="45.43755" lon="5.73685">
        <ele>435.7</ele>
        <time>2016-05-21T10:07:59Z</time>
      </trkpt>
      <trkpt lat="45.43752" lon="5.73668">
        <ele>435.2</ele>
        <time>2016-05-21T10:08:01Z</time>
      </trkpt>
      <trkpt lat="45.43749" lon="5.73652">
        <ele>435</ele>
        <time>2016-05-21T10:08:03Z</time>
      </trkpt>
      <trkpt lat="45.43748" lon="5.73633">
        <ele>433.9</ele>
        <time>2016-05-21T10:08:05Z</time>
      </trkpt>
      <trkpt lat="45.43746" lon="5.73614">
        <ele>434</ele>
        <time>2016-05-21T10:08:07Z</time>
      </trkpt>
      <trkpt lat="45.43743" lon="5.73596">
        <ele>435</ele>
        <time>2016-05-21T10:08:09Z</time>
      </trkpt>
      <trkpt lat="45.43742" lon="5.73586">
        <ele>434.6</ele>
        <time>2016-05-21T10:08:10Z</time>
      </trkpt>
      <trkpt lat="45.43739" lon="5.73565">
        <ele>436</ele>
        <time>2016-05-21T10:08:12Z</time>
      </trkpt>
      <trkpt lat="45.43737" lon="5.73555">
        <ele>436.5</ele>
        <time>2016-05-21T10:08:13Z</time>
      </trkpt>
      <trkpt lat="45.43735" lon="5.73537">
        <ele>436.6</ele>
        <time>2016-05-21T10:08:15Z</time>
      </trkpt>
      <trkpt lat="45.43734" lon="5.73519">
        <ele>436.2</ele>
        <time>2016-05-21T10:08:17Z</time>
      </trkpt>
      <trkpt lat="45.43733" lon="5.73501">
        <ele>435.7</ele>
        <time>2016-05-21T10:08:19Z</time>
      </trkpt>
      <trkpt lat="45.4373" lon="5.73485">
        <ele>437.2</ele>
        <time>2016-05-21T10:08:21Z</time>
      </trkpt>
      <trkpt lat="45.43728" lon="5.73467">
        <ele>438.1</ele>
        <time>2016-05-21T10:08:23Z</time>
      </trkpt>
      <trkpt lat="45.43726" lon="5.73448">
        <ele>438.7</ele>
        <time>2016-05-21T10:08:25Z</time>
      </trkpt>
      <trkpt lat="45.43724" lon="5.73434">
        <ele>439.4</ele>
        <time>2016-05-21T10:08:27Z</time>
      </trkpt>
      <trkpt lat="45.4372" lon="5.73421">
        <ele>440.1</ele>
        <time>2016-05-21T10:08:29Z</time>
      </trkpt>
      <trkpt lat="45.43715" lon="5.73411">
        <ele>440.9</ele>
        <time>2016-05-21T10:08:31Z</time>
      </trkpt>
      <trkpt lat="45.4371" lon="5.73402">
        <ele>441.4</ele>
        <time>2016-05-21T10:08:33Z</time>
      </trkpt>
      <trkpt lat="45.43704" lon="5.73392">
        <ele>442.7</ele>
        <time>2016-05-21T10:08:35Z</time>
      </trkpt>
      <trkpt lat="45.43697" lon="5.73384">
        <ele>444</ele>
        <time>2016-05-21T10:08:37Z</time>
      </trkpt>
      <trkpt lat="45.43691" lon="5.73378">
        <ele>445</ele>
        <time>2016-05-21T10:08:39Z</time>
      </trkpt>
      <trkpt lat="45.43683" lon="5.7337">
        <ele>445.1</ele>
        <time>2016-05-21T10:08:42Z</time>
      </trkpt>
      <trkpt lat="45.43677" lon="5.73365">
        <ele>444.7</ele>
        <time>2016-05-21T10:08:44Z</time>
      </trkpt>
      <trkpt lat="45.43668" lon="5.73358">
        <ele>444.9</ele>
        <time>2016-05-21T10:08:47Z</time>
      </trkpt>
      <trkpt lat="45.43664" lon="5.73349">
        <ele>445.2</ele>
        <time>2016-05-21T10:08:49Z</time>
      </trkpt>
      <trkpt lat="45.43656" lon="5.73338">
        <ele>446.6</ele>
        <time>2016-05-21T10:08:52Z</time>
      </trkpt>
      <trkpt lat="45.43653" lon="5.73329">
        <ele>446.7</ele>
        <time>2016-05-21T10:08:54Z</time>
      </trkpt>
      <trkpt lat="45.43651" lon="5.73316">
        <ele>447</ele>
        <time>2016-05-21T10:08:57Z</time>
      </trkpt>
      <trkpt lat="45.43649" lon="5.73302">
        <ele>447.3</ele>
        <time>2016-05-21T10:09:00Z</time>
      </trkpt>
      <trkpt lat="45.43648" lon="5.73291">
        <ele>447.4</ele>
        <time>2016-05-21T10:09:02Z</time>
      </trkpt>
      <trkpt lat="45.43647" lon="5.73278">
        <ele>447.5</ele>
        <time>2016-05-21T10:09:05Z</time>
      </trkpt>
      <trkpt lat="45.43645" lon="5.73264">
        <ele>447.4</ele>
        <time>2016-05-21T10:09:08Z</time>
      </trkpt>
      <trkpt lat="45.43643" lon="5.73252">
        <ele>447.4</ele>
        <time>2016-05-21T10:09:11Z</time>
      </trkpt>
      <trkpt lat="45.43641" lon="5.73241">
        <ele>447.2</ele>
        <time>2016-05-21T10:09:14Z</time>
      </trkpt>
      <trkpt lat="45.4364" lon="5.73229">
        <ele>447.2</ele>
        <time>2016-05-21T10:09:17Z</time>
      </trkpt>
      <trkpt lat="45.43638" lon="5.73218">
        <ele>447.2</ele>
        <time>2016-05-21T10:09:21Z</time>
      </trkpt>
      <trkpt lat="45.43636" lon="5.73203">
        <ele>447.6</ele>
        <time>2016-05-21T10:09:25Z</time>
      </trkpt>
      <trkpt lat="45.43634" lon="5.73191">
        <ele>448.1</ele>
        <time>2016-05-21T10:09:28Z</time>
      </trkpt>
      <trkpt lat="45.43632" lon="5.73179">
        <ele>448.4</ele>
        <time>2016-05-21T10:09:31Z</time>
      </trkpt>
      <trkpt lat="45.4363" lon="5.73164">
        <ele>448.6</ele>
        <time>2016-05-21T10:09:34Z</time>
      </trkpt>
      <trkpt lat="45.43628" lon="5.7315">
        <ele>448.4</ele>
        <time>2016-05-21T10:09:38Z</time>
      </trkpt>
      <trkpt lat="45.43626" lon="5.73136">
        <ele>448.1</ele>
        <time>2016-05-21T10:09:41Z</time>
      </trkpt>
      <trkpt lat="45.43625" lon="5.73122">
        <ele>448.5</ele>
        <time>2016-05-21T10:09:44Z</time>
      </trkpt>
      <trkpt lat="45.43624" lon="5.73112">
        <ele>449</ele>
        <time>2016-05-21T10:09:47Z</time>
      </trkpt>
      <trkpt lat="45.43624" lon="5.73101">
        <ele>449.8</ele>
        <time>2016-05-21T10:09:51Z</time>
      </trkpt>
      <trkpt lat="45.43625" lon="5.7309">
        <ele>450.6</ele>
        <time>2016-05-21T10:09:54Z</time>
      </trkpt>
      <trkpt lat="45.43624" lon="5.73078">
        <ele>451.7</ele>
        <time>2016-05-21T10:09:57Z</time>
      </trkpt>
      <trkpt lat="45.43624" lon="5.73063">
        <ele>453</ele>
        <time>2016-05-21T10:10:00Z</time>
      </trkpt>
      <trkpt lat="45.43624" lon="5.73051">
        <ele>454</ele>
        <time>2016-05-21T10:10:03Z</time>
      </trkpt>
      <trkpt lat="45.43623" lon="5.73041">
        <ele>455</ele>
        <time>2016-05-21T10:10:06Z</time>
      </trkpt>
      <trkpt lat="45.43623" lon="5.73029">
        <ele>456</ele>
        <time>2016-05-21T10:10:09Z</time>
      </trkpt>
      <trkpt lat="45.43624" lon="5.73013">
        <ele>456.9</ele>
        <time>2016-05-21T10:10:12Z</time>
      </trkpt>
      <trkpt lat="45.43625" lon="5.73002">
        <ele>457.3</ele>
        <time>2016-05-21T10:10:14Z</time>
      </trkpt>
      <trkpt lat="45.43625" lon="5.72988">
        <ele>457.6</ele>
        <time>2016-05-21T10:10:17Z</time>
      </trkpt>
      <trkpt lat="45.43627" lon="5.72975">
        <ele>458</ele>
        <time>2016-05-21T10:10:20Z</time>
      </trkpt>
      <trkpt lat="45.43628" lon="5.72962">
        <ele>458.2</ele>
        <time>2016-05-21T10:10:23Z</time>
      </trkpt>
      <trkpt lat="45.43632" lon="5.72947">
        <ele>458.6</ele>
        <time>2016-05-21T10:10:26Z</time>
      </trkpt>
      <trkpt lat="45.43633" lon="5.72937">
        <ele>459.1</ele>
        <time>2016-05-21T10:10:28Z</time>
      </trkpt>
      <trkpt lat="45.43635" lon="5.72923">
        <ele>459.9</ele>
        <time>2016-05-21T10:10:31Z</time>
      </trkpt>
      <trkpt lat="45.43636" lon="5.72908">
        <ele>460.5</ele>
        <time>2016-05-21T10:10:34Z</time>
      </trkpt>
      <trkpt lat="45.43638" lon="5.72894">
        <ele>461.1</ele>
        <time>2016-05-21T10:10:37Z</time>
      </trkpt>
      <trkpt lat="45.4364" lon="5.72882">
        <ele>461.9</ele>
        <time>2016-05-21T10:10:40Z</time>
      </trkpt>
      <trkpt lat="45.43642" lon="5.72868">
        <ele>462.7</ele>
        <time>2016-05-21T10:10:43Z</time>
      </trkpt>
      <trkpt lat="45.43643" lon="5.72856">
        <ele>463.3</ele>
        <time>2016-05-21T10:10:46Z</time>
      </trkpt>
      <trkpt lat="45.43646" lon="5.72844">
        <ele>463.8</ele>
        <time>2016-05-21T10:10:49Z</time>
      </trkpt>
      <trkpt lat="45.43648" lon="5.7283">
        <ele>464.2</ele>
        <time>2016-05-21T10:10:52Z</time>
      </trkpt>
      <trkpt lat="45.43648" lon="5.72818">
        <ele>464.8</ele>
        <time>2016-05-21T10:10:55Z</time>
      </trkpt>
      <trkpt lat="45.43647" lon="5.72805">
        <ele>465.6</ele>
        <time>2016-05-21T10:10:58Z</time>
      </trkpt>
      <trkpt lat="45.43645" lon="5.7279">
        <ele>466.6</ele>
        <time>2016-05-21T10:11:01Z</time>
      </trkpt>
      <trkpt lat="45.43641" lon="5.72778">
        <ele>467.4</ele>
        <time>2016-05-21T10:11:04Z</time>
      </trkpt>
      <trkpt lat="45.43638" lon="5.72768">
        <ele>468.3</ele>
        <time>2016-05-21T10:11:07Z</time>
      </trkpt>
      <trkpt lat="45.43634" lon="5.72758">
        <ele>469.4</ele>
        <time>2016-05-21T10:11:10Z</time>
      </trkpt>
      <trkpt lat="45.43628" lon="5.72749">
        <ele>470.5</ele>
        <time>2016-05-21T10:11:13Z</time>
      </trkpt>
      <trkpt lat="45.43623" lon="5.72743">
        <ele>471.7</ele>
        <time>2016-05-21T10:11:16Z</time>
      </trkpt>
      <trkpt lat="45.43619" lon="5.72735">
        <ele>472.5</ele>
        <time>2016-05-21T10:11:18Z</time>
      </trkpt>
      <trkpt lat="45.43612" lon="5.72726">
        <ele>473.6</ele>
        <time>2016-05-21T10:11:21Z</time>
      </trkpt>
      <trkpt lat="45.43604" lon="5.72717">
        <ele>474.5</ele>
        <time>2016-05-21T10:11:24Z</time>
      </trkpt>
      <trkpt lat="45.43597" lon="5.72708">
        <ele>475.2</ele>
        <time>2016-05-21T10:11:27Z</time>
      </trkpt>
      <trkpt lat="45.43589" lon="5.727">
        <ele>475.8</ele>
        <time>2016-05-21T10:11:30Z</time>
      </trkpt>
      <trkpt lat="45.43582" lon="5.72692">
        <ele>476.4</ele>
        <time>2016-05-21T10:11:33Z</time>
      </trkpt>
      <trkpt lat="45.43575" lon="5.72684">
        <ele>477.2</ele>
        <time>2016-05-21T10:11:36Z</time>
      </trkpt>
      <trkpt lat="45.4357" lon="5.72675">
        <ele>478.1</ele>
        <time>2016-05-21T10:11:39Z</time>
      </trkpt>
      <trkpt lat="45.43565" lon="5.72663">
        <ele>479.1</ele>
        <time>2016-05-21T10:11:42Z</time>
      </trkpt>
      <trkpt lat="45.43564" lon="5.72652">
        <ele>479.6</ele>
        <time>2016-05-21T10:11:45Z</time>
      </trkpt>
      <trkpt lat="45.43567" lon="5.72642">
        <ele>480.1</ele>
        <time>2016-05-21T10:11:48Z</time>
      </trkpt>
      <trkpt lat="45.43573" lon="5.72634">
        <ele>480.7</ele>
        <time>2016-05-21T10:11:52Z</time>
      </trkpt>
      <trkpt lat="45.4358" lon="5.72623">
        <ele>481.2</ele>
        <time>2016-05-21T10:11:55Z</time>
      </trkpt>
      <trkpt lat="45.43587" lon="5.72615">
        <ele>481.6</ele>
        <time>2016-05-21T10:11:58Z</time>
      </trkpt>
      <trkpt lat="45.43594" lon="5.72607">
        <ele>482.1</ele>
        <time>2016-05-21T10:12:01Z</time>
      </trkpt>
      <trkpt lat="45.436" lon="5.726">
        <ele>482.3</ele>
        <time>2016-05-21T10:12:04Z</time>
      </trkpt>
      <trkpt lat="45.43607" lon="5.72594">
        <ele>482.7</ele>
        <time>2016-05-21T10:12:07Z</time>
      </trkpt>
      <trkpt lat="45.43614" lon="5.72587">
        <ele>483.2</ele>
        <time>2016-05-21T10:12:10Z</time>
      </trkpt>
      <trkpt lat="45.43623" lon="5.7258">
        <ele>483.7</ele>
        <time>2016-05-21T10:12:13Z</time>
      </trkpt>
      <trkpt lat="45.4363" lon="5.72576">
        <ele>484.3</ele>
        <time>2016-05-21T10:12:16Z</time>
      </trkpt>
      <trkpt lat="45.4364" lon="5.72572">
        <ele>485</ele>
        <time>2016-05-21T10:12:19Z</time>
      </trkpt>
      <trkpt lat="45.4365" lon="5.72571">
        <ele>485.6</ele>
        <time>2016-05-21T10:12:22Z</time>
      </trkpt>
      <trkpt lat="45.43659" lon="5.72569">
        <ele>486.3</ele>
        <time>2016-05-21T10:12:25Z</time>
      </trkpt>
      <trkpt lat="45.43666" lon="5.72566">
        <ele>486.8</ele>
        <time>2016-05-21T10:12:27Z</time>
      </trkpt>
      <trkpt lat="45.43673" lon="5.72562">
        <ele>489.2</ele>
        <time>2016-05-21T10:12:29Z</time>
      </trkpt>
      <trkpt lat="45.43678" lon="5.72555">
        <ele>489.6</ele>
        <time>2016-05-21T10:12:31Z</time>
      </trkpt>
      <trkpt lat="45.43682" lon="5.7254">
        <ele>490.1</ele>
        <time>2016-05-21T10:12:34Z</time>
      </trkpt>
      <trkpt lat="45.43683" lon="5.72528">
        <ele>492.1</ele>
        <time>2016-05-21T10:12:36Z</time>
      </trkpt>
      <trkpt lat="45.43682" lon="5.72518">
        <ele>495.1</ele>
        <time>2016-05-21T10:12:38Z</time>
      </trkpt>
      <trkpt lat="45.4368" lon="5.72508">
        <ele>497.4</ele>
        <time>2016-05-21T10:12:40Z</time>
      </trkpt>
      <trkpt lat="45.43676" lon="5.72495">
        <ele>498.6</ele>
        <time>2016-05-21T10:12:43Z</time>
      </trkpt>
      <trkpt lat="45.43672" lon="5.72485">
        <ele>500.1</ele>
        <time>2016-05-21T10:12:45Z</time>
      </trkpt>
      <trkpt lat="45.43667" lon="5.72476">
        <ele>501.1</ele>
        <time>2016-05-21T10:12:47Z</time>
      </trkpt>
      <trkpt lat="45.43663" lon="5.72468">
        <ele>501.9</ele>
        <time>2016-05-21T10:12:49Z</time>
      </trkpt>
      <trkpt lat="45.43657" lon="5.7246">
        <ele>502.2</ele>
        <time>2016-05-21T10:12:51Z</time>
      </trkpt>
      <trkpt lat="45.43652" lon="5.72453">
        <ele>502.3</ele>
        <time>2016-05-21T10:12:53Z</time>
      </trkpt>
      <trkpt lat="45.43646" lon="5.72447">
        <ele>502.3</ele>
        <time>2016-05-21T10:12:55Z</time>
      </trkpt>
      <trkpt lat="45.43637" lon="5.72438">
        <ele>502.4</ele>
        <time>2016-05-21T10:12:58Z</time>
      </trkpt>
      <trkpt lat="45.4363" lon="5.72431">
        <ele>502.5</ele>
        <time>2016-05-21T10:13:00Z</time>
      </trkpt>
      <trkpt lat="45.43622" lon="5.72423">
        <ele>502.8</ele>
        <time>2016-05-21T10:13:03Z</time>
      </trkpt>
      <trkpt lat="45.43616" lon="5.72417">
        <ele>503</ele>
        <time>2016-05-21T10:13:05Z</time>
      </trkpt>
      <trkpt lat="45.43608" lon="5.72411">
        <ele>503.2</ele>
        <time>2016-05-21T10:13:08Z</time>
      </trkpt>
      <trkpt lat="45.436" lon="5.72405">
        <ele>503.2</ele>
        <time>2016-05-21T10:13:11Z</time>
      </trkpt>
      <trkpt lat="45.4359" lon="5.72399">
        <ele>503.3</ele>
        <time>2016-05-21T10:13:14Z</time>
      </trkpt>
      <trkpt lat="45.43582" lon="5.72392">
        <ele>503.6</ele>
        <time>2016-05-21T10:13:17Z</time>
      </trkpt>
      <trkpt lat="45.43574" lon="5.72385">
        <ele>503.9</ele>
        <time>2016-05-21T10:13:20Z</time>
      </trkpt>
      <trkpt lat="45.43566" lon="5.72379">
        <ele>504.2</ele>
        <time>2016-05-21T10:13:23Z</time>
      </trkpt>
      <trkpt lat="45.43557" lon="5.72373">
        <ele>504.6</ele>
        <time>2016-05-21T10:13:26Z</time>
      </trkpt>
      <trkpt lat="45.43549" lon="5.72366">
        <ele>505.2</ele>
        <time>2016-05-21T10:13:29Z</time>
      </trkpt>
      <trkpt lat="45.4354" lon="5.72359">
        <ele>505.8</ele>
        <time>2016-05-21T10:13:32Z</time>
      </trkpt>
      <trkpt lat="45.43531" lon="5.72353">
        <ele>506.3</ele>
        <time>2016-05-21T10:13:35Z</time>
      </trkpt>
      <trkpt lat="45.43522" lon="5.72348">
        <ele>506.6</ele>
        <time>2016-05-21T10:13:38Z</time>
      </trkpt>
      <trkpt lat="45.43514" lon="5.72344">
        <ele>507</ele>
        <time>2016-05-21T10:13:41Z</time>
      </trkpt>
      <trkpt lat="45.43506" lon="5.7234">
        <ele>507.6</ele>
        <time>2016-05-21T10:13:44Z</time>
      </trkpt>
      <trkpt lat="45.43497" lon="5.72334">
        <ele>508.1</ele>
        <time>2016-05-21T10:13:47Z</time>
      </trkpt>
      <trkpt lat="45.43487" lon="5.72329">
        <ele>508.6</ele>
        <time>2016-05-21T10:13:50Z</time>
      </trkpt>
      <trkpt lat="45.43478" lon="5.72324">
        <ele>509</ele>
        <time>2016-05-21T10:13:53Z</time>
      </trkpt>
      <trkpt lat="45.43471" lon="5.72319">
        <ele>509.4</ele>
        <time>2016-05-21T10:13:56Z</time>
      </trkpt>
      <trkpt lat="45.4346" lon="5.72314">
        <ele>510</ele>
        <time>2016-05-21T10:13:59Z</time>
      </trkpt>
      <trkpt lat="45.43453" lon="5.72309">
        <ele>510.7</ele>
        <time>2016-05-21T10:14:02Z</time>
      </trkpt>
      <trkpt lat="45.43445" lon="5.72302">
        <ele>511.3</ele>
        <time>2016-05-21T10:14:05Z</time>
      </trkpt>
      <trkpt lat="45.43438" lon="5.72297">
        <ele>512.1</ele>
        <time>2016-05-21T10:14:08Z</time>
      </trkpt>
      <trkpt lat="45.4343" lon="5.72294">
        <ele>512.8</ele>
        <time>2016-05-21T10:14:10Z</time>
      </trkpt>
      <trkpt lat="45.43421" lon="5.72289">
        <ele>513.9</ele>
        <time>2016-05-21T10:14:13Z</time>
      </trkpt>
      <trkpt lat="45.43411" lon="5.72286">
        <ele>514.9</ele>
        <time>2016-05-21T10:14:16Z</time>
      </trkpt>
      <trkpt lat="45.43402" lon="5.72281">
        <ele>515.7</ele>
        <time>2016-05-21T10:14:19Z</time>
      </trkpt>
      <trkpt lat="45.43393" lon="5.72277">
        <ele>516.3</ele>
        <time>2016-05-21T10:14:22Z</time>
      </trkpt>
      <trkpt lat="45.43385" lon="5.72274">
        <ele>517.1</ele>
        <time>2016-05-21T10:14:24Z</time>
      </trkpt>
      <trkpt lat="45.43378" lon="5.72271">
        <ele>518.3</ele>
        <time>2016-05-21T10:14:27Z</time>
      </trkpt>
      <trkpt lat="45.43371" lon="5.72268">
        <ele>521.7</ele>
        <time>2016-05-21T10:14:30Z</time>
      </trkpt>
      <trkpt lat="45.43361" lon="5.72261">
        <ele>522</ele>
        <time>2016-05-21T10:14:34Z</time>
      </trkpt>
      <trkpt lat="45.43352" lon="5.72257">
        <ele>522.3</ele>
        <time>2016-05-21T10:14:37Z</time>
      </trkpt>
      <trkpt lat="45.43343" lon="5.72252">
        <ele>522.7</ele>
        <time>2016-05-21T10:14:40Z</time>
      </trkpt>
      <trkpt lat="45.43336" lon="5.72247">
        <ele>523.2</ele>
        <time>2016-05-21T10:14:43Z</time>
      </trkpt>
      <trkpt lat="45.43331" lon="5.72234">
        <ele>523.6</ele>
        <time>2016-05-21T10:14:47Z</time>
      </trkpt>
      <trkpt lat="45.4333" lon="5.7222">
        <ele>524</ele>
        <time>2016-05-21T10:14:50Z</time>
      </trkpt>
      <trkpt lat="45.4333" lon="5.72209">
        <ele>524.4</ele>
        <time>2016-05-21T10:14:52Z</time>
      </trkpt>
      <trkpt lat="45.43331" lon="5.72197">
        <ele>524.7</ele>
        <time>2016-05-21T10:14:55Z</time>
      </trkpt>
      <trkpt lat="45.43332" lon="5.72186">
        <ele>524.5</ele>
        <time>2016-05-21T10:14:58Z</time>
      </trkpt>
      <trkpt lat="45.43331" lon="5.72176">
        <ele>524.2</ele>
        <time>2016-05-21T10:15:01Z</time>
      </trkpt>
      <trkpt lat="45.43332" lon="5.72163">
        <ele>524.3</ele>
        <time>2016-05-21T10:15:05Z</time>
      </trkpt>
      <trkpt lat="45.43332" lon="5.72148">
        <ele>524.7</ele>
        <time>2016-05-21T10:15:08Z</time>
      </trkpt>
      <trkpt lat="45.43331" lon="5.72136">
        <ele>525.3</ele>
        <time>2016-05-21T10:15:11Z</time>
      </trkpt>
      <trkpt lat="45.43329" lon="5.72122">
        <ele>526</ele>
        <time>2016-05-21T10:15:14Z</time>
      </trkpt>
      <trkpt lat="45.43327" lon="5.72109">
        <ele>526.5</ele>
        <time>2016-05-21T10:15:17Z</time>
      </trkpt>
      <trkpt lat="45.43326" lon="5.72095">
        <ele>526.9</ele>
        <time>2016-05-21T10:15:20Z</time>
      </trkpt>
      <trkpt lat="45.43326" lon="5.72084">
        <ele>527.3</ele>
        <time>2016-05-21T10:15:22Z</time>
      </trkpt>
      <trkpt lat="45.43327" lon="5.7207">
        <ele>528.1</ele>
        <time>2016-05-21T10:15:25Z</time>
      </trkpt>
      <trkpt lat="45.43329" lon="5.72057">
        <ele>528.7</ele>
        <time>2016-05-21T10:15:28Z</time>
      </trkpt>
      <trkpt lat="45.43331" lon="5.72046">
        <ele>529.1</ele>
        <time>2016-05-21T10:15:31Z</time>
      </trkpt>
      <trkpt lat="45.43333" lon="5.72034">
        <ele>529.6</ele>
        <time>2016-05-21T10:15:34Z</time>
      </trkpt>
      <trkpt lat="45.43335" lon="5.72022">
        <ele>530</ele>
        <time>2016-05-21T10:15:37Z</time>
      </trkpt>
      <trkpt lat="45.43336" lon="5.7201">
        <ele>530.4</ele>
        <time>2016-05-21T10:15:40Z</time>
      </trkpt>
      <trkpt lat="45.43333" lon="5.71997">
        <ele>530.6</ele>
        <time>2016-05-21T10:15:44Z</time>
      </trkpt>
      <trkpt lat="45.43329" lon="5.71984">
        <ele>530.9</ele>
        <time>2016-05-21T10:15:48Z</time>
      </trkpt>
      <trkpt lat="45.43325" lon="5.71972">
        <ele>531.1</ele>
        <time>2016-05-21T10:15:51Z</time>
      </trkpt>
      <trkpt lat="45.43321" lon="5.71959">
        <ele>531.2</ele>
        <time>2016-05-21T10:15:54Z</time>
      </trkpt>
      <trkpt lat="45.43317" lon="5.71947">
        <ele>531.4</ele>
        <time>2016-05-21T10:15:57Z</time>
      </trkpt>
      <trkpt lat="45.43311" lon="5.71936">
        <ele>531.6</ele>
        <time>2016-05-21T10:16:00Z</time>
      </trkpt>
      <trkpt lat="45.43305" lon="5.71926">
        <ele>531.6</ele>
        <time>2016-05-21T10:16:03Z</time>
      </trkpt>
      <trkpt lat="45.43297" lon="5.71917">
        <ele>531.5</ele>
        <time>2016-05-21T10:16:06Z</time>
      </trkpt>
      <trkpt lat="45.43291" lon="5.71911">
        <ele>531.7</ele>
        <time>2016-05-21T10:16:08Z</time>
      </trkpt>
      <trkpt lat="45.43284" lon="5.71905">
        <ele>531.8</ele>
        <time>2016-05-21T10:16:10Z</time>
      </trkpt>
      <trkpt lat="45.43275" lon="5.719">
        <ele>532.2</ele>
        <time>2016-05-21T10:16:13Z</time>
      </trkpt>
      <trkpt lat="45.43265" lon="5.71894">
        <ele>533</ele>
        <time>2016-05-21T10:16:16Z</time>
      </trkpt>
      <trkpt lat="45.43258" lon="5.71887">
        <ele>533.9</ele>
        <time>2016-05-21T10:16:19Z</time>
      </trkpt>
      <trkpt lat="45.4325" lon="5.7188">
        <ele>534.9</ele>
        <time>2016-05-21T10:16:22Z</time>
      </trkpt>
      <trkpt lat="45.43242" lon="5.71873">
        <ele>536</ele>
        <time>2016-05-21T10:16:25Z</time>
      </trkpt>
      <trkpt lat="45.43236" lon="5.71867">
        <ele>536.9</ele>
        <time>2016-05-21T10:16:28Z</time>
      </trkpt>
      <trkpt lat="45.4323" lon="5.71858">
        <ele>538.1</ele>
        <time>2016-05-21T10:16:31Z</time>
      </trkpt>
      <trkpt lat="45.43224" lon="5.7185">
        <ele>539.3</ele>
        <time>2016-05-21T10:16:34Z</time>
      </trkpt>
      <trkpt lat="45.43219" lon="5.71841">
        <ele>540.6</ele>
        <time>2016-05-21T10:16:37Z</time>
      </trkpt>
      <trkpt lat="45.43212" lon="5.71831">
        <ele>541.7</ele>
        <time>2016-05-21T10:16:40Z</time>
      </trkpt>
      <trkpt lat="45.43206" lon="5.71821">
        <ele>543</ele>
        <time>2016-05-21T10:16:43Z</time>
      </trkpt>
      <trkpt lat="45.43198" lon="5.71812">
        <ele>544.2</ele>
        <time>2016-05-21T10:16:46Z</time>
      </trkpt>
      <trkpt lat="45.4319" lon="5.71805">
        <ele>545.2</ele>
        <time>2016-05-21T10:16:49Z</time>
      </trkpt>
      <trkpt lat="45.43182" lon="5.71798">
        <ele>546</ele>
        <time>2016-05-21T10:16:52Z</time>
      </trkpt>
      <trkpt lat="45.43175" lon="5.71792">
        <ele>546.8</ele>
        <time>2016-05-21T10:16:55Z</time>
      </trkpt>
      <trkpt lat="45.43167" lon="5.71786">
        <ele>547.5</ele>
        <time>2016-05-21T10:16:58Z</time>
      </trkpt>
      <trkpt lat="45.43159" lon="5.71777">
        <ele>548.3</ele>
        <time>2016-05-21T10:17:01Z</time>
      </trkpt>
      <trkpt lat="45.43154" lon="5.7177">
        <ele>548.6</ele>
        <time>2016-05-21T10:17:03Z</time>
      </trkpt>
      <trkpt lat="45.43147" lon="5.71761">
        <ele>549.2</ele>
        <time>2016-05-21T10:17:06Z</time>
      </trkpt>
      <trkpt lat="45.43142" lon="5.71752">
        <ele>550</ele>
        <time>2016-05-21T10:17:09Z</time>
      </trkpt>
      <trkpt lat="45.43139" lon="5.71742">
        <ele>551</ele>
        <time>2016-05-21T10:17:12Z</time>
      </trkpt>
      <trkpt lat="45.43134" lon="5.71731">
        <ele>552</ele>
        <time>2016-05-21T10:17:15Z</time>
      </trkpt>
      <trkpt lat="45.4313" lon="5.7172">
        <ele>553.2</ele>
        <time>2016-05-21T10:17:18Z</time>
      </trkpt>
      <trkpt lat="45.43127" lon="5.71707">
        <ele>554.3</ele>
        <time>2016-05-21T10:17:21Z</time>
      </trkpt>
      <trkpt lat="45.43123" lon="5.71696">
        <ele>555.2</ele>
        <time>2016-05-21T10:17:24Z</time>
      </trkpt>
      <trkpt lat="45.43119" lon="5.71684">
        <ele>556.1</ele>
        <time>2016-05-21T10:17:27Z</time>
      </trkpt>
      <trkpt lat="45.43116" lon="5.71672">
        <ele>556.8</ele>
        <time>2016-05-21T10:17:30Z</time>
      </trkpt>
      <trkpt lat="45.43113" lon="5.7166">
        <ele>557.8</ele>
        <time>2016-05-21T10:17:33Z</time>
      </trkpt>
      <trkpt lat="45.43111" lon="5.71647">
        <ele>558.8</ele>
        <time>2016-05-21T10:17:36Z</time>
      </trkpt>
      <trkpt lat="45.43109" lon="5.71636">
        <ele>559.4</ele>
        <time>2016-05-21T10:17:39Z</time>
      </trkpt>
      <trkpt lat="45.43108" lon="5.71623">
        <ele>560.1</ele>
        <time>2016-05-21T10:17:43Z</time>
      </trkpt>
      <trkpt lat="45.43106" lon="5.71613">
        <ele>560.6</ele>
        <time>2016-05-21T10:17:46Z</time>
      </trkpt>
      <trkpt lat="45.43103" lon="5.71602">
        <ele>561.2</ele>
        <time>2016-05-21T10:17:49Z</time>
      </trkpt>
      <trkpt lat="45.43098" lon="5.7159">
        <ele>561.8</ele>
        <time>2016-05-21T10:17:52Z</time>
      </trkpt>
      <trkpt lat="45.43091" lon="5.7158">
        <ele>562.5</ele>
        <time>2016-05-21T10:17:55Z</time>
      </trkpt>
      <trkpt lat="45.43085" lon="5.71569">
        <ele>563.3</ele>
        <time>2016-05-21T10:17:59Z</time>
      </trkpt>
      <trkpt lat="45.43075" lon="5.71561">
        <ele>563.9</ele>
        <time>2016-05-21T10:18:02Z</time>
      </trkpt>
      <trkpt lat="45.43068" lon="5.71556">
        <ele>564.6</ele>
        <time>2016-05-21T10:18:05Z</time>
      </trkpt>
      <trkpt lat="45.43057" lon="5.71553">
        <ele>565.6</ele>
        <time>2016-05-21T10:18:08Z</time>
      </trkpt>
      <trkpt lat="45.43046" lon="5.71554">
        <ele>566.3</ele>
        <time>2016-05-21T10:18:11Z</time>
      </trkpt>
      <trkpt lat="45.43037" lon="5.71552">
        <ele>566.5</ele>
        <time>2016-05-21T10:18:14Z</time>
      </trkpt>
      <trkpt lat="45.4303" lon="5.71554">
        <ele>566.6</ele>
        <time>2016-05-21T10:18:17Z</time>
      </trkpt>
      <trkpt lat="45.4302" lon="5.71548">
        <ele>567</ele>
        <time>2016-05-21T10:18:21Z</time>
      </trkpt>
      <trkpt lat="45.4301" lon="5.71548">
        <ele>567.8</ele>
        <time>2016-05-21T10:18:24Z</time>
      </trkpt>
      <trkpt lat="45.43001" lon="5.71544">
        <ele>568.9</ele>
        <time>2016-05-21T10:18:27Z</time>
      </trkpt>
      <trkpt lat="45.42992" lon="5.71538">
        <ele>570</ele>
        <time>2016-05-21T10:18:30Z</time>
      </trkpt>
      <trkpt lat="45.42984" lon="5.71529">
        <ele>570.8</ele>
        <time>2016-05-21T10:18:33Z</time>
      </trkpt>
      <trkpt lat="45.42979" lon="5.7152">
        <ele>571.6</ele>
        <time>2016-05-21T10:18:36Z</time>
      </trkpt>
      <trkpt lat="45.42974" lon="5.71511">
        <ele>572.2</ele>
        <time>2016-05-21T10:18:39Z</time>
      </trkpt>
      <trkpt lat="45.42969" lon="5.71502">
        <ele>572.9</ele>
        <time>2016-05-21T10:18:42Z</time>
      </trkpt>
      <trkpt lat="45.42963" lon="5.71495">
        <ele>573.6</ele>
        <time>2016-05-21T10:18:45Z</time>
      </trkpt>
      <trkpt lat="45.42958" lon="5.71485">
        <ele>574.3</ele>
        <time>2016-05-21T10:18:48Z</time>
      </trkpt>
      <trkpt lat="45.42954" lon="5.71475">
        <ele>575</ele>
        <time>2016-05-21T10:18:51Z</time>
      </trkpt>
      <trkpt lat="45.4295" lon="5.71465">
        <ele>575.9</ele>
        <time>2016-05-21T10:18:54Z</time>
      </trkpt>
      <trkpt lat="45.42945" lon="5.71452">
        <ele>576.8</ele>
        <time>2016-05-21T10:18:57Z</time>
      </trkpt>
      <trkpt lat="45.4294" lon="5.71442">
        <ele>577.2</ele>
        <time>2016-05-21T10:18:59Z</time>
      </trkpt>
      <trkpt lat="45.42937" lon="5.71433">
        <ele>577.7</ele>
        <time>2016-05-21T10:19:01Z</time>
      </trkpt>
      <trkpt lat="45.42933" lon="5.7142">
        <ele>578.5</ele>
        <time>2016-05-21T10:19:04Z</time>
      </trkpt>
      <trkpt lat="45.42931" lon="5.71408">
        <ele>579</ele>
        <time>2016-05-21T10:19:07Z</time>
      </trkpt>
      <trkpt lat="45.42929" lon="5.71394">
        <ele>579.5</ele>
        <time>2016-05-21T10:19:10Z</time>
      </trkpt>
      <trkpt lat="45.42929" lon="5.7138">
        <ele>579.9</ele>
        <time>2016-05-21T10:19:13Z</time>
      </trkpt>
      <trkpt lat="45.4293" lon="5.71369">
        <ele>580.1</ele>
        <time>2016-05-21T10:19:16Z</time>
      </trkpt>
      <trkpt lat="45.42933" lon="5.71357">
        <ele>580.1</ele>
        <time>2016-05-21T10:19:19Z</time>
      </trkpt>
      <trkpt lat="45.42938" lon="5.71348">
        <ele>580.3</ele>
        <time>2016-05-21T10:19:22Z</time>
      </trkpt>
      <trkpt lat="45.42946" lon="5.71341">
        <ele>580.8</ele>
        <time>2016-05-21T10:19:26Z</time>
      </trkpt>
      <trkpt lat="45.42953" lon="5.7134">
        <ele>581.3</ele>
        <time>2016-05-21T10:19:29Z</time>
      </trkpt>
      <trkpt lat="45.42961" lon="5.71341">
        <ele>582.2</ele>
        <time>2016-05-21T10:19:32Z</time>
      </trkpt>
      <trkpt lat="45.4297" lon="5.71341">
        <ele>583.4</ele>
        <time>2016-05-21T10:19:36Z</time>
      </trkpt>
      <trkpt lat="45.42978" lon="5.71343">
        <ele>584.3</ele>
        <time>2016-05-21T10:19:39Z</time>
      </trkpt>
      <trkpt lat="45.42987" lon="5.71345">
        <ele>585</ele>
        <time>2016-05-21T10:19:42Z</time>
      </trkpt>
      <trkpt lat="45.42995" lon="5.71348">
        <ele>585.6</ele>
        <time>2016-05-21T10:19:45Z</time>
      </trkpt>
      <trkpt lat="45.43005" lon="5.71349">
        <ele>586.3</ele>
        <time>2016-05-21T10:19:48Z</time>
      </trkpt>
      <trkpt lat="45.43015" lon="5.71352">
        <ele>587.1</ele>
        <time>2016-05-21T10:19:51Z</time>
      </trkpt>
      <trkpt lat="45.43025" lon="5.71354">
        <ele>588</ele>
        <time>2016-05-21T10:19:54Z</time>
      </trkpt>
      <trkpt lat="45.43034" lon="5.71354">
        <ele>589.2</ele>
        <time>2016-05-21T10:19:57Z</time>
      </trkpt>
      <trkpt lat="45.43041" lon="5.71354">
        <ele>590.2</ele>
        <time>2016-05-21T10:20:00Z</time>
      </trkpt>
      <trkpt lat="45.43049" lon="5.71354">
        <ele>591.2</ele>
        <time>2016-05-21T10:20:03Z</time>
      </trkpt>
      <trkpt lat="45.43057" lon="5.71355">
        <ele>592.3</ele>
        <time>2016-05-21T10:20:06Z</time>
      </trkpt>
      <trkpt lat="45.43066" lon="5.71355">
        <ele>593.1</ele>
        <time>2016-05-21T10:20:09Z</time>
      </trkpt>
      <trkpt lat="45.43074" lon="5.71358">
        <ele>593.6</ele>
        <time>2016-05-21T10:20:11Z</time>
      </trkpt>
      <trkpt lat="45.43082" lon="5.71361">
        <ele>594</ele>
        <time>2016-05-21T10:20:13Z</time>
      </trkpt>
      <trkpt lat="45.43092" lon="5.71364">
        <ele>594.8</ele>
        <time>2016-05-21T10:20:16Z</time>
      </trkpt>
      <trkpt lat="45.43102" lon="5.71367">
        <ele>595.6</ele>
        <time>2016-05-21T10:20:19Z</time>
      </trkpt>
      <trkpt lat="45.4311" lon="5.71366">
        <ele>596.1</ele>
        <time>2016-05-21T10:20:22Z</time>
      </trkpt>
      <trkpt lat="45.43117" lon="5.71364">
        <ele>596.7</ele>
        <time>2016-05-21T10:20:25Z</time>
      </trkpt>
      <trkpt lat="45.43125" lon="5.71359">
        <ele>598.2</ele>
        <time>2016-05-21T10:20:29Z</time>
      </trkpt>
      <trkpt lat="45.4313" lon="5.7135">
        <ele>599.8</ele>
        <time>2016-05-21T10:20:33Z</time>
      </trkpt>
      <trkpt lat="45.4313" lon="5.71338">
        <ele>601.3</ele>
        <time>2016-05-21T10:20:37Z</time>
      </trkpt>
      <trkpt lat="45.4313" lon="5.71326">
        <ele>602.2</ele>
        <time>2016-05-21T10:20:40Z</time>
      </trkpt>
      <trkpt lat="45.43129" lon="5.71311">
        <ele>602.4</ele>
        <time>2016-05-21T10:20:43Z</time>
      </trkpt>
      <trkpt lat="45.43127" lon="5.713">
        <ele>602.8</ele>
        <time>2016-05-21T10:20:45Z</time>
      </trkpt>
      <trkpt lat="45.43124" lon="5.71286">
        <ele>603.3</ele>
        <time>2016-05-21T10:20:48Z</time>
      </trkpt>
      <trkpt lat="45.4312" lon="5.71274">
        <ele>604</ele>
        <time>2016-05-21T10:20:51Z</time>
      </trkpt>
      <trkpt lat="45.43117" lon="5.71262">
        <ele>604.8</ele>
        <time>2016-05-21T10:20:54Z</time>
      </trkpt>
      <trkpt lat="45.43111" lon="5.71251">
        <ele>605.5</ele>
        <time>2016-05-21T10:20:57Z</time>
      </trkpt>
      <trkpt lat="45.43106" lon="5.7124">
        <ele>605.7</ele>
        <time>2016-05-21T10:21:00Z</time>
      </trkpt>
      <trkpt lat="45.43101" lon="5.71232">
        <ele>606.3</ele>
        <time>2016-05-21T10:21:03Z</time>
      </trkpt>
      <trkpt lat="45.43098" lon="5.71222">
        <ele>606.9</ele>
        <time>2016-05-21T10:21:05Z</time>
      </trkpt>
      <trkpt lat="45.43095" lon="5.71213">
        <ele>607.3</ele>
        <time>2016-05-21T10:21:07Z</time>
      </trkpt>
      <trkpt lat="45.4309" lon="5.71203">
        <ele>607.5</ele>
        <time>2016-05-21T10:21:09Z</time>
      </trkpt>
      <trkpt lat="45.43086" lon="5.71194">
        <ele>607.7</ele>
        <time>2016-05-21T10:21:11Z</time>
      </trkpt>
      <trkpt lat="45.43082" lon="5.71185">
        <ele>607.9</ele>
        <time>2016-05-21T10:21:13Z</time>
      </trkpt>
      <trkpt lat="45.43077" lon="5.71176">
        <ele>607.9</ele>
        <time>2016-05-21T10:21:15Z</time>
      </trkpt>
      <trkpt lat="45.43072" lon="5.71168">
        <ele>607.9</ele>
        <time>2016-05-21T10:21:17Z</time>
      </trkpt>
      <trkpt lat="45.43067" lon="5.71157">
        <ele>607.9</ele>
        <time>2016-05-21T10:21:20Z</time>
      </trkpt>
      <trkpt lat="45.43062" lon="5.71147">
        <ele>608.2</ele>
        <time>2016-05-21T10:21:23Z</time>
      </trkpt>
      <trkpt lat="45.43056" lon="5.71137">
        <ele>608.5</ele>
        <time>2016-05-21T10:21:26Z</time>
      </trkpt>
      <trkpt lat="45.43051" lon="5.71128">
        <ele>608.7</ele>
        <time>2016-05-21T10:21:28Z</time>
      </trkpt>
      <trkpt lat="45.43045" lon="5.71118">
        <ele>608.8</ele>
        <time>2016-05-21T10:21:31Z</time>
      </trkpt>
      <trkpt lat="45.4304" lon="5.71108">
        <ele>609</ele>
        <time>2016-05-21T10:21:34Z</time>
      </trkpt>
      <trkpt lat="45.43036" lon="5.71098">
        <ele>609.3</ele>
        <time>2016-05-21T10:21:37Z</time>
      </trkpt>
      <trkpt lat="45.43031" lon="5.71088">
        <ele>609.5</ele>
        <time>2016-05-21T10:21:40Z</time>
      </trkpt>
      <trkpt lat="45.43027" lon="5.71077">
        <ele>610</ele>
        <time>2016-05-21T10:21:43Z</time>
      </trkpt>
      <trkpt lat="45.43022" lon="5.71066">
        <ele>610.5</ele>
        <time>2016-05-21T10:21:46Z</time>
      </trkpt>
      <trkpt lat="45.43016" lon="5.71056">
        <ele>611.1</ele>
        <time>2016-05-21T10:21:49Z</time>
      </trkpt>
      <trkpt lat="45.4301" lon="5.71043">
        <ele>611.9</ele>
        <time>2016-05-21T10:21:52Z</time>
      </trkpt>
      <trkpt lat="45.43004" lon="5.71034">
        <ele>612.5</ele>
        <time>2016-05-21T10:21:55Z</time>
      </trkpt>
      <trkpt lat="45.42997" lon="5.71024">
        <ele>612.7</ele>
        <time>2016-05-21T10:21:58Z</time>
      </trkpt>
      <trkpt lat="45.42991" lon="5.71014">
        <ele>613.1</ele>
        <time>2016-05-21T10:22:01Z</time>
      </trkpt>
      <trkpt lat="45.42984" lon="5.71005">
        <ele>613.5</ele>
        <time>2016-05-21T10:22:04Z</time>
      </trkpt>
      <trkpt lat="45.42979" lon="5.70998">
        <ele>614</ele>
        <time>2016-05-21T10:22:06Z</time>
      </trkpt>
      <trkpt lat="45.42973" lon="5.7099">
        <ele>614.8</ele>
        <time>2016-05-21T10:22:09Z</time>
      </trkpt>
      <trkpt lat="45.42963" lon="5.70984">
        <ele>615.5</ele>
        <time>2016-05-21T10:22:12Z</time>
      </trkpt>
      <trkpt lat="45.42955" lon="5.70978">
        <ele>616.1</ele>
        <time>2016-05-21T10:22:15Z</time>
      </trkpt>
      <trkpt lat="45.42948" lon="5.7097">
        <ele>616.9</ele>
        <time>2016-05-21T10:22:18Z</time>
      </trkpt>
      <trkpt lat="45.42941" lon="5.70963">
        <ele>617.7</ele>
        <time>2016-05-21T10:22:21Z</time>
      </trkpt>
      <trkpt lat="45.42933" lon="5.70956">
        <ele>618.6</ele>
        <time>2016-05-21T10:22:25Z</time>
      </trkpt>
      <trkpt lat="45.42926" lon="5.70949">
        <ele>619.1</ele>
        <time>2016-05-21T10:22:28Z</time>
      </trkpt>
      <trkpt lat="45.4292" lon="5.70942">
        <ele>619.5</ele>
        <time>2016-05-21T10:22:30Z</time>
      </trkpt>
      <trkpt lat="45.42913" lon="5.70932">
        <ele>620</ele>
        <time>2016-05-21T10:22:33Z</time>
      </trkpt>
      <trkpt lat="45.42907" lon="5.70925">
        <ele>620.3</ele>
        <time>2016-05-21T10:22:35Z</time>
      </trkpt>
      <trkpt lat="45.42901" lon="5.70916">
        <ele>621</ele>
        <time>2016-05-21T10:22:38Z</time>
      </trkpt>
      <trkpt lat="45.42896" lon="5.70908">
        <ele>621.7</ele>
        <time>2016-05-21T10:22:41Z</time>
      </trkpt>
      <trkpt lat="45.42889" lon="5.70898">
        <ele>622.4</ele>
        <time>2016-05-21T10:22:44Z</time>
      </trkpt>
      <trkpt lat="45.42885" lon="5.70889">
        <ele>623</ele>
        <time>2016-05-21T10:22:47Z</time>
      </trkpt>
      <trkpt lat="45.42881" lon="5.70878">
        <ele>623.7</ele>
        <time>2016-05-21T10:22:50Z</time>
      </trkpt>
      <trkpt lat="45.42875" lon="5.70872">
        <ele>624.4</ele>
        <time>2016-05-21T10:22:53Z</time>
      </trkpt>
      <trkpt lat="45.42868" lon="5.70862">
        <ele>627.5</ele>
        <time>2016-05-21T10:22:56Z</time>
      </trkpt>
      <trkpt lat="45.42862" lon="5.70856">
        <ele>628</ele>
        <time>2016-05-21T10:22:58Z</time>
      </trkpt>
      <trkpt lat="45.42854" lon="5.7085">
        <ele>628.5</ele>
        <time>2016-05-21T10:23:01Z</time>
      </trkpt>
      <trkpt lat="45.42846" lon="5.70842">
        <ele>628.9</ele>
        <time>2016-05-21T10:23:04Z</time>
      </trkpt>
      <trkpt lat="45.42838" lon="5.70831">
        <ele>629.5</ele>
        <time>2016-05-21T10:23:07Z</time>
      </trkpt>
      <trkpt lat="45.42828" lon="5.70822">
        <ele>634.6</ele>
        <time>2016-05-21T10:23:09Z</time>
      </trkpt>
      <trkpt lat="45.42823" lon="5.70814">
        <ele>637.5</ele>
        <time>2016-05-21T10:23:10Z</time>
      </trkpt>
      <trkpt lat="45.42816" lon="5.70806">
        <ele>638.9</ele>
        <time>2016-05-21T10:23:11Z</time>
      </trkpt>
      <trkpt lat="45.4281" lon="5.70799">
        <ele>639.6</ele>
        <time>2016-05-21T10:23:12Z</time>
      </trkpt>
      <trkpt lat="45.42799" lon="5.70787">
        <ele>641.8</ele>
        <time>2016-05-21T10:23:14Z</time>
      </trkpt>
      <trkpt lat="45.42788" lon="5.70775">
        <ele>642.5</ele>
        <time>2016-05-21T10:23:16Z</time>
      </trkpt>
      <trkpt lat="45.42777" lon="5.70766">
        <ele>642.7</ele>
        <time>2016-05-21T10:23:18Z</time>
      </trkpt>
      <trkpt lat="45.42767" lon="5.70757">
        <ele>642.6</ele>
        <time>2016-05-21T10:23:20Z</time>
      </trkpt>
      <trkpt lat="45.42758" lon="5.70752">
        <ele>641.2</ele>
        <time>2016-05-21T10:23:22Z</time>
      </trkpt>
      <trkpt lat="45.42748" lon="5.70745">
        <ele>639.1</ele>
        <time>2016-05-21T10:23:24Z</time>
      </trkpt>
      <trkpt lat="45.42739" lon="5.70739">
        <ele>637.1</ele>
        <time>2016-05-21T10:23:26Z</time>
      </trkpt>
      <trkpt lat="45.42732" lon="5.70734">
        <ele>635.7</ele>
        <time>2016-05-21T10:23:28Z</time>
      </trkpt>
      <trkpt lat="45.42726" lon="5.70724">
        <ele>635.3</ele>
        <time>2016-05-21T10:23:31Z</time>
      </trkpt>
      <trkpt lat="45.4273" lon="5.70715">
        <ele>635.3</ele>
        <time>2016-05-21T10:23:34Z</time>
      </trkpt>
      <trkpt lat="45.42738" lon="5.70717">
        <ele>635.9</ele>
        <time>2016-05-21T10:23:39Z</time>
      </trkpt>
      <trkpt lat="45.42746" lon="5.70721">
        <ele>636.3</ele>
        <time>2016-05-21T10:23:42Z</time>
      </trkpt>
      <trkpt lat="45.42755" lon="5.70722">
        <ele>636.7</ele>
        <time>2016-05-21T10:23:45Z</time>
      </trkpt>
      <trkpt lat="45.42762" lon="5.70723">
        <ele>637</ele>
        <time>2016-05-21T10:23:47Z</time>
      </trkpt>
      <trkpt lat="45.42771" lon="5.70726">
        <ele>637.3</ele>
        <time>2016-05-21T10:23:50Z</time>
      </trkpt>
      <trkpt lat="45.42779" lon="5.70728">
        <ele>637.5</ele>
        <time>2016-05-21T10:23:53Z</time>
      </trkpt>
      <trkpt lat="45.42787" lon="5.70728">
        <ele>637.7</ele>
        <time>2016-05-21T10:23:56Z</time>
      </trkpt>
      <trkpt lat="45.42795" lon="5.70729">
        <ele>637.8</ele>
        <time>2016-05-21T10:23:59Z</time>
      </trkpt>
      <trkpt lat="45.42805" lon="5.7073">
        <ele>637.8</ele>
        <time>2016-05-21T10:24:03Z</time>
      </trkpt>
      <trkpt lat="45.42813" lon="5.70732">
        <ele>638</ele>
        <time>2016-05-21T10:24:06Z</time>
      </trkpt>
      <trkpt lat="45.42823" lon="5.70734">
        <ele>638.2</ele>
        <time>2016-05-21T10:24:09Z</time>
      </trkpt>
      <trkpt lat="45.42832" lon="5.70736">
        <ele>638.4</ele>
        <time>2016-05-21T10:24:12Z</time>
      </trkpt>
      <trkpt lat="45.42839" lon="5.70739">
        <ele>638.7</ele>
        <time>2016-05-21T10:24:15Z</time>
      </trkpt>
      <trkpt lat="45.42847" lon="5.70745">
        <ele>639.4</ele>
        <time>2016-05-21T10:24:19Z</time>
      </trkpt>
      <trkpt lat="45.42851" lon="5.70754">
        <ele>640.8</ele>
        <time>2016-05-21T10:24:22Z</time>
      </trkpt>
      <trkpt lat="45.42857" lon="5.70761">
        <ele>642.8</ele>
        <time>2016-05-21T10:24:25Z</time>
      </trkpt>
      <trkpt lat="45.42863" lon="5.70766">
        <ele>645</ele>
        <time>2016-05-21T10:24:28Z</time>
      </trkpt>
      <trkpt lat="45.42871" lon="5.70773">
        <ele>646.5</ele>
        <time>2016-05-21T10:24:31Z</time>
      </trkpt>
      <trkpt lat="45.42878" lon="5.70782">
        <ele>647.4</ele>
        <time>2016-05-21T10:24:34Z</time>
      </trkpt>
      <trkpt lat="45.42885" lon="5.70788">
        <ele>649.9</ele>
        <time>2016-05-21T10:24:36Z</time>
      </trkpt>
      <trkpt lat="45.42893" lon="5.70796">
        <ele>650.4</ele>
        <time>2016-05-21T10:24:39Z</time>
      </trkpt>
      <trkpt lat="45.42903" lon="5.70801">
        <ele>651.1</ele>
        <time>2016-05-21T10:24:42Z</time>
      </trkpt>
      <trkpt lat="45.42913" lon="5.70806">
        <ele>651.7</ele>
        <time>2016-05-21T10:24:45Z</time>
      </trkpt>
      <trkpt lat="45.42921" lon="5.70811">
        <ele>651.9</ele>
        <time>2016-05-21T10:24:47Z</time>
      </trkpt>
      <trkpt lat="45.42928" lon="5.70813">
        <ele>652.1</ele>
        <time>2016-05-21T10:24:49Z</time>
      </trkpt>
      <trkpt lat="45.42935" lon="5.70816">
        <ele>652.4</ele>
        <time>2016-05-21T10:24:51Z</time>
      </trkpt>
      <trkpt lat="45.42944" lon="5.70818">
        <ele>652.8</ele>
        <time>2016-05-21T10:24:54Z</time>
      </trkpt>
      <trkpt lat="45.42954" lon="5.70823">
        <ele>653.1</ele>
        <time>2016-05-21T10:24:57Z</time>
      </trkpt>
      <trkpt lat="45.42961" lon="5.70826">
        <ele>653.3</ele>
        <time>2016-05-21T10:24:59Z</time>
      </trkpt>
      <trkpt lat="45.4297" lon="5.70828">
        <ele>653.3</ele>
        <time>2016-05-21T10:25:01Z</time>
      </trkpt>
      <trkpt lat="45.4298" lon="5.7083">
        <ele>653.4</ele>
        <time>2016-05-21T10:25:04Z</time>
      </trkpt>
      <trkpt lat="45.42988" lon="5.70833">
        <ele>653.6</ele>
        <time>2016-05-21T10:25:07Z</time>
      </trkpt>
      <trkpt lat="45.42997" lon="5.70835">
        <ele>653.9</ele>
        <time>2016-05-21T10:25:10Z</time>
      </trkpt>
      <trkpt lat="45.43006" lon="5.70839">
        <ele>654.6</ele>
        <time>2016-05-21T10:25:13Z</time>
      </trkpt>
      <trkpt lat="45.43016" lon="5.70843">
        <ele>655.1</ele>
        <time>2016-05-21T10:25:16Z</time>
      </trkpt>
      <trkpt lat="45.43024" lon="5.70844">
        <ele>655.3</ele>
        <time>2016-05-21T10:25:19Z</time>
      </trkpt>
      <trkpt lat="45.43034" lon="5.70848">
        <ele>655.7</ele>
        <time>2016-05-21T10:25:22Z</time>
      </trkpt>
      <trkpt lat="45.43044" lon="5.70851">
        <ele>656</ele>
        <time>2016-05-21T10:25:25Z</time>
      </trkpt>
      <trkpt lat="45.43054" lon="5.70854">
        <ele>656.5</ele>
        <time>2016-05-21T10:25:28Z</time>
      </trkpt>
      <trkpt lat="45.43061" lon="5.70857">
        <ele>659.4</ele>
        <time>2016-05-21T10:25:30Z</time>
      </trkpt>
      <trkpt lat="45.4307" lon="5.70856">
        <ele>662.3</ele>
        <time>2016-05-21T10:25:32Z</time>
      </trkpt>
      <trkpt lat="45.43078" lon="5.70855">
        <ele>662.7</ele>
        <time>2016-05-21T10:25:34Z</time>
      </trkpt>
      <trkpt lat="45.43088" lon="5.70856">
        <ele>666.5</ele>
        <time>2016-05-21T10:25:36Z</time>
      </trkpt>
      <trkpt lat="45.43097" lon="5.70857">
        <ele>669.4</ele>
        <time>2016-05-21T10:25:38Z</time>
      </trkpt>
      <trkpt lat="45.43105" lon="5.70856">
        <ele>671.6</ele>
        <time>2016-05-21T10:25:40Z</time>
      </trkpt>
      <trkpt lat="45.43113" lon="5.70857">
        <ele>673</ele>
        <time>2016-05-21T10:25:42Z</time>
      </trkpt>
      <trkpt lat="45.43121" lon="5.70861">
        <ele>672.9</ele>
        <time>2016-05-21T10:25:44Z</time>
      </trkpt>
      <trkpt lat="45.4313" lon="5.70867">
        <ele>671.6</ele>
        <time>2016-05-21T10:25:46Z</time>
      </trkpt>
      <trkpt lat="45.43138" lon="5.70873">
        <ele>670.3</ele>
        <time>2016-05-21T10:25:48Z</time>
      </trkpt>
      <trkpt lat="45.43148" lon="5.70879">
        <ele>667.9</ele>
        <time>2016-05-21T10:25:50Z</time>
      </trkpt>
      <trkpt lat="45.43157" lon="5.70886">
        <ele>666.4</ele>
        <time>2016-05-21T10:25:52Z</time>
      </trkpt>
      <trkpt lat="45.43167" lon="5.70891">
        <ele>665.7</ele>
        <time>2016-05-21T10:25:54Z</time>
      </trkpt>
      <trkpt lat="45.43177" lon="5.70895">
        <ele>665.2</ele>
        <time>2016-05-21T10:25:56Z</time>
      </trkpt>
      <trkpt lat="45.43187" lon="5.709">
        <ele>665.5</ele>
        <time>2016-05-21T10:25:58Z</time>
      </trkpt>
      <trkpt lat="45.43197" lon="5.70907">
        <ele>662.8</ele>
        <time>2016-05-21T10:26:00Z</time>
      </trkpt>
      <trkpt lat="45.43207" lon="5.70914">
        <ele>660.6</ele>
        <time>2016-05-21T10:26:02Z</time>
      </trkpt>
      <trkpt lat="45.43215" lon="5.70921">
        <ele>659.5</ele>
        <time>2016-05-21T10:26:04Z</time>
      </trkpt>
      <trkpt lat="45.43223" lon="5.70932">
        <ele>662.9</ele>
        <time>2016-05-21T10:26:06Z</time>
      </trkpt>
      <trkpt lat="45.4323" lon="5.70943">
        <ele>663.8</ele>
        <time>2016-05-21T10:26:08Z</time>
      </trkpt>
      <trkpt lat="45.43238" lon="5.70953">
        <ele>663.2</ele>
        <time>2016-05-21T10:26:10Z</time>
      </trkpt>
      <trkpt lat="45.43247" lon="5.70962">
        <ele>662.7</ele>
        <time>2016-05-21T10:26:12Z</time>
      </trkpt>
      <trkpt lat="45.43258" lon="5.70969">
        <ele>663.8</ele>
        <time>2016-05-21T10:26:14Z</time>
      </trkpt>
      <trkpt lat="45.4327" lon="5.70972">
        <ele>666</ele>
        <time>2016-05-21T10:26:16Z</time>
      </trkpt>
      <trkpt lat="45.43284" lon="5.70974">
        <ele>667.7</ele>
        <time>2016-05-21T10:26:18Z</time>
      </trkpt>
      <trkpt lat="45.43292" lon="5.70975">
        <ele>668.3</ele>
        <time>2016-05-21T10:26:19Z</time>
      </trkpt>
      <trkpt lat="45.43299" lon="5.70976">
        <ele>668.6</ele>
        <time>2016-05-21T10:26:20Z</time>
      </trkpt>
      <trkpt lat="45.43307" lon="5.70977">
        <ele>668.8</ele>
        <time>2016-05-21T10:26:21Z</time>
      </trkpt>
      <trkpt lat="45.43315" lon="5.70978">
        <ele>668.4</ele>
        <time>2016-05-21T10:26:22Z</time>
      </trkpt>
      <trkpt lat="45.43323" lon="5.7098">
        <ele>668.2</ele>
        <time>2016-05-21T10:26:23Z</time>
      </trkpt>
      <trkpt lat="45.4333" lon="5.70982">
        <ele>668.1</ele>
        <time>2016-05-21T10:26:24Z</time>
      </trkpt>
      <trkpt lat="45.43338" lon="5.70983">
        <ele>667.9</ele>
        <time>2016-05-21T10:26:25Z</time>
      </trkpt>
      <trkpt lat="45.43354" lon="5.70985">
        <ele>667</ele>
        <time>2016-05-21T10:26:27Z</time>
      </trkpt>
      <trkpt lat="45.43365" lon="5.70986">
        <ele>665.4</ele>
        <time>2016-05-21T10:26:29Z</time>
      </trkpt>
      <trkpt lat="45.43378" lon="5.7099">
        <ele>664.3</ele>
        <time>2016-05-21T10:26:31Z</time>
      </trkpt>
      <trkpt lat="45.43386" lon="5.70988">
        <ele>664.5</ele>
        <time>2016-05-21T10:26:32Z</time>
      </trkpt>
      <trkpt lat="45.43399" lon="5.70984">
        <ele>664.5</ele>
        <time>2016-05-21T10:26:34Z</time>
      </trkpt>
      <trkpt lat="45.43411" lon="5.70979">
        <ele>663.5</ele>
        <time>2016-05-21T10:26:36Z</time>
      </trkpt>
      <trkpt lat="45.4342" lon="5.70973">
        <ele>662.5</ele>
        <time>2016-05-21T10:26:38Z</time>
      </trkpt>
      <trkpt lat="45.43427" lon="5.70969">
        <ele>662.4</ele>
        <time>2016-05-21T10:26:40Z</time>
      </trkpt>
      <trkpt lat="45.43436" lon="5.7097">
        <ele>663.3</ele>
        <time>2016-05-21T10:26:42Z</time>
      </trkpt>
      <trkpt lat="45.43445" lon="5.70972">
        <ele>664</ele>
        <time>2016-05-21T10:26:44Z</time>
      </trkpt>
      <trkpt lat="45.43455" lon="5.70974">
        <ele>664</ele>
        <time>2016-05-21T10:26:47Z</time>
      </trkpt>
      <trkpt lat="45.43463" lon="5.70975">
        <ele>664</ele>
        <time>2016-05-21T10:26:49Z</time>
      </trkpt>
      <trkpt lat="45.43471" lon="5.70975">
        <ele>663.9</ele>
        <time>2016-05-21T10:26:51Z</time>
      </trkpt>
      <trkpt lat="45.43479" lon="5.70977">
        <ele>663.9</ele>
        <time>2016-05-21T10:26:53Z</time>
      </trkpt>
      <trkpt lat="45.43487" lon="5.70977">
        <ele>664.4</ele>
        <time>2016-05-21T10:26:55Z</time>
      </trkpt>
      <trkpt lat="45.43495" lon="5.70975">
        <ele>666</ele>
        <time>2016-05-21T10:26:57Z</time>
      </trkpt>
      <trkpt lat="45.43501" lon="5.7097">
        <ele>667.6</ele>
        <time>2016-05-21T10:26:59Z</time>
      </trkpt>
      <trkpt lat="45.43507" lon="5.70965">
        <ele>669.3</ele>
        <time>2016-05-21T10:27:01Z</time>
      </trkpt>
      <trkpt lat="45.43517" lon="5.70957">
        <ele>669.4</ele>
        <time>2016-05-21T10:27:04Z</time>
      </trkpt>
      <trkpt lat="45.43524" lon="5.70949">
        <ele>668.8</ele>
        <time>2016-05-21T10:27:06Z</time>
      </trkpt>
      <trkpt lat="45.43532" lon="5.7094">
        <ele>668.8</ele>
        <time>2016-05-21T10:27:09Z</time>
      </trkpt>
      <trkpt lat="45.4354" lon="5.70932">
        <ele>668.7</ele>
        <time>2016-05-21T10:27:12Z</time>
      </trkpt>
      <trkpt lat="45.43548" lon="5.70924">
        <ele>668.9</ele>
        <time>2016-05-21T10:27:15Z</time>
      </trkpt>
      <trkpt lat="45.43555" lon="5.70915">
        <ele>668.8</ele>
        <time>2016-05-21T10:27:18Z</time>
      </trkpt>
      <trkpt lat="45.43562" lon="5.70907">
        <ele>668.5</ele>
        <time>2016-05-21T10:27:21Z</time>
      </trkpt>
      <trkpt lat="45.43569" lon="5.70898">
        <ele>668.4</ele>
        <time>2016-05-21T10:27:24Z</time>
      </trkpt>
      <trkpt lat="45.43575" lon="5.70891">
        <ele>668.5</ele>
        <time>2016-05-21T10:27:27Z</time>
      </trkpt>
      <trkpt lat="45.43583" lon="5.70883">
        <ele>668.4</ele>
        <time>2016-05-21T10:27:30Z</time>
      </trkpt>
      <trkpt lat="45.4359" lon="5.70877">
        <ele>668.3</ele>
        <time>2016-05-21T10:27:33Z</time>
      </trkpt>
      <trkpt lat="45.43598" lon="5.7087">
        <ele>668.1</ele>
        <time>2016-05-21T10:27:36Z</time>
      </trkpt>
      <trkpt lat="45.43605" lon="5.7086">
        <ele>668</ele>
        <time>2016-05-21T10:27:39Z</time>
      </trkpt>
      <trkpt lat="45.43612" lon="5.70854">
        <ele>668.1</ele>
        <time>2016-05-21T10:27:42Z</time>
      </trkpt>
      <trkpt lat="45.43618" lon="5.70848">
        <ele>668.5</ele>
        <time>2016-05-21T10:27:45Z</time>
      </trkpt>
      <trkpt lat="45.43625" lon="5.70842">
        <ele>668.7</ele>
        <time>2016-05-21T10:27:48Z</time>
      </trkpt>
      <trkpt lat="45.43632" lon="5.70838">
        <ele>669</ele>
        <time>2016-05-21T10:27:51Z</time>
      </trkpt>
      <trkpt lat="45.43638" lon="5.70832">
        <ele>669.4</ele>
        <time>2016-05-21T10:27:54Z</time>
      </trkpt>
      <trkpt lat="45.43645" lon="5.70827">
        <ele>669.9</ele>
        <time>2016-05-21T10:27:57Z</time>
      </trkpt>
      <trkpt lat="45.43652" lon="5.70822">
        <ele>670.2</ele>
        <time>2016-05-21T10:28:00Z</time>
      </trkpt>
      <trkpt lat="45.4366" lon="5.70819">
        <ele>670.6</ele>
        <time>2016-05-21T10:28:03Z</time>
      </trkpt>
      <trkpt lat="45.43668" lon="5.70817">
        <ele>671.1</ele>
        <time>2016-05-21T10:28:06Z</time>
      </trkpt>
      <trkpt lat="45.43675" lon="5.70815">
        <ele>671.5</ele>
        <time>2016-05-21T10:28:09Z</time>
      </trkpt>
      <trkpt lat="45.43683" lon="5.70816">
        <ele>672</ele>
        <time>2016-05-21T10:28:12Z</time>
      </trkpt>
      <trkpt lat="45.43691" lon="5.70817">
        <ele>672.5</ele>
        <time>2016-05-21T10:28:15Z</time>
      </trkpt>
      <trkpt lat="45.43702" lon="5.7082">
        <ele>674.5</ele>
        <time>2016-05-21T10:28:18Z</time>
      </trkpt>
      <trkpt lat="45.4371" lon="5.70819">
        <ele>674.9</ele>
        <time>2016-05-21T10:28:22Z</time>
      </trkpt>
      <trkpt lat="45.43719" lon="5.70817">
        <ele>676</ele>
        <time>2016-05-21T10:28:28Z</time>
      </trkpt>
      <trkpt lat="45.43729" lon="5.7082">
        <ele>676.9</ele>
        <time>2016-05-21T10:28:32Z</time>
      </trkpt>
      <trkpt lat="45.43738" lon="5.70822">
        <ele>677.5</ele>
        <time>2016-05-21T10:28:35Z</time>
      </trkpt>
      <trkpt lat="45.43748" lon="5.70824">
        <ele>678.2</ele>
        <time>2016-05-21T10:28:38Z</time>
      </trkpt>
      <trkpt lat="45.43757" lon="5.70826">
        <ele>679.1</ele>
        <time>2016-05-21T10:28:41Z</time>
      </trkpt>
      <trkpt lat="45.43766" lon="5.70826">
        <ele>680.1</ele>
        <time>2016-05-21T10:28:44Z</time>
      </trkpt>
      <trkpt lat="45.43775" lon="5.70825">
        <ele>680.9</ele>
        <time>2016-05-21T10:28:48Z</time>
      </trkpt>
      <trkpt lat="45.43784" lon="5.70824">
        <ele>681.5</ele>
        <time>2016-05-21T10:28:50Z</time>
      </trkpt>
      <trkpt lat="45.43793" lon="5.70824">
        <ele>681.7</ele>
        <time>2016-05-21T10:28:53Z</time>
      </trkpt>
      <trkpt lat="45.43801" lon="5.70824">
        <ele>681.8</ele>
        <time>2016-05-21T10:28:56Z</time>
      </trkpt>
      <trkpt lat="45.4381" lon="5.70824">
        <ele>682</ele>
        <time>2016-05-21T10:28:59Z</time>
      </trkpt>
      <trkpt lat="45.43818" lon="5.70825">
        <ele>682.2</ele>
        <time>2016-05-21T10:29:02Z</time>
      </trkpt>
      <trkpt lat="45.43826" lon="5.70826">
        <ele>682.5</ele>
        <time>2016-05-21T10:29:05Z</time>
      </trkpt>
      <trkpt lat="45.43835" lon="5.70826">
        <ele>683.1</ele>
        <time>2016-05-21T10:29:08Z</time>
      </trkpt>
      <trkpt lat="45.43842" lon="5.70825">
        <ele>683.8</ele>
        <time>2016-05-21T10:29:11Z</time>
      </trkpt>
      <trkpt lat="45.43851" lon="5.70822">
        <ele>684.5</ele>
        <time>2016-05-21T10:29:14Z</time>
      </trkpt>
      <trkpt lat="45.4386" lon="5.70818">
        <ele>685.1</ele>
        <time>2016-05-21T10:29:17Z</time>
      </trkpt>
      <trkpt lat="45.43868" lon="5.70813">
        <ele>685.8</ele>
        <time>2016-05-21T10:29:20Z</time>
      </trkpt>
      <trkpt lat="45.43877" lon="5.70808">
        <ele>686.4</ele>
        <time>2016-05-21T10:29:23Z</time>
      </trkpt>
      <trkpt lat="45.43884" lon="5.70802">
        <ele>686.9</ele>
        <time>2016-05-21T10:29:26Z</time>
      </trkpt>
      <trkpt lat="45.43893" lon="5.70798">
        <ele>687.6</ele>
        <time>2016-05-21T10:29:29Z</time>
      </trkpt>
      <trkpt lat="45.439" lon="5.70792">
        <ele>688.1</ele>
        <time>2016-05-21T10:29:32Z</time>
      </trkpt>
      <trkpt lat="45.43908" lon="5.70786">
        <ele>688.5</ele>
        <time>2016-05-21T10:29:35Z</time>
      </trkpt>
      <trkpt lat="45.43915" lon="5.70781">
        <ele>689.1</ele>
        <time>2016-05-21T10:29:38Z</time>
      </trkpt>
      <trkpt lat="45.43921" lon="5.70776">
        <ele>689.8</ele>
        <time>2016-05-21T10:29:41Z</time>
      </trkpt>
      <trkpt lat="45.43928" lon="5.7077">
        <ele>690.6</ele>
        <time>2016-05-21T10:29:44Z</time>
      </trkpt>
      <trkpt lat="45.43935" lon="5.70766">
        <ele>691.3</ele>
        <time>2016-05-21T10:29:47Z</time>
      </trkpt>
      <trkpt lat="45.43944" lon="5.70762">
        <ele>691.8</ele>
        <time>2016-05-21T10:29:50Z</time>
      </trkpt>
      <trkpt lat="45.43951" lon="5.70757">
        <ele>692.4</ele>
        <time>2016-05-21T10:29:53Z</time>
      </trkpt>
      <trkpt lat="45.43959" lon="5.70753">
        <ele>693</ele>
        <time>2016-05-21T10:29:56Z</time>
      </trkpt>
      <trkpt lat="45.43966" lon="5.70751">
        <ele>693.9</ele>
        <time>2016-05-21T10:29:59Z</time>
      </trkpt>
      <trkpt lat="45.43974" lon="5.70751">
        <ele>694.7</ele>
        <time>2016-05-21T10:30:02Z</time>
      </trkpt>
      <trkpt lat="45.43983" lon="5.7075">
        <ele>695.5</ele>
        <time>2016-05-21T10:30:05Z</time>
      </trkpt>
      <trkpt lat="45.43992" lon="5.70749">
        <ele>696.1</ele>
        <time>2016-05-21T10:30:08Z</time>
      </trkpt>
      <trkpt lat="45.44001" lon="5.70749">
        <ele>696.8</ele>
        <time>2016-05-21T10:30:11Z</time>
      </trkpt>
      <trkpt lat="45.44009" lon="5.70749">
        <ele>697.5</ele>
        <time>2016-05-21T10:30:14Z</time>
      </trkpt>
      <trkpt lat="45.44017" lon="5.70748">
        <ele>698.2</ele>
        <time>2016-05-21T10:30:17Z</time>
      </trkpt>
      <trkpt lat="45.44026" lon="5.70747">
        <ele>698.9</ele>
        <time>2016-05-21T10:30:20Z</time>
      </trkpt>
      <trkpt lat="45.44033" lon="5.70747">
        <ele>699.6</ele>
        <time>2016-05-21T10:30:23Z</time>
      </trkpt>
      <trkpt lat="45.44042" lon="5.70744">
        <ele>700.5</ele>
        <time>2016-05-21T10:30:27Z</time>
      </trkpt>
      <trkpt lat="45.4405" lon="5.70741">
        <ele>701.4</ele>
        <time>2016-05-21T10:30:31Z</time>
      </trkpt>
      <trkpt lat="45.44057" lon="5.70738">
        <ele>702.3</ele>
        <time>2016-05-21T10:30:35Z</time>
      </trkpt>
      <trkpt lat="45.44067" lon="5.70733">
        <ele>703.1</ele>
        <time>2016-05-21T10:30:38Z</time>
      </trkpt>
      <trkpt lat="45.44076" lon="5.70729">
        <ele>704</ele>
        <time>2016-05-21T10:30:41Z</time>
      </trkpt>
      <trkpt lat="45.44086" lon="5.70726">
        <ele>704.8</ele>
        <time>2016-05-21T10:30:44Z</time>
      </trkpt>
      <trkpt lat="45.44094" lon="5.70725">
        <ele>705.5</ele>
        <time>2016-05-21T10:30:47Z</time>
      </trkpt>
      <trkpt lat="45.44102" lon="5.70723">
        <ele>706.4</ele>
        <time>2016-05-21T10:30:50Z</time>
      </trkpt>
      <trkpt lat="45.4411" lon="5.70721">
        <ele>707.2</ele>
        <time>2016-05-21T10:30:53Z</time>
      </trkpt>
      <trkpt lat="45.44117" lon="5.70717">
        <ele>708</ele>
        <time>2016-05-21T10:30:56Z</time>
      </trkpt>
      <trkpt lat="45.44125" lon="5.70714">
        <ele>708.7</ele>
        <time>2016-05-21T10:30:59Z</time>
      </trkpt>
      <trkpt lat="45.44134" lon="5.70714">
        <ele>709.4</ele>
        <time>2016-05-21T10:31:02Z</time>
      </trkpt>
      <trkpt lat="45.44143" lon="5.70714">
        <ele>710.1</ele>
        <time>2016-05-21T10:31:05Z</time>
      </trkpt>
      <trkpt lat="45.44152" lon="5.70715">
        <ele>710.7</ele>
        <time>2016-05-21T10:31:08Z</time>
      </trkpt>
      <trkpt lat="45.4416" lon="5.70715">
        <ele>711.3</ele>
        <time>2016-05-21T10:31:11Z</time>
      </trkpt>
      <trkpt lat="45.44168" lon="5.70716">
        <ele>711.9</ele>
        <time>2016-05-21T10:31:14Z</time>
      </trkpt>
      <trkpt lat="45.44176" lon="5.70715">
        <ele>712.4</ele>
        <time>2016-05-21T10:31:17Z</time>
      </trkpt>
      <trkpt lat="45.44183" lon="5.70711">
        <ele>712.9</ele>
        <time>2016-05-21T10:31:20Z</time>
      </trkpt>
      <trkpt lat="45.4419" lon="5.70707">
        <ele>713.1</ele>
        <time>2016-05-21T10:31:23Z</time>
      </trkpt>
      <trkpt lat="45.44197" lon="5.70703">
        <ele>713.6</ele>
        <time>2016-05-21T10:31:26Z</time>
      </trkpt>
      <trkpt lat="45.44204" lon="5.70696">
        <ele>714.6</ele>
        <time>2016-05-21T10:31:30Z</time>
      </trkpt>
      <trkpt lat="45.44208" lon="5.70686">
        <ele>715.6</ele>
        <time>2016-05-21T10:31:34Z</time>
      </trkpt>
      <trkpt lat="45.44212" lon="5.70676">
        <ele>716.5</ele>
        <time>2016-05-21T10:31:37Z</time>
      </trkpt>
      <trkpt lat="45.44214" lon="5.70666">
        <ele>717.4</ele>
        <time>2016-05-21T10:31:40Z</time>
      </trkpt>
      <trkpt lat="45.44216" lon="5.70654">
        <ele>718.1</ele>
        <time>2016-05-21T10:31:44Z</time>
      </trkpt>
      <trkpt lat="45.44215" lon="5.70642">
        <ele>718.3</ele>
        <time>2016-05-21T10:31:47Z</time>
      </trkpt>
      <trkpt lat="45.44214" lon="5.7063">
        <ele>718.5</ele>
        <time>2016-05-21T10:31:50Z</time>
      </trkpt>
      <trkpt lat="45.44212" lon="5.70617">
        <ele>718.6</ele>
        <time>2016-05-21T10:31:53Z</time>
      </trkpt>
      <trkpt lat="45.44211" lon="5.70607">
        <ele>718.7</ele>
        <time>2016-05-21T10:31:55Z</time>
      </trkpt>
      <trkpt lat="45.44206" lon="5.70594">
        <ele>719.1</ele>
        <time>2016-05-21T10:31:58Z</time>
      </trkpt>
      <trkpt lat="45.44202" lon="5.70584">
        <ele>719.7</ele>
        <time>2016-05-21T10:32:01Z</time>
      </trkpt>
      <trkpt lat="45.44198" lon="5.70575">
        <ele>720.2</ele>
        <time>2016-05-21T10:32:04Z</time>
      </trkpt>
      <trkpt lat="45.44194" lon="5.70566">
        <ele>720.5</ele>
        <time>2016-05-21T10:32:07Z</time>
      </trkpt>
      <trkpt lat="45.4419" lon="5.70555">
        <ele>720.3</ele>
        <time>2016-05-21T10:32:10Z</time>
      </trkpt>
      <trkpt lat="45.4419" lon="5.70543">
        <ele>720.6</ele>
        <time>2016-05-21T10:32:14Z</time>
      </trkpt>
      <trkpt lat="45.4419" lon="5.70532">
        <ele>721</ele>
        <time>2016-05-21T10:32:19Z</time>
      </trkpt>
      <trkpt lat="45.44189" lon="5.70521">
        <ele>721.6</ele>
        <time>2016-05-21T10:32:22Z</time>
      </trkpt>
      <trkpt lat="45.44188" lon="5.70511">
        <ele>721.9</ele>
        <time>2016-05-21T10:32:25Z</time>
      </trkpt>
      <trkpt lat="45.44187" lon="5.70498">
        <ele>722.1</ele>
        <time>2016-05-21T10:32:28Z</time>
      </trkpt>
      <trkpt lat="45.44187" lon="5.70484">
        <ele>722.3</ele>
        <time>2016-05-21T10:32:31Z</time>
      </trkpt>
      <trkpt lat="45.44186" lon="5.7047">
        <ele>722.4</ele>
        <time>2016-05-21T10:32:34Z</time>
      </trkpt>
      <trkpt lat="45.44185" lon="5.70457">
        <ele>722.6</ele>
        <time>2016-05-21T10:32:37Z</time>
      </trkpt>
      <trkpt lat="45.44184" lon="5.70445">
        <ele>722.8</ele>
        <time>2016-05-21T10:32:40Z</time>
      </trkpt>
      <trkpt lat="45.44183" lon="5.70434">
        <ele>723.1</ele>
        <time>2016-05-21T10:32:43Z</time>
      </trkpt>
      <trkpt lat="45.44181" lon="5.70423">
        <ele>723.3</ele>
        <time>2016-05-21T10:32:46Z</time>
      </trkpt>
      <trkpt lat="45.44183" lon="5.70413">
        <ele>723.2</ele>
        <time>2016-05-21T10:32:49Z</time>
      </trkpt>
      <trkpt lat="45.44183" lon="5.70403">
        <ele>723</ele>
        <time>2016-05-21T10:32:52Z</time>
      </trkpt>
      <trkpt lat="45.44186" lon="5.70392">
        <ele>722.9</ele>
        <time>2016-05-21T10:32:55Z</time>
      </trkpt>
      <trkpt lat="45.44188" lon="5.70382">
        <ele>723.3</ele>
        <time>2016-05-21T10:32:58Z</time>
      </trkpt>
      <trkpt lat="45.44191" lon="5.70368">
        <ele>724.1</ele>
        <time>2016-05-21T10:33:01Z</time>
      </trkpt>
      <trkpt lat="45.44196" lon="5.70356">
        <ele>725.1</ele>
        <time>2016-05-21T10:33:04Z</time>
      </trkpt>
      <trkpt lat="45.44202" lon="5.70345">
        <ele>726</ele>
        <time>2016-05-21T10:33:07Z</time>
      </trkpt>
      <trkpt lat="45.44206" lon="5.70337">
        <ele>726.7</ele>
        <time>2016-05-21T10:33:09Z</time>
      </trkpt>
      <trkpt lat="45.44211" lon="5.70329">
        <ele>727.3</ele>
        <time>2016-05-21T10:33:11Z</time>
      </trkpt>
      <trkpt lat="45.44219" lon="5.7032">
        <ele>728.1</ele>
        <time>2016-05-21T10:33:14Z</time>
      </trkpt>
      <trkpt lat="45.44227" lon="5.70311">
        <ele>729.1</ele>
        <time>2016-05-21T10:33:17Z</time>
      </trkpt>
      <trkpt lat="45.44235" lon="5.70304">
        <ele>730.1</ele>
        <time>2016-05-21T10:33:20Z</time>
      </trkpt>
      <trkpt lat="45.44243" lon="5.70301">
        <ele>730.9</ele>
        <time>2016-05-21T10:33:23Z</time>
      </trkpt>
      <trkpt lat="45.44252" lon="5.70301">
        <ele>731.9</ele>
        <time>2016-05-21T10:33:26Z</time>
      </trkpt>
      <trkpt lat="45.4426" lon="5.703">
        <ele>732.9</ele>
        <time>2016-05-21T10:33:29Z</time>
      </trkpt>
      <trkpt lat="45.44268" lon="5.70304">
        <ele>734.3</ele>
        <time>2016-05-21T10:33:32Z</time>
      </trkpt>
      <trkpt lat="45.44276" lon="5.70306">
        <ele>735.6</ele>
        <time>2016-05-21T10:33:36Z</time>
      </trkpt>
      <trkpt lat="45.44285" lon="5.70308">
        <ele>736.9</ele>
        <time>2016-05-21T10:33:40Z</time>
      </trkpt>
      <trkpt lat="45.44292" lon="5.7031">
        <ele>738.1</ele>
        <time>2016-05-21T10:33:43Z</time>
      </trkpt>
      <trkpt lat="45.443" lon="5.7031">
        <ele>739.2</ele>
        <time>2016-05-21T10:33:46Z</time>
      </trkpt>
      <trkpt lat="45.44309" lon="5.70308">
        <ele>740</ele>
        <time>2016-05-21T10:33:49Z</time>
      </trkpt>
      <trkpt lat="45.44317" lon="5.70304">
        <ele>740.6</ele>
        <time>2016-05-21T10:33:52Z</time>
      </trkpt>
      <trkpt lat="45.44326" lon="5.70298">
        <ele>741.4</ele>
        <time>2016-05-21T10:33:55Z</time>
      </trkpt>
      <trkpt lat="45.44333" lon="5.7029">
        <ele>742.3</ele>
        <time>2016-05-21T10:33:58Z</time>
      </trkpt>
      <trkpt lat="45.4434" lon="5.70282">
        <ele>743.7</ele>
        <time>2016-05-21T10:34:02Z</time>
      </trkpt>
      <trkpt lat="45.44344" lon="5.70271">
        <ele>745.4</ele>
        <time>2016-05-21T10:34:07Z</time>
      </trkpt>
      <trkpt lat="45.44347" lon="5.7026">
        <ele>746.4</ele>
        <time>2016-05-21T10:34:10Z</time>
      </trkpt>
      <trkpt lat="45.44349" lon="5.70248">
        <ele>747.8</ele>
        <time>2016-05-21T10:34:14Z</time>
      </trkpt>
      <trkpt lat="45.44352" lon="5.70238">
        <ele>748.7</ele>
        <time>2016-05-21T10:34:17Z</time>
      </trkpt>
      <trkpt lat="45.44357" lon="5.70226">
        <ele>749.6</ele>
        <time>2016-05-21T10:34:21Z</time>
      </trkpt>
      <trkpt lat="45.44363" lon="5.70216">
        <ele>750.8</ele>
        <time>2016-05-21T10:34:25Z</time>
      </trkpt>
      <trkpt lat="45.44368" lon="5.70206">
        <ele>751.3</ele>
        <time>2016-05-21T10:34:28Z</time>
      </trkpt>
      <trkpt lat="45.44374" lon="5.70196">
        <ele>751.8</ele>
        <time>2016-05-21T10:34:31Z</time>
      </trkpt>
      <trkpt lat="45.4438" lon="5.70186">
        <ele>752.6</ele>
        <time>2016-05-21T10:34:34Z</time>
      </trkpt>
      <trkpt lat="45.44386" lon="5.70176">
        <ele>753.4</ele>
        <time>2016-05-21T10:34:37Z</time>
      </trkpt>
      <trkpt lat="45.44392" lon="5.70166">
        <ele>754.2</ele>
        <time>2016-05-21T10:34:40Z</time>
      </trkpt>
      <trkpt lat="45.44399" lon="5.70158">
        <ele>754.7</ele>
        <time>2016-05-21T10:34:43Z</time>
      </trkpt>
      <trkpt lat="45.44406" lon="5.7015">
        <ele>755.1</ele>
        <time>2016-05-21T10:34:46Z</time>
      </trkpt>
      <trkpt lat="45.44413" lon="5.70144">
        <ele>755.6</ele>
        <time>2016-05-21T10:34:49Z</time>
      </trkpt>
      <trkpt lat="45.44421" lon="5.70139">
        <ele>756.5</ele>
        <time>2016-05-21T10:34:52Z</time>
      </trkpt>
      <trkpt lat="45.44428" lon="5.70135">
        <ele>757.4</ele>
        <time>2016-05-21T10:34:55Z</time>
      </trkpt>
      <trkpt lat="45.44435" lon="5.70132">
        <ele>758.1</ele>
        <time>2016-05-21T10:34:58Z</time>
      </trkpt>
      <trkpt lat="45.44442" lon="5.7013">
        <ele>758.9</ele>
        <time>2016-05-21T10:35:01Z</time>
      </trkpt>
      <trkpt lat="45.44449" lon="5.70126">
        <ele>759.7</ele>
        <time>2016-05-21T10:35:04Z</time>
      </trkpt>
      <trkpt lat="45.44456" lon="5.70124">
        <ele>760.6</ele>
        <time>2016-05-21T10:35:07Z</time>
      </trkpt>
      <trkpt lat="45.44464" lon="5.7012">
        <ele>762</ele>
        <time>2016-05-21T10:35:11Z</time>
      </trkpt>
      <trkpt lat="45.44472" lon="5.70117">
        <ele>763.1</ele>
        <time>2016-05-21T10:35:14Z</time>
      </trkpt>
      <trkpt lat="45.44479" lon="5.70113">
        <ele>764</ele>
        <time>2016-05-21T10:35:17Z</time>
      </trkpt>
      <trkpt lat="45.44488" lon="5.70109">
        <ele>764.9</ele>
        <time>2016-05-21T10:35:20Z</time>
      </trkpt>
      <trkpt lat="45.44497" lon="5.70108">
        <ele>765.5</ele>
        <time>2016-05-21T10:35:23Z</time>
      </trkpt>
      <trkpt lat="45.44506" lon="5.70106">
        <ele>765.7</ele>
        <time>2016-05-21T10:35:26Z</time>
      </trkpt>
      <trkpt lat="45.44515" lon="5.70107">
        <ele>766</ele>
        <time>2016-05-21T10:35:29Z</time>
      </trkpt>
      <trkpt lat="45.44522" lon="5.70107">
        <ele>766.4</ele>
        <time>2016-05-21T10:35:32Z</time>
      </trkpt>
      <trkpt lat="45.4453" lon="5.70105">
        <ele>766.9</ele>
        <time>2016-05-21T10:35:35Z</time>
      </trkpt>
      <trkpt lat="45.4454" lon="5.70101">
        <ele>767.9</ele>
        <time>2016-05-21T10:35:39Z</time>
      </trkpt>
      <trkpt lat="45.44548" lon="5.70102">
        <ele>768.5</ele>
        <time>2016-05-21T10:35:42Z</time>
      </trkpt>
      <trkpt lat="45.44555" lon="5.70099">
        <ele>769.5</ele>
        <time>2016-05-21T10:35:45Z</time>
      </trkpt>
      <trkpt lat="45.44563" lon="5.70096">
        <ele>770.5</ele>
        <time>2016-05-21T10:35:48Z</time>
      </trkpt>
      <trkpt lat="45.4457" lon="5.70087">
        <ele>771.5</ele>
        <time>2016-05-21T10:35:51Z</time>
      </trkpt>
      <trkpt lat="45.44574" lon="5.70075">
        <ele>772.4</ele>
        <time>2016-05-21T10:35:55Z</time>
      </trkpt>
      <trkpt lat="45.44572" lon="5.70062">
        <ele>772.9</ele>
        <time>2016-05-21T10:35:58Z</time>
      </trkpt>
      <trkpt lat="45.44568" lon="5.70051">
        <ele>773.2</ele>
        <time>2016-05-21T10:36:01Z</time>
      </trkpt>
      <trkpt lat="45.44561" lon="5.70045">
        <ele>773.5</ele>
        <time>2016-05-21T10:36:04Z</time>
      </trkpt>
      <trkpt lat="45.44553" lon="5.70041">
        <ele>773.9</ele>
        <time>2016-05-21T10:36:07Z</time>
      </trkpt>
      <trkpt lat="45.44546" lon="5.70038">
        <ele>774.2</ele>
        <time>2016-05-21T10:36:10Z</time>
      </trkpt>
      <trkpt lat="45.44537" lon="5.70032">
        <ele>774.4</ele>
        <time>2016-05-21T10:36:14Z</time>
      </trkpt>
      <trkpt lat="45.44529" lon="5.70027">
        <ele>774.8</ele>
        <time>2016-05-21T10:36:17Z</time>
      </trkpt>
      <trkpt lat="45.44522" lon="5.70021">
        <ele>775.2</ele>
        <time>2016-05-21T10:36:20Z</time>
      </trkpt>
      <trkpt lat="45.44515" lon="5.70015">
        <ele>775.5</ele>
        <time>2016-05-21T10:36:23Z</time>
      </trkpt>
      <trkpt lat="45.44507" lon="5.70009">
        <ele>775.9</ele>
        <time>2016-05-21T10:36:27Z</time>
      </trkpt>
      <trkpt lat="45.44501" lon="5.70002">
        <ele>776.6</ele>
        <time>2016-05-21T10:36:31Z</time>
      </trkpt>
      <trkpt lat="45.44493" lon="5.69996">
        <ele>777.5</ele>
        <time>2016-05-21T10:36:34Z</time>
      </trkpt>
      <trkpt lat="45.44485" lon="5.69991">
        <ele>778.4</ele>
        <time>2016-05-21T10:36:37Z</time>
      </trkpt>
      <trkpt lat="45.44477" lon="5.69985">
        <ele>779.4</ele>
        <time>2016-05-21T10:36:40Z</time>
      </trkpt>
      <trkpt lat="45.44469" lon="5.69979">
        <ele>780.3</ele>
        <time>2016-05-21T10:36:43Z</time>
      </trkpt>
      <trkpt lat="45.44461" lon="5.69975">
        <ele>780.9</ele>
        <time>2016-05-21T10:36:46Z</time>
      </trkpt>
      <trkpt lat="45.44453" lon="5.69969">
        <ele>781.5</ele>
        <time>2016-05-21T10:36:49Z</time>
      </trkpt>
      <trkpt lat="45.44445" lon="5.69964">
        <ele>782.1</ele>
        <time>2016-05-21T10:36:52Z</time>
      </trkpt>
      <trkpt lat="45.44437" lon="5.69958">
        <ele>782.9</ele>
        <time>2016-05-21T10:36:55Z</time>
      </trkpt>
      <trkpt lat="45.44429" lon="5.69951">
        <ele>783.6</ele>
        <time>2016-05-21T10:36:58Z</time>
      </trkpt>
      <trkpt lat="45.44422" lon="5.69943">
        <ele>784.2</ele>
        <time>2016-05-21T10:37:01Z</time>
      </trkpt>
      <trkpt lat="45.44417" lon="5.69936">
        <ele>784.5</ele>
        <time>2016-05-21T10:37:03Z</time>
      </trkpt>
      <trkpt lat="45.4441" lon="5.69925">
        <ele>785</ele>
        <time>2016-05-21T10:37:06Z</time>
      </trkpt>
      <trkpt lat="45.44406" lon="5.69913">
        <ele>785.3</ele>
        <time>2016-05-21T10:37:10Z</time>
      </trkpt>
      <trkpt lat="45.44402" lon="5.69902">
        <ele>785.5</ele>
        <time>2016-05-21T10:37:13Z</time>
      </trkpt>
      <trkpt lat="45.44397" lon="5.69892">
        <ele>785.9</ele>
        <time>2016-05-21T10:37:18Z</time>
      </trkpt>
      <trkpt lat="45.44393" lon="5.69882">
        <ele>786</ele>
        <time>2016-05-21T10:37:21Z</time>
      </trkpt>
      <trkpt lat="45.4439" lon="5.6987">
        <ele>786.3</ele>
        <time>2016-05-21T10:37:24Z</time>
      </trkpt>
      <trkpt lat="45.44388" lon="5.69857">
        <ele>786.6</ele>
        <time>2016-05-21T10:37:27Z</time>
      </trkpt>
      <trkpt lat="45.44386" lon="5.69846">
        <ele>786.7</ele>
        <time>2016-05-21T10:37:30Z</time>
      </trkpt>
      <trkpt lat="45.44384" lon="5.69835">
        <ele>786.7</ele>
        <time>2016-05-21T10:37:33Z</time>
      </trkpt>
      <trkpt lat="45.44381" lon="5.69825">
        <ele>786.9</ele>
        <time>2016-05-21T10:37:36Z</time>
      </trkpt>
      <trkpt lat="45.44378" lon="5.69815">
        <ele>787.1</ele>
        <time>2016-05-21T10:37:39Z</time>
      </trkpt>
      <trkpt lat="45.44374" lon="5.69804">
        <ele>787.3</ele>
        <time>2016-05-21T10:37:43Z</time>
      </trkpt>
      <trkpt lat="45.44371" lon="5.69792">
        <ele>787.6</ele>
        <time>2016-05-21T10:37:46Z</time>
      </trkpt>
      <trkpt lat="45.44368" lon="5.69782">
        <ele>787.8</ele>
        <time>2016-05-21T10:37:49Z</time>
      </trkpt>
      <trkpt lat="45.44364" lon="5.69769">
        <ele>788.2</ele>
        <time>2016-05-21T10:37:52Z</time>
      </trkpt>
      <trkpt lat="45.44362" lon="5.69758">
        <ele>788.6</ele>
        <time>2016-05-21T10:37:55Z</time>
      </trkpt>
      <trkpt lat="45.44359" lon="5.69746">
        <ele>789</ele>
        <time>2016-05-21T10:37:59Z</time>
      </trkpt>
      <trkpt lat="45.44356" lon="5.69735">
        <ele>789.3</ele>
        <time>2016-05-21T10:38:02Z</time>
      </trkpt>
      <trkpt lat="45.44353" lon="5.69724">
        <ele>789.6</ele>
        <time>2016-05-21T10:38:05Z</time>
      </trkpt>
      <trkpt lat="45.4435" lon="5.69712">
        <ele>789.9</ele>
        <time>2016-05-21T10:38:08Z</time>
      </trkpt>
      <trkpt lat="45.44346" lon="5.697">
        <ele>790.4</ele>
        <time>2016-05-21T10:38:11Z</time>
      </trkpt>
      <trkpt lat="45.44344" lon="5.69688">
        <ele>791.1</ele>
        <time>2016-05-21T10:38:14Z</time>
      </trkpt>
      <trkpt lat="45.4434" lon="5.69676">
        <ele>791.9</ele>
        <time>2016-05-21T10:38:18Z</time>
      </trkpt>
      <trkpt lat="45.44337" lon="5.69666">
        <ele>792.5</ele>
        <time>2016-05-21T10:38:21Z</time>
      </trkpt>
      <trkpt lat="45.44333" lon="5.69654">
        <ele>792.9</ele>
        <time>2016-05-21T10:38:24Z</time>
      </trkpt>
      <trkpt lat="45.44329" lon="5.69643">
        <ele>793.4</ele>
        <time>2016-05-21T10:38:27Z</time>
      </trkpt>
      <trkpt lat="45.44324" lon="5.69633">
        <ele>793.8</ele>
        <time>2016-05-21T10:38:30Z</time>
      </trkpt>
      <trkpt lat="45.44319" lon="5.69625">
        <ele>794.2</ele>
        <time>2016-05-21T10:38:33Z</time>
      </trkpt>
      <trkpt lat="45.44312" lon="5.69615">
        <ele>795</ele>
        <time>2016-05-21T10:38:36Z</time>
      </trkpt>
      <trkpt lat="45.44304" lon="5.69606">
        <ele>795.7</ele>
        <time>2016-05-21T10:38:39Z</time>
      </trkpt>
      <trkpt lat="45.44298" lon="5.69599">
        <ele>796.5</ele>
        <time>2016-05-21T10:38:42Z</time>
      </trkpt>
      <trkpt lat="45.44291" lon="5.69591">
        <ele>797.8</ele>
        <time>2016-05-21T10:38:46Z</time>
      </trkpt>
      <trkpt lat="45.44281" lon="5.69585">
        <ele>798.7</ele>
        <time>2016-05-21T10:38:49Z</time>
      </trkpt>
      <trkpt lat="45.44272" lon="5.69579">
        <ele>799.4</ele>
        <time>2016-05-21T10:38:52Z</time>
      </trkpt>
      <trkpt lat="45.44264" lon="5.69573">
        <ele>800.1</ele>
        <time>2016-05-21T10:38:55Z</time>
      </trkpt>
      <trkpt lat="45.44257" lon="5.69567">
        <ele>800.6</ele>
        <time>2016-05-21T10:38:58Z</time>
      </trkpt>
      <trkpt lat="45.44249" lon="5.69559">
        <ele>801.2</ele>
        <time>2016-05-21T10:39:01Z</time>
      </trkpt>
      <trkpt lat="45.44242" lon="5.69553">
        <ele>801.8</ele>
        <time>2016-05-21T10:39:04Z</time>
      </trkpt>
      <trkpt lat="45.44235" lon="5.69547">
        <ele>802.5</ele>
        <time>2016-05-21T10:39:07Z</time>
      </trkpt>
      <trkpt lat="45.44229" lon="5.69539">
        <ele>803.5</ele>
        <time>2016-05-21T10:39:10Z</time>
      </trkpt>
      <trkpt lat="45.44223" lon="5.69533">
        <ele>804.1</ele>
        <time>2016-05-21T10:39:13Z</time>
      </trkpt>
      <trkpt lat="45.44216" lon="5.69527">
        <ele>804.8</ele>
        <time>2016-05-21T10:39:16Z</time>
      </trkpt>
      <trkpt lat="45.44208" lon="5.6952">
        <ele>805.6</ele>
        <time>2016-05-21T10:39:19Z</time>
      </trkpt>
      <trkpt lat="45.44201" lon="5.69514">
        <ele>806.6</ele>
        <time>2016-05-21T10:39:22Z</time>
      </trkpt>
      <trkpt lat="45.44195" lon="5.69507">
        <ele>807.6</ele>
        <time>2016-05-21T10:39:25Z</time>
      </trkpt>
      <trkpt lat="45.44189" lon="5.695">
        <ele>808.8</ele>
        <time>2016-05-21T10:39:28Z</time>
      </trkpt>
      <trkpt lat="45.44181" lon="5.69495">
        <ele>810.1</ele>
        <time>2016-05-21T10:39:31Z</time>
      </trkpt>
      <trkpt lat="45.44174" lon="5.6949">
        <ele>811.3</ele>
        <time>2016-05-21T10:39:34Z</time>
      </trkpt>
      <trkpt lat="45.44166" lon="5.69483">
        <ele>812.2</ele>
        <time>2016-05-21T10:39:37Z</time>
      </trkpt>
      <trkpt lat="45.44157" lon="5.69478">
        <ele>813.3</ele>
        <time>2016-05-21T10:39:40Z</time>
      </trkpt>
      <trkpt lat="45.44149" lon="5.69475">
        <ele>814.1</ele>
        <time>2016-05-21T10:39:43Z</time>
      </trkpt>
      <trkpt lat="45.44141" lon="5.69474">
        <ele>814.7</ele>
        <time>2016-05-21T10:39:46Z</time>
      </trkpt>
      <trkpt lat="45.44132" lon="5.6947">
        <ele>815.4</ele>
        <time>2016-05-21T10:39:49Z</time>
      </trkpt>
      <trkpt lat="45.44122" lon="5.69468">
        <ele>816.1</ele>
        <time>2016-05-21T10:39:52Z</time>
      </trkpt>
      <trkpt lat="45.44113" lon="5.69465">
        <ele>816.9</ele>
        <time>2016-05-21T10:39:55Z</time>
      </trkpt>
      <trkpt lat="45.44105" lon="5.69463">
        <ele>817.8</ele>
        <time>2016-05-21T10:39:58Z</time>
      </trkpt>
      <trkpt lat="45.44096" lon="5.6946">
        <ele>818.3</ele>
        <time>2016-05-21T10:40:01Z</time>
      </trkpt>
      <trkpt lat="45.44087" lon="5.69458">
        <ele>818.9</ele>
        <time>2016-05-21T10:40:04Z</time>
      </trkpt>
      <trkpt lat="45.44079" lon="5.69456">
        <ele>819.7</ele>
        <time>2016-05-21T10:40:07Z</time>
      </trkpt>
      <trkpt lat="45.4407" lon="5.69454">
        <ele>820.5</ele>
        <time>2016-05-21T10:40:10Z</time>
      </trkpt>
      <trkpt lat="45.4406" lon="5.69452">
        <ele>821.2</ele>
        <time>2016-05-21T10:40:13Z</time>
      </trkpt>
      <trkpt lat="45.44052" lon="5.6945">
        <ele>821.9</ele>
        <time>2016-05-21T10:40:16Z</time>
      </trkpt>
      <trkpt lat="45.44043" lon="5.69448">
        <ele>822.4</ele>
        <time>2016-05-21T10:40:19Z</time>
      </trkpt>
      <trkpt lat="45.44035" lon="5.69445">
        <ele>822.8</ele>
        <time>2016-05-21T10:40:22Z</time>
      </trkpt>
      <trkpt lat="45.44026" lon="5.69442">
        <ele>823.3</ele>
        <time>2016-05-21T10:40:25Z</time>
      </trkpt>
      <trkpt lat="45.44017" lon="5.69438">
        <ele>823.6</ele>
        <time>2016-05-21T10:40:28Z</time>
      </trkpt>
      <trkpt lat="45.44008" lon="5.69433">
        <ele>823.8</ele>
        <time>2016-05-21T10:40:31Z</time>
      </trkpt>
      <trkpt lat="45.44" lon="5.69428">
        <ele>824.1</ele>
        <time>2016-05-21T10:40:34Z</time>
      </trkpt>
      <trkpt lat="45.43994" lon="5.69422">
        <ele>824.4</ele>
        <time>2016-05-21T10:40:37Z</time>
      </trkpt>
      <trkpt lat="45.43987" lon="5.69416">
        <ele>824.9</ele>
        <time>2016-05-21T10:40:40Z</time>
      </trkpt>
      <trkpt lat="45.4398" lon="5.6941">
        <ele>825.5</ele>
        <time>2016-05-21T10:40:43Z</time>
      </trkpt>
      <trkpt lat="45.43974" lon="5.69406">
        <ele>826</ele>
        <time>2016-05-21T10:40:46Z</time>
      </trkpt>
      <trkpt lat="45.43966" lon="5.69401">
        <ele>826.3</ele>
        <time>2016-05-21T10:40:49Z</time>
      </trkpt>
      <trkpt lat="45.43958" lon="5.69398">
        <ele>826.8</ele>
        <time>2016-05-21T10:40:52Z</time>
      </trkpt>
      <trkpt lat="45.43948" lon="5.69394">
        <ele>827.2</ele>
        <time>2016-05-21T10:40:55Z</time>
      </trkpt>
      <trkpt lat="45.43939" lon="5.69389">
        <ele>828.1</ele>
        <time>2016-05-21T10:40:59Z</time>
      </trkpt>
      <trkpt lat="45.43931" lon="5.69387">
        <ele>828.4</ele>
        <time>2016-05-21T10:41:02Z</time>
      </trkpt>
      <trkpt lat="45.43921" lon="5.69384">
        <ele>828.9</ele>
        <time>2016-05-21T10:41:05Z</time>
      </trkpt>
      <trkpt lat="45.43912" lon="5.69381">
        <ele>829.5</ele>
        <time>2016-05-21T10:41:09Z</time>
      </trkpt>
      <trkpt lat="45.43904" lon="5.6938">
        <ele>829.7</ele>
        <time>2016-05-21T10:41:12Z</time>
      </trkpt>
      <trkpt lat="45.43896" lon="5.69377">
        <ele>829.9</ele>
        <time>2016-05-21T10:41:15Z</time>
      </trkpt>
      <trkpt lat="45.43887" lon="5.69372">
        <ele>830.5</ele>
        <time>2016-05-21T10:41:18Z</time>
      </trkpt>
      <trkpt lat="45.4388" lon="5.69369">
        <ele>831.4</ele>
        <time>2016-05-21T10:41:21Z</time>
      </trkpt>
      <trkpt lat="45.43872" lon="5.69365">
        <ele>832.5</ele>
        <time>2016-05-21T10:41:24Z</time>
      </trkpt>
      <trkpt lat="45.43863" lon="5.69361">
        <ele>833.5</ele>
        <time>2016-05-21T10:41:27Z</time>
      </trkpt>
      <trkpt lat="45.43856" lon="5.69356">
        <ele>834.6</ele>
        <time>2016-05-21T10:41:30Z</time>
      </trkpt>
      <trkpt lat="45.43848" lon="5.6935">
        <ele>835.6</ele>
        <time>2016-05-21T10:41:33Z</time>
      </trkpt>
      <trkpt lat="45.43841" lon="5.69343">
        <ele>836.4</ele>
        <time>2016-05-21T10:41:36Z</time>
      </trkpt>
      <trkpt lat="45.43834" lon="5.69334">
        <ele>837.2</ele>
        <time>2016-05-21T10:41:39Z</time>
      </trkpt>
      <trkpt lat="45.43828" lon="5.69323">
        <ele>838.2</ele>
        <time>2016-05-21T10:41:42Z</time>
      </trkpt>
      <trkpt lat="45.43825" lon="5.69311">
        <ele>839.1</ele>
        <time>2016-05-21T10:41:45Z</time>
      </trkpt>
      <trkpt lat="45.43823" lon="5.69298">
        <ele>839.8</ele>
        <time>2016-05-21T10:41:48Z</time>
      </trkpt>
      <trkpt lat="45.43823" lon="5.69287">
        <ele>840.7</ele>
        <time>2016-05-21T10:41:51Z</time>
      </trkpt>
      <trkpt lat="45.43823" lon="5.69275">
        <ele>841.5</ele>
        <time>2016-05-21T10:41:54Z</time>
      </trkpt>
      <trkpt lat="45.43824" lon="5.69262">
        <ele>842.4</ele>
        <time>2016-05-21T10:41:57Z</time>
      </trkpt>
      <trkpt lat="45.43822" lon="5.69248">
        <ele>843.3</ele>
        <time>2016-05-21T10:42:00Z</time>
      </trkpt>
      <trkpt lat="45.43822" lon="5.69235">
        <ele>844.2</ele>
        <time>2016-05-21T10:42:03Z</time>
      </trkpt>
      <trkpt lat="45.43823" lon="5.69222">
        <ele>845.1</ele>
        <time>2016-05-21T10:42:06Z</time>
      </trkpt>
      <trkpt lat="45.43824" lon="5.69209">
        <ele>845.9</ele>
        <time>2016-05-21T10:42:09Z</time>
      </trkpt>
      <trkpt lat="45.43825" lon="5.69196">
        <ele>846.6</ele>
        <time>2016-05-21T10:42:12Z</time>
      </trkpt>
      <trkpt lat="45.43827" lon="5.69181">
        <ele>849.1</ele>
        <time>2016-05-21T10:42:15Z</time>
      </trkpt>
      <trkpt lat="45.43829" lon="5.69166">
        <ele>849.7</ele>
        <time>2016-05-21T10:42:18Z</time>
      </trkpt>
      <trkpt lat="45.43831" lon="5.69153">
        <ele>850.3</ele>
        <time>2016-05-21T10:42:21Z</time>
      </trkpt>
      <trkpt lat="45.43832" lon="5.69138">
        <ele>850.7</ele>
        <time>2016-05-21T10:42:24Z</time>
      </trkpt>
      <trkpt lat="45.43833" lon="5.69124">
        <ele>851</ele>
        <time>2016-05-21T10:42:27Z</time>
      </trkpt>
      <trkpt lat="45.43835" lon="5.69112">
        <ele>851.2</ele>
        <time>2016-05-21T10:42:30Z</time>
      </trkpt>
      <trkpt lat="45.43836" lon="5.69098">
        <ele>851.3</ele>
        <time>2016-05-21T10:42:33Z</time>
      </trkpt>
      <trkpt lat="45.43838" lon="5.69084">
        <ele>851.6</ele>
        <time>2016-05-21T10:42:36Z</time>
      </trkpt>
      <trkpt lat="45.4384" lon="5.69072">
        <ele>851.9</ele>
        <time>2016-05-21T10:42:39Z</time>
      </trkpt>
      <trkpt lat="45.43841" lon="5.69059">
        <ele>852.2</ele>
        <time>2016-05-21T10:42:42Z</time>
      </trkpt>
      <trkpt lat="45.43842" lon="5.69048">
        <ele>852.5</ele>
        <time>2016-05-21T10:42:44Z</time>
      </trkpt>
      <trkpt lat="45.43842" lon="5.69037">
        <ele>852.7</ele>
        <time>2016-05-21T10:42:46Z</time>
      </trkpt>
      <trkpt lat="45.43844" lon="5.69023">
        <ele>853</ele>
        <time>2016-05-21T10:42:49Z</time>
      </trkpt>
      <trkpt lat="45.43845" lon="5.6901">
        <ele>853.4</ele>
        <time>2016-05-21T10:42:52Z</time>
      </trkpt>
      <trkpt lat="45.43846" lon="5.68995">
        <ele>853.7</ele>
        <time>2016-05-21T10:42:55Z</time>
      </trkpt>
      <trkpt lat="45.43847" lon="5.68981">
        <ele>854</ele>
        <time>2016-05-21T10:42:58Z</time>
      </trkpt>
      <trkpt lat="45.43849" lon="5.68971">
        <ele>854.3</ele>
        <time>2016-05-21T10:43:00Z</time>
      </trkpt>
      <trkpt lat="45.4385" lon="5.6896">
        <ele>854.5</ele>
        <time>2016-05-21T10:43:02Z</time>
      </trkpt>
      <trkpt lat="45.43853" lon="5.68949">
        <ele>854.8</ele>
        <time>2016-05-21T10:43:04Z</time>
      </trkpt>
      <trkpt lat="45.43855" lon="5.68939">
        <ele>855.2</ele>
        <time>2016-05-21T10:43:06Z</time>
      </trkpt>
      <trkpt lat="45.43859" lon="5.68929">
        <ele>855.6</ele>
        <time>2016-05-21T10:43:08Z</time>
      </trkpt>
      <trkpt lat="45.43865" lon="5.68919">
        <ele>856.3</ele>
        <time>2016-05-21T10:43:11Z</time>
      </trkpt>
      <trkpt lat="45.43873" lon="5.68908">
        <ele>856.9</ele>
        <time>2016-05-21T10:43:14Z</time>
      </trkpt>
      <trkpt lat="45.4388" lon="5.68903">
        <ele>860.1</ele>
        <time>2016-05-21T10:43:17Z</time>
      </trkpt>
      <trkpt lat="45.43888" lon="5.68899">
        <ele>862.9</ele>
        <time>2016-05-21T10:43:19Z</time>
      </trkpt>
      <trkpt lat="45.43897" lon="5.68896">
        <ele>866.9</ele>
        <time>2016-05-21T10:43:21Z</time>
      </trkpt>
      <trkpt lat="45.43906" lon="5.68894">
        <ele>869.3</ele>
        <time>2016-05-21T10:43:23Z</time>
      </trkpt>
      <trkpt lat="45.43914" lon="5.6889">
        <ele>870.3</ele>
        <time>2016-05-21T10:43:25Z</time>
      </trkpt>
      <trkpt lat="45.43921" lon="5.68886">
        <ele>870.9</ele>
        <time>2016-05-21T10:43:27Z</time>
      </trkpt>
      <trkpt lat="45.43932" lon="5.68881">
        <ele>871.3</ele>
        <time>2016-05-21T10:43:29Z</time>
      </trkpt>
      <trkpt lat="45.43941" lon="5.68876">
        <ele>871.9</ele>
        <time>2016-05-21T10:43:31Z</time>
      </trkpt>
      <trkpt lat="45.43951" lon="5.68871">
        <ele>872.5</ele>
        <time>2016-05-21T10:43:33Z</time>
      </trkpt>
      <trkpt lat="45.4396" lon="5.68866">
        <ele>873.1</ele>
        <time>2016-05-21T10:43:35Z</time>
      </trkpt>
      <trkpt lat="45.43969" lon="5.68861">
        <ele>873.7</ele>
        <time>2016-05-21T10:43:37Z</time>
      </trkpt>
      <trkpt lat="45.43978" lon="5.68854">
        <ele>874</ele>
        <time>2016-05-21T10:43:39Z</time>
      </trkpt>
      <trkpt lat="45.43986" lon="5.68845">
        <ele>874.1</ele>
        <time>2016-05-21T10:43:41Z</time>
      </trkpt>
      <trkpt lat="45.43994" lon="5.68835">
        <ele>873.9</ele>
        <time>2016-05-21T10:43:43Z</time>
      </trkpt>
      <trkpt lat="45.44" lon="5.68821">
        <ele>873.1</ele>
        <time>2016-05-21T10:43:45Z</time>
      </trkpt>
      <trkpt lat="45.44005" lon="5.68806">
        <ele>872.2</ele>
        <time>2016-05-21T10:43:47Z</time>
      </trkpt>
      <trkpt lat="45.44008" lon="5.6879">
        <ele>871.6</ele>
        <time>2016-05-21T10:43:49Z</time>
      </trkpt>
      <trkpt lat="45.44008" lon="5.68778">
        <ele>870.4</ele>
        <time>2016-05-21T10:43:51Z</time>
      </trkpt>
      <trkpt lat="45.44007" lon="5.68765">
        <ele>870.1</ele>
        <time>2016-05-21T10:43:53Z</time>
      </trkpt>
      <trkpt lat="45.44003" lon="5.68755">
        <ele>869.9</ele>
        <time>2016-05-21T10:43:55Z</time>
      </trkpt>
      <trkpt lat="45.44" lon="5.68744">
        <ele>870.2</ele>
        <time>2016-05-21T10:43:57Z</time>
      </trkpt>
      <trkpt lat="45.43994" lon="5.68735">
        <ele>870.5</ele>
        <time>2016-05-21T10:43:59Z</time>
      </trkpt>
      <trkpt lat="45.43989" lon="5.68725">
        <ele>870.9</ele>
        <time>2016-05-21T10:44:01Z</time>
      </trkpt>
      <trkpt lat="45.43982" lon="5.68717">
        <ele>871</ele>
        <time>2016-05-21T10:44:03Z</time>
      </trkpt>
      <trkpt lat="45.43977" lon="5.68708">
        <ele>871.4</ele>
        <time>2016-05-21T10:44:05Z</time>
      </trkpt>
      <trkpt lat="45.43971" lon="5.687">
        <ele>871.1</ele>
        <time>2016-05-21T10:44:07Z</time>
      </trkpt>
      <trkpt lat="45.43966" lon="5.68692">
        <ele>871.2</ele>
        <time>2016-05-21T10:44:09Z</time>
      </trkpt>
      <trkpt lat="45.43958" lon="5.68681">
        <ele>871.7</ele>
        <time>2016-05-21T10:44:12Z</time>
      </trkpt>
      <trkpt lat="45.43951" lon="5.68671">
        <ele>871.9</ele>
        <time>2016-05-21T10:44:15Z</time>
      </trkpt>
      <trkpt lat="45.43946" lon="5.68663">
        <ele>872</ele>
        <time>2016-05-21T10:44:17Z</time>
      </trkpt>
      <trkpt lat="45.43941" lon="5.68655">
        <ele>872.7</ele>
        <time>2016-05-21T10:44:19Z</time>
      </trkpt>
      <trkpt lat="45.43935" lon="5.68646">
        <ele>872.8</ele>
        <time>2016-05-21T10:44:21Z</time>
      </trkpt>
      <trkpt lat="45.4393" lon="5.68639">
        <ele>872.8</ele>
        <time>2016-05-21T10:44:23Z</time>
      </trkpt>
      <trkpt lat="45.43922" lon="5.6863">
        <ele>873.5</ele>
        <time>2016-05-21T10:44:26Z</time>
      </trkpt>
      <trkpt lat="45.43916" lon="5.68623">
        <ele>873.8</ele>
        <time>2016-05-21T10:44:28Z</time>
      </trkpt>
      <trkpt lat="45.43909" lon="5.68614">
        <ele>874.5</ele>
        <time>2016-05-21T10:44:30Z</time>
      </trkpt>
      <trkpt lat="45.43903" lon="5.68605">
        <ele>874.4</ele>
        <time>2016-05-21T10:44:32Z</time>
      </trkpt>
      <trkpt lat="45.43898" lon="5.68598">
        <ele>874</ele>
        <time>2016-05-21T10:44:34Z</time>
      </trkpt>
      <trkpt lat="45.43892" lon="5.6859">
        <ele>874.5</ele>
        <time>2016-05-21T10:44:36Z</time>
      </trkpt>
      <trkpt lat="45.43885" lon="5.6858">
        <ele>874.6</ele>
        <time>2016-05-21T10:44:39Z</time>
      </trkpt>
      <trkpt lat="45.43878" lon="5.6857">
        <ele>874.7</ele>
        <time>2016-05-21T10:44:42Z</time>
      </trkpt>
      <trkpt lat="45.43871" lon="5.68562">
        <ele>875.1</ele>
        <time>2016-05-21T10:44:45Z</time>
      </trkpt>
      <trkpt lat="45.43866" lon="5.68556">
        <ele>875.8</ele>
        <time>2016-05-21T10:44:47Z</time>
      </trkpt>
      <trkpt lat="45.43859" lon="5.68549">
        <ele>877.7</ele>
        <time>2016-05-21T10:44:49Z</time>
      </trkpt>
      <trkpt lat="45.43853" lon="5.68541">
        <ele>878.3</ele>
        <time>2016-05-21T10:44:51Z</time>
      </trkpt>
      <trkpt lat="45.43847" lon="5.68533">
        <ele>878.5</ele>
        <time>2016-05-21T10:44:53Z</time>
      </trkpt>
      <trkpt lat="45.43841" lon="5.68523">
        <ele>878.3</ele>
        <time>2016-05-21T10:44:56Z</time>
      </trkpt>
      <trkpt lat="45.43837" lon="5.68515">
        <ele>878</ele>
        <time>2016-05-21T10:44:58Z</time>
      </trkpt>
      <trkpt lat="45.43831" lon="5.68507">
        <ele>878</ele>
        <time>2016-05-21T10:45:00Z</time>
      </trkpt>
      <trkpt lat="45.43824" lon="5.68496">
        <ele>878.3</ele>
        <time>2016-05-21T10:45:03Z</time>
      </trkpt>
      <trkpt lat="45.43818" lon="5.68488">
        <ele>878.6</ele>
        <time>2016-05-21T10:45:05Z</time>
      </trkpt>
      <trkpt lat="45.4381" lon="5.68479">
        <ele>881</ele>
        <time>2016-05-21T10:45:08Z</time>
      </trkpt>
      <trkpt lat="45.43804" lon="5.68472">
        <ele>882.2</ele>
        <time>2016-05-21T10:45:10Z</time>
      </trkpt>
      <trkpt lat="45.43795" lon="5.68463">
        <ele>882.2</ele>
        <time>2016-05-21T10:45:13Z</time>
      </trkpt>
      <trkpt lat="45.43789" lon="5.68456">
        <ele>882.2</ele>
        <time>2016-05-21T10:45:15Z</time>
      </trkpt>
      <trkpt lat="45.43781" lon="5.68446">
        <ele>882.2</ele>
        <time>2016-05-21T10:45:18Z</time>
      </trkpt>
      <trkpt lat="45.43773" lon="5.68438">
        <ele>882.5</ele>
        <time>2016-05-21T10:45:21Z</time>
      </trkpt>
      <trkpt lat="45.43764" lon="5.68429">
        <ele>884.1</ele>
        <time>2016-05-21T10:45:24Z</time>
      </trkpt>
      <trkpt lat="45.43758" lon="5.68422">
        <ele>884.3</ele>
        <time>2016-05-21T10:45:26Z</time>
      </trkpt>
      <trkpt lat="45.43748" lon="5.68415">
        <ele>885.1</ele>
        <time>2016-05-21T10:45:29Z</time>
      </trkpt>
      <trkpt lat="45.43742" lon="5.68409">
        <ele>885.2</ele>
        <time>2016-05-21T10:45:31Z</time>
      </trkpt>
      <trkpt lat="45.43736" lon="5.68403">
        <ele>886.5</ele>
        <time>2016-05-21T10:45:33Z</time>
      </trkpt>
      <trkpt lat="45.43729" lon="5.68397">
        <ele>888.4</ele>
        <time>2016-05-21T10:45:35Z</time>
      </trkpt>
      <trkpt lat="45.43722" lon="5.68391">
        <ele>888.5</ele>
        <time>2016-05-21T10:45:37Z</time>
      </trkpt>
      <trkpt lat="45.43712" lon="5.68385">
        <ele>889.2</ele>
        <time>2016-05-21T10:45:40Z</time>
      </trkpt>
      <trkpt lat="45.43702" lon="5.68379">
        <ele>888.4</ele>
        <time>2016-05-21T10:45:43Z</time>
      </trkpt>
      <trkpt lat="45.43695" lon="5.68375">
        <ele>888.9</ele>
        <time>2016-05-21T10:45:45Z</time>
      </trkpt>
      <trkpt lat="45.43689" lon="5.6837">
        <ele>890</ele>
        <time>2016-05-21T10:45:47Z</time>
      </trkpt>
      <trkpt lat="45.43681" lon="5.68365">
        <ele>891.9</ele>
        <time>2016-05-21T10:45:49Z</time>
      </trkpt>
      <trkpt lat="45.43674" lon="5.68359">
        <ele>893.6</ele>
        <time>2016-05-21T10:45:51Z</time>
      </trkpt>
      <trkpt lat="45.43666" lon="5.68354">
        <ele>894.9</ele>
        <time>2016-05-21T10:45:53Z</time>
      </trkpt>
      <trkpt lat="45.43659" lon="5.68349">
        <ele>895.8</ele>
        <time>2016-05-21T10:45:55Z</time>
      </trkpt>
      <trkpt lat="45.43652" lon="5.68344">
        <ele>897.3</ele>
        <time>2016-05-21T10:45:57Z</time>
      </trkpt>
      <trkpt lat="45.43645" lon="5.68339">
        <ele>897.4</ele>
        <time>2016-05-21T10:45:59Z</time>
      </trkpt>
      <trkpt lat="45.43638" lon="5.68335">
        <ele>897.4</ele>
        <time>2016-05-21T10:46:01Z</time>
      </trkpt>
      <trkpt lat="45.43628" lon="5.68325">
        <ele>897.3</ele>
        <time>2016-05-21T10:46:04Z</time>
      </trkpt>
      <trkpt lat="45.43621" lon="5.6832">
        <ele>897.3</ele>
        <time>2016-05-21T10:46:06Z</time>
      </trkpt>
      <trkpt lat="45.43612" lon="5.68313">
        <ele>898.3</ele>
        <time>2016-05-21T10:46:09Z</time>
      </trkpt>
      <trkpt lat="45.43604" lon="5.68308">
        <ele>898.3</ele>
        <time>2016-05-21T10:46:11Z</time>
      </trkpt>
      <trkpt lat="45.43596" lon="5.68303">
        <ele>897</ele>
        <time>2016-05-21T10:46:13Z</time>
      </trkpt>
      <trkpt lat="45.4359" lon="5.68298">
        <ele>896.6</ele>
        <time>2016-05-21T10:46:15Z</time>
      </trkpt>
      <trkpt lat="45.43583" lon="5.68294">
        <ele>896.6</ele>
        <time>2016-05-21T10:46:17Z</time>
      </trkpt>
      <trkpt lat="45.43576" lon="5.68289">
        <ele>896.7</ele>
        <time>2016-05-21T10:46:19Z</time>
      </trkpt>
      <trkpt lat="45.43569" lon="5.68284">
        <ele>896.7</ele>
        <time>2016-05-21T10:46:21Z</time>
      </trkpt>
      <trkpt lat="45.43562" lon="5.68279">
        <ele>896.7</ele>
        <time>2016-05-21T10:46:23Z</time>
      </trkpt>
      <trkpt lat="45.43555" lon="5.68273">
        <ele>897.3</ele>
        <time>2016-05-21T10:46:25Z</time>
      </trkpt>
      <trkpt lat="45.43548" lon="5.68267">
        <ele>897.4</ele>
        <time>2016-05-21T10:46:27Z</time>
      </trkpt>
      <trkpt lat="45.43542" lon="5.68262">
        <ele>896.8</ele>
        <time>2016-05-21T10:46:29Z</time>
      </trkpt>
      <trkpt lat="45.43535" lon="5.68258">
        <ele>896.7</ele>
        <time>2016-05-21T10:46:31Z</time>
      </trkpt>
      <trkpt lat="45.43528" lon="5.68254">
        <ele>896.1</ele>
        <time>2016-05-21T10:46:33Z</time>
      </trkpt>
      <trkpt lat="45.43521" lon="5.68249">
        <ele>896.4</ele>
        <time>2016-05-21T10:46:35Z</time>
      </trkpt>
      <trkpt lat="45.43512" lon="5.68243">
        <ele>896.6</ele>
        <time>2016-05-21T10:46:37Z</time>
      </trkpt>
      <trkpt lat="45.43501" lon="5.68235">
        <ele>897.1</ele>
        <time>2016-05-21T10:46:39Z</time>
      </trkpt>
      <trkpt lat="45.4349" lon="5.68226">
        <ele>897.1</ele>
        <time>2016-05-21T10:46:41Z</time>
      </trkpt>
      <trkpt lat="45.43479" lon="5.68218">
        <ele>896.6</ele>
        <time>2016-05-21T10:46:43Z</time>
      </trkpt>
      <trkpt lat="45.43468" lon="5.6821">
        <ele>896.4</ele>
        <time>2016-05-21T10:46:45Z</time>
      </trkpt>
      <trkpt lat="45.43457" lon="5.68206">
        <ele>897.5</ele>
        <time>2016-05-21T10:46:47Z</time>
      </trkpt>
      <trkpt lat="45.43447" lon="5.68201">
        <ele>898.3</ele>
        <time>2016-05-21T10:46:49Z</time>
      </trkpt>
      <trkpt lat="45.43439" lon="5.68196">
        <ele>899.1</ele>
        <time>2016-05-21T10:46:51Z</time>
      </trkpt>
      <trkpt lat="45.43431" lon="5.68193">
        <ele>900.2</ele>
        <time>2016-05-21T10:46:53Z</time>
      </trkpt>
      <trkpt lat="45.43422" lon="5.68188">
        <ele>901.6</ele>
        <time>2016-05-21T10:46:55Z</time>
      </trkpt>
      <trkpt lat="45.43413" lon="5.68184">
        <ele>902.2</ele>
        <time>2016-05-21T10:46:57Z</time>
      </trkpt>
      <trkpt lat="45.43405" lon="5.68178">
        <ele>903</ele>
        <time>2016-05-21T10:46:59Z</time>
      </trkpt>
      <trkpt lat="45.43398" lon="5.68173">
        <ele>902.6</ele>
        <time>2016-05-21T10:47:01Z</time>
      </trkpt>
      <trkpt lat="45.43391" lon="5.68168">
        <ele>902.6</ele>
        <time>2016-05-21T10:47:03Z</time>
      </trkpt>
      <trkpt lat="45.43384" lon="5.6816">
        <ele>904.9</ele>
        <time>2016-05-21T10:47:05Z</time>
      </trkpt>
      <trkpt lat="45.43376" lon="5.68155">
        <ele>906.4</ele>
        <time>2016-05-21T10:47:07Z</time>
      </trkpt>
      <trkpt lat="45.43369" lon="5.68151">
        <ele>907.5</ele>
        <time>2016-05-21T10:47:09Z</time>
      </trkpt>
      <trkpt lat="45.43359" lon="5.68146">
        <ele>907.8</ele>
        <time>2016-05-21T10:47:12Z</time>
      </trkpt>
      <trkpt lat="45.43351" lon="5.68139">
        <ele>909.7</ele>
        <time>2016-05-21T10:47:14Z</time>
      </trkpt>
      <trkpt lat="45.43345" lon="5.68133">
        <ele>910.8</ele>
        <time>2016-05-21T10:47:16Z</time>
      </trkpt>
      <trkpt lat="45.43339" lon="5.68124">
        <ele>911.9</ele>
        <time>2016-05-21T10:47:18Z</time>
      </trkpt>
      <trkpt lat="45.43335" lon="5.68113">
        <ele>913.1</ele>
        <time>2016-05-21T10:47:20Z</time>
      </trkpt>
      <trkpt lat="45.43331" lon="5.681">
        <ele>914.1</ele>
        <time>2016-05-21T10:47:22Z</time>
      </trkpt>
      <trkpt lat="45.43329" lon="5.68089">
        <ele>914.2</ele>
        <time>2016-05-21T10:47:24Z</time>
      </trkpt>
      <trkpt lat="45.43327" lon="5.68076">
        <ele>914.3</ele>
        <time>2016-05-21T10:47:27Z</time>
      </trkpt>
      <trkpt lat="45.43325" lon="5.68064">
        <ele>914.6</ele>
        <time>2016-05-21T10:47:30Z</time>
      </trkpt>
      <trkpt lat="45.43324" lon="5.68053">
        <ele>915.1</ele>
        <time>2016-05-21T10:47:32Z</time>
      </trkpt>
      <trkpt lat="45.43319" lon="5.68042">
        <ele>915.6</ele>
        <time>2016-05-21T10:47:34Z</time>
      </trkpt>
      <trkpt lat="45.43312" lon="5.68027">
        <ele>917.8</ele>
        <time>2016-05-21T10:47:36Z</time>
      </trkpt>
      <trkpt lat="45.4331" lon="5.68014">
        <ele>921.9</ele>
        <time>2016-05-21T10:47:38Z</time>
      </trkpt>
      <trkpt lat="45.4331" lon="5.67999">
        <ele>924.5</ele>
        <time>2016-05-21T10:47:40Z</time>
      </trkpt>
      <trkpt lat="45.4331" lon="5.67987">
        <ele>925.4</ele>
        <time>2016-05-21T10:47:42Z</time>
      </trkpt>
      <trkpt lat="45.43311" lon="5.67974">
        <ele>925.5</ele>
        <time>2016-05-21T10:47:44Z</time>
      </trkpt>
      <trkpt lat="45.4331" lon="5.67962">
        <ele>925.3</ele>
        <time>2016-05-21T10:47:46Z</time>
      </trkpt>
      <trkpt lat="45.43312" lon="5.67949">
        <ele>924.8</ele>
        <time>2016-05-21T10:47:48Z</time>
      </trkpt>
      <trkpt lat="45.43312" lon="5.67936">
        <ele>921.2</ele>
        <time>2016-05-21T10:47:50Z</time>
      </trkpt>
      <trkpt lat="45.43312" lon="5.67922">
        <ele>921.5</ele>
        <time>2016-05-21T10:47:52Z</time>
      </trkpt>
      <trkpt lat="45.43312" lon="5.6791">
        <ele>921.9</ele>
        <time>2016-05-21T10:47:54Z</time>
      </trkpt>
      <trkpt lat="45.43312" lon="5.67899">
        <ele>922</ele>
        <time>2016-05-21T10:47:56Z</time>
      </trkpt>
      <trkpt lat="45.4331" lon="5.67888">
        <ele>922.2</ele>
        <time>2016-05-21T10:48:00Z</time>
      </trkpt>
      <trkpt lat="45.43312" lon="5.6788">
        <ele>922.7</ele>
        <time>2016-05-21T10:48:07Z</time>
      </trkpt>
      <trkpt lat="45.4331" lon="5.67876">
        <ele>921.8</ele>
        <time>2016-05-21T10:48:56Z</time>
      </trkpt>
      <trkpt lat="45.43312" lon="5.67869">
        <ele>921.3</ele>
        <time>2016-05-21T10:50:07Z</time>
      </trkpt>
      <trkpt lat="45.43311" lon="5.67864">
        <ele>921.2</ele>
        <time>2016-05-21T10:50:26Z</time>
      </trkpt>
      <trkpt lat="45.4331" lon="5.67858">
        <ele>919.1</ele>
        <time>2016-05-21T10:49:57Z</time>
      </trkpt>
      <trkpt lat="45.43308" lon="5.67858">
        <ele>918.3</ele>
        <time>2016-05-21T10:51:16Z</time>
      </trkpt>
      <trkpt lat="45.43312" lon="5.67857">
        <ele>919.7</ele>
        <time>2016-05-21T10:55:21Z</time>
      </trkpt>
      <trkpt lat="45.43316" lon="5.67852">
        <ele>922</ele>
        <time>2016-05-21T10:56:35Z</time>
      </trkpt>
      <trkpt lat="45.43314" lon="5.67845">
        <ele>923.6</ele>
        <time>2016-05-21T10:57:50Z</time>
      </trkpt>
      <trkpt lat="45.43313" lon="5.67831">
        <ele>923.5</ele>
        <time>2016-05-21T10:57:54Z</time>
      </trkpt>
      <trkpt lat="45.43313" lon="5.6782">
        <ele>923.1</ele>
        <time>2016-05-21T10:57:56Z</time>
      </trkpt>
      <trkpt lat="45.43312" lon="5.67806">
        <ele>922.9</ele>
        <time>2016-05-21T10:57:58Z</time>
      </trkpt>
      <trkpt lat="45.43309" lon="5.67788">
        <ele>923.1</ele>
        <time>2016-05-21T10:58:00Z</time>
      </trkpt>
      <trkpt lat="45.43306" lon="5.67768">
        <ele>922.1</ele>
        <time>2016-05-21T10:58:02Z</time>
      </trkpt>
      <trkpt lat="45.43304" lon="5.67757">
        <ele>921.8</ele>
        <time>2016-05-21T10:58:03Z</time>
      </trkpt>
      <trkpt lat="45.43302" lon="5.67743">
        <ele>921.8</ele>
        <time>2016-05-21T10:58:04Z</time>
      </trkpt>
      <trkpt lat="45.433" lon="5.67731">
        <ele>921</ele>
        <time>2016-05-21T10:58:05Z</time>
      </trkpt>
      <trkpt lat="45.43298" lon="5.67719">
        <ele>920.4</ele>
        <time>2016-05-21T10:58:06Z</time>
      </trkpt>
      <trkpt lat="45.43294" lon="5.67707">
        <ele>920.6</ele>
        <time>2016-05-21T10:58:07Z</time>
      </trkpt>
      <trkpt lat="45.43288" lon="5.67697">
        <ele>920.8</ele>
        <time>2016-05-21T10:58:08Z</time>
      </trkpt>
      <trkpt lat="45.43282" lon="5.67688">
        <ele>921.7</ele>
        <time>2016-05-21T10:58:09Z</time>
      </trkpt>
      <trkpt lat="45.43277" lon="5.67678">
        <ele>922.2</ele>
        <time>2016-05-21T10:58:10Z</time>
      </trkpt>
      <trkpt lat="45.43271" lon="5.67667">
        <ele>922.1</ele>
        <time>2016-05-21T10:58:11Z</time>
      </trkpt>
      <trkpt lat="45.43266" lon="5.67656">
        <ele>922.7</ele>
        <time>2016-05-21T10:58:12Z</time>
      </trkpt>
      <trkpt lat="45.4326" lon="5.67645">
        <ele>921.8</ele>
        <time>2016-05-21T10:58:13Z</time>
      </trkpt>
      <trkpt lat="45.43254" lon="5.67634">
        <ele>921.7</ele>
        <time>2016-05-21T10:58:14Z</time>
      </trkpt>
      <trkpt lat="45.43247" lon="5.67621">
        <ele>922.1</ele>
        <time>2016-05-21T10:58:15Z</time>
      </trkpt>
      <trkpt lat="45.43242" lon="5.67609">
        <ele>921.9</ele>
        <time>2016-05-21T10:58:16Z</time>
      </trkpt>
      <trkpt lat="45.43236" lon="5.67598">
        <ele>921.5</ele>
        <time>2016-05-21T10:58:17Z</time>
      </trkpt>
      <trkpt lat="45.4323" lon="5.67586">
        <ele>921.3</ele>
        <time>2016-05-21T10:58:18Z</time>
      </trkpt>
      <trkpt lat="45.43225" lon="5.67571">
        <ele>920.8</ele>
        <time>2016-05-21T10:58:19Z</time>
      </trkpt>
      <trkpt lat="45.43218" lon="5.67555">
        <ele>920.5</ele>
        <time>2016-05-21T10:58:20Z</time>
      </trkpt>
      <trkpt lat="45.43211" lon="5.6754">
        <ele>919.6</ele>
        <time>2016-05-21T10:58:21Z</time>
      </trkpt>
      <trkpt lat="45.43204" lon="5.67523">
        <ele>918.7</ele>
        <time>2016-05-21T10:58:22Z</time>
      </trkpt>
      <trkpt lat="45.43198" lon="5.67509">
        <ele>918.2</ele>
        <time>2016-05-21T10:58:23Z</time>
      </trkpt>
      <trkpt lat="45.43191" lon="5.67494">
        <ele>917.8</ele>
        <time>2016-05-21T10:58:24Z</time>
      </trkpt>
      <trkpt lat="45.43185" lon="5.67479">
        <ele>918.5</ele>
        <time>2016-05-21T10:58:25Z</time>
      </trkpt>
      <trkpt lat="45.43178" lon="5.67462">
        <ele>918.7</ele>
        <time>2016-05-21T10:58:26Z</time>
      </trkpt>
      <trkpt lat="45.43171" lon="5.67445">
        <ele>918.2</ele>
        <time>2016-05-21T10:58:27Z</time>
      </trkpt>
      <trkpt lat="45.43164" lon="5.67428">
        <ele>918.9</ele>
        <time>2016-05-21T10:58:28Z</time>
      </trkpt>
      <trkpt lat="45.43157" lon="5.67412">
        <ele>918</ele>
        <time>2016-05-21T10:58:29Z</time>
      </trkpt>
      <trkpt lat="45.43158" lon="5.67395">
        <ele>918.3</ele>
        <time>2016-05-21T10:58:30Z</time>
      </trkpt>
      <trkpt lat="45.43161" lon="5.67377">
        <ele>918.5</ele>
        <time>2016-05-21T10:58:31Z</time>
      </trkpt>
      <trkpt lat="45.43164" lon="5.6736">
        <ele>918.1</ele>
        <time>2016-05-21T10:58:32Z</time>
      </trkpt>
      <trkpt lat="45.43168" lon="5.67342">
        <ele>918.5</ele>
        <time>2016-05-21T10:58:33Z</time>
      </trkpt>
      <trkpt lat="45.43172" lon="5.67325">
        <ele>917.5</ele>
        <time>2016-05-21T10:58:34Z</time>
      </trkpt>
      <trkpt lat="45.43173" lon="5.67312">
        <ele>914.7</ele>
        <time>2016-05-21T10:58:35Z</time>
      </trkpt>
      <trkpt lat="45.43171" lon="5.67298">
        <ele>913.4</ele>
        <time>2016-05-21T10:58:36Z</time>
      </trkpt>
      <trkpt lat="45.4317" lon="5.67279">
        <ele>912</ele>
        <time>2016-05-21T10:58:37Z</time>
      </trkpt>
      <trkpt lat="45.43168" lon="5.67261">
        <ele>911</ele>
        <time>2016-05-21T10:58:38Z</time>
      </trkpt>
      <trkpt lat="45.43166" lon="5.6724">
        <ele>910.8</ele>
        <time>2016-05-21T10:58:39Z</time>
      </trkpt>
      <trkpt lat="45.43164" lon="5.67219">
        <ele>909.9</ele>
        <time>2016-05-21T10:58:40Z</time>
      </trkpt>
      <trkpt lat="45.43162" lon="5.67202">
        <ele>908.9</ele>
        <time>2016-05-21T10:58:41Z</time>
      </trkpt>
      <trkpt lat="45.43159" lon="5.67181">
        <ele>907.7</ele>
        <time>2016-05-21T10:58:42Z</time>
      </trkpt>
      <trkpt lat="45.43156" lon="5.6716">
        <ele>906.7</ele>
        <time>2016-05-21T10:58:43Z</time>
      </trkpt>
      <trkpt lat="45.43152" lon="5.6714">
        <ele>905.2</ele>
        <time>2016-05-21T10:58:44Z</time>
      </trkpt>
      <trkpt lat="45.43147" lon="5.6712">
        <ele>903.7</ele>
        <time>2016-05-21T10:58:45Z</time>
      </trkpt>
      <trkpt lat="45.43143" lon="5.671">
        <ele>902.5</ele>
        <time>2016-05-21T10:58:46Z</time>
      </trkpt>
      <trkpt lat="45.43137" lon="5.67078">
        <ele>901.8</ele>
        <time>2016-05-21T10:58:47Z</time>
      </trkpt>
      <trkpt lat="45.43131" lon="5.67056">
        <ele>899.6</ele>
        <time>2016-05-21T10:58:48Z</time>
      </trkpt>
      <trkpt lat="45.43126" lon="5.67032">
        <ele>898.9</ele>
        <time>2016-05-21T10:58:49Z</time>
      </trkpt>
      <trkpt lat="45.43119" lon="5.6701">
        <ele>897.3</ele>
        <time>2016-05-21T10:58:50Z</time>
      </trkpt>
      <trkpt lat="45.43113" lon="5.66988">
        <ele>896</ele>
        <time>2016-05-21T10:58:51Z</time>
      </trkpt>
      <trkpt lat="45.4311" lon="5.66968">
        <ele>895.6</ele>
        <time>2016-05-21T10:58:52Z</time>
      </trkpt>
      <trkpt lat="45.43105" lon="5.66949">
        <ele>895</ele>
        <time>2016-05-21T10:58:53Z</time>
      </trkpt>
      <trkpt lat="45.43099" lon="5.66928">
        <ele>894.3</ele>
        <time>2016-05-21T10:58:54Z</time>
      </trkpt>
      <trkpt lat="45.43093" lon="5.66908">
        <ele>893.6</ele>
        <time>2016-05-21T10:58:55Z</time>
      </trkpt>
      <trkpt lat="45.43087" lon="5.66888">
        <ele>893</ele>
        <time>2016-05-21T10:58:56Z</time>
      </trkpt>
      <trkpt lat="45.43081" lon="5.66869">
        <ele>891.4</ele>
        <time>2016-05-21T10:58:57Z</time>
      </trkpt>
      <trkpt lat="45.43075" lon="5.6685">
        <ele>889.2</ele>
        <time>2016-05-21T10:58:58Z</time>
      </trkpt>
      <trkpt lat="45.43071" lon="5.66831">
        <ele>887.1</ele>
        <time>2016-05-21T10:58:59Z</time>
      </trkpt>
      <trkpt lat="45.43067" lon="5.66812">
        <ele>884.5</ele>
        <time>2016-05-21T10:59:00Z</time>
      </trkpt>
      <trkpt lat="45.43063" lon="5.66795">
        <ele>882.6</ele>
        <time>2016-05-21T10:59:01Z</time>
      </trkpt>
      <trkpt lat="45.43062" lon="5.66776">
        <ele>881.2</ele>
        <time>2016-05-21T10:59:02Z</time>
      </trkpt>
      <trkpt lat="45.43062" lon="5.66758">
        <ele>879.1</ele>
        <time>2016-05-21T10:59:03Z</time>
      </trkpt>
      <trkpt lat="45.43063" lon="5.66741">
        <ele>877.3</ele>
        <time>2016-05-21T10:59:04Z</time>
      </trkpt>
      <trkpt lat="45.43066" lon="5.66724">
        <ele>875.9</ele>
        <time>2016-05-21T10:59:05Z</time>
      </trkpt>
      <trkpt lat="45.4307" lon="5.66708">
        <ele>874.2</ele>
        <time>2016-05-21T10:59:06Z</time>
      </trkpt>
      <trkpt lat="45.43074" lon="5.66691">
        <ele>872.5</ele>
        <time>2016-05-21T10:59:07Z</time>
      </trkpt>
      <trkpt lat="45.43079" lon="5.66674">
        <ele>870.6</ele>
        <time>2016-05-21T10:59:08Z</time>
      </trkpt>
      <trkpt lat="45.43083" lon="5.66656">
        <ele>868.9</ele>
        <time>2016-05-21T10:59:09Z</time>
      </trkpt>
      <trkpt lat="45.43088" lon="5.66639">
        <ele>867.6</ele>
        <time>2016-05-21T10:59:10Z</time>
      </trkpt>
      <trkpt lat="45.43092" lon="5.66619">
        <ele>867.1</ele>
        <time>2016-05-21T10:59:11Z</time>
      </trkpt>
      <trkpt lat="45.43095" lon="5.66598">
        <ele>866.2</ele>
        <time>2016-05-21T10:59:12Z</time>
      </trkpt>
      <trkpt lat="45.43095" lon="5.66577">
        <ele>865.3</ele>
        <time>2016-05-21T10:59:13Z</time>
      </trkpt>
      <trkpt lat="45.43094" lon="5.66556">
        <ele>864</ele>
        <time>2016-05-21T10:59:14Z</time>
      </trkpt>
      <trkpt lat="45.43092" lon="5.66536">
        <ele>862.8</ele>
        <time>2016-05-21T10:59:15Z</time>
      </trkpt>
      <trkpt lat="45.4309" lon="5.66515">
        <ele>862</ele>
        <time>2016-05-21T10:59:16Z</time>
      </trkpt>
      <trkpt lat="45.43089" lon="5.66495">
        <ele>861.2</ele>
        <time>2016-05-21T10:59:17Z</time>
      </trkpt>
      <trkpt lat="45.43087" lon="5.66475">
        <ele>860</ele>
        <time>2016-05-21T10:59:18Z</time>
      </trkpt>
      <trkpt lat="45.43083" lon="5.66454">
        <ele>858.7</ele>
        <time>2016-05-21T10:59:19Z</time>
      </trkpt>
      <trkpt lat="45.43081" lon="5.66435">
        <ele>858.1</ele>
        <time>2016-05-21T10:59:20Z</time>
      </trkpt>
      <trkpt lat="45.43078" lon="5.66416">
        <ele>857.6</ele>
        <time>2016-05-21T10:59:21Z</time>
      </trkpt>
      <trkpt lat="45.43073" lon="5.66398">
        <ele>857</ele>
        <time>2016-05-21T10:59:22Z</time>
      </trkpt>
      <trkpt lat="45.43065" lon="5.66384">
        <ele>857.3</ele>
        <time>2016-05-21T10:59:23Z</time>
      </trkpt>
      <trkpt lat="45.43057" lon="5.6637">
        <ele>857.3</ele>
        <time>2016-05-21T10:59:24Z</time>
      </trkpt>
      <trkpt lat="45.43049" lon="5.66356">
        <ele>856.9</ele>
        <time>2016-05-21T10:59:25Z</time>
      </trkpt>
      <trkpt lat="45.43041" lon="5.66339">
        <ele>856.4</ele>
        <time>2016-05-21T10:59:26Z</time>
      </trkpt>
      <trkpt lat="45.43034" lon="5.66323">
        <ele>856.3</ele>
        <time>2016-05-21T10:59:27Z</time>
      </trkpt>
      <trkpt lat="45.4303" lon="5.66305">
        <ele>855.8</ele>
        <time>2016-05-21T10:59:28Z</time>
      </trkpt>
      <trkpt lat="45.43024" lon="5.66287">
        <ele>855.1</ele>
        <time>2016-05-21T10:59:29Z</time>
      </trkpt>
      <trkpt lat="45.43017" lon="5.66274">
        <ele>854.4</ele>
        <time>2016-05-21T10:59:30Z</time>
      </trkpt>
      <trkpt lat="45.43011" lon="5.66259">
        <ele>854.3</ele>
        <time>2016-05-21T10:59:31Z</time>
      </trkpt>
      <trkpt lat="45.43004" lon="5.66244">
        <ele>854.5</ele>
        <time>2016-05-21T10:59:32Z</time>
      </trkpt>
      <trkpt lat="45.42997" lon="5.66228">
        <ele>854.5</ele>
        <time>2016-05-21T10:59:33Z</time>
      </trkpt>
      <trkpt lat="45.42989" lon="5.66213">
        <ele>855.1</ele>
        <time>2016-05-21T10:59:34Z</time>
      </trkpt>
      <trkpt lat="45.42982" lon="5.66199">
        <ele>855.1</ele>
        <time>2016-05-21T10:59:35Z</time>
      </trkpt>
      <trkpt lat="45.42974" lon="5.66185">
        <ele>854.5</ele>
        <time>2016-05-21T10:59:36Z</time>
      </trkpt>
      <trkpt lat="45.42968" lon="5.66168">
        <ele>853.1</ele>
        <time>2016-05-21T10:59:37Z</time>
      </trkpt>
      <trkpt lat="45.42961" lon="5.6615">
        <ele>852.7</ele>
        <time>2016-05-21T10:59:38Z</time>
      </trkpt>
      <trkpt lat="45.42955" lon="5.66133">
        <ele>852.8</ele>
        <time>2016-05-21T10:59:39Z</time>
      </trkpt>
      <trkpt lat="45.4295" lon="5.66116">
        <ele>853.4</ele>
        <time>2016-05-21T10:59:40Z</time>
      </trkpt>
      <trkpt lat="45.42944" lon="5.66097">
        <ele>853.2</ele>
        <time>2016-05-21T10:59:41Z</time>
      </trkpt>
      <trkpt lat="45.42939" lon="5.66079">
        <ele>851.7</ele>
        <time>2016-05-21T10:59:42Z</time>
      </trkpt>
      <trkpt lat="45.42932" lon="5.66061">
        <ele>849.5</ele>
        <time>2016-05-21T10:59:43Z</time>
      </trkpt>
      <trkpt lat="45.42926" lon="5.66043">
        <ele>848.4</ele>
        <time>2016-05-21T10:59:44Z</time>
      </trkpt>
      <trkpt lat="45.42919" lon="5.66025">
        <ele>847.1</ele>
        <time>2016-05-21T10:59:45Z</time>
      </trkpt>
      <trkpt lat="45.42913" lon="5.66008">
        <ele>846.4</ele>
        <time>2016-05-21T10:59:46Z</time>
      </trkpt>
      <trkpt lat="45.42906" lon="5.65989">
        <ele>845.6</ele>
        <time>2016-05-21T10:59:47Z</time>
      </trkpt>
      <trkpt lat="45.42899" lon="5.65973">
        <ele>844.9</ele>
        <time>2016-05-21T10:59:48Z</time>
      </trkpt>
      <trkpt lat="45.42892" lon="5.65955">
        <ele>844</ele>
        <time>2016-05-21T10:59:49Z</time>
      </trkpt>
      <trkpt lat="45.42885" lon="5.65938">
        <ele>842.9</ele>
        <time>2016-05-21T10:59:50Z</time>
      </trkpt>
      <trkpt lat="45.42878" lon="5.65921">
        <ele>841.3</ele>
        <time>2016-05-21T10:59:51Z</time>
      </trkpt>
      <trkpt lat="45.42871" lon="5.65904">
        <ele>840.1</ele>
        <time>2016-05-21T10:59:52Z</time>
      </trkpt>
      <trkpt lat="45.42864" lon="5.65887">
        <ele>838.6</ele>
        <time>2016-05-21T10:59:53Z</time>
      </trkpt>
      <trkpt lat="45.42857" lon="5.65871">
        <ele>836.8</ele>
        <time>2016-05-21T10:59:54Z</time>
      </trkpt>
      <trkpt lat="45.4285" lon="5.65855">
        <ele>836</ele>
        <time>2016-05-21T10:59:55Z</time>
      </trkpt>
      <trkpt lat="45.42845" lon="5.6584">
        <ele>834.5</ele>
        <time>2016-05-21T10:59:56Z</time>
      </trkpt>
      <trkpt lat="45.42839" lon="5.65825">
        <ele>833.7</ele>
        <time>2016-05-21T10:59:57Z</time>
      </trkpt>
      <trkpt lat="45.42831" lon="5.65809">
        <ele>832.2</ele>
        <time>2016-05-21T10:59:58Z</time>
      </trkpt>
      <trkpt lat="45.42823" lon="5.65798">
        <ele>830.6</ele>
        <time>2016-05-21T10:59:59Z</time>
      </trkpt>
      <trkpt lat="45.42812" lon="5.6579">
        <ele>830.3</ele>
        <time>2016-05-21T11:00:00Z</time>
      </trkpt>
      <trkpt lat="45.42802" lon="5.65781">
        <ele>829.5</ele>
        <time>2016-05-21T11:00:01Z</time>
      </trkpt>
      <trkpt lat="45.42791" lon="5.65769">
        <ele>829.3</ele>
        <time>2016-05-21T11:00:02Z</time>
      </trkpt>
      <trkpt lat="45.4278" lon="5.65758">
        <ele>828.9</ele>
        <time>2016-05-21T11:00:03Z</time>
      </trkpt>
      <trkpt lat="45.4277" lon="5.65746">
        <ele>827.6</ele>
        <time>2016-05-21T11:00:04Z</time>
      </trkpt>
      <trkpt lat="45.42761" lon="5.65733">
        <ele>826</ele>
        <time>2016-05-21T11:00:05Z</time>
      </trkpt>
      <trkpt lat="45.42754" lon="5.65718">
        <ele>823.8</ele>
        <time>2016-05-21T11:00:06Z</time>
      </trkpt>
      <trkpt lat="45.42747" lon="5.65704">
        <ele>822.8</ele>
        <time>2016-05-21T11:00:07Z</time>
      </trkpt>
      <trkpt lat="45.42741" lon="5.6569">
        <ele>821.3</ele>
        <time>2016-05-21T11:00:08Z</time>
      </trkpt>
      <trkpt lat="45.42733" lon="5.65674">
        <ele>819.7</ele>
        <time>2016-05-21T11:00:09Z</time>
      </trkpt>
      <trkpt lat="45.42726" lon="5.65658">
        <ele>819.7</ele>
        <time>2016-05-21T11:00:10Z</time>
      </trkpt>
      <trkpt lat="45.42718" lon="5.65644">
        <ele>819.7</ele>
        <time>2016-05-21T11:00:11Z</time>
      </trkpt>
      <trkpt lat="45.42711" lon="5.65629">
        <ele>819.1</ele>
        <time>2016-05-21T11:00:12Z</time>
      </trkpt>
      <trkpt lat="45.42703" lon="5.65615">
        <ele>818.3</ele>
        <time>2016-05-21T11:00:13Z</time>
      </trkpt>
      <trkpt lat="45.42695" lon="5.65601">
        <ele>817.5</ele>
        <time>2016-05-21T11:00:14Z</time>
      </trkpt>
      <trkpt lat="45.42688" lon="5.65586">
        <ele>815.7</ele>
        <time>2016-05-21T11:00:15Z</time>
      </trkpt>
      <trkpt lat="45.42681" lon="5.65572">
        <ele>814.1</ele>
        <time>2016-05-21T11:00:16Z</time>
      </trkpt>
      <trkpt lat="45.42673" lon="5.65556">
        <ele>812.7</ele>
        <time>2016-05-21T11:00:17Z</time>
      </trkpt>
      <trkpt lat="45.42668" lon="5.65539">
        <ele>811.8</ele>
        <time>2016-05-21T11:00:18Z</time>
      </trkpt>
      <trkpt lat="45.42663" lon="5.65521">
        <ele>811</ele>
        <time>2016-05-21T11:00:19Z</time>
      </trkpt>
      <trkpt lat="45.4266" lon="5.65504">
        <ele>810.5</ele>
        <time>2016-05-21T11:00:20Z</time>
      </trkpt>
      <trkpt lat="45.42659" lon="5.65487">
        <ele>810.5</ele>
        <time>2016-05-21T11:00:21Z</time>
      </trkpt>
      <trkpt lat="45.42659" lon="5.6547">
        <ele>810.2</ele>
        <time>2016-05-21T11:00:22Z</time>
      </trkpt>
      <trkpt lat="45.42658" lon="5.65451">
        <ele>810.2</ele>
        <time>2016-05-21T11:00:23Z</time>
      </trkpt>
      <trkpt lat="45.42653" lon="5.65433">
        <ele>810.1</ele>
        <time>2016-05-21T11:00:24Z</time>
      </trkpt>
      <trkpt lat="45.42649" lon="5.65417">
        <ele>809.9</ele>
        <time>2016-05-21T11:00:25Z</time>
      </trkpt>
      <trkpt lat="45.42643" lon="5.654">
        <ele>809.3</ele>
        <time>2016-05-21T11:00:26Z</time>
      </trkpt>
      <trkpt lat="45.42638" lon="5.65385">
        <ele>808.8</ele>
        <time>2016-05-21T11:00:27Z</time>
      </trkpt>
      <trkpt lat="45.42633" lon="5.65369">
        <ele>807.7</ele>
        <time>2016-05-21T11:00:28Z</time>
      </trkpt>
      <trkpt lat="45.42628" lon="5.65352">
        <ele>805.8</ele>
        <time>2016-05-21T11:00:29Z</time>
      </trkpt>
      <trkpt lat="45.42623" lon="5.65335">
        <ele>804.1</ele>
        <time>2016-05-21T11:00:30Z</time>
      </trkpt>
      <trkpt lat="45.42622" lon="5.65317">
        <ele>802.4</ele>
        <time>2016-05-21T11:00:31Z</time>
      </trkpt>
      <trkpt lat="45.42622" lon="5.65298">
        <ele>801.5</ele>
        <time>2016-05-21T11:00:32Z</time>
      </trkpt>
      <trkpt lat="45.42621" lon="5.65279">
        <ele>800.7</ele>
        <time>2016-05-21T11:00:33Z</time>
      </trkpt>
      <trkpt lat="45.4262" lon="5.6526">
        <ele>800.4</ele>
        <time>2016-05-21T11:00:34Z</time>
      </trkpt>
      <trkpt lat="45.42619" lon="5.65242">
        <ele>800.5</ele>
        <time>2016-05-21T11:00:35Z</time>
      </trkpt>
      <trkpt lat="45.42618" lon="5.65224">
        <ele>800.6</ele>
        <time>2016-05-21T11:00:36Z</time>
      </trkpt>
      <trkpt lat="45.42618" lon="5.65206">
        <ele>800.8</ele>
        <time>2016-05-21T11:00:37Z</time>
      </trkpt>
      <trkpt lat="45.42617" lon="5.65189">
        <ele>800.8</ele>
        <time>2016-05-21T11:00:38Z</time>
      </trkpt>
      <trkpt lat="45.42618" lon="5.65173">
        <ele>799.8</ele>
        <time>2016-05-21T11:00:39Z</time>
      </trkpt>
      <trkpt lat="45.42619" lon="5.65158">
        <ele>798.2</ele>
        <time>2016-05-21T11:00:40Z</time>
      </trkpt>
      <trkpt lat="45.4262" lon="5.6514">
        <ele>796.5</ele>
        <time>2016-05-21T11:00:41Z</time>
      </trkpt>
      <trkpt lat="45.42622" lon="5.65122">
        <ele>795.4</ele>
        <time>2016-05-21T11:00:42Z</time>
      </trkpt>
      <trkpt lat="45.42625" lon="5.65105">
        <ele>794.1</ele>
        <time>2016-05-21T11:00:44Z</time>
      </trkpt>
      <trkpt lat="45.42628" lon="5.65088">
        <ele>793.4</ele>
        <time>2016-05-21T11:00:44Z</time>
      </trkpt>
      <trkpt lat="45.42634" lon="5.6507">
        <ele>792.3</ele>
        <time>2016-05-21T11:00:45Z</time>
      </trkpt>
      <trkpt lat="45.42642" lon="5.65056">
        <ele>790.8</ele>
        <time>2016-05-21T11:00:46Z</time>
      </trkpt>
      <trkpt lat="45.42651" lon="5.65045">
        <ele>789.4</ele>
        <time>2016-05-21T11:00:47Z</time>
      </trkpt>
      <trkpt lat="45.42661" lon="5.65037">
        <ele>788.9</ele>
        <time>2016-05-21T11:00:48Z</time>
      </trkpt>
      <trkpt lat="45.42672" lon="5.65029">
        <ele>788.4</ele>
        <time>2016-05-21T11:00:49Z</time>
      </trkpt>
      <trkpt lat="45.42683" lon="5.65021">
        <ele>787.9</ele>
        <time>2016-05-21T11:00:50Z</time>
      </trkpt>
      <trkpt lat="45.42695" lon="5.65015">
        <ele>787.6</ele>
        <time>2016-05-21T11:00:51Z</time>
      </trkpt>
      <trkpt lat="45.42707" lon="5.65008">
        <ele>786.7</ele>
        <time>2016-05-21T11:00:52Z</time>
      </trkpt>
      <trkpt lat="45.42721" lon="5.65002">
        <ele>785.8</ele>
        <time>2016-05-21T11:00:53Z</time>
      </trkpt>
      <trkpt lat="45.42734" lon="5.64996">
        <ele>784.3</ele>
        <time>2016-05-21T11:00:54Z</time>
      </trkpt>
      <trkpt lat="45.42748" lon="5.6499">
        <ele>782.7</ele>
        <time>2016-05-21T11:00:55Z</time>
      </trkpt>
      <trkpt lat="45.42761" lon="5.64985">
        <ele>781.9</ele>
        <time>2016-05-21T11:00:56Z</time>
      </trkpt>
      <trkpt lat="45.42775" lon="5.6498">
        <ele>781</ele>
        <time>2016-05-21T11:00:57Z</time>
      </trkpt>
      <trkpt lat="45.42789" lon="5.64975">
        <ele>779.8</ele>
        <time>2016-05-21T11:00:58Z</time>
      </trkpt>
      <trkpt lat="45.42801" lon="5.64971">
        <ele>778.7</ele>
        <time>2016-05-21T11:00:59Z</time>
      </trkpt>
      <trkpt lat="45.42813" lon="5.64967">
        <ele>777.2</ele>
        <time>2016-05-21T11:01:00Z</time>
      </trkpt>
      <trkpt lat="45.42825" lon="5.64965">
        <ele>776.3</ele>
        <time>2016-05-21T11:01:01Z</time>
      </trkpt>
      <trkpt lat="45.42836" lon="5.64962">
        <ele>775.9</ele>
        <time>2016-05-21T11:01:02Z</time>
      </trkpt>
      <trkpt lat="45.42849" lon="5.64966">
        <ele>775.8</ele>
        <time>2016-05-21T11:01:03Z</time>
      </trkpt>
      <trkpt lat="45.42861" lon="5.64971">
        <ele>775.6</ele>
        <time>2016-05-21T11:01:04Z</time>
      </trkpt>
      <trkpt lat="45.42873" lon="5.64977">
        <ele>775.5</ele>
        <time>2016-05-21T11:01:05Z</time>
      </trkpt>
      <trkpt lat="45.42885" lon="5.64984">
        <ele>775.3</ele>
        <time>2016-05-21T11:01:06Z</time>
      </trkpt>
      <trkpt lat="45.42898" lon="5.64991">
        <ele>775.2</ele>
        <time>2016-05-21T11:01:07Z</time>
      </trkpt>
      <trkpt lat="45.42911" lon="5.64999">
        <ele>774.8</ele>
        <time>2016-05-21T11:01:08Z</time>
      </trkpt>
      <trkpt lat="45.42924" lon="5.65006">
        <ele>774.1</ele>
        <time>2016-05-21T11:01:09Z</time>
      </trkpt>
      <trkpt lat="45.42937" lon="5.65012">
        <ele>774.1</ele>
        <time>2016-05-21T11:01:10Z</time>
      </trkpt>
      <trkpt lat="45.42951" lon="5.65016">
        <ele>773.1</ele>
        <time>2016-05-21T11:01:11Z</time>
      </trkpt>
      <trkpt lat="45.42966" lon="5.65022">
        <ele>772.9</ele>
        <time>2016-05-21T11:01:12Z</time>
      </trkpt>
      <trkpt lat="45.42982" lon="5.65027">
        <ele>772.3</ele>
        <time>2016-05-21T11:01:13Z</time>
      </trkpt>
      <trkpt lat="45.42997" lon="5.65032">
        <ele>772.7</ele>
        <time>2016-05-21T11:01:14Z</time>
      </trkpt>
      <trkpt lat="45.43012" lon="5.65037">
        <ele>772.7</ele>
        <time>2016-05-21T11:01:15Z</time>
      </trkpt>
      <trkpt lat="45.43028" lon="5.65042">
        <ele>773.2</ele>
        <time>2016-05-21T11:01:16Z</time>
      </trkpt>
      <trkpt lat="45.43044" lon="5.65047">
        <ele>774.5</ele>
        <time>2016-05-21T11:01:17Z</time>
      </trkpt>
      <trkpt lat="45.4306" lon="5.65051">
        <ele>774.7</ele>
        <time>2016-05-21T11:01:18Z</time>
      </trkpt>
      <trkpt lat="45.43077" lon="5.65055">
        <ele>773.9</ele>
        <time>2016-05-21T11:01:19Z</time>
      </trkpt>
      <trkpt lat="45.43092" lon="5.65059">
        <ele>772.5</ele>
        <time>2016-05-21T11:01:20Z</time>
      </trkpt>
      <trkpt lat="45.43108" lon="5.65064">
        <ele>771.5</ele>
        <time>2016-05-21T11:01:21Z</time>
      </trkpt>
      <trkpt lat="45.43124" lon="5.65068">
        <ele>770.9</ele>
        <time>2016-05-21T11:01:22Z</time>
      </trkpt>
      <trkpt lat="45.4314" lon="5.65073">
        <ele>769.7</ele>
        <time>2016-05-21T11:01:23Z</time>
      </trkpt>
      <trkpt lat="45.43155" lon="5.65077">
        <ele>768.9</ele>
        <time>2016-05-21T11:01:24Z</time>
      </trkpt>
      <trkpt lat="45.43172" lon="5.65081">
        <ele>768.8</ele>
        <time>2016-05-21T11:01:25Z</time>
      </trkpt>
      <trkpt lat="45.43188" lon="5.65086">
        <ele>768.4</ele>
        <time>2016-05-21T11:01:26Z</time>
      </trkpt>
      <trkpt lat="45.43205" lon="5.6509">
        <ele>767.3</ele>
        <time>2016-05-21T11:01:27Z</time>
      </trkpt>
      <trkpt lat="45.43221" lon="5.65095">
        <ele>766.3</ele>
        <time>2016-05-21T11:01:28Z</time>
      </trkpt>
      <trkpt lat="45.43237" lon="5.65098">
        <ele>765.3</ele>
        <time>2016-05-21T11:01:29Z</time>
      </trkpt>
      <trkpt lat="45.43251" lon="5.65102">
        <ele>764.7</ele>
        <time>2016-05-21T11:01:30Z</time>
      </trkpt>
      <trkpt lat="45.43265" lon="5.65107">
        <ele>764.2</ele>
        <time>2016-05-21T11:01:31Z</time>
      </trkpt>
      <trkpt lat="45.43279" lon="5.6511">
        <ele>763.5</ele>
        <time>2016-05-21T11:01:32Z</time>
      </trkpt>
      <trkpt lat="45.43291" lon="5.65113">
        <ele>762.5</ele>
        <time>2016-05-21T11:01:33Z</time>
      </trkpt>
      <trkpt lat="45.43303" lon="5.65116">
        <ele>761.2</ele>
        <time>2016-05-21T11:01:34Z</time>
      </trkpt>
      <trkpt lat="45.43315" lon="5.65113">
        <ele>760.5</ele>
        <time>2016-05-21T11:01:35Z</time>
      </trkpt>
      <trkpt lat="45.43326" lon="5.65107">
        <ele>759.6</ele>
        <time>2016-05-21T11:01:36Z</time>
      </trkpt>
      <trkpt lat="45.43339" lon="5.65097">
        <ele>758.2</ele>
        <time>2016-05-21T11:01:37Z</time>
      </trkpt>
      <trkpt lat="45.43346" lon="5.65081">
        <ele>757.2</ele>
        <time>2016-05-21T11:01:38Z</time>
      </trkpt>
      <trkpt lat="45.43353" lon="5.65062">
        <ele>757.2</ele>
        <time>2016-05-21T11:01:39Z</time>
      </trkpt>
      <trkpt lat="45.43359" lon="5.65045">
        <ele>756</ele>
        <time>2016-05-21T11:01:40Z</time>
      </trkpt>
      <trkpt lat="45.43365" lon="5.65029">
        <ele>754.1</ele>
        <time>2016-05-21T11:01:41Z</time>
      </trkpt>
      <trkpt lat="45.43371" lon="5.65013">
        <ele>751</ele>
        <time>2016-05-21T11:01:42Z</time>
      </trkpt>
      <trkpt lat="45.43377" lon="5.64996">
        <ele>748.4</ele>
        <time>2016-05-21T11:01:43Z</time>
      </trkpt>
      <trkpt lat="45.43383" lon="5.64979">
        <ele>746.8</ele>
        <time>2016-05-21T11:01:44Z</time>
      </trkpt>
      <trkpt lat="45.4339" lon="5.64961">
        <ele>745.1</ele>
        <time>2016-05-21T11:01:45Z</time>
      </trkpt>
      <trkpt lat="45.43396" lon="5.64944">
        <ele>744.8</ele>
        <time>2016-05-21T11:01:46Z</time>
      </trkpt>
      <trkpt lat="45.43402" lon="5.64927">
        <ele>744.7</ele>
        <time>2016-05-21T11:01:47Z</time>
      </trkpt>
      <trkpt lat="45.43408" lon="5.6491">
        <ele>745</ele>
        <time>2016-05-21T11:01:48Z</time>
      </trkpt>
      <trkpt lat="45.4341" lon="5.64891">
        <ele>744.4</ele>
        <time>2016-05-21T11:01:49Z</time>
      </trkpt>
      <trkpt lat="45.43411" lon="5.64872">
        <ele>743</ele>
        <time>2016-05-21T11:01:50Z</time>
      </trkpt>
      <trkpt lat="45.43411" lon="5.64853">
        <ele>743</ele>
        <time>2016-05-21T11:01:51Z</time>
      </trkpt>
      <trkpt lat="45.43412" lon="5.64836">
        <ele>742.3</ele>
        <time>2016-05-21T11:01:52Z</time>
      </trkpt>
      <trkpt lat="45.43412" lon="5.64822">
        <ele>741.4</ele>
        <time>2016-05-21T11:01:53Z</time>
      </trkpt>
      <trkpt lat="45.43413" lon="5.64808">
        <ele>740.4</ele>
        <time>2016-05-21T11:01:54Z</time>
      </trkpt>
      <trkpt lat="45.43413" lon="5.64793">
        <ele>739.8</ele>
        <time>2016-05-21T11:01:55Z</time>
      </trkpt>
      <trkpt lat="45.43413" lon="5.64779">
        <ele>739.2</ele>
        <time>2016-05-21T11:01:56Z</time>
      </trkpt>
      <trkpt lat="45.43414" lon="5.64764">
        <ele>738.7</ele>
        <time>2016-05-21T11:01:57Z</time>
      </trkpt>
      <trkpt lat="45.43414" lon="5.64749">
        <ele>737.9</ele>
        <time>2016-05-21T11:01:58Z</time>
      </trkpt>
      <trkpt lat="45.43414" lon="5.64732">
        <ele>737.1</ele>
        <time>2016-05-21T11:01:59Z</time>
      </trkpt>
      <trkpt lat="45.43415" lon="5.64717">
        <ele>736.1</ele>
        <time>2016-05-21T11:02:00Z</time>
      </trkpt>
      <trkpt lat="45.43415" lon="5.64701">
        <ele>734.9</ele>
        <time>2016-05-21T11:02:01Z</time>
      </trkpt>
      <trkpt lat="45.43416" lon="5.64684">
        <ele>734</ele>
        <time>2016-05-21T11:02:02Z</time>
      </trkpt>
      <trkpt lat="45.43416" lon="5.64669">
        <ele>732.6</ele>
        <time>2016-05-21T11:02:03Z</time>
      </trkpt>
      <trkpt lat="45.43417" lon="5.64653">
        <ele>731.1</ele>
        <time>2016-05-21T11:02:04Z</time>
      </trkpt>
      <trkpt lat="45.43417" lon="5.64637">
        <ele>729.8</ele>
        <time>2016-05-21T11:02:05Z</time>
      </trkpt>
      <trkpt lat="45.43417" lon="5.64621">
        <ele>729.4</ele>
        <time>2016-05-21T11:02:06Z</time>
      </trkpt>
      <trkpt lat="45.43417" lon="5.64606">
        <ele>728.8</ele>
        <time>2016-05-21T11:02:07Z</time>
      </trkpt>
      <trkpt lat="45.43417" lon="5.6459">
        <ele>728.2</ele>
        <time>2016-05-21T11:02:08Z</time>
      </trkpt>
      <trkpt lat="45.43416" lon="5.64574">
        <ele>727.3</ele>
        <time>2016-05-21T11:02:09Z</time>
      </trkpt>
      <trkpt lat="45.43412" lon="5.64559">
        <ele>727.4</ele>
        <time>2016-05-21T11:02:10Z</time>
      </trkpt>
      <trkpt lat="45.43408" lon="5.64544">
        <ele>727</ele>
        <time>2016-05-21T11:02:11Z</time>
      </trkpt>
      <trkpt lat="45.43405" lon="5.64529">
        <ele>727</ele>
        <time>2016-05-21T11:02:12Z</time>
      </trkpt>
      <trkpt lat="45.43401" lon="5.64515">
        <ele>726.8</ele>
        <time>2016-05-21T11:02:13Z</time>
      </trkpt>
      <trkpt lat="45.43398" lon="5.64502">
        <ele>726.7</ele>
        <time>2016-05-21T11:02:14Z</time>
      </trkpt>
      <trkpt lat="45.43392" lon="5.6449">
        <ele>726.6</ele>
        <time>2016-05-21T11:02:15Z</time>
      </trkpt>
      <trkpt lat="45.43386" lon="5.64479">
        <ele>726.3</ele>
        <time>2016-05-21T11:02:16Z</time>
      </trkpt>
      <trkpt lat="45.4338" lon="5.6447">
        <ele>726.4</ele>
        <time>2016-05-21T11:02:17Z</time>
      </trkpt>
      <trkpt lat="45.43374" lon="5.64461">
        <ele>726.7</ele>
        <time>2016-05-21T11:02:18Z</time>
      </trkpt>
      <trkpt lat="45.43369" lon="5.64451">
        <ele>726.8</ele>
        <time>2016-05-21T11:02:19Z</time>
      </trkpt>
      <trkpt lat="45.43364" lon="5.64442">
        <ele>727</ele>
        <time>2016-05-21T11:02:20Z</time>
      </trkpt>
      <trkpt lat="45.4336" lon="5.64432">
        <ele>727.1</ele>
        <time>2016-05-21T11:02:21Z</time>
      </trkpt>
      <trkpt lat="45.43355" lon="5.64423">
        <ele>726.3</ele>
        <time>2016-05-21T11:02:22Z</time>
      </trkpt>
      <trkpt lat="45.43352" lon="5.64414">
        <ele>725.7</ele>
        <time>2016-05-21T11:02:23Z</time>
      </trkpt>
      <trkpt lat="45.43345" lon="5.644">
        <ele>723.3</ele>
        <time>2016-05-21T11:02:25Z</time>
      </trkpt>
      <trkpt lat="45.4334" lon="5.64389">
        <ele>722.7</ele>
        <time>2016-05-21T11:02:27Z</time>
      </trkpt>
      <trkpt lat="45.43334" lon="5.64378">
        <ele>723.3</ele>
        <time>2016-05-21T11:02:29Z</time>
      </trkpt>
      <trkpt lat="45.43329" lon="5.64365">
        <ele>725.4</ele>
        <time>2016-05-21T11:02:31Z</time>
      </trkpt>
      <trkpt lat="45.43324" lon="5.64353">
        <ele>726.3</ele>
        <time>2016-05-21T11:02:33Z</time>
      </trkpt>
      <trkpt lat="45.43321" lon="5.64342">
        <ele>727.7</ele>
        <time>2016-05-21T11:02:35Z</time>
      </trkpt>
      <trkpt lat="45.43318" lon="5.6433">
        <ele>729.3</ele>
        <time>2016-05-21T11:02:37Z</time>
      </trkpt>
      <trkpt lat="45.43314" lon="5.64319">
        <ele>730.6</ele>
        <time>2016-05-21T11:02:39Z</time>
      </trkpt>
      <trkpt lat="45.4331" lon="5.64309">
        <ele>730.3</ele>
        <time>2016-05-21T11:02:41Z</time>
      </trkpt>
      <trkpt lat="45.43307" lon="5.64298">
        <ele>729.1</ele>
        <time>2016-05-21T11:02:43Z</time>
      </trkpt>
      <trkpt lat="45.43303" lon="5.64287">
        <ele>729.2</ele>
        <time>2016-05-21T11:02:45Z</time>
      </trkpt>
      <trkpt lat="45.43299" lon="5.64276">
        <ele>729.4</ele>
        <time>2016-05-21T11:02:47Z</time>
      </trkpt>
      <trkpt lat="45.43295" lon="5.64268">
        <ele>730.7</ele>
        <time>2016-05-21T11:02:49Z</time>
      </trkpt>
      <trkpt lat="45.43291" lon="5.64258">
        <ele>731.8</ele>
        <time>2016-05-21T11:02:51Z</time>
      </trkpt>
      <trkpt lat="45.43287" lon="5.64248">
        <ele>731.5</ele>
        <time>2016-05-21T11:02:53Z</time>
      </trkpt>
      <trkpt lat="45.43284" lon="5.64239">
        <ele>732.8</ele>
        <time>2016-05-21T11:02:55Z</time>
      </trkpt>
      <trkpt lat="45.4328" lon="5.64229">
        <ele>733.9</ele>
        <time>2016-05-21T11:02:57Z</time>
      </trkpt>
      <trkpt lat="45.43276" lon="5.6422">
        <ele>734.6</ele>
        <time>2016-05-21T11:02:59Z</time>
      </trkpt>
      <trkpt lat="45.43272" lon="5.6421">
        <ele>735.1</ele>
        <time>2016-05-21T11:03:01Z</time>
      </trkpt>
      <trkpt lat="45.43268" lon="5.64201">
        <ele>736.3</ele>
        <time>2016-05-21T11:03:03Z</time>
      </trkpt>
      <trkpt lat="45.43263" lon="5.6419">
        <ele>737.6</ele>
        <time>2016-05-21T11:03:05Z</time>
      </trkpt>
      <trkpt lat="45.43258" lon="5.64179">
        <ele>739.5</ele>
        <time>2016-05-21T11:03:07Z</time>
      </trkpt>
      <trkpt lat="45.43252" lon="5.64168">
        <ele>741.7</ele>
        <time>2016-05-21T11:03:09Z</time>
      </trkpt>
      <trkpt lat="45.43246" lon="5.64156">
        <ele>743.6</ele>
        <time>2016-05-21T11:03:11Z</time>
      </trkpt>
      <trkpt lat="45.43242" lon="5.64147">
        <ele>743.4</ele>
        <time>2016-05-21T11:03:13Z</time>
      </trkpt>
      <trkpt lat="45.43237" lon="5.64137">
        <ele>743</ele>
        <time>2016-05-21T11:03:15Z</time>
      </trkpt>
      <trkpt lat="45.43233" lon="5.64129">
        <ele>743.8</ele>
        <time>2016-05-21T11:03:17Z</time>
      </trkpt>
      <trkpt lat="45.43227" lon="5.6412">
        <ele>745.7</ele>
        <time>2016-05-21T11:03:19Z</time>
      </trkpt>
      <trkpt lat="45.43222" lon="5.64111">
        <ele>746.4</ele>
        <time>2016-05-21T11:03:21Z</time>
      </trkpt>
      <trkpt lat="45.43216" lon="5.64101">
        <ele>746.1</ele>
        <time>2016-05-21T11:03:23Z</time>
      </trkpt>
      <trkpt lat="45.43211" lon="5.64092">
        <ele>747.4</ele>
        <time>2016-05-21T11:03:25Z</time>
      </trkpt>
      <trkpt lat="45.43207" lon="5.64084">
        <ele>747.8</ele>
        <time>2016-05-21T11:03:27Z</time>
      </trkpt>
      <trkpt lat="45.43202" lon="5.64075">
        <ele>746.9</ele>
        <time>2016-05-21T11:03:29Z</time>
      </trkpt>
      <trkpt lat="45.43197" lon="5.64065">
        <ele>746.6</ele>
        <time>2016-05-21T11:03:31Z</time>
      </trkpt>
      <trkpt lat="45.43191" lon="5.64054">
        <ele>748</ele>
        <time>2016-05-21T11:03:33Z</time>
      </trkpt>
      <trkpt lat="45.43186" lon="5.64047">
        <ele>748.3</ele>
        <time>2016-05-21T11:03:35Z</time>
      </trkpt>
      <trkpt lat="45.4318" lon="5.6404">
        <ele>747.9</ele>
        <time>2016-05-21T11:03:37Z</time>
      </trkpt>
      <trkpt lat="45.43173" lon="5.64035">
        <ele>747.6</ele>
        <time>2016-05-21T11:03:39Z</time>
      </trkpt>
      <trkpt lat="45.43165" lon="5.64032">
        <ele>748.3</ele>
        <time>2016-05-21T11:03:41Z</time>
      </trkpt>
      <trkpt lat="45.43158" lon="5.64032">
        <ele>747.3</ele>
        <time>2016-05-21T11:03:43Z</time>
      </trkpt>
      <trkpt lat="45.43148" lon="5.64035">
        <ele>746</ele>
        <time>2016-05-21T11:03:46Z</time>
      </trkpt>
      <trkpt lat="45.4314" lon="5.64044">
        <ele>746</ele>
        <time>2016-05-21T11:03:49Z</time>
      </trkpt>
      <trkpt lat="45.43132" lon="5.64054">
        <ele>746.3</ele>
        <time>2016-05-21T11:03:52Z</time>
      </trkpt>
      <trkpt lat="45.43127" lon="5.6406">
        <ele>746.7</ele>
        <time>2016-05-21T11:03:54Z</time>
      </trkpt>
      <trkpt lat="45.43119" lon="5.64072">
        <ele>747.1</ele>
        <time>2016-05-21T11:03:57Z</time>
      </trkpt>
      <trkpt lat="45.43113" lon="5.64084">
        <ele>747.7</ele>
        <time>2016-05-21T11:04:00Z</time>
      </trkpt>
      <trkpt lat="45.43108" lon="5.64097">
        <ele>748.3</ele>
        <time>2016-05-21T11:04:03Z</time>
      </trkpt>
      <trkpt lat="45.43103" lon="5.64105">
        <ele>750.7</ele>
        <time>2016-05-21T11:04:05Z</time>
      </trkpt>
      <trkpt lat="45.43099" lon="5.64114">
        <ele>752.2</ele>
        <time>2016-05-21T11:04:07Z</time>
      </trkpt>
      <trkpt lat="45.43095" lon="5.64123">
        <ele>753.6</ele>
        <time>2016-05-21T11:04:09Z</time>
      </trkpt>
      <trkpt lat="45.43089" lon="5.64134">
        <ele>755.5</ele>
        <time>2016-05-21T11:04:12Z</time>
      </trkpt>
      <trkpt lat="45.43085" lon="5.64144">
        <ele>755.1</ele>
        <time>2016-05-21T11:04:14Z</time>
      </trkpt>
      <trkpt lat="45.4308" lon="5.64153">
        <ele>755.5</ele>
        <time>2016-05-21T11:04:16Z</time>
      </trkpt>
      <trkpt lat="45.43074" lon="5.6416">
        <ele>754.7</ele>
        <time>2016-05-21T11:04:18Z</time>
      </trkpt>
      <trkpt lat="45.43067" lon="5.64165">
        <ele>754.4</ele>
        <time>2016-05-21T11:04:20Z</time>
      </trkpt>
      <trkpt lat="45.43059" lon="5.64168">
        <ele>755.1</ele>
        <time>2016-05-21T11:04:22Z</time>
      </trkpt>
      <trkpt lat="45.43048" lon="5.64168">
        <ele>757.4</ele>
        <time>2016-05-21T11:04:24Z</time>
      </trkpt>
      <trkpt lat="45.43041" lon="5.6416">
        <ele>757.8</ele>
        <time>2016-05-21T11:04:26Z</time>
      </trkpt>
      <trkpt lat="45.43036" lon="5.64151">
        <ele>759.2</ele>
        <time>2016-05-21T11:04:28Z</time>
      </trkpt>
      <trkpt lat="45.43033" lon="5.64139">
        <ele>759.6</ele>
        <time>2016-05-21T11:04:30Z</time>
      </trkpt>
      <trkpt lat="45.4303" lon="5.64126">
        <ele>760.1</ele>
        <time>2016-05-21T11:04:32Z</time>
      </trkpt>
      <trkpt lat="45.4303" lon="5.64112">
        <ele>759.8</ele>
        <time>2016-05-21T11:04:34Z</time>
      </trkpt>
      <trkpt lat="45.4303" lon="5.64097">
        <ele>760.9</ele>
        <time>2016-05-21T11:04:36Z</time>
      </trkpt>
      <trkpt lat="45.4303" lon="5.6408">
        <ele>763</ele>
        <time>2016-05-21T11:04:38Z</time>
      </trkpt>
      <trkpt lat="45.4303" lon="5.64064">
        <ele>763.4</ele>
        <time>2016-05-21T11:04:40Z</time>
      </trkpt>
      <trkpt lat="45.4303" lon="5.6405">
        <ele>764.1</ele>
        <time>2016-05-21T11:04:42Z</time>
      </trkpt>
      <trkpt lat="45.43028" lon="5.64036">
        <ele>764.3</ele>
        <time>2016-05-21T11:04:44Z</time>
      </trkpt>
      <trkpt lat="45.43026" lon="5.64021">
        <ele>764.8</ele>
        <time>2016-05-21T11:04:46Z</time>
      </trkpt>
      <trkpt lat="45.43023" lon="5.64009">
        <ele>764.6</ele>
        <time>2016-05-21T11:04:48Z</time>
      </trkpt>
      <trkpt lat="45.43018" lon="5.63997">
        <ele>764.8</ele>
        <time>2016-05-21T11:04:50Z</time>
      </trkpt>
      <trkpt lat="45.43014" lon="5.63984">
        <ele>764.2</ele>
        <time>2016-05-21T11:04:52Z</time>
      </trkpt>
      <trkpt lat="45.4301" lon="5.6397">
        <ele>764</ele>
        <time>2016-05-21T11:04:54Z</time>
      </trkpt>
      <trkpt lat="45.43005" lon="5.63956">
        <ele>763.3</ele>
        <time>2016-05-21T11:04:56Z</time>
      </trkpt>
      <trkpt lat="45.43" lon="5.63942">
        <ele>763</ele>
        <time>2016-05-21T11:04:58Z</time>
      </trkpt>
      <trkpt lat="45.42995" lon="5.63926">
        <ele>763</ele>
        <time>2016-05-21T11:05:00Z</time>
      </trkpt>
      <trkpt lat="45.4299" lon="5.63912">
        <ele>763.1</ele>
        <time>2016-05-21T11:05:02Z</time>
      </trkpt>
      <trkpt lat="45.42984" lon="5.63897">
        <ele>763.3</ele>
        <time>2016-05-21T11:05:04Z</time>
      </trkpt>
      <trkpt lat="45.42978" lon="5.63885">
        <ele>764.9</ele>
        <time>2016-05-21T11:05:06Z</time>
      </trkpt>
      <trkpt lat="45.42969" lon="5.63878">
        <ele>766</ele>
        <time>2016-05-21T11:05:08Z</time>
      </trkpt>
      <trkpt lat="45.42958" lon="5.63874">
        <ele>766.8</ele>
        <time>2016-05-21T11:05:10Z</time>
      </trkpt>
      <trkpt lat="45.42947" lon="5.63873">
        <ele>766.6</ele>
        <time>2016-05-21T11:05:12Z</time>
      </trkpt>
      <trkpt lat="45.42935" lon="5.63874">
        <ele>767</ele>
        <time>2016-05-21T11:05:14Z</time>
      </trkpt>
      <trkpt lat="45.42923" lon="5.63877">
        <ele>767.3</ele>
        <time>2016-05-21T11:05:16Z</time>
      </trkpt>
      <trkpt lat="45.42911" lon="5.6388">
        <ele>766.7</ele>
        <time>2016-05-21T11:05:18Z</time>
      </trkpt>
      <trkpt lat="45.42899" lon="5.63884">
        <ele>766.8</ele>
        <time>2016-05-21T11:05:20Z</time>
      </trkpt>
      <trkpt lat="45.42887" lon="5.63889">
        <ele>768</ele>
        <time>2016-05-21T11:05:22Z</time>
      </trkpt>
      <trkpt lat="45.42875" lon="5.63893">
        <ele>771.1</ele>
        <time>2016-05-21T11:05:24Z</time>
      </trkpt>
      <trkpt lat="45.42862" lon="5.63897">
        <ele>771.9</ele>
        <time>2016-05-21T11:05:26Z</time>
      </trkpt>
      <trkpt lat="45.4285" lon="5.63901">
        <ele>771.1</ele>
        <time>2016-05-21T11:05:28Z</time>
      </trkpt>
      <trkpt lat="45.42838" lon="5.63906">
        <ele>770.1</ele>
        <time>2016-05-21T11:05:30Z</time>
      </trkpt>
      <trkpt lat="45.42825" lon="5.63911">
        <ele>768.8</ele>
        <time>2016-05-21T11:05:32Z</time>
      </trkpt>
      <trkpt lat="45.42811" lon="5.63915">
        <ele>767.9</ele>
        <time>2016-05-21T11:05:34Z</time>
      </trkpt>
      <trkpt lat="45.42797" lon="5.63917">
        <ele>768.4</ele>
        <time>2016-05-21T11:05:36Z</time>
      </trkpt>
      <trkpt lat="45.42784" lon="5.63912">
        <ele>770.1</ele>
        <time>2016-05-21T11:05:38Z</time>
      </trkpt>
      <trkpt lat="45.42777" lon="5.63906">
        <ele>770.9</ele>
        <time>2016-05-21T11:05:39Z</time>
      </trkpt>
      <trkpt lat="45.42764" lon="5.63894">
        <ele>772</ele>
        <time>2016-05-21T11:05:41Z</time>
      </trkpt>
      <trkpt lat="45.42758" lon="5.63888">
        <ele>772.3</ele>
        <time>2016-05-21T11:05:42Z</time>
      </trkpt>
      <trkpt lat="45.42752" lon="5.63881">
        <ele>772.6</ele>
        <time>2016-05-21T11:05:43Z</time>
      </trkpt>
      <trkpt lat="45.42745" lon="5.63875">
        <ele>772.1</ele>
        <time>2016-05-21T11:05:44Z</time>
      </trkpt>
      <trkpt lat="45.42739" lon="5.63868">
        <ele>771.4</ele>
        <time>2016-05-21T11:05:45Z</time>
      </trkpt>
      <trkpt lat="45.42728" lon="5.63857">
        <ele>769.5</ele>
        <time>2016-05-21T11:05:47Z</time>
      </trkpt>
      <trkpt lat="45.42717" lon="5.63846">
        <ele>767.5</ele>
        <time>2016-05-21T11:05:49Z</time>
      </trkpt>
      <trkpt lat="45.42706" lon="5.63835">
        <ele>766.2</ele>
        <time>2016-05-21T11:05:51Z</time>
      </trkpt>
      <trkpt lat="45.42695" lon="5.63824">
        <ele>766.4</ele>
        <time>2016-05-21T11:05:53Z</time>
      </trkpt>
      <trkpt lat="45.42683" lon="5.63813">
        <ele>767.8</ele>
        <time>2016-05-21T11:05:55Z</time>
      </trkpt>
      <trkpt lat="45.42671" lon="5.6381">
        <ele>766.8</ele>
        <time>2016-05-21T11:05:57Z</time>
      </trkpt>
      <trkpt lat="45.42658" lon="5.63814">
        <ele>765.4</ele>
        <time>2016-05-21T11:05:59Z</time>
      </trkpt>
      <trkpt lat="45.42647" lon="5.63821">
        <ele>764.5</ele>
        <time>2016-05-21T11:06:01Z</time>
      </trkpt>
      <trkpt lat="45.42634" lon="5.63827">
        <ele>765.4</ele>
        <time>2016-05-21T11:06:03Z</time>
      </trkpt>
      <trkpt lat="45.42621" lon="5.63821">
        <ele>765.7</ele>
        <time>2016-05-21T11:06:05Z</time>
      </trkpt>
      <trkpt lat="45.4261" lon="5.63806">
        <ele>766.5</ele>
        <time>2016-05-21T11:06:07Z</time>
      </trkpt>
      <trkpt lat="45.42605" lon="5.63798">
        <ele>766.8</ele>
        <time>2016-05-21T11:06:08Z</time>
      </trkpt>
      <trkpt lat="45.42596" lon="5.63782">
        <ele>767.2</ele>
        <time>2016-05-21T11:06:10Z</time>
      </trkpt>
      <trkpt lat="45.42592" lon="5.63773">
        <ele>767.4</ele>
        <time>2016-05-21T11:06:11Z</time>
      </trkpt>
      <trkpt lat="45.42588" lon="5.63763">
        <ele>766.8</ele>
        <time>2016-05-21T11:06:12Z</time>
      </trkpt>
      <trkpt lat="45.42585" lon="5.63753">
        <ele>766.4</ele>
        <time>2016-05-21T11:06:13Z</time>
      </trkpt>
      <trkpt lat="45.42582" lon="5.63744">
        <ele>767.1</ele>
        <time>2016-05-21T11:06:14Z</time>
      </trkpt>
      <trkpt lat="45.42579" lon="5.63734">
        <ele>767</ele>
        <time>2016-05-21T11:06:15Z</time>
      </trkpt>
      <trkpt lat="45.42576" lon="5.63723">
        <ele>767.1</ele>
        <time>2016-05-21T11:06:16Z</time>
      </trkpt>
      <trkpt lat="45.42574" lon="5.63711">
        <ele>767.5</ele>
        <time>2016-05-21T11:06:17Z</time>
      </trkpt>
      <trkpt lat="45.42571" lon="5.63699">
        <ele>767.5</ele>
        <time>2016-05-21T11:06:18Z</time>
      </trkpt>
      <trkpt lat="45.42569" lon="5.63686">
        <ele>767.1</ele>
        <time>2016-05-21T11:06:19Z</time>
      </trkpt>
      <trkpt lat="45.42567" lon="5.63673">
        <ele>767.2</ele>
        <time>2016-05-21T11:06:20Z</time>
      </trkpt>
      <trkpt lat="45.42565" lon="5.63659">
        <ele>767.4</ele>
        <time>2016-05-21T11:06:21Z</time>
      </trkpt>
      <trkpt lat="45.42563" lon="5.63645">
        <ele>767.1</ele>
        <time>2016-05-21T11:06:22Z</time>
      </trkpt>
      <trkpt lat="45.42561" lon="5.63631">
        <ele>767.3</ele>
        <time>2016-05-21T11:06:23Z</time>
      </trkpt>
      <trkpt lat="45.42559" lon="5.63618">
        <ele>767.4</ele>
        <time>2016-05-21T11:06:24Z</time>
      </trkpt>
      <trkpt lat="45.42558" lon="5.63605">
        <ele>767.4</ele>
        <time>2016-05-21T11:06:25Z</time>
      </trkpt>
      <trkpt lat="45.4256" lon="5.63593">
        <ele>767.6</ele>
        <time>2016-05-21T11:06:26Z</time>
      </trkpt>
      <trkpt lat="45.42562" lon="5.63581">
        <ele>767.2</ele>
        <time>2016-05-21T11:06:27Z</time>
      </trkpt>
      <trkpt lat="45.42569" lon="5.63574">
        <ele>766</ele>
        <time>2016-05-21T11:06:28Z</time>
      </trkpt>
      <trkpt lat="45.4258" lon="5.63568">
        <ele>764.8</ele>
        <time>2016-05-21T11:06:29Z</time>
      </trkpt>
      <trkpt lat="45.42591" lon="5.63559">
        <ele>764.5</ele>
        <time>2016-05-21T11:06:30Z</time>
      </trkpt>
      <trkpt lat="45.42602" lon="5.63548">
        <ele>764.2</ele>
        <time>2016-05-21T11:06:31Z</time>
      </trkpt>
      <trkpt lat="45.42614" lon="5.63538">
        <ele>763.8</ele>
        <time>2016-05-21T11:06:32Z</time>
      </trkpt>
      <trkpt lat="45.42626" lon="5.63527">
        <ele>763.3</ele>
        <time>2016-05-21T11:06:33Z</time>
      </trkpt>
      <trkpt lat="45.42636" lon="5.63518">
        <ele>762.3</ele>
        <time>2016-05-21T11:06:34Z</time>
      </trkpt>
      <trkpt lat="45.42647" lon="5.63509">
        <ele>761.5</ele>
        <time>2016-05-21T11:06:35Z</time>
      </trkpt>
      <trkpt lat="45.42656" lon="5.635">
        <ele>760.8</ele>
        <time>2016-05-21T11:06:36Z</time>
      </trkpt>
      <trkpt lat="45.42665" lon="5.63491">
        <ele>759.6</ele>
        <time>2016-05-21T11:06:37Z</time>
      </trkpt>
      <trkpt lat="45.42674" lon="5.63482">
        <ele>759.1</ele>
        <time>2016-05-21T11:06:38Z</time>
      </trkpt>
      <trkpt lat="45.42683" lon="5.63472">
        <ele>758.3</ele>
        <time>2016-05-21T11:06:39Z</time>
      </trkpt>
      <trkpt lat="45.42692" lon="5.63463">
        <ele>757.4</ele>
        <time>2016-05-21T11:06:40Z</time>
      </trkpt>
      <trkpt lat="45.427" lon="5.63453">
        <ele>756.5</ele>
        <time>2016-05-21T11:06:41Z</time>
      </trkpt>
      <trkpt lat="45.42708" lon="5.63443">
        <ele>756.3</ele>
        <time>2016-05-21T11:06:42Z</time>
      </trkpt>
      <trkpt lat="45.42716" lon="5.63431">
        <ele>756.4</ele>
        <time>2016-05-21T11:06:43Z</time>
      </trkpt>
      <trkpt lat="45.42723" lon="5.63418">
        <ele>757.1</ele>
        <time>2016-05-21T11:06:44Z</time>
      </trkpt>
      <trkpt lat="45.42729" lon="5.63407">
        <ele>757.7</ele>
        <time>2016-05-21T11:06:45Z</time>
      </trkpt>
      <trkpt lat="45.42736" lon="5.63393">
        <ele>757.9</ele>
        <time>2016-05-21T11:06:46Z</time>
      </trkpt>
      <trkpt lat="45.42742" lon="5.6338">
        <ele>757.5</ele>
        <time>2016-05-21T11:06:47Z</time>
      </trkpt>
      <trkpt lat="45.42748" lon="5.63368">
        <ele>757.3</ele>
        <time>2016-05-21T11:06:48Z</time>
      </trkpt>
      <trkpt lat="45.42754" lon="5.63356">
        <ele>757.2</ele>
        <time>2016-05-21T11:06:49Z</time>
      </trkpt>
      <trkpt lat="45.42761" lon="5.63343">
        <ele>757.4</ele>
        <time>2016-05-21T11:06:50Z</time>
      </trkpt>
      <trkpt lat="45.42767" lon="5.6333">
        <ele>757.9</ele>
        <time>2016-05-21T11:06:51Z</time>
      </trkpt>
      <trkpt lat="45.42774" lon="5.63318">
        <ele>758.4</ele>
        <time>2016-05-21T11:06:52Z</time>
      </trkpt>
      <trkpt lat="45.42781" lon="5.63306">
        <ele>759</ele>
        <time>2016-05-21T11:06:53Z</time>
      </trkpt>
      <trkpt lat="45.42788" lon="5.63294">
        <ele>758.8</ele>
        <time>2016-05-21T11:06:54Z</time>
      </trkpt>
      <trkpt lat="45.42797" lon="5.63281">
        <ele>758.5</ele>
        <time>2016-05-21T11:06:55Z</time>
      </trkpt>
      <trkpt lat="45.42805" lon="5.63277">
        <ele>759.3</ele>
        <time>2016-05-21T11:06:56Z</time>
      </trkpt>
      <trkpt lat="45.42817" lon="5.63272">
        <ele>759.6</ele>
        <time>2016-05-21T11:06:57Z</time>
      </trkpt>
      <trkpt lat="45.42829" lon="5.63267">
        <ele>759</ele>
        <time>2016-05-21T11:06:58Z</time>
      </trkpt>
      <trkpt lat="45.42842" lon="5.63261">
        <ele>759</ele>
        <time>2016-05-21T11:06:59Z</time>
      </trkpt>
      <trkpt lat="45.42853" lon="5.63256">
        <ele>758.6</ele>
        <time>2016-05-21T11:07:00Z</time>
      </trkpt>
      <trkpt lat="45.42865" lon="5.63251">
        <ele>757.3</ele>
        <time>2016-05-21T11:07:01Z</time>
      </trkpt>
      <trkpt lat="45.42876" lon="5.63246">
        <ele>756.3</ele>
        <time>2016-05-21T11:07:02Z</time>
      </trkpt>
      <trkpt lat="45.42886" lon="5.63238">
        <ele>755.7</ele>
        <time>2016-05-21T11:07:03Z</time>
      </trkpt>
      <trkpt lat="45.42895" lon="5.63227">
        <ele>754.5</ele>
        <time>2016-05-21T11:07:04Z</time>
      </trkpt>
      <trkpt lat="45.42903" lon="5.63216">
        <ele>753.1</ele>
        <time>2016-05-21T11:07:05Z</time>
      </trkpt>
      <trkpt lat="45.42909" lon="5.63199">
        <ele>751.4</ele>
        <time>2016-05-21T11:07:06Z</time>
      </trkpt>
      <trkpt lat="45.42909" lon="5.63183">
        <ele>750</ele>
        <time>2016-05-21T11:07:07Z</time>
      </trkpt>
      <trkpt lat="45.42909" lon="5.63167">
        <ele>749.1</ele>
        <time>2016-05-21T11:07:08Z</time>
      </trkpt>
      <trkpt lat="45.42905" lon="5.63152">
        <ele>748.5</ele>
        <time>2016-05-21T11:07:09Z</time>
      </trkpt>
      <trkpt lat="45.429" lon="5.63137">
        <ele>748.9</ele>
        <time>2016-05-21T11:07:10Z</time>
      </trkpt>
      <trkpt lat="45.42896" lon="5.63123">
        <ele>749.1</ele>
        <time>2016-05-21T11:07:11Z</time>
      </trkpt>
      <trkpt lat="45.42892" lon="5.6311">
        <ele>749</ele>
        <time>2016-05-21T11:07:12Z</time>
      </trkpt>
      <trkpt lat="45.42887" lon="5.63097">
        <ele>748.9</ele>
        <time>2016-05-21T11:07:13Z</time>
      </trkpt>
      <trkpt lat="45.42882" lon="5.63083">
        <ele>748.8</ele>
        <time>2016-05-21T11:07:14Z</time>
      </trkpt>
      <trkpt lat="45.42878" lon="5.63069">
        <ele>748.8</ele>
        <time>2016-05-21T11:07:15Z</time>
      </trkpt>
      <trkpt lat="45.42878" lon="5.63052">
        <ele>748.8</ele>
        <time>2016-05-21T11:07:16Z</time>
      </trkpt>
      <trkpt lat="45.42878" lon="5.63035">
        <ele>749.5</ele>
        <time>2016-05-21T11:07:17Z</time>
      </trkpt>
      <trkpt lat="45.42878" lon="5.63019">
        <ele>749.8</ele>
        <time>2016-05-21T11:07:18Z</time>
      </trkpt>
      <trkpt lat="45.4288" lon="5.63003">
        <ele>749.7</ele>
        <time>2016-05-21T11:07:19Z</time>
      </trkpt>
      <trkpt lat="45.42881" lon="5.62987">
        <ele>748.4</ele>
        <time>2016-05-21T11:07:20Z</time>
      </trkpt>
      <trkpt lat="45.42883" lon="5.62971">
        <ele>747.7</ele>
        <time>2016-05-21T11:07:21Z</time>
      </trkpt>
      <trkpt lat="45.42885" lon="5.62954">
        <ele>747.5</ele>
        <time>2016-05-21T11:07:22Z</time>
      </trkpt>
      <trkpt lat="45.42886" lon="5.62939">
        <ele>747.3</ele>
        <time>2016-05-21T11:07:23Z</time>
      </trkpt>
      <trkpt lat="45.42888" lon="5.62925">
        <ele>747.5</ele>
        <time>2016-05-21T11:07:24Z</time>
      </trkpt>
      <trkpt lat="45.4289" lon="5.62909">
        <ele>747.5</ele>
        <time>2016-05-21T11:07:25Z</time>
      </trkpt>
      <trkpt lat="45.42892" lon="5.62893">
        <ele>747.5</ele>
        <time>2016-05-21T11:07:26Z</time>
      </trkpt>
      <trkpt lat="45.42893" lon="5.62877">
        <ele>747.5</ele>
        <time>2016-05-21T11:07:27Z</time>
      </trkpt>
      <trkpt lat="45.42897" lon="5.62861">
        <ele>747.7</ele>
        <time>2016-05-21T11:07:28Z</time>
      </trkpt>
      <trkpt lat="45.429" lon="5.62847">
        <ele>747.7</ele>
        <time>2016-05-21T11:07:29Z</time>
      </trkpt>
      <trkpt lat="45.42904" lon="5.62833">
        <ele>748.3</ele>
        <time>2016-05-21T11:07:30Z</time>
      </trkpt>
      <trkpt lat="45.42908" lon="5.62818">
        <ele>748.6</ele>
        <time>2016-05-21T11:07:31Z</time>
      </trkpt>
      <trkpt lat="45.42912" lon="5.62804">
        <ele>749</ele>
        <time>2016-05-21T11:07:32Z</time>
      </trkpt>
      <trkpt lat="45.42916" lon="5.62789">
        <ele>749.4</ele>
        <time>2016-05-21T11:07:33Z</time>
      </trkpt>
      <trkpt lat="45.42921" lon="5.62776">
        <ele>749.6</ele>
        <time>2016-05-21T11:07:34Z</time>
      </trkpt>
      <trkpt lat="45.42927" lon="5.62764">
        <ele>749.4</ele>
        <time>2016-05-21T11:07:35Z</time>
      </trkpt>
      <trkpt lat="45.42933" lon="5.62752">
        <ele>748.5</ele>
        <time>2016-05-21T11:07:36Z</time>
      </trkpt>
      <trkpt lat="45.42939" lon="5.62742">
        <ele>747.9</ele>
        <time>2016-05-21T11:07:37Z</time>
      </trkpt>
      <trkpt lat="45.42947" lon="5.62731">
        <ele>747.7</ele>
        <time>2016-05-21T11:07:38Z</time>
      </trkpt>
      <trkpt lat="45.42959" lon="5.62725">
        <ele>747</ele>
        <time>2016-05-21T11:07:39Z</time>
      </trkpt>
      <trkpt lat="45.42968" lon="5.62719">
        <ele>746</ele>
        <time>2016-05-21T11:07:40Z</time>
      </trkpt>
      <trkpt lat="45.42976" lon="5.62711">
        <ele>745</ele>
        <time>2016-05-21T11:07:41Z</time>
      </trkpt>
      <trkpt lat="45.42984" lon="5.627">
        <ele>744.7</ele>
        <time>2016-05-21T11:07:42Z</time>
      </trkpt>
      <trkpt lat="45.4299" lon="5.62689">
        <ele>743.5</ele>
        <time>2016-05-21T11:07:43Z</time>
      </trkpt>
      <trkpt lat="45.42993" lon="5.62677">
        <ele>742.1</ele>
        <time>2016-05-21T11:07:44Z</time>
      </trkpt>
      <trkpt lat="45.42992" lon="5.62662">
        <ele>740.7</ele>
        <time>2016-05-21T11:07:45Z</time>
      </trkpt>
      <trkpt lat="45.42992" lon="5.62649">
        <ele>739.3</ele>
        <time>2016-05-21T11:07:46Z</time>
      </trkpt>
      <trkpt lat="45.42992" lon="5.62634">
        <ele>738</ele>
        <time>2016-05-21T11:07:47Z</time>
      </trkpt>
      <trkpt lat="45.42991" lon="5.62619">
        <ele>737.2</ele>
        <time>2016-05-21T11:07:48Z</time>
      </trkpt>
      <trkpt lat="45.4299" lon="5.62602">
        <ele>737.1</ele>
        <time>2016-05-21T11:07:49Z</time>
      </trkpt>
      <trkpt lat="45.42988" lon="5.62585">
        <ele>736.6</ele>
        <time>2016-05-21T11:07:50Z</time>
      </trkpt>
      <trkpt lat="45.42987" lon="5.6257">
        <ele>737.2</ele>
        <time>2016-05-21T11:07:51Z</time>
      </trkpt>
      <trkpt lat="45.42985" lon="5.62554">
        <ele>737.7</ele>
        <time>2016-05-21T11:07:52Z</time>
      </trkpt>
      <trkpt lat="45.42982" lon="5.62538">
        <ele>738.2</ele>
        <time>2016-05-21T11:07:53Z</time>
      </trkpt>
      <trkpt lat="45.42979" lon="5.62523">
        <ele>738.2</ele>
        <time>2016-05-21T11:07:54Z</time>
      </trkpt>
      <trkpt lat="45.42976" lon="5.62507">
        <ele>737.9</ele>
        <time>2016-05-21T11:07:55Z</time>
      </trkpt>
      <trkpt lat="45.42973" lon="5.62493">
        <ele>737.4</ele>
        <time>2016-05-21T11:07:56Z</time>
      </trkpt>
      <trkpt lat="45.42969" lon="5.62479">
        <ele>736.2</ele>
        <time>2016-05-21T11:07:57Z</time>
      </trkpt>
      <trkpt lat="45.42965" lon="5.62465">
        <ele>735</ele>
        <time>2016-05-21T11:07:58Z</time>
      </trkpt>
      <trkpt lat="45.4296" lon="5.62454">
        <ele>733.6</ele>
        <time>2016-05-21T11:07:59Z</time>
      </trkpt>
      <trkpt lat="45.42954" lon="5.62442">
        <ele>731.9</ele>
        <time>2016-05-21T11:08:00Z</time>
      </trkpt>
      <trkpt lat="45.42948" lon="5.62429">
        <ele>730.7</ele>
        <time>2016-05-21T11:08:01Z</time>
      </trkpt>
      <trkpt lat="45.42942" lon="5.62416">
        <ele>729.7</ele>
        <time>2016-05-21T11:08:02Z</time>
      </trkpt>
      <trkpt lat="45.42936" lon="5.62403">
        <ele>729</ele>
        <time>2016-05-21T11:08:03Z</time>
      </trkpt>
      <trkpt lat="45.42931" lon="5.6239">
        <ele>728.4</ele>
        <time>2016-05-21T11:08:04Z</time>
      </trkpt>
      <trkpt lat="45.42925" lon="5.62376">
        <ele>728.3</ele>
        <time>2016-05-21T11:08:05Z</time>
      </trkpt>
      <trkpt lat="45.42921" lon="5.62363">
        <ele>727.8</ele>
        <time>2016-05-21T11:08:06Z</time>
      </trkpt>
      <trkpt lat="45.42916" lon="5.6235">
        <ele>727.7</ele>
        <time>2016-05-21T11:08:07Z</time>
      </trkpt>
      <trkpt lat="45.42912" lon="5.62338">
        <ele>728</ele>
        <time>2016-05-21T11:08:08Z</time>
      </trkpt>
      <trkpt lat="45.42908" lon="5.62326">
        <ele>728.5</ele>
        <time>2016-05-21T11:08:09Z</time>
      </trkpt>
      <trkpt lat="45.42903" lon="5.62314">
        <ele>729</ele>
        <time>2016-05-21T11:08:10Z</time>
      </trkpt>
      <trkpt lat="45.42899" lon="5.62302">
        <ele>729.6</ele>
        <time>2016-05-21T11:08:11Z</time>
      </trkpt>
      <trkpt lat="45.42895" lon="5.62291">
        <ele>729.1</ele>
        <time>2016-05-21T11:08:12Z</time>
      </trkpt>
      <trkpt lat="45.42891" lon="5.6228">
        <ele>729.1</ele>
        <time>2016-05-21T11:08:13Z</time>
      </trkpt>
      <trkpt lat="45.42886" lon="5.62268">
        <ele>728.7</ele>
        <time>2016-05-21T11:08:14Z</time>
      </trkpt>
      <trkpt lat="45.4288" lon="5.62257">
        <ele>728.1</ele>
        <time>2016-05-21T11:08:15Z</time>
      </trkpt>
      <trkpt lat="45.42874" lon="5.62245">
        <ele>727.7</ele>
        <time>2016-05-21T11:08:16Z</time>
      </trkpt>
      <trkpt lat="45.42867" lon="5.62234">
        <ele>727.1</ele>
        <time>2016-05-21T11:08:17Z</time>
      </trkpt>
      <trkpt lat="45.4286" lon="5.62224">
        <ele>727.1</ele>
        <time>2016-05-21T11:08:18Z</time>
      </trkpt>
      <trkpt lat="45.42852" lon="5.62213">
        <ele>726.9</ele>
        <time>2016-05-21T11:08:19Z</time>
      </trkpt>
      <trkpt lat="45.42845" lon="5.62204">
        <ele>726.6</ele>
        <time>2016-05-21T11:08:20Z</time>
      </trkpt>
      <trkpt lat="45.42837" lon="5.62195">
        <ele>725.3</ele>
        <time>2016-05-21T11:08:21Z</time>
      </trkpt>
      <trkpt lat="45.42828" lon="5.62185">
        <ele>724</ele>
        <time>2016-05-21T11:08:22Z</time>
      </trkpt>
      <trkpt lat="45.42819" lon="5.62176">
        <ele>722.6</ele>
        <time>2016-05-21T11:08:23Z</time>
      </trkpt>
      <trkpt lat="45.42811" lon="5.62167">
        <ele>721.4</ele>
        <time>2016-05-21T11:08:24Z</time>
      </trkpt>
      <trkpt lat="45.42803" lon="5.62158">
        <ele>720.1</ele>
        <time>2016-05-21T11:08:25Z</time>
      </trkpt>
      <trkpt lat="45.42795" lon="5.62149">
        <ele>719.1</ele>
        <time>2016-05-21T11:08:26Z</time>
      </trkpt>
      <trkpt lat="45.42786" lon="5.62139">
        <ele>718</ele>
        <time>2016-05-21T11:08:27Z</time>
      </trkpt>
      <trkpt lat="45.42778" lon="5.62131">
        <ele>716.5</ele>
        <time>2016-05-21T11:08:28Z</time>
      </trkpt>
      <trkpt lat="45.4277" lon="5.62122">
        <ele>714.8</ele>
        <time>2016-05-21T11:08:29Z</time>
      </trkpt>
      <trkpt lat="45.42762" lon="5.62113">
        <ele>714.1</ele>
        <time>2016-05-21T11:08:30Z</time>
      </trkpt>
      <trkpt lat="45.42753" lon="5.62103">
        <ele>713.6</ele>
        <time>2016-05-21T11:08:31Z</time>
      </trkpt>
      <trkpt lat="45.42744" lon="5.62094">
        <ele>712.9</ele>
        <time>2016-05-21T11:08:32Z</time>
      </trkpt>
      <trkpt lat="45.42736" lon="5.62086">
        <ele>712.4</ele>
        <time>2016-05-21T11:08:33Z</time>
      </trkpt>
      <trkpt lat="45.42726" lon="5.62077">
        <ele>712.2</ele>
        <time>2016-05-21T11:08:34Z</time>
      </trkpt>
      <trkpt lat="45.42718" lon="5.62069">
        <ele>711.9</ele>
        <time>2016-05-21T11:08:35Z</time>
      </trkpt>
      <trkpt lat="45.42709" lon="5.62061">
        <ele>711.5</ele>
        <time>2016-05-21T11:08:36Z</time>
      </trkpt>
      <trkpt lat="45.42701" lon="5.62053">
        <ele>710.7</ele>
        <time>2016-05-21T11:08:37Z</time>
      </trkpt>
      <trkpt lat="45.42693" lon="5.62047">
        <ele>709.6</ele>
        <time>2016-05-21T11:08:38Z</time>
      </trkpt>
      <trkpt lat="45.42683" lon="5.6204">
        <ele>709.2</ele>
        <time>2016-05-21T11:08:39Z</time>
      </trkpt>
      <trkpt lat="45.42673" lon="5.62033">
        <ele>708.7</ele>
        <time>2016-05-21T11:08:40Z</time>
      </trkpt>
      <trkpt lat="45.42663" lon="5.62025">
        <ele>708.7</ele>
        <time>2016-05-21T11:08:41Z</time>
      </trkpt>
      <trkpt lat="45.42654" lon="5.62019">
        <ele>709.8</ele>
        <time>2016-05-21T11:08:42Z</time>
      </trkpt>
      <trkpt lat="45.42644" lon="5.62013">
        <ele>710.4</ele>
        <time>2016-05-21T11:08:43Z</time>
      </trkpt>
      <trkpt lat="45.42635" lon="5.62009">
        <ele>711</ele>
        <time>2016-05-21T11:08:44Z</time>
      </trkpt>
      <trkpt lat="45.42625" lon="5.62006">
        <ele>711.8</ele>
        <time>2016-05-21T11:08:45Z</time>
      </trkpt>
      <trkpt lat="45.42615" lon="5.62006">
        <ele>711.6</ele>
        <time>2016-05-21T11:08:46Z</time>
      </trkpt>
      <trkpt lat="45.42605" lon="5.62008">
        <ele>712.1</ele>
        <time>2016-05-21T11:08:47Z</time>
      </trkpt>
      <trkpt lat="45.42595" lon="5.62009">
        <ele>712.3</ele>
        <time>2016-05-21T11:08:48Z</time>
      </trkpt>
      <trkpt lat="45.42585" lon="5.6201">
        <ele>712.2</ele>
        <time>2016-05-21T11:08:49Z</time>
      </trkpt>
      <trkpt lat="45.42575" lon="5.6201">
        <ele>711.9</ele>
        <time>2016-05-21T11:08:50Z</time>
      </trkpt>
      <trkpt lat="45.42566" lon="5.62007">
        <ele>711.3</ele>
        <time>2016-05-21T11:08:51Z</time>
      </trkpt>
      <trkpt lat="45.42556" lon="5.62003">
        <ele>710.8</ele>
        <time>2016-05-21T11:08:52Z</time>
      </trkpt>
      <trkpt lat="45.42546" lon="5.61999">
        <ele>710.6</ele>
        <time>2016-05-21T11:08:53Z</time>
      </trkpt>
      <trkpt lat="45.42536" lon="5.61995">
        <ele>710.1</ele>
        <time>2016-05-21T11:08:54Z</time>
      </trkpt>
      <trkpt lat="45.42526" lon="5.61991">
        <ele>709.5</ele>
        <time>2016-05-21T11:08:55Z</time>
      </trkpt>
      <trkpt lat="45.42516" lon="5.61987">
        <ele>708.7</ele>
        <time>2016-05-21T11:08:56Z</time>
      </trkpt>
      <trkpt lat="45.42507" lon="5.61982">
        <ele>708</ele>
        <time>2016-05-21T11:08:57Z</time>
      </trkpt>
      <trkpt lat="45.42496" lon="5.61978">
        <ele>707.6</ele>
        <time>2016-05-21T11:08:58Z</time>
      </trkpt>
      <trkpt lat="45.42487" lon="5.61974">
        <ele>707.9</ele>
        <time>2016-05-21T11:08:59Z</time>
      </trkpt>
      <trkpt lat="45.42477" lon="5.6197">
        <ele>708.6</ele>
        <time>2016-05-21T11:09:00Z</time>
      </trkpt>
      <trkpt lat="45.42469" lon="5.61966">
        <ele>709.2</ele>
        <time>2016-05-21T11:09:01Z</time>
      </trkpt>
      <trkpt lat="45.4246" lon="5.61962">
        <ele>709.6</ele>
        <time>2016-05-21T11:09:02Z</time>
      </trkpt>
      <trkpt lat="45.4245" lon="5.61958">
        <ele>709.6</ele>
        <time>2016-05-21T11:09:03Z</time>
      </trkpt>
      <trkpt lat="45.4244" lon="5.61954">
        <ele>709.2</ele>
        <time>2016-05-21T11:09:04Z</time>
      </trkpt>
      <trkpt lat="45.42431" lon="5.6195">
        <ele>708.4</ele>
        <time>2016-05-21T11:09:05Z</time>
      </trkpt>
      <trkpt lat="45.42422" lon="5.61945">
        <ele>708.2</ele>
        <time>2016-05-21T11:09:06Z</time>
      </trkpt>
      <trkpt lat="45.42412" lon="5.61941">
        <ele>708</ele>
        <time>2016-05-21T11:09:07Z</time>
      </trkpt>
      <trkpt lat="45.42401" lon="5.61936">
        <ele>708.1</ele>
        <time>2016-05-21T11:09:08Z</time>
      </trkpt>
      <trkpt lat="45.42392" lon="5.61931">
        <ele>708.1</ele>
        <time>2016-05-21T11:09:09Z</time>
      </trkpt>
      <trkpt lat="45.42382" lon="5.61928">
        <ele>708.2</ele>
        <time>2016-05-21T11:09:10Z</time>
      </trkpt>
      <trkpt lat="45.42372" lon="5.61925">
        <ele>708</ele>
        <time>2016-05-21T11:09:11Z</time>
      </trkpt>
      <trkpt lat="45.42362" lon="5.61922">
        <ele>707.6</ele>
        <time>2016-05-21T11:09:12Z</time>
      </trkpt>
      <trkpt lat="45.42352" lon="5.6192">
        <ele>707.1</ele>
        <time>2016-05-21T11:09:13Z</time>
      </trkpt>
      <trkpt lat="45.42342" lon="5.61918">
        <ele>706.3</ele>
        <time>2016-05-21T11:09:14Z</time>
      </trkpt>
      <trkpt lat="45.42334" lon="5.61917">
        <ele>706.2</ele>
        <time>2016-05-21T11:09:15Z</time>
      </trkpt>
      <trkpt lat="45.42325" lon="5.61916">
        <ele>706.3</ele>
        <time>2016-05-21T11:09:16Z</time>
      </trkpt>
      <trkpt lat="45.42318" lon="5.61915">
        <ele>706.7</ele>
        <time>2016-05-21T11:09:17Z</time>
      </trkpt>
      <trkpt lat="45.42309" lon="5.61914">
        <ele>706.9</ele>
        <time>2016-05-21T11:09:18Z</time>
      </trkpt>
      <trkpt lat="45.423" lon="5.61915">
        <ele>706.9</ele>
        <time>2016-05-21T11:09:19Z</time>
      </trkpt>
      <trkpt lat="45.4229" lon="5.61915">
        <ele>706.7</ele>
        <time>2016-05-21T11:09:20Z</time>
      </trkpt>
      <trkpt lat="45.4228" lon="5.61916">
        <ele>706.4</ele>
        <time>2016-05-21T11:09:21Z</time>
      </trkpt>
      <trkpt lat="45.4227" lon="5.61916">
        <ele>706</ele>
        <time>2016-05-21T11:09:22Z</time>
      </trkpt>
      <trkpt lat="45.4226" lon="5.61917">
        <ele>705.5</ele>
        <time>2016-05-21T11:09:23Z</time>
      </trkpt>
      <trkpt lat="45.42249" lon="5.61918">
        <ele>704.7</ele>
        <time>2016-05-21T11:09:24Z</time>
      </trkpt>
      <trkpt lat="45.42238" lon="5.61918">
        <ele>704.6</ele>
        <time>2016-05-21T11:09:25Z</time>
      </trkpt>
      <trkpt lat="45.42226" lon="5.61917">
        <ele>704</ele>
        <time>2016-05-21T11:09:26Z</time>
      </trkpt>
      <trkpt lat="45.42215" lon="5.61917">
        <ele>703.2</ele>
        <time>2016-05-21T11:09:27Z</time>
      </trkpt>
      <trkpt lat="45.42204" lon="5.61916">
        <ele>702.7</ele>
        <time>2016-05-21T11:09:28Z</time>
      </trkpt>
      <trkpt lat="45.42193" lon="5.61915">
        <ele>701.9</ele>
        <time>2016-05-21T11:09:29Z</time>
      </trkpt>
      <trkpt lat="45.42182" lon="5.61914">
        <ele>701.4</ele>
        <time>2016-05-21T11:09:30Z</time>
      </trkpt>
      <trkpt lat="45.42172" lon="5.61912">
        <ele>700.7</ele>
        <time>2016-05-21T11:09:31Z</time>
      </trkpt>
      <trkpt lat="45.42161" lon="5.61911">
        <ele>701</ele>
        <time>2016-05-21T11:09:32Z</time>
      </trkpt>
      <trkpt lat="45.4215" lon="5.61909">
        <ele>701.8</ele>
        <time>2016-05-21T11:09:33Z</time>
      </trkpt>
      <trkpt lat="45.4214" lon="5.61908">
        <ele>701.7</ele>
        <time>2016-05-21T11:09:34Z</time>
      </trkpt>
      <trkpt lat="45.4213" lon="5.61909">
        <ele>701</ele>
        <time>2016-05-21T11:09:35Z</time>
      </trkpt>
      <trkpt lat="45.4212" lon="5.61909">
        <ele>700</ele>
        <time>2016-05-21T11:09:36Z</time>
      </trkpt>
      <trkpt lat="45.42111" lon="5.61915">
        <ele>699.7</ele>
        <time>2016-05-21T11:09:37Z</time>
      </trkpt>
      <trkpt lat="45.42105" lon="5.61924">
        <ele>699</ele>
        <time>2016-05-21T11:09:38Z</time>
      </trkpt>
      <trkpt lat="45.42098" lon="5.61933">
        <ele>699.5</ele>
        <time>2016-05-21T11:09:39Z</time>
      </trkpt>
      <trkpt lat="45.42098" lon="5.61947">
        <ele>700.3</ele>
        <time>2016-05-21T11:09:40Z</time>
      </trkpt>
      <trkpt lat="45.42097" lon="5.61962">
        <ele>700.1</ele>
        <time>2016-05-21T11:09:41Z</time>
      </trkpt>
      <trkpt lat="45.42102" lon="5.61975">
        <ele>700</ele>
        <time>2016-05-21T11:09:42Z</time>
      </trkpt>
      <trkpt lat="45.42106" lon="5.61987">
        <ele>699.6</ele>
        <time>2016-05-21T11:09:43Z</time>
      </trkpt>
      <trkpt lat="45.42111" lon="5.62001">
        <ele>700.9</ele>
        <time>2016-05-21T11:09:44Z</time>
      </trkpt>
      <trkpt lat="45.42112" lon="5.62012">
        <ele>701.6</ele>
        <time>2016-05-21T11:09:45Z</time>
      </trkpt>
      <trkpt lat="45.42106" lon="5.62021">
        <ele>702.1</ele>
        <time>2016-05-21T11:09:46Z</time>
      </trkpt>
      <trkpt lat="45.42101" lon="5.62032">
        <ele>702</ele>
        <time>2016-05-21T11:09:47Z</time>
      </trkpt>
      <trkpt lat="45.42095" lon="5.62039">
        <ele>701.5</ele>
        <time>2016-05-21T11:09:48Z</time>
      </trkpt>
      <trkpt lat="45.42086" lon="5.62033">
        <ele>700.8</ele>
        <time>2016-05-21T11:09:49Z</time>
      </trkpt>
      <trkpt lat="45.42076" lon="5.62026">
        <ele>700.2</ele>
        <time>2016-05-21T11:09:50Z</time>
      </trkpt>
      <trkpt lat="45.42064" lon="5.62019">
        <ele>699.5</ele>
        <time>2016-05-21T11:09:51Z</time>
      </trkpt>
      <trkpt lat="45.42052" lon="5.62013">
        <ele>698.3</ele>
        <time>2016-05-21T11:09:52Z</time>
      </trkpt>
      <trkpt lat="45.4204" lon="5.6201">
        <ele>697.7</ele>
        <time>2016-05-21T11:09:53Z</time>
      </trkpt>
      <trkpt lat="45.42029" lon="5.62011">
        <ele>697.7</ele>
        <time>2016-05-21T11:09:54Z</time>
      </trkpt>
      <trkpt lat="45.4202" lon="5.62012">
        <ele>697.9</ele>
        <time>2016-05-21T11:09:55Z</time>
      </trkpt>
      <trkpt lat="45.42009" lon="5.62013">
        <ele>697.9</ele>
        <time>2016-05-21T11:09:56Z</time>
      </trkpt>
      <trkpt lat="45.41999" lon="5.62015">
        <ele>697.7</ele>
        <time>2016-05-21T11:09:57Z</time>
      </trkpt>
      <trkpt lat="45.4199" lon="5.62017">
        <ele>697.2</ele>
        <time>2016-05-21T11:09:58Z</time>
      </trkpt>
      <trkpt lat="45.41982" lon="5.62019">
        <ele>696.6</ele>
        <time>2016-05-21T11:09:59Z</time>
      </trkpt>
      <trkpt lat="45.41973" lon="5.62021">
        <ele>696.5</ele>
        <time>2016-05-21T11:10:00Z</time>
      </trkpt>
      <trkpt lat="45.41963" lon="5.62024">
        <ele>696.3</ele>
        <time>2016-05-21T11:10:01Z</time>
      </trkpt>
      <trkpt lat="45.41955" lon="5.62028">
        <ele>696.7</ele>
        <time>2016-05-21T11:10:02Z</time>
      </trkpt>
      <trkpt lat="45.41939" lon="5.62034">
        <ele>694.8</ele>
        <time>2016-05-21T11:10:04Z</time>
      </trkpt>
      <trkpt lat="45.41932" lon="5.62038">
        <ele>694.1</ele>
        <time>2016-05-21T11:10:05Z</time>
      </trkpt>
      <trkpt lat="45.41924" lon="5.62041">
        <ele>693.1</ele>
        <time>2016-05-21T11:10:06Z</time>
      </trkpt>
      <trkpt lat="45.41917" lon="5.62046">
        <ele>692.4</ele>
        <time>2016-05-21T11:10:07Z</time>
      </trkpt>
      <trkpt lat="45.4191" lon="5.6205">
        <ele>692.1</ele>
        <time>2016-05-21T11:10:08Z</time>
      </trkpt>
      <trkpt lat="45.41903" lon="5.62054">
        <ele>691.7</ele>
        <time>2016-05-21T11:10:09Z</time>
      </trkpt>
      <trkpt lat="45.41895" lon="5.62058">
        <ele>691.3</ele>
        <time>2016-05-21T11:10:10Z</time>
      </trkpt>
      <trkpt lat="45.41886" lon="5.62062">
        <ele>691.7</ele>
        <time>2016-05-21T11:10:11Z</time>
      </trkpt>
      <trkpt lat="45.41878" lon="5.62066">
        <ele>692.4</ele>
        <time>2016-05-21T11:10:12Z</time>
      </trkpt>
      <trkpt lat="45.41869" lon="5.62071">
        <ele>692.4</ele>
        <time>2016-05-21T11:10:13Z</time>
      </trkpt>
      <trkpt lat="45.41861" lon="5.62074">
        <ele>691.7</ele>
        <time>2016-05-21T11:10:14Z</time>
      </trkpt>
      <trkpt lat="45.41853" lon="5.62078">
        <ele>690.8</ele>
        <time>2016-05-21T11:10:15Z</time>
      </trkpt>
      <trkpt lat="45.41846" lon="5.62081">
        <ele>690.8</ele>
        <time>2016-05-21T11:10:16Z</time>
      </trkpt>
      <trkpt lat="45.41839" lon="5.62085">
        <ele>690.7</ele>
        <time>2016-05-21T11:10:17Z</time>
      </trkpt>
      <trkpt lat="45.41832" lon="5.62088">
        <ele>690.6</ele>
        <time>2016-05-21T11:10:18Z</time>
      </trkpt>
      <trkpt lat="45.41825" lon="5.62093">
        <ele>690.9</ele>
        <time>2016-05-21T11:10:19Z</time>
      </trkpt>
      <trkpt lat="45.41812" lon="5.621">
        <ele>692.6</ele>
        <time>2016-05-21T11:10:21Z</time>
      </trkpt>
      <trkpt lat="45.41805" lon="5.62104">
        <ele>693.1</ele>
        <time>2016-05-21T11:10:22Z</time>
      </trkpt>
      <trkpt lat="45.41798" lon="5.62108">
        <ele>693.9</ele>
        <time>2016-05-21T11:10:23Z</time>
      </trkpt>
      <trkpt lat="45.41791" lon="5.62112">
        <ele>694.8</ele>
        <time>2016-05-21T11:10:24Z</time>
      </trkpt>
      <trkpt lat="45.41783" lon="5.62117">
        <ele>695.4</ele>
        <time>2016-05-21T11:10:25Z</time>
      </trkpt>
      <trkpt lat="45.41775" lon="5.62122">
        <ele>696.1</ele>
        <time>2016-05-21T11:10:26Z</time>
      </trkpt>
      <trkpt lat="45.41767" lon="5.62128">
        <ele>696.4</ele>
        <time>2016-05-21T11:10:27Z</time>
      </trkpt>
      <trkpt lat="45.4176" lon="5.62135">
        <ele>696.1</ele>
        <time>2016-05-21T11:10:28Z</time>
      </trkpt>
      <trkpt lat="45.41753" lon="5.62142">
        <ele>695.9</ele>
        <time>2016-05-21T11:10:29Z</time>
      </trkpt>
      <trkpt lat="45.41746" lon="5.6215">
        <ele>695.7</ele>
        <time>2016-05-21T11:10:30Z</time>
      </trkpt>
      <trkpt lat="45.41739" lon="5.62157">
        <ele>695.3</ele>
        <time>2016-05-21T11:10:31Z</time>
      </trkpt>
      <trkpt lat="45.41733" lon="5.62165">
        <ele>695.1</ele>
        <time>2016-05-21T11:10:32Z</time>
      </trkpt>
      <trkpt lat="45.41727" lon="5.62172">
        <ele>695.2</ele>
        <time>2016-05-21T11:10:33Z</time>
      </trkpt>
      <trkpt lat="45.4172" lon="5.62179">
        <ele>695.6</ele>
        <time>2016-05-21T11:10:34Z</time>
      </trkpt>
      <trkpt lat="45.41714" lon="5.62187">
        <ele>696</ele>
        <time>2016-05-21T11:10:35Z</time>
      </trkpt>
      <trkpt lat="45.41707" lon="5.62195">
        <ele>696.2</ele>
        <time>2016-05-21T11:10:36Z</time>
      </trkpt>
      <trkpt lat="45.417" lon="5.62204">
        <ele>696.5</ele>
        <time>2016-05-21T11:10:37Z</time>
      </trkpt>
      <trkpt lat="45.41693" lon="5.62212">
        <ele>696.5</ele>
        <time>2016-05-21T11:10:38Z</time>
      </trkpt>
      <trkpt lat="45.41686" lon="5.62221">
        <ele>696.8</ele>
        <time>2016-05-21T11:10:39Z</time>
      </trkpt>
      <trkpt lat="45.41679" lon="5.6223">
        <ele>697.4</ele>
        <time>2016-05-21T11:10:40Z</time>
      </trkpt>
      <trkpt lat="45.41672" lon="5.62238">
        <ele>697.3</ele>
        <time>2016-05-21T11:10:41Z</time>
      </trkpt>
      <trkpt lat="45.41666" lon="5.62247">
        <ele>697</ele>
        <time>2016-05-21T11:10:42Z</time>
      </trkpt>
      <trkpt lat="45.41658" lon="5.62256">
        <ele>696.6</ele>
        <time>2016-05-21T11:10:43Z</time>
      </trkpt>
      <trkpt lat="45.41651" lon="5.62266">
        <ele>697</ele>
        <time>2016-05-21T11:10:44Z</time>
      </trkpt>
      <trkpt lat="45.41644" lon="5.62275">
        <ele>697.5</ele>
        <time>2016-05-21T11:10:45Z</time>
      </trkpt>
      <trkpt lat="45.41637" lon="5.62284">
        <ele>698.2</ele>
        <time>2016-05-21T11:10:46Z</time>
      </trkpt>
      <trkpt lat="45.41629" lon="5.62292">
        <ele>698.3</ele>
        <time>2016-05-21T11:10:47Z</time>
      </trkpt>
      <trkpt lat="45.41621" lon="5.623">
        <ele>698.8</ele>
        <time>2016-05-21T11:10:48Z</time>
      </trkpt>
      <trkpt lat="45.41613" lon="5.62308">
        <ele>699.3</ele>
        <time>2016-05-21T11:10:49Z</time>
      </trkpt>
      <trkpt lat="45.41605" lon="5.62315">
        <ele>699.8</ele>
        <time>2016-05-21T11:10:50Z</time>
      </trkpt>
      <trkpt lat="45.41597" lon="5.6232">
        <ele>700.1</ele>
        <time>2016-05-21T11:10:51Z</time>
      </trkpt>
      <trkpt lat="45.41589" lon="5.62325">
        <ele>699.2</ele>
        <time>2016-05-21T11:10:52Z</time>
      </trkpt>
      <trkpt lat="45.41581" lon="5.6233">
        <ele>698.5</ele>
        <time>2016-05-21T11:10:53Z</time>
      </trkpt>
      <trkpt lat="45.41574" lon="5.62334">
        <ele>698.3</ele>
        <time>2016-05-21T11:10:54Z</time>
      </trkpt>
      <trkpt lat="45.41567" lon="5.62337">
        <ele>697.6</ele>
        <time>2016-05-21T11:10:55Z</time>
      </trkpt>
      <trkpt lat="45.41559" lon="5.62339">
        <ele>697.1</ele>
        <time>2016-05-21T11:10:56Z</time>
      </trkpt>
      <trkpt lat="45.41552" lon="5.62342">
        <ele>696.7</ele>
        <time>2016-05-21T11:10:57Z</time>
      </trkpt>
      <trkpt lat="45.41545" lon="5.62345">
        <ele>695.6</ele>
        <time>2016-05-21T11:10:58Z</time>
      </trkpt>
      <trkpt lat="45.41532" lon="5.62351">
        <ele>693.8</ele>
        <time>2016-05-21T11:11:00Z</time>
      </trkpt>
      <trkpt lat="45.41523" lon="5.62355">
        <ele>693.6</ele>
        <time>2016-05-21T11:11:01Z</time>
      </trkpt>
      <trkpt lat="45.41515" lon="5.62359">
        <ele>693.5</ele>
        <time>2016-05-21T11:11:02Z</time>
      </trkpt>
      <trkpt lat="45.41507" lon="5.62363">
        <ele>693.1</ele>
        <time>2016-05-21T11:11:03Z</time>
      </trkpt>
      <trkpt lat="45.41499" lon="5.62367">
        <ele>692.8</ele>
        <time>2016-05-21T11:11:04Z</time>
      </trkpt>
      <trkpt lat="45.41491" lon="5.6237">
        <ele>692</ele>
        <time>2016-05-21T11:11:05Z</time>
      </trkpt>
      <trkpt lat="45.41483" lon="5.62374">
        <ele>691.3</ele>
        <time>2016-05-21T11:11:06Z</time>
      </trkpt>
      <trkpt lat="45.41476" lon="5.62379">
        <ele>691.1</ele>
        <time>2016-05-21T11:11:07Z</time>
      </trkpt>
      <trkpt lat="45.41469" lon="5.62385">
        <ele>691.3</ele>
        <time>2016-05-21T11:11:08Z</time>
      </trkpt>
      <trkpt lat="45.41461" lon="5.62391">
        <ele>691.3</ele>
        <time>2016-05-21T11:11:09Z</time>
      </trkpt>
      <trkpt lat="45.41456" lon="5.62397">
        <ele>691.8</ele>
        <time>2016-05-21T11:11:10Z</time>
      </trkpt>
      <trkpt lat="45.41449" lon="5.62404">
        <ele>692.4</ele>
        <time>2016-05-21T11:11:11Z</time>
      </trkpt>
      <trkpt lat="45.41443" lon="5.6241">
        <ele>692.9</ele>
        <time>2016-05-21T11:11:12Z</time>
      </trkpt>
      <trkpt lat="45.41437" lon="5.62417">
        <ele>693.2</ele>
        <time>2016-05-21T11:11:13Z</time>
      </trkpt>
      <trkpt lat="45.41429" lon="5.62422">
        <ele>693.5</ele>
        <time>2016-05-21T11:11:14Z</time>
      </trkpt>
      <trkpt lat="45.41421" lon="5.62428">
        <ele>694</ele>
        <time>2016-05-21T11:11:15Z</time>
      </trkpt>
      <trkpt lat="45.41413" lon="5.62433">
        <ele>694.5</ele>
        <time>2016-05-21T11:11:16Z</time>
      </trkpt>
      <trkpt lat="45.41406" lon="5.62439">
        <ele>694.6</ele>
        <time>2016-05-21T11:11:17Z</time>
      </trkpt>
      <trkpt lat="45.41397" lon="5.62445">
        <ele>694.7</ele>
        <time>2016-05-21T11:11:18Z</time>
      </trkpt>
      <trkpt lat="45.41389" lon="5.6245">
        <ele>694.5</ele>
        <time>2016-05-21T11:11:19Z</time>
      </trkpt>
      <trkpt lat="45.4138" lon="5.62455">
        <ele>694.4</ele>
        <time>2016-05-21T11:11:20Z</time>
      </trkpt>
      <trkpt lat="45.4136" lon="5.62466">
        <ele>695.3</ele>
        <time>2016-05-21T11:11:22Z</time>
      </trkpt>
      <trkpt lat="45.41348" lon="5.62472">
        <ele>695.1</ele>
        <time>2016-05-21T11:11:23Z</time>
      </trkpt>
      <trkpt lat="45.41337" lon="5.62477">
        <ele>694.9</ele>
        <time>2016-05-21T11:11:24Z</time>
      </trkpt>
      <trkpt lat="45.41327" lon="5.62482">
        <ele>694.6</ele>
        <time>2016-05-21T11:11:25Z</time>
      </trkpt>
      <trkpt lat="45.41316" lon="5.62487">
        <ele>694.5</ele>
        <time>2016-05-21T11:11:26Z</time>
      </trkpt>
      <trkpt lat="45.41304" lon="5.6249">
        <ele>694.7</ele>
        <time>2016-05-21T11:11:27Z</time>
      </trkpt>
      <trkpt lat="45.41292" lon="5.62491">
        <ele>694.7</ele>
        <time>2016-05-21T11:11:28Z</time>
      </trkpt>
      <trkpt lat="45.41279" lon="5.62493">
        <ele>694.3</ele>
        <time>2016-05-21T11:11:29Z</time>
      </trkpt>
      <trkpt lat="45.41266" lon="5.62496">
        <ele>695.2</ele>
        <time>2016-05-21T11:11:30Z</time>
      </trkpt>
      <trkpt lat="45.41254" lon="5.62499">
        <ele>695.8</ele>
        <time>2016-05-21T11:11:31Z</time>
      </trkpt>
      <trkpt lat="45.41241" lon="5.62501">
        <ele>696.3</ele>
        <time>2016-05-21T11:11:32Z</time>
      </trkpt>
      <trkpt lat="45.4123" lon="5.62503">
        <ele>696.6</ele>
        <time>2016-05-21T11:11:33Z</time>
      </trkpt>
      <trkpt lat="45.41218" lon="5.62504">
        <ele>696.2</ele>
        <time>2016-05-21T11:11:34Z</time>
      </trkpt>
      <trkpt lat="45.41206" lon="5.62505">
        <ele>696.1</ele>
        <time>2016-05-21T11:11:35Z</time>
      </trkpt>
      <trkpt lat="45.41191" lon="5.62505">
        <ele>696</ele>
        <time>2016-05-21T11:11:36Z</time>
      </trkpt>
      <trkpt lat="45.41179" lon="5.62504">
        <ele>695.8</ele>
        <time>2016-05-21T11:11:37Z</time>
      </trkpt>
      <trkpt lat="45.41166" lon="5.62502">
        <ele>695.6</ele>
        <time>2016-05-21T11:11:38Z</time>
      </trkpt>
      <trkpt lat="45.41153" lon="5.62499">
        <ele>694.5</ele>
        <time>2016-05-21T11:11:39Z</time>
      </trkpt>
      <trkpt lat="45.41141" lon="5.62495">
        <ele>693.8</ele>
        <time>2016-05-21T11:11:40Z</time>
      </trkpt>
      <trkpt lat="45.41128" lon="5.6249">
        <ele>692.9</ele>
        <time>2016-05-21T11:11:41Z</time>
      </trkpt>
      <trkpt lat="45.41116" lon="5.62484">
        <ele>692.4</ele>
        <time>2016-05-21T11:11:42Z</time>
      </trkpt>
      <trkpt lat="45.41103" lon="5.62477">
        <ele>691.5</ele>
        <time>2016-05-21T11:11:43Z</time>
      </trkpt>
      <trkpt lat="45.41089" lon="5.6247">
        <ele>690.5</ele>
        <time>2016-05-21T11:11:44Z</time>
      </trkpt>
      <trkpt lat="45.41078" lon="5.6246">
        <ele>689.8</ele>
        <time>2016-05-21T11:11:45Z</time>
      </trkpt>
      <trkpt lat="45.41067" lon="5.62449">
        <ele>689.3</ele>
        <time>2016-05-21T11:11:46Z</time>
      </trkpt>
      <trkpt lat="45.41056" lon="5.62436">
        <ele>689.3</ele>
        <time>2016-05-21T11:11:47Z</time>
      </trkpt>
      <trkpt lat="45.41047" lon="5.6242">
        <ele>689</ele>
        <time>2016-05-21T11:11:48Z</time>
      </trkpt>
      <trkpt lat="45.41039" lon="5.62404">
        <ele>687.4</ele>
        <time>2016-05-21T11:11:49Z</time>
      </trkpt>
      <trkpt lat="45.4103" lon="5.62391">
        <ele>686.8</ele>
        <time>2016-05-21T11:11:50Z</time>
      </trkpt>
      <trkpt lat="45.41023" lon="5.62378">
        <ele>686.3</ele>
        <time>2016-05-21T11:11:51Z</time>
      </trkpt>
      <trkpt lat="45.41016" lon="5.62364">
        <ele>684.2</ele>
        <time>2016-05-21T11:11:52Z</time>
      </trkpt>
      <trkpt lat="45.4101" lon="5.62352">
        <ele>681.2</ele>
        <time>2016-05-21T11:11:53Z</time>
      </trkpt>
      <trkpt lat="45.41005" lon="5.6234">
        <ele>677.9</ele>
        <time>2016-05-21T11:11:54Z</time>
      </trkpt>
      <trkpt lat="45.41002" lon="5.62326">
        <ele>676</ele>
        <time>2016-05-21T11:11:55Z</time>
      </trkpt>
      <trkpt lat="45.40999" lon="5.62312">
        <ele>673.6</ele>
        <time>2016-05-21T11:11:56Z</time>
      </trkpt>
      <trkpt lat="45.40997" lon="5.62299">
        <ele>671.9</ele>
        <time>2016-05-21T11:11:58Z</time>
      </trkpt>
      <trkpt lat="45.40994" lon="5.62285">
        <ele>670.7</ele>
        <time>2016-05-21T11:11:58Z</time>
      </trkpt>
      <trkpt lat="45.40991" lon="5.62273">
        <ele>669.7</ele>
        <time>2016-05-21T11:11:59Z</time>
      </trkpt>
      <trkpt lat="45.40987" lon="5.6226">
        <ele>670</ele>
        <time>2016-05-21T11:12:00Z</time>
      </trkpt>
      <trkpt lat="45.40983" lon="5.62248">
        <ele>670.6</ele>
        <time>2016-05-21T11:12:01Z</time>
      </trkpt>
      <trkpt lat="45.4098" lon="5.62236">
        <ele>670.6</ele>
        <time>2016-05-21T11:12:02Z</time>
      </trkpt>
      <trkpt lat="45.40976" lon="5.62221">
        <ele>672</ele>
        <time>2016-05-21T11:12:03Z</time>
      </trkpt>
      <trkpt lat="45.40972" lon="5.62206">
        <ele>672.7</ele>
        <time>2016-05-21T11:12:04Z</time>
      </trkpt>
      <trkpt lat="45.40969" lon="5.62191">
        <ele>672.4</ele>
        <time>2016-05-21T11:12:05Z</time>
      </trkpt>
      <trkpt lat="45.40965" lon="5.62175">
        <ele>671.9</ele>
        <time>2016-05-21T11:12:06Z</time>
      </trkpt>
      <trkpt lat="45.40961" lon="5.62159">
        <ele>670.8</ele>
        <time>2016-05-21T11:12:07Z</time>
      </trkpt>
      <trkpt lat="45.40959" lon="5.62143">
        <ele>670</ele>
        <time>2016-05-21T11:12:08Z</time>
      </trkpt>
      <trkpt lat="45.40956" lon="5.62127">
        <ele>669</ele>
        <time>2016-05-21T11:12:09Z</time>
      </trkpt>
      <trkpt lat="45.40957" lon="5.62111">
        <ele>668.2</ele>
        <time>2016-05-21T11:12:10Z</time>
      </trkpt>
      <trkpt lat="45.40958" lon="5.62094">
        <ele>667.5</ele>
        <time>2016-05-21T11:12:11Z</time>
      </trkpt>
      <trkpt lat="45.40959" lon="5.62079">
        <ele>667.1</ele>
        <time>2016-05-21T11:12:12Z</time>
      </trkpt>
      <trkpt lat="45.4096" lon="5.62063">
        <ele>667.4</ele>
        <time>2016-05-21T11:12:13Z</time>
      </trkpt>
      <trkpt lat="45.4096" lon="5.62046">
        <ele>667.1</ele>
        <time>2016-05-21T11:12:14Z</time>
      </trkpt>
      <trkpt lat="45.40961" lon="5.6203">
        <ele>666.9</ele>
        <time>2016-05-21T11:12:15Z</time>
      </trkpt>
      <trkpt lat="45.40961" lon="5.62013">
        <ele>666.8</ele>
        <time>2016-05-21T11:12:16Z</time>
      </trkpt>
      <trkpt lat="45.4096" lon="5.61996">
        <ele>667.3</ele>
        <time>2016-05-21T11:12:17Z</time>
      </trkpt>
      <trkpt lat="45.40959" lon="5.61981">
        <ele>667.2</ele>
        <time>2016-05-21T11:12:18Z</time>
      </trkpt>
      <trkpt lat="45.40957" lon="5.61966">
        <ele>666.2</ele>
        <time>2016-05-21T11:12:19Z</time>
      </trkpt>
      <trkpt lat="45.40952" lon="5.6195">
        <ele>666.2</ele>
        <time>2016-05-21T11:12:20Z</time>
      </trkpt>
      <trkpt lat="45.40948" lon="5.61936">
        <ele>665.6</ele>
        <time>2016-05-21T11:12:21Z</time>
      </trkpt>
      <trkpt lat="45.40944" lon="5.61922">
        <ele>665.9</ele>
        <time>2016-05-21T11:12:22Z</time>
      </trkpt>
      <trkpt lat="45.40941" lon="5.61907">
        <ele>665.8</ele>
        <time>2016-05-21T11:12:23Z</time>
      </trkpt>
      <trkpt lat="45.40942" lon="5.6189">
        <ele>665.9</ele>
        <time>2016-05-21T11:12:24Z</time>
      </trkpt>
      <trkpt lat="45.40943" lon="5.61874">
        <ele>667</ele>
        <time>2016-05-21T11:12:25Z</time>
      </trkpt>
      <trkpt lat="45.40945" lon="5.61859">
        <ele>667.4</ele>
        <time>2016-05-21T11:12:26Z</time>
      </trkpt>
      <trkpt lat="45.40946" lon="5.61844">
        <ele>667.6</ele>
        <time>2016-05-21T11:12:27Z</time>
      </trkpt>
      <trkpt lat="45.40948" lon="5.61827">
        <ele>667.8</ele>
        <time>2016-05-21T11:12:28Z</time>
      </trkpt>
      <trkpt lat="45.4095" lon="5.6181">
        <ele>667.7</ele>
        <time>2016-05-21T11:12:29Z</time>
      </trkpt>
      <trkpt lat="45.40951" lon="5.61795">
        <ele>668.3</ele>
        <time>2016-05-21T11:12:30Z</time>
      </trkpt>
      <trkpt lat="45.40952" lon="5.61779">
        <ele>668.9</ele>
        <time>2016-05-21T11:12:31Z</time>
      </trkpt>
      <trkpt lat="45.40953" lon="5.61763">
        <ele>669.3</ele>
        <time>2016-05-21T11:12:32Z</time>
      </trkpt>
      <trkpt lat="45.40953" lon="5.61747">
        <ele>669</ele>
        <time>2016-05-21T11:12:33Z</time>
      </trkpt>
      <trkpt lat="45.40955" lon="5.6173">
        <ele>669.2</ele>
        <time>2016-05-21T11:12:34Z</time>
      </trkpt>
      <trkpt lat="45.40956" lon="5.61714">
        <ele>669.8</ele>
        <time>2016-05-21T11:12:35Z</time>
      </trkpt>
      <trkpt lat="45.40956" lon="5.61699">
        <ele>669.7</ele>
        <time>2016-05-21T11:12:36Z</time>
      </trkpt>
      <trkpt lat="45.40956" lon="5.61682">
        <ele>670.9</ele>
        <time>2016-05-21T11:12:37Z</time>
      </trkpt>
      <trkpt lat="45.40956" lon="5.61665">
        <ele>672.2</ele>
        <time>2016-05-21T11:12:38Z</time>
      </trkpt>
      <trkpt lat="45.40956" lon="5.61647">
        <ele>672.6</ele>
        <time>2016-05-21T11:12:39Z</time>
      </trkpt>
      <trkpt lat="45.40957" lon="5.6163">
        <ele>672.6</ele>
        <time>2016-05-21T11:12:40Z</time>
      </trkpt>
      <trkpt lat="45.40957" lon="5.61616">
        <ele>672.7</ele>
        <time>2016-05-21T11:12:41Z</time>
      </trkpt>
      <trkpt lat="45.40957" lon="5.61602">
        <ele>672.9</ele>
        <time>2016-05-21T11:12:42Z</time>
      </trkpt>
      <trkpt lat="45.40956" lon="5.61587">
        <ele>672.8</ele>
        <time>2016-05-21T11:12:43Z</time>
      </trkpt>
      <trkpt lat="45.40952" lon="5.61575">
        <ele>671.7</ele>
        <time>2016-05-21T11:12:44Z</time>
      </trkpt>
      <trkpt lat="45.40948" lon="5.61561">
        <ele>671</ele>
        <time>2016-05-21T11:12:45Z</time>
      </trkpt>
      <trkpt lat="45.40944" lon="5.61548">
        <ele>668.8</ele>
        <time>2016-05-21T11:12:46Z</time>
      </trkpt>
      <trkpt lat="45.40941" lon="5.61534">
        <ele>666.8</ele>
        <time>2016-05-21T11:12:47Z</time>
      </trkpt>
      <trkpt lat="45.40937" lon="5.61523">
        <ele>665.5</ele>
        <time>2016-05-21T11:12:48Z</time>
      </trkpt>
      <trkpt lat="45.40937" lon="5.61506">
        <ele>663</ele>
        <time>2016-05-21T11:12:49Z</time>
      </trkpt>
      <trkpt lat="45.40938" lon="5.61487">
        <ele>660.9</ele>
        <time>2016-05-21T11:12:50Z</time>
      </trkpt>
      <trkpt lat="45.40943" lon="5.61469">
        <ele>659.3</ele>
        <time>2016-05-21T11:12:51Z</time>
      </trkpt>
      <trkpt lat="45.40948" lon="5.61453">
        <ele>658.6</ele>
        <time>2016-05-21T11:12:52Z</time>
      </trkpt>
      <trkpt lat="45.40951" lon="5.6144">
        <ele>657.8</ele>
        <time>2016-05-21T11:12:53Z</time>
      </trkpt>
      <trkpt lat="45.40954" lon="5.61426">
        <ele>656.1</ele>
        <time>2016-05-21T11:12:54Z</time>
      </trkpt>
      <trkpt lat="45.40958" lon="5.61412">
        <ele>654.2</ele>
        <time>2016-05-21T11:12:55Z</time>
      </trkpt>
      <trkpt lat="45.40961" lon="5.61396">
        <ele>652.2</ele>
        <time>2016-05-21T11:12:56Z</time>
      </trkpt>
      <trkpt lat="45.40965" lon="5.61381">
        <ele>650.8</ele>
        <time>2016-05-21T11:12:57Z</time>
      </trkpt>
      <trkpt lat="45.40967" lon="5.61367">
        <ele>650</ele>
        <time>2016-05-21T11:12:58Z</time>
      </trkpt>
      <trkpt lat="45.40967" lon="5.61351">
        <ele>649.6</ele>
        <time>2016-05-21T11:12:59Z</time>
      </trkpt>
      <trkpt lat="45.40968" lon="5.61336">
        <ele>649.3</ele>
        <time>2016-05-21T11:13:00Z</time>
      </trkpt>
      <trkpt lat="45.40967" lon="5.61321">
        <ele>649.8</ele>
        <time>2016-05-21T11:13:02Z</time>
      </trkpt>
      <trkpt lat="45.40965" lon="5.61308">
        <ele>650</ele>
        <time>2016-05-21T11:13:02Z</time>
      </trkpt>
      <trkpt lat="45.40964" lon="5.61294">
        <ele>650.2</ele>
        <time>2016-05-21T11:13:03Z</time>
      </trkpt>
      <trkpt lat="45.40963" lon="5.61279">
        <ele>650.1</ele>
        <time>2016-05-21T11:13:04Z</time>
      </trkpt>
      <trkpt lat="45.40962" lon="5.61262">
        <ele>649.6</ele>
        <time>2016-05-21T11:13:05Z</time>
      </trkpt>
      <trkpt lat="45.40962" lon="5.61245">
        <ele>650.1</ele>
        <time>2016-05-21T11:13:06Z</time>
      </trkpt>
      <trkpt lat="45.40962" lon="5.61231">
        <ele>648.9</ele>
        <time>2016-05-21T11:13:07Z</time>
      </trkpt>
      <trkpt lat="45.40963" lon="5.61217">
        <ele>648.5</ele>
        <time>2016-05-21T11:13:08Z</time>
      </trkpt>
      <trkpt lat="45.40964" lon="5.61201">
        <ele>647.5</ele>
        <time>2016-05-21T11:13:09Z</time>
      </trkpt>
      <trkpt lat="45.40965" lon="5.61185">
        <ele>646.9</ele>
        <time>2016-05-21T11:13:10Z</time>
      </trkpt>
      <trkpt lat="45.40967" lon="5.6117">
        <ele>647</ele>
        <time>2016-05-21T11:13:11Z</time>
      </trkpt>
      <trkpt lat="45.4097" lon="5.61155">
        <ele>646.4</ele>
        <time>2016-05-21T11:13:12Z</time>
      </trkpt>
      <trkpt lat="45.40973" lon="5.61139">
        <ele>644.5</ele>
        <time>2016-05-21T11:13:13Z</time>
      </trkpt>
      <trkpt lat="45.40976" lon="5.61124">
        <ele>643.2</ele>
        <time>2016-05-21T11:13:14Z</time>
      </trkpt>
      <trkpt lat="45.40979" lon="5.61109">
        <ele>642.6</ele>
        <time>2016-05-21T11:13:15Z</time>
      </trkpt>
      <trkpt lat="45.40982" lon="5.61096">
        <ele>642.4</ele>
        <time>2016-05-21T11:13:16Z</time>
      </trkpt>
      <trkpt lat="45.40987" lon="5.6108">
        <ele>641.7</ele>
        <time>2016-05-21T11:13:17Z</time>
      </trkpt>
      <trkpt lat="45.40993" lon="5.61064">
        <ele>642.2</ele>
        <time>2016-05-21T11:13:18Z</time>
      </trkpt>
      <trkpt lat="45.41" lon="5.6105">
        <ele>641.9</ele>
        <time>2016-05-21T11:13:19Z</time>
      </trkpt>
      <trkpt lat="45.41008" lon="5.61039">
        <ele>642.9</ele>
        <time>2016-05-21T11:13:20Z</time>
      </trkpt>
      <trkpt lat="45.41018" lon="5.61029">
        <ele>643.9</ele>
        <time>2016-05-21T11:13:21Z</time>
      </trkpt>
      <trkpt lat="45.41028" lon="5.6102">
        <ele>644</ele>
        <time>2016-05-21T11:13:22Z</time>
      </trkpt>
      <trkpt lat="45.41039" lon="5.6101">
        <ele>643.1</ele>
        <time>2016-05-21T11:13:23Z</time>
      </trkpt>
      <trkpt lat="45.4105" lon="5.61">
        <ele>641.7</ele>
        <time>2016-05-21T11:13:24Z</time>
      </trkpt>
      <trkpt lat="45.41059" lon="5.6099">
        <ele>640.6</ele>
        <time>2016-05-21T11:13:25Z</time>
      </trkpt>
      <trkpt lat="45.41066" lon="5.6098">
        <ele>638.9</ele>
        <time>2016-05-21T11:13:26Z</time>
      </trkpt>
      <trkpt lat="45.41075" lon="5.60969">
        <ele>637.5</ele>
        <time>2016-05-21T11:13:27Z</time>
      </trkpt>
      <trkpt lat="45.41083" lon="5.60958">
        <ele>635.7</ele>
        <time>2016-05-21T11:13:28Z</time>
      </trkpt>
      <trkpt lat="45.41091" lon="5.60948">
        <ele>634.2</ele>
        <time>2016-05-21T11:13:29Z</time>
      </trkpt>
      <trkpt lat="45.41098" lon="5.60938">
        <ele>632.7</ele>
        <time>2016-05-21T11:13:30Z</time>
      </trkpt>
      <trkpt lat="45.41106" lon="5.60927">
        <ele>631.6</ele>
        <time>2016-05-21T11:13:31Z</time>
      </trkpt>
      <trkpt lat="45.41113" lon="5.60918">
        <ele>630.7</ele>
        <time>2016-05-21T11:13:32Z</time>
      </trkpt>
      <trkpt lat="45.4112" lon="5.60909">
        <ele>630.3</ele>
        <time>2016-05-21T11:13:33Z</time>
      </trkpt>
      <trkpt lat="45.41126" lon="5.60901">
        <ele>630.5</ele>
        <time>2016-05-21T11:13:34Z</time>
      </trkpt>
      <trkpt lat="45.41132" lon="5.60891">
        <ele>630.3</ele>
        <time>2016-05-21T11:13:35Z</time>
      </trkpt>
      <trkpt lat="45.41134" lon="5.60876">
        <ele>629.7</ele>
        <time>2016-05-21T11:13:36Z</time>
      </trkpt>
      <trkpt lat="45.41131" lon="5.6086">
        <ele>628.9</ele>
        <time>2016-05-21T11:13:37Z</time>
      </trkpt>
      <trkpt lat="45.41123" lon="5.60846">
        <ele>627.8</ele>
        <time>2016-05-21T11:13:38Z</time>
      </trkpt>
      <trkpt lat="45.41112" lon="5.60835">
        <ele>626.2</ele>
        <time>2016-05-21T11:13:39Z</time>
      </trkpt>
      <trkpt lat="45.411" lon="5.60832">
        <ele>625</ele>
        <time>2016-05-21T11:13:40Z</time>
      </trkpt>
      <trkpt lat="45.4109" lon="5.60821">
        <ele>624.4</ele>
        <time>2016-05-21T11:13:41Z</time>
      </trkpt>
      <trkpt lat="45.41083" lon="5.60805">
        <ele>622.8</ele>
        <time>2016-05-21T11:13:42Z</time>
      </trkpt>
      <trkpt lat="45.41077" lon="5.60792">
        <ele>621.4</ele>
        <time>2016-05-21T11:13:43Z</time>
      </trkpt>
      <trkpt lat="45.41072" lon="5.60781">
        <ele>619.3</ele>
        <time>2016-05-21T11:13:44Z</time>
      </trkpt>
      <trkpt lat="45.41071" lon="5.6077">
        <ele>618</ele>
        <time>2016-05-21T11:13:45Z</time>
      </trkpt>
      <trkpt lat="45.4107" lon="5.60758">
        <ele>616.7</ele>
        <time>2016-05-21T11:13:46Z</time>
      </trkpt>
      <trkpt lat="45.41069" lon="5.60746">
        <ele>615.6</ele>
        <time>2016-05-21T11:13:47Z</time>
      </trkpt>
      <trkpt lat="45.41067" lon="5.60735">
        <ele>614.4</ele>
        <time>2016-05-21T11:13:48Z</time>
      </trkpt>
      <trkpt lat="45.41067" lon="5.60722">
        <ele>614.6</ele>
        <time>2016-05-21T11:13:49Z</time>
      </trkpt>
      <trkpt lat="45.41067" lon="5.60707">
        <ele>614.8</ele>
        <time>2016-05-21T11:13:50Z</time>
      </trkpt>
      <trkpt lat="45.41067" lon="5.60692">
        <ele>615.3</ele>
        <time>2016-05-21T11:13:51Z</time>
      </trkpt>
      <trkpt lat="45.41067" lon="5.60679">
        <ele>614.6</ele>
        <time>2016-05-21T11:13:52Z</time>
      </trkpt>
      <trkpt lat="45.41068" lon="5.60664">
        <ele>614.3</ele>
        <time>2016-05-21T11:13:53Z</time>
      </trkpt>
      <trkpt lat="45.41069" lon="5.60648">
        <ele>613.4</ele>
        <time>2016-05-21T11:13:54Z</time>
      </trkpt>
      <trkpt lat="45.4107" lon="5.60632">
        <ele>612.6</ele>
        <time>2016-05-21T11:13:55Z</time>
      </trkpt>
      <trkpt lat="45.41071" lon="5.60617">
        <ele>610.9</ele>
        <time>2016-05-21T11:13:56Z</time>
      </trkpt>
      <trkpt lat="45.41071" lon="5.60601">
        <ele>610.2</ele>
        <time>2016-05-21T11:13:57Z</time>
      </trkpt>
      <trkpt lat="45.41072" lon="5.60588">
        <ele>609</ele>
        <time>2016-05-21T11:13:58Z</time>
      </trkpt>
      <trkpt lat="45.41072" lon="5.60573">
        <ele>607.7</ele>
        <time>2016-05-21T11:13:59Z</time>
      </trkpt>
      <trkpt lat="45.41071" lon="5.60558">
        <ele>606.9</ele>
        <time>2016-05-21T11:14:00Z</time>
      </trkpt>
      <trkpt lat="45.41071" lon="5.60543">
        <ele>606.5</ele>
        <time>2016-05-21T11:14:01Z</time>
      </trkpt>
      <trkpt lat="45.41069" lon="5.60528">
        <ele>605.7</ele>
        <time>2016-05-21T11:14:02Z</time>
      </trkpt>
      <trkpt lat="45.41067" lon="5.60514">
        <ele>606.6</ele>
        <time>2016-05-21T11:14:03Z</time>
      </trkpt>
      <trkpt lat="45.41065" lon="5.60499">
        <ele>607.4</ele>
        <time>2016-05-21T11:14:04Z</time>
      </trkpt>
      <trkpt lat="45.41063" lon="5.60483">
        <ele>607.8</ele>
        <time>2016-05-21T11:14:05Z</time>
      </trkpt>
      <trkpt lat="45.41061" lon="5.60467">
        <ele>608.2</ele>
        <time>2016-05-21T11:14:06Z</time>
      </trkpt>
      <trkpt lat="45.41059" lon="5.60451">
        <ele>608</ele>
        <time>2016-05-21T11:14:07Z</time>
      </trkpt>
      <trkpt lat="45.41057" lon="5.60435">
        <ele>608</ele>
        <time>2016-05-21T11:14:08Z</time>
      </trkpt>
      <trkpt lat="45.41054" lon="5.60419">
        <ele>608.2</ele>
        <time>2016-05-21T11:14:09Z</time>
      </trkpt>
      <trkpt lat="45.41052" lon="5.60404">
        <ele>609.3</ele>
        <time>2016-05-21T11:14:10Z</time>
      </trkpt>
      <trkpt lat="45.4105" lon="5.6039">
        <ele>609.6</ele>
        <time>2016-05-21T11:14:11Z</time>
      </trkpt>
      <trkpt lat="45.41047" lon="5.60373">
        <ele>610.2</ele>
        <time>2016-05-21T11:14:12Z</time>
      </trkpt>
      <trkpt lat="45.41045" lon="5.60358">
        <ele>610</ele>
        <time>2016-05-21T11:14:13Z</time>
      </trkpt>
      <trkpt lat="45.41042" lon="5.60343">
        <ele>609.6</ele>
        <time>2016-05-21T11:14:14Z</time>
      </trkpt>
      <trkpt lat="45.4104" lon="5.60325">
        <ele>610.1</ele>
        <time>2016-05-21T11:14:15Z</time>
      </trkpt>
      <trkpt lat="45.41039" lon="5.60311">
        <ele>611.6</ele>
        <time>2016-05-21T11:14:16Z</time>
      </trkpt>
      <trkpt lat="45.41038" lon="5.60295">
        <ele>613.3</ele>
        <time>2016-05-21T11:14:17Z</time>
      </trkpt>
      <trkpt lat="45.41038" lon="5.60279">
        <ele>614.3</ele>
        <time>2016-05-21T11:14:18Z</time>
      </trkpt>
      <trkpt lat="45.41036" lon="5.60265">
        <ele>614.6</ele>
        <time>2016-05-21T11:14:19Z</time>
      </trkpt>
      <trkpt lat="45.41033" lon="5.60251">
        <ele>614.5</ele>
        <time>2016-05-21T11:14:20Z</time>
      </trkpt>
      <trkpt lat="45.4103" lon="5.60237">
        <ele>615.4</ele>
        <time>2016-05-21T11:14:21Z</time>
      </trkpt>
      <trkpt lat="45.41028" lon="5.60223">
        <ele>615.9</ele>
        <time>2016-05-21T11:14:22Z</time>
      </trkpt>
      <trkpt lat="45.41024" lon="5.60213">
        <ele>614.9</ele>
        <time>2016-05-21T11:14:23Z</time>
      </trkpt>
      <trkpt lat="45.41014" lon="5.60197">
        <ele>612.1</ele>
        <time>2016-05-21T11:14:25Z</time>
      </trkpt>
      <trkpt lat="45.41006" lon="5.60189">
        <ele>612.9</ele>
        <time>2016-05-21T11:14:26Z</time>
      </trkpt>
      <trkpt lat="45.40997" lon="5.60181">
        <ele>614.2</ele>
        <time>2016-05-21T11:14:27Z</time>
      </trkpt>
      <trkpt lat="45.40988" lon="5.60171">
        <ele>614.7</ele>
        <time>2016-05-21T11:14:28Z</time>
      </trkpt>
      <trkpt lat="45.40979" lon="5.60162">
        <ele>614.5</ele>
        <time>2016-05-21T11:14:29Z</time>
      </trkpt>
      <trkpt lat="45.4097" lon="5.60151">
        <ele>613.5</ele>
        <time>2016-05-21T11:14:30Z</time>
      </trkpt>
      <trkpt lat="45.40963" lon="5.6014">
        <ele>613.2</ele>
        <time>2016-05-21T11:14:31Z</time>
      </trkpt>
      <trkpt lat="45.40955" lon="5.6013">
        <ele>612.9</ele>
        <time>2016-05-21T11:14:32Z</time>
      </trkpt>
      <trkpt lat="45.40948" lon="5.60119">
        <ele>612.9</ele>
        <time>2016-05-21T11:14:33Z</time>
      </trkpt>
      <trkpt lat="45.4094" lon="5.60106">
        <ele>612.4</ele>
        <time>2016-05-21T11:14:34Z</time>
      </trkpt>
      <trkpt lat="45.40931" lon="5.60096">
        <ele>611.9</ele>
        <time>2016-05-21T11:14:35Z</time>
      </trkpt>
      <trkpt lat="45.4092" lon="5.60091">
        <ele>611.4</ele>
        <time>2016-05-21T11:14:36Z</time>
      </trkpt>
      <trkpt lat="45.40911" lon="5.60082">
        <ele>611.1</ele>
        <time>2016-05-21T11:14:37Z</time>
      </trkpt>
      <trkpt lat="45.40901" lon="5.60073">
        <ele>611.2</ele>
        <time>2016-05-21T11:14:38Z</time>
      </trkpt>
      <trkpt lat="45.40893" lon="5.60066">
        <ele>610.8</ele>
        <time>2016-05-21T11:14:39Z</time>
      </trkpt>
      <trkpt lat="45.40883" lon="5.60061">
        <ele>610.4</ele>
        <time>2016-05-21T11:14:40Z</time>
      </trkpt>
      <trkpt lat="45.40873" lon="5.60055">
        <ele>609.4</ele>
        <time>2016-05-21T11:14:41Z</time>
      </trkpt>
      <trkpt lat="45.40863" lon="5.60049">
        <ele>608.6</ele>
        <time>2016-05-21T11:14:42Z</time>
      </trkpt>
      <trkpt lat="45.40851" lon="5.60044">
        <ele>606.3</ele>
        <time>2016-05-21T11:14:43Z</time>
      </trkpt>
      <trkpt lat="45.40838" lon="5.60039">
        <ele>604.3</ele>
        <time>2016-05-21T11:14:44Z</time>
      </trkpt>
      <trkpt lat="45.40825" lon="5.60035">
        <ele>603.3</ele>
        <time>2016-05-21T11:14:45Z</time>
      </trkpt>
      <trkpt lat="45.40813" lon="5.6003">
        <ele>601.9</ele>
        <time>2016-05-21T11:14:46Z</time>
      </trkpt>
      <trkpt lat="45.40801" lon="5.60028">
        <ele>600.9</ele>
        <time>2016-05-21T11:14:47Z</time>
      </trkpt>
      <trkpt lat="45.4079" lon="5.60028">
        <ele>600</ele>
        <time>2016-05-21T11:14:48Z</time>
      </trkpt>
      <trkpt lat="45.40779" lon="5.60028">
        <ele>599.8</ele>
        <time>2016-05-21T11:14:49Z</time>
      </trkpt>
      <trkpt lat="45.40766" lon="5.60028">
        <ele>599.5</ele>
        <time>2016-05-21T11:14:50Z</time>
      </trkpt>
      <trkpt lat="45.40755" lon="5.6003">
        <ele>598.9</ele>
        <time>2016-05-21T11:14:51Z</time>
      </trkpt>
      <trkpt lat="45.40744" lon="5.60029">
        <ele>599.1</ele>
        <time>2016-05-21T11:14:52Z</time>
      </trkpt>
      <trkpt lat="45.40733" lon="5.60025">
        <ele>599.4</ele>
        <time>2016-05-21T11:14:53Z</time>
      </trkpt>
      <trkpt lat="45.40723" lon="5.60021">
        <ele>599.8</ele>
        <time>2016-05-21T11:14:54Z</time>
      </trkpt>
      <trkpt lat="45.40712" lon="5.60013">
        <ele>600</ele>
        <time>2016-05-21T11:14:55Z</time>
      </trkpt>
      <trkpt lat="45.40704" lon="5.60003">
        <ele>598.9</ele>
        <time>2016-05-21T11:14:56Z</time>
      </trkpt>
      <trkpt lat="45.40697" lon="5.5999">
        <ele>597.9</ele>
        <time>2016-05-21T11:14:57Z</time>
      </trkpt>
      <trkpt lat="45.40691" lon="5.59978">
        <ele>597</ele>
        <time>2016-05-21T11:14:58Z</time>
      </trkpt>
      <trkpt lat="45.40685" lon="5.59967">
        <ele>596.3</ele>
        <time>2016-05-21T11:14:59Z</time>
      </trkpt>
      <trkpt lat="45.40671" lon="5.59943">
        <ele>593.3</ele>
        <time>2016-05-21T11:15:01Z</time>
      </trkpt>
      <trkpt lat="45.40664" lon="5.59931">
        <ele>591.4</ele>
        <time>2016-05-21T11:15:02Z</time>
      </trkpt>
      <trkpt lat="45.40656" lon="5.59917">
        <ele>590.1</ele>
        <time>2016-05-21T11:15:03Z</time>
      </trkpt>
      <trkpt lat="45.40647" lon="5.59904">
        <ele>589.6</ele>
        <time>2016-05-21T11:15:04Z</time>
      </trkpt>
      <trkpt lat="45.4064" lon="5.5989">
        <ele>589.6</ele>
        <time>2016-05-21T11:15:05Z</time>
      </trkpt>
      <trkpt lat="45.40632" lon="5.59877">
        <ele>589</ele>
        <time>2016-05-21T11:15:06Z</time>
      </trkpt>
      <trkpt lat="45.40624" lon="5.59866">
        <ele>587.8</ele>
        <time>2016-05-21T11:15:07Z</time>
      </trkpt>
      <trkpt lat="45.40616" lon="5.59855">
        <ele>586.8</ele>
        <time>2016-05-21T11:15:08Z</time>
      </trkpt>
      <trkpt lat="45.40608" lon="5.59845">
        <ele>586.2</ele>
        <time>2016-05-21T11:15:09Z</time>
      </trkpt>
      <trkpt lat="45.406" lon="5.59835">
        <ele>585.6</ele>
        <time>2016-05-21T11:15:10Z</time>
      </trkpt>
      <trkpt lat="45.4059" lon="5.59825">
        <ele>584.8</ele>
        <time>2016-05-21T11:15:11Z</time>
      </trkpt>
      <trkpt lat="45.40583" lon="5.59815">
        <ele>583.3</ele>
        <time>2016-05-21T11:15:12Z</time>
      </trkpt>
      <trkpt lat="45.40574" lon="5.59806">
        <ele>582.8</ele>
        <time>2016-05-21T11:15:13Z</time>
      </trkpt>
      <trkpt lat="45.40565" lon="5.59796">
        <ele>581.9</ele>
        <time>2016-05-21T11:15:14Z</time>
      </trkpt>
      <trkpt lat="45.40555" lon="5.59785">
        <ele>581.2</ele>
        <time>2016-05-21T11:15:15Z</time>
      </trkpt>
      <trkpt lat="45.40545" lon="5.59774">
        <ele>579.2</ele>
        <time>2016-05-21T11:15:16Z</time>
      </trkpt>
      <trkpt lat="45.40538" lon="5.5976">
        <ele>576.6</ele>
        <time>2016-05-21T11:15:17Z</time>
      </trkpt>
      <trkpt lat="45.40533" lon="5.59748">
        <ele>574.5</ele>
        <time>2016-05-21T11:15:18Z</time>
      </trkpt>
      <trkpt lat="45.40527" lon="5.59735">
        <ele>573</ele>
        <time>2016-05-21T11:15:19Z</time>
      </trkpt>
      <trkpt lat="45.40521" lon="5.59721">
        <ele>571.5</ele>
        <time>2016-05-21T11:15:20Z</time>
      </trkpt>
      <trkpt lat="45.40513" lon="5.5971">
        <ele>570.4</ele>
        <time>2016-05-21T11:15:21Z</time>
      </trkpt>
      <trkpt lat="45.40504" lon="5.59699">
        <ele>569.1</ele>
        <time>2016-05-21T11:15:22Z</time>
      </trkpt>
      <trkpt lat="45.40494" lon="5.59688">
        <ele>568.6</ele>
        <time>2016-05-21T11:15:23Z</time>
      </trkpt>
      <trkpt lat="45.40484" lon="5.59676">
        <ele>568</ele>
        <time>2016-05-21T11:15:24Z</time>
      </trkpt>
      <trkpt lat="45.40476" lon="5.59665">
        <ele>567.1</ele>
        <time>2016-05-21T11:15:25Z</time>
      </trkpt>
      <trkpt lat="45.4047" lon="5.59658">
        <ele>567</ele>
        <time>2016-05-21T11:15:26Z</time>
      </trkpt>
      <trkpt lat="45.40462" lon="5.5965">
        <ele>567</ele>
        <time>2016-05-21T11:15:27Z</time>
      </trkpt>
      <trkpt lat="45.40451" lon="5.59647">
        <ele>567.4</ele>
        <time>2016-05-21T11:15:28Z</time>
      </trkpt>
      <trkpt lat="45.4044" lon="5.59643">
        <ele>567.4</ele>
        <time>2016-05-21T11:15:29Z</time>
      </trkpt>
      <trkpt lat="45.40428" lon="5.59642">
        <ele>568.3</ele>
        <time>2016-05-21T11:15:30Z</time>
      </trkpt>
      <trkpt lat="45.40416" lon="5.59643">
        <ele>568.5</ele>
        <time>2016-05-21T11:15:31Z</time>
      </trkpt>
      <trkpt lat="45.40406" lon="5.59644">
        <ele>567.8</ele>
        <time>2016-05-21T11:15:32Z</time>
      </trkpt>
      <trkpt lat="45.40396" lon="5.59647">
        <ele>566.4</ele>
        <time>2016-05-21T11:15:33Z</time>
      </trkpt>
      <trkpt lat="45.40386" lon="5.59648">
        <ele>565.7</ele>
        <time>2016-05-21T11:15:34Z</time>
      </trkpt>
      <trkpt lat="45.40376" lon="5.59648">
        <ele>565.2</ele>
        <time>2016-05-21T11:15:35Z</time>
      </trkpt>
      <trkpt lat="45.40366" lon="5.59646">
        <ele>565.6</ele>
        <time>2016-05-21T11:15:36Z</time>
      </trkpt>
      <trkpt lat="45.40358" lon="5.59643">
        <ele>565.4</ele>
        <time>2016-05-21T11:15:37Z</time>
      </trkpt>
      <trkpt lat="45.40349" lon="5.59639">
        <ele>565.4</ele>
        <time>2016-05-21T11:15:38Z</time>
      </trkpt>
      <trkpt lat="45.40341" lon="5.59633">
        <ele>565.5</ele>
        <time>2016-05-21T11:15:39Z</time>
      </trkpt>
      <trkpt lat="45.40334" lon="5.59627">
        <ele>565.7</ele>
        <time>2016-05-21T11:15:40Z</time>
      </trkpt>
      <trkpt lat="45.40325" lon="5.5962">
        <ele>565.9</ele>
        <time>2016-05-21T11:15:41Z</time>
      </trkpt>
      <trkpt lat="45.40317" lon="5.5961">
        <ele>566.4</ele>
        <time>2016-05-21T11:15:42Z</time>
      </trkpt>
      <trkpt lat="45.4031" lon="5.59599">
        <ele>566.3</ele>
        <time>2016-05-21T11:15:43Z</time>
      </trkpt>
      <trkpt lat="45.40302" lon="5.59589">
        <ele>565.5</ele>
        <time>2016-05-21T11:15:44Z</time>
      </trkpt>
      <trkpt lat="45.40294" lon="5.59578">
        <ele>565.3</ele>
        <time>2016-05-21T11:15:45Z</time>
      </trkpt>
      <trkpt lat="45.40286" lon="5.59567">
        <ele>563.9</ele>
        <time>2016-05-21T11:15:46Z</time>
      </trkpt>
      <trkpt lat="45.40278" lon="5.59555">
        <ele>562.4</ele>
        <time>2016-05-21T11:15:47Z</time>
      </trkpt>
      <trkpt lat="45.4027" lon="5.59543">
        <ele>561.1</ele>
        <time>2016-05-21T11:15:48Z</time>
      </trkpt>
      <trkpt lat="45.40262" lon="5.59531">
        <ele>560.3</ele>
        <time>2016-05-21T11:15:49Z</time>
      </trkpt>
      <trkpt lat="45.40255" lon="5.59519">
        <ele>559.6</ele>
        <time>2016-05-21T11:15:50Z</time>
      </trkpt>
      <trkpt lat="45.40248" lon="5.59507">
        <ele>558.9</ele>
        <time>2016-05-21T11:15:51Z</time>
      </trkpt>
      <trkpt lat="45.40241" lon="5.59497">
        <ele>558.2</ele>
        <time>2016-05-21T11:15:52Z</time>
      </trkpt>
      <trkpt lat="45.40233" lon="5.59485">
        <ele>557.1</ele>
        <time>2016-05-21T11:15:53Z</time>
      </trkpt>
      <trkpt lat="45.40225" lon="5.59475">
        <ele>555.7</ele>
        <time>2016-05-21T11:15:54Z</time>
      </trkpt>
      <trkpt lat="45.40217" lon="5.59466">
        <ele>554.6</ele>
        <time>2016-05-21T11:15:55Z</time>
      </trkpt>
      <trkpt lat="45.4021" lon="5.59457">
        <ele>554.1</ele>
        <time>2016-05-21T11:15:56Z</time>
      </trkpt>
      <trkpt lat="45.40202" lon="5.59448">
        <ele>553</ele>
        <time>2016-05-21T11:15:57Z</time>
      </trkpt>
      <trkpt lat="45.40195" lon="5.59439">
        <ele>552.8</ele>
        <time>2016-05-21T11:15:58Z</time>
      </trkpt>
      <trkpt lat="45.40188" lon="5.5943">
        <ele>552.2</ele>
        <time>2016-05-21T11:15:59Z</time>
      </trkpt>
      <trkpt lat="45.4018" lon="5.5942">
        <ele>551.8</ele>
        <time>2016-05-21T11:16:00Z</time>
      </trkpt>
      <trkpt lat="45.40173" lon="5.5941">
        <ele>551.9</ele>
        <time>2016-05-21T11:16:01Z</time>
      </trkpt>
      <trkpt lat="45.40165" lon="5.594">
        <ele>551.9</ele>
        <time>2016-05-21T11:16:02Z</time>
      </trkpt>
      <trkpt lat="45.40157" lon="5.59391">
        <ele>551.7</ele>
        <time>2016-05-21T11:16:03Z</time>
      </trkpt>
      <trkpt lat="45.40148" lon="5.59382">
        <ele>551.1</ele>
        <time>2016-05-21T11:16:04Z</time>
      </trkpt>
      <trkpt lat="45.40139" lon="5.59374">
        <ele>550.4</ele>
        <time>2016-05-21T11:16:05Z</time>
      </trkpt>
      <trkpt lat="45.40131" lon="5.59369">
        <ele>549.2</ele>
        <time>2016-05-21T11:16:06Z</time>
      </trkpt>
      <trkpt lat="45.40122" lon="5.59363">
        <ele>549.4</ele>
        <time>2016-05-21T11:16:07Z</time>
      </trkpt>
      <trkpt lat="45.40114" lon="5.59357">
        <ele>549.7</ele>
        <time>2016-05-21T11:16:08Z</time>
      </trkpt>
      <trkpt lat="45.40106" lon="5.59352">
        <ele>550.2</ele>
        <time>2016-05-21T11:16:09Z</time>
      </trkpt>
      <trkpt lat="45.40097" lon="5.59345">
        <ele>550.2</ele>
        <time>2016-05-21T11:16:10Z</time>
      </trkpt>
      <trkpt lat="45.40087" lon="5.59339">
        <ele>550.8</ele>
        <time>2016-05-21T11:16:11Z</time>
      </trkpt>
      <trkpt lat="45.40077" lon="5.59333">
        <ele>551.2</ele>
        <time>2016-05-21T11:16:12Z</time>
      </trkpt>
      <trkpt lat="45.40068" lon="5.59327">
        <ele>551</ele>
        <time>2016-05-21T11:16:13Z</time>
      </trkpt>
      <trkpt lat="45.40059" lon="5.59322">
        <ele>550.3</ele>
        <time>2016-05-21T11:16:14Z</time>
      </trkpt>
      <trkpt lat="45.40052" lon="5.59312">
        <ele>549.6</ele>
        <time>2016-05-21T11:16:15Z</time>
      </trkpt>
      <trkpt lat="45.40045" lon="5.59302">
        <ele>548.6</ele>
        <time>2016-05-21T11:16:16Z</time>
      </trkpt>
      <trkpt lat="45.40041" lon="5.59293">
        <ele>547.5</ele>
        <time>2016-05-21T11:16:17Z</time>
      </trkpt>
      <trkpt lat="45.40032" lon="5.59279">
        <ele>546.1</ele>
        <time>2016-05-21T11:16:19Z</time>
      </trkpt>
      <trkpt lat="45.40023" lon="5.5927">
        <ele>544.1</ele>
        <time>2016-05-21T11:16:21Z</time>
      </trkpt>
      <trkpt lat="45.40012" lon="5.59271">
        <ele>543.7</ele>
        <time>2016-05-21T11:16:23Z</time>
      </trkpt>
      <trkpt lat="45.40003" lon="5.59281">
        <ele>544.4</ele>
        <time>2016-05-21T11:16:25Z</time>
      </trkpt>
      <trkpt lat="45.40002" lon="5.59297">
        <ele>545</ele>
        <time>2016-05-21T11:16:27Z</time>
      </trkpt>
      <trkpt lat="45.40002" lon="5.59316">
        <ele>544.6</ele>
        <time>2016-05-21T11:16:29Z</time>
      </trkpt>
      <trkpt lat="45.4" lon="5.59333">
        <ele>544.9</ele>
        <time>2016-05-21T11:16:31Z</time>
      </trkpt>
      <trkpt lat="45.39997" lon="5.59348">
        <ele>544.8</ele>
        <time>2016-05-21T11:16:33Z</time>
      </trkpt>
      <trkpt lat="45.39994" lon="5.59359">
        <ele>544.6</ele>
        <time>2016-05-21T11:16:34Z</time>
      </trkpt>
      <trkpt lat="45.39991" lon="5.5937">
        <ele>545.7</ele>
        <time>2016-05-21T11:16:35Z</time>
      </trkpt>
      <trkpt lat="45.39988" lon="5.5938">
        <ele>546.4</ele>
        <time>2016-05-21T11:16:36Z</time>
      </trkpt>
      <trkpt lat="45.39985" lon="5.59392">
        <ele>546.5</ele>
        <time>2016-05-21T11:16:37Z</time>
      </trkpt>
      <trkpt lat="45.39982" lon="5.59402">
        <ele>547.1</ele>
        <time>2016-05-21T11:16:38Z</time>
      </trkpt>
      <trkpt lat="45.39979" lon="5.59415">
        <ele>547.5</ele>
        <time>2016-05-21T11:16:39Z</time>
      </trkpt>
      <trkpt lat="45.39976" lon="5.59429">
        <ele>547.6</ele>
        <time>2016-05-21T11:16:40Z</time>
      </trkpt>
      <trkpt lat="45.39974" lon="5.59443">
        <ele>547.1</ele>
        <time>2016-05-21T11:16:41Z</time>
      </trkpt>
      <trkpt lat="45.39972" lon="5.59457">
        <ele>546.7</ele>
        <time>2016-05-21T11:16:42Z</time>
      </trkpt>
      <trkpt lat="45.3997" lon="5.59471">
        <ele>546.3</ele>
        <time>2016-05-21T11:16:43Z</time>
      </trkpt>
      <trkpt lat="45.39968" lon="5.59484">
        <ele>545.6</ele>
        <time>2016-05-21T11:16:44Z</time>
      </trkpt>
      <trkpt lat="45.39967" lon="5.59496">
        <ele>545.4</ele>
        <time>2016-05-21T11:16:45Z</time>
      </trkpt>
      <trkpt lat="45.39966" lon="5.59507">
        <ele>545.6</ele>
        <time>2016-05-21T11:16:46Z</time>
      </trkpt>
      <trkpt lat="45.39966" lon="5.59518">
        <ele>545.9</ele>
        <time>2016-05-21T11:16:47Z</time>
      </trkpt>
      <trkpt lat="45.39965" lon="5.59529">
        <ele>546.2</ele>
        <time>2016-05-21T11:16:48Z</time>
      </trkpt>
      <trkpt lat="45.39965" lon="5.59541">
        <ele>546.6</ele>
        <time>2016-05-21T11:16:49Z</time>
      </trkpt>
      <trkpt lat="45.39965" lon="5.59553">
        <ele>547</ele>
        <time>2016-05-21T11:16:50Z</time>
      </trkpt>
      <trkpt lat="45.39965" lon="5.59564">
        <ele>547.5</ele>
        <time>2016-05-21T11:16:51Z</time>
      </trkpt>
      <trkpt lat="45.39965" lon="5.59575">
        <ele>547.7</ele>
        <time>2016-05-21T11:16:52Z</time>
      </trkpt>
      <trkpt lat="45.39964" lon="5.59586">
        <ele>547.9</ele>
        <time>2016-05-21T11:16:53Z</time>
      </trkpt>
      <trkpt lat="45.39965" lon="5.59596">
        <ele>548.1</ele>
        <time>2016-05-21T11:16:54Z</time>
      </trkpt>
      <trkpt lat="45.39965" lon="5.59608">
        <ele>548.2</ele>
        <time>2016-05-21T11:16:55Z</time>
      </trkpt>
      <trkpt lat="45.39965" lon="5.59621">
        <ele>548.5</ele>
        <time>2016-05-21T11:16:56Z</time>
      </trkpt>
      <trkpt lat="45.39965" lon="5.59632">
        <ele>548.5</ele>
        <time>2016-05-21T11:16:57Z</time>
      </trkpt>
      <trkpt lat="45.39965" lon="5.59643">
        <ele>548.2</ele>
        <time>2016-05-21T11:16:58Z</time>
      </trkpt>
      <trkpt lat="45.39965" lon="5.59655">
        <ele>547.7</ele>
        <time>2016-05-21T11:16:59Z</time>
      </trkpt>
      <trkpt lat="45.39965" lon="5.59666">
        <ele>547.2</ele>
        <time>2016-05-21T11:17:00Z</time>
      </trkpt>
      <trkpt lat="45.39965" lon="5.59676">
        <ele>546.8</ele>
        <time>2016-05-21T11:17:01Z</time>
      </trkpt>
      <trkpt lat="45.39965" lon="5.59688">
        <ele>546.2</ele>
        <time>2016-05-21T11:17:02Z</time>
      </trkpt>
      <trkpt lat="45.39966" lon="5.597">
        <ele>545.7</ele>
        <time>2016-05-21T11:17:03Z</time>
      </trkpt>
      <trkpt lat="45.39966" lon="5.59711">
        <ele>545.3</ele>
        <time>2016-05-21T11:17:04Z</time>
      </trkpt>
      <trkpt lat="45.39966" lon="5.59723">
        <ele>545</ele>
        <time>2016-05-21T11:17:05Z</time>
      </trkpt>
      <trkpt lat="45.39966" lon="5.59735">
        <ele>544.7</ele>
        <time>2016-05-21T11:17:06Z</time>
      </trkpt>
      <trkpt lat="45.39966" lon="5.59747">
        <ele>544.5</ele>
        <time>2016-05-21T11:17:07Z</time>
      </trkpt>
      <trkpt lat="45.39966" lon="5.59758">
        <ele>544.5</ele>
        <time>2016-05-21T11:17:08Z</time>
      </trkpt>
      <trkpt lat="45.39967" lon="5.59771">
        <ele>544.6</ele>
        <time>2016-05-21T11:17:09Z</time>
      </trkpt>
      <trkpt lat="45.39967" lon="5.59783">
        <ele>544.7</ele>
        <time>2016-05-21T11:17:10Z</time>
      </trkpt>
      <trkpt lat="45.39967" lon="5.59795">
        <ele>544.8</ele>
        <time>2016-05-21T11:17:11Z</time>
      </trkpt>
      <trkpt lat="45.39967" lon="5.59806">
        <ele>544.6</ele>
        <time>2016-05-21T11:17:12Z</time>
      </trkpt>
      <trkpt lat="45.39968" lon="5.59817">
        <ele>544.4</ele>
        <time>2016-05-21T11:17:13Z</time>
      </trkpt>
      <trkpt lat="45.39968" lon="5.59828">
        <ele>544.3</ele>
        <time>2016-05-21T11:17:14Z</time>
      </trkpt>
      <trkpt lat="45.39968" lon="5.5984">
        <ele>544.2</ele>
        <time>2016-05-21T11:17:15Z</time>
      </trkpt>
      <trkpt lat="45.3997" lon="5.59851">
        <ele>544.2</ele>
        <time>2016-05-21T11:17:16Z</time>
      </trkpt>
      <trkpt lat="45.39971" lon="5.59863">
        <ele>544.3</ele>
        <time>2016-05-21T11:17:17Z</time>
      </trkpt>
      <trkpt lat="45.39972" lon="5.59875">
        <ele>544.5</ele>
        <time>2016-05-21T11:17:18Z</time>
      </trkpt>
      <trkpt lat="45.39973" lon="5.59887">
        <ele>544.8</ele>
        <time>2016-05-21T11:17:19Z</time>
      </trkpt>
      <trkpt lat="45.39975" lon="5.59899">
        <ele>545.1</ele>
        <time>2016-05-21T11:17:20Z</time>
      </trkpt>
      <trkpt lat="45.39977" lon="5.59911">
        <ele>545.4</ele>
        <time>2016-05-21T11:17:21Z</time>
      </trkpt>
      <trkpt lat="45.39979" lon="5.59923">
        <ele>545.3</ele>
        <time>2016-05-21T11:17:22Z</time>
      </trkpt>
      <trkpt lat="45.39982" lon="5.59934">
        <ele>545.4</ele>
        <time>2016-05-21T11:17:23Z</time>
      </trkpt>
      <trkpt lat="45.39984" lon="5.59945">
        <ele>545.4</ele>
        <time>2016-05-21T11:17:24Z</time>
      </trkpt>
      <trkpt lat="45.39986" lon="5.59955">
        <ele>545.7</ele>
        <time>2016-05-21T11:17:25Z</time>
      </trkpt>
      <trkpt lat="45.39989" lon="5.59965">
        <ele>546.2</ele>
        <time>2016-05-21T11:17:26Z</time>
      </trkpt>
      <trkpt lat="45.39992" lon="5.59974">
        <ele>546.4</ele>
        <time>2016-05-21T11:17:27Z</time>
      </trkpt>
      <trkpt lat="45.39995" lon="5.59985">
        <ele>546.5</ele>
        <time>2016-05-21T11:17:29Z</time>
      </trkpt>
      <trkpt lat="45.39998" lon="5.59996">
        <ele>546.9</ele>
        <time>2016-05-21T11:17:29Z</time>
      </trkpt>
      <trkpt lat="45.40001" lon="5.60007">
        <ele>547.4</ele>
        <time>2016-05-21T11:17:30Z</time>
      </trkpt>
      <trkpt lat="45.40003" lon="5.60017">
        <ele>547.7</ele>
        <time>2016-05-21T11:17:31Z</time>
      </trkpt>
      <trkpt lat="45.40006" lon="5.60028">
        <ele>547.7</ele>
        <time>2016-05-21T11:17:32Z</time>
      </trkpt>
      <trkpt lat="45.40008" lon="5.60039">
        <ele>547.4</ele>
        <time>2016-05-21T11:17:33Z</time>
      </trkpt>
      <trkpt lat="45.40011" lon="5.60049">
        <ele>547.1</ele>
        <time>2016-05-21T11:17:34Z</time>
      </trkpt>
      <trkpt lat="45.40014" lon="5.6006">
        <ele>547.1</ele>
        <time>2016-05-21T11:17:35Z</time>
      </trkpt>
      <trkpt lat="45.40017" lon="5.6007">
        <ele>547.2</ele>
        <time>2016-05-21T11:17:36Z</time>
      </trkpt>
      <trkpt lat="45.40019" lon="5.6008">
        <ele>547.6</ele>
        <time>2016-05-21T11:17:37Z</time>
      </trkpt>
      <trkpt lat="45.40022" lon="5.60092">
        <ele>548.2</ele>
        <time>2016-05-21T11:17:38Z</time>
      </trkpt>
      <trkpt lat="45.40024" lon="5.60103">
        <ele>548.7</ele>
        <time>2016-05-21T11:17:39Z</time>
      </trkpt>
      <trkpt lat="45.40027" lon="5.60114">
        <ele>549</ele>
        <time>2016-05-21T11:17:40Z</time>
      </trkpt>
      <trkpt lat="45.40029" lon="5.60124">
        <ele>549.5</ele>
        <time>2016-05-21T11:17:41Z</time>
      </trkpt>
      <trkpt lat="45.40031" lon="5.60135">
        <ele>549.9</ele>
        <time>2016-05-21T11:17:42Z</time>
      </trkpt>
      <trkpt lat="45.40033" lon="5.60146">
        <ele>550.1</ele>
        <time>2016-05-21T11:17:43Z</time>
      </trkpt>
      <trkpt lat="45.40035" lon="5.60157">
        <ele>549.9</ele>
        <time>2016-05-21T11:17:44Z</time>
      </trkpt>
      <trkpt lat="45.40037" lon="5.60168">
        <ele>549.7</ele>
        <time>2016-05-21T11:17:45Z</time>
      </trkpt>
      <trkpt lat="45.40039" lon="5.6018">
        <ele>549.5</ele>
        <time>2016-05-21T11:17:46Z</time>
      </trkpt>
      <trkpt lat="45.4004" lon="5.60192">
        <ele>549.2</ele>
        <time>2016-05-21T11:17:47Z</time>
      </trkpt>
      <trkpt lat="45.40041" lon="5.60204">
        <ele>549.1</ele>
        <time>2016-05-21T11:17:48Z</time>
      </trkpt>
      <trkpt lat="45.40041" lon="5.60216">
        <ele>548.7</ele>
        <time>2016-05-21T11:17:49Z</time>
      </trkpt>
      <trkpt lat="45.4004" lon="5.60228">
        <ele>548.2</ele>
        <time>2016-05-21T11:17:50Z</time>
      </trkpt>
      <trkpt lat="45.40038" lon="5.60239">
        <ele>547.4</ele>
        <time>2016-05-21T11:17:51Z</time>
      </trkpt>
      <trkpt lat="45.40034" lon="5.60249">
        <ele>546.6</ele>
        <time>2016-05-21T11:17:52Z</time>
      </trkpt>
      <trkpt lat="45.4003" lon="5.6026">
        <ele>545.8</ele>
        <time>2016-05-21T11:17:53Z</time>
      </trkpt>
      <trkpt lat="45.40026" lon="5.60271">
        <ele>546.2</ele>
        <time>2016-05-21T11:17:54Z</time>
      </trkpt>
      <trkpt lat="45.40021" lon="5.60281">
        <ele>546.7</ele>
        <time>2016-05-21T11:17:55Z</time>
      </trkpt>
      <trkpt lat="45.40016" lon="5.60291">
        <ele>547.8</ele>
        <time>2016-05-21T11:17:56Z</time>
      </trkpt>
      <trkpt lat="45.40012" lon="5.60301">
        <ele>548</ele>
        <time>2016-05-21T11:17:57Z</time>
      </trkpt>
      <trkpt lat="45.40008" lon="5.60312">
        <ele>548.6</ele>
        <time>2016-05-21T11:17:58Z</time>
      </trkpt>
      <trkpt lat="45.40003" lon="5.60322">
        <ele>549.3</ele>
        <time>2016-05-21T11:17:59Z</time>
      </trkpt>
      <trkpt lat="45.39999" lon="5.60332">
        <ele>549.8</ele>
        <time>2016-05-21T11:18:00Z</time>
      </trkpt>
      <trkpt lat="45.39995" lon="5.60342">
        <ele>549.7</ele>
        <time>2016-05-21T11:18:01Z</time>
      </trkpt>
      <trkpt lat="45.39991" lon="5.60352">
        <ele>549.9</ele>
        <time>2016-05-21T11:18:02Z</time>
      </trkpt>
      <trkpt lat="45.39986" lon="5.60363">
        <ele>549.8</ele>
        <time>2016-05-21T11:18:03Z</time>
      </trkpt>
      <trkpt lat="45.39982" lon="5.60373">
        <ele>549.8</ele>
        <time>2016-05-21T11:18:04Z</time>
      </trkpt>
      <trkpt lat="45.39978" lon="5.60383">
        <ele>549.7</ele>
        <time>2016-05-21T11:18:05Z</time>
      </trkpt>
      <trkpt lat="45.39974" lon="5.60392">
        <ele>549.4</ele>
        <time>2016-05-21T11:18:06Z</time>
      </trkpt>
      <trkpt lat="45.3997" lon="5.60402">
        <ele>549.3</ele>
        <time>2016-05-21T11:18:07Z</time>
      </trkpt>
      <trkpt lat="45.39965" lon="5.60411">
        <ele>549.1</ele>
        <time>2016-05-21T11:18:08Z</time>
      </trkpt>
      <trkpt lat="45.39961" lon="5.60421">
        <ele>549.2</ele>
        <time>2016-05-21T11:18:09Z</time>
      </trkpt>
      <trkpt lat="45.39956" lon="5.60429">
        <ele>549.3</ele>
        <time>2016-05-21T11:18:10Z</time>
      </trkpt>
      <trkpt lat="45.39947" lon="5.60446">
        <ele>548.2</ele>
        <time>2016-05-21T11:18:12Z</time>
      </trkpt>
      <trkpt lat="45.39943" lon="5.60454">
        <ele>547.3</ele>
        <time>2016-05-21T11:18:13Z</time>
      </trkpt>
      <trkpt lat="45.39939" lon="5.60463">
        <ele>546.8</ele>
        <time>2016-05-21T11:18:14Z</time>
      </trkpt>
      <trkpt lat="45.39935" lon="5.60472">
        <ele>546.5</ele>
        <time>2016-05-21T11:18:15Z</time>
      </trkpt>
      <trkpt lat="45.39929" lon="5.60488">
        <ele>546.7</ele>
        <time>2016-05-21T11:18:17Z</time>
      </trkpt>
      <trkpt lat="45.39921" lon="5.60505">
        <ele>547</ele>
        <time>2016-05-21T11:18:19Z</time>
      </trkpt>
      <trkpt lat="45.39916" lon="5.60514">
        <ele>547.2</ele>
        <time>2016-05-21T11:18:20Z</time>
      </trkpt>
      <trkpt lat="45.39912" lon="5.60522">
        <ele>547</ele>
        <time>2016-05-21T11:18:21Z</time>
      </trkpt>
      <trkpt lat="45.39907" lon="5.60531">
        <ele>547</ele>
        <time>2016-05-21T11:18:22Z</time>
      </trkpt>
      <trkpt lat="45.39902" lon="5.60539">
        <ele>547</ele>
        <time>2016-05-21T11:18:23Z</time>
      </trkpt>
      <trkpt lat="45.39898" lon="5.60548">
        <ele>546.3</ele>
        <time>2016-05-21T11:18:24Z</time>
      </trkpt>
      <trkpt lat="45.39892" lon="5.60567">
        <ele>545.9</ele>
        <time>2016-05-21T11:18:26Z</time>
      </trkpt>
      <trkpt lat="45.3989" lon="5.60577">
        <ele>545.3</ele>
        <time>2016-05-21T11:18:27Z</time>
      </trkpt>
      <trkpt lat="45.39887" lon="5.60596">
        <ele>544.4</ele>
        <time>2016-05-21T11:18:29Z</time>
      </trkpt>
      <trkpt lat="45.39884" lon="5.60613">
        <ele>543.4</ele>
        <time>2016-05-21T11:18:31Z</time>
      </trkpt>
      <trkpt lat="45.39881" lon="5.6063">
        <ele>543</ele>
        <time>2016-05-21T11:18:33Z</time>
      </trkpt>
      <trkpt lat="45.3988" lon="5.6064">
        <ele>542.8</ele>
        <time>2016-05-21T11:18:34Z</time>
      </trkpt>
      <trkpt lat="45.39878" lon="5.6065">
        <ele>542.4</ele>
        <time>2016-05-21T11:18:35Z</time>
      </trkpt>
      <trkpt lat="45.39877" lon="5.60661">
        <ele>542.1</ele>
        <time>2016-05-21T11:18:36Z</time>
      </trkpt>
      <trkpt lat="45.39874" lon="5.60682">
        <ele>541.8</ele>
        <time>2016-05-21T11:18:38Z</time>
      </trkpt>
      <trkpt lat="45.39872" lon="5.60692">
        <ele>541.2</ele>
        <time>2016-05-21T11:18:39Z</time>
      </trkpt>
      <trkpt lat="45.3987" lon="5.60704">
        <ele>541</ele>
        <time>2016-05-21T11:18:40Z</time>
      </trkpt>
      <trkpt lat="45.39869" lon="5.60716">
        <ele>541.5</ele>
        <time>2016-05-21T11:18:41Z</time>
      </trkpt>
      <trkpt lat="45.39867" lon="5.60727">
        <ele>542.2</ele>
        <time>2016-05-21T11:18:42Z</time>
      </trkpt>
      <trkpt lat="45.39866" lon="5.60739">
        <ele>542.5</ele>
        <time>2016-05-21T11:18:43Z</time>
      </trkpt>
      <trkpt lat="45.39864" lon="5.60752">
        <ele>542.8</ele>
        <time>2016-05-21T11:18:44Z</time>
      </trkpt>
      <trkpt lat="45.39863" lon="5.60763">
        <ele>542.8</ele>
        <time>2016-05-21T11:18:45Z</time>
      </trkpt>
      <trkpt lat="45.39861" lon="5.60774">
        <ele>542.5</ele>
        <time>2016-05-21T11:18:46Z</time>
      </trkpt>
      <trkpt lat="45.39859" lon="5.60785">
        <ele>541.9</ele>
        <time>2016-05-21T11:18:47Z</time>
      </trkpt>
      <trkpt lat="45.39856" lon="5.60797">
        <ele>541.6</ele>
        <time>2016-05-21T11:18:48Z</time>
      </trkpt>
      <trkpt lat="45.39851" lon="5.60806">
        <ele>541.6</ele>
        <time>2016-05-21T11:18:49Z</time>
      </trkpt>
      <trkpt lat="45.39846" lon="5.60815">
        <ele>541.8</ele>
        <time>2016-05-21T11:18:50Z</time>
      </trkpt>
      <trkpt lat="45.39841" lon="5.60825">
        <ele>542</ele>
        <time>2016-05-21T11:18:51Z</time>
      </trkpt>
      <trkpt lat="45.39835" lon="5.60835">
        <ele>542.1</ele>
        <time>2016-05-21T11:18:52Z</time>
      </trkpt>
      <trkpt lat="45.39829" lon="5.60844">
        <ele>541.9</ele>
        <time>2016-05-21T11:18:53Z</time>
      </trkpt>
      <trkpt lat="45.39823" lon="5.60854">
        <ele>541.6</ele>
        <time>2016-05-21T11:18:54Z</time>
      </trkpt>
      <trkpt lat="45.39817" lon="5.60864">
        <ele>541.3</ele>
        <time>2016-05-21T11:18:55Z</time>
      </trkpt>
      <trkpt lat="45.39811" lon="5.60873">
        <ele>540.9</ele>
        <time>2016-05-21T11:18:56Z</time>
      </trkpt>
      <trkpt lat="45.39804" lon="5.60884">
        <ele>540.2</ele>
        <time>2016-05-21T11:18:57Z</time>
      </trkpt>
      <trkpt lat="45.39799" lon="5.60894">
        <ele>539.5</ele>
        <time>2016-05-21T11:18:58Z</time>
      </trkpt>
      <trkpt lat="45.39794" lon="5.60904">
        <ele>539</ele>
        <time>2016-05-21T11:18:59Z</time>
      </trkpt>
      <trkpt lat="45.39788" lon="5.60916">
        <ele>538.4</ele>
        <time>2016-05-21T11:19:00Z</time>
      </trkpt>
      <trkpt lat="45.39783" lon="5.60927">
        <ele>537.9</ele>
        <time>2016-05-21T11:19:01Z</time>
      </trkpt>
      <trkpt lat="45.39778" lon="5.60939">
        <ele>537.1</ele>
        <time>2016-05-21T11:19:02Z</time>
      </trkpt>
      <trkpt lat="45.39773" lon="5.60951">
        <ele>536.5</ele>
        <time>2016-05-21T11:19:03Z</time>
      </trkpt>
      <trkpt lat="45.39767" lon="5.60963">
        <ele>536.2</ele>
        <time>2016-05-21T11:19:04Z</time>
      </trkpt>
      <trkpt lat="45.39761" lon="5.60976">
        <ele>536</ele>
        <time>2016-05-21T11:19:05Z</time>
      </trkpt>
      <trkpt lat="45.39755" lon="5.60989">
        <ele>535.7</ele>
        <time>2016-05-21T11:19:06Z</time>
      </trkpt>
      <trkpt lat="45.3975" lon="5.61">
        <ele>535.4</ele>
        <time>2016-05-21T11:19:07Z</time>
      </trkpt>
      <trkpt lat="45.39744" lon="5.6101">
        <ele>535.1</ele>
        <time>2016-05-21T11:19:08Z</time>
      </trkpt>
      <trkpt lat="45.39737" lon="5.61021">
        <ele>534.7</ele>
        <time>2016-05-21T11:19:09Z</time>
      </trkpt>
      <trkpt lat="45.3973" lon="5.61032">
        <ele>534.7</ele>
        <time>2016-05-21T11:19:10Z</time>
      </trkpt>
      <trkpt lat="45.39722" lon="5.61042">
        <ele>534.5</ele>
        <time>2016-05-21T11:19:11Z</time>
      </trkpt>
      <trkpt lat="45.39715" lon="5.61051">
        <ele>534.1</ele>
        <time>2016-05-21T11:19:12Z</time>
      </trkpt>
      <trkpt lat="45.39707" lon="5.61062">
        <ele>534.5</ele>
        <time>2016-05-21T11:19:13Z</time>
      </trkpt>
      <trkpt lat="45.39699" lon="5.61072">
        <ele>534.4</ele>
        <time>2016-05-21T11:19:14Z</time>
      </trkpt>
      <trkpt lat="45.39691" lon="5.61084">
        <ele>533.9</ele>
        <time>2016-05-21T11:19:15Z</time>
      </trkpt>
      <trkpt lat="45.39683" lon="5.61096">
        <ele>533.2</ele>
        <time>2016-05-21T11:19:16Z</time>
      </trkpt>
      <trkpt lat="45.39676" lon="5.61109">
        <ele>533</ele>
        <time>2016-05-21T11:19:17Z</time>
      </trkpt>
      <trkpt lat="45.3967" lon="5.61121">
        <ele>532.3</ele>
        <time>2016-05-21T11:19:18Z</time>
      </trkpt>
      <trkpt lat="45.39663" lon="5.61133">
        <ele>532</ele>
        <time>2016-05-21T11:19:19Z</time>
      </trkpt>
      <trkpt lat="45.39656" lon="5.61145">
        <ele>531.5</ele>
        <time>2016-05-21T11:19:20Z</time>
      </trkpt>
      <trkpt lat="45.3965" lon="5.61156">
        <ele>531</ele>
        <time>2016-05-21T11:19:21Z</time>
      </trkpt>
      <trkpt lat="45.39644" lon="5.61167">
        <ele>531</ele>
        <time>2016-05-21T11:19:22Z</time>
      </trkpt>
      <trkpt lat="45.39638" lon="5.61179">
        <ele>530.3</ele>
        <time>2016-05-21T11:19:23Z</time>
      </trkpt>
      <trkpt lat="45.39631" lon="5.61191">
        <ele>529.5</ele>
        <time>2016-05-21T11:19:24Z</time>
      </trkpt>
      <trkpt lat="45.39626" lon="5.61203">
        <ele>528.4</ele>
        <time>2016-05-21T11:19:25Z</time>
      </trkpt>
      <trkpt lat="45.39623" lon="5.61218">
        <ele>527.6</ele>
        <time>2016-05-21T11:19:26Z</time>
      </trkpt>
      <trkpt lat="45.39624" lon="5.61232">
        <ele>526.7</ele>
        <time>2016-05-21T11:19:27Z</time>
      </trkpt>
      <trkpt lat="45.39625" lon="5.61247">
        <ele>526.7</ele>
        <time>2016-05-21T11:19:28Z</time>
      </trkpt>
      <trkpt lat="45.39626" lon="5.61261">
        <ele>526.7</ele>
        <time>2016-05-21T11:19:29Z</time>
      </trkpt>
      <trkpt lat="45.39628" lon="5.61275">
        <ele>526.3</ele>
        <time>2016-05-21T11:19:30Z</time>
      </trkpt>
      <trkpt lat="45.39629" lon="5.61289">
        <ele>526.3</ele>
        <time>2016-05-21T11:19:31Z</time>
      </trkpt>
      <trkpt lat="45.3963" lon="5.61304">
        <ele>526.3</ele>
        <time>2016-05-21T11:19:32Z</time>
      </trkpt>
      <trkpt lat="45.39627" lon="5.61318">
        <ele>526.4</ele>
        <time>2016-05-21T11:19:33Z</time>
      </trkpt>
      <trkpt lat="45.39621" lon="5.61331">
        <ele>526.3</ele>
        <time>2016-05-21T11:19:34Z</time>
      </trkpt>
      <trkpt lat="45.39615" lon="5.61342">
        <ele>525.9</ele>
        <time>2016-05-21T11:19:35Z</time>
      </trkpt>
      <trkpt lat="45.39608" lon="5.61352">
        <ele>525.1</ele>
        <time>2016-05-21T11:19:36Z</time>
      </trkpt>
      <trkpt lat="45.39601" lon="5.6136">
        <ele>524.5</ele>
        <time>2016-05-21T11:19:37Z</time>
      </trkpt>
      <trkpt lat="45.39594" lon="5.61369">
        <ele>523.9</ele>
        <time>2016-05-21T11:19:38Z</time>
      </trkpt>
      <trkpt lat="45.39586" lon="5.61377">
        <ele>523.8</ele>
        <time>2016-05-21T11:19:39Z</time>
      </trkpt>
      <trkpt lat="45.3958" lon="5.61385">
        <ele>524.2</ele>
        <time>2016-05-21T11:19:40Z</time>
      </trkpt>
      <trkpt lat="45.39572" lon="5.61391">
        <ele>524.3</ele>
        <time>2016-05-21T11:19:41Z</time>
      </trkpt>
      <trkpt lat="45.39565" lon="5.61399">
        <ele>523.7</ele>
        <time>2016-05-21T11:19:42Z</time>
      </trkpt>
      <trkpt lat="45.39557" lon="5.61406">
        <ele>523.3</ele>
        <time>2016-05-21T11:19:43Z</time>
      </trkpt>
      <trkpt lat="45.39549" lon="5.61414">
        <ele>522.9</ele>
        <time>2016-05-21T11:19:44Z</time>
      </trkpt>
      <trkpt lat="45.39541" lon="5.61422">
        <ele>522.3</ele>
        <time>2016-05-21T11:19:45Z</time>
      </trkpt>
      <trkpt lat="45.39533" lon="5.61431">
        <ele>521.4</ele>
        <time>2016-05-21T11:19:46Z</time>
      </trkpt>
      <trkpt lat="45.39527" lon="5.61439">
        <ele>520.7</ele>
        <time>2016-05-21T11:19:47Z</time>
      </trkpt>
      <trkpt lat="45.39522" lon="5.6145">
        <ele>520</ele>
        <time>2016-05-21T11:19:48Z</time>
      </trkpt>
      <trkpt lat="45.39517" lon="5.61461">
        <ele>519.1</ele>
        <time>2016-05-21T11:19:49Z</time>
      </trkpt>
      <trkpt lat="45.39512" lon="5.61473">
        <ele>518.6</ele>
        <time>2016-05-21T11:19:50Z</time>
      </trkpt>
      <trkpt lat="45.39509" lon="5.61484">
        <ele>518.3</ele>
        <time>2016-05-21T11:19:51Z</time>
      </trkpt>
      <trkpt lat="45.39506" lon="5.61496">
        <ele>518.7</ele>
        <time>2016-05-21T11:19:52Z</time>
      </trkpt>
      <trkpt lat="45.39504" lon="5.6151">
        <ele>519.4</ele>
        <time>2016-05-21T11:19:53Z</time>
      </trkpt>
      <trkpt lat="45.39503" lon="5.61523">
        <ele>519.6</ele>
        <time>2016-05-21T11:19:54Z</time>
      </trkpt>
      <trkpt lat="45.39499" lon="5.61537">
        <ele>519.8</ele>
        <time>2016-05-21T11:19:55Z</time>
      </trkpt>
      <trkpt lat="45.39496" lon="5.61552">
        <ele>519.4</ele>
        <time>2016-05-21T11:19:56Z</time>
      </trkpt>
      <trkpt lat="45.39491" lon="5.61567">
        <ele>519</ele>
        <time>2016-05-21T11:19:57Z</time>
      </trkpt>
      <trkpt lat="45.39486" lon="5.61583">
        <ele>518.7</ele>
        <time>2016-05-21T11:19:58Z</time>
      </trkpt>
      <trkpt lat="45.3948" lon="5.61597">
        <ele>518</ele>
        <time>2016-05-21T11:19:59Z</time>
      </trkpt>
      <trkpt lat="45.39475" lon="5.6161">
        <ele>517.1</ele>
        <time>2016-05-21T11:20:00Z</time>
      </trkpt>
      <trkpt lat="45.3947" lon="5.61622">
        <ele>516</ele>
        <time>2016-05-21T11:20:01Z</time>
      </trkpt>
      <trkpt lat="45.39465" lon="5.61635">
        <ele>514.8</ele>
        <time>2016-05-21T11:20:02Z</time>
      </trkpt>
      <trkpt lat="45.3946" lon="5.61646">
        <ele>514</ele>
        <time>2016-05-21T11:20:03Z</time>
      </trkpt>
      <trkpt lat="45.39455" lon="5.61658">
        <ele>513.3</ele>
        <time>2016-05-21T11:20:04Z</time>
      </trkpt>
      <trkpt lat="45.39449" lon="5.61673">
        <ele>513.4</ele>
        <time>2016-05-21T11:20:05Z</time>
      </trkpt>
      <trkpt lat="45.39443" lon="5.61686">
        <ele>513.1</ele>
        <time>2016-05-21T11:20:06Z</time>
      </trkpt>
      <trkpt lat="45.39437" lon="5.61699">
        <ele>512.1</ele>
        <time>2016-05-21T11:20:07Z</time>
      </trkpt>
      <trkpt lat="45.39431" lon="5.61712">
        <ele>511.3</ele>
        <time>2016-05-21T11:20:08Z</time>
      </trkpt>
      <trkpt lat="45.39425" lon="5.61726">
        <ele>510.6</ele>
        <time>2016-05-21T11:20:09Z</time>
      </trkpt>
      <trkpt lat="45.39418" lon="5.6174">
        <ele>509.8</ele>
        <time>2016-05-21T11:20:10Z</time>
      </trkpt>
      <trkpt lat="45.39412" lon="5.61753">
        <ele>509.2</ele>
        <time>2016-05-21T11:20:11Z</time>
      </trkpt>
      <trkpt lat="45.39405" lon="5.61765">
        <ele>508.5</ele>
        <time>2016-05-21T11:20:12Z</time>
      </trkpt>
      <trkpt lat="45.39398" lon="5.61776">
        <ele>508</ele>
        <time>2016-05-21T11:20:13Z</time>
      </trkpt>
      <trkpt lat="45.39389" lon="5.61787">
        <ele>508.4</ele>
        <time>2016-05-21T11:20:14Z</time>
      </trkpt>
      <trkpt lat="45.3938" lon="5.61796">
        <ele>508.4</ele>
        <time>2016-05-21T11:20:15Z</time>
      </trkpt>
      <trkpt lat="45.39371" lon="5.61804">
        <ele>508.6</ele>
        <time>2016-05-21T11:20:16Z</time>
      </trkpt>
      <trkpt lat="45.3936" lon="5.61814">
        <ele>509.2</ele>
        <time>2016-05-21T11:20:17Z</time>
      </trkpt>
      <trkpt lat="45.39349" lon="5.61821">
        <ele>508.7</ele>
        <time>2016-05-21T11:20:18Z</time>
      </trkpt>
      <trkpt lat="45.39338" lon="5.61831">
        <ele>507.9</ele>
        <time>2016-05-21T11:20:19Z</time>
      </trkpt>
      <trkpt lat="45.39326" lon="5.6184">
        <ele>507.2</ele>
        <time>2016-05-21T11:20:20Z</time>
      </trkpt>
      <trkpt lat="45.39315" lon="5.61849">
        <ele>506.2</ele>
        <time>2016-05-21T11:20:21Z</time>
      </trkpt>
      <trkpt lat="45.39305" lon="5.61858">
        <ele>505</ele>
        <time>2016-05-21T11:20:22Z</time>
      </trkpt>
      <trkpt lat="45.39294" lon="5.61868">
        <ele>503.2</ele>
        <time>2016-05-21T11:20:23Z</time>
      </trkpt>
      <trkpt lat="45.39285" lon="5.61877">
        <ele>501.5</ele>
        <time>2016-05-21T11:20:24Z</time>
      </trkpt>
      <trkpt lat="45.39276" lon="5.61887">
        <ele>500.2</ele>
        <time>2016-05-21T11:20:25Z</time>
      </trkpt>
      <trkpt lat="45.39269" lon="5.61896">
        <ele>499</ele>
        <time>2016-05-21T11:20:26Z</time>
      </trkpt>
      <trkpt lat="45.39262" lon="5.61907">
        <ele>497.9</ele>
        <time>2016-05-21T11:20:27Z</time>
      </trkpt>
      <trkpt lat="45.39256" lon="5.61917">
        <ele>497.1</ele>
        <time>2016-05-21T11:20:28Z</time>
      </trkpt>
      <trkpt lat="45.39248" lon="5.61929">
        <ele>497</ele>
        <time>2016-05-21T11:20:29Z</time>
      </trkpt>
      <trkpt lat="45.39241" lon="5.61941">
        <ele>497</ele>
        <time>2016-05-21T11:20:30Z</time>
      </trkpt>
      <trkpt lat="45.39233" lon="5.61954">
        <ele>496.7</ele>
        <time>2016-05-21T11:20:31Z</time>
      </trkpt>
      <trkpt lat="45.39226" lon="5.61966">
        <ele>496.4</ele>
        <time>2016-05-21T11:20:32Z</time>
      </trkpt>
      <trkpt lat="45.39219" lon="5.61977">
        <ele>496</ele>
        <time>2016-05-21T11:20:33Z</time>
      </trkpt>
      <trkpt lat="45.39211" lon="5.61988">
        <ele>495.3</ele>
        <time>2016-05-21T11:20:34Z</time>
      </trkpt>
      <trkpt lat="45.39204" lon="5.61998">
        <ele>494.8</ele>
        <time>2016-05-21T11:20:35Z</time>
      </trkpt>
      <trkpt lat="45.39195" lon="5.6201">
        <ele>494.3</ele>
        <time>2016-05-21T11:20:36Z</time>
      </trkpt>
      <trkpt lat="45.39187" lon="5.62021">
        <ele>493.7</ele>
        <time>2016-05-21T11:20:37Z</time>
      </trkpt>
      <trkpt lat="45.39179" lon="5.62032">
        <ele>493.3</ele>
        <time>2016-05-21T11:20:38Z</time>
      </trkpt>
      <trkpt lat="45.39171" lon="5.62042">
        <ele>493.5</ele>
        <time>2016-05-21T11:20:39Z</time>
      </trkpt>
      <trkpt lat="45.39164" lon="5.62051">
        <ele>494.1</ele>
        <time>2016-05-21T11:20:40Z</time>
      </trkpt>
      <trkpt lat="45.39157" lon="5.6206">
        <ele>494.5</ele>
        <time>2016-05-21T11:20:41Z</time>
      </trkpt>
      <trkpt lat="45.39148" lon="5.62069">
        <ele>494.7</ele>
        <time>2016-05-21T11:20:42Z</time>
      </trkpt>
      <trkpt lat="45.39141" lon="5.62079">
        <ele>494.9</ele>
        <time>2016-05-21T11:20:43Z</time>
      </trkpt>
      <trkpt lat="45.39132" lon="5.62088">
        <ele>494.9</ele>
        <time>2016-05-21T11:20:44Z</time>
      </trkpt>
      <trkpt lat="45.39124" lon="5.62097">
        <ele>494.8</ele>
        <time>2016-05-21T11:20:45Z</time>
      </trkpt>
      <trkpt lat="45.39116" lon="5.62106">
        <ele>494.8</ele>
        <time>2016-05-21T11:20:46Z</time>
      </trkpt>
      <trkpt lat="45.39108" lon="5.62114">
        <ele>494.8</ele>
        <time>2016-05-21T11:20:47Z</time>
      </trkpt>
      <trkpt lat="45.39101" lon="5.62126">
        <ele>495</ele>
        <time>2016-05-21T11:20:48Z</time>
      </trkpt>
      <trkpt lat="45.39094" lon="5.62139">
        <ele>495.9</ele>
        <time>2016-05-21T11:20:49Z</time>
      </trkpt>
      <trkpt lat="45.39088" lon="5.62151">
        <ele>497</ele>
        <time>2016-05-21T11:20:50Z</time>
      </trkpt>
      <trkpt lat="45.39082" lon="5.62163">
        <ele>497.6</ele>
        <time>2016-05-21T11:20:51Z</time>
      </trkpt>
      <trkpt lat="45.39077" lon="5.62175">
        <ele>498</ele>
        <time>2016-05-21T11:20:52Z</time>
      </trkpt>
      <trkpt lat="45.39072" lon="5.62188">
        <ele>498.4</ele>
        <time>2016-05-21T11:20:53Z</time>
      </trkpt>
      <trkpt lat="45.39067" lon="5.62201">
        <ele>498.1</ele>
        <time>2016-05-21T11:20:54Z</time>
      </trkpt>
      <trkpt lat="45.39062" lon="5.62214">
        <ele>497.3</ele>
        <time>2016-05-21T11:20:55Z</time>
      </trkpt>
      <trkpt lat="45.39058" lon="5.62227">
        <ele>496.9</ele>
        <time>2016-05-21T11:20:56Z</time>
      </trkpt>
      <trkpt lat="45.39052" lon="5.6224">
        <ele>496.6</ele>
        <time>2016-05-21T11:20:57Z</time>
      </trkpt>
      <trkpt lat="45.39048" lon="5.62252">
        <ele>496.3</ele>
        <time>2016-05-21T11:20:58Z</time>
      </trkpt>
      <trkpt lat="45.39045" lon="5.62265">
        <ele>496</ele>
        <time>2016-05-21T11:20:59Z</time>
      </trkpt>
      <trkpt lat="45.39041" lon="5.62277">
        <ele>494.7</ele>
        <time>2016-05-21T11:21:00Z</time>
      </trkpt>
      <trkpt lat="45.39039" lon="5.62289">
        <ele>494.3</ele>
        <time>2016-05-21T11:21:01Z</time>
      </trkpt>
      <trkpt lat="45.39036" lon="5.62302">
        <ele>493.9</ele>
        <time>2016-05-21T11:21:02Z</time>
      </trkpt>
      <trkpt lat="45.39032" lon="5.62316">
        <ele>494.1</ele>
        <time>2016-05-21T11:21:03Z</time>
      </trkpt>
      <trkpt lat="45.39028" lon="5.62329">
        <ele>494</ele>
        <time>2016-05-21T11:21:04Z</time>
      </trkpt>
      <trkpt lat="45.39024" lon="5.62342">
        <ele>494.9</ele>
        <time>2016-05-21T11:21:05Z</time>
      </trkpt>
      <trkpt lat="45.3902" lon="5.62357">
        <ele>496.3</ele>
        <time>2016-05-21T11:21:06Z</time>
      </trkpt>
      <trkpt lat="45.39017" lon="5.62371">
        <ele>497.6</ele>
        <time>2016-05-21T11:21:07Z</time>
      </trkpt>
      <trkpt lat="45.39014" lon="5.62384">
        <ele>498.2</ele>
        <time>2016-05-21T11:21:08Z</time>
      </trkpt>
      <trkpt lat="45.39011" lon="5.62397">
        <ele>498.1</ele>
        <time>2016-05-21T11:21:09Z</time>
      </trkpt>
      <trkpt lat="45.39008" lon="5.62411">
        <ele>498.2</ele>
        <time>2016-05-21T11:21:10Z</time>
      </trkpt>
      <trkpt lat="45.39005" lon="5.62425">
        <ele>499.3</ele>
        <time>2016-05-21T11:21:11Z</time>
      </trkpt>
      <trkpt lat="45.39001" lon="5.6244">
        <ele>500.3</ele>
        <time>2016-05-21T11:21:12Z</time>
      </trkpt>
      <trkpt lat="45.38998" lon="5.62452">
        <ele>501</ele>
        <time>2016-05-21T11:21:13Z</time>
      </trkpt>
      <trkpt lat="45.38995" lon="5.62465">
        <ele>501.8</ele>
        <time>2016-05-21T11:21:14Z</time>
      </trkpt>
      <trkpt lat="45.38992" lon="5.62479">
        <ele>502.9</ele>
        <time>2016-05-21T11:21:15Z</time>
      </trkpt>
      <trkpt lat="45.38989" lon="5.62492">
        <ele>504.6</ele>
        <time>2016-05-21T11:21:16Z</time>
      </trkpt>
      <trkpt lat="45.38986" lon="5.62503">
        <ele>505.9</ele>
        <time>2016-05-21T11:21:17Z</time>
      </trkpt>
      <trkpt lat="45.38983" lon="5.62515">
        <ele>506.6</ele>
        <time>2016-05-21T11:21:18Z</time>
      </trkpt>
      <trkpt lat="45.38981" lon="5.62527">
        <ele>507.3</ele>
        <time>2016-05-21T11:21:19Z</time>
      </trkpt>
      <trkpt lat="45.38978" lon="5.62539">
        <ele>507.5</ele>
        <time>2016-05-21T11:21:20Z</time>
      </trkpt>
      <trkpt lat="45.38975" lon="5.62552">
        <ele>507.7</ele>
        <time>2016-05-21T11:21:21Z</time>
      </trkpt>
      <trkpt lat="45.38972" lon="5.62564">
        <ele>507.6</ele>
        <time>2016-05-21T11:21:22Z</time>
      </trkpt>
      <trkpt lat="45.3897" lon="5.62576">
        <ele>507.5</ele>
        <time>2016-05-21T11:21:23Z</time>
      </trkpt>
      <trkpt lat="45.38968" lon="5.62587">
        <ele>507.4</ele>
        <time>2016-05-21T11:21:24Z</time>
      </trkpt>
      <trkpt lat="45.38965" lon="5.62599">
        <ele>507.2</ele>
        <time>2016-05-21T11:21:25Z</time>
      </trkpt>
      <trkpt lat="45.38962" lon="5.62611">
        <ele>507</ele>
        <time>2016-05-21T11:21:26Z</time>
      </trkpt>
      <trkpt lat="45.3896" lon="5.62624">
        <ele>507.1</ele>
        <time>2016-05-21T11:21:27Z</time>
      </trkpt>
      <trkpt lat="45.38957" lon="5.62637">
        <ele>507.2</ele>
        <time>2016-05-21T11:21:28Z</time>
      </trkpt>
      <trkpt lat="45.38954" lon="5.6265">
        <ele>506</ele>
        <time>2016-05-21T11:21:29Z</time>
      </trkpt>
      <trkpt lat="45.38951" lon="5.62662">
        <ele>504.5</ele>
        <time>2016-05-21T11:21:30Z</time>
      </trkpt>
      <trkpt lat="45.38948" lon="5.62673">
        <ele>503</ele>
        <time>2016-05-21T11:21:31Z</time>
      </trkpt>
      <trkpt lat="45.38943" lon="5.62681">
        <ele>502</ele>
        <time>2016-05-21T11:21:32Z</time>
      </trkpt>
      <trkpt lat="45.38937" lon="5.62691">
        <ele>501.5</ele>
        <time>2016-05-21T11:21:33Z</time>
      </trkpt>
      <trkpt lat="45.38931" lon="5.62701">
        <ele>501.4</ele>
        <time>2016-05-21T11:21:34Z</time>
      </trkpt>
      <trkpt lat="45.38925" lon="5.6271">
        <ele>501.6</ele>
        <time>2016-05-21T11:21:35Z</time>
      </trkpt>
      <trkpt lat="45.3892" lon="5.62719">
        <ele>501.3</ele>
        <time>2016-05-21T11:21:36Z</time>
      </trkpt>
      <trkpt lat="45.38915" lon="5.62731">
        <ele>502</ele>
        <time>2016-05-21T11:21:37Z</time>
      </trkpt>
      <trkpt lat="45.3891" lon="5.62743">
        <ele>502.3</ele>
        <time>2016-05-21T11:21:38Z</time>
      </trkpt>
      <trkpt lat="45.38905" lon="5.62754">
        <ele>502.1</ele>
        <time>2016-05-21T11:21:39Z</time>
      </trkpt>
      <trkpt lat="45.389" lon="5.62767">
        <ele>502.2</ele>
        <time>2016-05-21T11:21:40Z</time>
      </trkpt>
      <trkpt lat="45.38895" lon="5.62778">
        <ele>502.5</ele>
        <time>2016-05-21T11:21:41Z</time>
      </trkpt>
      <trkpt lat="45.3889" lon="5.62791">
        <ele>502.9</ele>
        <time>2016-05-21T11:21:42Z</time>
      </trkpt>
      <trkpt lat="45.38885" lon="5.62805">
        <ele>502.7</ele>
        <time>2016-05-21T11:21:43Z</time>
      </trkpt>
      <trkpt lat="45.3888" lon="5.62819">
        <ele>502.9</ele>
        <time>2016-05-21T11:21:44Z</time>
      </trkpt>
      <trkpt lat="45.38876" lon="5.62832">
        <ele>503.2</ele>
        <time>2016-05-21T11:21:45Z</time>
      </trkpt>
      <trkpt lat="45.38872" lon="5.62845">
        <ele>502.7</ele>
        <time>2016-05-21T11:21:46Z</time>
      </trkpt>
      <trkpt lat="45.38869" lon="5.6286">
        <ele>502.4</ele>
        <time>2016-05-21T11:21:47Z</time>
      </trkpt>
      <trkpt lat="45.38866" lon="5.62874">
        <ele>501.9</ele>
        <time>2016-05-21T11:21:48Z</time>
      </trkpt>
      <trkpt lat="45.38863" lon="5.62888">
        <ele>501.6</ele>
        <time>2016-05-21T11:21:49Z</time>
      </trkpt>
      <trkpt lat="45.3886" lon="5.62904">
        <ele>501.5</ele>
        <time>2016-05-21T11:21:50Z</time>
      </trkpt>
      <trkpt lat="45.38857" lon="5.6292">
        <ele>501.4</ele>
        <time>2016-05-21T11:21:51Z</time>
      </trkpt>
      <trkpt lat="45.38854" lon="5.62934">
        <ele>501</ele>
        <time>2016-05-21T11:21:52Z</time>
      </trkpt>
      <trkpt lat="45.38851" lon="5.62948">
        <ele>500.9</ele>
        <time>2016-05-21T11:21:53Z</time>
      </trkpt>
      <trkpt lat="45.38849" lon="5.62963">
        <ele>500.4</ele>
        <time>2016-05-21T11:21:54Z</time>
      </trkpt>
      <trkpt lat="45.38846" lon="5.62978">
        <ele>500.1</ele>
        <time>2016-05-21T11:21:55Z</time>
      </trkpt>
      <trkpt lat="45.38843" lon="5.62993">
        <ele>499.9</ele>
        <time>2016-05-21T11:21:56Z</time>
      </trkpt>
      <trkpt lat="45.3884" lon="5.63008">
        <ele>499.8</ele>
        <time>2016-05-21T11:21:57Z</time>
      </trkpt>
      <trkpt lat="45.38837" lon="5.63023">
        <ele>499.2</ele>
        <time>2016-05-21T11:21:58Z</time>
      </trkpt>
      <trkpt lat="45.38832" lon="5.63037">
        <ele>499.1</ele>
        <time>2016-05-21T11:21:59Z</time>
      </trkpt>
      <trkpt lat="45.38827" lon="5.63052">
        <ele>498.6</ele>
        <time>2016-05-21T11:22:00Z</time>
      </trkpt>
      <trkpt lat="45.3882" lon="5.63063">
        <ele>497.8</ele>
        <time>2016-05-21T11:22:01Z</time>
      </trkpt>
      <trkpt lat="45.38812" lon="5.63075">
        <ele>497</ele>
        <time>2016-05-21T11:22:02Z</time>
      </trkpt>
      <trkpt lat="45.38805" lon="5.63086">
        <ele>495.5</ele>
        <time>2016-05-21T11:22:03Z</time>
      </trkpt>
      <trkpt lat="45.38796" lon="5.63096">
        <ele>494.7</ele>
        <time>2016-05-21T11:22:04Z</time>
      </trkpt>
      <trkpt lat="45.38787" lon="5.63106">
        <ele>493.6</ele>
        <time>2016-05-21T11:22:05Z</time>
      </trkpt>
      <trkpt lat="45.38778" lon="5.63116">
        <ele>492.6</ele>
        <time>2016-05-21T11:22:06Z</time>
      </trkpt>
      <trkpt lat="45.38769" lon="5.63124">
        <ele>491.7</ele>
        <time>2016-05-21T11:22:07Z</time>
      </trkpt>
      <trkpt lat="45.3876" lon="5.63132">
        <ele>490.3</ele>
        <time>2016-05-21T11:22:08Z</time>
      </trkpt>
      <trkpt lat="45.38752" lon="5.63141">
        <ele>489.5</ele>
        <time>2016-05-21T11:22:09Z</time>
      </trkpt>
      <trkpt lat="45.38743" lon="5.6315">
        <ele>487.8</ele>
        <time>2016-05-21T11:22:10Z</time>
      </trkpt>
      <trkpt lat="45.38734" lon="5.63158">
        <ele>486.1</ele>
        <time>2016-05-21T11:22:11Z</time>
      </trkpt>
      <trkpt lat="45.38725" lon="5.63167">
        <ele>484.4</ele>
        <time>2016-05-21T11:22:12Z</time>
      </trkpt>
      <trkpt lat="45.38715" lon="5.63178">
        <ele>482.9</ele>
        <time>2016-05-21T11:22:13Z</time>
      </trkpt>
      <trkpt lat="45.38706" lon="5.63188">
        <ele>481.8</ele>
        <time>2016-05-21T11:22:14Z</time>
      </trkpt>
      <trkpt lat="45.38696" lon="5.63199">
        <ele>480.2</ele>
        <time>2016-05-21T11:22:15Z</time>
      </trkpt>
      <trkpt lat="45.38688" lon="5.63209">
        <ele>479.1</ele>
        <time>2016-05-21T11:22:16Z</time>
      </trkpt>
      <trkpt lat="45.38679" lon="5.63219">
        <ele>478</ele>
        <time>2016-05-21T11:22:17Z</time>
      </trkpt>
      <trkpt lat="45.38671" lon="5.63229">
        <ele>476.8</ele>
        <time>2016-05-21T11:22:18Z</time>
      </trkpt>
      <trkpt lat="45.38663" lon="5.63239">
        <ele>475.6</ele>
        <time>2016-05-21T11:22:19Z</time>
      </trkpt>
      <trkpt lat="45.38655" lon="5.63249">
        <ele>475.1</ele>
        <time>2016-05-21T11:22:20Z</time>
      </trkpt>
      <trkpt lat="45.38646" lon="5.63258">
        <ele>474.6</ele>
        <time>2016-05-21T11:22:21Z</time>
      </trkpt>
      <trkpt lat="45.38636" lon="5.63267">
        <ele>474.6</ele>
        <time>2016-05-21T11:22:22Z</time>
      </trkpt>
      <trkpt lat="45.38627" lon="5.63275">
        <ele>475.8</ele>
        <time>2016-05-21T11:22:23Z</time>
      </trkpt>
      <trkpt lat="45.38617" lon="5.63282">
        <ele>476.8</ele>
        <time>2016-05-21T11:22:24Z</time>
      </trkpt>
      <trkpt lat="45.38606" lon="5.63289">
        <ele>477.3</ele>
        <time>2016-05-21T11:22:25Z</time>
      </trkpt>
      <trkpt lat="45.38597" lon="5.63295">
        <ele>477.5</ele>
        <time>2016-05-21T11:22:26Z</time>
      </trkpt>
      <trkpt lat="45.38587" lon="5.63301">
        <ele>477.9</ele>
        <time>2016-05-21T11:22:27Z</time>
      </trkpt>
      <trkpt lat="45.38577" lon="5.63307">
        <ele>477.9</ele>
        <time>2016-05-21T11:22:28Z</time>
      </trkpt>
      <trkpt lat="45.38566" lon="5.63313">
        <ele>477.3</ele>
        <time>2016-05-21T11:22:29Z</time>
      </trkpt>
      <trkpt lat="45.38554" lon="5.63319">
        <ele>476.4</ele>
        <time>2016-05-21T11:22:30Z</time>
      </trkpt>
      <trkpt lat="45.38544" lon="5.63326">
        <ele>475.6</ele>
        <time>2016-05-21T11:22:31Z</time>
      </trkpt>
      <trkpt lat="45.38534" lon="5.63332">
        <ele>474.8</ele>
        <time>2016-05-21T11:22:32Z</time>
      </trkpt>
      <trkpt lat="45.38525" lon="5.63339">
        <ele>474</ele>
        <time>2016-05-21T11:22:33Z</time>
      </trkpt>
      <trkpt lat="45.38517" lon="5.63347">
        <ele>472.7</ele>
        <time>2016-05-21T11:22:34Z</time>
      </trkpt>
      <trkpt lat="45.38509" lon="5.63354">
        <ele>471.4</ele>
        <time>2016-05-21T11:22:35Z</time>
      </trkpt>
      <trkpt lat="45.38501" lon="5.63363">
        <ele>470.1</ele>
        <time>2016-05-21T11:22:36Z</time>
      </trkpt>
      <trkpt lat="45.38493" lon="5.63373">
        <ele>469.1</ele>
        <time>2016-05-21T11:22:37Z</time>
      </trkpt>
      <trkpt lat="45.38487" lon="5.63386">
        <ele>468.5</ele>
        <time>2016-05-21T11:22:38Z</time>
      </trkpt>
      <trkpt lat="45.38482" lon="5.63398">
        <ele>468.3</ele>
        <time>2016-05-21T11:22:39Z</time>
      </trkpt>
      <trkpt lat="45.38477" lon="5.6341">
        <ele>468.2</ele>
        <time>2016-05-21T11:22:40Z</time>
      </trkpt>
      <trkpt lat="45.38472" lon="5.63421">
        <ele>468.5</ele>
        <time>2016-05-21T11:22:41Z</time>
      </trkpt>
      <trkpt lat="45.38468" lon="5.63432">
        <ele>468.3</ele>
        <time>2016-05-21T11:22:42Z</time>
      </trkpt>
      <trkpt lat="45.38465" lon="5.63443">
        <ele>467.6</ele>
        <time>2016-05-21T11:22:43Z</time>
      </trkpt>
      <trkpt lat="45.38461" lon="5.63455">
        <ele>467.1</ele>
        <time>2016-05-21T11:22:44Z</time>
      </trkpt>
      <trkpt lat="45.38458" lon="5.63467">
        <ele>467</ele>
        <time>2016-05-21T11:22:45Z</time>
      </trkpt>
      <trkpt lat="45.38454" lon="5.63478">
        <ele>466.7</ele>
        <time>2016-05-21T11:22:46Z</time>
      </trkpt>
      <trkpt lat="45.38452" lon="5.63488">
        <ele>466.6</ele>
        <time>2016-05-21T11:22:47Z</time>
      </trkpt>
      <trkpt lat="45.38449" lon="5.63506">
        <ele>465.1</ele>
        <time>2016-05-21T11:22:49Z</time>
      </trkpt>
      <trkpt lat="45.38445" lon="5.63524">
        <ele>463.8</ele>
        <time>2016-05-21T11:22:51Z</time>
      </trkpt>
      <trkpt lat="45.38442" lon="5.63537">
        <ele>462.4</ele>
        <time>2016-05-21T11:22:53Z</time>
      </trkpt>
      <trkpt lat="45.38439" lon="5.63547">
        <ele>462.3</ele>
        <time>2016-05-21T11:22:55Z</time>
      </trkpt>
      <trkpt lat="45.38435" lon="5.63558">
        <ele>461.9</ele>
        <time>2016-05-21T11:22:57Z</time>
      </trkpt>
      <trkpt lat="45.38429" lon="5.63571">
        <ele>460.8</ele>
        <time>2016-05-21T11:22:59Z</time>
      </trkpt>
      <trkpt lat="45.38424" lon="5.63584">
        <ele>459.7</ele>
        <time>2016-05-21T11:23:01Z</time>
      </trkpt>
      <trkpt lat="45.38417" lon="5.63598">
        <ele>462.3</ele>
        <time>2016-05-21T11:23:03Z</time>
      </trkpt>
      <trkpt lat="45.38409" lon="5.63615">
        <ele>465.9</ele>
        <time>2016-05-21T11:23:05Z</time>
      </trkpt>
      <trkpt lat="45.38404" lon="5.63624">
        <ele>467.9</ele>
        <time>2016-05-21T11:23:06Z</time>
      </trkpt>
      <trkpt lat="45.38398" lon="5.63632">
        <ele>469.7</ele>
        <time>2016-05-21T11:23:07Z</time>
      </trkpt>
      <trkpt lat="45.38392" lon="5.6364">
        <ele>470.9</ele>
        <time>2016-05-21T11:23:08Z</time>
      </trkpt>
      <trkpt lat="45.38383" lon="5.63652">
        <ele>472.5</ele>
        <time>2016-05-21T11:23:10Z</time>
      </trkpt>
      <trkpt lat="45.38373" lon="5.63664">
        <ele>473.7</ele>
        <time>2016-05-21T11:23:12Z</time>
      </trkpt>
      <trkpt lat="45.38364" lon="5.63677">
        <ele>476.2</ele>
        <time>2016-05-21T11:23:14Z</time>
      </trkpt>
      <trkpt lat="45.38354" lon="5.63689">
        <ele>477.7</ele>
        <time>2016-05-21T11:23:16Z</time>
      </trkpt>
      <trkpt lat="45.38346" lon="5.63701">
        <ele>478.9</ele>
        <time>2016-05-21T11:23:18Z</time>
      </trkpt>
      <trkpt lat="45.38336" lon="5.63713">
        <ele>480</ele>
        <time>2016-05-21T11:23:20Z</time>
      </trkpt>
      <trkpt lat="45.38327" lon="5.63725">
        <ele>480</ele>
        <time>2016-05-21T11:23:22Z</time>
      </trkpt>
      <trkpt lat="45.38319" lon="5.63737">
        <ele>480.2</ele>
        <time>2016-05-21T11:23:24Z</time>
      </trkpt>
      <trkpt lat="45.38312" lon="5.63748">
        <ele>481.2</ele>
        <time>2016-05-21T11:23:26Z</time>
      </trkpt>
      <trkpt lat="45.38304" lon="5.63761">
        <ele>484</ele>
        <time>2016-05-21T11:23:28Z</time>
      </trkpt>
      <trkpt lat="45.38295" lon="5.63773">
        <ele>485</ele>
        <time>2016-05-21T11:23:30Z</time>
      </trkpt>
      <trkpt lat="45.38287" lon="5.63785">
        <ele>484.7</ele>
        <time>2016-05-21T11:23:32Z</time>
      </trkpt>
      <trkpt lat="45.38279" lon="5.63796">
        <ele>484</ele>
        <time>2016-05-21T11:23:34Z</time>
      </trkpt>
      <trkpt lat="45.38271" lon="5.63807">
        <ele>482.9</ele>
        <time>2016-05-21T11:23:36Z</time>
      </trkpt>
      <trkpt lat="45.38262" lon="5.6382">
        <ele>483</ele>
        <time>2016-05-21T11:23:38Z</time>
      </trkpt>
      <trkpt lat="45.38253" lon="5.63832">
        <ele>482.5</ele>
        <time>2016-05-21T11:23:40Z</time>
      </trkpt>
      <trkpt lat="45.38243" lon="5.63845">
        <ele>482.7</ele>
        <time>2016-05-21T11:23:42Z</time>
      </trkpt>
      <trkpt lat="45.38235" lon="5.63855">
        <ele>482.4</ele>
        <time>2016-05-21T11:23:44Z</time>
      </trkpt>
      <trkpt lat="45.38226" lon="5.63867">
        <ele>482.3</ele>
        <time>2016-05-21T11:23:46Z</time>
      </trkpt>
      <trkpt lat="45.38218" lon="5.63879">
        <ele>482.8</ele>
        <time>2016-05-21T11:23:48Z</time>
      </trkpt>
      <trkpt lat="45.3821" lon="5.6389">
        <ele>482.4</ele>
        <time>2016-05-21T11:23:50Z</time>
      </trkpt>
      <trkpt lat="45.38202" lon="5.63901">
        <ele>482.5</ele>
        <time>2016-05-21T11:23:52Z</time>
      </trkpt>
      <trkpt lat="45.38194" lon="5.63914">
        <ele>483.3</ele>
        <time>2016-05-21T11:23:54Z</time>
      </trkpt>
      <trkpt lat="45.38186" lon="5.63925">
        <ele>482.8</ele>
        <time>2016-05-21T11:23:56Z</time>
      </trkpt>
      <trkpt lat="45.38178" lon="5.63936">
        <ele>482.8</ele>
        <time>2016-05-21T11:23:58Z</time>
      </trkpt>
      <trkpt lat="45.3817" lon="5.63948">
        <ele>483.9</ele>
        <time>2016-05-21T11:24:00Z</time>
      </trkpt>
      <trkpt lat="45.38163" lon="5.63961">
        <ele>484.6</ele>
        <time>2016-05-21T11:24:02Z</time>
      </trkpt>
      <trkpt lat="45.38156" lon="5.63974">
        <ele>486.8</ele>
        <time>2016-05-21T11:24:04Z</time>
      </trkpt>
      <trkpt lat="45.3815" lon="5.63988">
        <ele>489.6</ele>
        <time>2016-05-21T11:24:06Z</time>
      </trkpt>
      <trkpt lat="45.38144" lon="5.64001">
        <ele>491.2</ele>
        <time>2016-05-21T11:24:08Z</time>
      </trkpt>
      <trkpt lat="45.38137" lon="5.64016">
        <ele>491.5</ele>
        <time>2016-05-21T11:24:10Z</time>
      </trkpt>
      <trkpt lat="45.3813" lon="5.6403">
        <ele>492</ele>
        <time>2016-05-21T11:24:12Z</time>
      </trkpt>
      <trkpt lat="45.38123" lon="5.64044">
        <ele>493.7</ele>
        <time>2016-05-21T11:24:14Z</time>
      </trkpt>
      <trkpt lat="45.38116" lon="5.64058">
        <ele>494.7</ele>
        <time>2016-05-21T11:24:16Z</time>
      </trkpt>
      <trkpt lat="45.38109" lon="5.64072">
        <ele>494.6</ele>
        <time>2016-05-21T11:24:18Z</time>
      </trkpt>
      <trkpt lat="45.38101" lon="5.64085">
        <ele>495.1</ele>
        <time>2016-05-21T11:24:20Z</time>
      </trkpt>
      <trkpt lat="45.38093" lon="5.64097">
        <ele>494.9</ele>
        <time>2016-05-21T11:24:22Z</time>
      </trkpt>
      <trkpt lat="45.38084" lon="5.6411">
        <ele>495.1</ele>
        <time>2016-05-21T11:24:24Z</time>
      </trkpt>
      <trkpt lat="45.38074" lon="5.64121">
        <ele>495.3</ele>
        <time>2016-05-21T11:24:26Z</time>
      </trkpt>
      <trkpt lat="45.38063" lon="5.64133">
        <ele>496.3</ele>
        <time>2016-05-21T11:24:28Z</time>
      </trkpt>
      <trkpt lat="45.38052" lon="5.64143">
        <ele>497.6</ele>
        <time>2016-05-21T11:24:30Z</time>
      </trkpt>
      <trkpt lat="45.38041" lon="5.64151">
        <ele>497.4</ele>
        <time>2016-05-21T11:24:32Z</time>
      </trkpt>
      <trkpt lat="45.38031" lon="5.64157">
        <ele>496.7</ele>
        <time>2016-05-21T11:24:34Z</time>
      </trkpt>
      <trkpt lat="45.38023" lon="5.64162">
        <ele>496.5</ele>
        <time>2016-05-21T11:24:37Z</time>
      </trkpt>
      <trkpt lat="45.38013" lon="5.6417">
        <ele>494.4</ele>
        <time>2016-05-21T11:24:40Z</time>
      </trkpt>
      <trkpt lat="45.38006" lon="5.64178">
        <ele>493.3</ele>
        <time>2016-05-21T11:24:42Z</time>
      </trkpt>
      <trkpt lat="45.38002" lon="5.64189">
        <ele>492.9</ele>
        <time>2016-05-21T11:24:44Z</time>
      </trkpt>
      <trkpt lat="45.37997" lon="5.64201">
        <ele>492.8</ele>
        <time>2016-05-21T11:24:46Z</time>
      </trkpt>
      <trkpt lat="45.37988" lon="5.64208">
        <ele>492.8</ele>
        <time>2016-05-21T11:24:48Z</time>
      </trkpt>
      <trkpt lat="45.37979" lon="5.64217">
        <ele>494</ele>
        <time>2016-05-21T11:24:50Z</time>
      </trkpt>
      <trkpt lat="45.37969" lon="5.64228">
        <ele>494.8</ele>
        <time>2016-05-21T11:24:52Z</time>
      </trkpt>
      <trkpt lat="45.3796" lon="5.64237">
        <ele>495.8</ele>
        <time>2016-05-21T11:24:54Z</time>
      </trkpt>
      <trkpt lat="45.37951" lon="5.64247">
        <ele>496.8</ele>
        <time>2016-05-21T11:24:56Z</time>
      </trkpt>
      <trkpt lat="45.37942" lon="5.64256">
        <ele>496.4</ele>
        <time>2016-05-21T11:24:58Z</time>
      </trkpt>
      <trkpt lat="45.37932" lon="5.64265">
        <ele>495.5</ele>
        <time>2016-05-21T11:25:00Z</time>
      </trkpt>
      <trkpt lat="45.37921" lon="5.64275">
        <ele>495.4</ele>
        <time>2016-05-21T11:25:02Z</time>
      </trkpt>
      <trkpt lat="45.37912" lon="5.64288">
        <ele>495.7</ele>
        <time>2016-05-21T11:25:04Z</time>
      </trkpt>
      <trkpt lat="45.37904" lon="5.64304">
        <ele>496.6</ele>
        <time>2016-05-21T11:25:06Z</time>
      </trkpt>
      <trkpt lat="45.37898" lon="5.64322">
        <ele>497.7</ele>
        <time>2016-05-21T11:25:08Z</time>
      </trkpt>
      <trkpt lat="45.37894" lon="5.6434">
        <ele>498.1</ele>
        <time>2016-05-21T11:25:10Z</time>
      </trkpt>
      <trkpt lat="45.3789" lon="5.64358">
        <ele>498.1</ele>
        <time>2016-05-21T11:25:12Z</time>
      </trkpt>
      <trkpt lat="45.37887" lon="5.64375">
        <ele>498.5</ele>
        <time>2016-05-21T11:25:14Z</time>
      </trkpt>
      <trkpt lat="45.37884" lon="5.64392">
        <ele>499.7</ele>
        <time>2016-05-21T11:25:16Z</time>
      </trkpt>
      <trkpt lat="45.37883" lon="5.6441">
        <ele>501</ele>
        <time>2016-05-21T11:25:18Z</time>
      </trkpt>
      <trkpt lat="45.37879" lon="5.64427">
        <ele>501</ele>
        <time>2016-05-21T11:25:20Z</time>
      </trkpt>
      <trkpt lat="45.37875" lon="5.64443">
        <ele>498.8</ele>
        <time>2016-05-21T11:25:22Z</time>
      </trkpt>
      <trkpt lat="45.37872" lon="5.64459">
        <ele>497.3</ele>
        <time>2016-05-21T11:25:24Z</time>
      </trkpt>
      <trkpt lat="45.37871" lon="5.64476">
        <ele>496.2</ele>
        <time>2016-05-21T11:25:26Z</time>
      </trkpt>
      <trkpt lat="45.37872" lon="5.64494">
        <ele>495.3</ele>
        <time>2016-05-21T11:25:28Z</time>
      </trkpt>
      <trkpt lat="45.37874" lon="5.64509">
        <ele>494.5</ele>
        <time>2016-05-21T11:25:30Z</time>
      </trkpt>
      <trkpt lat="45.37875" lon="5.64527">
        <ele>494.8</ele>
        <time>2016-05-21T11:25:32Z</time>
      </trkpt>
      <trkpt lat="45.37875" lon="5.64545">
        <ele>495</ele>
        <time>2016-05-21T11:25:34Z</time>
      </trkpt>
      <trkpt lat="45.37871" lon="5.64561">
        <ele>495.6</ele>
        <time>2016-05-21T11:25:36Z</time>
      </trkpt>
      <trkpt lat="45.37865" lon="5.64577">
        <ele>496</ele>
        <time>2016-05-21T11:25:38Z</time>
      </trkpt>
      <trkpt lat="45.37861" lon="5.64587">
        <ele>496.9</ele>
        <time>2016-05-21T11:25:40Z</time>
      </trkpt>
      <trkpt lat="45.37855" lon="5.64599">
        <ele>496.3</ele>
        <time>2016-05-21T11:25:42Z</time>
      </trkpt>
      <trkpt lat="45.37849" lon="5.6461">
        <ele>495.3</ele>
        <time>2016-05-21T11:25:44Z</time>
      </trkpt>
      <trkpt lat="45.37841" lon="5.64622">
        <ele>495.8</ele>
        <time>2016-05-21T11:25:46Z</time>
      </trkpt>
      <trkpt lat="45.37834" lon="5.64634">
        <ele>496.5</ele>
        <time>2016-05-21T11:25:48Z</time>
      </trkpt>
      <trkpt lat="45.37826" lon="5.64648">
        <ele>496.5</ele>
        <time>2016-05-21T11:25:50Z</time>
      </trkpt>
      <trkpt lat="45.37819" lon="5.64659">
        <ele>496</ele>
        <time>2016-05-21T11:25:52Z</time>
      </trkpt>
      <trkpt lat="45.37811" lon="5.64663">
        <ele>496</ele>
        <time>2016-05-21T11:25:54Z</time>
      </trkpt>
      <trkpt lat="45.37804" lon="5.64659">
        <ele>495.5</ele>
        <time>2016-05-21T11:25:56Z</time>
      </trkpt>
      <trkpt lat="45.37798" lon="5.64651">
        <ele>495.1</ele>
        <time>2016-05-21T11:25:58Z</time>
      </trkpt>
      <trkpt lat="45.37789" lon="5.64641">
        <ele>496.7</ele>
        <time>2016-05-21T11:26:00Z</time>
      </trkpt>
      <trkpt lat="45.37777" lon="5.64632">
        <ele>497.3</ele>
        <time>2016-05-21T11:26:02Z</time>
      </trkpt>
      <trkpt lat="45.37766" lon="5.64619">
        <ele>499.6</ele>
        <time>2016-05-21T11:26:04Z</time>
      </trkpt>
      <trkpt lat="45.3776" lon="5.64612">
        <ele>500.7</ele>
        <time>2016-05-21T11:26:05Z</time>
      </trkpt>
      <trkpt lat="45.37755" lon="5.64605">
        <ele>500.9</ele>
        <time>2016-05-21T11:26:06Z</time>
      </trkpt>
      <trkpt lat="45.37749" lon="5.64597">
        <ele>501.1</ele>
        <time>2016-05-21T11:26:07Z</time>
      </trkpt>
      <trkpt lat="45.3774" lon="5.64586">
        <ele>502.4</ele>
        <time>2016-05-21T11:26:09Z</time>
      </trkpt>
      <trkpt lat="45.37731" lon="5.64578">
        <ele>503.4</ele>
        <time>2016-05-21T11:26:11Z</time>
      </trkpt>
      <trkpt lat="45.37723" lon="5.6457">
        <ele>503.5</ele>
        <time>2016-05-21T11:26:13Z</time>
      </trkpt>
      <trkpt lat="45.37717" lon="5.64562">
        <ele>501.4</ele>
        <time>2016-05-21T11:26:15Z</time>
      </trkpt>
      <trkpt lat="45.37707" lon="5.64553">
        <ele>500.1</ele>
        <time>2016-05-21T11:26:17Z</time>
      </trkpt>
      <trkpt lat="45.37695" lon="5.64541">
        <ele>498.4</ele>
        <time>2016-05-21T11:26:19Z</time>
      </trkpt>
      <trkpt lat="45.37689" lon="5.64535">
        <ele>497.3</ele>
        <time>2016-05-21T11:26:20Z</time>
      </trkpt>
      <trkpt lat="45.37681" lon="5.64529">
        <ele>496.3</ele>
        <time>2016-05-21T11:26:21Z</time>
      </trkpt>
      <trkpt lat="45.37673" lon="5.64523">
        <ele>495</ele>
        <time>2016-05-21T11:26:22Z</time>
      </trkpt>
      <trkpt lat="45.37666" lon="5.64518">
        <ele>492.7</ele>
        <time>2016-05-21T11:26:23Z</time>
      </trkpt>
      <trkpt lat="45.37656" lon="5.64517">
        <ele>491.2</ele>
        <time>2016-05-21T11:26:24Z</time>
      </trkpt>
      <trkpt lat="45.37647" lon="5.64516">
        <ele>490.5</ele>
        <time>2016-05-21T11:26:25Z</time>
      </trkpt>
      <trkpt lat="45.37638" lon="5.64516">
        <ele>490.3</ele>
        <time>2016-05-21T11:26:26Z</time>
      </trkpt>
      <trkpt lat="45.37628" lon="5.64515">
        <ele>490.2</ele>
        <time>2016-05-21T11:26:27Z</time>
      </trkpt>
      <trkpt lat="45.37619" lon="5.64514">
        <ele>490.3</ele>
        <time>2016-05-21T11:26:28Z</time>
      </trkpt>
      <trkpt lat="45.3761" lon="5.64513">
        <ele>490.4</ele>
        <time>2016-05-21T11:26:29Z</time>
      </trkpt>
      <trkpt lat="45.376" lon="5.64511">
        <ele>490.8</ele>
        <time>2016-05-21T11:26:30Z</time>
      </trkpt>
      <trkpt lat="45.37591" lon="5.6451">
        <ele>490.8</ele>
        <time>2016-05-21T11:26:31Z</time>
      </trkpt>
      <trkpt lat="45.37582" lon="5.64508">
        <ele>490.3</ele>
        <time>2016-05-21T11:26:32Z</time>
      </trkpt>
      <trkpt lat="45.37572" lon="5.64507">
        <ele>490.8</ele>
        <time>2016-05-21T11:26:33Z</time>
      </trkpt>
      <trkpt lat="45.37563" lon="5.64505">
        <ele>490.9</ele>
        <time>2016-05-21T11:26:34Z</time>
      </trkpt>
      <trkpt lat="45.37553" lon="5.64503">
        <ele>491</ele>
        <time>2016-05-21T11:26:35Z</time>
      </trkpt>
      <trkpt lat="45.37543" lon="5.64502">
        <ele>492.5</ele>
        <time>2016-05-21T11:26:36Z</time>
      </trkpt>
      <trkpt lat="45.37533" lon="5.645">
        <ele>493.3</ele>
        <time>2016-05-21T11:26:37Z</time>
      </trkpt>
      <trkpt lat="45.37522" lon="5.64498">
        <ele>493.4</ele>
        <time>2016-05-21T11:26:38Z</time>
      </trkpt>
      <trkpt lat="45.37511" lon="5.64497">
        <ele>493.4</ele>
        <time>2016-05-21T11:26:39Z</time>
      </trkpt>
      <trkpt lat="45.37502" lon="5.64494">
        <ele>493.6</ele>
        <time>2016-05-21T11:26:40Z</time>
      </trkpt>
      <trkpt lat="45.37493" lon="5.64491">
        <ele>494.3</ele>
        <time>2016-05-21T11:26:41Z</time>
      </trkpt>
      <trkpt lat="45.37483" lon="5.64489">
        <ele>494.8</ele>
        <time>2016-05-21T11:26:42Z</time>
      </trkpt>
      <trkpt lat="45.37471" lon="5.64485">
        <ele>495.3</ele>
        <time>2016-05-21T11:26:43Z</time>
      </trkpt>
      <trkpt lat="45.3746" lon="5.64482">
        <ele>495.7</ele>
        <time>2016-05-21T11:26:44Z</time>
      </trkpt>
      <trkpt lat="45.37449" lon="5.64479">
        <ele>496.5</ele>
        <time>2016-05-21T11:26:45Z</time>
      </trkpt>
      <trkpt lat="45.37438" lon="5.64476">
        <ele>497.9</ele>
        <time>2016-05-21T11:26:46Z</time>
      </trkpt>
      <trkpt lat="45.37427" lon="5.64471">
        <ele>497.4</ele>
        <time>2016-05-21T11:26:47Z</time>
      </trkpt>
      <trkpt lat="45.37417" lon="5.64466">
        <ele>496.8</ele>
        <time>2016-05-21T11:26:48Z</time>
      </trkpt>
      <trkpt lat="45.37406" lon="5.64462">
        <ele>496.9</ele>
        <time>2016-05-21T11:26:49Z</time>
      </trkpt>
      <trkpt lat="45.37395" lon="5.64457">
        <ele>497.2</ele>
        <time>2016-05-21T11:26:50Z</time>
      </trkpt>
      <trkpt lat="45.37383" lon="5.64451">
        <ele>497.3</ele>
        <time>2016-05-21T11:26:51Z</time>
      </trkpt>
      <trkpt lat="45.37374" lon="5.64445">
        <ele>497.3</ele>
        <time>2016-05-21T11:26:52Z</time>
      </trkpt>
      <trkpt lat="45.37364" lon="5.64438">
        <ele>497.4</ele>
        <time>2016-05-21T11:26:53Z</time>
      </trkpt>
      <trkpt lat="45.37353" lon="5.64431">
        <ele>497.6</ele>
        <time>2016-05-21T11:26:54Z</time>
      </trkpt>
      <trkpt lat="45.37342" lon="5.64424">
        <ele>496.9</ele>
        <time>2016-05-21T11:26:55Z</time>
      </trkpt>
      <trkpt lat="45.37332" lon="5.64416">
        <ele>495.4</ele>
        <time>2016-05-21T11:26:56Z</time>
      </trkpt>
      <trkpt lat="45.37322" lon="5.64409">
        <ele>494.2</ele>
        <time>2016-05-21T11:26:57Z</time>
      </trkpt>
      <trkpt lat="45.37312" lon="5.64402">
        <ele>493.2</ele>
        <time>2016-05-21T11:26:58Z</time>
      </trkpt>
      <trkpt lat="45.37301" lon="5.64394">
        <ele>492.4</ele>
        <time>2016-05-21T11:26:59Z</time>
      </trkpt>
      <trkpt lat="45.3729" lon="5.64387">
        <ele>491.9</ele>
        <time>2016-05-21T11:27:00Z</time>
      </trkpt>
      <trkpt lat="45.37279" lon="5.64379">
        <ele>491.5</ele>
        <time>2016-05-21T11:27:01Z</time>
      </trkpt>
      <trkpt lat="45.37269" lon="5.64371">
        <ele>491.7</ele>
        <time>2016-05-21T11:27:02Z</time>
      </trkpt>
      <trkpt lat="45.37259" lon="5.64363">
        <ele>491.5</ele>
        <time>2016-05-21T11:27:03Z</time>
      </trkpt>
      <trkpt lat="45.3725" lon="5.64355">
        <ele>489.9</ele>
        <time>2016-05-21T11:27:04Z</time>
      </trkpt>
      <trkpt lat="45.37239" lon="5.64346">
        <ele>489</ele>
        <time>2016-05-21T11:27:05Z</time>
      </trkpt>
      <trkpt lat="45.3723" lon="5.64338">
        <ele>488.2</ele>
        <time>2016-05-21T11:27:06Z</time>
      </trkpt>
      <trkpt lat="45.3722" lon="5.6433">
        <ele>487.7</ele>
        <time>2016-05-21T11:27:07Z</time>
      </trkpt>
      <trkpt lat="45.3721" lon="5.64323">
        <ele>487.7</ele>
        <time>2016-05-21T11:27:08Z</time>
      </trkpt>
      <trkpt lat="45.37202" lon="5.64316">
        <ele>487</ele>
        <time>2016-05-21T11:27:09Z</time>
      </trkpt>
      <trkpt lat="45.37193" lon="5.6431">
        <ele>486.5</ele>
        <time>2016-05-21T11:27:10Z</time>
      </trkpt>
      <trkpt lat="45.37183" lon="5.64303">
        <ele>486.1</ele>
        <time>2016-05-21T11:27:11Z</time>
      </trkpt>
      <trkpt lat="45.37174" lon="5.64295">
        <ele>486.6</ele>
        <time>2016-05-21T11:27:12Z</time>
      </trkpt>
      <trkpt lat="45.37164" lon="5.64288">
        <ele>487</ele>
        <time>2016-05-21T11:27:13Z</time>
      </trkpt>
      <trkpt lat="45.37153" lon="5.64281">
        <ele>486.7</ele>
        <time>2016-05-21T11:27:14Z</time>
      </trkpt>
      <trkpt lat="45.37142" lon="5.64274">
        <ele>486.5</ele>
        <time>2016-05-21T11:27:15Z</time>
      </trkpt>
      <trkpt lat="45.37132" lon="5.64265">
        <ele>486.1</ele>
        <time>2016-05-21T11:27:16Z</time>
      </trkpt>
      <trkpt lat="45.37121" lon="5.64256">
        <ele>484.6</ele>
        <time>2016-05-21T11:27:17Z</time>
      </trkpt>
      <trkpt lat="45.37113" lon="5.64244">
        <ele>482.4</ele>
        <time>2016-05-21T11:27:18Z</time>
      </trkpt>
      <trkpt lat="45.37106" lon="5.6423">
        <ele>480.6</ele>
        <time>2016-05-21T11:27:19Z</time>
      </trkpt>
      <trkpt lat="45.37098" lon="5.6422">
        <ele>478.7</ele>
        <time>2016-05-21T11:27:20Z</time>
      </trkpt>
      <trkpt lat="45.37092" lon="5.64205">
        <ele>477.4</ele>
        <time>2016-05-21T11:27:21Z</time>
      </trkpt>
      <trkpt lat="45.37085" lon="5.6419">
        <ele>475.9</ele>
        <time>2016-05-21T11:27:22Z</time>
      </trkpt>
      <trkpt lat="45.37079" lon="5.64174">
        <ele>475.1</ele>
        <time>2016-05-21T11:27:23Z</time>
      </trkpt>
      <trkpt lat="45.37072" lon="5.64159">
        <ele>475</ele>
        <time>2016-05-21T11:27:24Z</time>
      </trkpt>
      <trkpt lat="45.37066" lon="5.64143">
        <ele>474.9</ele>
        <time>2016-05-21T11:27:25Z</time>
      </trkpt>
      <trkpt lat="45.37059" lon="5.64127">
        <ele>474.3</ele>
        <time>2016-05-21T11:27:26Z</time>
      </trkpt>
      <trkpt lat="45.37054" lon="5.64111">
        <ele>474.2</ele>
        <time>2016-05-21T11:27:27Z</time>
      </trkpt>
      <trkpt lat="45.37048" lon="5.64096">
        <ele>473.7</ele>
        <time>2016-05-21T11:27:28Z</time>
      </trkpt>
      <trkpt lat="45.37042" lon="5.6408">
        <ele>473.4</ele>
        <time>2016-05-21T11:27:29Z</time>
      </trkpt>
      <trkpt lat="45.37036" lon="5.64064">
        <ele>473</ele>
        <time>2016-05-21T11:27:30Z</time>
      </trkpt>
      <trkpt lat="45.3703" lon="5.64049">
        <ele>472.6</ele>
        <time>2016-05-21T11:27:31Z</time>
      </trkpt>
      <trkpt lat="45.37025" lon="5.64034">
        <ele>472.4</ele>
        <time>2016-05-21T11:27:32Z</time>
      </trkpt>
      <trkpt lat="45.37019" lon="5.64019">
        <ele>472.1</ele>
        <time>2016-05-21T11:27:33Z</time>
      </trkpt>
      <trkpt lat="45.37014" lon="5.64005">
        <ele>471.9</ele>
        <time>2016-05-21T11:27:34Z</time>
      </trkpt>
      <trkpt lat="45.37009" lon="5.63991">
        <ele>471.4</ele>
        <time>2016-05-21T11:27:35Z</time>
      </trkpt>
      <trkpt lat="45.37004" lon="5.63978">
        <ele>470.9</ele>
        <time>2016-05-21T11:27:36Z</time>
      </trkpt>
      <trkpt lat="45.36998" lon="5.63965">
        <ele>470.5</ele>
        <time>2016-05-21T11:27:37Z</time>
      </trkpt>
      <trkpt lat="45.36993" lon="5.63951">
        <ele>470</ele>
        <time>2016-05-21T11:27:38Z</time>
      </trkpt>
      <trkpt lat="45.36988" lon="5.63937">
        <ele>470.2</ele>
        <time>2016-05-21T11:27:39Z</time>
      </trkpt>
      <trkpt lat="45.36983" lon="5.63924">
        <ele>470.1</ele>
        <time>2016-05-21T11:27:40Z</time>
      </trkpt>
      <trkpt lat="45.36978" lon="5.63911">
        <ele>470</ele>
        <time>2016-05-21T11:27:41Z</time>
      </trkpt>
      <trkpt lat="45.36973" lon="5.63897">
        <ele>469.9</ele>
        <time>2016-05-21T11:27:42Z</time>
      </trkpt>
      <trkpt lat="45.36968" lon="5.63882">
        <ele>470</ele>
        <time>2016-05-21T11:27:43Z</time>
      </trkpt>
      <trkpt lat="45.36962" lon="5.63869">
        <ele>469.9</ele>
        <time>2016-05-21T11:27:44Z</time>
      </trkpt>
      <trkpt lat="45.36957" lon="5.63854">
        <ele>469.6</ele>
        <time>2016-05-21T11:27:45Z</time>
      </trkpt>
      <trkpt lat="45.36952" lon="5.63841">
        <ele>468.9</ele>
        <time>2016-05-21T11:27:46Z</time>
      </trkpt>
      <trkpt lat="45.36947" lon="5.63827">
        <ele>468.1</ele>
        <time>2016-05-21T11:27:47Z</time>
      </trkpt>
      <trkpt lat="45.36943" lon="5.63815">
        <ele>468.1</ele>
        <time>2016-05-21T11:27:48Z</time>
      </trkpt>
      <trkpt lat="45.36938" lon="5.63802">
        <ele>467.4</ele>
        <time>2016-05-21T11:27:49Z</time>
      </trkpt>
      <trkpt lat="45.36933" lon="5.63789">
        <ele>466.4</ele>
        <time>2016-05-21T11:27:50Z</time>
      </trkpt>
      <trkpt lat="45.36928" lon="5.63775">
        <ele>465.3</ele>
        <time>2016-05-21T11:27:51Z</time>
      </trkpt>
      <trkpt lat="45.36923" lon="5.63762">
        <ele>464.3</ele>
        <time>2016-05-21T11:27:52Z</time>
      </trkpt>
      <trkpt lat="45.36918" lon="5.63749">
        <ele>463.1</ele>
        <time>2016-05-21T11:27:53Z</time>
      </trkpt>
      <trkpt lat="45.36913" lon="5.63735">
        <ele>462.2</ele>
        <time>2016-05-21T11:27:54Z</time>
      </trkpt>
      <trkpt lat="45.36908" lon="5.63723">
        <ele>461.2</ele>
        <time>2016-05-21T11:27:55Z</time>
      </trkpt>
      <trkpt lat="45.36903" lon="5.63709">
        <ele>460.4</ele>
        <time>2016-05-21T11:27:56Z</time>
      </trkpt>
      <trkpt lat="45.36898" lon="5.63696">
        <ele>459.8</ele>
        <time>2016-05-21T11:27:57Z</time>
      </trkpt>
      <trkpt lat="45.36894" lon="5.63683">
        <ele>459.3</ele>
        <time>2016-05-21T11:27:58Z</time>
      </trkpt>
      <trkpt lat="45.36889" lon="5.63669">
        <ele>459</ele>
        <time>2016-05-21T11:27:59Z</time>
      </trkpt>
      <trkpt lat="45.36884" lon="5.63657">
        <ele>459</ele>
        <time>2016-05-21T11:28:00Z</time>
      </trkpt>
      <trkpt lat="45.36879" lon="5.63643">
        <ele>459</ele>
        <time>2016-05-21T11:28:01Z</time>
      </trkpt>
      <trkpt lat="45.36874" lon="5.6363">
        <ele>459.1</ele>
        <time>2016-05-21T11:28:02Z</time>
      </trkpt>
      <trkpt lat="45.36869" lon="5.63618">
        <ele>459.2</ele>
        <time>2016-05-21T11:28:03Z</time>
      </trkpt>
      <trkpt lat="45.36864" lon="5.63605">
        <ele>459.3</ele>
        <time>2016-05-21T11:28:04Z</time>
      </trkpt>
      <trkpt lat="45.36859" lon="5.63591">
        <ele>460</ele>
        <time>2016-05-21T11:28:05Z</time>
      </trkpt>
      <trkpt lat="45.36853" lon="5.63577">
        <ele>460.1</ele>
        <time>2016-05-21T11:28:06Z</time>
      </trkpt>
      <trkpt lat="45.36847" lon="5.63564">
        <ele>460.4</ele>
        <time>2016-05-21T11:28:07Z</time>
      </trkpt>
      <trkpt lat="45.36842" lon="5.63551">
        <ele>460.7</ele>
        <time>2016-05-21T11:28:08Z</time>
      </trkpt>
      <trkpt lat="45.36837" lon="5.63537">
        <ele>460.8</ele>
        <time>2016-05-21T11:28:09Z</time>
      </trkpt>
      <trkpt lat="45.36832" lon="5.63525">
        <ele>460.9</ele>
        <time>2016-05-21T11:28:10Z</time>
      </trkpt>
      <trkpt lat="45.36827" lon="5.63512">
        <ele>460.9</ele>
        <time>2016-05-21T11:28:11Z</time>
      </trkpt>
      <trkpt lat="45.36822" lon="5.63499">
        <ele>460.8</ele>
        <time>2016-05-21T11:28:12Z</time>
      </trkpt>
      <trkpt lat="45.36817" lon="5.63485">
        <ele>460.9</ele>
        <time>2016-05-21T11:28:13Z</time>
      </trkpt>
      <trkpt lat="45.36812" lon="5.63472">
        <ele>461.1</ele>
        <time>2016-05-21T11:28:14Z</time>
      </trkpt>
      <trkpt lat="45.36807" lon="5.63458">
        <ele>460.9</ele>
        <time>2016-05-21T11:28:15Z</time>
      </trkpt>
      <trkpt lat="45.36802" lon="5.63446">
        <ele>460.6</ele>
        <time>2016-05-21T11:28:16Z</time>
      </trkpt>
      <trkpt lat="45.36798" lon="5.63432">
        <ele>460.1</ele>
        <time>2016-05-21T11:28:17Z</time>
      </trkpt>
      <trkpt lat="45.36793" lon="5.63418">
        <ele>459.7</ele>
        <time>2016-05-21T11:28:18Z</time>
      </trkpt>
      <trkpt lat="45.36787" lon="5.63407">
        <ele>458.9</ele>
        <time>2016-05-21T11:28:19Z</time>
      </trkpt>
      <trkpt lat="45.36782" lon="5.63395">
        <ele>457.8</ele>
        <time>2016-05-21T11:28:20Z</time>
      </trkpt>
      <trkpt lat="45.36776" lon="5.63383">
        <ele>457.3</ele>
        <time>2016-05-21T11:28:21Z</time>
      </trkpt>
      <trkpt lat="45.36771" lon="5.63371">
        <ele>457.3</ele>
        <time>2016-05-21T11:28:22Z</time>
      </trkpt>
      <trkpt lat="45.36766" lon="5.63358">
        <ele>457.7</ele>
        <time>2016-05-21T11:28:23Z</time>
      </trkpt>
      <trkpt lat="45.36761" lon="5.63343">
        <ele>458</ele>
        <time>2016-05-21T11:28:24Z</time>
      </trkpt>
      <trkpt lat="45.36757" lon="5.63329">
        <ele>458.1</ele>
        <time>2016-05-21T11:28:25Z</time>
      </trkpt>
      <trkpt lat="45.36754" lon="5.63314">
        <ele>458.1</ele>
        <time>2016-05-21T11:28:26Z</time>
      </trkpt>
      <trkpt lat="45.36752" lon="5.63299">
        <ele>457</ele>
        <time>2016-05-21T11:28:27Z</time>
      </trkpt>
      <trkpt lat="45.36751" lon="5.63284">
        <ele>456.9</ele>
        <time>2016-05-21T11:28:28Z</time>
      </trkpt>
      <trkpt lat="45.36749" lon="5.6327">
        <ele>456.8</ele>
        <time>2016-05-21T11:28:29Z</time>
      </trkpt>
      <trkpt lat="45.36747" lon="5.63254">
        <ele>457.3</ele>
        <time>2016-05-21T11:28:30Z</time>
      </trkpt>
      <trkpt lat="45.36745" lon="5.6324">
        <ele>457.9</ele>
        <time>2016-05-21T11:28:31Z</time>
      </trkpt>
      <trkpt lat="45.36743" lon="5.63226">
        <ele>457.9</ele>
        <time>2016-05-21T11:28:32Z</time>
      </trkpt>
      <trkpt lat="45.36741" lon="5.63211">
        <ele>457.6</ele>
        <time>2016-05-21T11:28:33Z</time>
      </trkpt>
      <trkpt lat="45.3674" lon="5.63197">
        <ele>456.8</ele>
        <time>2016-05-21T11:28:34Z</time>
      </trkpt>
      <trkpt lat="45.36739" lon="5.63182">
        <ele>455.9</ele>
        <time>2016-05-21T11:28:35Z</time>
      </trkpt>
      <trkpt lat="45.36738" lon="5.63167">
        <ele>455.2</ele>
        <time>2016-05-21T11:28:36Z</time>
      </trkpt>
      <trkpt lat="45.36737" lon="5.63153">
        <ele>454.6</ele>
        <time>2016-05-21T11:28:37Z</time>
      </trkpt>
      <trkpt lat="45.36736" lon="5.63139">
        <ele>453.8</ele>
        <time>2016-05-21T11:28:38Z</time>
      </trkpt>
      <trkpt lat="45.36736" lon="5.63125">
        <ele>452.8</ele>
        <time>2016-05-21T11:28:39Z</time>
      </trkpt>
      <trkpt lat="45.36735" lon="5.63111">
        <ele>451.6</ele>
        <time>2016-05-21T11:28:40Z</time>
      </trkpt>
      <trkpt lat="45.36733" lon="5.63097">
        <ele>450</ele>
        <time>2016-05-21T11:28:41Z</time>
      </trkpt>
      <trkpt lat="45.36732" lon="5.63083">
        <ele>448.7</ele>
        <time>2016-05-21T11:28:42Z</time>
      </trkpt>
      <trkpt lat="45.36731" lon="5.63068">
        <ele>448.5</ele>
        <time>2016-05-21T11:28:43Z</time>
      </trkpt>
      <trkpt lat="45.3673" lon="5.63053">
        <ele>448.6</ele>
        <time>2016-05-21T11:28:44Z</time>
      </trkpt>
      <trkpt lat="45.36729" lon="5.63038">
        <ele>448.5</ele>
        <time>2016-05-21T11:28:45Z</time>
      </trkpt>
      <trkpt lat="45.36727" lon="5.63024">
        <ele>447.8</ele>
        <time>2016-05-21T11:28:46Z</time>
      </trkpt>
      <trkpt lat="45.36726" lon="5.6301">
        <ele>447.3</ele>
        <time>2016-05-21T11:28:47Z</time>
      </trkpt>
      <trkpt lat="45.36724" lon="5.62995">
        <ele>446.9</ele>
        <time>2016-05-21T11:28:48Z</time>
      </trkpt>
      <trkpt lat="45.36722" lon="5.62981">
        <ele>446.8</ele>
        <time>2016-05-21T11:28:49Z</time>
      </trkpt>
      <trkpt lat="45.3672" lon="5.62967">
        <ele>447.1</ele>
        <time>2016-05-21T11:28:50Z</time>
      </trkpt>
      <trkpt lat="45.36719" lon="5.62952">
        <ele>447.9</ele>
        <time>2016-05-21T11:28:51Z</time>
      </trkpt>
      <trkpt lat="45.36718" lon="5.62937">
        <ele>448.3</ele>
        <time>2016-05-21T11:28:52Z</time>
      </trkpt>
      <trkpt lat="45.36717" lon="5.62922">
        <ele>448.3</ele>
        <time>2016-05-21T11:28:53Z</time>
      </trkpt>
      <trkpt lat="45.36717" lon="5.62907">
        <ele>447.4</ele>
        <time>2016-05-21T11:28:54Z</time>
      </trkpt>
      <trkpt lat="45.36717" lon="5.62892">
        <ele>446.4</ele>
        <time>2016-05-21T11:28:55Z</time>
      </trkpt>
      <trkpt lat="45.36716" lon="5.62878">
        <ele>446</ele>
        <time>2016-05-21T11:28:56Z</time>
      </trkpt>
      <trkpt lat="45.36715" lon="5.62864">
        <ele>445.8</ele>
        <time>2016-05-21T11:28:57Z</time>
      </trkpt>
      <trkpt lat="45.36714" lon="5.6285">
        <ele>445.5</ele>
        <time>2016-05-21T11:28:58Z</time>
      </trkpt>
      <trkpt lat="45.36713" lon="5.62837">
        <ele>445.3</ele>
        <time>2016-05-21T11:28:59Z</time>
      </trkpt>
      <trkpt lat="45.36712" lon="5.62823">
        <ele>445.5</ele>
        <time>2016-05-21T11:29:00Z</time>
      </trkpt>
      <trkpt lat="45.3671" lon="5.62809">
        <ele>446.1</ele>
        <time>2016-05-21T11:29:01Z</time>
      </trkpt>
      <trkpt lat="45.36709" lon="5.62795">
        <ele>446.4</ele>
        <time>2016-05-21T11:29:02Z</time>
      </trkpt>
      <trkpt lat="45.36707" lon="5.62782">
        <ele>446.6</ele>
        <time>2016-05-21T11:29:03Z</time>
      </trkpt>
      <trkpt lat="45.36706" lon="5.62768">
        <ele>446.7</ele>
        <time>2016-05-21T11:29:04Z</time>
      </trkpt>
      <trkpt lat="45.36705" lon="5.62755">
        <ele>446.6</ele>
        <time>2016-05-21T11:29:05Z</time>
      </trkpt>
      <trkpt lat="45.36704" lon="5.62741">
        <ele>446.5</ele>
        <time>2016-05-21T11:29:06Z</time>
      </trkpt>
      <trkpt lat="45.36702" lon="5.62728">
        <ele>446.4</ele>
        <time>2016-05-21T11:29:07Z</time>
      </trkpt>
      <trkpt lat="45.36702" lon="5.62715">
        <ele>446.7</ele>
        <time>2016-05-21T11:29:08Z</time>
      </trkpt>
      <trkpt lat="45.36701" lon="5.62703">
        <ele>446.9</ele>
        <time>2016-05-21T11:29:09Z</time>
      </trkpt>
      <trkpt lat="45.367" lon="5.6269">
        <ele>447.3</ele>
        <time>2016-05-21T11:29:10Z</time>
      </trkpt>
      <trkpt lat="45.36698" lon="5.62676">
        <ele>447.3</ele>
        <time>2016-05-21T11:29:11Z</time>
      </trkpt>
      <trkpt lat="45.36697" lon="5.62663">
        <ele>447.1</ele>
        <time>2016-05-21T11:29:12Z</time>
      </trkpt>
      <trkpt lat="45.36696" lon="5.62651">
        <ele>446.8</ele>
        <time>2016-05-21T11:29:13Z</time>
      </trkpt>
      <trkpt lat="45.36695" lon="5.62638">
        <ele>446.6</ele>
        <time>2016-05-21T11:29:14Z</time>
      </trkpt>
      <trkpt lat="45.36694" lon="5.62626">
        <ele>446.4</ele>
        <time>2016-05-21T11:29:15Z</time>
      </trkpt>
      <trkpt lat="45.36694" lon="5.62613">
        <ele>445.9</ele>
        <time>2016-05-21T11:29:16Z</time>
      </trkpt>
      <trkpt lat="45.36693" lon="5.626">
        <ele>445.3</ele>
        <time>2016-05-21T11:29:17Z</time>
      </trkpt>
      <trkpt lat="45.36692" lon="5.62587">
        <ele>445.1</ele>
        <time>2016-05-21T11:29:18Z</time>
      </trkpt>
      <trkpt lat="45.3669" lon="5.62576">
        <ele>445.1</ele>
        <time>2016-05-21T11:29:19Z</time>
      </trkpt>
      <trkpt lat="45.36688" lon="5.62565">
        <ele>445</ele>
        <time>2016-05-21T11:29:20Z</time>
      </trkpt>
      <trkpt lat="45.36687" lon="5.62553">
        <ele>445.7</ele>
        <time>2016-05-21T11:29:21Z</time>
      </trkpt>
      <trkpt lat="45.36686" lon="5.6254">
        <ele>446</ele>
        <time>2016-05-21T11:29:22Z</time>
      </trkpt>
      <trkpt lat="45.36685" lon="5.62529">
        <ele>446</ele>
        <time>2016-05-21T11:29:23Z</time>
      </trkpt>
      <trkpt lat="45.36683" lon="5.62509">
        <ele>448.4</ele>
        <time>2016-05-21T11:29:25Z</time>
      </trkpt>
      <trkpt lat="45.36681" lon="5.62495">
        <ele>448.5</ele>
        <time>2016-05-21T11:29:26Z</time>
      </trkpt>
      <trkpt lat="45.3668" lon="5.62483">
        <ele>447.8</ele>
        <time>2016-05-21T11:29:27Z</time>
      </trkpt>
      <trkpt lat="45.36679" lon="5.62472">
        <ele>447.9</ele>
        <time>2016-05-21T11:29:28Z</time>
      </trkpt>
      <trkpt lat="45.36678" lon="5.6246">
        <ele>447.5</ele>
        <time>2016-05-21T11:29:29Z</time>
      </trkpt>
      <trkpt lat="45.36678" lon="5.6245">
        <ele>447.4</ele>
        <time>2016-05-21T11:29:30Z</time>
      </trkpt>
      <trkpt lat="45.36674" lon="5.62431">
        <ele>445.5</ele>
        <time>2016-05-21T11:29:32Z</time>
      </trkpt>
      <trkpt lat="45.36671" lon="5.62412">
        <ele>444</ele>
        <time>2016-05-21T11:29:34Z</time>
      </trkpt>
      <trkpt lat="45.36667" lon="5.62395">
        <ele>443.9</ele>
        <time>2016-05-21T11:29:36Z</time>
      </trkpt>
      <trkpt lat="45.36663" lon="5.62377">
        <ele>445.1</ele>
        <time>2016-05-21T11:29:38Z</time>
      </trkpt>
      <trkpt lat="45.36658" lon="5.6236">
        <ele>447.1</ele>
        <time>2016-05-21T11:29:40Z</time>
      </trkpt>
      <trkpt lat="45.36653" lon="5.62344">
        <ele>448.1</ele>
        <time>2016-05-21T11:29:42Z</time>
      </trkpt>
      <trkpt lat="45.36646" lon="5.62327">
        <ele>448.6</ele>
        <time>2016-05-21T11:29:44Z</time>
      </trkpt>
      <trkpt lat="45.36639" lon="5.6231">
        <ele>449.7</ele>
        <time>2016-05-21T11:29:46Z</time>
      </trkpt>
      <trkpt lat="45.36632" lon="5.62294">
        <ele>450.2</ele>
        <time>2016-05-21T11:29:48Z</time>
      </trkpt>
      <trkpt lat="45.36625" lon="5.62277">
        <ele>449.7</ele>
        <time>2016-05-21T11:29:50Z</time>
      </trkpt>
      <trkpt lat="45.36618" lon="5.62261">
        <ele>448.8</ele>
        <time>2016-05-21T11:29:52Z</time>
      </trkpt>
      <trkpt lat="45.36611" lon="5.62247">
        <ele>446.9</ele>
        <time>2016-05-21T11:29:54Z</time>
      </trkpt>
      <trkpt lat="45.36603" lon="5.62224">
        <ele>447.9</ele>
        <time>2016-05-21T11:29:57Z</time>
      </trkpt>
      <trkpt lat="45.36594" lon="5.62211">
        <ele>448.2</ele>
        <time>2016-05-21T11:29:59Z</time>
      </trkpt>
      <trkpt lat="45.36585" lon="5.62201">
        <ele>449.5</ele>
        <time>2016-05-21T11:30:01Z</time>
      </trkpt>
      <trkpt lat="45.36577" lon="5.62192">
        <ele>448.8</ele>
        <time>2016-05-21T11:30:03Z</time>
      </trkpt>
      <trkpt lat="45.36567" lon="5.62181">
        <ele>448.5</ele>
        <time>2016-05-21T11:30:05Z</time>
      </trkpt>
      <trkpt lat="45.36558" lon="5.62171">
        <ele>448.6</ele>
        <time>2016-05-21T11:30:07Z</time>
      </trkpt>
      <trkpt lat="45.3655" lon="5.62163">
        <ele>448.7</ele>
        <time>2016-05-21T11:30:09Z</time>
      </trkpt>
      <trkpt lat="45.36541" lon="5.62155">
        <ele>448.6</ele>
        <time>2016-05-21T11:30:11Z</time>
      </trkpt>
      <trkpt lat="45.36532" lon="5.62146">
        <ele>449.2</ele>
        <time>2016-05-21T11:30:13Z</time>
      </trkpt>
      <trkpt lat="45.36525" lon="5.62136">
        <ele>449.2</ele>
        <time>2016-05-21T11:30:15Z</time>
      </trkpt>
      <trkpt lat="45.36519" lon="5.62126">
        <ele>449.4</ele>
        <time>2016-05-21T11:30:17Z</time>
      </trkpt>
      <trkpt lat="45.36512" lon="5.62117">
        <ele>449.2</ele>
        <time>2016-05-21T11:30:19Z</time>
      </trkpt>
      <trkpt lat="45.36503" lon="5.62113">
        <ele>449.1</ele>
        <time>2016-05-21T11:30:21Z</time>
      </trkpt>
      <trkpt lat="45.36494" lon="5.62113">
        <ele>449.1</ele>
        <time>2016-05-21T11:30:23Z</time>
      </trkpt>
      <trkpt lat="45.36483" lon="5.62112">
        <ele>448.6</ele>
        <time>2016-05-21T11:30:25Z</time>
      </trkpt>
      <trkpt lat="45.36476" lon="5.62112">
        <ele>448.3</ele>
        <time>2016-05-21T11:30:26Z</time>
      </trkpt>
      <trkpt lat="45.36468" lon="5.62111">
        <ele>448.2</ele>
        <time>2016-05-21T11:30:27Z</time>
      </trkpt>
      <trkpt lat="45.3646" lon="5.62111">
        <ele>448.2</ele>
        <time>2016-05-21T11:30:28Z</time>
      </trkpt>
      <trkpt lat="45.36453" lon="5.62112">
        <ele>448.1</ele>
        <time>2016-05-21T11:30:29Z</time>
      </trkpt>
      <trkpt lat="45.36444" lon="5.62112">
        <ele>447.5</ele>
        <time>2016-05-21T11:30:30Z</time>
      </trkpt>
      <trkpt lat="45.36435" lon="5.62113">
        <ele>447.3</ele>
        <time>2016-05-21T11:30:31Z</time>
      </trkpt>
      <trkpt lat="45.36425" lon="5.62114">
        <ele>447.1</ele>
        <time>2016-05-21T11:30:32Z</time>
      </trkpt>
      <trkpt lat="45.36416" lon="5.62115">
        <ele>446.7</ele>
        <time>2016-05-21T11:30:33Z</time>
      </trkpt>
      <trkpt lat="45.36406" lon="5.62118">
        <ele>446</ele>
        <time>2016-05-21T11:30:34Z</time>
      </trkpt>
      <trkpt lat="45.36398" lon="5.62124">
        <ele>445.2</ele>
        <time>2016-05-21T11:30:35Z</time>
      </trkpt>
      <trkpt lat="45.36389" lon="5.62131">
        <ele>445</ele>
        <time>2016-05-21T11:30:36Z</time>
      </trkpt>
      <trkpt lat="45.3638" lon="5.62138">
        <ele>444.4</ele>
        <time>2016-05-21T11:30:37Z</time>
      </trkpt>
      <trkpt lat="45.36369" lon="5.62142">
        <ele>443.6</ele>
        <time>2016-05-21T11:30:38Z</time>
      </trkpt>
      <trkpt lat="45.36358" lon="5.62146">
        <ele>442.9</ele>
        <time>2016-05-21T11:30:39Z</time>
      </trkpt>
      <trkpt lat="45.36349" lon="5.62148">
        <ele>442</ele>
        <time>2016-05-21T11:30:40Z</time>
      </trkpt>
      <trkpt lat="45.36339" lon="5.62151">
        <ele>441.9</ele>
        <time>2016-05-21T11:30:41Z</time>
      </trkpt>
      <trkpt lat="45.36328" lon="5.62153">
        <ele>441.7</ele>
        <time>2016-05-21T11:30:42Z</time>
      </trkpt>
      <trkpt lat="45.36317" lon="5.62154">
        <ele>441.3</ele>
        <time>2016-05-21T11:30:43Z</time>
      </trkpt>
      <trkpt lat="45.36306" lon="5.62154">
        <ele>441.2</ele>
        <time>2016-05-21T11:30:44Z</time>
      </trkpt>
      <trkpt lat="45.36294" lon="5.62153">
        <ele>440.7</ele>
        <time>2016-05-21T11:30:45Z</time>
      </trkpt>
      <trkpt lat="45.36283" lon="5.62154">
        <ele>440</ele>
        <time>2016-05-21T11:30:46Z</time>
      </trkpt>
      <trkpt lat="45.3627" lon="5.62156">
        <ele>439.5</ele>
        <time>2016-05-21T11:30:47Z</time>
      </trkpt>
      <trkpt lat="45.36259" lon="5.62159">
        <ele>438.8</ele>
        <time>2016-05-21T11:30:48Z</time>
      </trkpt>
      <trkpt lat="45.36247" lon="5.62163">
        <ele>437.6</ele>
        <time>2016-05-21T11:30:49Z</time>
      </trkpt>
      <trkpt lat="45.36234" lon="5.62167">
        <ele>436.4</ele>
        <time>2016-05-21T11:30:50Z</time>
      </trkpt>
      <trkpt lat="45.36222" lon="5.6217">
        <ele>435.3</ele>
        <time>2016-05-21T11:30:51Z</time>
      </trkpt>
      <trkpt lat="45.36209" lon="5.62172">
        <ele>434.5</ele>
        <time>2016-05-21T11:30:52Z</time>
      </trkpt>
      <trkpt lat="45.36196" lon="5.62174">
        <ele>433.7</ele>
        <time>2016-05-21T11:30:53Z</time>
      </trkpt>
      <trkpt lat="45.36184" lon="5.62176">
        <ele>432.7</ele>
        <time>2016-05-21T11:30:54Z</time>
      </trkpt>
      <trkpt lat="45.36172" lon="5.62177">
        <ele>431.8</ele>
        <time>2016-05-21T11:30:55Z</time>
      </trkpt>
      <trkpt lat="45.3616" lon="5.62179">
        <ele>431</ele>
        <time>2016-05-21T11:30:56Z</time>
      </trkpt>
      <trkpt lat="45.36149" lon="5.62183">
        <ele>430.2</ele>
        <time>2016-05-21T11:30:57Z</time>
      </trkpt>
      <trkpt lat="45.36137" lon="5.62187">
        <ele>429.2</ele>
        <time>2016-05-21T11:30:58Z</time>
      </trkpt>
      <trkpt lat="45.36125" lon="5.62192">
        <ele>428.6</ele>
        <time>2016-05-21T11:30:59Z</time>
      </trkpt>
      <trkpt lat="45.36113" lon="5.62196">
        <ele>428.2</ele>
        <time>2016-05-21T11:31:00Z</time>
      </trkpt>
      <trkpt lat="45.36101" lon="5.62202">
        <ele>428</ele>
        <time>2016-05-21T11:31:01Z</time>
      </trkpt>
      <trkpt lat="45.36089" lon="5.62208">
        <ele>427.9</ele>
        <time>2016-05-21T11:31:02Z</time>
      </trkpt>
      <trkpt lat="45.36077" lon="5.62213">
        <ele>427.6</ele>
        <time>2016-05-21T11:31:03Z</time>
      </trkpt>
      <trkpt lat="45.36065" lon="5.62219">
        <ele>427.6</ele>
        <time>2016-05-21T11:31:04Z</time>
      </trkpt>
      <trkpt lat="45.36052" lon="5.62224">
        <ele>427.5</ele>
        <time>2016-05-21T11:31:05Z</time>
      </trkpt>
      <trkpt lat="45.3604" lon="5.6223">
        <ele>427.6</ele>
        <time>2016-05-21T11:31:06Z</time>
      </trkpt>
      <trkpt lat="45.36028" lon="5.62236">
        <ele>427.5</ele>
        <time>2016-05-21T11:31:07Z</time>
      </trkpt>
      <trkpt lat="45.36016" lon="5.62242">
        <ele>427.5</ele>
        <time>2016-05-21T11:31:08Z</time>
      </trkpt>
      <trkpt lat="45.36004" lon="5.62247">
        <ele>427.3</ele>
        <time>2016-05-21T11:31:09Z</time>
      </trkpt>
      <trkpt lat="45.35993" lon="5.62252">
        <ele>427.2</ele>
        <time>2016-05-21T11:31:10Z</time>
      </trkpt>
      <trkpt lat="45.35982" lon="5.62258">
        <ele>427.2</ele>
        <time>2016-05-21T11:31:11Z</time>
      </trkpt>
      <trkpt lat="45.3597" lon="5.62264">
        <ele>426.9</ele>
        <time>2016-05-21T11:31:12Z</time>
      </trkpt>
      <trkpt lat="45.35958" lon="5.62269">
        <ele>426.7</ele>
        <time>2016-05-21T11:31:13Z</time>
      </trkpt>
      <trkpt lat="45.35945" lon="5.62273">
        <ele>426.3</ele>
        <time>2016-05-21T11:31:14Z</time>
      </trkpt>
      <trkpt lat="45.35933" lon="5.62276">
        <ele>425.4</ele>
        <time>2016-05-21T11:31:15Z</time>
      </trkpt>
      <trkpt lat="45.35919" lon="5.62277">
        <ele>424.7</ele>
        <time>2016-05-21T11:31:16Z</time>
      </trkpt>
      <trkpt lat="45.35906" lon="5.62278">
        <ele>424.2</ele>
        <time>2016-05-21T11:31:17Z</time>
      </trkpt>
      <trkpt lat="45.35893" lon="5.62278">
        <ele>423.4</ele>
        <time>2016-05-21T11:31:18Z</time>
      </trkpt>
      <trkpt lat="45.35879" lon="5.62277">
        <ele>421.3</ele>
        <time>2016-05-21T11:31:19Z</time>
      </trkpt>
      <trkpt lat="45.35866" lon="5.62271">
        <ele>419.6</ele>
        <time>2016-05-21T11:31:20Z</time>
      </trkpt>
      <trkpt lat="45.35854" lon="5.62264">
        <ele>418.5</ele>
        <time>2016-05-21T11:31:21Z</time>
      </trkpt>
      <trkpt lat="45.35842" lon="5.62256">
        <ele>417.4</ele>
        <time>2016-05-21T11:31:22Z</time>
      </trkpt>
      <trkpt lat="45.35831" lon="5.62248">
        <ele>416.1</ele>
        <time>2016-05-21T11:31:23Z</time>
      </trkpt>
      <trkpt lat="45.3582" lon="5.62239">
        <ele>415.1</ele>
        <time>2016-05-21T11:31:24Z</time>
      </trkpt>
      <trkpt lat="45.35808" lon="5.62229">
        <ele>414.2</ele>
        <time>2016-05-21T11:31:25Z</time>
      </trkpt>
      <trkpt lat="45.35797" lon="5.62219">
        <ele>413.4</ele>
        <time>2016-05-21T11:31:26Z</time>
      </trkpt>
      <trkpt lat="45.35786" lon="5.62209">
        <ele>412.9</ele>
        <time>2016-05-21T11:31:27Z</time>
      </trkpt>
      <trkpt lat="45.35774" lon="5.62199">
        <ele>412</ele>
        <time>2016-05-21T11:31:28Z</time>
      </trkpt>
      <trkpt lat="45.35763" lon="5.62189">
        <ele>411.3</ele>
        <time>2016-05-21T11:31:29Z</time>
      </trkpt>
      <trkpt lat="45.35752" lon="5.62181">
        <ele>410.6</ele>
        <time>2016-05-21T11:31:30Z</time>
      </trkpt>
      <trkpt lat="45.35741" lon="5.62176">
        <ele>410.8</ele>
        <time>2016-05-21T11:31:31Z</time>
      </trkpt>
      <trkpt lat="45.35727" lon="5.62174">
        <ele>410.8</ele>
        <time>2016-05-21T11:31:32Z</time>
      </trkpt>
      <trkpt lat="45.35713" lon="5.62174">
        <ele>410.3</ele>
        <time>2016-05-21T11:31:33Z</time>
      </trkpt>
      <trkpt lat="45.357" lon="5.62173">
        <ele>409.8</ele>
        <time>2016-05-21T11:31:34Z</time>
      </trkpt>
      <trkpt lat="45.35687" lon="5.62171">
        <ele>408.9</ele>
        <time>2016-05-21T11:31:35Z</time>
      </trkpt>
      <trkpt lat="45.35673" lon="5.62169">
        <ele>408.4</ele>
        <time>2016-05-21T11:31:36Z</time>
      </trkpt>
      <trkpt lat="45.3566" lon="5.62162">
        <ele>408.1</ele>
        <time>2016-05-21T11:31:37Z</time>
      </trkpt>
      <trkpt lat="45.35647" lon="5.62154">
        <ele>407</ele>
        <time>2016-05-21T11:31:38Z</time>
      </trkpt>
      <trkpt lat="45.35636" lon="5.62141">
        <ele>406.5</ele>
        <time>2016-05-21T11:31:39Z</time>
      </trkpt>
      <trkpt lat="45.35626" lon="5.6213">
        <ele>405.9</ele>
        <time>2016-05-21T11:31:40Z</time>
      </trkpt>
      <trkpt lat="45.35617" lon="5.62118">
        <ele>405.2</ele>
        <time>2016-05-21T11:31:41Z</time>
      </trkpt>
      <trkpt lat="45.35609" lon="5.62102">
        <ele>404.7</ele>
        <time>2016-05-21T11:31:42Z</time>
      </trkpt>
      <trkpt lat="45.35602" lon="5.62086">
        <ele>403.6</ele>
        <time>2016-05-21T11:31:43Z</time>
      </trkpt>
      <trkpt lat="45.35596" lon="5.62067">
        <ele>402.8</ele>
        <time>2016-05-21T11:31:44Z</time>
      </trkpt>
      <trkpt lat="45.35592" lon="5.62052">
        <ele>402.1</ele>
        <time>2016-05-21T11:31:45Z</time>
      </trkpt>
      <trkpt lat="45.35588" lon="5.62038">
        <ele>401.4</ele>
        <time>2016-05-21T11:31:46Z</time>
      </trkpt>
      <trkpt lat="45.35585" lon="5.62024">
        <ele>400.4</ele>
        <time>2016-05-21T11:31:47Z</time>
      </trkpt>
      <trkpt lat="45.35584" lon="5.62004">
        <ele>399.6</ele>
        <time>2016-05-21T11:31:48Z</time>
      </trkpt>
      <trkpt lat="45.35583" lon="5.61982">
        <ele>399.2</ele>
        <time>2016-05-21T11:31:49Z</time>
      </trkpt>
      <trkpt lat="45.35582" lon="5.61961">
        <ele>398.3</ele>
        <time>2016-05-21T11:31:50Z</time>
      </trkpt>
      <trkpt lat="45.35582" lon="5.61943">
        <ele>397.1</ele>
        <time>2016-05-21T11:31:51Z</time>
      </trkpt>
      <trkpt lat="45.35583" lon="5.61925">
        <ele>396</ele>
        <time>2016-05-21T11:31:52Z</time>
      </trkpt>
      <trkpt lat="45.35583" lon="5.61909">
        <ele>394.8</ele>
        <time>2016-05-21T11:31:53Z</time>
      </trkpt>
      <trkpt lat="45.35583" lon="5.61892">
        <ele>393.9</ele>
        <time>2016-05-21T11:31:54Z</time>
      </trkpt>
      <trkpt lat="45.35584" lon="5.61877">
        <ele>393.4</ele>
        <time>2016-05-21T11:31:55Z</time>
      </trkpt>
      <trkpt lat="45.35584" lon="5.61864">
        <ele>392.7</ele>
        <time>2016-05-21T11:31:56Z</time>
      </trkpt>
      <trkpt lat="45.35585" lon="5.61852">
        <ele>392</ele>
        <time>2016-05-21T11:31:57Z</time>
      </trkpt>
      <trkpt lat="45.35585" lon="5.61839">
        <ele>391.6</ele>
        <time>2016-05-21T11:31:58Z</time>
      </trkpt>
      <trkpt lat="45.35585" lon="5.61826">
        <ele>391.3</ele>
        <time>2016-05-21T11:31:59Z</time>
      </trkpt>
      <trkpt lat="45.35585" lon="5.61813">
        <ele>391.1</ele>
        <time>2016-05-21T11:32:00Z</time>
      </trkpt>
      <trkpt lat="45.35585" lon="5.61801">
        <ele>390.4</ele>
        <time>2016-05-21T11:32:01Z</time>
      </trkpt>
      <trkpt lat="45.35584" lon="5.61787">
        <ele>389.4</ele>
        <time>2016-05-21T11:32:02Z</time>
      </trkpt>
      <trkpt lat="45.35582" lon="5.61773">
        <ele>389.4</ele>
        <time>2016-05-21T11:32:03Z</time>
      </trkpt>
      <trkpt lat="45.35581" lon="5.61761">
        <ele>388.7</ele>
        <time>2016-05-21T11:32:04Z</time>
      </trkpt>
      <trkpt lat="45.35579" lon="5.61748">
        <ele>388</ele>
        <time>2016-05-21T11:32:05Z</time>
      </trkpt>
      <trkpt lat="45.35575" lon="5.61737">
        <ele>386.8</ele>
        <time>2016-05-21T11:32:06Z</time>
      </trkpt>
      <trkpt lat="45.35572" lon="5.61726">
        <ele>386.2</ele>
        <time>2016-05-21T11:32:07Z</time>
      </trkpt>
      <trkpt lat="45.35568" lon="5.61716">
        <ele>387.5</ele>
        <time>2016-05-21T11:32:08Z</time>
      </trkpt>
      <trkpt lat="45.35562" lon="5.61701">
        <ele>387.1</ele>
        <time>2016-05-21T11:32:10Z</time>
      </trkpt>
      <trkpt lat="45.35556" lon="5.61686">
        <ele>386.8</ele>
        <time>2016-05-21T11:32:12Z</time>
      </trkpt>
      <trkpt lat="45.35553" lon="5.61674">
        <ele>386.6</ele>
        <time>2016-05-21T11:32:14Z</time>
      </trkpt>
      <trkpt lat="45.35551" lon="5.61663">
        <ele>385.8</ele>
        <time>2016-05-21T11:32:16Z</time>
      </trkpt>
      <trkpt lat="45.35558" lon="5.61655">
        <ele>386.5</ele>
        <time>2016-05-21T11:32:18Z</time>
      </trkpt>
      <trkpt lat="45.3557" lon="5.6165">
        <ele>387.9</ele>
        <time>2016-05-21T11:32:20Z</time>
      </trkpt>
      <trkpt lat="45.35577" lon="5.61646">
        <ele>388.6</ele>
        <time>2016-05-21T11:32:21Z</time>
      </trkpt>
      <trkpt lat="45.35584" lon="5.61642">
        <ele>389.4</ele>
        <time>2016-05-21T11:32:22Z</time>
      </trkpt>
      <trkpt lat="45.35598" lon="5.61633">
        <ele>391.8</ele>
        <time>2016-05-21T11:32:24Z</time>
      </trkpt>
      <trkpt lat="45.35606" lon="5.61626">
        <ele>393.4</ele>
        <time>2016-05-21T11:32:25Z</time>
      </trkpt>
      <trkpt lat="45.35608" lon="5.61612">
        <ele>394</ele>
        <time>2016-05-21T11:32:26Z</time>
      </trkpt>
      <trkpt lat="45.35609" lon="5.61598">
        <ele>394.9</ele>
        <time>2016-05-21T11:32:27Z</time>
      </trkpt>
      <trkpt lat="45.35606" lon="5.61583">
        <ele>395.2</ele>
        <time>2016-05-21T11:32:28Z</time>
      </trkpt>
      <trkpt lat="45.356" lon="5.61571">
        <ele>394.6</ele>
        <time>2016-05-21T11:32:29Z</time>
      </trkpt>
      <trkpt lat="45.35593" lon="5.6156">
        <ele>393.2</ele>
        <time>2016-05-21T11:32:30Z</time>
      </trkpt>
      <trkpt lat="45.35586" lon="5.6155">
        <ele>392</ele>
        <time>2016-05-21T11:32:31Z</time>
      </trkpt>
      <trkpt lat="45.35579" lon="5.6154">
        <ele>390.6</ele>
        <time>2016-05-21T11:32:32Z</time>
      </trkpt>
      <trkpt lat="45.35573" lon="5.61532">
        <ele>388.9</ele>
        <time>2016-05-21T11:32:33Z</time>
      </trkpt>
      <trkpt lat="45.35565" lon="5.61527">
        <ele>386.9</ele>
        <time>2016-05-21T11:32:34Z</time>
      </trkpt>
      <trkpt lat="45.35558" lon="5.61523">
        <ele>385.2</ele>
        <time>2016-05-21T11:32:35Z</time>
      </trkpt>
      <trkpt lat="45.35551" lon="5.61521">
        <ele>383.8</ele>
        <time>2016-05-21T11:32:36Z</time>
      </trkpt>
      <trkpt lat="45.35543" lon="5.61518">
        <ele>381.9</ele>
        <time>2016-05-21T11:32:37Z</time>
      </trkpt>
      <trkpt lat="45.35535" lon="5.61517">
        <ele>380.1</ele>
        <time>2016-05-21T11:32:38Z</time>
      </trkpt>
      <trkpt lat="45.35522" lon="5.61513">
        <ele>376.2</ele>
        <time>2016-05-21T11:32:40Z</time>
      </trkpt>
      <trkpt lat="45.35507" lon="5.61514">
        <ele>372.7</ele>
        <time>2016-05-21T11:32:42Z</time>
      </trkpt>
      <trkpt lat="45.35499" lon="5.61515">
        <ele>371.2</ele>
        <time>2016-05-21T11:32:43Z</time>
      </trkpt>
      <trkpt lat="45.35486" lon="5.61518">
        <ele>369.7</ele>
        <time>2016-05-21T11:32:45Z</time>
      </trkpt>
      <trkpt lat="45.35473" lon="5.61521">
        <ele>368.9</ele>
        <time>2016-05-21T11:32:47Z</time>
      </trkpt>
      <trkpt lat="45.35463" lon="5.61514">
        <ele>369</ele>
        <time>2016-05-21T11:32:49Z</time>
      </trkpt>
      <trkpt lat="45.35458" lon="5.61502">
        <ele>368.8</ele>
        <time>2016-05-21T11:32:51Z</time>
      </trkpt>
      <trkpt lat="45.35459" lon="5.61487">
        <ele>367.7</ele>
        <time>2016-05-21T11:32:53Z</time>
      </trkpt>
      <trkpt lat="45.35461" lon="5.6147">
        <ele>368.4</ele>
        <time>2016-05-21T11:32:55Z</time>
      </trkpt>
      <trkpt lat="45.35463" lon="5.61459">
        <ele>368.9</ele>
        <time>2016-05-21T11:32:56Z</time>
      </trkpt>
      <trkpt lat="45.35465" lon="5.61448">
        <ele>369.3</ele>
        <time>2016-05-21T11:32:57Z</time>
      </trkpt>
      <trkpt lat="45.35467" lon="5.61436">
        <ele>369.3</ele>
        <time>2016-05-21T11:32:58Z</time>
      </trkpt>
      <trkpt lat="45.35469" lon="5.61426">
        <ele>369.3</ele>
        <time>2016-05-21T11:32:59Z</time>
      </trkpt>
      <trkpt lat="45.35472" lon="5.61416">
        <ele>369.4</ele>
        <time>2016-05-21T11:33:00Z</time>
      </trkpt>
      <trkpt lat="45.35475" lon="5.61399">
        <ele>368.4</ele>
        <time>2016-05-21T11:33:02Z</time>
      </trkpt>
      <trkpt lat="45.35479" lon="5.61381">
        <ele>367.1</ele>
        <time>2016-05-21T11:33:04Z</time>
      </trkpt>
      <trkpt lat="45.35483" lon="5.61364">
        <ele>367.1</ele>
        <time>2016-05-21T11:33:06Z</time>
      </trkpt>
      <trkpt lat="45.35487" lon="5.61348">
        <ele>367.5</ele>
        <time>2016-05-21T11:33:08Z</time>
      </trkpt>
      <trkpt lat="45.3549" lon="5.61334">
        <ele>367.1</ele>
        <time>2016-05-21T11:33:10Z</time>
      </trkpt>
      <trkpt lat="45.35492" lon="5.61321">
        <ele>367</ele>
        <time>2016-05-21T11:33:13Z</time>
      </trkpt>
      <trkpt lat="45.35482" lon="5.61312">
        <ele>366</ele>
        <time>2016-05-21T11:33:17Z</time>
      </trkpt>
      <trkpt lat="45.35475" lon="5.61302">
        <ele>364.3</ele>
        <time>2016-05-21T11:33:19Z</time>
      </trkpt>
      <trkpt lat="45.35467" lon="5.61292">
        <ele>363.4</ele>
        <time>2016-05-21T11:33:21Z</time>
      </trkpt>
      <trkpt lat="45.35457" lon="5.61281">
        <ele>363.8</ele>
        <time>2016-05-21T11:33:23Z</time>
      </trkpt>
      <trkpt lat="45.35447" lon="5.61273">
        <ele>363.7</ele>
        <time>2016-05-21T11:33:25Z</time>
      </trkpt>
      <trkpt lat="45.35437" lon="5.61264">
        <ele>363</ele>
        <time>2016-05-21T11:33:27Z</time>
      </trkpt>
      <trkpt lat="45.3543" lon="5.61253">
        <ele>362.8</ele>
        <time>2016-05-21T11:33:29Z</time>
      </trkpt>
      <trkpt lat="45.35423" lon="5.61241">
        <ele>363.3</ele>
        <time>2016-05-21T11:33:31Z</time>
      </trkpt>
      <trkpt lat="45.35417" lon="5.61229">
        <ele>361.3</ele>
        <time>2016-05-21T11:33:33Z</time>
      </trkpt>
      <trkpt lat="45.3541" lon="5.61217">
        <ele>358.4</ele>
        <time>2016-05-21T11:33:35Z</time>
      </trkpt>
      <trkpt lat="45.35404" lon="5.61204">
        <ele>357.7</ele>
        <time>2016-05-21T11:33:37Z</time>
      </trkpt>
      <trkpt lat="45.35399" lon="5.61192">
        <ele>356.3</ele>
        <time>2016-05-21T11:33:39Z</time>
      </trkpt>
      <trkpt lat="45.35392" lon="5.61178">
        <ele>353.7</ele>
        <time>2016-05-21T11:33:41Z</time>
      </trkpt>
      <trkpt lat="45.35388" lon="5.61164">
        <ele>352.6</ele>
        <time>2016-05-21T11:33:43Z</time>
      </trkpt>
      <trkpt lat="45.35383" lon="5.61152">
        <ele>352</ele>
        <time>2016-05-21T11:33:45Z</time>
      </trkpt>
      <trkpt lat="45.3538" lon="5.61143">
        <ele>351.9</ele>
        <time>2016-05-21T11:33:47Z</time>
      </trkpt>
      <trkpt lat="45.35376" lon="5.61133">
        <ele>351.8</ele>
        <time>2016-05-21T11:33:49Z</time>
      </trkpt>
      <trkpt lat="45.35367" lon="5.61132">
        <ele>348.3</ele>
        <time>2016-05-21T11:33:51Z</time>
      </trkpt>
      <trkpt lat="45.3536" lon="5.61141">
        <ele>347.1</ele>
        <time>2016-05-21T11:33:54Z</time>
      </trkpt>
      <trkpt lat="45.35354" lon="5.61152">
        <ele>347.4</ele>
        <time>2016-05-21T11:33:57Z</time>
      </trkpt>
      <trkpt lat="45.3535" lon="5.61163">
        <ele>348.1</ele>
        <time>2016-05-21T11:34:01Z</time>
      </trkpt>
      <trkpt lat="45.35344" lon="5.61175">
        <ele>349.2</ele>
        <time>2016-05-21T11:34:05Z</time>
      </trkpt>
      <trkpt lat="45.3534" lon="5.61186">
        <ele>350.1</ele>
        <time>2016-05-21T11:34:08Z</time>
      </trkpt>
      <trkpt lat="45.35339" lon="5.61197">
        <ele>351.1</ele>
        <time>2016-05-21T11:34:12Z</time>
      </trkpt>
      <trkpt lat="45.35342" lon="5.61207">
        <ele>352.1</ele>
        <time>2016-05-21T11:34:16Z</time>
      </trkpt>
      <trkpt lat="45.35349" lon="5.61216">
        <ele>353.2</ele>
        <time>2016-05-21T11:34:20Z</time>
      </trkpt>
      <trkpt lat="45.35356" lon="5.61225">
        <ele>353.8</ele>
        <time>2016-05-21T11:34:23Z</time>
      </trkpt>
      <trkpt lat="45.35361" lon="5.61235">
        <ele>354.6</ele>
        <time>2016-05-21T11:34:26Z</time>
      </trkpt>
      <trkpt lat="45.35367" lon="5.61244">
        <ele>355.9</ele>
        <time>2016-05-21T11:34:30Z</time>
      </trkpt>
      <trkpt lat="45.35374" lon="5.61252">
        <ele>356.7</ele>
        <time>2016-05-21T11:34:33Z</time>
      </trkpt>
      <trkpt lat="45.35378" lon="5.6126">
        <ele>357.3</ele>
        <time>2016-05-21T11:34:36Z</time>
      </trkpt>
      <trkpt lat="45.35384" lon="5.61269">
        <ele>357.9</ele>
        <time>2016-05-21T11:34:40Z</time>
      </trkpt>
      <trkpt lat="45.35389" lon="5.61276">
        <ele>358.5</ele>
        <time>2016-05-21T11:34:44Z</time>
      </trkpt>
      <trkpt lat="45.35393" lon="5.61287">
        <ele>359.5</ele>
        <time>2016-05-21T11:34:50Z</time>
      </trkpt>
      <trkpt lat="45.35402" lon="5.61293">
        <ele>361</ele>
        <time>2016-05-21T11:34:56Z</time>
      </trkpt>
    </trkseg>
  </trk>
</gpx>